<?xml version='1.0' encoding='UTF-8'?><gpx version="1.1" creator="JPX - https://github.com/jenetics/jpx" xmlns="http://www.topografix.com/GPX/1/1"><trk><trkseg><trkpt lat="42.942086518010605" lon="13.877540422672608"><ele>25.0</ele><time>2026-04-05T09:36:56.624Z</time></trkpt><trkpt lat="42.94201470124441" lon="13.877590331896121"><ele>25.0</ele><time>2026-04-05T09:38:57Z</time></trkpt><trkpt lat="42.94200820279328" lon="13.877677274719373"><ele>25.0</ele><time>2026-04-05T09:38:59Z</time></trkpt><trkpt lat="42.94203476587125" lon="13.87782612599748"><ele>25.0</ele><time>2026-04-05T09:39:01Z</time></trkpt><trkpt lat="42.94203785967363" lon="13.877987074173836"><ele>25.0</ele><time>2026-04-05T09:39:03Z</time></trkpt><trkpt lat="42.94205763896781" lon="13.878131568975263"><ele>24.500000000000004</ele><time>2026-04-05T09:39:05Z</time></trkpt><trkpt lat="42.942076273598424" lon="13.878266284991874"><ele>24.0</ele><time>2026-04-05T09:39:07Z</time></trkpt><trkpt lat="42.94206546011977" lon="13.878365285076585"><ele>23.5</ele><time>2026-04-05T09:39:09Z</time></trkpt><trkpt lat="42.94208563083996" lon="13.878481911554141"><ele>23.0</ele><time>2026-04-05T09:39:11Z</time></trkpt><trkpt lat="42.942165648978936" lon="13.878550958459453"><ele>22.5</ele><time>2026-04-05T09:39:12Z</time></trkpt><trkpt lat="42.94223773428594" lon="13.878622480333028"><ele>22.0</ele><time>2026-04-05T09:39:13Z</time></trkpt><trkpt lat="42.94229044076679" lon="13.878695449707898"><ele>21.333333333333332</ele><time>2026-04-05T09:39:14Z</time></trkpt><trkpt lat="42.942330515620796" lon="13.878777966975784"><ele>20.666666666666664</ele><time>2026-04-05T09:39:15Z</time></trkpt><trkpt lat="42.94235208936157" lon="13.87886683918121"><ele>20.0</ele><time>2026-04-05T09:39:16Z</time></trkpt><trkpt lat="42.94234591738109" lon="13.878970072236536"><ele>19.333333333333332</ele><time>2026-04-05T09:39:17Z</time></trkpt><trkpt lat="42.94235792318519" lon="13.879081949357621"><ele>18.666666666666668</ele><time>2026-04-05T09:39:18Z</time></trkpt><trkpt lat="42.94236748896084" lon="13.879198003243031"><ele>18.0</ele><time>2026-04-05T09:39:19Z</time></trkpt><trkpt lat="42.94238941467798" lon="13.879315014891407"><ele>17.5</ele><time>2026-04-05T09:39:20Z</time></trkpt><trkpt lat="42.94238268430317" lon="13.87943750102"><ele>17.0</ele><time>2026-04-05T09:39:21Z</time></trkpt><trkpt lat="42.94237980790317" lon="13.879561971886178"><ele>16.5</ele><time>2026-04-05T09:39:22Z</time></trkpt><trkpt lat="42.942378767988764" lon="13.87967626996667"><ele>16.0</ele><time>2026-04-05T09:39:23Z</time></trkpt><trkpt lat="42.942382904213524" lon="13.87978308424224"><ele>15.5</ele><time>2026-04-05T09:39:24Z</time></trkpt><trkpt lat="42.94238401804284" lon="13.879881973534141"><ele>15.0</ele><time>2026-04-05T09:39:25Z</time></trkpt><trkpt lat="42.94238331685672" lon="13.879971136624452"><ele>15.0</ele><time>2026-04-05T09:39:26Z</time></trkpt><trkpt lat="42.942370501429366" lon="13.880068855409199"><ele>15.0</ele><time>2026-04-05T09:39:28Z</time></trkpt><trkpt lat="42.942244155713524" lon="13.880129874348587"><ele>15.0</ele><time>2026-04-05T09:39:36Z</time></trkpt><trkpt lat="42.94213096139026" lon="13.88016936548946"><ele>15.0</ele><time>2026-04-05T09:39:38Z</time></trkpt><trkpt lat="42.942067896625645" lon="13.880192753032993"><ele>15.0</ele><time>2026-04-05T09:39:39Z</time></trkpt><trkpt lat="42.94199825050978" lon="13.880213882208922"><ele>14.285714285714286</ele><time>2026-04-05T09:39:40Z</time></trkpt><trkpt lat="42.941935943669584" lon="13.880237131676417"><ele>13.571428571428571</ele><time>2026-04-05T09:39:41Z</time></trkpt><trkpt lat="42.94187354130994" lon="13.880255655300507"><ele>12.857142857142858</ele><time>2026-04-05T09:39:42Z</time></trkpt><trkpt lat="42.941806500192165" lon="13.880272862769209"><ele>12.142857142857142</ele><time>2026-04-05T09:39:43Z</time></trkpt><trkpt lat="42.94173632559184" lon="13.880287797509386"><ele>11.428571428571429</ele><time>2026-04-05T09:39:44Z</time></trkpt><trkpt lat="42.941661840947745" lon="13.880305765407291"><ele>10.714285714285714</ele><time>2026-04-05T09:39:45Z</time></trkpt><trkpt lat="42.941581356376595" lon="13.880325153672688"><ele>10.0</ele><time>2026-04-05T09:39:46Z</time></trkpt><trkpt lat="42.94150082826512" lon="13.880348508579706"><ele>10.0</ele><time>2026-04-05T09:39:47Z</time></trkpt><trkpt lat="42.94142257474385" lon="13.88036802485261"><ele>10.0</ele><time>2026-04-05T09:39:48Z</time></trkpt><trkpt lat="42.94134266453906" lon="13.88038629793946"><ele>10.0</ele><time>2026-04-05T09:39:49Z</time></trkpt><trkpt lat="42.94125607599452" lon="13.880401416180142"><ele>10.0</ele><time>2026-04-05T09:39:50Z</time></trkpt><trkpt lat="42.94116127731919" lon="13.880420372476799"><ele>10.0</ele><time>2026-04-05T09:39:51Z</time></trkpt><trkpt lat="42.94106464073544" lon="13.88044473879998"><ele>10.0</ele><time>2026-04-05T09:39:52Z</time></trkpt><trkpt lat="42.940965222819315" lon="13.880475852164059"><ele>9.6</ele><time>2026-04-05T09:39:53Z</time></trkpt><trkpt lat="42.94086315311432" lon="13.880506359167356"><ele>9.2</ele><time>2026-04-05T09:39:54Z</time></trkpt><trkpt lat="42.940757799572545" lon="13.880536596007877"><ele>8.8</ele><time>2026-04-05T09:39:55Z</time></trkpt><trkpt lat="42.940647391811524" lon="13.880567244297131"><ele>8.4</ele><time>2026-04-05T09:39:56Z</time></trkpt><trkpt lat="42.940532816043905" lon="13.88059603659599"><ele>8.0</ele><time>2026-04-05T09:39:57Z</time></trkpt><trkpt lat="42.94041976522016" lon="13.880628185373014"><ele>8.0</ele><time>2026-04-05T09:39:58Z</time></trkpt><trkpt lat="42.940300433702625" lon="13.880665718743385"><ele>8.0</ele><time>2026-04-05T09:39:59Z</time></trkpt><trkpt lat="42.94018219166951" lon="13.880703441297848"><ele>8.0</ele><time>2026-04-05T09:40:00Z</time></trkpt><trkpt lat="42.94006887311257" lon="13.880737823277691"><ele>8.0</ele><time>2026-04-05T09:40:01Z</time></trkpt><trkpt lat="42.93995823931959" lon="13.880777744083666"><ele>8.25</ele><time>2026-04-05T09:40:02Z</time></trkpt><trkpt lat="42.93984838560462" lon="13.88080949629637"><ele>8.5</ele><time>2026-04-05T09:40:03Z</time></trkpt><trkpt lat="42.93973904693383" lon="13.880845568149"><ele>8.75</ele><time>2026-04-05T09:40:04Z</time></trkpt><trkpt lat="42.93962721043934" lon="13.880884295305762"><ele>9.0</ele><time>2026-04-05T09:40:05Z</time></trkpt><trkpt lat="42.939512719065696" lon="13.880924725446471"><ele>8.25</ele><time>2026-04-05T09:40:06Z</time></trkpt><trkpt lat="42.93939879210547" lon="13.88096369287047"><ele>7.5</ele><time>2026-04-05T09:40:07Z</time></trkpt><trkpt lat="42.93928557622804" lon="13.88100329575928"><ele>6.75</ele><time>2026-04-05T09:40:08Z</time></trkpt><trkpt lat="42.93917359977803" lon="13.881043024690904"><ele>6.0</ele><time>2026-04-05T09:40:09Z</time></trkpt><trkpt lat="42.939059763438244" lon="13.881084362384067"><ele>5.75</ele><time>2026-04-05T09:40:10Z</time></trkpt><trkpt lat="42.93894245361941" lon="13.88112461309961"><ele>5.5</ele><time>2026-04-05T09:40:11Z</time></trkpt><trkpt lat="42.938825808338734" lon="13.881164194796957"><ele>5.25</ele><time>2026-04-05T09:40:12Z</time></trkpt><trkpt lat="42.93871087106758" lon="13.881203671425254"><ele>5.0</ele><time>2026-04-05T09:40:13Z</time></trkpt><trkpt lat="42.938594451277396" lon="13.881244205214482"><ele>5.0</ele><time>2026-04-05T09:40:14Z</time></trkpt><trkpt lat="42.93848028357008" lon="13.881281280720208"><ele>5.0</ele><time>2026-04-05T09:40:15Z</time></trkpt><trkpt lat="42.93836326632234" lon="13.881322704803981"><ele>5.0</ele><time>2026-04-05T09:40:16Z</time></trkpt><trkpt lat="42.93823953572429" lon="13.881364356034027"><ele>5.0</ele><time>2026-04-05T09:40:17Z</time></trkpt><trkpt lat="42.93811768851344" lon="13.88140873060457"><ele>5.75</ele><time>2026-04-05T09:40:18Z</time></trkpt><trkpt lat="42.93799473047846" lon="13.881460254487708"><ele>6.5</ele><time>2026-04-05T09:40:19Z</time></trkpt><trkpt lat="42.937872224752184" lon="13.881507876630137"><ele>7.25</ele><time>2026-04-05T09:40:20Z</time></trkpt><trkpt lat="42.93774864317789" lon="13.88155175643148"><ele>8.0</ele><time>2026-04-05T09:40:21Z</time></trkpt><trkpt lat="42.937628438676825" lon="13.881598546582449"><ele>8.25</ele><time>2026-04-05T09:40:22Z</time></trkpt><trkpt lat="42.937510257571745" lon="13.881647334348534"><ele>8.5</ele><time>2026-04-05T09:40:23Z</time></trkpt><trkpt lat="42.93739165695203" lon="13.881697586419596"><ele>8.75</ele><time>2026-04-05T09:40:24Z</time></trkpt><trkpt lat="42.93727451034714" lon="13.88174872701532"><ele>9.0</ele><time>2026-04-05T09:40:25Z</time></trkpt><trkpt lat="42.9371561207658" lon="13.881796519752479"><ele>8.75</ele><time>2026-04-05T09:40:26Z</time></trkpt><trkpt lat="42.93703684978141" lon="13.881850091690081"><ele>8.5</ele><time>2026-04-05T09:40:27Z</time></trkpt><trkpt lat="42.936918257241345" lon="13.881899326885673"><ele>8.25</ele><time>2026-04-05T09:40:28Z</time></trkpt><trkpt lat="42.936799811957094" lon="13.881939887048391"><ele>8.0</ele><time>2026-04-05T09:40:29Z</time></trkpt><trkpt lat="42.936691136265125" lon="13.881979930163117"><ele>8.0</ele><time>2026-04-05T09:40:30Z</time></trkpt><trkpt lat="42.93658845382424" lon="13.882013750842919"><ele>8.0</ele><time>2026-04-05T09:40:31Z</time></trkpt><trkpt lat="42.936486719411995" lon="13.88204759837649"><ele>8.0</ele><time>2026-04-05T09:40:32Z</time></trkpt><trkpt lat="42.9363821486099" lon="13.882078830151391"><ele>8.0</ele><time>2026-04-05T09:40:33Z</time></trkpt><trkpt lat="42.93627631322659" lon="13.882107709355012"><ele>8.0</ele><time>2026-04-05T09:40:34Z</time></trkpt><trkpt lat="42.9361697150162" lon="13.882135188758125"><ele>8.0</ele><time>2026-04-05T09:40:35Z</time></trkpt><trkpt lat="42.93606143710805" lon="13.882161151476325"><ele>8.0</ele><time>2026-04-05T09:40:36Z</time></trkpt><trkpt lat="42.93595022614815" lon="13.882188607109951"><ele>8.0</ele><time>2026-04-05T09:40:37Z</time></trkpt><trkpt lat="42.935831087927255" lon="13.882221990939154"><ele>8.0</ele><time>2026-04-05T09:40:38Z</time></trkpt><trkpt lat="42.935703320060405" lon="13.882252264073593"><ele>7.75</ele><time>2026-04-05T09:40:39Z</time></trkpt><trkpt lat="42.93556434059826" lon="13.882254859226535"><ele>7.5</ele><time>2026-04-05T09:40:40Z</time></trkpt><trkpt lat="42.93542456974581" lon="13.882301840695824"><ele>7.25</ele><time>2026-04-05T09:40:41Z</time></trkpt><trkpt lat="42.93528792793235" lon="13.882320246904719"><ele>7.0</ele><time>2026-04-05T09:40:42Z</time></trkpt><trkpt lat="42.93516713870689" lon="13.882345168788488"><ele>8.25</ele><time>2026-04-05T09:40:43Z</time></trkpt><trkpt lat="42.93505230219621" lon="13.88236026077083"><ele>9.5</ele><time>2026-04-05T09:40:44Z</time></trkpt><trkpt lat="42.93493723264514" lon="13.88238099133014"><ele>10.75</ele><time>2026-04-05T09:40:45Z</time></trkpt><trkpt lat="42.93482137520758" lon="13.882397899572412"><ele>12.0</ele><time>2026-04-05T09:40:46Z</time></trkpt><trkpt lat="42.93470180027101" lon="13.88240851243806"><ele>12.0</ele><time>2026-04-05T09:40:47Z</time></trkpt><trkpt lat="42.93458870942411" lon="13.882431105383947"><ele>12.0</ele><time>2026-04-05T09:40:48Z</time></trkpt><trkpt lat="42.9344755475303" lon="13.882452376398613"><ele>12.0</ele><time>2026-04-05T09:40:49Z</time></trkpt><trkpt lat="42.93436265566563" lon="13.882469970460583"><ele>12.0</ele><time>2026-04-05T09:40:50Z</time></trkpt><trkpt lat="42.934258564587296" lon="13.882490596711813"><ele>12.0</ele><time>2026-04-05T09:40:51Z</time></trkpt><trkpt lat="42.934154778463345" lon="13.882509275173978"><ele>12.399999999999999</ele><time>2026-04-05T09:40:52Z</time></trkpt><trkpt lat="42.93404918088747" lon="13.882532417267468"><ele>12.799999999999999</ele><time>2026-04-05T09:40:53Z</time></trkpt><trkpt lat="42.9339400184412" lon="13.882560118155949"><ele>13.2</ele><time>2026-04-05T09:40:54Z</time></trkpt><trkpt lat="42.9338324144183" lon="13.882603206493753"><ele>13.6</ele><time>2026-04-05T09:40:55Z</time></trkpt><trkpt lat="42.93372199518289" lon="13.882662590656238"><ele>14.0</ele><time>2026-04-05T09:40:56Z</time></trkpt><trkpt lat="42.93360669075473" lon="13.882736498230356"><ele>13.0</ele><time>2026-04-05T09:40:57Z</time></trkpt><trkpt lat="42.933488833946726" lon="13.882817721677135"><ele>12.0</ele><time>2026-04-05T09:40:58Z</time></trkpt><trkpt lat="42.93335889190224" lon="13.88290420867229"><ele>11.0</ele><time>2026-04-05T09:40:59Z</time></trkpt><trkpt lat="42.93322745784168" lon="13.882987567735515"><ele>10.0</ele><time>2026-04-05T09:41:00Z</time></trkpt><trkpt lat="42.93308374950712" lon="13.883073787240011"><ele>9.666666666666668</ele><time>2026-04-05T09:41:01Z</time></trkpt><trkpt lat="42.932932636254904" lon="13.883157768192275"><ele>9.333333333333334</ele><time>2026-04-05T09:41:02Z</time></trkpt><trkpt lat="42.93277626756476" lon="13.883240278504356"><ele>9.0</ele><time>2026-04-05T09:41:03Z</time></trkpt><trkpt lat="42.93261155895732" lon="13.883326992157535"><ele>10.333333333333332</ele><time>2026-04-05T09:41:04Z</time></trkpt><trkpt lat="42.93244188961764" lon="13.883416985146866"><ele>11.666666666666666</ele><time>2026-04-05T09:41:05Z</time></trkpt><trkpt lat="42.932268580101976" lon="13.883509180921376"><ele>13.0</ele><time>2026-04-05T09:41:06Z</time></trkpt><trkpt lat="42.932095018371" lon="13.883601893061199"><ele>11.0</ele><time>2026-04-05T09:41:07Z</time></trkpt><trkpt lat="42.931919784535815" lon="13.883689620880002"><ele>9.0</ele><time>2026-04-05T09:41:08Z</time></trkpt><trkpt lat="42.931742767029284" lon="13.883774534767195"><ele>7.0</ele><time>2026-04-05T09:41:09Z</time></trkpt><trkpt lat="42.93156076340389" lon="13.883841405696616"><ele>7.0</ele><time>2026-04-05T09:41:10Z</time></trkpt><trkpt lat="42.93138119261421" lon="13.883900244904991"><ele>7.0</ele><time>2026-04-05T09:41:11Z</time></trkpt><trkpt lat="42.93120170413238" lon="13.88395783647861"><ele>7.0</ele><time>2026-04-05T09:41:12Z</time></trkpt><trkpt lat="42.931024307565536" lon="13.884014583341038"><ele>7.0</ele><time>2026-04-05T09:41:13Z</time></trkpt><trkpt lat="42.93084817496124" lon="13.884069387628786"><ele>7.0</ele><time>2026-04-05T09:41:14Z</time></trkpt><trkpt lat="42.93067467063302" lon="13.88412487925198"><ele>7.0</ele><time>2026-04-05T09:41:15Z</time></trkpt><trkpt lat="42.93050230302848" lon="13.884178683990273"><ele>7.0</ele><time>2026-04-05T09:41:16Z</time></trkpt><trkpt lat="42.93033063315521" lon="13.884233629798995"><ele>7.0</ele><time>2026-04-05T09:41:17Z</time></trkpt><trkpt lat="42.930160993408165" lon="13.884287126180713"><ele>7.0</ele><time>2026-04-05T09:41:18Z</time></trkpt><trkpt lat="42.92999110337845" lon="13.88434232546917"><ele>6.0</ele><time>2026-04-05T09:41:19Z</time></trkpt><trkpt lat="42.92982241635225" lon="13.88439290505081"><ele>5.0</ele><time>2026-04-05T09:41:20Z</time></trkpt><trkpt lat="42.929654438231935" lon="13.884446226801106"><ele>4.0</ele><time>2026-04-05T09:41:21Z</time></trkpt><trkpt lat="42.929491397715815" lon="13.884501691166797"><ele>4.0</ele><time>2026-04-05T09:41:22Z</time></trkpt><trkpt lat="42.92933210043147" lon="13.884553125879014"><ele>4.0</ele><time>2026-04-05T09:41:23Z</time></trkpt><trkpt lat="42.92917126043086" lon="13.884602462017286"><ele>4.0</ele><time>2026-04-05T09:41:24Z</time></trkpt><trkpt lat="42.92901307653647" lon="13.884654482443102"><ele>4.333333333333333</ele><time>2026-04-05T09:41:25Z</time></trkpt><trkpt lat="42.928853399115816" lon="13.884703598577149"><ele>4.666666666666667</ele><time>2026-04-05T09:41:26Z</time></trkpt><trkpt lat="42.928686378785535" lon="13.884753877215722"><ele>5.0</ele><time>2026-04-05T09:41:27Z</time></trkpt><trkpt lat="42.92852698665655" lon="13.88480340561442"><ele>5.666666666666667</ele><time>2026-04-05T09:41:28Z</time></trkpt><trkpt lat="42.92836905812873" lon="13.884850948778785"><ele>6.333333333333334</ele><time>2026-04-05T09:41:29Z</time></trkpt><trkpt lat="42.928222599108835" lon="13.884895668352701"><ele>7.0</ele><time>2026-04-05T09:41:30Z</time></trkpt><trkpt lat="42.9280854539218" lon="13.884934675292206"><ele>7.0</ele><time>2026-04-05T09:41:31Z</time></trkpt><trkpt lat="42.92796458958485" lon="13.884968195846145"><ele>6.999999999999999</ele><time>2026-04-05T09:41:32Z</time></trkpt><trkpt lat="42.92785340659914" lon="13.88500087467095"><ele>6.999999999999999</ele><time>2026-04-05T09:41:33Z</time></trkpt><trkpt lat="42.927753885534074" lon="13.885025888982357"><ele>7.0</ele><time>2026-04-05T09:41:34Z</time></trkpt><trkpt lat="42.92766056264805" lon="13.885050525844756"><ele>7.0</ele><time>2026-04-05T09:41:35Z</time></trkpt><trkpt lat="42.927574418402955" lon="13.885071023952205"><ele>7.166666666666667</ele><time>2026-04-05T09:41:36Z</time></trkpt><trkpt lat="42.927493018367635" lon="13.88509505758594"><ele>7.333333333333334</ele><time>2026-04-05T09:41:37Z</time></trkpt><trkpt lat="42.92741235093274" lon="13.885118085721334"><ele>7.5</ele><time>2026-04-05T09:41:38Z</time></trkpt><trkpt lat="42.92733244866129" lon="13.8851422806863"><ele>7.666666666666666</ele><time>2026-04-05T09:41:39Z</time></trkpt><trkpt lat="42.9272590217207" lon="13.885168826826938"><ele>7.833333333333333</ele><time>2026-04-05T09:41:40Z</time></trkpt><trkpt lat="42.92719222367218" lon="13.88520064631544"><ele>8.0</ele><time>2026-04-05T09:41:41Z</time></trkpt><trkpt lat="42.927122857201944" lon="13.885239697708153"><ele>7.499999999999999</ele><time>2026-04-05T09:41:42Z</time></trkpt><trkpt lat="42.9270502403206" lon="13.885262193851505"><ele>7.0</ele><time>2026-04-05T09:41:43Z</time></trkpt><trkpt lat="42.92697376869952" lon="13.885258187188933"><ele>6.5</ele><time>2026-04-05T09:41:44Z</time></trkpt><trkpt lat="42.9269104328233" lon="13.885276918989097"><ele>6.0</ele><time>2026-04-05T09:41:45Z</time></trkpt><trkpt lat="42.92684008905795" lon="13.885405732850082"><ele>5.5</ele><time>2026-04-05T09:41:47Z</time></trkpt><trkpt lat="42.92684515593163" lon="13.88550302247734"><ele>5.0</ele><time>2026-04-05T09:41:48Z</time></trkpt><trkpt lat="42.92688457791292" lon="13.885607306074583"><ele>5.0</ele><time>2026-04-05T09:41:49Z</time></trkpt><trkpt lat="42.926929364781145" lon="13.885717500353369"><ele>5.0</ele><time>2026-04-05T09:41:50Z</time></trkpt><trkpt lat="42.92695100439961" lon="13.885845471720023"><ele>5.0</ele><time>2026-04-05T09:41:51Z</time></trkpt><trkpt lat="42.92694429282139" lon="13.886004896096928"><ele>5.0</ele><time>2026-04-05T09:41:52Z</time></trkpt><trkpt lat="42.92692458406756" lon="13.886176158850674"><ele>5.0</ele><time>2026-04-05T09:41:53Z</time></trkpt><trkpt lat="42.92690331525692" lon="13.88634631415346"><ele>4.75</ele><time>2026-04-05T09:41:54Z</time></trkpt><trkpt lat="42.92687533251992" lon="13.886495532110185"><ele>4.5</ele><time>2026-04-05T09:41:55Z</time></trkpt><trkpt lat="42.92677215903982" lon="13.886727087001551"><ele>4.25</ele><time>2026-04-05T09:41:57Z</time></trkpt><trkpt lat="42.926688972411085" lon="13.886801560622914"><ele>4.0</ele><time>2026-04-05T09:41:58Z</time></trkpt><trkpt lat="42.926595755232974" lon="13.886874866795688"><ele>4.6</ele><time>2026-04-05T09:41:59Z</time></trkpt><trkpt lat="42.92650698935975" lon="13.886900384912217"><ele>5.2</ele><time>2026-04-05T09:42:00Z</time></trkpt><trkpt lat="42.92641754688842" lon="13.886969471293751"><ele>5.799999999999999</ele><time>2026-04-05T09:42:01Z</time></trkpt><trkpt lat="42.92636141540665" lon="13.88708707738058"><ele>6.3999999999999995</ele><time>2026-04-05T09:42:02Z</time></trkpt><trkpt lat="42.92633634591579" lon="13.887220578756278"><ele>7.0</ele><time>2026-04-05T09:42:03Z</time></trkpt><trkpt lat="42.92633735837671" lon="13.887357018518204"><ele>7.0</ele><time>2026-04-05T09:42:04Z</time></trkpt><trkpt lat="42.92636937241377" lon="13.887508082963778"><ele>7.0</ele><time>2026-04-05T09:42:05Z</time></trkpt><trkpt lat="42.926411486989544" lon="13.88766922643699"><ele>7.0</ele><time>2026-04-05T09:42:06Z</time></trkpt><trkpt lat="42.92643737962994" lon="13.887840326618536"><ele>7.0</ele><time>2026-04-05T09:42:07Z</time></trkpt><trkpt lat="42.92644707731908" lon="13.888020489549136"><ele>6.75</ele><time>2026-04-05T09:42:08Z</time></trkpt><trkpt lat="42.92645841081115" lon="13.888211553810818"><ele>6.5</ele><time>2026-04-05T09:42:09Z</time></trkpt><trkpt lat="42.926464404247135" lon="13.888412868142598"><ele>6.25</ele><time>2026-04-05T09:42:10Z</time></trkpt><trkpt lat="42.92647112557411" lon="13.888623568584226"><ele>6.0</ele><time>2026-04-05T09:42:11Z</time></trkpt><trkpt lat="42.926477187577056" lon="13.888843209868229"><ele>5.666666666666667</ele><time>2026-04-05T09:42:12Z</time></trkpt><trkpt lat="42.926478330157806" lon="13.889052983023738"><ele>5.333333333333334</ele><time>2026-04-05T09:42:13Z</time></trkpt><trkpt lat="42.926467215230424" lon="13.889256297110993"><ele>5.0</ele><time>2026-04-05T09:42:14Z</time></trkpt><trkpt lat="42.92645508579151" lon="13.88946562965743"><ele>4.333333333333334</ele><time>2026-04-05T09:42:15Z</time></trkpt><trkpt lat="42.92644713316214" lon="13.889693952549559"><ele>3.666666666666667</ele><time>2026-04-05T09:42:16Z</time></trkpt><trkpt lat="42.92644218202145" lon="13.889933237551725"><ele>3.0</ele><time>2026-04-05T09:42:17Z</time></trkpt><trkpt lat="42.92644614392664" lon="13.890195576540652"><ele>2.6666666666666665</ele><time>2026-04-05T09:42:18Z</time></trkpt><trkpt lat="42.92644849874694" lon="13.890471589804683"><ele>2.333333333333333</ele><time>2026-04-05T09:42:19Z</time></trkpt><trkpt lat="42.92644756663204" lon="13.890758179497547"><ele>2.0</ele><time>2026-04-05T09:42:20Z</time></trkpt><trkpt lat="42.92640199681541" lon="13.891041241658309"><ele>1.6666666666666665</ele><time>2026-04-05T09:42:21Z</time></trkpt><trkpt lat="42.92639231593431" lon="13.891323684675605"><ele>1.3333333333333333</ele><time>2026-04-05T09:42:22Z</time></trkpt><trkpt lat="42.9263387206993" lon="13.891583926164495"><ele>1.0</ele><time>2026-04-05T09:42:23Z</time></trkpt><trkpt lat="42.92628840790759" lon="13.891843545989339"><ele>1.3333333333333333</ele><time>2026-04-05T09:42:24Z</time></trkpt><trkpt lat="42.926223726237794" lon="13.892104745244586"><ele>1.6666666666666665</ele><time>2026-04-05T09:42:25Z</time></trkpt><trkpt lat="42.926155640765124" lon="13.892369955177728"><ele>2.0</ele><time>2026-04-05T09:42:26Z</time></trkpt><trkpt lat="42.92605463291062" lon="13.892617326650882"><ele>2.0</ele><time>2026-04-05T09:42:27Z</time></trkpt><trkpt lat="42.92593758442043" lon="13.89285454592707"><ele>2.0</ele><time>2026-04-05T09:42:28Z</time></trkpt><trkpt lat="42.92581093262778" lon="13.8930837055681"><ele>2.0</ele><time>2026-04-05T09:42:29Z</time></trkpt><trkpt lat="42.9256706949439" lon="13.893294904886629"><ele>3.333333333333333</ele><time>2026-04-05T09:42:30Z</time></trkpt><trkpt lat="42.92551803997014" lon="13.893492003626557"><ele>4.666666666666667</ele><time>2026-04-05T09:42:31Z</time></trkpt><trkpt lat="42.92535220627189" lon="13.893670543261534"><ele>6.0</ele><time>2026-04-05T09:42:32Z</time></trkpt><trkpt lat="42.925174264120706" lon="13.89382254782024"><ele>5.333333333333333</ele><time>2026-04-05T09:42:33Z</time></trkpt><trkpt lat="42.92499100503773" lon="13.89396159606718"><ele>4.666666666666666</ele><time>2026-04-05T09:42:34Z</time></trkpt><trkpt lat="42.92479934349909" lon="13.894086563641922"><ele>4.0</ele><time>2026-04-05T09:42:35Z</time></trkpt><trkpt lat="42.92460187963187" lon="13.894198836445383"><ele>4.0</ele><time>2026-04-05T09:42:36Z</time></trkpt><trkpt lat="42.92440012378799" lon="13.894295466887426"><ele>4.0</ele><time>2026-04-05T09:42:37Z</time></trkpt><trkpt lat="42.9241963251057" lon="13.894391462451319"><ele>4.0</ele><time>2026-04-05T09:42:38Z</time></trkpt><trkpt lat="42.92399164374976" lon="13.894479225334075"><ele>4.0</ele><time>2026-04-05T09:42:39Z</time></trkpt><trkpt lat="42.92378152531555" lon="13.894558973987735"><ele>4.0</ele><time>2026-04-05T09:42:40Z</time></trkpt><trkpt lat="42.923574609497045" lon="13.894642611534431"><ele>4.0</ele><time>2026-04-05T09:42:41Z</time></trkpt><trkpt lat="42.92336922015787" lon="13.894741256302865"><ele>3.6666666666666665</ele><time>2026-04-05T09:42:42Z</time></trkpt><trkpt lat="42.923170610859714" lon="13.894863915447143"><ele>3.333333333333333</ele><time>2026-04-05T09:42:43Z</time></trkpt><trkpt lat="42.92298293808473" lon="13.895014006636044"><ele>3.0</ele><time>2026-04-05T09:42:44Z</time></trkpt><trkpt lat="42.92280343756355" lon="13.895176404145294"><ele>3.666666666666667</ele><time>2026-04-05T09:42:45Z</time></trkpt><trkpt lat="42.922631876936094" lon="13.895354315964623"><ele>4.333333333333334</ele><time>2026-04-05T09:42:46Z</time></trkpt><trkpt lat="42.92245918638821" lon="13.895531234622107"><ele>5.0</ele><time>2026-04-05T09:42:47Z</time></trkpt><trkpt lat="42.92227458344749" lon="13.895685512257579"><ele>5.333333333333334</ele><time>2026-04-05T09:42:48Z</time></trkpt><trkpt lat="42.92207895541822" lon="13.895813485796022"><ele>5.666666666666667</ele><time>2026-04-05T09:42:49Z</time></trkpt><trkpt lat="42.921875058266295" lon="13.895923275748165"><ele>6.0</ele><time>2026-04-05T09:42:50Z</time></trkpt><trkpt lat="42.921666332293235" lon="13.896011812486362"><ele>4.666666666666667</ele><time>2026-04-05T09:42:51Z</time></trkpt><trkpt lat="42.9214601326088" lon="13.896077168314694"><ele>3.333333333333333</ele><time>2026-04-05T09:42:52Z</time></trkpt><trkpt lat="42.921245765344615" lon="13.896121715238431"><ele>2.0</ele><time>2026-04-05T09:42:53Z</time></trkpt><trkpt lat="42.92102606336527" lon="13.896151849599056"><ele>2.6666666666666665</ele><time>2026-04-05T09:42:54Z</time></trkpt><trkpt lat="42.920806239223346" lon="13.896179600053092"><ele>3.333333333333333</ele><time>2026-04-05T09:42:55Z</time></trkpt><trkpt lat="42.920584741548645" lon="13.896207707791188"><ele>4.0</ele><time>2026-04-05T09:42:56Z</time></trkpt><trkpt lat="42.92036164639048" lon="13.896235377658533"><ele>4.0</ele><time>2026-04-05T09:42:57Z</time></trkpt><trkpt lat="42.92013557700605" lon="13.896256015817954"><ele>4.0</ele><time>2026-04-05T09:42:58Z</time></trkpt><trkpt lat="42.919910080724314" lon="13.896277321149096"><ele>4.0</ele><time>2026-04-05T09:42:59Z</time></trkpt><trkpt lat="42.91968623250546" lon="13.896301581313217"><ele>4.0</ele><time>2026-04-05T09:43:00Z</time></trkpt><trkpt lat="42.919460826864885" lon="13.896327490728588"><ele>4.0</ele><time>2026-04-05T09:43:01Z</time></trkpt><trkpt lat="42.91923729350089" lon="13.896357603500306"><ele>4.0</ele><time>2026-04-05T09:43:02Z</time></trkpt><trkpt lat="42.9190136115298" lon="13.896392078729491"><ele>3.6666666666666665</ele><time>2026-04-05T09:43:03Z</time></trkpt><trkpt lat="42.91879364177089" lon="13.896431708597216"><ele>3.333333333333333</ele><time>2026-04-05T09:43:04Z</time></trkpt><trkpt lat="42.91857218073769" lon="13.896478215154797"><ele>3.0</ele><time>2026-04-05T09:43:05Z</time></trkpt><trkpt lat="42.91835175113202" lon="13.89652664675658"><ele>3.0</ele><time>2026-04-05T09:43:06Z</time></trkpt><trkpt lat="42.918130716678256" lon="13.896577071299044"><ele>3.0</ele><time>2026-04-05T09:43:07Z</time></trkpt><trkpt lat="42.91791461067636" lon="13.896629887172809"><ele>3.0</ele><time>2026-04-05T09:43:08Z</time></trkpt><trkpt lat="42.917696795644076" lon="13.896690180046482"><ele>2.0</ele><time>2026-04-05T09:43:09Z</time></trkpt><trkpt lat="42.9174853988745" lon="13.896756947691285"><ele>1.0</ele><time>2026-04-05T09:43:10Z</time></trkpt><trkpt lat="42.91725667821634" lon="13.896827293308919"><ele>1.0</ele><time>2026-04-05T09:43:11Z</time></trkpt><trkpt lat="42.91703529337079" lon="13.896902359846479"><ele>1.0</ele><time>2026-04-05T09:43:12Z</time></trkpt><trkpt lat="42.91681363250417" lon="13.896981049617173"><ele>1.5</ele><time>2026-04-05T09:43:13Z</time></trkpt><trkpt lat="42.91659467133059" lon="13.897059229871921"><ele>2.0</ele><time>2026-04-05T09:43:14Z</time></trkpt><trkpt lat="42.916370818906074" lon="13.897137700263695"><ele>2.0</ele><time>2026-04-05T09:43:15Z</time></trkpt><trkpt lat="42.91614586221803" lon="13.897209248128982"><ele>2.0</ele><time>2026-04-05T09:43:16Z</time></trkpt><trkpt lat="42.915920420479814" lon="13.89727290095503"><ele>3.0</ele><time>2026-04-05T09:43:17Z</time></trkpt><trkpt lat="42.915696228305634" lon="13.897326343195633"><ele>4.0</ele><time>2026-04-05T09:43:18Z</time></trkpt><trkpt lat="42.91546914378334" lon="13.897373274451002"><ele>4.0</ele><time>2026-04-05T09:43:19Z</time></trkpt><trkpt lat="42.915241613770476" lon="13.897408733931922"><ele>4.0</ele><time>2026-04-05T09:43:20Z</time></trkpt><trkpt lat="42.91501223835768" lon="13.89744323393123"><ele>4.0</ele><time>2026-04-05T09:43:21Z</time></trkpt><trkpt lat="42.91478071053423" lon="13.897466586001281"><ele>4.0</ele><time>2026-04-05T09:43:22Z</time></trkpt><trkpt lat="42.91455343253178" lon="13.897481701911753"><ele>4.0</ele><time>2026-04-05T09:43:23Z</time></trkpt><trkpt lat="42.914326059443084" lon="13.897493078159398"><ele>4.0</ele><time>2026-04-05T09:43:24Z</time></trkpt><trkpt lat="42.914098948685286" lon="13.89750023693219"><ele>3.6666666666666665</ele><time>2026-04-05T09:43:25Z</time></trkpt><trkpt lat="42.913876110190834" lon="13.897499578846844"><ele>3.333333333333333</ele><time>2026-04-05T09:43:26Z</time></trkpt><trkpt lat="42.913650458384325" lon="13.897492259952868"><ele>3.0</ele><time>2026-04-05T09:43:27Z</time></trkpt><trkpt lat="42.913425924977545" lon="13.897480902003705"><ele>2.6666666666666665</ele><time>2026-04-05T09:43:28Z</time></trkpt><trkpt lat="42.91320283706698" lon="13.897467646462196"><ele>2.333333333333333</ele><time>2026-04-05T09:43:29Z</time></trkpt><trkpt lat="42.91297960037139" lon="13.89745431177465"><ele>2.0</ele><time>2026-04-05T09:43:30Z</time></trkpt><trkpt lat="42.91276172782353" lon="13.897445190476878"><ele>2.0</ele><time>2026-04-05T09:43:31Z</time></trkpt><trkpt lat="42.91254562178886" lon="13.8974347083607"><ele>2.0</ele><time>2026-04-05T09:43:32Z</time></trkpt><trkpt lat="42.9123353810657" lon="13.897423678745817"><ele>2.0</ele><time>2026-04-05T09:43:33Z</time></trkpt><trkpt lat="42.91212910440302" lon="13.897413508837456"><ele>2.0</ele><time>2026-04-05T09:43:34Z</time></trkpt><trkpt lat="42.911924476529336" lon="13.897405305049507"><ele>2.0</ele><time>2026-04-05T09:43:35Z</time></trkpt><trkpt lat="42.911723594692404" lon="13.897395843763366"><ele>2.0</ele><time>2026-04-05T09:43:36Z</time></trkpt><trkpt lat="42.911530899693766" lon="13.89738959414029"><ele>2.333333333333333</ele><time>2026-04-05T09:43:37Z</time></trkpt><trkpt lat="42.91134274703816" lon="13.897385192089722"><ele>2.6666666666666665</ele><time>2026-04-05T09:43:38Z</time></trkpt><trkpt lat="42.911161584904" lon="13.897383181006749"><ele>3.0</ele><time>2026-04-05T09:43:39Z</time></trkpt><trkpt lat="42.91098743251783" lon="13.89738098052212"><ele>2.6666666666666665</ele><time>2026-04-05T09:43:40Z</time></trkpt><trkpt lat="42.91081809466919" lon="13.897381363100097"><ele>2.333333333333333</ele><time>2026-04-05T09:43:41Z</time></trkpt><trkpt lat="42.910662543236306" lon="13.897384387500995"><ele>2.0</ele><time>2026-04-05T09:43:42Z</time></trkpt><trkpt lat="42.91050948979559" lon="13.89738737736119"><ele>2.0</ele><time>2026-04-05T09:43:43Z</time></trkpt><trkpt lat="42.91035375048904" lon="13.897392288244996"><ele>2.0</ele><time>2026-04-05T09:43:44Z</time></trkpt><trkpt lat="42.910197626079295" lon="13.897401557498702"><ele>2.0</ele><time>2026-04-05T09:43:45Z</time></trkpt><trkpt lat="42.91003494160413" lon="13.897410715013454"><ele>2.333333333333333</ele><time>2026-04-05T09:43:46Z</time></trkpt><trkpt lat="42.90985965449818" lon="13.897423127454934"><ele>2.6666666666666665</ele><time>2026-04-05T09:43:47Z</time></trkpt><trkpt lat="42.909666952309706" lon="13.897443103856721"><ele>3.0</ele><time>2026-04-05T09:43:48Z</time></trkpt><trkpt lat="42.909467946579305" lon="13.897460685293813"><ele>3.0</ele><time>2026-04-05T09:43:49Z</time></trkpt><trkpt lat="42.90926350316965" lon="13.897473349426113"><ele>3.0</ele><time>2026-04-05T09:43:50Z</time></trkpt><trkpt lat="42.90905288840138" lon="13.897486401502094"><ele>3.0</ele><time>2026-04-05T09:43:51Z</time></trkpt><trkpt lat="42.908847923001154" lon="13.897501362329917"><ele>3.0</ele><time>2026-04-05T09:43:52Z</time></trkpt><trkpt lat="42.90863798127604" lon="13.897517521412421"><ele>3.0</ele><time>2026-04-05T09:43:53Z</time></trkpt><trkpt lat="42.90842857230541" lon="13.897532587041571"><ele>3.0</ele><time>2026-04-05T09:43:54Z</time></trkpt><trkpt lat="42.90821970794008" lon="13.897548400489722"><ele>2.6666666666666665</ele><time>2026-04-05T09:43:55Z</time></trkpt><trkpt lat="42.90801565383442" lon="13.897564431475548"><ele>2.333333333333333</ele><time>2026-04-05T09:43:56Z</time></trkpt><trkpt lat="42.90781802821878" lon="13.897578481667319"><ele>2.0</ele><time>2026-04-05T09:43:57Z</time></trkpt><trkpt lat="42.90762561958484" lon="13.897594638021227"><ele>1.3333333333333333</ele><time>2026-04-05T09:43:58Z</time></trkpt><trkpt lat="42.90743628852254" lon="13.897611417482054"><ele>0.6666666666666666</ele><time>2026-04-05T09:43:59Z</time></trkpt><trkpt lat="42.907243377186916" lon="13.897627309849097"><ele>0.0</ele><time>2026-04-05T09:44:00Z</time></trkpt><trkpt lat="42.90705015932191" lon="13.897642023272907"><ele>0.0</ele><time>2026-04-05T09:44:01Z</time></trkpt><trkpt lat="42.90685751176611" lon="13.897656089955296"><ele>0.0</ele><time>2026-04-05T09:44:02Z</time></trkpt><trkpt lat="42.90666735585453" lon="13.89767186740234"><ele>0.0</ele><time>2026-04-05T09:44:03Z</time></trkpt><trkpt lat="42.90648058373927" lon="13.89768868644742"><ele>-0.3333333333333333</ele><time>2026-04-05T09:44:04Z</time></trkpt><trkpt lat="42.90630122861601" lon="13.897704442786141"><ele>-0.6666666666666666</ele><time>2026-04-05T09:44:05Z</time></trkpt><trkpt lat="42.90612601796179" lon="13.89771919980869"><ele>-1.0</ele><time>2026-04-05T09:44:06Z</time></trkpt><trkpt lat="42.90595256838876" lon="13.897737909161203"><ele>0.0</ele><time>2026-04-05T09:44:07Z</time></trkpt><trkpt lat="42.905770752122386" lon="13.897755395087096"><ele>1.0</ele><time>2026-04-05T09:44:08Z</time></trkpt><trkpt lat="42.90557996608674" lon="13.897775530187193"><ele>2.0</ele><time>2026-04-05T09:44:09Z</time></trkpt><trkpt lat="42.90537973324602" lon="13.897794146680548"><ele>2.0</ele><time>2026-04-05T09:44:10Z</time></trkpt><trkpt lat="42.905176304156605" lon="13.897810400286149"><ele>2.0</ele><time>2026-04-05T09:44:11Z</time></trkpt><trkpt lat="42.90496622485672" lon="13.897826927035085"><ele>2.0</ele><time>2026-04-05T09:44:12Z</time></trkpt><trkpt lat="42.904749515000965" lon="13.897847428569253"><ele>2.0</ele><time>2026-04-05T09:44:13Z</time></trkpt><trkpt lat="42.904525766613816" lon="13.897862460659372"><ele>2.0</ele><time>2026-04-05T09:44:14Z</time></trkpt><trkpt lat="42.90430319826252" lon="13.897879085065236"><ele>2.0</ele><time>2026-04-05T09:44:15Z</time></trkpt><trkpt lat="42.90408353809454" lon="13.897893643665892"><ele>2.0</ele><time>2026-04-05T09:44:16Z</time></trkpt><trkpt lat="42.903868782531156" lon="13.897912246202898"><ele>2.0</ele><time>2026-04-05T09:44:17Z</time></trkpt><trkpt lat="42.903658411886155" lon="13.897932019817295"><ele>2.0</ele><time>2026-04-05T09:44:18Z</time></trkpt><trkpt lat="42.903450658665506" lon="13.897958579194196"><ele>2.333333333333333</ele><time>2026-04-05T09:44:19Z</time></trkpt><trkpt lat="42.90324817595969" lon="13.898012591930026"><ele>2.6666666666666665</ele><time>2026-04-05T09:44:20Z</time></trkpt><trkpt lat="42.90304837627159" lon="13.898082251010416"><ele>3.0</ele><time>2026-04-05T09:44:21Z</time></trkpt><trkpt lat="42.902852912198746" lon="13.898165911905611"><ele>3.0</ele><time>2026-04-05T09:44:22Z</time></trkpt><trkpt lat="42.90266426391366" lon="13.89825888313627"><ele>3.0</ele><time>2026-04-05T09:44:23Z</time></trkpt><trkpt lat="42.90248023723492" lon="13.898359324663991"><ele>3.0</ele><time>2026-04-05T09:44:24Z</time></trkpt><trkpt lat="42.902296656482235" lon="13.898453046334527"><ele>2.0</ele><time>2026-04-05T09:44:25Z</time></trkpt><trkpt lat="42.902113375604664" lon="13.898542941268238"><ele>1.0</ele><time>2026-04-05T09:44:26Z</time></trkpt><trkpt lat="42.901942247632164" lon="13.8986254661597"><ele>0.0</ele><time>2026-04-05T09:44:27Z</time></trkpt><trkpt lat="42.90178339744683" lon="13.898700962193717"><ele>0.3333333333333333</ele><time>2026-04-05T09:44:28Z</time></trkpt><trkpt lat="42.90162996642906" lon="13.898776077584632"><ele>0.6666666666666666</ele><time>2026-04-05T09:44:29Z</time></trkpt><trkpt lat="42.90147738375354" lon="13.898851237180656"><ele>1.0</ele><time>2026-04-05T09:44:30Z</time></trkpt><trkpt lat="42.90132354621379" lon="13.898926598146005"><ele>1.0</ele><time>2026-04-05T09:44:31Z</time></trkpt><trkpt lat="42.901167698685754" lon="13.899002690139437"><ele>1.0</ele><time>2026-04-05T09:44:32Z</time></trkpt><trkpt lat="42.90101068526241" lon="13.89907666602092"><ele>1.0</ele><time>2026-04-05T09:44:33Z</time></trkpt><trkpt lat="42.90084657233747" lon="13.899146797132108"><ele>1.3333333333333333</ele><time>2026-04-05T09:44:34Z</time></trkpt><trkpt lat="42.90067686689783" lon="13.899204078271046"><ele>1.6666666666666665</ele><time>2026-04-05T09:44:35Z</time></trkpt><trkpt lat="42.900503318910125" lon="13.89924246464863"><ele>2.0</ele><time>2026-04-05T09:44:36Z</time></trkpt><trkpt lat="42.90032033676284" lon="13.899265908212401"><ele>1.6666666666666665</ele><time>2026-04-05T09:44:37Z</time></trkpt><trkpt lat="42.90013192547856" lon="13.899274198092696"><ele>1.3333333333333333</ele><time>2026-04-05T09:44:38Z</time></trkpt><trkpt lat="42.89994549756471" lon="13.899262258549541"><ele>1.0</ele><time>2026-04-05T09:44:39Z</time></trkpt><trkpt lat="42.899756412688184" lon="13.899232858728553"><ele>2.0</ele><time>2026-04-05T09:44:40Z</time></trkpt><trkpt lat="42.899571352677306" lon="13.899183309272614"><ele>3.0</ele><time>2026-04-05T09:44:41Z</time></trkpt><trkpt lat="42.89939334767073" lon="13.899120138388636"><ele>4.0</ele><time>2026-04-05T09:44:42Z</time></trkpt><trkpt lat="42.899222227379475" lon="13.899045016091822"><ele>4.0</ele><time>2026-04-05T09:44:43Z</time></trkpt><trkpt lat="42.8990640680611" lon="13.898950327056975"><ele>4.0</ele><time>2026-04-05T09:44:44Z</time></trkpt><trkpt lat="42.89890618128704" lon="13.89884492963017"><ele>4.0</ele><time>2026-04-05T09:44:45Z</time></trkpt><trkpt lat="42.89874462090102" lon="13.89871589691037"><ele>4.0</ele><time>2026-04-05T09:44:46Z</time></trkpt><trkpt lat="42.89858902988438" lon="13.898567562490527"><ele>4.0</ele><time>2026-04-05T09:44:47Z</time></trkpt><trkpt lat="42.89843951882724" lon="13.898402735221048"><ele>4.0</ele><time>2026-04-05T09:44:48Z</time></trkpt><trkpt lat="42.89829642566071" lon="13.89822274643905"><ele>4.333333333333333</ele><time>2026-04-05T09:44:49Z</time></trkpt><trkpt lat="42.898164964413304" lon="13.898029890162546"><ele>4.666666666666667</ele><time>2026-04-05T09:44:50Z</time></trkpt><trkpt lat="42.898041538084755" lon="13.897844873650243"><ele>5.0</ele><time>2026-04-05T09:44:51Z</time></trkpt><trkpt lat="42.897800536399195" lon="13.89750733638744"><ele>5.0</ele><time>2026-04-05T09:44:53Z</time></trkpt><trkpt lat="42.897684077008876" lon="13.89736575973765"><ele>5.0</ele><time>2026-04-05T09:44:54Z</time></trkpt><trkpt lat="42.897567957991996" lon="13.897238172172413"><ele>5.0</ele><time>2026-04-05T09:44:55Z</time></trkpt><trkpt lat="42.8974545004689" lon="13.897103743946762"><ele>5.0</ele><time>2026-04-05T09:44:56Z</time></trkpt><trkpt lat="42.8973188194315" lon="13.896987047305146"><ele>5.0</ele><time>2026-04-05T09:44:57Z</time></trkpt><trkpt lat="42.89717244913739" lon="13.896876361936162"><ele>5.0</ele><time>2026-04-05T09:44:58Z</time></trkpt><trkpt lat="42.8970307115369" lon="13.896764278932217"><ele>5.333333333333334</ele><time>2026-04-05T09:44:59Z</time></trkpt><trkpt lat="42.8968716810636" lon="13.896642314960614"><ele>5.666666666666667</ele><time>2026-04-05T09:45:00Z</time></trkpt><trkpt lat="42.89670335661783" lon="13.896514491648375"><ele>6.0</ele><time>2026-04-05T09:45:01Z</time></trkpt><trkpt lat="42.89654513548832" lon="13.896384396218915"><ele>6.0</ele><time>2026-04-05T09:45:02Z</time></trkpt><trkpt lat="42.896400316625346" lon="13.896257828234484"><ele>6.0</ele><time>2026-04-05T09:45:03Z</time></trkpt><trkpt lat="42.896268153358214" lon="13.896136839401844"><ele>6.0</ele><time>2026-04-05T09:45:04Z</time></trkpt><trkpt lat="42.89615730620692" lon="13.895993872648061"><ele>5.6</ele><time>2026-04-05T09:45:05Z</time></trkpt><trkpt lat="42.896063755338204" lon="13.895842969898698"><ele>5.199999999999999</ele><time>2026-04-05T09:45:06Z</time></trkpt><trkpt lat="42.89600749943674" lon="13.895717646483698"><ele>4.800000000000001</ele><time>2026-04-05T09:45:07Z</time></trkpt><trkpt lat="42.89597424653955" lon="13.895615302998468"><ele>4.4</ele><time>2026-04-05T09:45:08Z</time></trkpt><trkpt lat="42.89593382903116" lon="13.895476872271384"><ele>4.0</ele><time>2026-04-05T09:45:10Z</time></trkpt><trkpt lat="42.89591536532286" lon="13.895387560396205"><ele>3.9999999999999996</ele><time>2026-04-05T09:45:12Z</time></trkpt><trkpt lat="42.89590834365121" lon="13.895301599006794"><ele>4.0</ele><time>2026-04-05T09:45:14Z</time></trkpt><trkpt lat="42.89590501023023" lon="13.895207983418832"><ele>4.0</ele><time>2026-04-05T09:45:18Z</time></trkpt><trkpt lat="42.89591230202623" lon="13.895056174238075"><ele>4.0</ele><time>2026-04-05T09:45:21Z</time></trkpt><trkpt lat="42.895918190972154" lon="13.894926586791797"><ele>3.9999999999999996</ele><time>2026-04-05T09:45:23Z</time></trkpt><trkpt lat="42.89592295495321" lon="13.894778820101303"><ele>4.0</ele><time>2026-04-05T09:45:25Z</time></trkpt><trkpt lat="42.895929034301645" lon="13.894613464628893"><ele>3.4999999999999996</ele><time>2026-04-05T09:45:27Z</time></trkpt><trkpt lat="42.89593443017284" lon="13.894516552678072"><ele>3.0</ele><time>2026-04-05T09:45:28Z</time></trkpt><trkpt lat="42.89593212725801" lon="13.894395329800727"><ele>2.5</ele><time>2026-04-05T09:45:29Z</time></trkpt><trkpt lat="42.89592653806071" lon="13.894288038501402"><ele>2.0</ele><time>2026-04-05T09:45:30Z</time></trkpt><trkpt lat="42.895922370314096" lon="13.894180062885109"><ele>1.5</ele><time>2026-04-05T09:45:31Z</time></trkpt><trkpt lat="42.89591540319712" lon="13.894065510584714"><ele>1.0</ele><time>2026-04-05T09:45:32Z</time></trkpt><trkpt lat="42.89591099968038" lon="13.893937424737647"><ele>1.0</ele><time>2026-04-05T09:45:33Z</time></trkpt><trkpt lat="42.89590881552323" lon="13.893806511192789"><ele>1.0</ele><time>2026-04-05T09:45:34Z</time></trkpt><trkpt lat="42.89591327109223" lon="13.893672555934966"><ele>1.0</ele><time>2026-04-05T09:45:35Z</time></trkpt><trkpt lat="42.89591652961185" lon="13.893538432662988"><ele>1.0</ele><time>2026-04-05T09:45:36Z</time></trkpt><trkpt lat="42.895919764066676" lon="13.893406410369089"><ele>1.0</ele><time>2026-04-05T09:45:37Z</time></trkpt><trkpt lat="42.89591813396958" lon="13.893258003866048"><ele>1.0</ele><time>2026-04-05T09:45:38Z</time></trkpt><trkpt lat="42.895914435126954" lon="13.893089889446157"><ele>1.0</ele><time>2026-04-05T09:45:39Z</time></trkpt><trkpt lat="42.89591725100542" lon="13.892899716202361"><ele>1.0</ele><time>2026-04-05T09:45:40Z</time></trkpt><trkpt lat="42.89592019957272" lon="13.892701382522995"><ele>1.0</ele><time>2026-04-05T09:45:41Z</time></trkpt><trkpt lat="42.89592518155674" lon="13.892487698922228"><ele>1.3333333333333333</ele><time>2026-04-05T09:45:42Z</time></trkpt><trkpt lat="42.895928860806166" lon="13.892251327826127"><ele>1.6666666666666665</ele><time>2026-04-05T09:45:43Z</time></trkpt><trkpt lat="42.89593376099467" lon="13.89199697350846"><ele>2.0</ele><time>2026-04-05T09:45:44Z</time></trkpt><trkpt lat="42.89594239977705" lon="13.891723233434393"><ele>2.6666666666666665</ele><time>2026-04-05T09:45:45Z</time></trkpt><trkpt lat="42.89595110629898" lon="13.891448789821673"><ele>3.333333333333333</ele><time>2026-04-05T09:45:46Z</time></trkpt><trkpt lat="42.89595782511763" lon="13.891173508652104"><ele>4.0</ele><time>2026-04-05T09:45:47Z</time></trkpt><trkpt lat="42.89596689170246" lon="13.890879595555251"><ele>4.0</ele><time>2026-04-05T09:45:48Z</time></trkpt><trkpt lat="42.895976551271964" lon="13.89058628865558"><ele>4.0</ele><time>2026-04-05T09:45:49Z</time></trkpt><trkpt lat="42.89598501537082" lon="13.890292955944128"><ele>4.0</ele><time>2026-04-05T09:45:50Z</time></trkpt><trkpt lat="42.89599528426141" lon="13.889991380731427"><ele>3.6666666666666665</ele><time>2026-04-05T09:45:51Z</time></trkpt><trkpt lat="42.8960065933955" lon="13.889688616612224"><ele>3.333333333333333</ele><time>2026-04-05T09:45:52Z</time></trkpt><trkpt lat="42.89601475460821" lon="13.889379701945185"><ele>3.0</ele><time>2026-04-05T09:45:53Z</time></trkpt><trkpt lat="42.896024152193895" lon="13.889071924804513"><ele>3.0</ele><time>2026-04-05T09:45:54Z</time></trkpt><trkpt lat="42.896032455867" lon="13.888758020572201"><ele>3.0</ele><time>2026-04-05T09:45:55Z</time></trkpt><trkpt lat="42.89604195043305" lon="13.888448959710281"><ele>3.0</ele><time>2026-04-05T09:45:56Z</time></trkpt><trkpt lat="42.89604781035292" lon="13.888135293737774"><ele>3.0</ele><time>2026-04-05T09:45:57Z</time></trkpt><trkpt lat="42.89604840790357" lon="13.8878206999644"><ele>3.0</ele><time>2026-04-05T09:45:58Z</time></trkpt><trkpt lat="42.896041259992224" lon="13.887504605245827"><ele>3.0</ele><time>2026-04-05T09:45:59Z</time></trkpt><trkpt lat="42.896028788586854" lon="13.887185918111731"><ele>3.0</ele><time>2026-04-05T09:46:00Z</time></trkpt><trkpt lat="42.89601212350629" lon="13.886871185163274"><ele>3.0</ele><time>2026-04-05T09:46:01Z</time></trkpt><trkpt lat="42.89598723484979" lon="13.8865574640661"><ele>3.0</ele><time>2026-04-05T09:46:02Z</time></trkpt><trkpt lat="42.89595678669797" lon="13.886244814137617"><ele>3.0</ele><time>2026-04-05T09:46:03Z</time></trkpt><trkpt lat="42.89591702810369" lon="13.88593223056414"><ele>3.5</ele><time>2026-04-05T09:46:04Z</time></trkpt><trkpt lat="42.895874720699545" lon="13.885616338212193"><ele>4.0</ele><time>2026-04-05T09:46:05Z</time></trkpt><trkpt lat="42.89583311443603" lon="13.885299756403057"><ele>5.5</ele><time>2026-04-05T09:46:06Z</time></trkpt><trkpt lat="42.8957914975393" lon="13.884982127142631"><ele>7.0</ele><time>2026-04-05T09:46:07Z</time></trkpt><trkpt lat="42.895749383483775" lon="13.884664273125106"><ele>7.0</ele><time>2026-04-05T09:46:08Z</time></trkpt><trkpt lat="42.895705761578334" lon="13.884347948895313"><ele>7.0</ele><time>2026-04-05T09:46:09Z</time></trkpt><trkpt lat="42.89566453401811" lon="13.884027553540347"><ele>6.5</ele><time>2026-04-05T09:46:10Z</time></trkpt><trkpt lat="42.89562095294604" lon="13.883703756082571"><ele>6.0</ele><time>2026-04-05T09:46:11Z</time></trkpt><trkpt lat="42.89557545116956" lon="13.883378182776102"><ele>5.5</ele><time>2026-04-05T09:46:12Z</time></trkpt><trkpt lat="42.89552902054471" lon="13.883039752927525"><ele>5.0</ele><time>2026-04-05T09:46:13Z</time></trkpt><trkpt lat="42.895483213623585" lon="13.882711469252781"><ele>4.5</ele><time>2026-04-05T09:46:14Z</time></trkpt><trkpt lat="42.8954398241326" lon="13.882373005480789"><ele>4.0</ele><time>2026-04-05T09:46:15Z</time></trkpt><trkpt lat="42.895397665517" lon="13.882031719499773"><ele>4.0</ele><time>2026-04-05T09:46:16Z</time></trkpt><trkpt lat="42.895355850517156" lon="13.881690405349815"><ele>4.0</ele><time>2026-04-05T09:46:17Z</time></trkpt><trkpt lat="42.89531216567893" lon="13.88134512786891"><ele>4.0</ele><time>2026-04-05T09:46:18Z</time></trkpt><trkpt lat="42.89526894767844" lon="13.881002262020404"><ele>4.0</ele><time>2026-04-05T09:46:19Z</time></trkpt><trkpt lat="42.89522461903795" lon="13.880658799134999"><ele>4.5</ele><time>2026-04-05T09:46:20Z</time></trkpt><trkpt lat="42.89518156518749" lon="13.880317759179993"><ele>5.0</ele><time>2026-04-05T09:46:21Z</time></trkpt><trkpt lat="42.89513923856594" lon="13.87997544169974"><ele>5.0</ele><time>2026-04-05T09:46:22Z</time></trkpt><trkpt lat="42.89509593275261" lon="13.879636115734296"><ele>5.0</ele><time>2026-04-05T09:46:23Z</time></trkpt><trkpt lat="42.8950519537513" lon="13.879294886836188"><ele>4.5</ele><time>2026-04-05T09:46:24Z</time></trkpt><trkpt lat="42.89500967226109" lon="13.878948271833364"><ele>4.0</ele><time>2026-04-05T09:46:25Z</time></trkpt><trkpt lat="42.89496598645944" lon="13.878603794521768"><ele>4.0</ele><time>2026-04-05T09:46:26Z</time></trkpt><trkpt lat="42.89491954173916" lon="13.878258774808074"><ele>4.0</ele><time>2026-04-05T09:46:27Z</time></trkpt><trkpt lat="42.89487324676689" lon="13.877914559307355"><ele>4.0</ele><time>2026-04-05T09:46:28Z</time></trkpt><trkpt lat="42.8948264296333" lon="13.877572067626534"><ele>4.0</ele><time>2026-04-05T09:46:29Z</time></trkpt><trkpt lat="42.894781003009676" lon="13.877224078492704"><ele>4.0</ele><time>2026-04-05T09:46:30Z</time></trkpt><trkpt lat="42.89473317681255" lon="13.876877347420805"><ele>4.0</ele><time>2026-04-05T09:46:31Z</time></trkpt><trkpt lat="42.894680260071915" lon="13.876531910625568"><ele>4.5</ele><time>2026-04-05T09:46:32Z</time></trkpt><trkpt lat="42.89461743954967" lon="13.876187492765247"><ele>5.0</ele><time>2026-04-05T09:46:33Z</time></trkpt><trkpt lat="42.89454446006953" lon="13.875846791705161"><ele>5.0</ele><time>2026-04-05T09:46:34Z</time></trkpt><trkpt lat="42.894464465246116" lon="13.875506822367935"><ele>5.0</ele><time>2026-04-05T09:46:35Z</time></trkpt><trkpt lat="42.89437897451097" lon="13.875168644949852"><ele>5.0</ele><time>2026-04-05T09:46:36Z</time></trkpt><trkpt lat="42.89428576883196" lon="13.874834249460813"><ele>5.0</ele><time>2026-04-05T09:46:37Z</time></trkpt><trkpt lat="42.89418324560683" lon="13.874501795954929"><ele>4.5</ele><time>2026-04-05T09:46:38Z</time></trkpt><trkpt lat="42.8940737311457" lon="13.87417743909303"><ele>4.0</ele><time>2026-04-05T09:46:39Z</time></trkpt><trkpt lat="42.89395767359528" lon="13.873858111095123"><ele>4.0</ele><time>2026-04-05T09:46:40Z</time></trkpt><trkpt lat="42.89383862954651" lon="13.873538718202052"><ele>4.0</ele><time>2026-04-05T09:46:41Z</time></trkpt><trkpt lat="42.893717195149975" lon="13.873223237446432"><ele>4.5</ele><time>2026-04-05T09:46:42Z</time></trkpt><trkpt lat="42.89359204749758" lon="13.872908813269703"><ele>5.0</ele><time>2026-04-05T09:46:43Z</time></trkpt><trkpt lat="42.89346645112043" lon="13.87259357553974"><ele>6.0</ele><time>2026-04-05T09:46:44Z</time></trkpt><trkpt lat="42.89334517637409" lon="13.87227572581273"><ele>7.0</ele><time>2026-04-05T09:46:45Z</time></trkpt><trkpt lat="42.89322361624102" lon="13.8719579669804"><ele>8.0</ele><time>2026-04-05T09:46:46Z</time></trkpt><trkpt lat="42.893097915341144" lon="13.87163847046828"><ele>9.0</ele><time>2026-04-05T09:46:47Z</time></trkpt><trkpt lat="42.89297437451371" lon="13.871322132099728"><ele>9.0</ele><time>2026-04-05T09:46:48Z</time></trkpt><trkpt lat="42.89285083368925" lon="13.871005686776522"><ele>9.0</ele><time>2026-04-05T09:46:49Z</time></trkpt><trkpt lat="42.89273043206343" lon="13.870692523583777"><ele>8.0</ele><time>2026-04-05T09:46:50Z</time></trkpt><trkpt lat="42.89261057642438" lon="13.870378425670024"><ele>7.0</ele><time>2026-04-05T09:46:51Z</time></trkpt><trkpt lat="42.89248931488502" lon="13.870063826610405"><ele>7.0</ele><time>2026-04-05T09:46:52Z</time></trkpt><trkpt lat="42.89237186540308" lon="13.86974980674855"><ele>7.0</ele><time>2026-04-05T09:46:53Z</time></trkpt><trkpt lat="42.89225030502473" lon="13.86943203605647"><ele>7.0</ele><time>2026-04-05T09:46:54Z</time></trkpt><trkpt lat="42.892124995737504" lon="13.869113012788882"><ele>7.0</ele><time>2026-04-05T09:46:55Z</time></trkpt><trkpt lat="42.89199930615023" lon="13.868790092320792"><ele>7.0</ele><time>2026-04-05T09:46:56Z</time></trkpt><trkpt lat="42.891874011352954" lon="13.868465402688647"><ele>7.0</ele><time>2026-04-05T09:46:57Z</time></trkpt><trkpt lat="42.89174814345722" lon="13.868141257184552"><ele>6.5</ele><time>2026-04-05T09:46:58Z</time></trkpt><trkpt lat="42.89162146975615" lon="13.867819391150007"><ele>6.0</ele><time>2026-04-05T09:46:59Z</time></trkpt><trkpt lat="42.89149751057512" lon="13.86749877597725"><ele>7.0</ele><time>2026-04-05T09:47:00Z</time></trkpt><trkpt lat="42.89137230003763" lon="13.867178138726258"><ele>8.0</ele><time>2026-04-05T09:47:01Z</time></trkpt><trkpt lat="42.89124821184341" lon="13.866856397665012"><ele>7.5</ele><time>2026-04-05T09:47:02Z</time></trkpt><trkpt lat="42.89112397833052" lon="13.86653803580991"><ele>7.0</ele><time>2026-04-05T09:47:03Z</time></trkpt><trkpt lat="42.89100187576684" lon="13.866218039454"><ele>7.5</ele><time>2026-04-05T09:47:04Z</time></trkpt><trkpt lat="42.890877535283416" lon="13.865898069804363"><ele>8.0</ele><time>2026-04-05T09:47:05Z</time></trkpt><trkpt lat="42.89075289495907" lon="13.865577654438123"><ele>8.0</ele><time>2026-04-05T09:47:06Z</time></trkpt><trkpt lat="42.89062927535821" lon="13.86526149393525"><ele>8.0</ele><time>2026-04-05T09:47:07Z</time></trkpt><trkpt lat="42.890503264183685" lon="13.864942323628036"><ele>7.5</ele><time>2026-04-05T09:47:08Z</time></trkpt><trkpt lat="42.89038117857229" lon="13.86462524645523"><ele>7.0</ele><time>2026-04-05T09:47:09Z</time></trkpt><trkpt lat="42.89025884746533" lon="13.864303827762617"><ele>6.5</ele><time>2026-04-05T09:47:10Z</time></trkpt><trkpt lat="42.89013750549091" lon="13.86398564620457"><ele>6.0</ele><time>2026-04-05T09:47:11Z</time></trkpt><trkpt lat="42.89001352085201" lon="13.863668779317514"><ele>6.5</ele><time>2026-04-05T09:47:12Z</time></trkpt><trkpt lat="42.88989010204534" lon="13.86335281507838"><ele>7.0</ele><time>2026-04-05T09:47:13Z</time></trkpt><trkpt lat="42.8897652291223" lon="13.863038479357517"><ele>7.0</ele><time>2026-04-05T09:47:14Z</time></trkpt><trkpt lat="42.88964184004065" lon="13.86272244775608"><ele>7.0</ele><time>2026-04-05T09:47:15Z</time></trkpt><trkpt lat="42.88952090949946" lon="13.862406331790636"><ele>7.0</ele><time>2026-04-05T09:47:16Z</time></trkpt><trkpt lat="42.889396806048744" lon="13.86208786568713"><ele>7.0</ele><time>2026-04-05T09:47:17Z</time></trkpt><trkpt lat="42.88927407291906" lon="13.861771006096992"><ele>6.5</ele><time>2026-04-05T09:47:18Z</time></trkpt><trkpt lat="42.88915109809715" lon="13.861455610749735"><ele>6.0</ele><time>2026-04-05T09:47:19Z</time></trkpt><trkpt lat="42.88902726801221" lon="13.861132643304813"><ele>6.0</ele><time>2026-04-05T09:47:20Z</time></trkpt><trkpt lat="42.88890435013018" lon="13.860815002286357"><ele>6.0</ele><time>2026-04-05T09:47:21Z</time></trkpt><trkpt lat="42.88878293726696" lon="13.860495396984417"><ele>6.0</ele><time>2026-04-05T09:47:22Z</time></trkpt><trkpt lat="42.88865971641859" lon="13.86018132991677"><ele>6.0</ele><time>2026-04-05T09:47:23Z</time></trkpt><trkpt lat="42.888538261678725" lon="13.859864983701167"><ele>6.0</ele><time>2026-04-05T09:47:24Z</time></trkpt><trkpt lat="42.88841475689142" lon="13.859550576583192"><ele>6.0</ele><time>2026-04-05T09:47:25Z</time></trkpt><trkpt lat="42.888293997337485" lon="13.859239080849669"><ele>6.5</ele><time>2026-04-05T09:47:26Z</time></trkpt><trkpt lat="42.88817003916673" lon="13.858925419891111"><ele>7.0</ele><time>2026-04-05T09:47:27Z</time></trkpt><trkpt lat="42.888050191325185" lon="13.858615328391455"><ele>8.0</ele><time>2026-04-05T09:47:28Z</time></trkpt><trkpt lat="42.887929364089835" lon="13.858301653239948"><ele>9.0</ele><time>2026-04-05T09:47:29Z</time></trkpt><trkpt lat="42.8878107412127" lon="13.857993148101862"><ele>9.0</ele><time>2026-04-05T09:47:30Z</time></trkpt><trkpt lat="42.88769064142203" lon="13.857683390785475"><ele>9.0</ele><time>2026-04-05T09:47:31Z</time></trkpt><trkpt lat="42.8875706013225" lon="13.857375746356404"><ele>9.5</ele><time>2026-04-05T09:47:32Z</time></trkpt><trkpt lat="42.887451377529594" lon="13.85706754496644"><ele>10.0</ele><time>2026-04-05T09:47:33Z</time></trkpt><trkpt lat="42.8873316653343" lon="13.856762612049554"><ele>10.0</ele><time>2026-04-05T09:47:34Z</time></trkpt><trkpt lat="42.887209758767554" lon="13.856454713648636"><ele>10.0</ele><time>2026-04-05T09:47:35Z</time></trkpt><trkpt lat="42.887089663874136" lon="13.8561482042796"><ele>11.0</ele><time>2026-04-05T09:47:36Z</time></trkpt><trkpt lat="42.88697133071623" lon="13.85584061167763"><ele>12.0</ele><time>2026-04-05T09:47:37Z</time></trkpt><trkpt lat="42.886851888840646" lon="13.855532695348547"><ele>11.0</ele><time>2026-04-05T09:47:38Z</time></trkpt><trkpt lat="42.88673182333706" lon="13.855222950235802"><ele>10.0</ele><time>2026-04-05T09:47:39Z</time></trkpt><trkpt lat="42.88661267402373" lon="13.854911339508114"><ele>9.5</ele><time>2026-04-05T09:47:40Z</time></trkpt><trkpt lat="42.886493101136956" lon="13.854598025662817"><ele>9.0</ele><time>2026-04-05T09:47:41Z</time></trkpt><trkpt lat="42.8863726598326" lon="13.854285696207741"><ele>9.0</ele><time>2026-04-05T09:47:42Z</time></trkpt><trkpt lat="42.88625147423293" lon="13.853966935165884"><ele>9.0</ele><time>2026-04-05T09:47:43Z</time></trkpt><trkpt lat="42.88613064351504" lon="13.853647072599692"><ele>8.0</ele><time>2026-04-05T09:47:44Z</time></trkpt><trkpt lat="42.88601028905052" lon="13.85331688440628"><ele>7.0</ele><time>2026-04-05T09:47:45Z</time></trkpt><trkpt lat="42.88589934809975" lon="13.852979474747599"><ele>7.0</ele><time>2026-04-05T09:47:46Z</time></trkpt><trkpt lat="42.885792688847985" lon="13.852625008248065"><ele>7.0</ele><time>2026-04-05T09:47:47Z</time></trkpt><trkpt lat="42.885689141455515" lon="13.852262981876507"><ele>8.0</ele><time>2026-04-05T09:47:48Z</time></trkpt><trkpt lat="42.88559162245865" lon="13.85189091691259"><ele>9.0</ele><time>2026-04-05T09:47:49Z</time></trkpt><trkpt lat="42.88550161887893" lon="13.851518714251908"><ele>10.0</ele><time>2026-04-05T09:47:50Z</time></trkpt><trkpt lat="42.885419165903436" lon="13.851133388676342"><ele>11.0</ele><time>2026-04-05T09:47:51Z</time></trkpt><trkpt lat="42.88533740256338" lon="13.850717773281783"><ele>11.0</ele><time>2026-04-05T09:47:52Z</time></trkpt><trkpt lat="42.885260310356635" lon="13.850256663660105"><ele>11.0</ele><time>2026-04-05T09:47:53Z</time></trkpt><trkpt lat="42.88518556102235" lon="13.849755450863476"><ele>11.333333333333332</ele><time>2026-04-05T09:47:54Z</time></trkpt><trkpt lat="42.885161370718095" lon="13.849575621400577"><ele>11.666666666666666</ele><time>2026-04-05T09:47:55Z</time></trkpt><trkpt lat="42.88512383371318" lon="13.849178820459898"><ele>12.0</ele><time>2026-04-05T09:47:56Z</time></trkpt><trkpt lat="42.88509677763005" lon="13.848775623457975"><ele>12.5</ele><time>2026-04-05T09:47:57Z</time></trkpt><trkpt lat="42.8850759204181" lon="13.848373314476577"><ele>13.0</ele><time>2026-04-05T09:47:58Z</time></trkpt><trkpt lat="42.885063933461446" lon="13.847973731473493"><ele>14.0</ele><time>2026-04-05T09:47:59Z</time></trkpt><trkpt lat="42.885059012355775" lon="13.847571686553975"><ele>15.0</ele><time>2026-04-05T09:48:00Z</time></trkpt><trkpt lat="42.88506117258301" lon="13.847166907624187"><ele>13.5</ele><time>2026-04-05T09:48:01Z</time></trkpt><trkpt lat="42.885069018619" lon="13.8467581588548"><ele>12.0</ele><time>2026-04-05T09:48:02Z</time></trkpt><trkpt lat="42.8850805122569" lon="13.846356179506826"><ele>11.5</ele><time>2026-04-05T09:48:03Z</time></trkpt><trkpt lat="42.88509872422998" lon="13.845960463287529"><ele>11.0</ele><time>2026-04-05T09:48:04Z</time></trkpt><trkpt lat="42.885112467355945" lon="13.845562031729072"><ele>11.0</ele><time>2026-04-05T09:48:05Z</time></trkpt><trkpt lat="42.88512232676217" lon="13.845169463153507"><ele>11.0</ele><time>2026-04-05T09:48:06Z</time></trkpt><trkpt lat="42.88513372575013" lon="13.844776790506728"><ele>12.0</ele><time>2026-04-05T09:48:07Z</time></trkpt><trkpt lat="42.88514103151994" lon="13.844380710503913"><ele>13.0</ele><time>2026-04-05T09:48:08Z</time></trkpt><trkpt lat="42.88515001961442" lon="13.843984437484213"><ele>13.0</ele><time>2026-04-05T09:48:09Z</time></trkpt><trkpt lat="42.88516422788404" lon="13.843591134305804"><ele>13.0</ele><time>2026-04-05T09:48:10Z</time></trkpt><trkpt lat="42.88517821789766" lon="13.843193025800039"><ele>13.5</ele><time>2026-04-05T09:48:11Z</time></trkpt><trkpt lat="42.885190458222056" lon="13.842793249355964"><ele>14.0</ele><time>2026-04-05T09:48:12Z</time></trkpt><trkpt lat="42.885198333582565" lon="13.842392654724781"><ele>14.0</ele><time>2026-04-05T09:48:13Z</time></trkpt><trkpt lat="42.8852011444376" lon="13.841989905550665"><ele>14.0</ele><time>2026-04-05T09:48:14Z</time></trkpt><trkpt lat="42.885192867633" lon="13.84159075103928"><ele>14.0</ele><time>2026-04-05T09:48:15Z</time></trkpt><trkpt lat="42.885173662363805" lon="13.841194620697982"><ele>14.0</ele><time>2026-04-05T09:48:16Z</time></trkpt><trkpt lat="42.885148364646795" lon="13.840804324506134"><ele>14.0</ele><time>2026-04-05T09:48:17Z</time></trkpt><trkpt lat="42.885109553659355" lon="13.840418981881465"><ele>14.0</ele><time>2026-04-05T09:48:18Z</time></trkpt><trkpt lat="42.88506859807054" lon="13.840030227861758"><ele>13.5</ele><time>2026-04-05T09:48:19Z</time></trkpt><trkpt lat="42.885021971439656" lon="13.839640263900266"><ele>13.0</ele><time>2026-04-05T09:48:20Z</time></trkpt><trkpt lat="42.884967606984176" lon="13.839252324756528"><ele>13.0</ele><time>2026-04-05T09:48:21Z</time></trkpt><trkpt lat="42.884903701900384" lon="13.838871926708636"><ele>13.0</ele><time>2026-04-05T09:48:22Z</time></trkpt><trkpt lat="42.884833680060815" lon="13.838492218893867"><ele>12.5</ele><time>2026-04-05T09:48:23Z</time></trkpt><trkpt lat="42.88475729750355" lon="13.838110505082438"><ele>12.0</ele><time>2026-04-05T09:48:24Z</time></trkpt><trkpt lat="42.884677263175604" lon="13.837729216531976"><ele>14.0</ele><time>2026-04-05T09:48:25Z</time></trkpt><trkpt lat="42.8845921945628" lon="13.837348639257993"><ele>16.0</ele><time>2026-04-05T09:48:26Z</time></trkpt><trkpt lat="42.88450410540038" lon="13.836968931123128"><ele>16.0</ele><time>2026-04-05T09:48:27Z</time></trkpt><trkpt lat="42.88442047555351" lon="13.836591219619756"><ele>16.0</ele><time>2026-04-05T09:48:28Z</time></trkpt><trkpt lat="42.88433867552612" lon="13.836216648074867"><ele>15.5</ele><time>2026-04-05T09:48:29Z</time></trkpt><trkpt lat="42.884252002236295" lon="13.835845394265887"><ele>15.0</ele><time>2026-04-05T09:48:30Z</time></trkpt><trkpt lat="42.88416760366207" lon="13.83547191713507"><ele>15.0</ele><time>2026-04-05T09:48:31Z</time></trkpt><trkpt lat="42.88408436668201" lon="13.835096994581795"><ele>15.0</ele><time>2026-04-05T09:48:32Z</time></trkpt><trkpt lat="42.88400103299541" lon="13.834721213264134"><ele>15.0</ele><time>2026-04-05T09:48:33Z</time></trkpt><trkpt lat="42.88391979927717" lon="13.83434603300254"><ele>15.0</ele><time>2026-04-05T09:48:34Z</time></trkpt><trkpt lat="42.883838983414414" lon="13.833971719845994"><ele>15.0</ele><time>2026-04-05T09:48:35Z</time></trkpt><trkpt lat="42.88375568492607" lon="13.833598045790307"><ele>15.0</ele><time>2026-04-05T09:48:36Z</time></trkpt><trkpt lat="42.88367871827638" lon="13.833228155322887"><ele>16.0</ele><time>2026-04-05T09:48:37Z</time></trkpt><trkpt lat="42.883600959797484" lon="13.832859414259003"><ele>17.0</ele><time>2026-04-05T09:48:38Z</time></trkpt><trkpt lat="42.883521671052044" lon="13.832499485747428"><ele>17.5</ele><time>2026-04-05T09:48:39Z</time></trkpt><trkpt lat="42.8834436569076" lon="13.832145405214382"><ele>18.0</ele><time>2026-04-05T09:48:40Z</time></trkpt><trkpt lat="42.883358920160646" lon="13.831784810158775"><ele>16.5</ele><time>2026-04-05T09:48:41Z</time></trkpt><trkpt lat="42.88327408965008" lon="13.831411250892273"><ele>15.0</ele><time>2026-04-05T09:48:42Z</time></trkpt><trkpt lat="42.88319659016891" lon="13.831049723296934"><ele>16.0</ele><time>2026-04-05T09:48:43Z</time></trkpt><trkpt lat="42.88313250797324" lon="13.830736202738636"><ele>17.0</ele><time>2026-04-05T09:48:44Z</time></trkpt><trkpt lat="42.88306351996148" lon="13.83042664737955"><ele>17.5</ele><time>2026-04-05T09:48:45Z</time></trkpt><trkpt lat="42.88299416295421" lon="13.83011417156233"><ele>18.0</ele><time>2026-04-05T09:48:46Z</time></trkpt><trkpt lat="42.882925967983546" lon="13.829799020171464"><ele>18.0</ele><time>2026-04-05T09:48:47Z</time></trkpt><trkpt lat="42.88286204143284" lon="13.82949251339172"><ele>18.0</ele><time>2026-04-05T09:48:48Z</time></trkpt><trkpt lat="42.8827982440893" lon="13.829184570222377"><ele>17.0</ele><time>2026-04-05T09:48:49Z</time></trkpt><trkpt lat="42.882727048399296" lon="13.828858789088894"><ele>16.0</ele><time>2026-04-05T09:48:50Z</time></trkpt><trkpt lat="42.88265411284744" lon="13.828524069882059"><ele>16.0</ele><time>2026-04-05T09:48:51Z</time></trkpt><trkpt lat="42.88258156676952" lon="13.828180013412343"><ele>16.0</ele><time>2026-04-05T09:48:52Z</time></trkpt><trkpt lat="42.88250725310018" lon="13.827833558343121"><ele>16.0</ele><time>2026-04-05T09:48:53Z</time></trkpt><trkpt lat="42.8824269068517" lon="13.827486402483343"><ele>16.0</ele><time>2026-04-05T09:48:54Z</time></trkpt><trkpt lat="42.882349308713586" lon="13.827137221993613"><ele>17.0</ele><time>2026-04-05T09:48:55Z</time></trkpt><trkpt lat="42.88226778100091" lon="13.826786654190167"><ele>18.0</ele><time>2026-04-05T09:48:56Z</time></trkpt><trkpt lat="42.882179544312" lon="13.82642386552344"><ele>18.0</ele><time>2026-04-05T09:48:57Z</time></trkpt><trkpt lat="42.88208805394209" lon="13.82605616563322"><ele>18.0</ele><time>2026-04-05T09:48:58Z</time></trkpt><trkpt lat="42.88200008965855" lon="13.825685255442963"><ele>18.0</ele><time>2026-04-05T09:48:59Z</time></trkpt><trkpt lat="42.881909815608026" lon="13.825308700183522"><ele>18.0</ele><time>2026-04-05T09:49:00Z</time></trkpt><trkpt lat="42.88181977672699" lon="13.82492923582138"><ele>18.5</ele><time>2026-04-05T09:49:01Z</time></trkpt><trkpt lat="42.88173134548678" lon="13.824542791805056"><ele>19.0</ele><time>2026-04-05T09:49:02Z</time></trkpt><trkpt lat="42.88164011180211" lon="13.824160486806987"><ele>19.0</ele><time>2026-04-05T09:49:03Z</time></trkpt><trkpt lat="42.88154951621493" lon="13.823774783194462"><ele>19.0</ele><time>2026-04-05T09:49:04Z</time></trkpt><trkpt lat="42.881459030677526" lon="13.823393166370451"><ele>19.0</ele><time>2026-04-05T09:49:05Z</time></trkpt><trkpt lat="42.88136779889902" lon="13.823014366758047"><ele>19.0</ele><time>2026-04-05T09:49:06Z</time></trkpt><trkpt lat="42.88127503372096" lon="13.822626839120483"><ele>19.0</ele><time>2026-04-05T09:49:07Z</time></trkpt><trkpt lat="42.88118246093204" lon="13.822235251031746"><ele>19.0</ele><time>2026-04-05T09:49:08Z</time></trkpt><trkpt lat="42.88108909948409" lon="13.82183740708579"><ele>20.0</ele><time>2026-04-05T09:49:09Z</time></trkpt><trkpt lat="42.880994579160614" lon="13.821431605096356"><ele>21.0</ele><time>2026-04-05T09:49:10Z</time></trkpt><trkpt lat="42.880901158740905" lon="13.821022955213268"><ele>21.5</ele><time>2026-04-05T09:49:11Z</time></trkpt><trkpt lat="42.880808325275474" lon="13.82061156687564"><ele>22.0</ele><time>2026-04-05T09:49:12Z</time></trkpt><trkpt lat="42.880715655480245" lon="13.820200126936633"><ele>23.0</ele><time>2026-04-05T09:49:13Z</time></trkpt><trkpt lat="42.88061663949334" lon="13.819787932135528"><ele>24.0</ele><time>2026-04-05T09:49:14Z</time></trkpt><trkpt lat="42.88051454204057" lon="13.819371750194842"><ele>22.5</ele><time>2026-04-05T09:49:15Z</time></trkpt><trkpt lat="42.8804148388601" lon="13.818952532095896"><ele>21.0</ele><time>2026-04-05T09:49:16Z</time></trkpt><trkpt lat="42.88031269147115" lon="13.818526978734402"><ele>20.5</ele><time>2026-04-05T09:49:17Z</time></trkpt><trkpt lat="42.880210272709235" lon="13.818103561540081"><ele>20.0</ele><time>2026-04-05T09:49:18Z</time></trkpt><trkpt lat="42.880108041495355" lon="13.817678197382254"><ele>22.0</ele><time>2026-04-05T09:49:19Z</time></trkpt><trkpt lat="42.880006451491475" lon="13.817253290179949"><ele>24.0</ele><time>2026-04-05T09:49:20Z</time></trkpt><trkpt lat="42.879905803555175" lon="13.816829979856879"><ele>24.0</ele><time>2026-04-05T09:49:21Z</time></trkpt><trkpt lat="42.87980291459859" lon="13.816398167474919"><ele>24.0</ele><time>2026-04-05T09:49:22Z</time></trkpt><trkpt lat="42.879704035138026" lon="13.815980097637787"><ele>24.0</ele><time>2026-04-05T09:49:23Z</time></trkpt><trkpt lat="42.87960490281875" lon="13.815543284506392"><ele>24.0</ele><time>2026-04-05T09:49:24Z</time></trkpt><trkpt lat="42.87950316652603" lon="13.815121574968419"><ele>23.5</ele><time>2026-04-05T09:49:25Z</time></trkpt><trkpt lat="42.879398254611324" lon="13.814704964455903"><ele>23.0</ele><time>2026-04-05T09:49:26Z</time></trkpt><trkpt lat="42.87928539214568" lon="13.814278617014429"><ele>22.5</ele><time>2026-04-05T09:49:27Z</time></trkpt><trkpt lat="42.87915748973099" lon="13.813860899808384"><ele>22.0</ele><time>2026-04-05T09:49:28Z</time></trkpt><trkpt lat="42.87901491802821" lon="13.813458648585984"><ele>22.0</ele><time>2026-04-05T09:49:29Z</time></trkpt><trkpt lat="42.87886802291153" lon="13.813039608067704"><ele>22.0</ele><time>2026-04-05T09:49:30Z</time></trkpt><trkpt lat="42.87870861069995" lon="13.812615978800823"><ele>21.0</ele><time>2026-04-05T09:49:31Z</time></trkpt><trkpt lat="42.87853081719823" lon="13.81220872704148"><ele>20.0</ele><time>2026-04-05T09:49:32Z</time></trkpt><trkpt lat="42.87834594282628" lon="13.81182171977411"><ele>19.5</ele><time>2026-04-05T09:49:33Z</time></trkpt><trkpt lat="42.87815933843609" lon="13.8114941616128"><ele>19.0</ele><time>2026-04-05T09:49:34Z</time></trkpt><trkpt lat="42.877939300833745" lon="13.811116503898049"><ele>19.0</ele><time>2026-04-05T09:49:35Z</time></trkpt><trkpt lat="42.877708506573114" lon="13.810749765983662"><ele>19.0</ele><time>2026-04-05T09:49:36Z</time></trkpt><trkpt lat="42.87747154087987" lon="13.810398331973959"><ele>19.0</ele><time>2026-04-05T09:49:37Z</time></trkpt><trkpt lat="42.87723018665799" lon="13.810064639805056"><ele>19.0</ele><time>2026-04-05T09:49:38Z</time></trkpt><trkpt lat="42.87697988568945" lon="13.809754599936971"><ele>19.0</ele><time>2026-04-05T09:49:39Z</time></trkpt><trkpt lat="42.87671959847961" lon="13.809452624786266"><ele>19.0</ele><time>2026-04-05T09:49:40Z</time></trkpt><trkpt lat="42.87643687820977" lon="13.809165283479999"><ele>19.0</ele><time>2026-04-05T09:49:41Z</time></trkpt><trkpt lat="42.87613410769484" lon="13.808881147067154"><ele>19.0</ele><time>2026-04-05T09:49:42Z</time></trkpt><trkpt lat="42.875826106923164" lon="13.808596283323883"><ele>19.0</ele><time>2026-04-05T09:49:43Z</time></trkpt><trkpt lat="42.87551149660734" lon="13.808304231696694"><ele>19.0</ele><time>2026-04-05T09:49:44Z</time></trkpt><trkpt lat="42.87519257576318" lon="13.808013765966717"><ele>19.0</ele><time>2026-04-05T09:49:45Z</time></trkpt><trkpt lat="42.87486936213729" lon="13.80772527714356"><ele>19.0</ele><time>2026-04-05T09:49:46Z</time></trkpt><trkpt lat="42.87454608071055" lon="13.80743974068363"><ele>19.5</ele><time>2026-04-05T09:49:47Z</time></trkpt><trkpt lat="42.87422944170132" lon="13.807143196982011"><ele>20.0</ele><time>2026-04-05T09:49:48Z</time></trkpt><trkpt lat="42.873918427171716" lon="13.806836649747003"><ele>20.0</ele><time>2026-04-05T09:49:49Z</time></trkpt><trkpt lat="42.87360732183065" lon="13.806535722644096"><ele>20.0</ele><time>2026-04-05T09:49:50Z</time></trkpt><trkpt lat="42.8732988145346" lon="13.80624577416577"><ele>20.0</ele><time>2026-04-05T09:49:51Z</time></trkpt><trkpt lat="42.87299463672635" lon="13.805967758190658"><ele>20.0</ele><time>2026-04-05T09:49:52Z</time></trkpt><trkpt lat="42.87269439537464" lon="13.805688585386099"><ele>20.5</ele><time>2026-04-05T09:49:53Z</time></trkpt><trkpt lat="42.87240113140267" lon="13.8054135505977"><ele>21.0</ele><time>2026-04-05T09:49:54Z</time></trkpt><trkpt lat="42.87211536763468" lon="13.805132658595623"><ele>21.5</ele><time>2026-04-05T09:49:55Z</time></trkpt><trkpt lat="42.87184245222483" lon="13.804836169707551"><ele>22.0</ele><time>2026-04-05T09:49:56Z</time></trkpt><trkpt lat="42.87158351959168" lon="13.80452310118931"><ele>21.5</ele><time>2026-04-05T09:49:57Z</time></trkpt><trkpt lat="42.871333410655446" lon="13.804197505457584"><ele>21.0</ele><time>2026-04-05T09:49:58Z</time></trkpt><trkpt lat="42.87109567589681" lon="13.80386650174018"><ele>21.0</ele><time>2026-04-05T09:49:59Z</time></trkpt><trkpt lat="42.87087481328037" lon="13.803525329030888"><ele>21.0</ele><time>2026-04-05T09:50:00Z</time></trkpt><trkpt lat="42.870658464569715" lon="13.803176504828253"><ele>21.0</ele><time>2026-04-05T09:50:01Z</time></trkpt><trkpt lat="42.87045411747768" lon="13.802815517236192"><ele>21.0</ele><time>2026-04-05T09:50:02Z</time></trkpt><trkpt lat="42.87025915040476" lon="13.802444155462519"><ele>21.5</ele><time>2026-04-05T09:50:03Z</time></trkpt><trkpt lat="42.870075013357614" lon="13.802061909231085"><ele>22.0</ele><time>2026-04-05T09:50:04Z</time></trkpt><trkpt lat="42.8699002541176" lon="13.801671853744555"><ele>22.0</ele><time>2026-04-05T09:50:05Z</time></trkpt><trkpt lat="42.869737160690555" lon="13.801269004775673"><ele>22.0</ele><time>2026-04-05T09:50:06Z</time></trkpt><trkpt lat="42.86957925344914" lon="13.800867288678297"><ele>22.0</ele><time>2026-04-05T09:50:07Z</time></trkpt><trkpt lat="42.869437460633755" lon="13.800457768006972"><ele>22.0</ele><time>2026-04-05T09:50:08Z</time></trkpt><trkpt lat="42.86930665368318" lon="13.800043674549215"><ele>21.5</ele><time>2026-04-05T09:50:09Z</time></trkpt><trkpt lat="42.869181130147375" lon="13.799637686860898"><ele>21.0</ele><time>2026-04-05T09:50:10Z</time></trkpt><trkpt lat="42.869051481704965" lon="13.799222763659511"><ele>21.0</ele><time>2026-04-05T09:50:11Z</time></trkpt><trkpt lat="42.868920387047595" lon="13.798815951642906"><ele>21.0</ele><time>2026-04-05T09:50:12Z</time></trkpt><trkpt lat="42.86879223494966" lon="13.798412718664087"><ele>21.0</ele><time>2026-04-05T09:50:13Z</time></trkpt><trkpt lat="42.868662915287786" lon="13.798007830153693"><ele>21.0</ele><time>2026-04-05T09:50:14Z</time></trkpt><trkpt lat="42.86853822552516" lon="13.797607663109495"><ele>21.0</ele><time>2026-04-05T09:50:15Z</time></trkpt><trkpt lat="42.86841445088811" lon="13.797209634275818"><ele>21.0</ele><time>2026-04-05T09:50:16Z</time></trkpt><trkpt lat="42.86829028245219" lon="13.796816868086228"><ele>21.0</ele><time>2026-04-05T09:50:17Z</time></trkpt><trkpt lat="42.868165539405545" lon="13.79642479929031"><ele>21.0</ele><time>2026-04-05T09:50:18Z</time></trkpt><trkpt lat="42.868048607248156" lon="13.796051980081257"><ele>21.0</ele><time>2026-04-05T09:50:19Z</time></trkpt><trkpt lat="42.86793530821503" lon="13.795695630419468"><ele>21.0</ele><time>2026-04-05T09:50:20Z</time></trkpt><trkpt lat="42.86782547558777" lon="13.795354944845725"><ele>21.5</ele><time>2026-04-05T09:50:21Z</time></trkpt><trkpt lat="42.867720033189734" lon="13.795030406361402"><ele>22.0</ele><time>2026-04-05T09:50:22Z</time></trkpt><trkpt lat="42.86761704036645" lon="13.794701691009081"><ele>22.0</ele><time>2026-04-05T09:50:23Z</time></trkpt><trkpt lat="42.867511887190446" lon="13.794365056996599"><ele>22.0</ele><time>2026-04-05T09:50:24Z</time></trkpt><trkpt lat="42.86740553702989" lon="13.794027741335688"><ele>22.5</ele><time>2026-04-05T09:50:25Z</time></trkpt><trkpt lat="42.86729839405852" lon="13.793686986850702"><ele>23.0</ele><time>2026-04-05T09:50:26Z</time></trkpt><trkpt lat="42.86719302748774" lon="13.793346651114728"><ele>22.0</ele><time>2026-04-05T09:50:27Z</time></trkpt><trkpt lat="42.86708514099208" lon="13.793002358449142"><ele>21.0</ele><time>2026-04-05T09:50:28Z</time></trkpt><trkpt lat="42.86697859173901" lon="13.79265224644775"><ele>21.0</ele><time>2026-04-05T09:50:29Z</time></trkpt><trkpt lat="42.866874629741126" lon="13.792293567429523"><ele>21.0</ele><time>2026-04-05T09:50:30Z</time></trkpt><trkpt lat="42.866776903799376" lon="13.791932344019232"><ele>22.0</ele><time>2026-04-05T09:50:31Z</time></trkpt><trkpt lat="42.86668076504719" lon="13.791571146092373"><ele>23.0</ele><time>2026-04-05T09:50:32Z</time></trkpt><trkpt lat="42.866585460817824" lon="13.791208348251072"><ele>23.5</ele><time>2026-04-05T09:50:33Z</time></trkpt><trkpt lat="42.86648764463272" lon="13.790842618055642"><ele>24.0</ele><time>2026-04-05T09:50:34Z</time></trkpt><trkpt lat="42.86638755053511" lon="13.790474227196206"><ele>23.5</ele><time>2026-04-05T09:50:35Z</time></trkpt><trkpt lat="42.86628840044803" lon="13.790107492869355"><ele>23.0</ele><time>2026-04-05T09:50:36Z</time></trkpt><trkpt lat="42.86619049195443" lon="13.789740706894815"><ele>23.0</ele><time>2026-04-05T09:50:37Z</time></trkpt><trkpt lat="42.86609140167659" lon="13.789372356764957"><ele>23.0</ele><time>2026-04-05T09:50:38Z</time></trkpt><trkpt lat="42.86599101009438" lon="13.789001659032873"><ele>23.5</ele><time>2026-04-05T09:50:39Z</time></trkpt><trkpt lat="42.86589236447957" lon="13.788630941910217"><ele>24.0</ele><time>2026-04-05T09:50:40Z</time></trkpt><trkpt lat="42.865793472998185" lon="13.788258974480092"><ele>24.0</ele><time>2026-04-05T09:50:41Z</time></trkpt><trkpt lat="42.86569177882243" lon="13.787888447209749"><ele>24.0</ele><time>2026-04-05T09:50:42Z</time></trkpt><trkpt lat="42.86559306042421" lon="13.78751483323824"><ele>23.0</ele><time>2026-04-05T09:50:43Z</time></trkpt><trkpt lat="42.86549320169393" lon="13.78714031789944"><ele>22.0</ele><time>2026-04-05T09:50:44Z</time></trkpt><trkpt lat="42.86539529078916" lon="13.786766795475026"><ele>22.0</ele><time>2026-04-05T09:50:45Z</time></trkpt><trkpt lat="42.86529553414715" lon="13.786392880526208"><ele>22.0</ele><time>2026-04-05T09:50:46Z</time></trkpt><trkpt lat="42.86519675488645" lon="13.786017731558376"><ele>23.0</ele><time>2026-04-05T09:50:47Z</time></trkpt><trkpt lat="42.86509847477671" lon="13.785642994602464"><ele>24.0</ele><time>2026-04-05T09:50:48Z</time></trkpt><trkpt lat="42.86499962730377" lon="13.78526473875831"><ele>24.5</ele><time>2026-04-05T09:50:49Z</time></trkpt><trkpt lat="42.864900087550154" lon="13.784887725884293"><ele>25.0</ele><time>2026-04-05T09:50:50Z</time></trkpt><trkpt lat="42.86479833990044" lon="13.78451062998549"><ele>26.0</ele><time>2026-04-05T09:50:51Z</time></trkpt><trkpt lat="42.86469568271636" lon="13.78413355294063"><ele>27.0</ele><time>2026-04-05T09:50:52Z</time></trkpt><trkpt lat="42.864591511090666" lon="13.783754498769733"><ele>27.0</ele><time>2026-04-05T09:50:53Z</time></trkpt><trkpt lat="42.86448571016782" lon="13.78337229240024"><ele>27.0</ele><time>2026-04-05T09:50:54Z</time></trkpt><trkpt lat="42.8643769184381" lon="13.782979366454159"><ele>27.0</ele><time>2026-04-05T09:50:55Z</time></trkpt><trkpt lat="42.86426703917325" lon="13.782586154175203"><ele>27.0</ele><time>2026-04-05T09:50:56Z</time></trkpt><trkpt lat="42.8641570747925" lon="13.782189049887037"><ele>26.5</ele><time>2026-04-05T09:50:57Z</time></trkpt><trkpt lat="42.864048941681666" lon="13.781791888465808"><ele>26.0</ele><time>2026-04-05T09:50:58Z</time></trkpt><trkpt lat="42.863942421801205" lon="13.781394203227602"><ele>26.5</ele><time>2026-04-05T09:50:59Z</time></trkpt><trkpt lat="42.86384142824915" lon="13.780995289114411"><ele>27.0</ele><time>2026-04-05T09:51:00Z</time></trkpt><trkpt lat="42.86374661232321" lon="13.780600442630769"><ele>27.0</ele><time>2026-04-05T09:51:01Z</time></trkpt><trkpt lat="42.86364864844461" lon="13.780205122140828"><ele>27.0</ele><time>2026-04-05T09:51:02Z</time></trkpt><trkpt lat="42.86354713536084" lon="13.779809792163766"><ele>28.5</ele><time>2026-04-05T09:51:03Z</time></trkpt><trkpt lat="42.863444359790094" lon="13.779415541382496"><ele>30.0</ele><time>2026-04-05T09:51:04Z</time></trkpt><trkpt lat="42.86333778117253" lon="13.779020299591963"><ele>30.0</ele><time>2026-04-05T09:51:05Z</time></trkpt><trkpt lat="42.863231391823014" lon="13.778620984654562"><ele>30.0</ele><time>2026-04-05T09:51:06Z</time></trkpt><trkpt lat="42.86312291623466" lon="13.778216351121195"><ele>29.5</ele><time>2026-04-05T09:51:07Z</time></trkpt><trkpt lat="42.863016077984014" lon="13.77781048508943"><ele>29.0</ele><time>2026-04-05T09:51:08Z</time></trkpt><trkpt lat="42.86290972968312" lon="13.777409779944609"><ele>29.0</ele><time>2026-04-05T09:51:09Z</time></trkpt><trkpt lat="42.86280003101571" lon="13.777002470074931"><ele>29.0</ele><time>2026-04-05T09:51:10Z</time></trkpt><trkpt lat="42.862692849303706" lon="13.776594901002513"><ele>29.0</ele><time>2026-04-05T09:51:11Z</time></trkpt><trkpt lat="42.86258438081159" lon="13.776190794808947"><ele>29.0</ele><time>2026-04-05T09:51:12Z</time></trkpt><trkpt lat="42.86247965170434" lon="13.775786984675406"><ele>29.0</ele><time>2026-04-05T09:51:13Z</time></trkpt><trkpt lat="42.86237147222647" lon="13.775378575468082"><ele>29.0</ele><time>2026-04-05T09:51:14Z</time></trkpt><trkpt lat="42.86226026346379" lon="13.774966419037561"><ele>29.5</ele><time>2026-04-05T09:51:15Z</time></trkpt><trkpt lat="42.86215018877432" lon="13.774553648188236"><ele>30.0</ele><time>2026-04-05T09:51:16Z</time></trkpt><trkpt lat="42.86203864138167" lon="13.77413697826497"><ele>30.5</ele><time>2026-04-05T09:51:17Z</time></trkpt><trkpt lat="42.8619256919816" lon="13.773718496167401"><ele>31.0</ele><time>2026-04-05T09:51:18Z</time></trkpt><trkpt lat="42.861814568236035" lon="13.773303069040235"><ele>31.5</ele><time>2026-04-05T09:51:19Z</time></trkpt><trkpt lat="42.86170140475827" lon="13.772883961700344"><ele>32.0</ele><time>2026-04-05T09:51:20Z</time></trkpt><trkpt lat="42.86158892012032" lon="13.772469816659278"><ele>33.0</ele><time>2026-04-05T09:51:21Z</time></trkpt><trkpt lat="42.86147681698786" lon="13.772055803764669"><ele>34.0</ele><time>2026-04-05T09:51:22Z</time></trkpt><trkpt lat="42.86136621909405" lon="13.771641370874004"><ele>34.0</ele><time>2026-04-05T09:51:23Z</time></trkpt><trkpt lat="42.86125353680053" lon="13.771214354971686"><ele>34.0</ele><time>2026-04-05T09:51:24Z</time></trkpt><trkpt lat="42.86113865670557" lon="13.770779195841722"><ele>34.0</ele><time>2026-04-05T09:51:25Z</time></trkpt><trkpt lat="42.86102532782747" lon="13.770323757958083"><ele>34.0</ele><time>2026-04-05T09:51:26Z</time></trkpt><trkpt lat="42.860911127399824" lon="13.769858843944556"><ele>34.0</ele><time>2026-04-05T09:51:27Z</time></trkpt><trkpt lat="42.8607868449522" lon="13.769477958984183"><ele>34.0</ele><time>2026-04-05T09:51:28Z</time></trkpt><trkpt lat="42.86067742624983" lon="13.769042710229428"><ele>33.5</ele><time>2026-04-05T09:51:29Z</time></trkpt><trkpt lat="42.86057749099906" lon="13.768595392969557"><ele>33.0</ele><time>2026-04-05T09:51:30Z</time></trkpt><trkpt lat="42.86049150814343" lon="13.768138850070152"><ele>33.0</ele><time>2026-04-05T09:51:31Z</time></trkpt><trkpt lat="42.86041880154678" lon="13.767672982075162"><ele>33.0</ele><time>2026-04-05T09:51:32Z</time></trkpt><trkpt lat="42.86035989102225" lon="13.76718694694008"><ele>33.5</ele><time>2026-04-05T09:51:33Z</time></trkpt><trkpt lat="42.86031847477752" lon="13.766678283052588"><ele>34.0</ele><time>2026-04-05T09:51:34Z</time></trkpt><trkpt lat="42.86029953540577" lon="13.766158301875933"><ele>34.5</ele><time>2026-04-05T09:51:35Z</time></trkpt><trkpt lat="42.86029392515647" lon="13.76563634655741"><ele>35.0</ele><time>2026-04-05T09:51:36Z</time></trkpt><trkpt lat="42.860304397624056" lon="13.765111180793708"><ele>35.0</ele><time>2026-04-05T09:51:37Z</time></trkpt><trkpt lat="42.860329802045776" lon="13.764592494933524"><ele>35.0</ele><time>2026-04-05T09:51:38Z</time></trkpt><trkpt lat="42.860368629457206" lon="13.764072766223087"><ele>35.0</ele><time>2026-04-05T09:51:39Z</time></trkpt><trkpt lat="42.860416140918986" lon="13.76355239899906"><ele>35.0</ele><time>2026-04-05T09:51:40Z</time></trkpt><trkpt lat="42.86046188153209" lon="13.763033274115305"><ele>35.5</ele><time>2026-04-05T09:51:41Z</time></trkpt><trkpt lat="42.8605056727981" lon="13.762517555015474"><ele>36.0</ele><time>2026-04-05T09:51:42Z</time></trkpt><trkpt lat="42.860549240006605" lon="13.762005323443601"><ele>35.5</ele><time>2026-04-05T09:51:43Z</time></trkpt><trkpt lat="42.86058861615505" lon="13.761493141560768"><ele>35.0</ele><time>2026-04-05T09:51:44Z</time></trkpt><trkpt lat="42.86062783847961" lon="13.760985040931914"><ele>35.0</ele><time>2026-04-05T09:51:45Z</time></trkpt><trkpt lat="42.86066852508609" lon="13.760477315365591"><ele>35.0</ele><time>2026-04-05T09:51:46Z</time></trkpt><trkpt lat="42.86070766467626" lon="13.75997276463926"><ele>35.0</ele><time>2026-04-05T09:51:47Z</time></trkpt><trkpt lat="42.860744829552225" lon="13.759473245142338"><ele>35.0</ele><time>2026-04-05T09:51:48Z</time></trkpt><trkpt lat="42.86078340635807" lon="13.758975550293163"><ele>36.0</ele><time>2026-04-05T09:51:49Z</time></trkpt><trkpt lat="42.860820651114224" lon="13.7584809212663"><ele>37.0</ele><time>2026-04-05T09:51:50Z</time></trkpt><trkpt lat="42.86085407268749" lon="13.757984774693885"><ele>36.0</ele><time>2026-04-05T09:51:51Z</time></trkpt><trkpt lat="42.860877529171816" lon="13.757491341957097"><ele>35.0</ele><time>2026-04-05T09:51:52Z</time></trkpt><trkpt lat="42.860885924509454" lon="13.757000121876226"><ele>35.5</ele><time>2026-04-05T09:51:53Z</time></trkpt><trkpt lat="42.86087586855811" lon="13.756509952775202"><ele>36.0</ele><time>2026-04-05T09:51:54Z</time></trkpt><trkpt lat="42.8608504122332" lon="13.756023158219651"><ele>36.0</ele><time>2026-04-05T09:51:55Z</time></trkpt><trkpt lat="42.86081528056569" lon="13.755537570049421"><ele>36.0</ele><time>2026-04-05T09:51:56Z</time></trkpt><trkpt lat="42.86076553167862" lon="13.755058240493392"><ele>36.5</ele><time>2026-04-05T09:51:57Z</time></trkpt><trkpt lat="42.86070632367426" lon="13.754582444045347"><ele>37.0</ele><time>2026-04-05T09:51:58Z</time></trkpt><trkpt lat="42.86063236555384" lon="13.75411169869485"><ele>38.0</ele><time>2026-04-05T09:51:59Z</time></trkpt><trkpt lat="42.86055005667259" lon="13.75364712948971"><ele>39.0</ele><time>2026-04-05T09:52:00Z</time></trkpt><trkpt lat="42.860461020167754" lon="13.753185286074267"><ele>39.5</ele><time>2026-04-05T09:52:01Z</time></trkpt><trkpt lat="42.86037100188292" lon="13.752724286701142"><ele>40.0</ele><time>2026-04-05T09:52:02Z</time></trkpt><trkpt lat="42.86029070268981" lon="13.752261007332718"><ele>38.5</ele><time>2026-04-05T09:52:03Z</time></trkpt><trkpt lat="42.86020826698691" lon="13.751805771999223"><ele>37.0</ele><time>2026-04-05T09:52:04Z</time></trkpt><trkpt lat="42.86012597417783" lon="13.751359358625779"><ele>38.0</ele><time>2026-04-05T09:52:05Z</time></trkpt><trkpt lat="42.86004461134152" lon="13.750918831376032"><ele>39.0</ele><time>2026-04-05T09:52:06Z</time></trkpt><trkpt lat="42.85996407084119" lon="13.75048281756874"><ele>39.5</ele><time>2026-04-05T09:52:07Z</time></trkpt><trkpt lat="42.859881427723614" lon="13.750054182339676"><ele>40.0</ele><time>2026-04-05T09:52:08Z</time></trkpt><trkpt lat="42.85980848483099" lon="13.749629078958499"><ele>40.0</ele><time>2026-04-05T09:52:09Z</time></trkpt><trkpt lat="42.85973508979513" lon="13.749218632192047"><ele>40.0</ele><time>2026-04-05T09:52:10Z</time></trkpt><trkpt lat="42.8596601094387" lon="13.748814600159937"><ele>39.5</ele><time>2026-04-05T09:52:11Z</time></trkpt><trkpt lat="42.859585401349946" lon="13.748420854844637"><ele>39.0</ele><time>2026-04-05T09:52:12Z</time></trkpt><trkpt lat="42.85951083925961" lon="13.748029172621868"><ele>39.0</ele><time>2026-04-05T09:52:13Z</time></trkpt><trkpt lat="42.85943946157525" lon="13.747647709199752"><ele>39.0</ele><time>2026-04-05T09:52:14Z</time></trkpt><trkpt lat="42.85936746903823" lon="13.747270665440098"><ele>39.0</ele><time>2026-04-05T09:52:15Z</time></trkpt><trkpt lat="42.85929615477318" lon="13.746896327926104"><ele>39.0</ele><time>2026-04-05T09:52:16Z</time></trkpt><trkpt lat="42.859218899901336" lon="13.746526532484683"><ele>39.5</ele><time>2026-04-05T09:52:17Z</time></trkpt><trkpt lat="42.859135188750365" lon="13.74616381855238"><ele>40.0</ele><time>2026-04-05T09:52:18Z</time></trkpt><trkpt lat="42.85904136357896" lon="13.745804640705998"><ele>40.0</ele><time>2026-04-05T09:52:19Z</time></trkpt><trkpt lat="42.85893165445079" lon="13.745451408464685"><ele>40.0</ele><time>2026-04-05T09:52:20Z</time></trkpt><trkpt lat="42.858820035597084" lon="13.74511005502649"><ele>40.0</ele><time>2026-04-05T09:52:21Z</time></trkpt><trkpt lat="42.85871557739503" lon="13.74479308735043"><ele>40.0</ele><time>2026-04-05T09:52:22Z</time></trkpt><trkpt lat="42.85860715602679" lon="13.744495207248157"><ele>40.0</ele><time>2026-04-05T09:52:23Z</time></trkpt><trkpt lat="42.85849408396754" lon="13.744217551571284"><ele>40.0</ele><time>2026-04-05T09:52:24Z</time></trkpt><trkpt lat="42.858383138566644" lon="13.7439521399308"><ele>41.0</ele><time>2026-04-05T09:52:25Z</time></trkpt><trkpt lat="42.858266949827055" lon="13.743693846596052"><ele>42.0</ele><time>2026-04-05T09:52:26Z</time></trkpt><trkpt lat="42.858147698360504" lon="13.743440043762188"><ele>43.0</ele><time>2026-04-05T09:52:27Z</time></trkpt><trkpt lat="42.85802833380497" lon="13.743189368439735"><ele>43.0</ele><time>2026-04-05T09:52:28Z</time></trkpt><trkpt lat="42.85789818417006" lon="13.742941017207599"><ele>43.0</ele><time>2026-04-05T09:52:29Z</time></trkpt><trkpt lat="42.85776415087397" lon="13.742694470328914"><ele>43.0</ele><time>2026-04-05T09:52:30Z</time></trkpt><trkpt lat="42.85762249557563" lon="13.74244763200144"><ele>43.0</ele><time>2026-04-05T09:52:31Z</time></trkpt><trkpt lat="42.857472824902544" lon="13.742209522210793"><ele>43.0</ele><time>2026-04-05T09:52:32Z</time></trkpt><trkpt lat="42.85732091645071" lon="13.741972819684825"><ele>41.5</ele><time>2026-04-05T09:52:33Z</time></trkpt><trkpt lat="42.857163354839535" lon="13.741742336371095"><ele>40.0</ele><time>2026-04-05T09:52:34Z</time></trkpt><trkpt lat="42.85700079102939" lon="13.741511387469327"><ele>40.0</ele><time>2026-04-05T09:52:35Z</time></trkpt><trkpt lat="42.856832791146424" lon="13.741283537287718"><ele>40.0</ele><time>2026-04-05T09:52:36Z</time></trkpt><trkpt lat="42.85665895765916" lon="13.74105952499386"><ele>40.5</ele><time>2026-04-05T09:52:37Z</time></trkpt><trkpt lat="42.85648220120884" lon="13.74083840102929"><ele>41.0</ele><time>2026-04-05T09:52:38Z</time></trkpt><trkpt lat="42.85630010687809" lon="13.740616627139719"><ele>41.0</ele><time>2026-04-05T09:52:39Z</time></trkpt><trkpt lat="42.85611846362952" lon="13.740392608693224"><ele>41.0</ele><time>2026-04-05T09:52:40Z</time></trkpt><trkpt lat="42.85593375370754" lon="13.740164292271851"><ele>41.0</ele><time>2026-04-05T09:52:41Z</time></trkpt><trkpt lat="42.85574746214734" lon="13.73993956693197"><ele>41.0</ele><time>2026-04-05T09:52:42Z</time></trkpt><trkpt lat="42.85556194910568" lon="13.739709999677789"><ele>41.0</ele><time>2026-04-05T09:52:43Z</time></trkpt><trkpt lat="42.855376549180455" lon="13.739479834404545"><ele>41.0</ele><time>2026-04-05T09:52:44Z</time></trkpt><trkpt lat="42.85518956628545" lon="13.739250909988007"><ele>42.5</ele><time>2026-04-05T09:52:45Z</time></trkpt><trkpt lat="42.85500653523904" lon="13.739027517797828"><ele>44.0</ele><time>2026-04-05T09:52:46Z</time></trkpt><trkpt lat="42.85483006989781" lon="13.73881126057668"><ele>44.0</ele><time>2026-04-05T09:52:47Z</time></trkpt><trkpt lat="42.8546765816944" lon="13.738619425324545"><ele>44.0</ele><time>2026-04-05T09:52:48Z</time></trkpt><trkpt lat="42.854534031562046" lon="13.73844376245482"><ele>44.0</ele><time>2026-04-05T09:52:49Z</time></trkpt><trkpt lat="42.85440283894662" lon="13.73827747391418"><ele>45.0</ele><time>2026-04-05T09:52:50Z</time></trkpt><trkpt lat="42.85427941589257" lon="13.738128912862825"><ele>46.0</ele><time>2026-04-05T09:52:51Z</time></trkpt><trkpt lat="42.85416700790793" lon="13.73798923798812"><ele>47.0</ele><time>2026-04-05T09:52:52Z</time></trkpt><trkpt lat="42.854050211678455" lon="13.737843164304932"><ele>46.33333333333333</ele><time>2026-04-05T09:52:53Z</time></trkpt><trkpt lat="42.853935239746626" lon="13.737700366229847"><ele>45.666666666666664</ele><time>2026-04-05T09:52:54Z</time></trkpt><trkpt lat="42.85381929697183" lon="13.737556867187479"><ele>45.0</ele><time>2026-04-05T09:52:55Z</time></trkpt><trkpt lat="42.853705152513726" lon="13.737409077159395"><ele>45.0</ele><time>2026-04-05T09:52:56Z</time></trkpt><trkpt lat="42.85358678950259" lon="13.737252546236718"><ele>45.0</ele><time>2026-04-05T09:52:57Z</time></trkpt><trkpt lat="42.85346704427201" lon="13.737095953306058"><ele>45.0</ele><time>2026-04-05T09:52:58Z</time></trkpt><trkpt lat="42.85334941759772" lon="13.736934071535071"><ele>45.0</ele><time>2026-04-05T09:52:59Z</time></trkpt><trkpt lat="42.85323068420454" lon="13.73676538647267"><ele>45.0</ele><time>2026-04-05T09:53:00Z</time></trkpt><trkpt lat="42.85310956994714" lon="13.736583659570307"><ele>45.0</ele><time>2026-04-05T09:53:01Z</time></trkpt><trkpt lat="42.85298735759042" lon="13.736393670080759"><ele>45.0</ele><time>2026-04-05T09:53:02Z</time></trkpt><trkpt lat="42.8528649505106" lon="13.73619435559902"><ele>45.0</ele><time>2026-04-05T09:53:03Z</time></trkpt><trkpt lat="42.85274050139904" lon="13.735988828176817"><ele>45.0</ele><time>2026-04-05T09:53:04Z</time></trkpt><trkpt lat="42.8526193419391" lon="13.735781871442676"><ele>45.333333333333336</ele><time>2026-04-05T09:53:05Z</time></trkpt><trkpt lat="42.85250266420247" lon="13.735567416784932"><ele>45.66666666666667</ele><time>2026-04-05T09:53:06Z</time></trkpt><trkpt lat="42.85239364840969" lon="13.735346148103865"><ele>46.0</ele><time>2026-04-05T09:53:07Z</time></trkpt><trkpt lat="42.8522853789958" lon="13.735116135982693"><ele>46.333333333333336</ele><time>2026-04-05T09:53:08Z</time></trkpt><trkpt lat="42.852176750590594" lon="13.734878784722035"><ele>46.666666666666664</ele><time>2026-04-05T09:53:09Z</time></trkpt><trkpt lat="42.85207015242716" lon="13.734632926775253"><ele>47.0</ele><time>2026-04-05T09:53:10Z</time></trkpt><trkpt lat="42.851970478416675" lon="13.734379909008648"><ele>47.0</ele><time>2026-04-05T09:53:11Z</time></trkpt><trkpt lat="42.85187556486835" lon="13.734121602233701"><ele>47.0</ele><time>2026-04-05T09:53:12Z</time></trkpt><trkpt lat="42.85178685554389" lon="13.733859225372415"><ele>47.0</ele><time>2026-04-05T09:53:13Z</time></trkpt><trkpt lat="42.8516993567746" lon="13.733594858946242"><ele>48.0</ele><time>2026-04-05T09:53:14Z</time></trkpt><trkpt lat="42.85161220522666" lon="13.733329784700267"><ele>49.0</ele><time>2026-04-05T09:53:15Z</time></trkpt><trkpt lat="42.85152536979221" lon="13.73305558184665"><ele>50.0</ele><time>2026-04-05T09:53:16Z</time></trkpt><trkpt lat="42.851442007565915" lon="13.732777942419204"><ele>50.0</ele><time>2026-04-05T09:53:17Z</time></trkpt><trkpt lat="42.85136430613914" lon="13.732497829765613"><ele>50.0</ele><time>2026-04-05T09:53:18Z</time></trkpt><trkpt lat="42.85129193745014" lon="13.732211001476808"><ele>50.0</ele><time>2026-04-05T09:53:19Z</time></trkpt><trkpt lat="42.85122167838938" lon="13.731919017176144"><ele>49.5</ele><time>2026-04-05T09:53:20Z</time></trkpt><trkpt lat="42.85115139865635" lon="13.731619309403678"><ele>49.0</ele><time>2026-04-05T09:53:21Z</time></trkpt><trkpt lat="42.851081364332956" lon="13.73132328756541"><ele>49.0</ele><time>2026-04-05T09:53:22Z</time></trkpt><trkpt lat="42.851011682069114" lon="13.73102007972001"><ele>49.0</ele><time>2026-04-05T09:53:23Z</time></trkpt><trkpt lat="42.85093948532577" lon="13.730714958407894"><ele>49.0</ele><time>2026-04-05T09:53:24Z</time></trkpt><trkpt lat="42.8508680722081" lon="13.730411913419879"><ele>49.0</ele><time>2026-04-05T09:53:25Z</time></trkpt><trkpt lat="42.850794642884495" lon="13.730104390245634"><ele>48.5</ele><time>2026-04-05T09:53:26Z</time></trkpt><trkpt lat="42.85071964574028" lon="13.729798254289546"><ele>48.0</ele><time>2026-04-05T09:53:27Z</time></trkpt><trkpt lat="42.850650163698425" lon="13.729504370878852"><ele>48.0</ele><time>2026-04-05T09:53:28Z</time></trkpt><trkpt lat="42.850584335085856" lon="13.729222382010484"><ele>48.0</ele><time>2026-04-05T09:53:29Z</time></trkpt><trkpt lat="42.85052071035265" lon="13.728954938920921"><ele>48.0</ele><time>2026-04-05T09:53:30Z</time></trkpt><trkpt lat="42.850463979176986" lon="13.728701842371688"><ele>47.666666666666664</ele><time>2026-04-05T09:53:31Z</time></trkpt><trkpt lat="42.850407122253856" lon="13.728460945754078"><ele>47.33333333333333</ele><time>2026-04-05T09:53:32Z</time></trkpt><trkpt lat="42.85035263614649" lon="13.728222493467422"><ele>47.0</ele><time>2026-04-05T09:53:33Z</time></trkpt><trkpt lat="42.85030137109388" lon="13.727998004863293"><ele>48.0</ele><time>2026-04-05T09:53:34Z</time></trkpt><trkpt lat="42.85022124317159" lon="13.72754257188778"><ele>49.0</ele><time>2026-04-05T09:53:35.999Z</time></trkpt><trkpt lat="42.85022075460066" lon="13.727307223746612"><ele>49.0</ele><time>2026-04-05T09:53:36.999Z</time></trkpt><trkpt lat="42.850245401252664" lon="13.72707771169923"><ele>49.0</ele><time>2026-04-05T09:53:37.999Z</time></trkpt><trkpt lat="42.85028828720379" lon="13.726856168258621"><ele>49.0</ele><time>2026-04-05T09:53:38.999Z</time></trkpt><trkpt lat="42.85035069638501" lon="13.726650526928232"><ele>49.25</ele><time>2026-04-05T09:53:39.999Z</time></trkpt><trkpt lat="42.85042061765914" lon="13.72645662029024"><ele>49.5</ele><time>2026-04-05T09:53:40.999Z</time></trkpt><trkpt lat="42.85048776804109" lon="13.726278075789445"><ele>49.75</ele><time>2026-04-05T09:53:41.999Z</time></trkpt><trkpt lat="42.85053688824512" lon="13.726112208906912"><ele>50.0</ele><time>2026-04-05T09:53:42.999Z</time></trkpt><trkpt lat="42.85056729356945" lon="13.725965810987425"><ele>50.00000000000001</ele><time>2026-04-05T09:53:43.999Z</time></trkpt><trkpt lat="42.8505878829758" lon="13.725829121112861"><ele>50.0</ele><time>2026-04-05T09:53:44.999Z</time></trkpt><trkpt lat="42.85059317594898" lon="13.725709911954223"><ele>50.0</ele><time>2026-04-05T09:53:45.999Z</time></trkpt><trkpt lat="42.850588827870936" lon="13.72559279404784"><ele>50.0</ele><time>2026-04-05T09:53:46.999Z</time></trkpt><trkpt lat="42.85057327800899" lon="13.725484341862279"><ele>50.00000000000001</ele><time>2026-04-05T09:53:47.999Z</time></trkpt><trkpt lat="42.850551964907844" lon="13.725370715466738"><ele>50.0</ele><time>2026-04-05T09:53:48.999Z</time></trkpt><trkpt lat="42.85053394469207" lon="13.725254581104132"><ele>50.333333333333336</ele><time>2026-04-05T09:53:49.999Z</time></trkpt><trkpt lat="42.850518865103034" lon="13.725136681364951"><ele>50.66666666666667</ele><time>2026-04-05T09:53:50.999Z</time></trkpt><trkpt lat="42.85051712423909" lon="13.725023537938638"><ele>51.0</ele><time>2026-04-05T09:53:51.999Z</time></trkpt><trkpt lat="42.85054159495045" lon="13.724919519396414"><ele>51.33333333333333</ele><time>2026-04-05T09:53:52.999Z</time></trkpt><trkpt lat="42.85058987149208" lon="13.724817594880529"><ele>51.666666666666664</ele><time>2026-04-05T09:53:53.999Z</time></trkpt><trkpt lat="42.85066042059259" lon="13.72472602300808"><ele>52.0</ele><time>2026-04-05T09:53:55Z</time></trkpt><trkpt lat="42.85074977344504" lon="13.724674327489451"><ele>52.0</ele><time>2026-04-05T09:53:56Z</time></trkpt><trkpt lat="42.85085765919969" lon="13.724655499170625"><ele>52.0</ele><time>2026-04-05T09:53:57Z</time></trkpt><trkpt lat="42.850976159272264" lon="13.724645534997427"><ele>52.0</ele><time>2026-04-05T09:53:58Z</time></trkpt><trkpt lat="42.85110421152761" lon="13.724633117931734"><ele>52.0</ele><time>2026-04-05T09:53:59Z</time></trkpt><trkpt lat="42.85123876861627" lon="13.7246162421051"><ele>51.25</ele><time>2026-04-05T09:54:00Z</time></trkpt><trkpt lat="42.851373723985574" lon="13.724598753437203"><ele>50.5</ele><time>2026-04-05T09:54:01Z</time></trkpt><trkpt lat="42.85151310218261" lon="13.724580660649453"><ele>49.75</ele><time>2026-04-05T09:54:02Z</time></trkpt><trkpt lat="42.85165929526073" lon="13.724563564652263"><ele>49.0</ele><time>2026-04-05T09:54:03Z</time></trkpt><trkpt lat="42.85194071285358" lon="13.7245328094439"><ele>49.0</ele><time>2026-04-05T09:54:05Z</time></trkpt><trkpt lat="42.852076363070424" lon="13.724517792224898"><ele>49.0</ele><time>2026-04-05T09:54:06Z</time></trkpt><trkpt lat="42.8522078376812" lon="13.724503930661104"><ele>49.0</ele><time>2026-04-05T09:54:07Z</time></trkpt><trkpt lat="42.852335701325615" lon="13.724489244667366"><ele>49.0</ele><time>2026-04-05T09:54:08Z</time></trkpt><trkpt lat="42.85246318892589" lon="13.724478017666963"><ele>49.0</ele><time>2026-04-05T09:54:09Z</time></trkpt><trkpt lat="42.852591261708014" lon="13.724473912496313"><ele>49.0</ele><time>2026-04-05T09:54:10Z</time></trkpt><trkpt lat="42.85271528988311" lon="13.724478714434886"><ele>49.0</ele><time>2026-04-05T09:54:11Z</time></trkpt><trkpt lat="42.85282067802091" lon="13.724488994778685"><ele>49.0</ele><time>2026-04-05T09:54:12Z</time></trkpt><trkpt lat="42.85290809830564" lon="13.72452433474578"><ele>49.0</ele><time>2026-04-05T09:54:13Z</time></trkpt><trkpt lat="42.8529823204833" lon="13.724589919037298"><ele>48.83333333333333</ele><time>2026-04-05T09:54:14Z</time></trkpt><trkpt lat="42.85302933694264" lon="13.72469248287419"><ele>48.666666666666664</ele><time>2026-04-05T09:54:15Z</time></trkpt><trkpt lat="42.85304057313776" lon="13.724813058149005"><ele>48.5</ele><time>2026-04-05T09:54:16Z</time></trkpt><trkpt lat="42.853027208261736" lon="13.72493408804169"><ele>48.33333333333333</ele><time>2026-04-05T09:54:17Z</time></trkpt><trkpt lat="42.85299391189373" lon="13.725037782463877"><ele>48.166666666666664</ele><time>2026-04-05T09:54:18Z</time></trkpt><trkpt lat="42.852954317040876" lon="13.725152325988919"><ele>48.0</ele><time>2026-04-05T09:54:19Z</time></trkpt><trkpt lat="42.852922454132056" lon="13.725261730216838"><ele>48.0</ele><time>2026-04-05T09:54:20Z</time></trkpt><trkpt lat="42.85288652056794" lon="13.725365148718174"><ele>48.0</ele><time>2026-04-05T09:54:21Z</time></trkpt><trkpt lat="42.85275889160696" lon="13.725468731185545"><ele>48.0</ele><time>2026-04-05T09:54:23Z</time></trkpt><trkpt lat="42.85268364237993" lon="13.72545857891223"><ele>48.0</ele><time>2026-04-05T09:54:24Z</time></trkpt><trkpt lat="42.85261867944555" lon="13.72540398634485"><ele>48.0</ele><time>2026-04-05T09:54:25Z</time></trkpt><trkpt lat="42.85257171844194" lon="13.725321263360064"><ele>48.25</ele><time>2026-04-05T09:54:26Z</time></trkpt><trkpt lat="42.852533770154864" lon="13.725200346495159"><ele>48.5</ele><time>2026-04-05T09:54:27Z</time></trkpt><trkpt lat="42.8524500740544" lon="13.72511106132828"><ele>48.75</ele><time>2026-04-05T09:54:28Z</time></trkpt><trkpt lat="42.85246623510515" lon="13.724940230249624"><ele>49.0</ele><time>2026-04-05T09:54:29Z</time></trkpt><trkpt lat="42.85243256788889" lon="13.724770880725197"><ele>49.0</ele><time>2026-04-05T09:54:30Z</time></trkpt><trkpt lat="42.85240342929102" lon="13.724598219219745"><ele>49.0</ele><time>2026-04-05T09:54:31Z</time></trkpt><trkpt lat="42.85236912003262" lon="13.724420407319407"><ele>49.0</ele><time>2026-04-05T09:54:32Z</time></trkpt><trkpt lat="42.85234451630752" lon="13.724224346509262"><ele>49.0</ele><time>2026-04-05T09:54:33Z</time></trkpt><trkpt lat="42.852307881378074" lon="13.724031677683527"><ele>50.33333333333333</ele><time>2026-04-05T09:54:34Z</time></trkpt><trkpt lat="42.852273468153676" lon="13.723831341084324"><ele>51.66666666666667</ele><time>2026-04-05T09:54:35Z</time></trkpt><trkpt lat="42.85223743555457" lon="13.723620772673891"><ele>53.0</ele><time>2026-04-05T09:54:36Z</time></trkpt><trkpt lat="42.852199927554956" lon="13.723411580167712"><ele>53.0</ele><time>2026-04-05T09:54:37Z</time></trkpt><trkpt lat="42.85216305809819" lon="13.723196249155956"><ele>53.0</ele><time>2026-04-05T09:54:38Z</time></trkpt><trkpt lat="42.85212275166426" lon="13.722975354380035"><ele>53.0</ele><time>2026-04-05T09:54:39Z</time></trkpt><trkpt lat="42.852083055936674" lon="13.722752527977242"><ele>52.0</ele><time>2026-04-05T09:54:40Z</time></trkpt><trkpt lat="42.8520406136184" lon="13.722524754715234"><ele>51.0</ele><time>2026-04-05T09:54:41Z</time></trkpt><trkpt lat="42.85199893473281" lon="13.722296232143774"><ele>50.0</ele><time>2026-04-05T09:54:42Z</time></trkpt><trkpt lat="42.851954728044674" lon="13.722068027770744"><ele>50.0</ele><time>2026-04-05T09:54:43Z</time></trkpt><trkpt lat="42.85190470298531" lon="13.721846050003094"><ele>50.0</ele><time>2026-04-05T09:54:44Z</time></trkpt><trkpt lat="42.8518542780005" lon="13.721624677702975"><ele>50.0</ele><time>2026-04-05T09:54:45Z</time></trkpt><trkpt lat="42.851798417142255" lon="13.721407197014813"><ele>50.333333333333336</ele><time>2026-04-05T09:54:46Z</time></trkpt><trkpt lat="42.85173875675623" lon="13.721186067100236"><ele>50.66666666666667</ele><time>2026-04-05T09:54:47Z</time></trkpt><trkpt lat="42.851679297966896" lon="13.720958287722196"><ele>51.0</ele><time>2026-04-05T09:54:48Z</time></trkpt><trkpt lat="42.85161005982278" lon="13.720731271813559"><ele>51.0</ele><time>2026-04-05T09:54:49Z</time></trkpt><trkpt lat="42.85152915426295" lon="13.720503804360336"><ele>51.0</ele><time>2026-04-05T09:54:50Z</time></trkpt><trkpt lat="42.851430604004825" lon="13.720282311884624"><ele>51.0</ele><time>2026-04-05T09:54:51Z</time></trkpt><trkpt lat="42.85133824353953" lon="13.720060509184755"><ele>50.66666666666667</ele><time>2026-04-05T09:54:52Z</time></trkpt><trkpt lat="42.85124888885335" lon="13.719839084273453"><ele>50.333333333333336</ele><time>2026-04-05T09:54:53Z</time></trkpt><trkpt lat="42.851160436212766" lon="13.71961652128679"><ele>50.0</ele><time>2026-04-05T09:54:54Z</time></trkpt><trkpt lat="42.85107135256639" lon="13.719395649807208"><ele>50.0</ele><time>2026-04-05T09:54:55Z</time></trkpt><trkpt lat="42.85098298998793" lon="13.71917764073898"><ele>50.0</ele><time>2026-04-05T09:54:56Z</time></trkpt><trkpt lat="42.850897046109" lon="13.718950900970277"><ele>50.0</ele><time>2026-04-05T09:54:57Z</time></trkpt><trkpt lat="42.85081154013594" lon="13.718722834523223"><ele>50.0</ele><time>2026-04-05T09:54:58Z</time></trkpt><trkpt lat="42.850721849655734" lon="13.71850094428504"><ele>50.0</ele><time>2026-04-05T09:54:59Z</time></trkpt><trkpt lat="42.85063353054061" lon="13.718276113222727"><ele>50.0</ele><time>2026-04-05T09:55:00Z</time></trkpt><trkpt lat="42.850546650327416" lon="13.71805015565519"><ele>50.0</ele><time>2026-04-05T09:55:01Z</time></trkpt><trkpt lat="42.850461765524145" lon="13.717826753579473"><ele>50.0</ele><time>2026-04-05T09:55:02Z</time></trkpt><trkpt lat="42.85037409058641" lon="13.717601691833478"><ele>50.0</ele><time>2026-04-05T09:55:03Z</time></trkpt><trkpt lat="42.85028687766247" lon="13.717380275848045"><ele>50.66666666666667</ele><time>2026-04-05T09:55:04Z</time></trkpt><trkpt lat="42.85019768219288" lon="13.717148679651006"><ele>51.33333333333333</ele><time>2026-04-05T09:55:05Z</time></trkpt><trkpt lat="42.85010723054731" lon="13.716911907876822"><ele>52.0</ele><time>2026-04-05T09:55:06Z</time></trkpt><trkpt lat="42.850022511989174" lon="13.716696577183278"><ele>52.0</ele><time>2026-04-05T09:55:07Z</time></trkpt><trkpt lat="42.84994848767455" lon="13.716503501222663"><ele>52.0</ele><time>2026-04-05T09:55:08Z</time></trkpt><trkpt lat="42.84987895858975" lon="13.716325861328713"><ele>52.0</ele><time>2026-04-05T09:55:09Z</time></trkpt><trkpt lat="42.84981483547592" lon="13.716162135401229"><ele>52.0</ele><time>2026-04-05T09:55:10Z</time></trkpt><trkpt lat="42.849757106323274" lon="13.716011977392574"><ele>52.0</ele><time>2026-04-05T09:55:11Z</time></trkpt><trkpt lat="42.84970685020268" lon="13.715874149492166"><ele>52.0</ele><time>2026-04-05T09:55:12Z</time></trkpt><trkpt lat="42.84966453989781" lon="13.71575091812107"><ele>52.0</ele><time>2026-04-05T09:55:13Z</time></trkpt><trkpt lat="42.849630629636195" lon="13.715658091552775"><ele>52.0</ele><time>2026-04-05T09:55:14Z</time></trkpt><trkpt lat="42.8495768298557" lon="13.71555210957701"><ele>52.0</ele><time>2026-04-05T09:55:16Z</time></trkpt><trkpt lat="42.84945221387774" lon="13.715595385420709"><ele>52.0</ele><time>2026-04-05T09:55:17Z</time></trkpt><trkpt lat="42.84936448217021" lon="13.71563943186237"><ele>52.0</ele><time>2026-04-05T09:55:18Z</time></trkpt><trkpt lat="42.849270740342185" lon="13.715723352920008"><ele>52.0</ele><time>2026-04-05T09:55:19Z</time></trkpt><trkpt lat="42.84916948343607" lon="13.715800461043433"><ele>52.0</ele><time>2026-04-05T09:55:20Z</time></trkpt><trkpt lat="42.84905622343451" lon="13.715875651799395"><ele>52.0</ele><time>2026-04-05T09:55:21Z</time></trkpt><trkpt lat="42.84892828358332" lon="13.715948087355969"><ele>55.33333333333333</ele><time>2026-04-05T09:55:22Z</time></trkpt><trkpt lat="42.84878800960585" lon="13.715998429055317"><ele>58.66666666666667</ele><time>2026-04-05T09:55:23Z</time></trkpt><trkpt lat="42.84861845104847" lon="13.716027857848601"><ele>62.0</ele><time>2026-04-05T09:55:24Z</time></trkpt><trkpt lat="42.84844527158581" lon="13.716063845071462"><ele>61.8</ele><time>2026-04-05T09:55:25Z</time></trkpt><trkpt lat="42.84830366279678" lon="13.716088771420278"><ele>61.6</ele><time>2026-04-05T09:55:26Z</time></trkpt><trkpt lat="42.848192007301904" lon="13.716098000245966"><ele>61.39999999999999</ele><time>2026-04-05T09:55:27Z</time></trkpt><trkpt lat="42.848101674087914" lon="13.71608796853585"><ele>61.199999999999996</ele><time>2026-04-05T09:55:28Z</time></trkpt><trkpt lat="42.848011427154766" lon="13.716031207566429"><ele>61.0</ele><time>2026-04-05T09:55:29Z</time></trkpt><trkpt lat="42.847952159397806" lon="13.71590211447111"><ele>63.25</ele><time>2026-04-05T09:55:30Z</time></trkpt><trkpt lat="42.84790504873932" lon="13.715747432595698"><ele>65.5</ele><time>2026-04-05T09:55:31Z</time></trkpt><trkpt lat="42.847855524649205" lon="13.715545867046389"><ele>67.75</ele><time>2026-04-05T09:55:32Z</time></trkpt><trkpt lat="42.847791834695265" lon="13.715349093934714"><ele>70.0</ele><time>2026-04-05T09:55:33Z</time></trkpt><trkpt lat="42.84771966211284" lon="13.715144709599505"><ele>71.33333333333333</ele><time>2026-04-05T09:55:34Z</time></trkpt><trkpt lat="42.84764928114713" lon="13.714926098031254"><ele>72.66666666666667</ele><time>2026-04-05T09:55:35Z</time></trkpt><trkpt lat="42.84757802680216" lon="13.714701679516796"><ele>74.0</ele><time>2026-04-05T09:55:36Z</time></trkpt><trkpt lat="42.847509929567366" lon="13.714485125554226"><ele>75.0</ele><time>2026-04-05T09:55:37Z</time></trkpt><trkpt lat="42.8474555955804" lon="13.714300468457576"><ele>76.0</ele><time>2026-04-05T09:55:38Z</time></trkpt><trkpt lat="42.84740492048923" lon="13.714161537027628"><ele>77.0</ele><time>2026-04-05T09:55:39Z</time></trkpt><trkpt lat="42.8473478546433" lon="13.714051086243805"><ele>78.0</ele><time>2026-04-05T09:55:40Z</time></trkpt><trkpt lat="42.84726297581766" lon="13.713984213139696"><ele>78.0</ele><time>2026-04-05T09:55:41Z</time></trkpt><trkpt lat="42.84715331790291" lon="13.71395088314179"><ele>78.0</ele><time>2026-04-05T09:55:42Z</time></trkpt><trkpt lat="42.84702896179432" lon="13.713977198268175"><ele>78.0</ele><time>2026-04-05T09:55:43Z</time></trkpt><trkpt lat="42.846900714658695" lon="13.714045885628414"><ele>78.0</ele><time>2026-04-05T09:55:44Z</time></trkpt><trkpt lat="42.846751093249964" lon="13.714134365214955"><ele>78.25</ele><time>2026-04-05T09:55:45Z</time></trkpt><trkpt lat="42.84661429541475" lon="13.71420485175337"><ele>78.5</ele><time>2026-04-05T09:55:46Z</time></trkpt><trkpt lat="42.84650825756765" lon="13.714264851715141"><ele>78.75</ele><time>2026-04-05T09:55:47Z</time></trkpt><trkpt lat="42.84642044712968" lon="13.714344194221031"><ele>79.0</ele><time>2026-04-05T09:55:48Z</time></trkpt><trkpt lat="42.84633560272793" lon="13.714470121114362"><ele>79.66666666666666</ele><time>2026-04-05T09:55:49Z</time></trkpt><trkpt lat="42.846265527431804" lon="13.71464698368608"><ele>80.33333333333333</ele><time>2026-04-05T09:55:50Z</time></trkpt><trkpt lat="42.84622024079542" lon="13.714858403278635"><ele>81.0</ele><time>2026-04-05T09:55:51Z</time></trkpt><trkpt lat="42.84619429513835" lon="13.715102298352635"><ele>82.0</ele><time>2026-04-05T09:55:52Z</time></trkpt><trkpt lat="42.84616125202135" lon="13.715360127792378"><ele>83.0</ele><time>2026-04-05T09:55:53Z</time></trkpt><trkpt lat="42.846113712356384" lon="13.71562166221091"><ele>84.0</ele><time>2026-04-05T09:55:54Z</time></trkpt><trkpt lat="42.84605944020854" lon="13.715882522167936"><ele>85.0</ele><time>2026-04-05T09:55:55Z</time></trkpt><trkpt lat="42.846007216331294" lon="13.716126420340332"><ele>86.0</ele><time>2026-04-05T09:55:56Z</time></trkpt><trkpt lat="42.84596054979094" lon="13.71634957123259"><ele>87.0</ele><time>2026-04-05T09:55:57Z</time></trkpt><trkpt lat="42.84592489361669" lon="13.71652464113565"><ele>88.0</ele><time>2026-04-05T09:55:58Z</time></trkpt><trkpt lat="42.84591220130468" lon="13.716677587929842"><ele>89.0</ele><time>2026-04-05T09:55:59Z</time></trkpt><trkpt lat="42.84593970800825" lon="13.716821687864293"><ele>90.0</ele><time>2026-04-05T09:56:00Z</time></trkpt><trkpt lat="42.84600729251575" lon="13.716976036296392"><ele>91.0</ele><time>2026-04-05T09:56:01Z</time></trkpt><trkpt lat="42.84606801237373" lon="13.717101930002917"><ele>91.0</ele><time>2026-04-05T09:56:02Z</time></trkpt><trkpt lat="42.84609219172423" lon="13.717207193286926"><ele>91.0</ele><time>2026-04-05T09:56:03Z</time></trkpt><trkpt lat="42.846067817831695" lon="13.717300524442656"><ele>91.0</ele><time>2026-04-05T09:56:04Z</time></trkpt><trkpt lat="42.84602418040218" lon="13.717371624728626"><ele>91.0</ele><time>2026-04-05T09:56:05Z</time></trkpt><trkpt lat="42.845901441751586" lon="13.717394540819361"><ele>91.0</ele><time>2026-04-05T09:56:06Z</time></trkpt><trkpt lat="42.84579243857838" lon="13.717360230963013"><ele>93.0</ele><time>2026-04-05T09:56:07Z</time></trkpt><trkpt lat="42.845676994236875" lon="13.717304731760805"><ele>95.0</ele><time>2026-04-05T09:56:08Z</time></trkpt><trkpt lat="42.84554695170204" lon="13.717242878076034"><ele>97.0</ele><time>2026-04-05T09:56:09Z</time></trkpt><trkpt lat="42.8454091438925" lon="13.717184555750672"><ele>99.0</ele><time>2026-04-05T09:56:10Z</time></trkpt><trkpt lat="42.84528880497713" lon="13.71712612550974"><ele>99.0</ele><time>2026-04-05T09:56:11Z</time></trkpt><trkpt lat="42.84520123512517" lon="13.717050455899072"><ele>99.0</ele><time>2026-04-05T09:56:12Z</time></trkpt><trkpt lat="42.84514079024852" lon="13.716934595101632"><ele>99.0</ele><time>2026-04-05T09:56:13Z</time></trkpt><trkpt lat="42.84511215515581" lon="13.716790062037811"><ele>99.0</ele><time>2026-04-05T09:56:14Z</time></trkpt><trkpt lat="42.84514231662987" lon="13.716634534049758"><ele>99.0</ele><time>2026-04-05T09:56:15Z</time></trkpt><trkpt lat="42.84515859030945" lon="13.71645656531803"><ele>98.4</ele><time>2026-04-05T09:56:16Z</time></trkpt><trkpt lat="42.84519921275003" lon="13.716274936450004"><ele>97.80000000000001</ele><time>2026-04-05T09:56:17Z</time></trkpt><trkpt lat="42.84522819050879" lon="13.716125102830814"><ele>97.19999999999999</ele><time>2026-04-05T09:56:18Z</time></trkpt><trkpt lat="42.84523784617803" lon="13.716002233464367"><ele>96.6</ele><time>2026-04-05T09:56:19Z</time></trkpt><trkpt lat="42.845217269762806" lon="13.71588583639965"><ele>96.0</ele><time>2026-04-05T09:56:20Z</time></trkpt><trkpt lat="42.84516090353297" lon="13.715793186150501"><ele>98.6</ele><time>2026-04-05T09:56:21Z</time></trkpt><trkpt lat="42.84508222511274" lon="13.715734250311492"><ele>101.19999999999999</ele><time>2026-04-05T09:56:22Z</time></trkpt><trkpt lat="42.8449780164554" lon="13.715719068182834"><ele>103.80000000000001</ele><time>2026-04-05T09:56:23Z</time></trkpt><trkpt lat="42.84486032705806" lon="13.715750550326334"><ele>106.4</ele><time>2026-04-05T09:56:24Z</time></trkpt><trkpt lat="42.84473856150956" lon="13.715821292802818"><ele>109.0</ele><time>2026-04-05T09:56:25Z</time></trkpt><trkpt lat="42.844612098733734" lon="13.715893742427987"><ele>109.0</ele><time>2026-04-05T09:56:26Z</time></trkpt><trkpt lat="42.84447823989095" lon="13.715902465265232"><ele>109.0</ele><time>2026-04-05T09:56:27Z</time></trkpt><trkpt lat="42.844335070584314" lon="13.715872511594188"><ele>109.0</ele><time>2026-04-05T09:56:28Z</time></trkpt><trkpt lat="42.8441790880867" lon="13.715835038846523"><ele>109.0</ele><time>2026-04-05T09:56:29Z</time></trkpt><trkpt lat="42.84402371949208" lon="13.715804564013654"><ele>110.5</ele><time>2026-04-05T09:56:30Z</time></trkpt><trkpt lat="42.843880830883464" lon="13.715758917910355"><ele>112.0</ele><time>2026-04-05T09:56:31Z</time></trkpt><trkpt lat="42.8437596764831" lon="13.715685203478717"><ele>113.5</ele><time>2026-04-05T09:56:32Z</time></trkpt><trkpt lat="42.84365738399524" lon="13.715569414207655"><ele>115.0</ele><time>2026-04-05T09:56:33Z</time></trkpt><trkpt lat="42.84357714451808" lon="13.715427160007746"><ele>115.0</ele><time>2026-04-05T09:56:34Z</time></trkpt><trkpt lat="42.84349543952451" lon="13.715258302095613"><ele>115.0</ele><time>2026-04-05T09:56:35Z</time></trkpt><trkpt lat="42.843408978566146" lon="13.71508602060097"><ele>115.0</ele><time>2026-04-05T09:56:36Z</time></trkpt><trkpt lat="42.84332856077315" lon="13.7149268301535"><ele>115.0</ele><time>2026-04-05T09:56:37Z</time></trkpt><trkpt lat="42.84327155177737" lon="13.714770527658366"><ele>116.5</ele><time>2026-04-05T09:56:38Z</time></trkpt><trkpt lat="42.84327010676048" lon="13.714593078560995"><ele>118.0</ele><time>2026-04-05T09:56:39Z</time></trkpt><trkpt lat="42.843270052600495" lon="13.714397459025543"><ele>119.5</ele><time>2026-04-05T09:56:40Z</time></trkpt><trkpt lat="42.84326063308477" lon="13.714185155398809"><ele>121.0</ele><time>2026-04-05T09:56:41Z</time></trkpt><trkpt lat="42.84326668133218" lon="13.713994598746517"><ele>121.25</ele><time>2026-04-05T09:56:42Z</time></trkpt><trkpt lat="42.843259776412616" lon="13.713833825859039"><ele>121.5</ele><time>2026-04-05T09:56:43Z</time></trkpt><trkpt lat="42.84323125574023" lon="13.71367689840189"><ele>121.75</ele><time>2026-04-05T09:56:44Z</time></trkpt><trkpt lat="42.843165847306615" lon="13.713522007926088"><ele>122.0</ele><time>2026-04-05T09:56:45Z</time></trkpt><trkpt lat="42.84308003335442" lon="13.713366896905379"><ele>122.0</ele><time>2026-04-05T09:56:46Z</time></trkpt><trkpt lat="42.842990377176584" lon="13.713208680582852"><ele>122.0</ele><time>2026-04-05T09:56:47Z</time></trkpt><trkpt lat="42.84290459536024" lon="13.713040637875718"><ele>122.0</ele><time>2026-04-05T09:56:48Z</time></trkpt><trkpt lat="42.84281689248805" lon="13.712874400817688"><ele>122.0</ele><time>2026-04-05T09:56:49Z</time></trkpt><trkpt lat="42.842730729344765" lon="13.712720788204843"><ele>120.75</ele><time>2026-04-05T09:56:50Z</time></trkpt><trkpt lat="42.84264690632088" lon="13.71259125156221"><ele>119.5</ele><time>2026-04-05T09:56:51Z</time></trkpt><trkpt lat="42.84256921914531" lon="13.712498605237698"><ele>118.25</ele><time>2026-04-05T09:56:52Z</time></trkpt><trkpt lat="42.84247873943094" lon="13.712439338114551"><ele>117.0</ele><time>2026-04-05T09:56:53Z</time></trkpt><trkpt lat="42.842359091738004" lon="13.712429643108033"><ele>121.0</ele><time>2026-04-05T09:56:54Z</time></trkpt><trkpt lat="42.84222232215327" lon="13.712448198510415"><ele>125.0</ele><time>2026-04-05T09:56:55Z</time></trkpt><trkpt lat="42.84206232465667" lon="13.712500777384617"><ele>129.0</ele><time>2026-04-05T09:56:56Z</time></trkpt><trkpt lat="42.841887868092996" lon="13.712545933137868"><ele>130.0</ele><time>2026-04-05T09:56:57Z</time></trkpt><trkpt lat="42.84170662368135" lon="13.712586633935155"><ele>131.0</ele><time>2026-04-05T09:56:58Z</time></trkpt><trkpt lat="42.841520798625254" lon="13.71262662956979"><ele>132.0</ele><time>2026-04-05T09:56:59Z</time></trkpt><trkpt lat="42.841317081017294" lon="13.712660926290537"><ele>132.33333333333334</ele><time>2026-04-05T09:57:00Z</time></trkpt><trkpt lat="42.84109836323751" lon="13.712741730173365"><ele>132.66666666666669</ele><time>2026-04-05T09:57:01Z</time></trkpt><trkpt lat="42.840880815031205" lon="13.712797871178267"><ele>133.0</ele><time>2026-04-05T09:57:02Z</time></trkpt><trkpt lat="42.84066679099314" lon="13.712869914244296"><ele>133.0</ele><time>2026-04-05T09:57:03Z</time></trkpt><trkpt lat="42.84046124550968" lon="13.712954181643791"><ele>133.0</ele><time>2026-04-05T09:57:04Z</time></trkpt><trkpt lat="42.840264816654326" lon="13.713044338318088"><ele>133.0</ele><time>2026-04-05T09:57:05Z</time></trkpt><trkpt lat="42.84008345384152" lon="13.713137752182973"><ele>137.33333333333334</ele><time>2026-04-05T09:57:06Z</time></trkpt><trkpt lat="42.839910279185325" lon="13.713246513681256"><ele>141.66666666666666</ele><time>2026-04-05T09:57:07Z</time></trkpt><trkpt lat="42.839745636338" lon="13.713368922266426"><ele>146.0</ele><time>2026-04-05T09:57:08Z</time></trkpt><trkpt lat="42.83960121700035" lon="13.71350335962365"><ele>147.2</ele><time>2026-04-05T09:57:09Z</time></trkpt><trkpt lat="42.839478284473124" lon="13.713621199600913"><ele>148.39999999999998</ele><time>2026-04-05T09:57:10Z</time></trkpt><trkpt lat="42.839382312779655" lon="13.713725235830342"><ele>149.6</ele><time>2026-04-05T09:57:11Z</time></trkpt><trkpt lat="42.83930932941817" lon="13.713816699059485"><ele>150.79999999999998</ele><time>2026-04-05T09:57:12Z</time></trkpt><trkpt lat="42.83925113071723" lon="13.71387516839024"><ele>152.0</ele><time>2026-04-05T09:57:13Z</time></trkpt><trkpt lat="42.839140450520105" lon="13.71386259874894"><ele>152.0</ele><time>2026-04-05T09:57:15Z</time></trkpt><trkpt lat="42.839095484323806" lon="13.713802153077534"><ele>152.0</ele><time>2026-04-05T09:57:16Z</time></trkpt><trkpt lat="42.83907529107693" lon="13.71370256280423"><ele>152.0</ele><time>2026-04-05T09:57:17Z</time></trkpt><trkpt lat="42.83907582801501" lon="13.713577632779161"><ele>152.0</ele><time>2026-04-05T09:57:18Z</time></trkpt><trkpt lat="42.83909272332487" lon="13.713428294777254"><ele>152.0</ele><time>2026-04-05T09:57:19Z</time></trkpt><trkpt lat="42.839110306102455" lon="13.713257676374477"><ele>154.5</ele><time>2026-04-05T09:57:20Z</time></trkpt><trkpt lat="42.83912147897495" lon="13.713081601489224"><ele>157.0</ele><time>2026-04-05T09:57:21Z</time></trkpt><trkpt lat="42.8391147026958" lon="13.712895599968396"><ele>159.5</ele><time>2026-04-05T09:57:22Z</time></trkpt><trkpt lat="42.83908925419251" lon="13.712705953200322"><ele>162.0</ele><time>2026-04-05T09:57:23Z</time></trkpt><trkpt lat="42.83904958694999" lon="13.712518182290323"><ele>163.0</ele><time>2026-04-05T09:57:24Z</time></trkpt><trkpt lat="42.83900544682132" lon="13.71235080258211"><ele>164.0</ele><time>2026-04-05T09:57:25Z</time></trkpt><trkpt lat="42.83897354140573" lon="13.712226216034098"><ele>165.0</ele><time>2026-04-05T09:57:26Z</time></trkpt><trkpt lat="42.83893711594398" lon="13.712141418273761"><ele>166.0</ele><time>2026-04-05T09:57:27Z</time></trkpt><trkpt lat="42.838878854958786" lon="13.712077088143152"><ele>167.0</ele><time>2026-04-05T09:57:28Z</time></trkpt><trkpt lat="42.838801419732725" lon="13.712044644200237"><ele>167.0</ele><time>2026-04-05T09:57:29Z</time></trkpt><trkpt lat="42.838726609152936" lon="13.712058086881663"><ele>167.0</ele><time>2026-04-05T09:57:30Z</time></trkpt><trkpt lat="42.83866827013571" lon="13.712141917002322"><ele>167.0</ele><time>2026-04-05T09:57:31Z</time></trkpt><trkpt lat="42.838628240959004" lon="13.71226605709862"><ele>167.0</ele><time>2026-04-05T09:57:32Z</time></trkpt><trkpt lat="42.83859189443022" lon="13.712416650643247"><ele>167.0</ele><time>2026-04-05T09:57:33Z</time></trkpt><trkpt lat="42.83855633050681" lon="13.712577032622184"><ele>165.75</ele><time>2026-04-05T09:57:34Z</time></trkpt><trkpt lat="42.83851171116902" lon="13.712741845807772"><ele>164.5</ele><time>2026-04-05T09:57:35Z</time></trkpt><trkpt lat="42.83843230621823" lon="13.712869747694322"><ele>163.25</ele><time>2026-04-05T09:57:36Z</time></trkpt><trkpt lat="42.83834606099291" lon="13.712984138600822"><ele>162.0</ele><time>2026-04-05T09:57:37Z</time></trkpt><trkpt lat="42.83825294356281" lon="13.713104910467766"><ele>166.25</ele><time>2026-04-05T09:57:38Z</time></trkpt><trkpt lat="42.83814045773475" lon="13.713206146104422"><ele>170.5</ele><time>2026-04-05T09:57:39Z</time></trkpt><trkpt lat="42.83802144616519" lon="13.7132901381335"><ele>174.75</ele><time>2026-04-05T09:57:40Z</time></trkpt><trkpt lat="42.83788958190954" lon="13.713357064957059"><ele>179.0</ele><time>2026-04-05T09:57:41Z</time></trkpt><trkpt lat="42.837738173321924" lon="13.713380226409093"><ele>180.25</ele><time>2026-04-05T09:57:42Z</time></trkpt><trkpt lat="42.83758031619071" lon="13.713431996414316"><ele>181.5</ele><time>2026-04-05T09:57:43Z</time></trkpt><trkpt lat="42.837432822036284" lon="13.713471196344234"><ele>182.75</ele><time>2026-04-05T09:57:44Z</time></trkpt><trkpt lat="42.837319161721794" lon="13.71353364272704"><ele>184.0</ele><time>2026-04-05T09:57:45Z</time></trkpt><trkpt lat="42.83721152072509" lon="13.71362303002728"><ele>184.0</ele><time>2026-04-05T09:57:46Z</time></trkpt><trkpt lat="42.837098782801526" lon="13.713741993203445"><ele>184.0</ele><time>2026-04-05T09:57:47Z</time></trkpt><trkpt lat="42.836979000606256" lon="13.713885924879575"><ele>184.0</ele><time>2026-04-05T09:57:48Z</time></trkpt><trkpt lat="42.836862616292315" lon="13.714046684362568"><ele>189.33333333333334</ele><time>2026-04-05T09:57:49Z</time></trkpt><trkpt lat="42.83675485025941" lon="13.71422041669696"><ele>194.66666666666669</ele><time>2026-04-05T09:57:50Z</time></trkpt><trkpt lat="42.83664896203935" lon="13.714404260190838"><ele>200.0</ele><time>2026-04-05T09:57:51Z</time></trkpt><trkpt lat="42.83653863696533" lon="13.714586662685512"><ele>200.0</ele><time>2026-04-05T09:57:52Z</time></trkpt><trkpt lat="42.83644323098206" lon="13.71476396620112"><ele>200.0</ele><time>2026-04-05T09:57:53Z</time></trkpt><trkpt lat="42.83638483041169" lon="13.714950823705347"><ele>200.0</ele><time>2026-04-05T09:57:54Z</time></trkpt><trkpt lat="42.83634163319586" lon="13.715172519629835"><ele>199.0</ele><time>2026-04-05T09:57:55Z</time></trkpt><trkpt lat="42.83630495581576" lon="13.715405564475427"><ele>198.0</ele><time>2026-04-05T09:57:56Z</time></trkpt><trkpt lat="42.83626944545807" lon="13.715584429753196"><ele>197.0</ele><time>2026-04-05T09:57:57Z</time></trkpt><trkpt lat="42.83627886822655" lon="13.71569565123211"><ele>196.0</ele><time>2026-04-05T09:57:58Z</time></trkpt><trkpt lat="42.83616300059233" lon="13.715689213573107"><ele>195.99999999999997</ele><time>2026-04-05T09:57:59Z</time></trkpt><trkpt lat="42.83609569213984" lon="13.71566981551507"><ele>196.0</ele><time>2026-04-05T09:58:00Z</time></trkpt><trkpt lat="42.836032450485284" lon="13.715615486852057"><ele>196.0</ele><time>2026-04-05T09:58:01Z</time></trkpt><trkpt lat="42.83599056197002" lon="13.715515570259774"><ele>196.0</ele><time>2026-04-05T09:58:02Z</time></trkpt><trkpt lat="42.83599477730282" lon="13.715406405006501"><ele>195.99999999999997</ele><time>2026-04-05T09:58:03Z</time></trkpt><trkpt lat="42.83598821377809" lon="13.715298989089877"><ele>196.0</ele><time>2026-04-05T09:58:04Z</time></trkpt><trkpt lat="42.83597102303458" lon="13.715155831226777"><ele>198.75</ele><time>2026-04-05T09:58:05Z</time></trkpt><trkpt lat="42.83596502265015" lon="13.7149735544431"><ele>201.5</ele><time>2026-04-05T09:58:06Z</time></trkpt><trkpt lat="42.83595843874875" lon="13.714774117157061"><ele>204.25</ele><time>2026-04-05T09:58:07Z</time></trkpt><trkpt lat="42.83595964815911" lon="13.714572695544842"><ele>207.0</ele><time>2026-04-05T09:58:08Z</time></trkpt><trkpt lat="42.83598946808471" lon="13.71435529133892"><ele>207.0</ele><time>2026-04-05T09:58:09Z</time></trkpt><trkpt lat="42.836059828265476" lon="13.714135670713096"><ele>207.0</ele><time>2026-04-05T09:58:10Z</time></trkpt><trkpt lat="42.83613619035678" lon="13.713904132532535"><ele>207.0</ele><time>2026-04-05T09:58:11Z</time></trkpt><trkpt lat="42.83619843637593" lon="13.713661914269267"><ele>210.66666666666669</ele><time>2026-04-05T09:58:12Z</time></trkpt><trkpt lat="42.83628003624642" lon="13.713434646046576"><ele>214.33333333333334</ele><time>2026-04-05T09:58:13Z</time></trkpt><trkpt lat="42.83635800330919" lon="13.713227586436586"><ele>218.0</ele><time>2026-04-05T09:58:14Z</time></trkpt><trkpt lat="42.836470142079726" lon="13.71307030624631"><ele>218.0</ele><time>2026-04-05T09:58:15Z</time></trkpt><trkpt lat="42.83657853337094" lon="13.712897271697983"><ele>218.0</ele><time>2026-04-05T09:58:16Z</time></trkpt><trkpt lat="42.83666918142544" lon="13.712705776621311"><ele>218.0</ele><time>2026-04-05T09:58:17Z</time></trkpt><trkpt lat="42.83673882134507" lon="13.712545109603717"><ele>219.50000000000003</ele><time>2026-04-05T09:58:18Z</time></trkpt><trkpt lat="42.83678122025644" lon="13.712398412798395"><ele>221.0</ele><time>2026-04-05T09:58:19Z</time></trkpt><trkpt lat="42.836805907967175" lon="13.712286368185278"><ele>222.5</ele><time>2026-04-05T09:58:20Z</time></trkpt><trkpt lat="42.8368188214281" lon="13.712190524639627"><ele>224.0</ele><time>2026-04-05T09:58:21Z</time></trkpt><trkpt lat="42.836807161298466" lon="13.712085513532983"><ele>225.50000000000003</ele><time>2026-04-05T09:58:22Z</time></trkpt><trkpt lat="42.83676543381748" lon="13.711987579028415"><ele>227.0</ele><time>2026-04-05T09:58:23Z</time></trkpt><trkpt lat="42.836692787305495" lon="13.7119237990183"><ele>227.0</ele><time>2026-04-05T09:58:24Z</time></trkpt><trkpt lat="42.836617163826986" lon="13.71193202037406"><ele>227.0</ele><time>2026-04-05T09:58:25Z</time></trkpt><trkpt lat="42.83654634236434" lon="13.711997349549776"><ele>227.0</ele><time>2026-04-05T09:58:26Z</time></trkpt><trkpt lat="42.83649521291478" lon="13.712106410939843"><ele>227.0</ele><time>2026-04-05T09:58:27Z</time></trkpt><trkpt lat="42.83645579581862" lon="13.712239055715557"><ele>227.0</ele><time>2026-04-05T09:58:28Z</time></trkpt><trkpt lat="42.83640372150108" lon="13.712392479631985"><ele>227.0</ele><time>2026-04-05T09:58:29Z</time></trkpt><trkpt lat="42.83632255063769" lon="13.712549345430556"><ele>227.0</ele><time>2026-04-05T09:58:30Z</time></trkpt><trkpt lat="42.8362234852443" lon="13.712698975546886"><ele>227.0</ele><time>2026-04-05T09:58:31Z</time></trkpt><trkpt lat="42.83611177191154" lon="13.712842938749759"><ele>227.0</ele><time>2026-04-05T09:58:32Z</time></trkpt><trkpt lat="42.83600347795508" lon="13.712985900050478"><ele>231.0</ele><time>2026-04-05T09:58:33Z</time></trkpt><trkpt lat="42.83589753395928" lon="13.713140952859366"><ele>235.0</ele><time>2026-04-05T09:58:34Z</time></trkpt><trkpt lat="42.835790997779476" lon="13.71331964087806"><ele>239.0</ele><time>2026-04-05T09:58:35Z</time></trkpt><trkpt lat="42.83568347625972" lon="13.713500401345119"><ele>236.33333333333334</ele><time>2026-04-05T09:58:36Z</time></trkpt><trkpt lat="42.83557476977152" lon="13.713681795264124"><ele>233.66666666666669</ele><time>2026-04-05T09:58:37Z</time></trkpt><trkpt lat="42.8354587481851" lon="13.713879342248083"><ele>231.0</ele><time>2026-04-05T09:58:38Z</time></trkpt><trkpt lat="42.83533748437357" lon="13.714090363973181"><ele>231.0</ele><time>2026-04-05T09:58:39Z</time></trkpt><trkpt lat="42.83522314901493" lon="13.71429080953717"><ele>231.0</ele><time>2026-04-05T09:58:40Z</time></trkpt><trkpt lat="42.835132230995704" lon="13.714439016432086"><ele>231.0</ele><time>2026-04-05T09:58:41Z</time></trkpt><trkpt lat="42.83505533382837" lon="13.71453733270433"><ele>231.0</ele><time>2026-04-05T09:58:42Z</time></trkpt><trkpt lat="42.8349654273853" lon="13.714595848762032"><ele>232.75</ele><time>2026-04-05T09:58:43Z</time></trkpt><trkpt lat="42.834861313332006" lon="13.71462245745276"><ele>234.5</ele><time>2026-04-05T09:58:44Z</time></trkpt><trkpt lat="42.834755008266924" lon="13.714610657961677"><ele>236.25</ele><time>2026-04-05T09:58:45Z</time></trkpt><trkpt lat="42.83463034432892" lon="13.714573211595752"><ele>238.0</ele><time>2026-04-05T09:58:46Z</time></trkpt><trkpt lat="42.83449303560312" lon="13.714528746157464"><ele>238.0</ele><time>2026-04-05T09:58:47Z</time></trkpt><trkpt lat="42.83434939597223" lon="13.714478661366538"><ele>238.0</ele><time>2026-04-05T09:58:48Z</time></trkpt><trkpt lat="42.83420473526511" lon="13.714436477125082"><ele>238.0</ele><time>2026-04-05T09:58:49Z</time></trkpt><trkpt lat="42.83407728992132" lon="13.714413227334083"><ele>238.0</ele><time>2026-04-05T09:58:50Z</time></trkpt><trkpt lat="42.83396285482276" lon="13.714425200803705"><ele>238.75</ele><time>2026-04-05T09:58:51Z</time></trkpt><trkpt lat="42.83384961946071" lon="13.71449150915048"><ele>239.5</ele><time>2026-04-05T09:58:52Z</time></trkpt><trkpt lat="42.833734081088224" lon="13.71459172925191"><ele>240.25</ele><time>2026-04-05T09:58:53Z</time></trkpt><trkpt lat="42.83362565217968" lon="13.714725767142916"><ele>241.0</ele><time>2026-04-05T09:58:54Z</time></trkpt><trkpt lat="42.83352276333483" lon="13.714871912762778"><ele>241.75</ele><time>2026-04-05T09:58:55Z</time></trkpt><trkpt lat="42.83342436478892" lon="13.715024336797823"><ele>242.5</ele><time>2026-04-05T09:58:56Z</time></trkpt><trkpt lat="42.83332211960182" lon="13.71517116174539"><ele>243.25</ele><time>2026-04-05T09:58:57Z</time></trkpt><trkpt lat="42.83321345604146" lon="13.715303854514039"><ele>244.0</ele><time>2026-04-05T09:58:58Z</time></trkpt><trkpt lat="42.83309407414286" lon="13.715417973177708"><ele>244.0</ele><time>2026-04-05T09:58:59Z</time></trkpt><trkpt lat="42.832963120257446" lon="13.715500523610528"><ele>244.0</ele><time>2026-04-05T09:59:00Z</time></trkpt><trkpt lat="42.83283285989314" lon="13.715575817743003"><ele>244.0</ele><time>2026-04-05T09:59:01Z</time></trkpt><trkpt lat="42.83270741635997" lon="13.71565148587227"><ele>244.0</ele><time>2026-04-05T09:59:02Z</time></trkpt><trkpt lat="42.83257695996812" lon="13.715731276736655"><ele>245.0</ele><time>2026-04-05T09:59:03Z</time></trkpt><trkpt lat="42.8322878310386" lon="13.715926628140537"><ele>246.0</ele><time>2026-04-05T09:59:05Z</time></trkpt><trkpt lat="42.832138157131254" lon="13.716033636293893"><ele>246.33333333333331</ele><time>2026-04-05T09:59:06Z</time></trkpt><trkpt lat="42.83199303205511" lon="13.716142178573824"><ele>246.66666666666666</ele><time>2026-04-05T09:59:07Z</time></trkpt><trkpt lat="42.831846926516974" lon="13.716250300606571"><ele>247.0</ele><time>2026-04-05T09:59:08Z</time></trkpt><trkpt lat="42.83170248201634" lon="13.716358460062864"><ele>247.0</ele><time>2026-04-05T09:59:09Z</time></trkpt><trkpt lat="42.831558654921466" lon="13.716461915603881"><ele>247.0</ele><time>2026-04-05T09:59:10Z</time></trkpt><trkpt lat="42.83141336484955" lon="13.716565957298393"><ele>247.0</ele><time>2026-04-05T09:59:11Z</time></trkpt><trkpt lat="42.831269021117684" lon="13.71666565364705"><ele>247.0</ele><time>2026-04-05T09:59:12Z</time></trkpt><trkpt lat="42.83112997735746" lon="13.716754281288342"><ele>247.0</ele><time>2026-04-05T09:59:13Z</time></trkpt><trkpt lat="42.83099700114794" lon="13.716842230675725"><ele>247.0</ele><time>2026-04-05T09:59:14Z</time></trkpt><trkpt lat="42.83086483671207" lon="13.71693248826784"><ele>247.0</ele><time>2026-04-05T09:59:15Z</time></trkpt><trkpt lat="42.830726932212414" lon="13.717027141918527"><ele>245.0</ele><time>2026-04-05T09:59:16Z</time></trkpt><trkpt lat="42.83058262771934" lon="13.71712160948186"><ele>243.0</ele><time>2026-04-05T09:59:17Z</time></trkpt><trkpt lat="42.83044282937511" lon="13.71720553983363"><ele>241.0</ele><time>2026-04-05T09:59:18Z</time></trkpt><trkpt lat="42.830299433803056" lon="13.717268768815192"><ele>241.0</ele><time>2026-04-05T09:59:19Z</time></trkpt><trkpt lat="42.83014306241617" lon="13.717315535602383"><ele>241.0</ele><time>2026-04-05T09:59:20Z</time></trkpt><trkpt lat="42.82999287471379" lon="13.717348167701662"><ele>241.0</ele><time>2026-04-05T09:59:21Z</time></trkpt><trkpt lat="42.82986020860559" lon="13.7173730262949"><ele>241.0</ele><time>2026-04-05T09:59:22Z</time></trkpt><trkpt lat="42.82975030958311" lon="13.71738790366186"><ele>240.20000000000002</ele><time>2026-04-05T09:59:23Z</time></trkpt><trkpt lat="42.8296582093983" lon="13.717393994914367"><ele>239.40000000000003</ele><time>2026-04-05T09:59:24Z</time></trkpt><trkpt lat="42.82958960792677" lon="13.717392336864048"><ele>238.6</ele><time>2026-04-05T09:59:25Z</time></trkpt><trkpt lat="42.82943702251675" lon="13.717256679351348"><ele>237.8</ele><time>2026-04-05T09:59:29Z</time></trkpt><trkpt lat="42.829379847607484" lon="13.717156746703683"><ele>237.0</ele><time>2026-04-05T09:59:30Z</time></trkpt><trkpt lat="42.82931670402277" lon="13.717045144628933"><ele>236.75</ele><time>2026-04-05T09:59:31Z</time></trkpt><trkpt lat="42.8292455314412" lon="13.716925971109873"><ele>236.5</ele><time>2026-04-05T09:59:32Z</time></trkpt><trkpt lat="42.829169233537066" lon="13.71680091885036"><ele>236.25</ele><time>2026-04-05T09:59:33Z</time></trkpt><trkpt lat="42.829086739521046" lon="13.716669172865457"><ele>236.0</ele><time>2026-04-05T09:59:34Z</time></trkpt><trkpt lat="42.82900327222617" lon="13.716535202857083"><ele>236.0</ele><time>2026-04-05T09:59:35Z</time></trkpt><trkpt lat="42.82882229403903" lon="13.716262750841697"><ele>236.0</ele><time>2026-04-05T09:59:37Z</time></trkpt><trkpt lat="42.82872365378091" lon="13.716154286197556"><ele>236.0</ele><time>2026-04-05T09:59:38Z</time></trkpt><trkpt lat="42.828616901646605" lon="13.716059598358273"><ele>236.25</ele><time>2026-04-05T09:59:39Z</time></trkpt><trkpt lat="42.8284981048117" lon="13.715987722842465"><ele>236.5</ele><time>2026-04-05T09:59:40Z</time></trkpt><trkpt lat="42.82836614777186" lon="13.71593746479742"><ele>236.75</ele><time>2026-04-05T09:59:41Z</time></trkpt><trkpt lat="42.82821747719819" lon="13.715909679176328"><ele>237.0</ele><time>2026-04-05T09:59:42Z</time></trkpt><trkpt lat="42.828060754678695" lon="13.715891909054774"><ele>236.25</ele><time>2026-04-05T09:59:43Z</time></trkpt><trkpt lat="42.82790869917441" lon="13.715869873577487"><ele>235.5</ele><time>2026-04-05T09:59:44Z</time></trkpt><trkpt lat="42.82776457442956" lon="13.715848090355347"><ele>234.75</ele><time>2026-04-05T09:59:45Z</time></trkpt><trkpt lat="42.82762397442459" lon="13.715826638716084"><ele>234.0</ele><time>2026-04-05T09:59:46Z</time></trkpt><trkpt lat="42.82748953942247" lon="13.71580665946401"><ele>234.0</ele><time>2026-04-05T09:59:47Z</time></trkpt><trkpt lat="42.827363593019996" lon="13.715785704293586"><ele>234.0</ele><time>2026-04-05T09:59:48Z</time></trkpt><trkpt lat="42.82723370388299" lon="13.715762222541093"><ele>234.0</ele><time>2026-04-05T09:59:49Z</time></trkpt><trkpt lat="42.82709985678863" lon="13.71573355946937"><ele>234.0</ele><time>2026-04-05T09:59:50Z</time></trkpt><trkpt lat="42.826963632740984" lon="13.715703466577608"><ele>234.0</ele><time>2026-04-05T09:59:51Z</time></trkpt><trkpt lat="42.82683240998389" lon="13.715679231809213"><ele>234.0</ele><time>2026-04-05T09:59:52Z</time></trkpt><trkpt lat="42.826702781859105" lon="13.715654967061642"><ele>234.0</ele><time>2026-04-05T09:59:53Z</time></trkpt><trkpt lat="42.82657810626933" lon="13.715624806143559"><ele>234.0</ele><time>2026-04-05T09:59:54Z</time></trkpt><trkpt lat="42.82645747943443" lon="13.715594449082321"><ele>234.66666666666666</ele><time>2026-04-05T09:59:55Z</time></trkpt><trkpt lat="42.82633989512636" lon="13.715562289492441"><ele>235.33333333333331</ele><time>2026-04-05T09:59:56Z</time></trkpt><trkpt lat="42.82623644005402" lon="13.715528692158735"><ele>236.0</ele><time>2026-04-05T09:59:57Z</time></trkpt><trkpt lat="42.82615188607151" lon="13.715501228264879"><ele>236.66666666666666</ele><time>2026-04-05T09:59:58Z</time></trkpt><trkpt lat="42.82608941399239" lon="13.71547518902131"><ele>237.33333333333331</ele><time>2026-04-05T09:59:59Z</time></trkpt><trkpt lat="42.8260262443711" lon="13.71543209075319"><ele>238.0</ele><time>2026-04-05T10:00:01Z</time></trkpt><trkpt lat="42.82597007342204" lon="13.71538756724167"><ele>238.33333333333331</ele><time>2026-04-05T10:00:10Z</time></trkpt><trkpt lat="42.82591522803643" lon="13.715341121343869"><ele>238.66666666666666</ele><time>2026-04-05T10:00:15Z</time></trkpt><trkpt lat="42.82584565124926" lon="13.715279183347368"><ele>239.0</ele><time>2026-04-05T10:00:17Z</time></trkpt><trkpt lat="42.825770197460166" lon="13.715330692483183"><ele>239.33333333333331</ele><time>2026-04-05T10:00:18Z</time></trkpt><trkpt lat="42.825665844001584" lon="13.71533190491779"><ele>239.66666666666666</ele><time>2026-04-05T10:00:20Z</time></trkpt><trkpt lat="42.82560135023701" lon="13.715328572077393"><ele>240.0</ele><time>2026-04-05T10:00:21Z</time></trkpt><trkpt lat="42.82547686463565" lon="13.715318557254726"><ele>240.0</ele><time>2026-04-05T10:00:23Z</time></trkpt><trkpt lat="42.825395726853536" lon="13.715313696552636"><ele>240.0</ele><time>2026-04-05T10:00:24Z</time></trkpt><trkpt lat="42.82530363938944" lon="13.715300107466257"><ele>240.0</ele><time>2026-04-05T10:00:25Z</time></trkpt><trkpt lat="42.82520421748791" lon="13.715272022929254"><ele>240.0</ele><time>2026-04-05T10:00:26Z</time></trkpt><trkpt lat="42.82515034093015" lon="13.715129411175615"><ele>240.0</ele><time>2026-04-05T10:00:27Z</time></trkpt><trkpt lat="42.8250550832437" lon="13.715039462429813"><ele>240.75</ele><time>2026-04-05T10:00:28Z</time></trkpt><trkpt lat="42.82488823430866" lon="13.71491995336056"><ele>241.5</ele><time>2026-04-05T10:00:30Z</time></trkpt><trkpt lat="42.82480038523202" lon="13.714825531116066"><ele>242.25</ele><time>2026-04-05T10:00:31Z</time></trkpt><trkpt lat="42.82469807179094" lon="13.714768906068771"><ele>243.0</ele><time>2026-04-05T10:00:32Z</time></trkpt><trkpt lat="42.82460146230354" lon="13.714692622269563"><ele>243.0</ele><time>2026-04-05T10:00:33Z</time></trkpt><trkpt lat="42.82452160859935" lon="13.714623999064887"><ele>243.0</ele><time>2026-04-05T10:00:34Z</time></trkpt><trkpt lat="42.824448750760695" lon="13.714566558526814"><ele>243.0</ele><time>2026-04-05T10:00:35Z</time></trkpt><trkpt lat="42.82438261672655" lon="13.714509188995887"><ele>243.0</ele><time>2026-04-05T10:00:36Z</time></trkpt><trkpt lat="42.82430206448239" lon="13.714428863978718"><ele>243.0</ele><time>2026-04-05T10:00:37Z</time></trkpt><trkpt lat="42.82422175830439" lon="13.714333996095743"><ele>243.25</ele><time>2026-04-05T10:00:38Z</time></trkpt><trkpt lat="42.82413368717504" lon="13.714222667770535"><ele>243.5</ele><time>2026-04-05T10:00:39Z</time></trkpt><trkpt lat="42.82404569867508" lon="13.714108000444352"><ele>243.75</ele><time>2026-04-05T10:00:40Z</time></trkpt><trkpt lat="42.82395566451264" lon="13.713989702771965"><ele>244.0</ele><time>2026-04-05T10:00:41Z</time></trkpt><trkpt lat="42.82386917772522" lon="13.71388406675721"><ele>244.0</ele><time>2026-04-05T10:00:42Z</time></trkpt><trkpt lat="42.82377574369859" lon="13.713775084318332"><ele>244.0</ele><time>2026-04-05T10:00:43Z</time></trkpt><trkpt lat="42.82367829578039" lon="13.713662584787556"><ele>244.0</ele><time>2026-04-05T10:00:44Z</time></trkpt><trkpt lat="42.82357392932441" lon="13.713545157053792"><ele>244.0</ele><time>2026-04-05T10:00:45Z</time></trkpt><trkpt lat="42.82347368632944" lon="13.713416648522376"><ele>244.5</ele><time>2026-04-05T10:00:46Z</time></trkpt><trkpt lat="42.823376348827836" lon="13.713289343816399"><ele>245.0</ele><time>2026-04-05T10:00:47Z</time></trkpt><trkpt lat="42.823269060103215" lon="13.713184942490262"><ele>245.5</ele><time>2026-04-05T10:00:48Z</time></trkpt><trkpt lat="42.82314593714756" lon="13.71309868930455"><ele>246.0</ele><time>2026-04-05T10:00:49Z</time></trkpt><trkpt lat="42.82301429084607" lon="13.713029231472632"><ele>246.0</ele><time>2026-04-05T10:00:50Z</time></trkpt><trkpt lat="42.82287566294111" lon="13.712981196597458"><ele>246.0</ele><time>2026-04-05T10:00:51Z</time></trkpt><trkpt lat="42.82274833996228" lon="13.712904844708378"><ele>246.0</ele><time>2026-04-05T10:00:52Z</time></trkpt><trkpt lat="42.82261942737554" lon="13.712822942251858"><ele>246.0</ele><time>2026-04-05T10:00:53Z</time></trkpt><trkpt lat="42.8224870260145" lon="13.712745706280879"><ele>246.33333333333331</ele><time>2026-04-05T10:00:54Z</time></trkpt><trkpt lat="42.82234945989934" lon="13.712668534580393"><ele>246.66666666666666</ele><time>2026-04-05T10:00:55Z</time></trkpt><trkpt lat="42.822206001758026" lon="13.712598352302008"><ele>247.0</ele><time>2026-04-05T10:00:56Z</time></trkpt><trkpt lat="42.822067575217886" lon="13.712520676541834"><ele>247.0</ele><time>2026-04-05T10:00:57Z</time></trkpt><trkpt lat="42.821941945240034" lon="13.712449166339491"><ele>247.0</ele><time>2026-04-05T10:00:58Z</time></trkpt><trkpt lat="42.82183113594451" lon="13.712386559949573"><ele>247.0</ele><time>2026-04-05T10:00:59Z</time></trkpt><trkpt lat="42.82173482555981" lon="13.712329268023014"><ele>247.0</ele><time>2026-04-05T10:01:00Z</time></trkpt><trkpt lat="42.82163545796895" lon="13.712271669672065"><ele>247.5</ele><time>2026-04-05T10:01:01Z</time></trkpt><trkpt lat="42.82151650400334" lon="13.712206769467695"><ele>248.0</ele><time>2026-04-05T10:01:02Z</time></trkpt><trkpt lat="42.82138148777039" lon="13.712134031986944"><ele>248.5</ele><time>2026-04-05T10:01:03Z</time></trkpt><trkpt lat="42.821242898295864" lon="13.712056219696855"><ele>249.0</ele><time>2026-04-05T10:01:04Z</time></trkpt><trkpt lat="42.8210979149703" lon="13.711973354981367"><ele>249.66666666666669</ele><time>2026-04-05T10:01:05Z</time></trkpt><trkpt lat="42.820942899261375" lon="13.711886974329033"><ele>250.33333333333334</ele><time>2026-04-05T10:01:06Z</time></trkpt><trkpt lat="42.82078388355149" lon="13.711798354256231"><ele>251.0</ele><time>2026-04-05T10:01:07Z</time></trkpt><trkpt lat="42.820621793332585" lon="13.711706300291215"><ele>251.0</ele><time>2026-04-05T10:01:08Z</time></trkpt><trkpt lat="42.8204565248299" lon="13.711616878403309"><ele>251.0</ele><time>2026-04-05T10:01:09Z</time></trkpt><trkpt lat="42.82029133585621" lon="13.711525145306869"><ele>251.0</ele><time>2026-04-05T10:01:10Z</time></trkpt><trkpt lat="42.82012912482675" lon="13.711433826146582"><ele>251.33333333333334</ele><time>2026-04-05T10:01:11Z</time></trkpt><trkpt lat="42.819977297692354" lon="13.711352486039415"><ele>251.66666666666669</ele><time>2026-04-05T10:01:12Z</time></trkpt><trkpt lat="42.819834933153864" lon="13.71127675641879"><ele>252.0</ele><time>2026-04-05T10:01:13Z</time></trkpt><trkpt lat="42.81970562128975" lon="13.71120914815007"><ele>252.0</ele><time>2026-04-05T10:01:14Z</time></trkpt><trkpt lat="42.81957649420949" lon="13.711138923572184"><ele>252.0</ele><time>2026-04-05T10:01:15Z</time></trkpt><trkpt lat="42.819458850418975" lon="13.711079353069794"><ele>252.0</ele><time>2026-04-05T10:01:16Z</time></trkpt><trkpt lat="42.819339407615686" lon="13.711016796051332"><ele>252.0</ele><time>2026-04-05T10:01:17Z</time></trkpt><trkpt lat="42.81920203641986" lon="13.71095246088194"><ele>252.66666666666669</ele><time>2026-04-05T10:01:18Z</time></trkpt><trkpt lat="42.81906447556723" lon="13.710886003983154"><ele>253.33333333333334</ele><time>2026-04-05T10:01:19Z</time></trkpt><trkpt lat="42.818922880726966" lon="13.710816812180845"><ele>254.0</ele><time>2026-04-05T10:01:20Z</time></trkpt><trkpt lat="42.81877651227342" lon="13.710743943875897"><ele>254.0</ele><time>2026-04-05T10:01:21Z</time></trkpt><trkpt lat="42.8186279110833" lon="13.710674386597155"><ele>254.0</ele><time>2026-04-05T10:01:22Z</time></trkpt><trkpt lat="42.818478160121686" lon="13.710596916279936"><ele>254.0</ele><time>2026-04-05T10:01:23Z</time></trkpt><trkpt lat="42.81832440640383" lon="13.710521983829265"><ele>253.5</ele><time>2026-04-05T10:01:24Z</time></trkpt><trkpt lat="42.81817845580514" lon="13.710453554807257"><ele>253.0</ele><time>2026-04-05T10:01:25Z</time></trkpt><trkpt lat="42.81803847013502" lon="13.71038566214362"><ele>252.5</ele><time>2026-04-05T10:01:26Z</time></trkpt><trkpt lat="42.81791609852658" lon="13.710327300878024"><ele>252.0</ele><time>2026-04-05T10:01:27Z</time></trkpt><trkpt lat="42.817797920905484" lon="13.710274739479976"><ele>252.75</ele><time>2026-04-05T10:01:28Z</time></trkpt><trkpt lat="42.81769214141468" lon="13.710203003220855"><ele>253.5</ele><time>2026-04-05T10:01:29Z</time></trkpt><trkpt lat="42.817591551986624" lon="13.710113831823056"><ele>254.25</ele><time>2026-04-05T10:01:30Z</time></trkpt><trkpt lat="42.8174988793052" lon="13.709990811612048"><ele>255.0</ele><time>2026-04-05T10:01:31Z</time></trkpt><trkpt lat="42.8174050440737" lon="13.709839343605934"><ele>255.66666666666669</ele><time>2026-04-05T10:01:32Z</time></trkpt><trkpt lat="42.817317292366745" lon="13.709671999412464"><ele>256.33333333333337</ele><time>2026-04-05T10:01:33Z</time></trkpt><trkpt lat="42.817231757346974" lon="13.709493135420592"><ele>257.0</ele><time>2026-04-05T10:01:34Z</time></trkpt><trkpt lat="42.81714526444522" lon="13.70931792396204"><ele>257.5</ele><time>2026-04-05T10:01:35Z</time></trkpt><trkpt lat="42.817061857905436" lon="13.709146672022735"><ele>258.0</ele><time>2026-04-05T10:01:36Z</time></trkpt><trkpt lat="42.81698496158745" lon="13.708976490922762"><ele>258.5</ele><time>2026-04-05T10:01:37Z</time></trkpt><trkpt lat="42.81690548648966" lon="13.70881054814438"><ele>259.0</ele><time>2026-04-05T10:01:38Z</time></trkpt><trkpt lat="42.81682565105978" lon="13.708635780443421"><ele>259.3333333333333</ele><time>2026-04-05T10:01:39Z</time></trkpt><trkpt lat="42.81673841668972" lon="13.70846540151545"><ele>259.6666666666667</ele><time>2026-04-05T10:01:40Z</time></trkpt><trkpt lat="42.81665450465948" lon="13.708288148131356"><ele>260.0</ele><time>2026-04-05T10:01:41Z</time></trkpt><trkpt lat="42.81657542220634" lon="13.708106807535016"><ele>260.0</ele><time>2026-04-05T10:01:42Z</time></trkpt><trkpt lat="42.81650164072121" lon="13.707934291659118"><ele>260.0</ele><time>2026-04-05T10:01:43Z</time></trkpt><trkpt lat="42.81642933277052" lon="13.707779919727894"><ele>260.0</ele><time>2026-04-05T10:01:44Z</time></trkpt><trkpt lat="42.81636589023912" lon="13.707649756839078"><ele>260.0</ele><time>2026-04-05T10:01:45Z</time></trkpt><trkpt lat="42.816313645496216" lon="13.70753883699928"><ele>260.5</ele><time>2026-04-05T10:01:46Z</time></trkpt><trkpt lat="42.81626558007575" lon="13.707437749683372"><ele>261.0</ele><time>2026-04-05T10:01:47Z</time></trkpt><trkpt lat="42.81622476212475" lon="13.707352077536765"><ele>261.5</ele><time>2026-04-05T10:01:48Z</time></trkpt><trkpt lat="42.816184684417074" lon="13.707264406408505"><ele>262.0</ele><time>2026-04-05T10:01:49Z</time></trkpt><trkpt lat="42.816133985719034" lon="13.707167954610416"><ele>262.5</ele><time>2026-04-05T10:01:50Z</time></trkpt><trkpt lat="42.81607972631262" lon="13.707054354709145"><ele>263.0</ele><time>2026-04-05T10:01:51Z</time></trkpt><trkpt lat="42.816023385692425" lon="13.706927156707247"><ele>262.2</ele><time>2026-04-05T10:01:52Z</time></trkpt><trkpt lat="42.815968832966846" lon="13.706801463259147"><ele>261.4</ele><time>2026-04-05T10:01:53Z</time></trkpt><trkpt lat="42.81592909675562" lon="13.70667992017859"><ele>260.59999999999997</ele><time>2026-04-05T10:01:54Z</time></trkpt><trkpt lat="42.81590436950233" lon="13.706541204207253"><ele>259.8</ele><time>2026-04-05T10:01:55Z</time></trkpt><trkpt lat="42.81590482276716" lon="13.706376361133763"><ele>259.0</ele><time>2026-04-05T10:01:56.001Z</time></trkpt><trkpt lat="42.81590620409024" lon="13.706194380974988"><ele>258.0</ele><time>2026-04-05T10:01:57.001Z</time></trkpt><trkpt lat="42.815906524233625" lon="13.706005255674588"><ele>257.0</ele><time>2026-04-05T10:01:58.001Z</time></trkpt><trkpt lat="42.81591030965503" lon="13.705813089686982"><ele>256.0</ele><time>2026-04-05T10:01:59.001Z</time></trkpt><trkpt lat="42.81591729449661" lon="13.705642794271663"><ele>255.0</ele><time>2026-04-05T10:02:00.001Z</time></trkpt><trkpt lat="42.8159257738369" lon="13.705503898069004"><ele>255.0</ele><time>2026-04-05T10:02:01.001Z</time></trkpt><trkpt lat="42.815928859317836" lon="13.70539150727767"><ele>255.0</ele><time>2026-04-05T10:02:02.001Z</time></trkpt><trkpt lat="42.81592218375123" lon="13.705295371811035"><ele>255.0</ele><time>2026-04-05T10:02:03Z</time></trkpt><trkpt lat="42.81583857022436" lon="13.705177665288122"><ele>255.0</ele><time>2026-04-05T10:02:05Z</time></trkpt><trkpt lat="42.81576847707591" lon="13.70517603379211"><ele>255.0</ele><time>2026-04-05T10:02:06Z</time></trkpt><trkpt lat="42.815702295723156" lon="13.705220210998014"><ele>255.0</ele><time>2026-04-05T10:02:07Z</time></trkpt><trkpt lat="42.815670427369064" lon="13.70531974275856"><ele>255.0</ele><time>2026-04-05T10:02:08Z</time></trkpt><trkpt lat="42.81567001541129" lon="13.705457346007336"><ele>255.0</ele><time>2026-04-05T10:02:09Z</time></trkpt><trkpt lat="42.81569518490636" lon="13.705606665542746"><ele>255.0</ele><time>2026-04-05T10:02:10Z</time></trkpt><trkpt lat="42.81571473859862" lon="13.705780873074143"><ele>255.0</ele><time>2026-04-05T10:02:11Z</time></trkpt><trkpt lat="42.81570070602816" lon="13.70597033389485"><ele>256.3333333333333</ele><time>2026-04-05T10:02:12Z</time></trkpt><trkpt lat="42.815645364704466" lon="13.706160516612785"><ele>257.66666666666663</ele><time>2026-04-05T10:02:13Z</time></trkpt><trkpt lat="42.81557582691149" lon="13.706341430228239"><ele>259.0</ele><time>2026-04-05T10:02:14Z</time></trkpt><trkpt lat="42.815489473592294" lon="13.706512136506863"><ele>259.0</ele><time>2026-04-05T10:02:15Z</time></trkpt><trkpt lat="42.8153973048868" lon="13.706667787746122"><ele>259.0</ele><time>2026-04-05T10:02:16Z</time></trkpt><trkpt lat="42.815288021854066" lon="13.706807508284449"><ele>259.0</ele><time>2026-04-05T10:02:17Z</time></trkpt><trkpt lat="42.81515906091618" lon="13.706927566474112"><ele>257.0</ele><time>2026-04-05T10:02:18Z</time></trkpt><trkpt lat="42.815023606691135" lon="13.70703869525932"><ele>255.0</ele><time>2026-04-05T10:02:19Z</time></trkpt><trkpt lat="42.81487567839872" lon="13.707149274736665"><ele>253.0</ele><time>2026-04-05T10:02:20Z</time></trkpt><trkpt lat="42.81472267435075" lon="13.70727058605246"><ele>253.0</ele><time>2026-04-05T10:02:21Z</time></trkpt><trkpt lat="42.81457110244055" lon="13.707410021052125"><ele>253.0</ele><time>2026-04-05T10:02:22Z</time></trkpt><trkpt lat="42.814426924832325" lon="13.707546115592008"><ele>253.0</ele><time>2026-04-05T10:02:23Z</time></trkpt><trkpt lat="42.814290849010845" lon="13.707675632792903"><ele>251.5</ele><time>2026-04-05T10:02:24Z</time></trkpt><trkpt lat="42.814160356900494" lon="13.707791248859209"><ele>250.0</ele><time>2026-04-05T10:02:25Z</time></trkpt><trkpt lat="42.814034024727256" lon="13.707894942922273"><ele>248.5</ele><time>2026-04-05T10:02:26Z</time></trkpt><trkpt lat="42.81390289290226" lon="13.7079632381839"><ele>247.0</ele><time>2026-04-05T10:02:27Z</time></trkpt><trkpt lat="42.81376824943114" lon="13.708010310779404"><ele>247.0</ele><time>2026-04-05T10:02:28Z</time></trkpt><trkpt lat="42.813637768216616" lon="13.70805480724964"><ele>247.0</ele><time>2026-04-05T10:02:29Z</time></trkpt><trkpt lat="42.8135218553542" lon="13.708082446481402"><ele>247.0</ele><time>2026-04-05T10:02:30Z</time></trkpt><trkpt lat="42.81341124292422" lon="13.708083291323064"><ele>247.0</ele><time>2026-04-05T10:02:31Z</time></trkpt><trkpt lat="42.81331053076697" lon="13.70805250877753"><ele>244.25</ele><time>2026-04-05T10:02:32Z</time></trkpt><trkpt lat="42.813210303106" lon="13.707996759133565"><ele>241.5</ele><time>2026-04-05T10:02:33Z</time></trkpt><trkpt lat="42.813111443896595" lon="13.707905609000115"><ele>238.75</ele><time>2026-04-05T10:02:34Z</time></trkpt><trkpt lat="42.81300811480698" lon="13.707787700033835"><ele>236.0</ele><time>2026-04-05T10:02:35Z</time></trkpt><trkpt lat="42.81288984709847" lon="13.707662354196781"><ele>232.33333333333334</ele><time>2026-04-05T10:02:36Z</time></trkpt><trkpt lat="42.81275850537045" lon="13.707527007121456"><ele>228.66666666666669</ele><time>2026-04-05T10:02:37Z</time></trkpt><trkpt lat="42.81262663253941" lon="13.707399010286117"><ele>225.0</ele><time>2026-04-05T10:02:38Z</time></trkpt><trkpt lat="42.81250702291999" lon="13.707284965417836"><ele>225.0</ele><time>2026-04-05T10:02:39Z</time></trkpt><trkpt lat="42.81239288059233" lon="13.707175389324458"><ele>225.0</ele><time>2026-04-05T10:02:40Z</time></trkpt><trkpt lat="42.81228691200335" lon="13.707072427901034"><ele>225.0</ele><time>2026-04-05T10:02:41Z</time></trkpt><trkpt lat="42.812193798791114" lon="13.7069783246131"><ele>225.0</ele><time>2026-04-05T10:02:42Z</time></trkpt><trkpt lat="42.81210763666902" lon="13.706894963347404"><ele>225.8</ele><time>2026-04-05T10:02:43Z</time></trkpt><trkpt lat="42.81202227841728" lon="13.706843560135196"><ele>226.6</ele><time>2026-04-05T10:02:44Z</time></trkpt><trkpt lat="42.81192536988443" lon="13.70684367607676"><ele>227.39999999999998</ele><time>2026-04-05T10:02:45Z</time></trkpt><trkpt lat="42.81182283318151" lon="13.706885273625186"><ele>228.2</ele><time>2026-04-05T10:02:46Z</time></trkpt><trkpt lat="42.811725205219076" lon="13.706977598688093"><ele>229.0</ele><time>2026-04-05T10:02:47Z</time></trkpt><trkpt lat="42.81161821375179" lon="13.70711084937171"><ele>229.0</ele><time>2026-04-05T10:02:48Z</time></trkpt><trkpt lat="42.811487597745014" lon="13.707269215106576"><ele>229.0</ele><time>2026-04-05T10:02:49Z</time></trkpt><trkpt lat="42.81133996734416" lon="13.707433059084819"><ele>229.0</ele><time>2026-04-05T10:02:50Z</time></trkpt><trkpt lat="42.8111838665704" lon="13.707602531600866"><ele>231.0</ele><time>2026-04-05T10:02:51Z</time></trkpt><trkpt lat="42.811038031276496" lon="13.707786423834905"><ele>233.0</ele><time>2026-04-05T10:02:52Z</time></trkpt><trkpt lat="42.81089810688519" lon="13.707943527132924"><ele>235.0</ele><time>2026-04-05T10:02:53Z</time></trkpt><trkpt lat="42.81079207314493" lon="13.708057727834039"><ele>235.0</ele><time>2026-04-05T10:02:54Z</time></trkpt><trkpt lat="42.81070352673847" lon="13.708118478140074"><ele>235.0</ele><time>2026-04-05T10:02:55Z</time></trkpt><trkpt lat="42.810623390757236" lon="13.708087420449951"><ele>235.0</ele><time>2026-04-05T10:02:56Z</time></trkpt><trkpt lat="42.81054031703054" lon="13.708013215339184"><ele>235.0</ele><time>2026-04-05T10:02:57Z</time></trkpt><trkpt lat="42.81046067178321" lon="13.707896898806132"><ele>235.0</ele><time>2026-04-05T10:02:58Z</time></trkpt><trkpt lat="42.810379048477536" lon="13.707763287707532"><ele>238.5</ele><time>2026-04-05T10:02:59Z</time></trkpt><trkpt lat="42.8102630192783" lon="13.70774005831486"><ele>242.0</ele><time>2026-04-05T10:03:00Z</time></trkpt><trkpt lat="42.81015207801785" lon="13.707773150425215"><ele>245.5</ele><time>2026-04-05T10:03:01Z</time></trkpt><trkpt lat="42.810058472411875" lon="13.707855682134921"><ele>249.0</ele><time>2026-04-05T10:03:02Z</time></trkpt><trkpt lat="42.80998970183502" lon="13.708001396076332"><ele>249.75</ele><time>2026-04-05T10:03:03Z</time></trkpt><trkpt lat="42.80994289355004" lon="13.708179366991654"><ele>250.5</ele><time>2026-04-05T10:03:04Z</time></trkpt><trkpt lat="42.809928539336084" lon="13.708363174862665"><ele>251.25</ele><time>2026-04-05T10:03:05Z</time></trkpt><trkpt lat="42.809895693563" lon="13.708504780332534"><ele>252.0</ele><time>2026-04-05T10:03:06Z</time></trkpt><trkpt lat="42.809825459799065" lon="13.708598260233959"><ele>252.0</ele><time>2026-04-05T10:03:07Z</time></trkpt><trkpt lat="42.809731848547365" lon="13.708636002168845"><ele>252.0</ele><time>2026-04-05T10:03:08Z</time></trkpt><trkpt lat="42.80963812583142" lon="13.708605530241913"><ele>252.0</ele><time>2026-04-05T10:03:09Z</time></trkpt><trkpt lat="42.8095618615017" lon="13.70851645808578"><ele>252.0</ele><time>2026-04-05T10:03:10Z</time></trkpt><trkpt lat="42.80954552478735" lon="13.7084114222174"><ele>252.0</ele><time>2026-04-05T10:03:11Z</time></trkpt><trkpt lat="42.809554279954114" lon="13.70827426264704"><ele>252.0</ele><time>2026-04-05T10:03:12Z</time></trkpt><trkpt lat="42.809587136850595" lon="13.7081147657738"><ele>252.0</ele><time>2026-04-05T10:03:13Z</time></trkpt><trkpt lat="42.80959204356411" lon="13.707994947919849"><ele>252.0</ele><time>2026-04-05T10:03:14Z</time></trkpt><trkpt lat="42.80962174388721" lon="13.707777289429307"><ele>252.0</ele><time>2026-04-05T10:03:15Z</time></trkpt><trkpt lat="42.809673592685485" lon="13.70754081531934"><ele>254.33333333333331</ele><time>2026-04-05T10:03:16Z</time></trkpt><trkpt lat="42.80972248936946" lon="13.707290721448546"><ele>256.66666666666663</ele><time>2026-04-05T10:03:17Z</time></trkpt><trkpt lat="42.80976726282584" lon="13.707038667254754"><ele>259.0</ele><time>2026-04-05T10:03:18Z</time></trkpt><trkpt lat="42.8098129464267" lon="13.706793298671196"><ele>259.66666666666663</ele><time>2026-04-05T10:03:19Z</time></trkpt><trkpt lat="42.80983752349749" lon="13.706552532560615"><ele>260.3333333333333</ele><time>2026-04-05T10:03:20Z</time></trkpt><trkpt lat="42.80980729231589" lon="13.706311374246742"><ele>261.0</ele><time>2026-04-05T10:03:21Z</time></trkpt><trkpt lat="42.80974870605839" lon="13.706075875898907"><ele>263.0</ele><time>2026-04-05T10:03:22Z</time></trkpt><trkpt lat="42.809690152002766" lon="13.705827851855542"><ele>265.0</ele><time>2026-04-05T10:03:23Z</time></trkpt><trkpt lat="42.809600907629694" lon="13.70557155278102"><ele>267.0</ele><time>2026-04-05T10:03:24Z</time></trkpt><trkpt lat="42.809519852822895" lon="13.705308916453122"><ele>267.6666666666667</ele><time>2026-04-05T10:03:25Z</time></trkpt><trkpt lat="42.80944249482416" lon="13.705047192336806"><ele>268.33333333333337</ele><time>2026-04-05T10:03:26Z</time></trkpt><trkpt lat="42.80937232952706" lon="13.704790616753366"><ele>269.0</ele><time>2026-04-05T10:03:27Z</time></trkpt><trkpt lat="42.80930548776386" lon="13.704530357681374"><ele>271.0</ele><time>2026-04-05T10:03:28Z</time></trkpt><trkpt lat="42.80924061233876" lon="13.70428950094113"><ele>273.0</ele><time>2026-04-05T10:03:29Z</time></trkpt><trkpt lat="42.80917778485464" lon="13.704073225803981"><ele>275.0</ele><time>2026-04-05T10:03:30Z</time></trkpt><trkpt lat="42.80909225321532" lon="13.703871475920682"><ele>275.0</ele><time>2026-04-05T10:03:31Z</time></trkpt><trkpt lat="42.80896422820446" lon="13.703701305200637"><ele>275.0</ele><time>2026-04-05T10:03:32Z</time></trkpt><trkpt lat="42.80883479027282" lon="13.703511539200262"><ele>275.0</ele><time>2026-04-05T10:03:33Z</time></trkpt><trkpt lat="42.80868962171733" lon="13.703342972669981"><ele>275.33333333333337</ele><time>2026-04-05T10:03:34Z</time></trkpt><trkpt lat="42.80854272087178" lon="13.703158124245588"><ele>275.6666666666667</ele><time>2026-04-05T10:03:35Z</time></trkpt><trkpt lat="42.80839314597262" lon="13.702970393107757"><ele>276.0</ele><time>2026-04-05T10:03:36Z</time></trkpt><trkpt lat="42.80823582945636" lon="13.702775387186533"><ele>278.6666666666667</ele><time>2026-04-05T10:03:37Z</time></trkpt><trkpt lat="42.80807843016601" lon="13.702572636069961"><ele>281.33333333333337</ele><time>2026-04-05T10:03:38Z</time></trkpt><trkpt lat="42.807920890449424" lon="13.702357602077937"><ele>284.0</ele><time>2026-04-05T10:03:39Z</time></trkpt><trkpt lat="42.807761378704086" lon="13.7021352219121"><ele>283.5</ele><time>2026-04-05T10:03:40Z</time></trkpt><trkpt lat="42.80760793733829" lon="13.701902709303848"><ele>283.0</ele><time>2026-04-05T10:03:41Z</time></trkpt><trkpt lat="42.80744951625938" lon="13.701657284239907"><ele>283.0</ele><time>2026-04-05T10:03:42Z</time></trkpt><trkpt lat="42.807285319891484" lon="13.701409824955073"><ele>283.0</ele><time>2026-04-05T10:03:43Z</time></trkpt><trkpt lat="42.80711687082631" lon="13.701166134767618"><ele>285.0</ele><time>2026-04-05T10:03:44Z</time></trkpt><trkpt lat="42.80695228046549" lon="13.700926730978006"><ele>287.0</ele><time>2026-04-05T10:03:45Z</time></trkpt><trkpt lat="42.80679691017216" lon="13.700696670672867"><ele>287.0</ele><time>2026-04-05T10:03:46Z</time></trkpt><trkpt lat="42.80665938038151" lon="13.700498478274403"><ele>287.0</ele><time>2026-04-05T10:03:47Z</time></trkpt><trkpt lat="42.80654183242099" lon="13.700337583240904"><ele>287.0</ele><time>2026-04-05T10:03:48Z</time></trkpt><trkpt lat="42.80642463365741" lon="13.700213307095039"><ele>288.0</ele><time>2026-04-05T10:03:49Z</time></trkpt><trkpt lat="42.80627565328065" lon="13.700116554342213"><ele>289.0</ele><time>2026-04-05T10:03:50Z</time></trkpt><trkpt lat="42.80610842630939" lon="13.700033490254972"><ele>290.0</ele><time>2026-04-05T10:03:51Z</time></trkpt><trkpt lat="42.805949664036845" lon="13.699959040664222"><ele>290.0</ele><time>2026-04-05T10:03:52Z</time></trkpt><trkpt lat="42.80581696231003" lon="13.699849682211743"><ele>290.0</ele><time>2026-04-05T10:03:53Z</time></trkpt><trkpt lat="42.80569128671264" lon="13.699706467644836"><ele>290.0</ele><time>2026-04-05T10:03:54Z</time></trkpt><trkpt lat="42.8055657921871" lon="13.69953512381803"><ele>291.33333333333337</ele><time>2026-04-05T10:03:55Z</time></trkpt><trkpt lat="42.80543185730418" lon="13.699357597346053"><ele>292.6666666666667</ele><time>2026-04-05T10:03:56Z</time></trkpt><trkpt lat="42.80529439235499" lon="13.699181481177774"><ele>294.0</ele><time>2026-04-05T10:03:57Z</time></trkpt><trkpt lat="42.80515822798855" lon="13.699003153978348"><ele>294.0</ele><time>2026-04-05T10:03:58Z</time></trkpt><trkpt lat="42.805023327035464" lon="13.698828205570285"><ele>294.0</ele><time>2026-04-05T10:03:59Z</time></trkpt><trkpt lat="42.804886897958205" lon="13.698650057187754"><ele>294.0</ele><time>2026-04-05T10:04:00Z</time></trkpt><trkpt lat="42.804747388636954" lon="13.698466823085978"><ele>295.3333333333333</ele><time>2026-04-05T10:04:01Z</time></trkpt><trkpt lat="42.804603328447925" lon="13.698282140593777"><ele>296.66666666666663</ele><time>2026-04-05T10:04:02.001Z</time></trkpt><trkpt lat="42.804454445059" lon="13.698094203921722"><ele>298.0</ele><time>2026-04-05T10:04:03.001Z</time></trkpt><trkpt lat="42.80430543458156" lon="13.697903050122893"><ele>300.3333333333333</ele><time>2026-04-05T10:04:04.001Z</time></trkpt><trkpt lat="42.80415563327605" lon="13.697712981405406"><ele>302.6666666666667</ele><time>2026-04-05T10:04:05.001Z</time></trkpt><trkpt lat="42.8040076784353" lon="13.697523477289183"><ele>305.0</ele><time>2026-04-05T10:04:06.001Z</time></trkpt><trkpt lat="42.80387111964738" lon="13.697349857210407"><ele>305.0</ele><time>2026-04-05T10:04:07.001Z</time></trkpt><trkpt lat="42.803756238715835" lon="13.697202141267836"><ele>305.0</ele><time>2026-04-05T10:04:08.001Z</time></trkpt><trkpt lat="42.80365785119107" lon="13.697061045106077"><ele>305.0</ele><time>2026-04-05T10:04:09.001Z</time></trkpt><trkpt lat="42.80358056321546" lon="13.696900213987641"><ele>305.0</ele><time>2026-04-05T10:04:10.001Z</time></trkpt><trkpt lat="42.80347571512127" lon="13.69676311501324"><ele>305.0</ele><time>2026-04-05T10:04:11.001Z</time></trkpt><trkpt lat="42.803481209834885" lon="13.696496752645722"><ele>305.0</ele><time>2026-04-05T10:04:12.001Z</time></trkpt><trkpt lat="42.80346108062673" lon="13.69626629508925"><ele>305.0</ele><time>2026-04-05T10:04:13.001Z</time></trkpt><trkpt lat="42.80343866267035" lon="13.696020366693455"><ele>307.0</ele><time>2026-04-05T10:04:14.001Z</time></trkpt><trkpt lat="42.8034106741789" lon="13.695760191771289"><ele>309.0</ele><time>2026-04-05T10:04:15.001Z</time></trkpt><trkpt lat="42.80337579161433" lon="13.695501325133936"><ele>311.0</ele><time>2026-04-05T10:04:16.001Z</time></trkpt><trkpt lat="42.80333220742058" lon="13.695262056407062"><ele>312.6666666666667</ele><time>2026-04-05T10:04:17.001Z</time></trkpt><trkpt lat="42.80327030265744" lon="13.69505067932272"><ele>314.3333333333333</ele><time>2026-04-05T10:04:18.001Z</time></trkpt><trkpt lat="42.80317859951681" lon="13.69485124554896"><ele>316.0</ele><time>2026-04-05T10:04:19Z</time></trkpt><trkpt lat="42.803057288993266" lon="13.69465935840008"><ele>316.0</ele><time>2026-04-05T10:04:20Z</time></trkpt><trkpt lat="42.80291261380513" lon="13.694469053713124"><ele>316.0</ele><time>2026-04-05T10:04:21Z</time></trkpt><trkpt lat="42.802759234634" lon="13.694264475364124"><ele>316.0</ele><time>2026-04-05T10:04:22Z</time></trkpt><trkpt lat="42.80261421967003" lon="13.69404397877146"><ele>315.3333333333333</ele><time>2026-04-05T10:04:23Z</time></trkpt><trkpt lat="42.80247556173142" lon="13.693815165350566"><ele>314.6666666666667</ele><time>2026-04-05T10:04:24Z</time></trkpt><trkpt lat="42.802358704221426" lon="13.69357688659277"><ele>314.0</ele><time>2026-04-05T10:04:25Z</time></trkpt><trkpt lat="42.80225656854602" lon="13.69332494608081"><ele>316.0</ele><time>2026-04-05T10:04:26Z</time></trkpt><trkpt lat="42.80216284177432" lon="13.693074860819527"><ele>318.0</ele><time>2026-04-05T10:04:27Z</time></trkpt><trkpt lat="42.802070790118286" lon="13.69283417280565"><ele>320.0</ele><time>2026-04-05T10:04:28Z</time></trkpt><trkpt lat="42.80197984730494" lon="13.692600452151535"><ele>320.33333333333337</ele><time>2026-04-05T10:04:29Z</time></trkpt><trkpt lat="42.80189065297887" lon="13.69236158447179"><ele>320.6666666666667</ele><time>2026-04-05T10:04:30Z</time></trkpt><trkpt lat="42.801798771307716" lon="13.692114352836196"><ele>321.0</ele><time>2026-04-05T10:04:31Z</time></trkpt><trkpt lat="42.80170384117949" lon="13.691865330639763"><ele>323.3333333333333</ele><time>2026-04-05T10:04:32Z</time></trkpt><trkpt lat="42.80160849168954" lon="13.691617701580745"><ele>325.66666666666663</ele><time>2026-04-05T10:04:33Z</time></trkpt><trkpt lat="42.80151402416234" lon="13.691374926354644"><ele>328.0</ele><time>2026-04-05T10:04:34Z</time></trkpt><trkpt lat="42.80142347649315" lon="13.6911330591022"><ele>329.66666666666663</ele><time>2026-04-05T10:04:35Z</time></trkpt><trkpt lat="42.801338399960436" lon="13.690886046874635"><ele>331.3333333333333</ele><time>2026-04-05T10:04:36Z</time></trkpt><trkpt lat="42.801261104425066" lon="13.690639590909885"><ele>333.0</ele><time>2026-04-05T10:04:37Z</time></trkpt><trkpt lat="42.801197168369164" lon="13.690391287217539"><ele>335.6666666666667</ele><time>2026-04-05T10:04:38Z</time></trkpt><trkpt lat="42.801142079677305" lon="13.690142663618863"><ele>338.33333333333337</ele><time>2026-04-05T10:04:39Z</time></trkpt><trkpt lat="42.8010833601451" lon="13.68989286345484"><ele>341.0</ele><time>2026-04-05T10:04:40Z</time></trkpt><trkpt lat="42.801020565636996" lon="13.689651560905066"><ele>339.0</ele><time>2026-04-05T10:04:41Z</time></trkpt><trkpt lat="42.80094096649946" lon="13.689412439886553"><ele>337.0</ele><time>2026-04-05T10:04:42Z</time></trkpt><trkpt lat="42.800832039845126" lon="13.689179676110601"><ele>335.0</ele><time>2026-04-05T10:04:43Z</time></trkpt><trkpt lat="42.800698462669835" lon="13.688961003417333"><ele>335.0</ele><time>2026-04-05T10:04:44Z</time></trkpt><trkpt lat="42.80055605207682" lon="13.688744903503366"><ele>335.0</ele><time>2026-04-05T10:04:45Z</time></trkpt><trkpt lat="42.80041196745208" lon="13.688525011175889"><ele>335.0</ele><time>2026-04-05T10:04:46Z</time></trkpt><trkpt lat="42.80026383422637" lon="13.688289939888277"><ele>334.5</ele><time>2026-04-05T10:04:47Z</time></trkpt><trkpt lat="42.800113681324405" lon="13.68805198004925"><ele>334.0</ele><time>2026-04-05T10:04:48Z</time></trkpt><trkpt lat="42.79996706133833" lon="13.687808015055042"><ele>332.0</ele><time>2026-04-05T10:04:49Z</time></trkpt><trkpt lat="42.799813318137076" lon="13.687569799235419"><ele>330.0</ele><time>2026-04-05T10:04:50Z</time></trkpt><trkpt lat="42.799645630134734" lon="13.687335770535332"><ele>330.0</ele><time>2026-04-05T10:04:51Z</time></trkpt><trkpt lat="42.79946309357964" lon="13.687106118730924"><ele>330.0</ele><time>2026-04-05T10:04:52Z</time></trkpt><trkpt lat="42.79926910786682" lon="13.68688329365269"><ele>332.5</ele><time>2026-04-05T10:04:53Z</time></trkpt><trkpt lat="42.799064585687056" lon="13.68665889116416"><ele>335.0</ele><time>2026-04-05T10:04:54Z</time></trkpt><trkpt lat="42.798850840478025" lon="13.686425674936528"><ele>335.0</ele><time>2026-04-05T10:04:55Z</time></trkpt><trkpt lat="42.798638842513846" lon="13.686187172629538"><ele>335.0</ele><time>2026-04-05T10:04:56Z</time></trkpt><trkpt lat="42.798416731124" lon="13.685942920461576"><ele>337.5</ele><time>2026-04-05T10:04:57Z</time></trkpt><trkpt lat="42.79818509778822" lon="13.685686131160075"><ele>340.0</ele><time>2026-04-05T10:04:58Z</time></trkpt><trkpt lat="42.797950846755775" lon="13.685427848750061"><ele>339.5</ele><time>2026-04-05T10:04:59Z</time></trkpt><trkpt lat="42.79772162293562" lon="13.68516341759289"><ele>339.0</ele><time>2026-04-05T10:05:00Z</time></trkpt><trkpt lat="42.79749844522001" lon="13.684918019408476"><ele>341.5</ele><time>2026-04-05T10:05:01Z</time></trkpt><trkpt lat="42.79729208895424" lon="13.684695603298724"><ele>344.0</ele><time>2026-04-05T10:05:02Z</time></trkpt><trkpt lat="42.79708010484987" lon="13.684488693005731"><ele>345.5</ele><time>2026-04-05T10:05:03Z</time></trkpt><trkpt lat="42.796859980031776" lon="13.684300804446107"><ele>347.0</ele><time>2026-04-05T10:05:04Z</time></trkpt><trkpt lat="42.796628353329" lon="13.684120042686471"><ele>349.5</ele><time>2026-04-05T10:05:05Z</time></trkpt><trkpt lat="42.79639213013242" lon="13.683957151022812"><ele>352.0</ele><time>2026-04-05T10:05:06Z</time></trkpt><trkpt lat="42.796152733817244" lon="13.683792257498865"><ele>352.5</ele><time>2026-04-05T10:05:07Z</time></trkpt><trkpt lat="42.795915607547805" lon="13.683624738967975"><ele>353.0</ele><time>2026-04-05T10:05:08Z</time></trkpt><trkpt lat="42.79568716612205" lon="13.683460815470776"><ele>353.0</ele><time>2026-04-05T10:05:09Z</time></trkpt><trkpt lat="42.79545948693004" lon="13.68330210963441"><ele>353.0</ele><time>2026-04-05T10:05:10Z</time></trkpt><trkpt lat="42.79524358109004" lon="13.683154130533268"><ele>353.0</ele><time>2026-04-05T10:05:11Z</time></trkpt><trkpt lat="42.795049672926275" lon="13.683021848561243"><ele>353.0</ele><time>2026-04-05T10:05:12Z</time></trkpt><trkpt lat="42.79486984267786" lon="13.682913739387986"><ele>353.0</ele><time>2026-04-05T10:05:13Z</time></trkpt><trkpt lat="42.7946813670647" lon="13.682843124773235"><ele>353.0</ele><time>2026-04-05T10:05:14Z</time></trkpt><trkpt lat="42.79447663743424" lon="13.682806226407463"><ele>353.0</ele><time>2026-04-05T10:05:15Z</time></trkpt><trkpt lat="42.79426348881625" lon="13.682794395593826"><ele>353.0</ele><time>2026-04-05T10:05:16Z</time></trkpt><trkpt lat="42.79404893451931" lon="13.682797899198222"><ele>352.33333333333337</ele><time>2026-04-05T10:05:17Z</time></trkpt><trkpt lat="42.79386116100219" lon="13.682790025341017"><ele>351.6666666666667</ele><time>2026-04-05T10:05:18Z</time></trkpt><trkpt lat="42.79368720062421" lon="13.6827631493332"><ele>351.0</ele><time>2026-04-05T10:05:19Z</time></trkpt><trkpt lat="42.79351448847527" lon="13.682708057356427"><ele>354.6666666666667</ele><time>2026-04-05T10:05:20Z</time></trkpt><trkpt lat="42.79334778360036" lon="13.682621709929856"><ele>358.33333333333337</ele><time>2026-04-05T10:05:21Z</time></trkpt><trkpt lat="42.79319283816452" lon="13.68250729396833"><ele>362.0</ele><time>2026-04-05T10:05:22Z</time></trkpt><trkpt lat="42.79305839852302" lon="13.682365986194402"><ele>362.0</ele><time>2026-04-05T10:05:23Z</time></trkpt><trkpt lat="42.79294305590727" lon="13.68219601457201"><ele>362.0</ele><time>2026-04-05T10:05:24Z</time></trkpt><trkpt lat="42.79283719077057" lon="13.681999212452922"><ele>362.0</ele><time>2026-04-05T10:05:25Z</time></trkpt><trkpt lat="42.79273504836037" lon="13.6817942429555"><ele>363.33333333333337</ele><time>2026-04-05T10:05:26Z</time></trkpt><trkpt lat="42.79262499312462" lon="13.681581709641415"><ele>364.6666666666667</ele><time>2026-04-05T10:05:27Z</time></trkpt><trkpt lat="42.79250927605119" lon="13.681372404629125"><ele>366.0</ele><time>2026-04-05T10:05:28Z</time></trkpt><trkpt lat="42.79240080891947" lon="13.681181426059156"><ele>366.75</ele><time>2026-04-05T10:05:29Z</time></trkpt><trkpt lat="42.792305783444625" lon="13.681009369377987"><ele>367.5</ele><time>2026-04-05T10:05:30Z</time></trkpt><trkpt lat="42.79222414960985" lon="13.680856684431902"><ele>368.25</ele><time>2026-04-05T10:05:31Z</time></trkpt><trkpt lat="42.79215392774179" lon="13.680740607583465"><ele>369.0</ele><time>2026-04-05T10:05:32Z</time></trkpt><trkpt lat="42.79208472472033" lon="13.680649176577248"><ele>369.0</ele><time>2026-04-05T10:05:33Z</time></trkpt><trkpt lat="42.79199267732419" lon="13.68058751056302"><ele>369.0</ele><time>2026-04-05T10:05:34Z</time></trkpt><trkpt lat="42.79187281148608" lon="13.680564130819118"><ele>369.0</ele><time>2026-04-05T10:05:35Z</time></trkpt><trkpt lat="42.79173797082286" lon="13.680587919215455"><ele>369.0</ele><time>2026-04-05T10:05:36Z</time></trkpt><trkpt lat="42.79159198225431" lon="13.680679662298454"><ele>369.6666666666667</ele><time>2026-04-05T10:05:37Z</time></trkpt><trkpt lat="42.79144111481899" lon="13.680805514032944"><ele>370.33333333333337</ele><time>2026-04-05T10:05:38Z</time></trkpt><trkpt lat="42.791290423287336" lon="13.680929987636302"><ele>371.0</ele><time>2026-04-05T10:05:39Z</time></trkpt><trkpt lat="42.791160008872126" lon="13.681014302687132"><ele>371.0</ele><time>2026-04-05T10:05:40Z</time></trkpt><trkpt lat="42.79103315172349" lon="13.681046966804526"><ele>371.0</ele><time>2026-04-05T10:05:41Z</time></trkpt><trkpt lat="42.79090521584919" lon="13.681046405518938"><ele>371.0</ele><time>2026-04-05T10:05:42Z</time></trkpt><trkpt lat="42.79079210915514" lon="13.68100709419981"><ele>371.0</ele><time>2026-04-05T10:05:43Z</time></trkpt><trkpt lat="42.79068446434464" lon="13.680927881714531"><ele>373.6666666666667</ele><time>2026-04-05T10:05:44Z</time></trkpt><trkpt lat="42.79056685361986" lon="13.680802274675262"><ele>376.3333333333333</ele><time>2026-04-05T10:05:45Z</time></trkpt><trkpt lat="42.79043016881843" lon="13.68065913760887"><ele>379.0</ele><time>2026-04-05T10:05:46Z</time></trkpt><trkpt lat="42.79028475576074" lon="13.680508959816741"><ele>378.66666666666663</ele><time>2026-04-05T10:05:47Z</time></trkpt><trkpt lat="42.79012543321339" lon="13.68034855940919"><ele>378.3333333333333</ele><time>2026-04-05T10:05:48Z</time></trkpt><trkpt lat="42.78996660841634" lon="13.680194709322478"><ele>378.0</ele><time>2026-04-05T10:05:49Z</time></trkpt><trkpt lat="42.78980460777658" lon="13.680035186152507"><ele>381.66666666666663</ele><time>2026-04-05T10:05:50Z</time></trkpt><trkpt lat="42.78964912774942" lon="13.679880896538652"><ele>385.3333333333333</ele><time>2026-04-05T10:05:51Z</time></trkpt><trkpt lat="42.78951312445094" lon="13.679746876597383"><ele>389.0</ele><time>2026-04-05T10:05:52Z</time></trkpt><trkpt lat="42.789393316176174" lon="13.679627751068988"><ele>388.75</ele><time>2026-04-05T10:05:53Z</time></trkpt><trkpt lat="42.78929570394446" lon="13.67953079574404"><ele>388.5</ele><time>2026-04-05T10:05:54Z</time></trkpt><trkpt lat="42.7892041939765" lon="13.679438707465305"><ele>388.25</ele><time>2026-04-05T10:05:55Z</time></trkpt><trkpt lat="42.78911030599196" lon="13.679373857153756"><ele>388.0</ele><time>2026-04-05T10:05:56Z</time></trkpt><trkpt lat="42.7890016325845" lon="13.679328490364849"><ele>388.0</ele><time>2026-04-05T10:05:57Z</time></trkpt><trkpt lat="42.78888022704009" lon="13.679328437372478"><ele>388.0</ele><time>2026-04-05T10:05:58Z</time></trkpt><trkpt lat="42.788752880322505" lon="13.679369698302796"><ele>388.0</ele><time>2026-04-05T10:05:59Z</time></trkpt><trkpt lat="42.78861191869272" lon="13.679451676309679"><ele>388.0</ele><time>2026-04-05T10:06:00Z</time></trkpt><trkpt lat="42.788454887693106" lon="13.679559961137072"><ele>390.75</ele><time>2026-04-05T10:06:01Z</time></trkpt><trkpt lat="42.78829020147039" lon="13.679670671282858"><ele>393.5</ele><time>2026-04-05T10:06:02Z</time></trkpt><trkpt lat="42.78821398547935" lon="13.679694820293227"><ele>396.25</ele><time>2026-04-05T10:06:03Z</time></trkpt><trkpt lat="42.788071198420376" lon="13.679774148328278"><ele>399.0</ele><time>2026-04-05T10:06:04Z</time></trkpt><trkpt lat="42.78792220590936" lon="13.679827055271785"><ele>399.0</ele><time>2026-04-05T10:06:05Z</time></trkpt><trkpt lat="42.78775965310234" lon="13.679850456025477"><ele>399.0</ele><time>2026-04-05T10:06:06Z</time></trkpt><trkpt lat="42.78758531805776" lon="13.67985774031762"><ele>399.0</ele><time>2026-04-05T10:06:07Z</time></trkpt><trkpt lat="42.787412696727166" lon="13.679867651157313"><ele>401.0</ele><time>2026-04-05T10:06:08Z</time></trkpt><trkpt lat="42.78724694924111" lon="13.679854786246644"><ele>403.0</ele><time>2026-04-05T10:06:09Z</time></trkpt><trkpt lat="42.78708601167961" lon="13.679820489180992"><ele>405.0</ele><time>2026-04-05T10:06:10Z</time></trkpt><trkpt lat="42.78693478908332" lon="13.679775298020658"><ele>404.5</ele><time>2026-04-05T10:06:11Z</time></trkpt><trkpt lat="42.78680520938212" lon="13.679715574247359"><ele>404.0</ele><time>2026-04-05T10:06:12.001Z</time></trkpt><trkpt lat="42.786678593212216" lon="13.679643365586184"><ele>403.5</ele><time>2026-04-05T10:06:13Z</time></trkpt><trkpt lat="42.78653538655277" lon="13.679552632015945"><ele>403.0</ele><time>2026-04-05T10:06:14Z</time></trkpt><trkpt lat="42.786373039878185" lon="13.679456783107423"><ele>404.6666666666667</ele><time>2026-04-05T10:06:15Z</time></trkpt><trkpt lat="42.78620707205652" lon="13.679356474477036"><ele>406.33333333333337</ele><time>2026-04-05T10:06:16Z</time></trkpt><trkpt lat="42.78605583236199" lon="13.679267511241202"><ele>408.0</ele><time>2026-04-05T10:06:17Z</time></trkpt><trkpt lat="42.785913936953264" lon="13.679208344200287"><ele>408.0</ele><time>2026-04-05T10:06:18Z</time></trkpt><trkpt lat="42.785767300873175" lon="13.679185358128484"><ele>408.0</ele><time>2026-04-05T10:06:19Z</time></trkpt><trkpt lat="42.78561862107363" lon="13.6792404112819"><ele>408.0</ele><time>2026-04-05T10:06:20Z</time></trkpt><trkpt lat="42.78548551668085" lon="13.679303940373538"><ele>408.0</ele><time>2026-04-05T10:06:21Z</time></trkpt><trkpt lat="42.78534921922878" lon="13.67937313280044"><ele>405.25</ele><time>2026-04-05T10:06:22Z</time></trkpt><trkpt lat="42.78522693959689" lon="13.679500790882905"><ele>402.5</ele><time>2026-04-05T10:06:23Z</time></trkpt><trkpt lat="42.785105682001024" lon="13.679596627049538"><ele>399.75</ele><time>2026-04-05T10:06:24Z</time></trkpt><trkpt lat="42.78499192304378" lon="13.679651783266383"><ele>397.0</ele><time>2026-04-05T10:06:25Z</time></trkpt><trkpt lat="42.784876641989754" lon="13.679657032024704"><ele>396.5</ele><time>2026-04-05T10:06:26Z</time></trkpt><trkpt lat="42.78475314375487" lon="13.679601003854511"><ele>396.0</ele><time>2026-04-05T10:06:27Z</time></trkpt><trkpt lat="42.784644305154494" lon="13.6794741178143"><ele>395.5</ele><time>2026-04-05T10:06:28Z</time></trkpt><trkpt lat="42.78452224698858" lon="13.679345471439088"><ele>395.0</ele><time>2026-04-05T10:06:29Z</time></trkpt><trkpt lat="42.78438756529689" lon="13.679204813189418"><ele>395.3333333333333</ele><time>2026-04-05T10:06:30Z</time></trkpt><trkpt lat="42.784254458782655" lon="13.679041779012469"><ele>395.66666666666663</ele><time>2026-04-05T10:06:31Z</time></trkpt><trkpt lat="42.78411318349138" lon="13.678878813288184"><ele>396.0</ele><time>2026-04-05T10:06:32Z</time></trkpt><trkpt lat="42.78397310530638" lon="13.678720806066291"><ele>399.0</ele><time>2026-04-05T10:06:33Z</time></trkpt><trkpt lat="42.783835309468884" lon="13.678575454367667"><ele>402.0</ele><time>2026-04-05T10:06:34Z</time></trkpt><trkpt lat="42.78370946859174" lon="13.67843548612009"><ele>405.0</ele><time>2026-04-05T10:06:35Z</time></trkpt><trkpt lat="42.78357702472581" lon="13.678312693725832"><ele>402.33333333333337</ele><time>2026-04-05T10:06:36Z</time></trkpt><trkpt lat="42.783438264220614" lon="13.678214090832551"><ele>399.6666666666667</ele><time>2026-04-05T10:06:37Z</time></trkpt><trkpt lat="42.78328754835108" lon="13.678125303722853"><ele>397.0</ele><time>2026-04-05T10:06:38Z</time></trkpt><trkpt lat="42.783132160126364" lon="13.678048101635172"><ele>397.0</ele><time>2026-04-05T10:06:39Z</time></trkpt><trkpt lat="42.78298151128523" lon="13.677958204686353"><ele>397.0</ele><time>2026-04-05T10:06:40Z</time></trkpt><trkpt lat="42.78282577491576" lon="13.677870767469145"><ele>397.0</ele><time>2026-04-05T10:06:41Z</time></trkpt><trkpt lat="42.782667578310466" lon="13.677778789324602"><ele>398.6666666666667</ele><time>2026-04-05T10:06:42Z</time></trkpt><trkpt lat="42.78251312777419" lon="13.677671293771613"><ele>400.33333333333337</ele><time>2026-04-05T10:06:43Z</time></trkpt><trkpt lat="42.78237190869715" lon="13.677525048199609"><ele>402.0</ele><time>2026-04-05T10:06:44Z</time></trkpt><trkpt lat="42.78223924749137" lon="13.677357645733263"><ele>402.0</ele><time>2026-04-05T10:06:45Z</time></trkpt><trkpt lat="42.782118041624344" lon="13.677168927447857"><ele>402.0</ele><time>2026-04-05T10:06:46Z</time></trkpt><trkpt lat="42.78199187210994" lon="13.676971471842407"><ele>402.0</ele><time>2026-04-05T10:06:47Z</time></trkpt><trkpt lat="42.781856166441415" lon="13.67677527545654"><ele>404.0</ele><time>2026-04-05T10:06:48Z</time></trkpt><trkpt lat="42.78171999986101" lon="13.676581767428777"><ele>406.0</ele><time>2026-04-05T10:06:49Z</time></trkpt><trkpt lat="42.7815817589091" lon="13.676392242849369"><ele>408.0</ele><time>2026-04-05T10:06:50Z</time></trkpt><trkpt lat="42.781447744794335" lon="13.676202499109307"><ele>406.33333333333337</ele><time>2026-04-05T10:06:51Z</time></trkpt><trkpt lat="42.781312845334114" lon="13.676009952948172"><ele>404.6666666666667</ele><time>2026-04-05T10:06:52Z</time></trkpt><trkpt lat="42.78117753721991" lon="13.675818473126721"><ele>403.0</ele><time>2026-04-05T10:06:53Z</time></trkpt><trkpt lat="42.78104435743839" lon="13.675623678255318"><ele>406.0</ele><time>2026-04-05T10:06:54Z</time></trkpt><trkpt lat="42.78091303941048" lon="13.67543071854878"><ele>409.0</ele><time>2026-04-05T10:06:55Z</time></trkpt><trkpt lat="42.78078341992345" lon="13.67524532036324"><ele>412.0</ele><time>2026-04-05T10:06:56Z</time></trkpt><trkpt lat="42.780667124481845" lon="13.67508289628743"><ele>412.0</ele><time>2026-04-05T10:06:57Z</time></trkpt><trkpt lat="42.78056880534162" lon="13.674954647743407"><ele>412.0</ele><time>2026-04-05T10:06:58Z</time></trkpt><trkpt lat="42.780463103941194" lon="13.674847208410743"><ele>412.0</ele><time>2026-04-05T10:06:59Z</time></trkpt><trkpt lat="42.78034148035533" lon="13.674767163534796"><ele>412.0</ele><time>2026-04-05T10:07:00Z</time></trkpt><trkpt lat="42.78021522209124" lon="13.674720966198814"><ele>414.0</ele><time>2026-04-05T10:07:01Z</time></trkpt><trkpt lat="42.78009564008432" lon="13.674718173482397"><ele>416.0</ele><time>2026-04-05T10:07:02Z</time></trkpt><trkpt lat="42.779974739084956" lon="13.6747582339471"><ele>418.0</ele><time>2026-04-05T10:07:03Z</time></trkpt><trkpt lat="42.779864626609495" lon="13.674842949107887"><ele>420.0</ele><time>2026-04-05T10:07:04Z</time></trkpt><trkpt lat="42.7797722121906" lon="13.67493544413345"><ele>420.0</ele><time>2026-04-05T10:07:05Z</time></trkpt><trkpt lat="42.77968451107153" lon="13.675058016981707"><ele>420.0</ele><time>2026-04-05T10:07:06Z</time></trkpt><trkpt lat="42.77960718884582" lon="13.675209023336345"><ele>420.0</ele><time>2026-04-05T10:07:07Z</time></trkpt><trkpt lat="42.779535582662284" lon="13.675388458349211"><ele>420.0</ele><time>2026-04-05T10:07:08Z</time></trkpt><trkpt lat="42.77946892354958" lon="13.675592216937307"><ele>420.66666666666663</ele><time>2026-04-05T10:07:09Z</time></trkpt><trkpt lat="42.779397836943154" lon="13.675808162579655"><ele>421.3333333333333</ele><time>2026-04-05T10:07:10Z</time></trkpt><trkpt lat="42.77932269254449" lon="13.676031745819536"><ele>422.0</ele><time>2026-04-05T10:07:11Z</time></trkpt><trkpt lat="42.779244549370084" lon="13.67624914120554"><ele>424.3333333333333</ele><time>2026-04-05T10:07:12Z</time></trkpt><trkpt lat="42.77916031505391" lon="13.676461271579905"><ele>426.66666666666663</ele><time>2026-04-05T10:07:13Z</time></trkpt><trkpt lat="42.77905872863434" lon="13.676678931359179"><ele>429.0</ele><time>2026-04-05T10:07:14Z</time></trkpt><trkpt lat="42.778933063158185" lon="13.67688740764538"><ele>430.66666666666663</ele><time>2026-04-05T10:07:15Z</time></trkpt><trkpt lat="42.77878942257451" lon="13.677079995928908"><ele>432.3333333333333</ele><time>2026-04-05T10:07:16Z</time></trkpt><trkpt lat="42.77862987331647" lon="13.677257915415813"><ele>434.0</ele><time>2026-04-05T10:07:17Z</time></trkpt><trkpt lat="42.77845765745163" lon="13.677426101840167"><ele>434.0</ele><time>2026-04-05T10:07:18Z</time></trkpt><trkpt lat="42.778279051870996" lon="13.677593267360491"><ele>434.0</ele><time>2026-04-05T10:07:19Z</time></trkpt><trkpt lat="42.77811549176832" lon="13.67774874992899"><ele>434.0</ele><time>2026-04-05T10:07:20Z</time></trkpt><trkpt lat="42.77797921678131" lon="13.677883433633271"><ele>434.25</ele><time>2026-04-05T10:07:21Z</time></trkpt><trkpt lat="42.77785533763206" lon="13.677992901480486"><ele>434.5</ele><time>2026-04-05T10:07:22Z</time></trkpt><trkpt lat="42.777728538825066" lon="13.678064023148123"><ele>434.75</ele><time>2026-04-05T10:07:23Z</time></trkpt><trkpt lat="42.77759612499645" lon="13.678094842699092"><ele>435.0</ele><time>2026-04-05T10:07:24Z</time></trkpt><trkpt lat="42.77745905665049" lon="13.678082102042435"><ele>436.33333333333337</ele><time>2026-04-05T10:07:25Z</time></trkpt><trkpt lat="42.77731500053823" lon="13.678038266298445"><ele>437.6666666666667</ele><time>2026-04-05T10:07:26Z</time></trkpt><trkpt lat="42.77717490103109" lon="13.677962353212168"><ele>439.0</ele><time>2026-04-05T10:07:27Z</time></trkpt><trkpt lat="42.777043251766095" lon="13.67784809906919"><ele>439.33333333333337</ele><time>2026-04-05T10:07:28Z</time></trkpt><trkpt lat="42.776918777817656" lon="13.67770356434106"><ele>439.66666666666663</ele><time>2026-04-05T10:07:29Z</time></trkpt><trkpt lat="42.776798382984175" lon="13.677525783111253"><ele>440.0</ele><time>2026-04-05T10:07:30Z</time></trkpt><trkpt lat="42.77668624479207" lon="13.677364843913686"><ele>442.75</ele><time>2026-04-05T10:07:31Z</time></trkpt><trkpt lat="42.776595002884356" lon="13.677256331199503"><ele>445.5</ele><time>2026-04-05T10:07:32Z</time></trkpt><trkpt lat="42.776502571301805" lon="13.677199249983788"><ele>448.25</ele><time>2026-04-05T10:07:33Z</time></trkpt><trkpt lat="42.77639187844019" lon="13.677171096541036"><ele>451.0</ele><time>2026-04-05T10:07:34Z</time></trkpt><trkpt lat="42.776271954596304" lon="13.677200109152285"><ele>451.0</ele><time>2026-04-05T10:07:35Z</time></trkpt><trkpt lat="42.77615947369395" lon="13.677276364719656"><ele>451.0</ele><time>2026-04-05T10:07:36Z</time></trkpt><trkpt lat="42.776058320210744" lon="13.677418851028385"><ele>451.0</ele><time>2026-04-05T10:07:37Z</time></trkpt><trkpt lat="42.775950356173844" lon="13.677572653113351"><ele>451.0</ele><time>2026-04-05T10:07:38Z</time></trkpt><trkpt lat="42.77587055466473" lon="13.677736848406646"><ele>450.6666666666667</ele><time>2026-04-05T10:07:39Z</time></trkpt><trkpt lat="42.77578120438801" lon="13.677816414449172"><ele>450.33333333333337</ele><time>2026-04-05T10:07:40Z</time></trkpt><trkpt lat="42.7757147246471" lon="13.677862721833979"><ele>450.0</ele><time>2026-04-05T10:07:41Z</time></trkpt><trkpt lat="42.77565143950611" lon="13.677818857170642"><ele>449.66666666666663</ele><time>2026-04-05T10:07:42Z</time></trkpt><trkpt lat="42.7756307422071" lon="13.67773313691469"><ele>449.3333333333333</ele><time>2026-04-05T10:07:43Z</time></trkpt><trkpt lat="42.77564661043634" lon="13.677631147128595"><ele>449.0</ele><time>2026-04-05T10:07:44Z</time></trkpt><trkpt lat="42.77568546164638" lon="13.677522259358915"><ele>451.25</ele><time>2026-04-05T10:07:45Z</time></trkpt><trkpt lat="42.77575559498605" lon="13.677402491394494"><ele>453.5</ele><time>2026-04-05T10:07:46Z</time></trkpt><trkpt lat="42.775817750325984" lon="13.677257169045944"><ele>455.75</ele><time>2026-04-05T10:07:47Z</time></trkpt><trkpt lat="42.775855510609574" lon="13.677075328103228"><ele>458.0</ele><time>2026-04-05T10:07:48Z</time></trkpt><trkpt lat="42.77587293607481" lon="13.676854541326719"><ele>461.3333333333333</ele><time>2026-04-05T10:07:49Z</time></trkpt><trkpt lat="42.77587367444423" lon="13.676606057690615"><ele>464.66666666666663</ele><time>2026-04-05T10:07:50Z</time></trkpt><trkpt lat="42.77587367287234" lon="13.67634276235068"><ele>468.0</ele><time>2026-04-05T10:07:51Z</time></trkpt><trkpt lat="42.77587598492444" lon="13.676081635003765"><ele>469.75</ele><time>2026-04-05T10:07:52Z</time></trkpt><trkpt lat="42.77587806646631" lon="13.675878713135377"><ele>471.5</ele><time>2026-04-05T10:07:53Z</time></trkpt><trkpt lat="42.77587547141639" lon="13.675730440623084"><ele>473.25</ele><time>2026-04-05T10:07:54Z</time></trkpt><trkpt lat="42.775805303499745" lon="13.675584578427236"><ele>475.0</ele><time>2026-04-05T10:07:56Z</time></trkpt><trkpt lat="42.77572734956544" lon="13.675559841658108"><ele>475.0</ele><time>2026-04-05T10:07:57Z</time></trkpt><trkpt lat="42.77564493317607" lon="13.675614114283691"><ele>475.0</ele><time>2026-04-05T10:07:58Z</time></trkpt><trkpt lat="42.775579688792284" lon="13.675741651598102"><ele>475.0</ele><time>2026-04-05T10:07:59Z</time></trkpt><trkpt lat="42.77552838732773" lon="13.675908082054491"><ele>475.0</ele><time>2026-04-05T10:08:00Z</time></trkpt><trkpt lat="42.775474601323786" lon="13.676107555536777"><ele>472.6666666666667</ele><time>2026-04-05T10:08:01Z</time></trkpt><trkpt lat="42.77539985974254" lon="13.676332960955197"><ele>470.33333333333337</ele><time>2026-04-05T10:08:02Z</time></trkpt><trkpt lat="42.775328430830164" lon="13.676540408298806"><ele>468.0</ele><time>2026-04-05T10:08:03Z</time></trkpt><trkpt lat="42.775271536186004" lon="13.676685559423039"><ele>468.0</ele><time>2026-04-05T10:08:04Z</time></trkpt><trkpt lat="42.77521137897789" lon="13.67676624219229"><ele>467.99999999999994</ele><time>2026-04-05T10:08:05Z</time></trkpt><trkpt lat="42.77510383835886" lon="13.676797184517628"><ele>467.99999999999994</ele><time>2026-04-05T10:08:07Z</time></trkpt><trkpt lat="42.77505289403969" lon="13.676705389554341"><ele>468.0</ele><time>2026-04-05T10:08:08Z</time></trkpt><trkpt lat="42.77503789998962" lon="13.676584003513945"><ele>468.0</ele><time>2026-04-05T10:08:09Z</time></trkpt><trkpt lat="42.775067458682635" lon="13.67643162459727"><ele>469.75</ele><time>2026-04-05T10:08:10Z</time></trkpt><trkpt lat="42.77510854093309" lon="13.67625165767761"><ele>471.5</ele><time>2026-04-05T10:08:11Z</time></trkpt><trkpt lat="42.775139520514024" lon="13.676047485637264"><ele>473.25</ele><time>2026-04-05T10:08:12Z</time></trkpt><trkpt lat="42.77516920244055" lon="13.675844561990443"><ele>475.0</ele><time>2026-04-05T10:08:13Z</time></trkpt><trkpt lat="42.77518817657589" lon="13.675641089669742"><ele>483.0</ele><time>2026-04-05T10:08:14.001Z</time></trkpt><trkpt lat="42.77517705526117" lon="13.675415128121495"><ele>491.0</ele><time>2026-04-05T10:08:15.001Z</time></trkpt><trkpt lat="42.7751374518988" lon="13.675167072544221"><ele>499.0</ele><time>2026-04-05T10:08:16.001Z</time></trkpt><trkpt lat="42.77511489865203" lon="13.674917022026852"><ele>500.5</ele><time>2026-04-05T10:08:17.001Z</time></trkpt><trkpt lat="42.775087430131975" lon="13.67468166317758"><ele>502.0</ele><time>2026-04-05T10:08:18.001Z</time></trkpt><trkpt lat="42.77506502885867" lon="13.674483403947743"><ele>503.5</ele><time>2026-04-05T10:08:19.001Z</time></trkpt><trkpt lat="42.77504812824882" lon="13.674322041222712"><ele>505.0</ele><time>2026-04-05T10:08:20.001Z</time></trkpt><trkpt lat="42.77503121656228" lon="13.674180918523898"><ele>505.00000000000006</ele><time>2026-04-05T10:08:21.001Z</time></trkpt><trkpt lat="42.77501606750691" lon="13.674075928421178"><ele>505.0</ele><time>2026-04-05T10:08:22.001Z</time></trkpt><trkpt lat="42.77498641023369" lon="13.673994393518775"><ele>505.0</ele><time>2026-04-05T10:08:23.001Z</time></trkpt><trkpt lat="42.77492057068329" lon="13.673945701850858"><ele>505.0</ele><time>2026-04-05T10:08:24.001Z</time></trkpt><trkpt lat="42.774850460585895" lon="13.67393467230899"><ele>505.00000000000006</ele><time>2026-04-05T10:08:25Z</time></trkpt><trkpt lat="42.774790569525955" lon="13.674064638908403"><ele>505.0</ele><time>2026-04-05T10:08:26Z</time></trkpt><trkpt lat="42.77477015645803" lon="13.674201365977929"><ele>505.0</ele><time>2026-04-05T10:08:27Z</time></trkpt><trkpt lat="42.77477550796292" lon="13.67436290834614"><ele>505.0</ele><time>2026-04-05T10:08:28Z</time></trkpt><trkpt lat="42.774777554045855" lon="13.674545675271114"><ele>505.0</ele><time>2026-04-05T10:08:29Z</time></trkpt><trkpt lat="42.774752784684864" lon="13.674733846758894"><ele>505.0</ele><time>2026-04-05T10:08:30Z</time></trkpt><trkpt lat="42.77475475158525" lon="13.67491702740994"><ele>505.5</ele><time>2026-04-05T10:08:31Z</time></trkpt><trkpt lat="42.774721313503655" lon="13.675087883925212"><ele>506.0</ele><time>2026-04-05T10:08:32Z</time></trkpt><trkpt lat="42.774683768146176" lon="13.675249980023853"><ele>506.5</ele><time>2026-04-05T10:08:33Z</time></trkpt><trkpt lat="42.77461303410252" lon="13.67537085542726"><ele>507.0</ele><time>2026-04-05T10:08:34Z</time></trkpt><trkpt lat="42.774524120955746" lon="13.67546888434686"><ele>505.0</ele><time>2026-04-05T10:08:35Z</time></trkpt><trkpt lat="42.77440928554868" lon="13.675559943899177"><ele>503.0</ele><time>2026-04-05T10:08:36Z</time></trkpt><trkpt lat="42.77427768433914" lon="13.6756526055104"><ele>501.0</ele><time>2026-04-05T10:08:37Z</time></trkpt><trkpt lat="42.77413680157442" lon="13.675754047288986"><ele>499.0</ele><time>2026-04-05T10:08:38Z</time></trkpt><trkpt lat="42.77400069702785" lon="13.675852893053758"><ele>505.0</ele><time>2026-04-05T10:08:39Z</time></trkpt><trkpt lat="42.77386976771845" lon="13.675946635010291"><ele>511.0</ele><time>2026-04-05T10:08:40Z</time></trkpt><trkpt lat="42.77373115450395" lon="13.676024055780701"><ele>517.0</ele><time>2026-04-05T10:08:41Z</time></trkpt><trkpt lat="42.77358719853584" lon="13.676079002260446"><ele>523.0</ele><time>2026-04-05T10:08:42Z</time></trkpt><trkpt lat="42.77346245141269" lon="13.6761150215083"><ele>524.0</ele><time>2026-04-05T10:08:43Z</time></trkpt><trkpt lat="42.7733636354267" lon="13.676147652767375"><ele>525.0</ele><time>2026-04-05T10:08:44Z</time></trkpt><trkpt lat="42.77328368883554" lon="13.67617183487755"><ele>526.0</ele><time>2026-04-05T10:08:45Z</time></trkpt><trkpt lat="42.773215408166614" lon="13.676177082849309"><ele>527.0</ele><time>2026-04-05T10:08:46Z</time></trkpt><trkpt lat="42.77311101133271" lon="13.676140807093148"><ele>528.0</ele><time>2026-04-05T10:08:48Z</time></trkpt><trkpt lat="42.77304546113602" lon="13.67609493256055"><ele>529.0</ele><time>2026-04-05T10:08:50Z</time></trkpt><trkpt lat="42.77294044566474" lon="13.676069157739418"><ele>529.0</ele><time>2026-04-05T10:08:52Z</time></trkpt><trkpt lat="42.7728425529675" lon="13.676096377021135"><ele>529.0</ele><time>2026-04-05T10:08:54Z</time></trkpt><trkpt lat="42.772785644877956" lon="13.67615696810684"><ele>529.0</ele><time>2026-04-05T10:08:55Z</time></trkpt><trkpt lat="42.772724879392" lon="13.676237370587392"><ele>529.0</ele><time>2026-04-05T10:08:56Z</time></trkpt><trkpt lat="42.77265985783787" lon="13.676326494820671"><ele>529.0</ele><time>2026-04-05T10:08:57Z</time></trkpt><trkpt lat="42.77258567170905" lon="13.676411698389774"><ele>529.0</ele><time>2026-04-05T10:08:58Z</time></trkpt><trkpt lat="42.772495030481814" lon="13.676470170050711"><ele>531.5</ele><time>2026-04-05T10:08:59Z</time></trkpt><trkpt lat="42.77239290547428" lon="13.676504357779114"><ele>534.0</ele><time>2026-04-05T10:09:00Z</time></trkpt><trkpt lat="42.77227634157494" lon="13.67651572692374"><ele>536.5</ele><time>2026-04-05T10:09:01Z</time></trkpt><trkpt lat="42.77214545049762" lon="13.676522416701822"><ele>539.0</ele><time>2026-04-05T10:09:02Z</time></trkpt><trkpt lat="42.77201605827869" lon="13.676518919005517"><ele>539.0</ele><time>2026-04-05T10:09:03Z</time></trkpt><trkpt lat="42.771871371725275" lon="13.6765061212896"><ele>539.0</ele><time>2026-04-05T10:09:04Z</time></trkpt><trkpt lat="42.77172774830611" lon="13.676470580847145"><ele>539.0</ele><time>2026-04-05T10:09:05Z</time></trkpt><trkpt lat="42.77158783922961" lon="13.676408899885933"><ele>539.0</ele><time>2026-04-05T10:09:06Z</time></trkpt><trkpt lat="42.77145305625516" lon="13.676345385234939"><ele>539.5</ele><time>2026-04-05T10:09:07Z</time></trkpt><trkpt lat="42.771337940336394" lon="13.676300757057051"><ele>540.0</ele><time>2026-04-05T10:09:08Z</time></trkpt><trkpt lat="42.771227132263455" lon="13.676281099151756"><ele>540.5</ele><time>2026-04-05T10:09:09Z</time></trkpt><trkpt lat="42.77111010519159" lon="13.67629656150973"><ele>541.0</ele><time>2026-04-05T10:09:10Z</time></trkpt><trkpt lat="42.77098793486788" lon="13.676354233670972"><ele>543.0</ele><time>2026-04-05T10:09:11Z</time></trkpt><trkpt lat="42.770864615299836" lon="13.676450727775494"><ele>545.0</ele><time>2026-04-05T10:09:12Z</time></trkpt><trkpt lat="42.7707389102046" lon="13.676571621244458"><ele>547.0</ele><time>2026-04-05T10:09:13Z</time></trkpt><trkpt lat="42.77060396731165" lon="13.676701904741307"><ele>547.0</ele><time>2026-04-05T10:09:14Z</time></trkpt><trkpt lat="42.77046128914582" lon="13.676838864215771"><ele>547.0</ele><time>2026-04-05T10:09:15Z</time></trkpt><trkpt lat="42.77031225965554" lon="13.676974813634216"><ele>547.0</ele><time>2026-04-05T10:09:16Z</time></trkpt><trkpt lat="42.770158583377196" lon="13.677095898352496"><ele>548.0</ele><time>2026-04-05T10:09:17Z</time></trkpt><trkpt lat="42.76999493756191" lon="13.677189316600433"><ele>549.0</ele><time>2026-04-05T10:09:18Z</time></trkpt><trkpt lat="42.76982094058259" lon="13.677263078042511"><ele>550.0</ele><time>2026-04-05T10:09:19Z</time></trkpt><trkpt lat="42.769650899547635" lon="13.677331818937972"><ele>550.0</ele><time>2026-04-05T10:09:20Z</time></trkpt><trkpt lat="42.769506236167146" lon="13.677402041547325"><ele>550.0</ele><time>2026-04-05T10:09:21Z</time></trkpt><trkpt lat="42.76938027939538" lon="13.677494901243476"><ele>550.0</ele><time>2026-04-05T10:09:22Z</time></trkpt><trkpt lat="42.769259376468646" lon="13.677626879100606"><ele>549.0</ele><time>2026-04-05T10:09:23Z</time></trkpt><trkpt lat="42.769152614645385" lon="13.677800761149014"><ele>548.0</ele><time>2026-04-05T10:09:24Z</time></trkpt><trkpt lat="42.769053155171115" lon="13.678002935854076"><ele>547.0</ele><time>2026-04-05T10:09:25Z</time></trkpt><trkpt lat="42.7689660644737" lon="13.67822100228084"><ele>547.0</ele><time>2026-04-05T10:09:26Z</time></trkpt><trkpt lat="42.76887919637012" lon="13.678419694075108"><ele>547.0</ele><time>2026-04-05T10:09:27Z</time></trkpt><trkpt lat="42.768792468671116" lon="13.678582962831543"><ele>547.0</ele><time>2026-04-05T10:09:28Z</time></trkpt><trkpt lat="42.7686923352008" lon="13.678718469468526"><ele>546.75</ele><time>2026-04-05T10:09:29Z</time></trkpt><trkpt lat="42.768570107790346" lon="13.678837021565487"><ele>546.5</ele><time>2026-04-05T10:09:30Z</time></trkpt><trkpt lat="42.76844649938047" lon="13.678933303886694"><ele>546.25</ele><time>2026-04-05T10:09:31Z</time></trkpt><trkpt lat="42.7683160436974" lon="13.679017012083397"><ele>546.0</ele><time>2026-04-05T10:09:32Z</time></trkpt><trkpt lat="42.768176496555725" lon="13.679086137493117"><ele>544.6666666666666</ele><time>2026-04-05T10:09:33Z</time></trkpt><trkpt lat="42.76802395076192" lon="13.67915287439519"><ele>543.3333333333333</ele><time>2026-04-05T10:09:34Z</time></trkpt><trkpt lat="42.76786303483456" lon="13.679221159309435"><ele>542.0</ele><time>2026-04-05T10:09:35Z</time></trkpt><trkpt lat="42.76769740490836" lon="13.679271140347241"><ele>542.6666666666666</ele><time>2026-04-05T10:09:36Z</time></trkpt><trkpt lat="42.767530213328605" lon="13.67930202552428"><ele>543.3333333333334</ele><time>2026-04-05T10:09:37Z</time></trkpt><trkpt lat="42.76736143192887" lon="13.679319581993099"><ele>544.0</ele><time>2026-04-05T10:09:38Z</time></trkpt><trkpt lat="42.76719733160359" lon="13.679335010448971"><ele>544.0</ele><time>2026-04-05T10:09:39Z</time></trkpt><trkpt lat="42.76703515463755" lon="13.679318602035185"><ele>544.0</ele><time>2026-04-05T10:09:40Z</time></trkpt><trkpt lat="42.76687811063487" lon="13.67926245481561"><ele>544.0</ele><time>2026-04-05T10:09:41Z</time></trkpt><trkpt lat="42.766725554521415" lon="13.679179166427563"><ele>542.0</ele><time>2026-04-05T10:09:42Z</time></trkpt><trkpt lat="42.76657921298298" lon="13.679060834082424"><ele>540.0</ele><time>2026-04-05T10:09:43Z</time></trkpt><trkpt lat="42.76644261235951" lon="13.678912416166966"><ele>538.0</ele><time>2026-04-05T10:09:44Z</time></trkpt><trkpt lat="42.766311427179744" lon="13.678748656224863"><ele>538.0</ele><time>2026-04-05T10:09:45Z</time></trkpt><trkpt lat="42.76617151045672" lon="13.678609332724553"><ele>538.0</ele><time>2026-04-05T10:09:46Z</time></trkpt><trkpt lat="42.766028623299036" lon="13.67850522101938"><ele>538.0</ele><time>2026-04-05T10:09:47Z</time></trkpt><trkpt lat="42.765886980148544" lon="13.678435164466793"><ele>540.3333333333334</ele><time>2026-04-05T10:09:48Z</time></trkpt><trkpt lat="42.765740110888316" lon="13.678391489160006"><ele>542.6666666666666</ele><time>2026-04-05T10:09:49Z</time></trkpt><trkpt lat="42.76558984837208" lon="13.678357978335608"><ele>545.0</ele><time>2026-04-05T10:09:50Z</time></trkpt><trkpt lat="42.76542864395476" lon="13.678352465882442"><ele>545.0</ele><time>2026-04-05T10:09:51Z</time></trkpt><trkpt lat="42.765263910928" lon="13.678388583149694"><ele>545.0</ele><time>2026-04-05T10:09:52Z</time></trkpt><trkpt lat="42.76509663483092" lon="13.678459682181945"><ele>545.0</ele><time>2026-04-05T10:09:53Z</time></trkpt><trkpt lat="42.764939773293065" lon="13.678548856265907"><ele>545.25</ele><time>2026-04-05T10:09:54Z</time></trkpt><trkpt lat="42.76479715365011" lon="13.678620175635592"><ele>545.5</ele><time>2026-04-05T10:09:55Z</time></trkpt><trkpt lat="42.76465817979388" lon="13.678642869084452"><ele>545.75</ele><time>2026-04-05T10:09:56Z</time></trkpt><trkpt lat="42.7645116273688" lon="13.678631456874285"><ele>546.0</ele><time>2026-04-05T10:09:57Z</time></trkpt><trkpt lat="42.7643658216395" lon="13.678562671150248"><ele>543.3333333333334</ele><time>2026-04-05T10:09:58Z</time></trkpt><trkpt lat="42.76424950762698" lon="13.678434948284028"><ele>540.6666666666667</ele><time>2026-04-05T10:09:59Z</time></trkpt><trkpt lat="42.764136588392724" lon="13.678296326761883"><ele>538.0</ele><time>2026-04-05T10:10:00Z</time></trkpt><trkpt lat="42.76400957807633" lon="13.678152925481262"><ele>538.0</ele><time>2026-04-05T10:10:01Z</time></trkpt><trkpt lat="42.76389981699272" lon="13.67797843626444"><ele>538.0</ele><time>2026-04-05T10:10:02Z</time></trkpt><trkpt lat="42.763784400967566" lon="13.677810481567406"><ele>538.0</ele><time>2026-04-05T10:10:03Z</time></trkpt><trkpt lat="42.76366649611184" lon="13.67763618293272"><ele>537.6666666666667</ele><time>2026-04-05T10:10:04Z</time></trkpt><trkpt lat="42.76353923950066" lon="13.677468354717787"><ele>537.3333333333334</ele><time>2026-04-05T10:10:05Z</time></trkpt><trkpt lat="42.76339995654343" lon="13.677322299875648"><ele>537.0</ele><time>2026-04-05T10:10:06Z</time></trkpt><trkpt lat="42.763253138716514" lon="13.67718005177891"><ele>537.0</ele><time>2026-04-05T10:10:07Z</time></trkpt><trkpt lat="42.763107247584244" lon="13.677042488645837"><ele>537.0</ele><time>2026-04-05T10:10:08Z</time></trkpt><trkpt lat="42.762959015781455" lon="13.676897480950815"><ele>537.0</ele><time>2026-04-05T10:10:09Z</time></trkpt><trkpt lat="42.76281972353341" lon="13.676760577696037"><ele>534.0</ele><time>2026-04-05T10:10:10Z</time></trkpt><trkpt lat="42.762694234862686" lon="13.676624406582794"><ele>531.0</ele><time>2026-04-05T10:10:11Z</time></trkpt><trkpt lat="42.76257660513855" lon="13.676489572839467"><ele>528.0</ele><time>2026-04-05T10:10:12Z</time></trkpt><trkpt lat="42.76248811764476" lon="13.676304793251433"><ele>529.0</ele><time>2026-04-05T10:10:13Z</time></trkpt><trkpt lat="42.7624054002794" lon="13.676102315877337"><ele>530.0</ele><time>2026-04-05T10:10:14Z</time></trkpt><trkpt lat="42.76233979858379" lon="13.675877652294094"><ele>531.0</ele><time>2026-04-05T10:10:15Z</time></trkpt><trkpt lat="42.76229099217832" lon="13.675640471063705"><ele>531.0</ele><time>2026-04-05T10:10:16Z</time></trkpt><trkpt lat="42.76225602947825" lon="13.675384249182143"><ele>531.0</ele><time>2026-04-05T10:10:17Z</time></trkpt><trkpt lat="42.76221800226048" lon="13.675117704874095"><ele>531.0</ele><time>2026-04-05T10:10:18Z</time></trkpt><trkpt lat="42.76217216057004" lon="13.674849739571936"><ele>531.3333333333334</ele><time>2026-04-05T10:10:19Z</time></trkpt><trkpt lat="42.762122399968185" lon="13.674584161709832"><ele>531.6666666666667</ele><time>2026-04-05T10:10:20.001Z</time></trkpt><trkpt lat="42.76207285435292" lon="13.674315818492994"><ele>532.0</ele><time>2026-04-05T10:10:21.001Z</time></trkpt><trkpt lat="42.76202363005116" lon="13.674046112821452"><ele>532.6666666666667</ele><time>2026-04-05T10:10:22.001Z</time></trkpt><trkpt lat="42.76197739044881" lon="13.673780880404282"><ele>533.3333333333334</ele><time>2026-04-05T10:10:23.001Z</time></trkpt><trkpt lat="42.76193370441623" lon="13.673522697710053"><ele>534.0</ele><time>2026-04-05T10:10:24.001Z</time></trkpt><trkpt lat="42.76189473496091" lon="13.673276006754142"><ele>531.75</ele><time>2026-04-05T10:10:25.001Z</time></trkpt><trkpt lat="42.76186036990211" lon="13.67305325230348"><ele>529.5</ele><time>2026-04-05T10:10:26Z</time></trkpt><trkpt lat="42.76182875585107" lon="13.672856564089358"><ele>527.25</ele><time>2026-04-05T10:10:27Z</time></trkpt><trkpt lat="42.76180436592626" lon="13.672696996067852"><ele>525.0</ele><time>2026-04-05T10:10:28Z</time></trkpt><trkpt lat="42.76178287876643" lon="13.672571272494821"><ele>525.0</ele><time>2026-04-05T10:10:29Z</time></trkpt><trkpt lat="42.76176080346886" lon="13.672468038174918"><ele>525.0</ele><time>2026-04-05T10:10:30Z</time></trkpt><trkpt lat="42.76172318332039" lon="13.672378367747342"><ele>525.0</ele><time>2026-04-05T10:10:31Z</time></trkpt><trkpt lat="42.76165456266586" lon="13.672310978359187"><ele>525.0</ele><time>2026-04-05T10:10:32Z</time></trkpt><trkpt lat="42.761569617893834" lon="13.672295667115927"><ele>525.0</ele><time>2026-04-05T10:10:33Z</time></trkpt><trkpt lat="42.7614754582119" lon="13.672345837142139"><ele>525.0</ele><time>2026-04-05T10:10:34Z</time></trkpt><trkpt lat="42.76141038339116" lon="13.672436314387076"><ele>525.0</ele><time>2026-04-05T10:10:35Z</time></trkpt><trkpt lat="42.76138149804952" lon="13.672555459443654"><ele>525.0</ele><time>2026-04-05T10:10:36Z</time></trkpt><trkpt lat="42.76140173531447" lon="13.672687994039954"><ele>525.0</ele><time>2026-04-05T10:10:37Z</time></trkpt><trkpt lat="42.761460734239" lon="13.67281555174384"><ele>525.0</ele><time>2026-04-05T10:10:38Z</time></trkpt><trkpt lat="42.76153363527268" lon="13.67295536645859"><ele>525.0</ele><time>2026-04-05T10:10:39Z</time></trkpt><trkpt lat="42.761609918301495" lon="13.673118937565484"><ele>524.6666666666666</ele><time>2026-04-05T10:10:40Z</time></trkpt><trkpt lat="42.76164526685824" lon="13.673316742414402"><ele>524.3333333333333</ele><time>2026-04-05T10:10:41Z</time></trkpt><trkpt lat="42.76168405310183" lon="13.673524583223974"><ele>524.0</ele><time>2026-04-05T10:10:42Z</time></trkpt><trkpt lat="42.7617113790407" lon="13.673741657645559"><ele>522.0</ele><time>2026-04-05T10:10:43Z</time></trkpt><trkpt lat="42.761733362955944" lon="13.673969588212309"><ele>520.0</ele><time>2026-04-05T10:10:44Z</time></trkpt><trkpt lat="42.761767317895405" lon="13.674198287081303"><ele>518.0</ele><time>2026-04-05T10:10:45Z</time></trkpt><trkpt lat="42.76177947106054" lon="13.674411459491397"><ele>517.25</ele><time>2026-04-05T10:10:46Z</time></trkpt><trkpt lat="42.761760589401376" lon="13.674607239786056"><ele>516.5</ele><time>2026-04-05T10:10:47Z</time></trkpt><trkpt lat="42.76175762441075" lon="13.674800646550768"><ele>515.75</ele><time>2026-04-05T10:10:48Z</time></trkpt><trkpt lat="42.76171377099473" lon="13.674995955443055"><ele>515.0</ele><time>2026-04-05T10:10:49Z</time></trkpt><trkpt lat="42.76164236040081" lon="13.675187629408493"><ele>515.0</ele><time>2026-04-05T10:10:50Z</time></trkpt><trkpt lat="42.761549527852075" lon="13.675371688987001"><ele>515.0</ele><time>2026-04-05T10:10:51Z</time></trkpt><trkpt lat="42.76144515699466" lon="13.675524484561459"><ele>515.0</ele><time>2026-04-05T10:10:52Z</time></trkpt><trkpt lat="42.761329878730876" lon="13.675639349541573"><ele>515.0</ele><time>2026-04-05T10:10:53Z</time></trkpt><trkpt lat="42.76120657634415" lon="13.675714463427392"><ele>515.0</ele><time>2026-04-05T10:10:54Z</time></trkpt><trkpt lat="42.76107219363797" lon="13.675749389193829"><ele>515.0</ele><time>2026-04-05T10:10:55Z</time></trkpt><trkpt lat="42.76093382921333" lon="13.675740104455544"><ele>515.0</ele><time>2026-04-05T10:10:56Z</time></trkpt><trkpt lat="42.76079154640399" lon="13.675690158779632"><ele>512.75</ele><time>2026-04-05T10:10:57Z</time></trkpt><trkpt lat="42.76065137637911" lon="13.67558552841924"><ele>510.5</ele><time>2026-04-05T10:10:58Z</time></trkpt><trkpt lat="42.76054099082446" lon="13.675471303452746"><ele>508.25</ele><time>2026-04-05T10:10:59Z</time></trkpt><trkpt lat="42.76044894681652" lon="13.675319032303083"><ele>506.0</ele><time>2026-04-05T10:11:00Z</time></trkpt><trkpt lat="42.76038495806619" lon="13.675144218017024"><ele>506.0</ele><time>2026-04-05T10:11:01Z</time></trkpt><trkpt lat="42.76036516062855" lon="13.674945425744214"><ele>506.0</ele><time>2026-04-05T10:11:02Z</time></trkpt><trkpt lat="42.76032924053432" lon="13.674740294910974"><ele>506.0</ele><time>2026-04-05T10:11:03Z</time></trkpt><trkpt lat="42.760303979658175" lon="13.674523284276399"><ele>507.3333333333333</ele><time>2026-04-05T10:11:04Z</time></trkpt><trkpt lat="42.76026591528808" lon="13.674310211124947"><ele>508.66666666666663</ele><time>2026-04-05T10:11:05Z</time></trkpt><trkpt lat="42.76021106946238" lon="13.674102496263739"><ele>510.0</ele><time>2026-04-05T10:11:06Z</time></trkpt><trkpt lat="42.76014001577331" lon="13.673895683098326"><ele>510.0</ele><time>2026-04-05T10:11:07Z</time></trkpt><trkpt lat="42.76005997829073" lon="13.673686239131351"><ele>510.0</ele><time>2026-04-05T10:11:08Z</time></trkpt><trkpt lat="42.759979058601296" lon="13.673479659922277"><ele>510.0</ele><time>2026-04-05T10:11:09Z</time></trkpt><trkpt lat="42.759896706508584" lon="13.67326904747573"><ele>507.0</ele><time>2026-04-05T10:11:10Z</time></trkpt><trkpt lat="42.75981722927494" lon="13.673073821989755"><ele>504.0</ele><time>2026-04-05T10:11:11Z</time></trkpt><trkpt lat="42.75973275185143" lon="13.67290089170186"><ele>501.0</ele><time>2026-04-05T10:11:12Z</time></trkpt><trkpt lat="42.759626640070486" lon="13.672745518778836"><ele>501.66666666666663</ele><time>2026-04-05T10:11:13Z</time></trkpt><trkpt lat="42.75949335887168" lon="13.672616140553435"><ele>502.3333333333333</ele><time>2026-04-05T10:11:14Z</time></trkpt><trkpt lat="42.759339786828015" lon="13.67250266370033"><ele>503.0</ele><time>2026-04-05T10:11:15Z</time></trkpt><trkpt lat="42.75918050677934" lon="13.672391718523922"><ele>503.0</ele><time>2026-04-05T10:11:16Z</time></trkpt><trkpt lat="42.75902110742013" lon="13.672262609445367"><ele>503.0</ele><time>2026-04-05T10:11:17Z</time></trkpt><trkpt lat="42.75887075246679" lon="13.672114543635908"><ele>503.0</ele><time>2026-04-05T10:11:18Z</time></trkpt><trkpt lat="42.758735485219326" lon="13.67193832613461"><ele>504.3333333333333</ele><time>2026-04-05T10:11:19Z</time></trkpt><trkpt lat="42.75861992348566" lon="13.671747546028516"><ele>505.66666666666663</ele><time>2026-04-05T10:11:20Z</time></trkpt><trkpt lat="42.75851772955173" lon="13.671545186512844"><ele>507.0</ele><time>2026-04-05T10:11:21Z</time></trkpt><trkpt lat="42.75842725716815" lon="13.671344232575475"><ele>507.0</ele><time>2026-04-05T10:11:22Z</time></trkpt><trkpt lat="42.75836142097513" lon="13.671139542209062"><ele>507.0</ele><time>2026-04-05T10:11:23Z</time></trkpt><trkpt lat="42.75831059743756" lon="13.670916676297182"><ele>507.0</ele><time>2026-04-05T10:11:24Z</time></trkpt><trkpt lat="42.758274221119855" lon="13.67067926996567"><ele>504.5</ele><time>2026-04-05T10:11:25Z</time></trkpt><trkpt lat="42.75823555892454" lon="13.670453128687802"><ele>502.0</ele><time>2026-04-05T10:11:26Z</time></trkpt><trkpt lat="42.75819528628115" lon="13.670256195223585"><ele>499.5</ele><time>2026-04-05T10:11:27Z</time></trkpt><trkpt lat="42.758162704937874" lon="13.670104602422844"><ele>497.0</ele><time>2026-04-05T10:11:28Z</time></trkpt><trkpt lat="42.75811524869742" lon="13.669988838466702"><ele>496.5</ele><time>2026-04-05T10:11:29Z</time></trkpt><trkpt lat="42.75803608940097" lon="13.6698821107987"><ele>496.0</ele><time>2026-04-05T10:11:30Z</time></trkpt><trkpt lat="42.75791714965174" lon="13.669811747559491"><ele>495.5</ele><time>2026-04-05T10:11:31Z</time></trkpt><trkpt lat="42.75777421812594" lon="13.669798661666885"><ele>495.0</ele><time>2026-04-05T10:11:32Z</time></trkpt><trkpt lat="42.75762801686737" lon="13.669816543372852"><ele>495.0</ele><time>2026-04-05T10:11:33Z</time></trkpt><trkpt lat="42.75746984051078" lon="13.66986683418235"><ele>495.0</ele><time>2026-04-05T10:11:34Z</time></trkpt><trkpt lat="42.75730320342691" lon="13.669917429174042"><ele>495.0</ele><time>2026-04-05T10:11:35Z</time></trkpt><trkpt lat="42.75712639535754" lon="13.669965235646272"><ele>495.0</ele><time>2026-04-05T10:11:36Z</time></trkpt><trkpt lat="42.75694363398886" lon="13.670003104877175"><ele>495.0</ele><time>2026-04-05T10:11:37Z</time></trkpt><trkpt lat="42.75675630922273" lon="13.670047304705678"><ele>495.0</ele><time>2026-04-05T10:11:38Z</time></trkpt><trkpt lat="42.7565658392929" lon="13.670086059490139"><ele>493.66666666666663</ele><time>2026-04-05T10:11:39Z</time></trkpt><trkpt lat="42.756371538764476" lon="13.670114817020748"><ele>492.3333333333333</ele><time>2026-04-05T10:11:40Z</time></trkpt><trkpt lat="42.75618322501911" lon="13.67013922977139"><ele>491.0</ele><time>2026-04-05T10:11:41Z</time></trkpt><trkpt lat="42.7560207346316" lon="13.670151985233785"><ele>489.6</ele><time>2026-04-05T10:11:42Z</time></trkpt><trkpt lat="42.75588699279609" lon="13.670156096454848"><ele>488.20000000000005</ele><time>2026-04-05T10:11:43Z</time></trkpt><trkpt lat="42.75578751900876" lon="13.670146734094944"><ele>486.79999999999995</ele><time>2026-04-05T10:11:44Z</time></trkpt><trkpt lat="42.75570712059925" lon="13.670104755506937"><ele>485.4</ele><time>2026-04-05T10:11:45Z</time></trkpt><trkpt lat="42.75563751978506" lon="13.670031613522326"><ele>484.0</ele><time>2026-04-05T10:11:46Z</time></trkpt><trkpt lat="42.75559934758969" lon="13.669906478753546"><ele>484.0</ele><time>2026-04-05T10:11:47Z</time></trkpt><trkpt lat="42.75556416781908" lon="13.669756906854394"><ele>484.0</ele><time>2026-04-05T10:11:48Z</time></trkpt><trkpt lat="42.7555118019831" lon="13.66959262214979"><ele>484.0</ele><time>2026-04-05T10:11:49Z</time></trkpt><trkpt lat="42.75546747902292" lon="13.66941091035322"><ele>484.0</ele><time>2026-04-05T10:11:50Z</time></trkpt><trkpt lat="42.75541811715261" lon="13.669217701006929"><ele>483.4</ele><time>2026-04-05T10:11:51Z</time></trkpt><trkpt lat="42.75536820750211" lon="13.669045104786363"><ele>482.79999999999995</ele><time>2026-04-05T10:11:52Z</time></trkpt><trkpt lat="42.75533195694507" lon="13.66891134186734"><ele>482.20000000000005</ele><time>2026-04-05T10:11:53Z</time></trkpt><trkpt lat="42.755312898707196" lon="13.668828487818326"><ele>481.6</ele><time>2026-04-05T10:11:54Z</time></trkpt><trkpt lat="42.755301157049864" lon="13.668735823869524"><ele>481.0</ele><time>2026-04-05T10:11:56Z</time></trkpt><trkpt lat="42.755245922321194" lon="13.668633542027603"><ele>483.0</ele><time>2026-04-05T10:11:58Z</time></trkpt><trkpt lat="42.75517821052974" lon="13.668555489696635"><ele>485.0</ele><time>2026-04-05T10:11:59Z</time></trkpt><trkpt lat="42.75509763331733" lon="13.66846097383958"><ele>487.0</ele><time>2026-04-05T10:12:00Z</time></trkpt><trkpt lat="42.755009797425586" lon="13.668337923926694"><ele>489.0</ele><time>2026-04-05T10:12:01Z</time></trkpt><trkpt lat="42.75491302603761" lon="13.66818104005875"><ele>489.0</ele><time>2026-04-05T10:12:02Z</time></trkpt><trkpt lat="42.75481815513522" lon="13.66801481564994"><ele>489.0</ele><time>2026-04-05T10:12:03Z</time></trkpt><trkpt lat="42.75471730662915" lon="13.667841291000663"><ele>489.0</ele><time>2026-04-05T10:12:04Z</time></trkpt><trkpt lat="42.75461170762639" lon="13.667655090386399"><ele>488.33333333333337</ele><time>2026-04-05T10:12:05Z</time></trkpt><trkpt lat="42.754503681824524" lon="13.667461944812718"><ele>487.6666666666667</ele><time>2026-04-05T10:12:06Z</time></trkpt><trkpt lat="42.75439437166349" lon="13.667260723062348"><ele>487.0</ele><time>2026-04-05T10:12:07Z</time></trkpt><trkpt lat="42.75429040343808" lon="13.667051980556788"><ele>489.0</ele><time>2026-04-05T10:12:08Z</time></trkpt><trkpt lat="42.75419603662483" lon="13.666832843308413"><ele>491.0</ele><time>2026-04-05T10:12:09Z</time></trkpt><trkpt lat="42.754110673840536" lon="13.666599619899431"><ele>493.0</ele><time>2026-04-05T10:12:10Z</time></trkpt><trkpt lat="42.75402641750857" lon="13.666361199401601"><ele>493.0</ele><time>2026-04-05T10:12:11Z</time></trkpt><trkpt lat="42.75393988979163" lon="13.66612706627539"><ele>493.0</ele><time>2026-04-05T10:12:12Z</time></trkpt><trkpt lat="42.75384436977524" lon="13.665914743756945"><ele>493.0</ele><time>2026-04-05T10:12:13Z</time></trkpt><trkpt lat="42.75373247064146" lon="13.6657148311187"><ele>493.6666666666667</ele><time>2026-04-05T10:12:14Z</time></trkpt><trkpt lat="42.75359325508178" lon="13.66553654284127"><ele>494.33333333333337</ele><time>2026-04-05T10:12:15Z</time></trkpt><trkpt lat="42.753438828983974" lon="13.665376349034558"><ele>495.0</ele><time>2026-04-05T10:12:16Z</time></trkpt><trkpt lat="42.75328678581722" lon="13.66522589633521"><ele>495.0</ele><time>2026-04-05T10:12:17Z</time></trkpt><trkpt lat="42.75316207368584" lon="13.665070050463985"><ele>495.0</ele><time>2026-04-05T10:12:18Z</time></trkpt><trkpt lat="42.753066680673165" lon="13.664890050229298"><ele>495.0</ele><time>2026-04-05T10:12:19Z</time></trkpt><trkpt lat="42.75299816378376" lon="13.66468451314588"><ele>495.0</ele><time>2026-04-05T10:12:20Z</time></trkpt><trkpt lat="42.75294241879046" lon="13.664472924795273"><ele>495.0</ele><time>2026-04-05T10:12:21Z</time></trkpt><trkpt lat="42.752890309481" lon="13.664262838166643"><ele>495.0</ele><time>2026-04-05T10:12:22Z</time></trkpt><trkpt lat="42.75284269856379" lon="13.664075657055404"><ele>496.25</ele><time>2026-04-05T10:12:23Z</time></trkpt><trkpt lat="42.7528081595899" lon="13.66390010147824"><ele>497.5</ele><time>2026-04-05T10:12:24Z</time></trkpt><trkpt lat="42.75277589748318" lon="13.66373606459034"><ele>498.75</ele><time>2026-04-05T10:12:25Z</time></trkpt><trkpt lat="42.75275832535672" lon="13.663561082531308"><ele>500.0</ele><time>2026-04-05T10:12:26Z</time></trkpt><trkpt lat="42.75274868535836" lon="13.663371556438458"><ele>500.66666666666663</ele><time>2026-04-05T10:12:27Z</time></trkpt><trkpt lat="42.75273849184883" lon="13.663174526823711"><ele>501.33333333333337</ele><time>2026-04-05T10:12:28Z</time></trkpt><trkpt lat="42.75272698151924" lon="13.662959194706211"><ele>502.0</ele><time>2026-04-05T10:12:29Z</time></trkpt><trkpt lat="42.752716275447526" lon="13.66273513483074"><ele>500.0</ele><time>2026-04-05T10:12:30Z</time></trkpt><trkpt lat="42.752699572143335" lon="13.662510018962484"><ele>498.0</ele><time>2026-04-05T10:12:31Z</time></trkpt><trkpt lat="42.75268232474338" lon="13.66226662675731"><ele>496.0</ele><time>2026-04-05T10:12:32Z</time></trkpt><trkpt lat="42.75265009762476" lon="13.662033653104382"><ele>497.0</ele><time>2026-04-05T10:12:33Z</time></trkpt><trkpt lat="42.75259424596456" lon="13.661815337162833"><ele>498.0</ele><time>2026-04-05T10:12:34Z</time></trkpt><trkpt lat="42.752524727489394" lon="13.66160810605761"><ele>499.0</ele><time>2026-04-05T10:12:35Z</time></trkpt><trkpt lat="42.75243719490421" lon="13.661421099093065"><ele>499.0</ele><time>2026-04-05T10:12:36Z</time></trkpt><trkpt lat="42.75232410698309" lon="13.661260189399979"><ele>499.0</ele><time>2026-04-05T10:12:37Z</time></trkpt><trkpt lat="42.75219281810122" lon="13.66111780045813"><ele>499.0</ele><time>2026-04-05T10:12:38Z</time></trkpt><trkpt lat="42.75205016183923" lon="13.660993793971164"><ele>500.33333333333337</ele><time>2026-04-05T10:12:39Z</time></trkpt><trkpt lat="42.751903436601005" lon="13.660879591853249"><ele>501.66666666666663</ele><time>2026-04-05T10:12:40Z</time></trkpt><trkpt lat="42.751748066395166" lon="13.660776392884046"><ele>503.0</ele><time>2026-04-05T10:12:41Z</time></trkpt><trkpt lat="42.75158853903413" lon="13.660675445421093"><ele>503.0</ele><time>2026-04-05T10:12:42Z</time></trkpt><trkpt lat="42.75142985957322" lon="13.660584223262683"><ele>503.0</ele><time>2026-04-05T10:12:43Z</time></trkpt><trkpt lat="42.751272437018315" lon="13.660497908645022"><ele>503.0</ele><time>2026-04-05T10:12:44Z</time></trkpt><trkpt lat="42.75112068989497" lon="13.660416729484709"><ele>503.25</ele><time>2026-04-05T10:12:45Z</time></trkpt><trkpt lat="42.75097985355346" lon="13.660340476265075"><ele>503.5</ele><time>2026-04-05T10:12:46Z</time></trkpt><trkpt lat="42.75084867347275" lon="13.660261652339809"><ele>503.75</ele><time>2026-04-05T10:12:47Z</time></trkpt><trkpt lat="42.7507228190377" lon="13.660164023923167"><ele>504.0</ele><time>2026-04-05T10:12:48Z</time></trkpt><trkpt lat="42.75060797486807" lon="13.660038121292647"><ele>504.0</ele><time>2026-04-05T10:12:49Z</time></trkpt><trkpt lat="42.750517471056504" lon="13.659898546733956"><ele>504.0</ele><time>2026-04-05T10:12:50Z</time></trkpt><trkpt lat="42.75044995412099" lon="13.659740015713211"><ele>504.0</ele><time>2026-04-05T10:12:51Z</time></trkpt><trkpt lat="42.75040248144712" lon="13.65955820587482"><ele>504.0</ele><time>2026-04-05T10:12:52Z</time></trkpt><trkpt lat="42.750374733438996" lon="13.659345765431816"><ele>506.66666666666663</ele><time>2026-04-05T10:12:53Z</time></trkpt><trkpt lat="42.750361695832574" lon="13.659123702975435"><ele>509.3333333333333</ele><time>2026-04-05T10:12:54Z</time></trkpt><trkpt lat="42.75036135267247" lon="13.658895906844153"><ele>512.0</ele><time>2026-04-05T10:12:55Z</time></trkpt><trkpt lat="42.750365219048845" lon="13.658656849247961"><ele>511.66666666666663</ele><time>2026-04-05T10:12:56Z</time></trkpt><trkpt lat="42.750372881825314" lon="13.65841421484552"><ele>511.33333333333337</ele><time>2026-04-05T10:12:57Z</time></trkpt><trkpt lat="42.75038344197853" lon="13.658205809493918"><ele>511.0</ele><time>2026-04-05T10:12:58Z</time></trkpt><trkpt lat="42.75040917537057" lon="13.658026685563526"><ele>511.0</ele><time>2026-04-05T10:12:59Z</time></trkpt><trkpt lat="42.750460051652134" lon="13.657849749887271"><ele>511.0</ele><time>2026-04-05T10:13:00Z</time></trkpt><trkpt lat="42.75051337091446" lon="13.657662337310333"><ele>511.0</ele><time>2026-04-05T10:13:01Z</time></trkpt><trkpt lat="42.75055305646613" lon="13.65747054084354"><ele>511.0</ele><time>2026-04-05T10:13:02Z</time></trkpt><trkpt lat="42.75058181570541" lon="13.657296558946399"><ele>510.20000000000005</ele><time>2026-04-05T10:13:03Z</time></trkpt><trkpt lat="42.750597247072" lon="13.657135682778977"><ele>509.40000000000003</ele><time>2026-04-05T10:13:04Z</time></trkpt><trkpt lat="42.750602974540456" lon="13.656987430369092"><ele>508.6</ele><time>2026-04-05T10:13:05Z</time></trkpt><trkpt lat="42.75059093692178" lon="13.656844229711732"><ele>507.8</ele><time>2026-04-05T10:13:06Z</time></trkpt><trkpt lat="42.75055478708873" lon="13.656705197374702"><ele>507.0</ele><time>2026-04-05T10:13:07Z</time></trkpt><trkpt lat="42.75049707240825" lon="13.656581692663531"><ele>506.6</ele><time>2026-04-05T10:13:08Z</time></trkpt><trkpt lat="42.75041791250272" lon="13.656482420731034"><ele>506.20000000000005</ele><time>2026-04-05T10:13:09Z</time></trkpt><trkpt lat="42.75032422605279" lon="13.656421808262893"><ele>505.8</ele><time>2026-04-05T10:13:10Z</time></trkpt><trkpt lat="42.75022491449491" lon="13.656407842558696"><ele>505.4</ele><time>2026-04-05T10:13:11Z</time></trkpt><trkpt lat="42.75008881263538" lon="13.656428621395369"><ele>505.0</ele><time>2026-04-05T10:13:13Z</time></trkpt><trkpt lat="42.75003174757033" lon="13.656365726463115"><ele>504.4</ele><time>2026-04-05T10:13:15Z</time></trkpt><trkpt lat="42.750029071831996" lon="13.656219535566978"><ele>503.8</ele><time>2026-04-05T10:13:17Z</time></trkpt><trkpt lat="42.75002106081521" lon="13.656114599146848"><ele>503.20000000000005</ele><time>2026-04-05T10:13:18Z</time></trkpt><trkpt lat="42.75002984812033" lon="13.655996273200051"><ele>502.6</ele><time>2026-04-05T10:13:19Z</time></trkpt><trkpt lat="42.750033167624125" lon="13.655871670192065"><ele>502.0</ele><time>2026-04-05T10:13:20Z</time></trkpt><trkpt lat="42.75003507007667" lon="13.655743304812713"><ele>503.6666666666667</ele><time>2026-04-05T10:13:21Z</time></trkpt><trkpt lat="42.750040070175416" lon="13.655613826741433"><ele>505.33333333333337</ele><time>2026-04-05T10:13:22Z</time></trkpt><trkpt lat="42.750044859876105" lon="13.655484779107498"><ele>507.0</ele><time>2026-04-05T10:13:23Z</time></trkpt><trkpt lat="42.75004732261594" lon="13.655354904074558"><ele>508.66666666666663</ele><time>2026-04-05T10:13:24Z</time></trkpt><trkpt lat="42.750051530748074" lon="13.655240152419202"><ele>510.3333333333333</ele><time>2026-04-05T10:13:25Z</time></trkpt><trkpt lat="42.750063888243666" lon="13.655140144426234"><ele>512.0</ele><time>2026-04-05T10:13:26Z</time></trkpt><trkpt lat="42.75008468174382" lon="13.655039435493617"><ele>511.8333333333333</ele><time>2026-04-05T10:13:27Z</time></trkpt><trkpt lat="42.750120786807166" lon="13.65495186106888"><ele>511.66666666666663</ele><time>2026-04-05T10:13:28Z</time></trkpt><trkpt lat="42.750187544838255" lon="13.654886307634522"><ele>511.5</ele><time>2026-04-05T10:13:29Z</time></trkpt><trkpt lat="42.75024179707483" lon="13.65480136748325"><ele>511.33333333333337</ele><time>2026-04-05T10:13:30Z</time></trkpt><trkpt lat="42.75030984145733" lon="13.654738656487844"><ele>511.1666666666667</ele><time>2026-04-05T10:13:31Z</time></trkpt><trkpt lat="42.75038800002842" lon="13.654667778467372"><ele>511.0</ele><time>2026-04-05T10:13:32Z</time></trkpt><trkpt lat="42.75046923992047" lon="13.654599529875005"><ele>511.00000000000006</ele><time>2026-04-05T10:13:33Z</time></trkpt><trkpt lat="42.75055243420007" lon="13.654530376601318"><ele>511.0</ele><time>2026-04-05T10:13:34Z</time></trkpt><trkpt lat="42.75062623300085" lon="13.654474608497013"><ele>511.0</ele><time>2026-04-05T10:13:35Z</time></trkpt><trkpt lat="42.7506971054314" lon="13.654414506806445"><ele>511.0</ele><time>2026-04-05T10:13:36Z</time></trkpt><trkpt lat="42.75077589197176" lon="13.654388223857692"><ele>511.00000000000006</ele><time>2026-04-05T10:13:37Z</time></trkpt><trkpt lat="42.750844891458236" lon="13.65436490665175"><ele>511.0</ele><time>2026-04-05T10:13:38Z</time></trkpt><trkpt lat="42.750923604175725" lon="13.654344018522847"><ele>512.0</ele><time>2026-04-05T10:13:40Z</time></trkpt><trkpt lat="42.75098716536683" lon="13.654333148807881"><ele>513.0</ele><time>2026-04-05T10:13:57Z</time></trkpt><trkpt lat="42.75105132202791" lon="13.654329160681653"><ele>514.0</ele><time>2026-04-05T10:13:59Z</time></trkpt><trkpt lat="42.75104301688887" lon="13.654115215532524"><ele>515.0</ele><time>2026-04-05T10:14:01Z</time></trkpt><trkpt lat="42.75102495506898" lon="13.653976055662806"><ele>516.0</ele><time>2026-04-05T10:14:03Z</time></trkpt><trkpt lat="42.75099639048895" lon="13.653899579507994"><ele>517.0</ele><time>2026-04-05T10:14:05Z</time></trkpt><trkpt lat="42.75096198564383" lon="13.65382276250149"><ele>518.0</ele><time>2026-04-05T10:14:07Z</time></trkpt><trkpt lat="42.75090115386299" lon="13.653766933923377"><ele>519.0</ele><time>2026-04-05T10:14:08Z</time></trkpt><trkpt lat="42.750845752747345" lon="13.65372318349358"><ele>520.0</ele><time>2026-04-05T10:14:09Z</time></trkpt><trkpt lat="42.75078099760666" lon="13.653684379895397"><ele>521.0</ele><time>2026-04-05T10:14:10Z</time></trkpt><trkpt lat="42.75069366742284" lon="13.653581689245998"><ele>522.0</ele><time>2026-04-05T10:14:12Z</time></trkpt><trkpt lat="42.75066300328696" lon="13.653488745212114"><ele>522.0</ele><time>2026-04-05T10:14:14Z</time></trkpt><trkpt lat="42.75064981121811" lon="13.653391590841503"><ele>522.0</ele><time>2026-04-05T10:14:16Z</time></trkpt><trkpt lat="42.75063831417625" lon="13.653303770687673"><ele>522.0</ele><time>2026-04-05T10:14:17Z</time></trkpt><trkpt lat="42.75067621522446" lon="13.65312151957881"><ele>522.0</ele><time>2026-04-05T10:14:19Z</time></trkpt><trkpt lat="42.7506852199164" lon="13.653028384997814"><ele>522.0</ele><time>2026-04-05T10:14:21Z</time></trkpt><trkpt lat="42.75071899319777" lon="13.652923095820027"><ele>522.0</ele><time>2026-04-05T10:14:23.999Z</time></trkpt><trkpt lat="42.75060470317597" lon="13.65284299285367"><ele>522.0</ele><time>2026-04-05T10:14:24.999Z</time></trkpt><trkpt lat="42.75054363821698" lon="13.652796092347284"><ele>522.0</ele><time>2026-04-05T10:14:25.999Z</time></trkpt><trkpt lat="42.750478140699165" lon="13.652756847186552"><ele>522.0</ele><time>2026-04-05T10:14:26.999Z</time></trkpt><trkpt lat="42.75041165043327" lon="13.652683337297145"><ele>522.0</ele><time>2026-04-05T10:14:27.999Z</time></trkpt><trkpt lat="42.75033082660123" lon="13.652646460873846"><ele>522.0</ele><time>2026-04-05T10:14:28.999Z</time></trkpt><trkpt lat="42.750250903318125" lon="13.652579665939124"><ele>522.0</ele><time>2026-04-05T10:14:29.999Z</time></trkpt><trkpt lat="42.750162186362154" lon="13.65251017565971"><ele>521.8000000000001</ele><time>2026-04-05T10:14:30.999Z</time></trkpt><trkpt lat="42.75007401872198" lon="13.652443546507746"><ele>521.6</ele><time>2026-04-05T10:14:32Z</time></trkpt><trkpt lat="42.74998795778524" lon="13.652379074603783"><ele>521.4000000000001</ele><time>2026-04-05T10:14:33Z</time></trkpt><trkpt lat="42.74990473630602" lon="13.652316525297877"><ele>521.2</ele><time>2026-04-05T10:14:34Z</time></trkpt><trkpt lat="42.749824423847855" lon="13.652257382427477"><ele>521.0</ele><time>2026-04-05T10:14:35Z</time></trkpt><trkpt lat="42.749743629639944" lon="13.65219608091259"><ele>521.0</ele><time>2026-04-05T10:14:36Z</time></trkpt><trkpt lat="42.749659710628414" lon="13.652137052890573"><ele>521.0</ele><time>2026-04-05T10:14:37Z</time></trkpt><trkpt lat="42.74956864952903" lon="13.652087003030713"><ele>521.0</ele><time>2026-04-05T10:14:38Z</time></trkpt><trkpt lat="42.749473303594165" lon="13.652052250699727"><ele>521.0</ele><time>2026-04-05T10:14:39Z</time></trkpt><trkpt lat="42.74937009261789" lon="13.65203823502375"><ele>521.0</ele><time>2026-04-05T10:14:40Z</time></trkpt><trkpt lat="42.7492651432822" lon="13.652043138689526"><ele>520.6666666666666</ele><time>2026-04-05T10:14:41Z</time></trkpt><trkpt lat="42.749168239767876" lon="13.65206517806907"><ele>520.3333333333333</ele><time>2026-04-05T10:14:42Z</time></trkpt><trkpt lat="42.749084320022" lon="13.652090342207114"><ele>520.0</ele><time>2026-04-05T10:14:43Z</time></trkpt><trkpt lat="42.74901371864703" lon="13.652117265151643"><ele>519.6666666666666</ele><time>2026-04-05T10:14:44Z</time></trkpt><trkpt lat="42.748952112466576" lon="13.65214627818545"><ele>519.3333333333334</ele><time>2026-04-05T10:14:45Z</time></trkpt><trkpt lat="42.74888947740114" lon="13.652180314291433"><ele>519.0</ele><time>2026-04-05T10:14:46Z</time></trkpt><trkpt lat="42.74881017957333" lon="13.652188881976585"><ele>519.0</ele><time>2026-04-05T10:14:47Z</time></trkpt><trkpt lat="42.74872582883282" lon="13.652224602928884"><ele>519.0</ele><time>2026-04-05T10:14:48Z</time></trkpt><trkpt lat="42.748570477285895" lon="13.65218108139015"><ele>519.0</ele><time>2026-04-05T10:14:50Z</time></trkpt><trkpt lat="42.748501774555606" lon="13.65214651415977"><ele>519.0</ele><time>2026-04-05T10:14:51Z</time></trkpt><trkpt lat="42.748445308441774" lon="13.652091897780505"><ele>519.0</ele><time>2026-04-05T10:14:52Z</time></trkpt><trkpt lat="42.74843324430813" lon="13.651980758461667"><ele>519.4</ele><time>2026-04-05T10:14:54Z</time></trkpt><trkpt lat="42.74828818923192" lon="13.652018486712885"><ele>519.8</ele><time>2026-04-05T10:14:58Z</time></trkpt><trkpt lat="42.74821440728735" lon="13.652018411708967"><ele>520.2</ele><time>2026-04-05T10:14:59Z</time></trkpt><trkpt lat="42.74813060500887" lon="13.652015839753316"><ele>520.6</ele><time>2026-04-05T10:15:00Z</time></trkpt><trkpt lat="42.74805503021208" lon="13.652016854420008"><ele>521.0</ele><time>2026-04-05T10:15:01Z</time></trkpt><trkpt lat="42.74797762821945" lon="13.652022569140689"><ele>521.0</ele><time>2026-04-05T10:15:02Z</time></trkpt><trkpt lat="42.7478945570198" lon="13.652000887765485"><ele>521.0</ele><time>2026-04-05T10:15:03Z</time></trkpt><trkpt lat="42.74780935002068" lon="13.652002794095145"><ele>521.0</ele><time>2026-04-05T10:15:04Z</time></trkpt><trkpt lat="42.74773223002533" lon="13.652006020873312"><ele>521.0</ele><time>2026-04-05T10:15:05Z</time></trkpt><trkpt lat="42.747657673595256" lon="13.652012182813573"><ele>521.0</ele><time>2026-04-05T10:15:06Z</time></trkpt><trkpt lat="42.74758058367765" lon="13.65202451848936"><ele>521.0</ele><time>2026-04-05T10:15:07Z</time></trkpt><trkpt lat="42.747495717179056" lon="13.652060474691735"><ele>522.6</ele><time>2026-04-05T10:15:08Z</time></trkpt><trkpt lat="42.7474150439951" lon="13.652098951440891"><ele>524.2</ele><time>2026-04-05T10:15:09Z</time></trkpt><trkpt lat="42.74732257164653" lon="13.652139660052505"><ele>525.8</ele><time>2026-04-05T10:15:10Z</time></trkpt><trkpt lat="42.74722844988053" lon="13.652202629568825"><ele>527.4</ele><time>2026-04-05T10:15:11Z</time></trkpt><trkpt lat="42.74713438872326" lon="13.65223327221402"><ele>529.0</ele><time>2026-04-05T10:15:12Z</time></trkpt><trkpt lat="42.747043410295035" lon="13.652272019040074"><ele>529.0</ele><time>2026-04-05T10:15:13Z</time></trkpt><trkpt lat="42.746950905988975" lon="13.65228396529763"><ele>529.0</ele><time>2026-04-05T10:15:14Z</time></trkpt><trkpt lat="42.7468574800327" lon="13.65232491293208"><ele>529.0</ele><time>2026-04-05T10:15:15Z</time></trkpt><trkpt lat="42.74676648109385" lon="13.652380185780912"><ele>529.0</ele><time>2026-04-05T10:15:16Z</time></trkpt><trkpt lat="42.746680888831754" lon="13.652452248237692"><ele>529.0</ele><time>2026-04-05T10:15:17Z</time></trkpt><trkpt lat="42.74660874618097" lon="13.652552788271901"><ele>528.8333333333334</ele><time>2026-04-05T10:15:18Z</time></trkpt><trkpt lat="42.74650734966622" lon="13.652588267923253"><ele>528.6666666666667</ele><time>2026-04-05T10:15:19Z</time></trkpt><trkpt lat="42.74641757111341" lon="13.652637712142846"><ele>528.5</ele><time>2026-04-05T10:15:20Z</time></trkpt><trkpt lat="42.74633970219051" lon="13.6526878347655"><ele>528.3333333333334</ele><time>2026-04-05T10:15:21Z</time></trkpt><trkpt lat="42.74625748869663" lon="13.652704619170951"><ele>528.1666666666666</ele><time>2026-04-05T10:15:22Z</time></trkpt><trkpt lat="42.74617955026927" lon="13.652713693167783"><ele>528.0</ele><time>2026-04-05T10:15:23Z</time></trkpt><trkpt lat="42.7460889862176" lon="13.652720173487564"><ele>527.6666666666666</ele><time>2026-04-05T10:15:24Z</time></trkpt><trkpt lat="42.74599613367742" lon="13.652699519220644"><ele>527.3333333333334</ele><time>2026-04-05T10:15:25Z</time></trkpt><trkpt lat="42.745907758398296" lon="13.652718221683912"><ele>527.0</ele><time>2026-04-05T10:15:26Z</time></trkpt><trkpt lat="42.74581833009137" lon="13.6527121333671"><ele>526.6666666666667</ele><time>2026-04-05T10:15:27Z</time></trkpt><trkpt lat="42.74572719271401" lon="13.652693921755617"><ele>526.3333333333334</ele><time>2026-04-05T10:15:28Z</time></trkpt><trkpt lat="42.74564442033233" lon="13.65268527779308"><ele>526.0</ele><time>2026-04-05T10:15:29Z</time></trkpt><trkpt lat="42.74557892223087" lon="13.652677899056613"><ele>526.0</ele><time>2026-04-05T10:15:30Z</time></trkpt><trkpt lat="42.745484242166405" lon="13.652668045747086"><ele>526.0</ele><time>2026-04-05T10:15:32Z</time></trkpt><trkpt lat="42.74542001044898" lon="13.652651354434827"><ele>526.0</ele><time>2026-04-05T10:15:34Z</time></trkpt><trkpt lat="42.74550173056287" lon="13.652676245196558"><ele>526.0</ele><time>2026-04-05T10:17:43Z</time></trkpt><trkpt lat="42.745585608225255" lon="13.652676957100388"><ele>526.0</ele><time>2026-04-05T10:17:45Z</time></trkpt><trkpt lat="42.745690551718035" lon="13.652679178490706"><ele>526.0</ele><time>2026-04-05T10:17:47Z</time></trkpt><trkpt lat="42.74581347575003" lon="13.652697434121244"><ele>526.0</ele><time>2026-04-05T10:17:49Z</time></trkpt><trkpt lat="42.74588556579436" lon="13.65270969072068"><ele>526.0</ele><time>2026-04-05T10:17:50Z</time></trkpt><trkpt lat="42.746004602754724" lon="13.652716109040558"><ele>526.0</ele><time>2026-04-05T10:17:51Z</time></trkpt><trkpt lat="42.746105767882135" lon="13.652721907568228"><ele>526.0</ele><time>2026-04-05T10:17:52Z</time></trkpt><trkpt lat="42.74618738346459" lon="13.652706954935772"><ele>526.0</ele><time>2026-04-05T10:17:52.999Z</time></trkpt><trkpt lat="42.746266555316595" lon="13.652696674847313"><ele>526.3333333333334</ele><time>2026-04-05T10:17:53.999Z</time></trkpt><trkpt lat="42.74634536831483" lon="13.65268587577333"><ele>526.6666666666667</ele><time>2026-04-05T10:17:54.999Z</time></trkpt><trkpt lat="42.74642579621314" lon="13.652657860399836"><ele>527.0</ele><time>2026-04-05T10:17:55.999Z</time></trkpt><trkpt lat="42.74650147918538" lon="13.652621160572439"><ele>527.3333333333334</ele><time>2026-04-05T10:17:56.999Z</time></trkpt><trkpt lat="42.74657676587712" lon="13.652571842913385"><ele>527.6666666666666</ele><time>2026-04-05T10:17:57.999Z</time></trkpt><trkpt lat="42.74665254655366" lon="13.652515911795314"><ele>528.0</ele><time>2026-04-05T10:17:58.999Z</time></trkpt><trkpt lat="42.74672138899399" lon="13.652451855583145"><ele>528.0</ele><time>2026-04-05T10:17:59.999Z</time></trkpt><trkpt lat="42.74678252466168" lon="13.652396890569001"><ele>528.0</ele><time>2026-04-05T10:18:00.999Z</time></trkpt><trkpt lat="42.746838478003774" lon="13.65235576090247"><ele>528.0</ele><time>2026-04-05T10:18:01.999Z</time></trkpt><trkpt lat="42.74694427726916" lon="13.652305479860301"><ele>528.0</ele><time>2026-04-05T10:18:03.999Z</time></trkpt><trkpt lat="42.74705059064036" lon="13.652267956816988"><ele>528.0</ele><time>2026-04-05T10:18:05.999Z</time></trkpt><trkpt lat="42.74716075752703" lon="13.65223102005404"><ele>528.1666666666666</ele><time>2026-04-05T10:18:07.999Z</time></trkpt><trkpt lat="42.74726874683564" lon="13.652194183191297"><ele>528.3333333333334</ele><time>2026-04-05T10:18:09.999Z</time></trkpt><trkpt lat="42.74736314251613" lon="13.652156164793302"><ele>528.5</ele><time>2026-04-05T10:18:11.999Z</time></trkpt><trkpt lat="42.747440399904576" lon="13.652118586584997"><ele>528.6666666666667</ele><time>2026-04-05T10:18:13.999Z</time></trkpt><trkpt lat="42.74750510536752" lon="13.652079280690518"><ele>528.8333333333334</ele><time>2026-04-05T10:18:15.999Z</time></trkpt><trkpt lat="42.747566784440444" lon="13.652049218124278"><ele>529.0</ele><time>2026-04-05T10:18:17.999Z</time></trkpt><trkpt lat="42.74763327796143" lon="13.652033903453042"><ele>529.0</ele><time>2026-04-05T10:18:19.999Z</time></trkpt><trkpt lat="42.747704215068275" lon="13.652030956742582"><ele>529.0</ele><time>2026-04-05T10:18:21.999Z</time></trkpt><trkpt lat="42.74778918606189" lon="13.652048848757042"><ele>529.0</ele><time>2026-04-05T10:18:23.999Z</time></trkpt><trkpt lat="42.74788931714581" lon="13.652024901116249"><ele>529.0</ele><time>2026-04-05T10:18:25.999Z</time></trkpt><trkpt lat="42.74797445551446" lon="13.652045393475014"><ele>529.0</ele><time>2026-04-05T10:18:27.999Z</time></trkpt><trkpt lat="42.74805709649775" lon="13.652045421271989"><ele>529.0</ele><time>2026-04-05T10:18:29.999Z</time></trkpt><trkpt lat="42.748136053283844" lon="13.652047109284958"><ele>527.6666666666667</ele><time>2026-04-05T10:18:31.999Z</time></trkpt><trkpt lat="42.748221134406506" lon="13.652048928243829"><ele>526.3333333333334</ele><time>2026-04-05T10:18:33.999Z</time></trkpt><trkpt lat="42.74830549515484" lon="13.652056063128157"><ele>525.0</ele><time>2026-04-05T10:18:35.999Z</time></trkpt><trkpt lat="42.74837086288658" lon="13.65204336238571"><ele>523.6666666666666</ele><time>2026-04-05T10:18:37.999Z</time></trkpt><trkpt lat="42.748407553931244" lon="13.651883953374773"><ele>522.3333333333333</ele><time>2026-04-05T10:18:47Z</time></trkpt><trkpt lat="42.74838548078875" lon="13.651800960853393"><ele>521.0</ele><time>2026-04-05T10:18:48Z</time></trkpt><trkpt lat="42.74835412088079" lon="13.651711031546109"><ele>519.6666666666666</ele><time>2026-04-05T10:18:49Z</time></trkpt><trkpt lat="42.74832351554935" lon="13.651615227976214"><ele>518.3333333333333</ele><time>2026-04-05T10:18:50Z</time></trkpt><trkpt lat="42.7482860619141" lon="13.651520268009605"><ele>517.0</ele><time>2026-04-05T10:18:51Z</time></trkpt><trkpt lat="42.74823056018206" lon="13.651440230557549"><ele>515.6666666666666</ele><time>2026-04-05T10:18:52Z</time></trkpt><trkpt lat="42.748166410391214" lon="13.651372666071746"><ele>514.3333333333334</ele><time>2026-04-05T10:18:53Z</time></trkpt><trkpt lat="42.74808994169296" lon="13.65133204080562"><ele>513.0</ele><time>2026-04-05T10:18:54Z</time></trkpt><trkpt lat="42.74800589274243" lon="13.651307179870942"><ele>513.0</ele><time>2026-04-05T10:18:55Z</time></trkpt><trkpt lat="42.747927072692534" lon="13.651303082356895"><ele>513.0</ele><time>2026-04-05T10:18:56Z</time></trkpt><trkpt lat="42.74784767294266" lon="13.651312204479172"><ele>513.0</ele><time>2026-04-05T10:18:57Z</time></trkpt><trkpt lat="42.74776570414976" lon="13.651323165992466"><ele>513.0</ele><time>2026-04-05T10:18:58Z</time></trkpt><trkpt lat="42.74768684674736" lon="13.651333474125694"><ele>513.0</ele><time>2026-04-05T10:18:59Z</time></trkpt><trkpt lat="42.74761207722448" lon="13.651340175196076"><ele>513.0</ele><time>2026-04-05T10:19:00Z</time></trkpt><trkpt lat="42.74753678454116" lon="13.651340748283442"><ele>513.2857142857143</ele><time>2026-04-05T10:19:01Z</time></trkpt><trkpt lat="42.7474658543883" lon="13.651316117021315"><ele>513.5714285714286</ele><time>2026-04-05T10:19:02Z</time></trkpt><trkpt lat="42.74740180034746" lon="13.651273290400276"><ele>513.8571428571429</ele><time>2026-04-05T10:19:03Z</time></trkpt><trkpt lat="42.747353657158946" lon="13.651206120073256"><ele>514.1428571428571</ele><time>2026-04-05T10:19:04Z</time></trkpt><trkpt lat="42.747323841064244" lon="13.651124702134817"><ele>514.4285714285714</ele><time>2026-04-05T10:19:05Z</time></trkpt><trkpt lat="42.747316834632905" lon="13.651038192058401"><ele>514.7142857142858</ele><time>2026-04-05T10:19:06Z</time></trkpt><trkpt lat="42.74732812302759" lon="13.650944736309235"><ele>515.0</ele><time>2026-04-05T10:19:07Z</time></trkpt><trkpt lat="42.74735617695412" lon="13.65084747977181"><ele>515.0</ele><time>2026-04-05T10:19:08Z</time></trkpt><trkpt lat="42.74739819404538" lon="13.650749677161604"><ele>515.0</ele><time>2026-04-05T10:19:09Z</time></trkpt><trkpt lat="42.747463189559824" lon="13.650662918177128"><ele>515.0</ele><time>2026-04-05T10:19:10Z</time></trkpt><trkpt lat="42.747528641600425" lon="13.650572289490437"><ele>515.0</ele><time>2026-04-05T10:19:11Z</time></trkpt><trkpt lat="42.74759812204455" lon="13.650483933645708"><ele>515.0</ele><time>2026-04-05T10:19:12Z</time></trkpt><trkpt lat="42.74766991404583" lon="13.650390763142621"><ele>513.8</ele><time>2026-04-05T10:19:13Z</time></trkpt><trkpt lat="42.74774429124783" lon="13.650294238094084"><ele>512.6</ele><time>2026-04-05T10:19:14Z</time></trkpt><trkpt lat="42.747821202674864" lon="13.650195437028392"><ele>511.4</ele><time>2026-04-05T10:19:15Z</time></trkpt><trkpt lat="42.74789754814564" lon="13.650097718098777"><ele>510.2</ele><time>2026-04-05T10:19:16Z</time></trkpt><trkpt lat="42.747979151180026" lon="13.649993269735509"><ele>509.0</ele><time>2026-04-05T10:19:17Z</time></trkpt><trkpt lat="42.748060761632466" lon="13.649888811916862"><ele>509.0</ele><time>2026-04-05T10:19:18Z</time></trkpt><trkpt lat="42.74813577119239" lon="13.649792803086681"><ele>509.0</ele><time>2026-04-05T10:19:19Z</time></trkpt><trkpt lat="42.74820735919154" lon="13.649701173586482"><ele>509.0</ele><time>2026-04-05T10:19:20Z</time></trkpt><trkpt lat="42.74828197960321" lon="13.64960591464652"><ele>509.0</ele><time>2026-04-05T10:19:21Z</time></trkpt><trkpt lat="42.748353037463325" lon="13.649515269139599"><ele>509.0</ele><time>2026-04-05T10:19:22Z</time></trkpt><trkpt lat="42.748421157713636" lon="13.649427395510115"><ele>509.49999999999994</ele><time>2026-04-05T10:19:23Z</time></trkpt><trkpt lat="42.74847048353626" lon="13.649327770610215"><ele>510.0</ele><time>2026-04-05T10:19:24Z</time></trkpt><trkpt lat="42.748521670579734" lon="13.649249388522138"><ele>510.5</ele><time>2026-04-05T10:19:25Z</time></trkpt><trkpt lat="42.74856154459043" lon="13.64916780400056"><ele>511.0</ele><time>2026-04-05T10:19:26Z</time></trkpt><trkpt lat="42.74858485311823" lon="13.64906574268232"><ele>511.49999999999994</ele><time>2026-04-05T10:19:27Z</time></trkpt><trkpt lat="42.74858616806653" lon="13.648953705677627"><ele>512.0</ele><time>2026-04-05T10:19:28Z</time></trkpt><trkpt lat="42.748569196905194" lon="13.648835915151507"><ele>510.8333333333333</ele><time>2026-04-05T10:19:29Z</time></trkpt><trkpt lat="42.748548867755275" lon="13.64872461043382"><ele>509.66666666666663</ele><time>2026-04-05T10:19:30Z</time></trkpt><trkpt lat="42.748525995976394" lon="13.648609049634677"><ele>508.5</ele><time>2026-04-05T10:19:31Z</time></trkpt><trkpt lat="42.748500288761214" lon="13.648493437144754"><ele>507.33333333333337</ele><time>2026-04-05T10:19:32Z</time></trkpt><trkpt lat="42.74846990140142" lon="13.648374121899291"><ele>506.1666666666667</ele><time>2026-04-05T10:19:33Z</time></trkpt><trkpt lat="42.74843485436182" lon="13.648260305741621"><ele>505.0</ele><time>2026-04-05T10:19:34Z</time></trkpt><trkpt lat="42.748396396703484" lon="13.648152650108605"><ele>505.0</ele><time>2026-04-05T10:19:35Z</time></trkpt><trkpt lat="42.74833843152797" lon="13.648054709888195"><ele>505.0</ele><time>2026-04-05T10:19:36Z</time></trkpt><trkpt lat="42.74826609756799" lon="13.647954054160023"><ele>505.0</ele><time>2026-04-05T10:19:37Z</time></trkpt><trkpt lat="42.74818440919525" lon="13.647856811557036"><ele>505.0</ele><time>2026-04-05T10:19:38Z</time></trkpt><trkpt lat="42.74810099920062" lon="13.647761193768893"><ele>505.0</ele><time>2026-04-05T10:19:39Z</time></trkpt><trkpt lat="42.74802271895898" lon="13.64767462575137"><ele>504.4</ele><time>2026-04-05T10:19:40Z</time></trkpt><trkpt lat="42.747945400202624" lon="13.647607283186565"><ele>503.8</ele><time>2026-04-05T10:19:41Z</time></trkpt><trkpt lat="42.74786647416802" lon="13.64755612206649"><ele>503.20000000000005</ele><time>2026-04-05T10:19:42Z</time></trkpt><trkpt lat="42.74777837112184" lon="13.64751616034723"><ele>502.6</ele><time>2026-04-05T10:19:43Z</time></trkpt><trkpt lat="42.74767664582268" lon="13.647487134092977"><ele>502.0</ele><time>2026-04-05T10:19:44Z</time></trkpt><trkpt lat="42.74756640937388" lon="13.647471478207295"><ele>502.0</ele><time>2026-04-05T10:19:45Z</time></trkpt><trkpt lat="42.7474575231427" lon="13.64745281221203"><ele>502.00000000000006</ele><time>2026-04-05T10:19:46Z</time></trkpt><trkpt lat="42.7473517376684" lon="13.647431626805805"><ele>502.00000000000006</ele><time>2026-04-05T10:19:47Z</time></trkpt><trkpt lat="42.74726500439835" lon="13.647413137942541"><ele>502.0</ele><time>2026-04-05T10:19:48Z</time></trkpt><trkpt lat="42.74717818224745" lon="13.647391516598372"><ele>502.0</ele><time>2026-04-05T10:19:49Z</time></trkpt><trkpt lat="42.74709174477988" lon="13.647354649357288"><ele>502.00000000000006</ele><time>2026-04-05T10:19:50Z</time></trkpt><trkpt lat="42.74701765541228" lon="13.647306092431341"><ele>502.0</ele><time>2026-04-05T10:19:51Z</time></trkpt><trkpt lat="42.74696517058478" lon="13.647240649085147"><ele>502.0</ele><time>2026-04-05T10:19:52Z</time></trkpt><trkpt lat="42.746921659854976" lon="13.647155096621875"><ele>502.0</ele><time>2026-04-05T10:19:53Z</time></trkpt><trkpt lat="42.7468652481439" lon="13.647061056780865"><ele>502.00000000000006</ele><time>2026-04-05T10:19:54Z</time></trkpt><trkpt lat="42.74681212199797" lon="13.646957194688243"><ele>502.0</ele><time>2026-04-05T10:19:54.999Z</time></trkpt><trkpt lat="42.746775043631494" lon="13.646842289540173"><ele>503.1666666666667</ele><time>2026-04-05T10:19:55.999Z</time></trkpt><trkpt lat="42.746758146934454" lon="13.646721246943184"><ele>504.33333333333337</ele><time>2026-04-05T10:19:56.999Z</time></trkpt><trkpt lat="42.746751464133325" lon="13.646613374945984"><ele>505.5</ele><time>2026-04-05T10:19:57.999Z</time></trkpt><trkpt lat="42.74676050563539" lon="13.646507258810558"><ele>506.66666666666663</ele><time>2026-04-05T10:19:58.999Z</time></trkpt><trkpt lat="42.74676472365343" lon="13.646388145423424"><ele>507.8333333333333</ele><time>2026-04-05T10:19:59.999Z</time></trkpt><trkpt lat="42.74677072060945" lon="13.646265417183683"><ele>509.0</ele><time>2026-04-05T10:20:00.999Z</time></trkpt><trkpt lat="42.74676461586783" lon="13.646132265816249"><ele>509.79999999999995</ele><time>2026-04-05T10:20:01.999Z</time></trkpt><trkpt lat="42.746745765380055" lon="13.645999781046765"><ele>510.59999999999997</ele><time>2026-04-05T10:20:02.999Z</time></trkpt><trkpt lat="42.74671230457834" lon="13.64586429216784"><ele>511.4</ele><time>2026-04-05T10:20:03.999Z</time></trkpt><trkpt lat="42.74668730198826" lon="13.645733774586205"><ele>512.1999999999999</ele><time>2026-04-05T10:20:04.999Z</time></trkpt><trkpt lat="42.74669488585598" lon="13.645616436810638"><ele>513.0</ele><time>2026-04-05T10:20:05.999Z</time></trkpt><trkpt lat="42.74673540086064" lon="13.645525215217084"><ele>513.0</ele><time>2026-04-05T10:20:06.999Z</time></trkpt><trkpt lat="42.74680599644573" lon="13.64547450641643"><ele>513.0</ele><time>2026-04-05T10:20:07.999Z</time></trkpt><trkpt lat="42.74691386149614" lon="13.645412746797165"><ele>513.0</ele><time>2026-04-05T10:20:09.999Z</time></trkpt><trkpt lat="42.74699292959457" lon="13.645377253101124"><ele>513.0</ele><time>2026-04-05T10:20:10.999Z</time></trkpt><trkpt lat="42.74708899005907" lon="13.64533688042233"><ele>513.0</ele><time>2026-04-05T10:20:11.999Z</time></trkpt><trkpt lat="42.74719119033641" lon="13.645293927576198"><ele>513.4</ele><time>2026-04-05T10:20:12.999Z</time></trkpt><trkpt lat="42.74728907911328" lon="13.645229434004687"><ele>513.8</ele><time>2026-04-05T10:20:13.999Z</time></trkpt><trkpt lat="42.747385091159934" lon="13.645199178201555"><ele>514.2</ele><time>2026-04-05T10:20:14.999Z</time></trkpt><trkpt lat="42.74747655356665" lon="13.645163537147122"><ele>514.6</ele><time>2026-04-05T10:20:15.999Z</time></trkpt><trkpt lat="42.74757654396806" lon="13.645129753247952"><ele>515.0</ele><time>2026-04-05T10:20:16.999Z</time></trkpt><trkpt lat="42.747675927058246" lon="13.64508955398702"><ele>513.8</ele><time>2026-04-05T10:20:17.999Z</time></trkpt><trkpt lat="42.747764280462484" lon="13.645039128955213"><ele>512.6</ele><time>2026-04-05T10:20:18.999Z</time></trkpt><trkpt lat="42.747850823384155" lon="13.644971768260454"><ele>511.4</ele><time>2026-04-05T10:20:19.999Z</time></trkpt><trkpt lat="42.74793514490867" lon="13.64487491465434"><ele>510.2</ele><time>2026-04-05T10:20:20.999Z</time></trkpt><trkpt lat="42.74801703280204" lon="13.644761680348621"><ele>509.0</ele><time>2026-04-05T10:20:21.999Z</time></trkpt><trkpt lat="42.7480883174459" lon="13.644642308743812"><ele>509.0</ele><time>2026-04-05T10:20:22.999Z</time></trkpt><trkpt lat="42.748150942772355" lon="13.644518268168271"><ele>509.0</ele><time>2026-04-05T10:20:23.999Z</time></trkpt><trkpt lat="42.748207711276706" lon="13.644397885653305"><ele>509.0</ele><time>2026-04-05T10:20:24.999Z</time></trkpt><trkpt lat="42.74825872965655" lon="13.644283051796759"><ele>509.0</ele><time>2026-04-05T10:20:25.999Z</time></trkpt><trkpt lat="42.74830083900071" lon="13.644176405685402"><ele>509.0</ele><time>2026-04-05T10:20:26.999Z</time></trkpt><trkpt lat="42.748336142544204" lon="13.644073319201544"><ele>509.16666666666663</ele><time>2026-04-05T10:20:27.999Z</time></trkpt><trkpt lat="42.74836561577476" lon="13.643966480239545"><ele>509.3333333333333</ele><time>2026-04-05T10:20:28.999Z</time></trkpt><trkpt lat="42.748390989840885" lon="13.643852126286436"><ele>509.5</ele><time>2026-04-05T10:20:29.999Z</time></trkpt><trkpt lat="42.74841166523614" lon="13.643741153867806"><ele>509.66666666666663</ele><time>2026-04-05T10:20:30.999Z</time></trkpt><trkpt lat="42.748428420319335" lon="13.643641315981169"><ele>509.8333333333333</ele><time>2026-04-05T10:20:31.999Z</time></trkpt><trkpt lat="42.748444738801446" lon="13.64354038020283"><ele>510.0</ele><time>2026-04-05T10:20:32.999Z</time></trkpt><trkpt lat="42.748461164790875" lon="13.643442822350677"><ele>510.6</ele><time>2026-04-05T10:20:33.999Z</time></trkpt><trkpt lat="42.74849035911883" lon="13.643299184999478"><ele>511.2</ele><time>2026-04-05T10:20:35.999Z</time></trkpt><trkpt lat="42.748524081914766" lon="13.643158009096258"><ele>511.79999999999995</ele><time>2026-04-05T10:20:37.999Z</time></trkpt><trkpt lat="42.74855598669815" lon="13.643068937294112"><ele>512.4</ele><time>2026-04-05T10:20:38.999Z</time></trkpt><trkpt lat="42.7485909180158" lon="13.642956529547728"><ele>513.0</ele><time>2026-04-05T10:20:39.999Z</time></trkpt><trkpt lat="42.74862358357578" lon="13.642842162691016"><ele>511.6666666666667</ele><time>2026-04-05T10:20:40.999Z</time></trkpt><trkpt lat="42.74864813083347" lon="13.642724832906342"><ele>510.33333333333337</ele><time>2026-04-05T10:20:41.999Z</time></trkpt><trkpt lat="42.74867498457064" lon="13.642614228119427"><ele>509.0</ele><time>2026-04-05T10:20:42.999Z</time></trkpt><trkpt lat="42.748716445306336" lon="13.642520053127036"><ele>507.6666666666667</ele><time>2026-04-05T10:20:43.999Z</time></trkpt><trkpt lat="42.74877641399054" lon="13.642428265693473"><ele>506.33333333333337</ele><time>2026-04-05T10:20:44.999Z</time></trkpt><trkpt lat="42.74885606846103" lon="13.642347129088156"><ele>505.0</ele><time>2026-04-05T10:20:45.999Z</time></trkpt><trkpt lat="42.74895231289089" lon="13.642273498117657"><ele>505.0</ele><time>2026-04-05T10:20:46.999Z</time></trkpt><trkpt lat="42.74905532158542" lon="13.642187941720907"><ele>505.0</ele><time>2026-04-05T10:20:47.999Z</time></trkpt><trkpt lat="42.749156442311126" lon="13.642104495991894"><ele>505.0</ele><time>2026-04-05T10:20:48.999Z</time></trkpt><trkpt lat="42.74925049996154" lon="13.642024884535145"><ele>505.0</ele><time>2026-04-05T10:20:49.999Z</time></trkpt><trkpt lat="42.74933466568919" lon="13.641950786517997"><ele>504.1666666666667</ele><time>2026-04-05T10:20:50.999Z</time></trkpt><trkpt lat="42.749398818751224" lon="13.641890557183897"><ele>503.33333333333337</ele><time>2026-04-05T10:20:51.999Z</time></trkpt><trkpt lat="42.74944668104444" lon="13.641817205160494"><ele>502.5</ele><time>2026-04-05T10:20:52.999Z</time></trkpt><trkpt lat="42.749487347639366" lon="13.641732120688543"><ele>501.66666666666663</ele><time>2026-04-05T10:20:53.999Z</time></trkpt><trkpt lat="42.74950906025353" lon="13.641618088136614"><ele>500.8333333333333</ele><time>2026-04-05T10:20:54.999Z</time></trkpt><trkpt lat="42.74951114431105" lon="13.641488894764034"><ele>500.0</ele><time>2026-04-05T10:20:55.999Z</time></trkpt><trkpt lat="42.7495055625996" lon="13.641351482422499"><ele>499.99999999999994</ele><time>2026-04-05T10:20:56.999Z</time></trkpt><trkpt lat="42.74949721514487" lon="13.641208509225054"><ele>500.0</ele><time>2026-04-05T10:20:57.999Z</time></trkpt><trkpt lat="42.749483669530875" lon="13.641072744992"><ele>500.0</ele><time>2026-04-05T10:20:58.999Z</time></trkpt><trkpt lat="42.749476236551956" lon="13.640951146242333"><ele>500.0</ele><time>2026-04-05T10:20:59.999Z</time></trkpt><trkpt lat="42.749474195974756" lon="13.64084916908391"><ele>499.99999999999994</ele><time>2026-04-05T10:21:00.999Z</time></trkpt><trkpt lat="42.749470184462524" lon="13.640747799060993"><ele>500.0</ele><time>2026-04-05T10:21:01.999Z</time></trkpt><trkpt lat="42.74946621196569" lon="13.640637748654765"><ele>499.8333333333333</ele><time>2026-04-05T10:21:02.999Z</time></trkpt><trkpt lat="42.74946349386429" lon="13.640518144547393"><ele>499.66666666666663</ele><time>2026-04-05T10:21:03.999Z</time></trkpt><trkpt lat="42.749462585072486" lon="13.640340315915244"><ele>499.5</ele><time>2026-04-05T10:21:05.999Z</time></trkpt><trkpt lat="42.7494655116996" lon="13.64023878231768"><ele>499.33333333333337</ele><time>2026-04-05T10:21:06.999Z</time></trkpt><trkpt lat="42.74947083925367" lon="13.64013917035038"><ele>499.1666666666667</ele><time>2026-04-05T10:21:07.999Z</time></trkpt><trkpt lat="42.74947577000549" lon="13.64002876163958"><ele>499.0</ele><time>2026-04-05T10:21:09.999Z</time></trkpt><trkpt lat="42.749498654942585" lon="13.639874853821494"><ele>499.4</ele><time>2026-04-05T10:21:12.999Z</time></trkpt><trkpt lat="42.749571587738814" lon="13.639724279091109"><ele>499.79999999999995</ele><time>2026-04-05T10:21:14.999Z</time></trkpt><trkpt lat="42.74963010478203" lon="13.63965009697618"><ele>500.20000000000005</ele><time>2026-04-05T10:21:15.999Z</time></trkpt><trkpt lat="42.74970537949447" lon="13.63957750151471"><ele>500.6</ele><time>2026-04-05T10:21:16.999Z</time></trkpt><trkpt lat="42.74978524228059" lon="13.63950275793757"><ele>501.0</ele><time>2026-04-05T10:21:17.999Z</time></trkpt><trkpt lat="42.749866655788146" lon="13.63942697955919"><ele>501.0</ele><time>2026-04-05T10:21:18.999Z</time></trkpt><trkpt lat="42.74994438891755" lon="13.639350254862505"><ele>501.0</ele><time>2026-04-05T10:21:19.999Z</time></trkpt><trkpt lat="42.750020038732096" lon="13.639276995571716"><ele>501.0</ele><time>2026-04-05T10:21:20.999Z</time></trkpt><trkpt lat="42.75009239752462" lon="13.639209337286124"><ele>501.0</ele><time>2026-04-05T10:21:21.999Z</time></trkpt><trkpt lat="42.75015889048068" lon="13.639134825932764"><ele>501.0</ele><time>2026-04-05T10:21:22.999Z</time></trkpt><trkpt lat="42.75021992684617" lon="13.639064207813359"><ele>501.0</ele><time>2026-04-05T10:21:23.999Z</time></trkpt><trkpt lat="42.750282108618485" lon="13.638998053063792"><ele>501.0</ele><time>2026-04-05T10:21:24.999Z</time></trkpt><trkpt lat="42.75034237271137" lon="13.638922417136959"><ele>501.0</ele><time>2026-04-05T10:21:25.999Z</time></trkpt><trkpt lat="42.750401769325514" lon="13.638829483762912"><ele>501.0</ele><time>2026-04-05T10:21:26.999Z</time></trkpt><trkpt lat="42.75044943391688" lon="13.638729761334417"><ele>501.0</ele><time>2026-04-05T10:21:27.999Z</time></trkpt><trkpt lat="42.75048848583665" lon="13.638628546880653"><ele>501.0</ele><time>2026-04-05T10:21:28.999Z</time></trkpt><trkpt lat="42.750527892094674" lon="13.638525989917614"><ele>501.0</ele><time>2026-04-05T10:21:29.999Z</time></trkpt><trkpt lat="42.75057141868749" lon="13.638428341995242"><ele>501.4</ele><time>2026-04-05T10:21:30.999Z</time></trkpt><trkpt lat="42.75060716705187" lon="13.63834291604323"><ele>501.8</ele><time>2026-04-05T10:21:31.999Z</time></trkpt><trkpt lat="42.75064760709921" lon="13.638206023454252"><ele>502.19999999999993</ele><time>2026-04-05T10:21:33.999Z</time></trkpt><trkpt lat="42.75069280036113" lon="13.6381268826504"><ele>502.59999999999997</ele><time>2026-04-05T10:21:35.999Z</time></trkpt><trkpt lat="42.75070033890824" lon="13.638003406642659"><ele>503.0</ele><time>2026-04-05T10:21:37.999Z</time></trkpt><trkpt lat="42.75067091810203" lon="13.637840846603353"><ele>502.7142857142857</ele><time>2026-04-05T10:21:39.999Z</time></trkpt><trkpt lat="42.750647156750325" lon="13.637749827519276"><ele>502.42857142857144</ele><time>2026-04-05T10:21:40.999Z</time></trkpt><trkpt lat="42.75062145537076" lon="13.637666927252866"><ele>502.14285714285717</ele><time>2026-04-05T10:21:41.999Z</time></trkpt><trkpt lat="42.75059322001845" lon="13.637584038812008"><ele>501.8571428571429</ele><time>2026-04-05T10:21:42.999Z</time></trkpt><trkpt lat="42.75056333043601" lon="13.637499009284728"><ele>501.57142857142856</ele><time>2026-04-05T10:21:43.999Z</time></trkpt><trkpt lat="42.75055843734267" lon="13.637408144754291"><ele>501.28571428571433</ele><time>2026-04-05T10:21:45.999Z</time></trkpt><trkpt lat="42.75052373632927" lon="13.637278917515193"><ele>501.0</ele><time>2026-04-05T10:21:47.999Z</time></trkpt><trkpt lat="42.75048811524659" lon="13.63714969928912"><ele>501.0</ele><time>2026-04-05T10:21:49.999Z</time></trkpt><trkpt lat="42.75046289075372" lon="13.637032629608468"><ele>501.0</ele><time>2026-04-05T10:21:51.999Z</time></trkpt><trkpt lat="42.75043469210607" lon="13.636938190462772"><ele>501.0</ele><time>2026-04-05T10:21:53.999Z</time></trkpt><trkpt lat="42.75045185217292" lon="13.63685231159742"><ele>501.0</ele><time>2026-04-05T10:21:55.999Z</time></trkpt><trkpt lat="42.750588163280874" lon="13.636993484338976"><ele>501.0</ele><time>2026-04-05T10:23:13.999Z</time></trkpt><trkpt lat="42.750630813233656" lon="13.637107654637516"><ele>501.0</ele><time>2026-04-05T10:23:15.999Z</time></trkpt><trkpt lat="42.75068312742944" lon="13.637244327849446"><ele>501.0</ele><time>2026-04-05T10:23:17.999Z</time></trkpt><trkpt lat="42.75075027223624" lon="13.637342200210322"><ele>501.0</ele><time>2026-04-05T10:23:20.999Z</time></trkpt><trkpt lat="42.75079673802637" lon="13.637423083491058"><ele>501.0</ele><time>2026-04-05T10:23:22.999Z</time></trkpt><trkpt lat="42.75069231702816" lon="13.638090085095468"><ele>501.0</ele><time>2026-04-05T10:23:35.999Z</time></trkpt><trkpt lat="42.750644532324785" lon="13.638188981108474"><ele>501.0</ele><time>2026-04-05T10:24:49.999Z</time></trkpt><trkpt lat="42.75061763162131" lon="13.63829756027868"><ele>501.0</ele><time>2026-04-05T10:24:51.999Z</time></trkpt><trkpt lat="42.75056534494815" lon="13.638433267053006"><ele>501.0</ele><time>2026-04-05T10:24:53.999Z</time></trkpt><trkpt lat="42.75053326792762" lon="13.63851213771737"><ele>501.0</ele><time>2026-04-05T10:24:54.999Z</time></trkpt><trkpt lat="42.750482629202075" lon="13.638583899852192"><ele>501.0</ele><time>2026-04-05T10:24:55.999Z</time></trkpt><trkpt lat="42.750439950970275" lon="13.638681218466596"><ele>501.0</ele><time>2026-04-05T10:24:56.999Z</time></trkpt><trkpt lat="42.75040945833115" lon="13.638789684499878"><ele>501.0</ele><time>2026-04-05T10:24:57.999Z</time></trkpt><trkpt lat="42.75036267646682" lon="13.638880809417694"><ele>501.0</ele><time>2026-04-05T10:24:58.999Z</time></trkpt><trkpt lat="42.75029898769973" lon="13.638973812512711"><ele>501.0</ele><time>2026-04-05T10:24:59.999Z</time></trkpt><trkpt lat="42.750222824258095" lon="13.639059204239615"><ele>501.0</ele><time>2026-04-05T10:25:00.999Z</time></trkpt><trkpt lat="42.750145366862675" lon="13.639145749224854"><ele>501.0</ele><time>2026-04-05T10:25:01.999Z</time></trkpt><trkpt lat="42.75006590332222" lon="13.639229093176697"><ele>501.0</ele><time>2026-04-05T10:25:02.999Z</time></trkpt><trkpt lat="42.74998235524967" lon="13.639311638552487"><ele>501.0</ele><time>2026-04-05T10:25:03.999Z</time></trkpt><trkpt lat="42.74989352776099" lon="13.639391989185373"><ele>501.0</ele><time>2026-04-05T10:25:04.999Z</time></trkpt><trkpt lat="42.74980385517557" lon="13.63948070758898"><ele>501.0</ele><time>2026-04-05T10:25:05.999Z</time></trkpt><trkpt lat="42.74972334498194" lon="13.63956034485451"><ele>501.0</ele><time>2026-04-05T10:25:06.999Z</time></trkpt><trkpt lat="42.74965485101556" lon="13.639630535420915"><ele>501.0</ele><time>2026-04-05T10:25:07.999Z</time></trkpt><trkpt lat="42.74959649384198" lon="13.639700807012513"><ele>501.0</ele><time>2026-04-05T10:25:08.999Z</time></trkpt><trkpt lat="42.7495470560393" lon="13.639781010118796"><ele>501.0</ele><time>2026-04-05T10:25:09.999Z</time></trkpt><trkpt lat="42.74949147033936" lon="13.639865528598715"><ele>501.0</ele><time>2026-04-05T10:25:10.999Z</time></trkpt><trkpt lat="42.74946256399371" lon="13.639964516664746"><ele>501.0</ele><time>2026-04-05T10:25:11.999Z</time></trkpt><trkpt lat="42.74944402391791" lon="13.640058753928384"><ele>501.0</ele><time>2026-04-05T10:25:12.999Z</time></trkpt><trkpt lat="42.74944770464717" lon="13.640169436616757"><ele>501.0</ele><time>2026-04-05T10:25:13.999Z</time></trkpt><trkpt lat="42.74943123939703" lon="13.640293218160611"><ele>501.0</ele><time>2026-04-05T10:25:14.999Z</time></trkpt><trkpt lat="42.749429092862506" lon="13.640398717525716"><ele>501.0</ele><time>2026-04-05T10:25:15.999Z</time></trkpt><trkpt lat="42.74942786949927" lon="13.640538247603228"><ele>501.0</ele><time>2026-04-05T10:25:16.999Z</time></trkpt><trkpt lat="42.74943027830557" lon="13.640697630409543"><ele>500.75</ele><time>2026-04-05T10:25:17.999Z</time></trkpt><trkpt lat="42.74943501718553" lon="13.640872841475728"><ele>500.5</ele><time>2026-04-05T10:25:18.999Z</time></trkpt><trkpt lat="42.7494448062562" lon="13.641046814885698"><ele>500.25</ele><time>2026-04-05T10:25:19.999Z</time></trkpt><trkpt lat="42.749473606763786" lon="13.641209881007114"><ele>500.0</ele><time>2026-04-05T10:25:20.999Z</time></trkpt><trkpt lat="42.749486930620726" lon="13.64136490208913"><ele>500.0</ele><time>2026-04-05T10:25:21.999Z</time></trkpt><trkpt lat="42.74947645892285" lon="13.641511266490891"><ele>500.0</ele><time>2026-04-05T10:25:22.999Z</time></trkpt><trkpt lat="42.74947177760223" lon="13.641635869101261"><ele>500.0</ele><time>2026-04-05T10:25:23.999Z</time></trkpt><trkpt lat="42.749449962947196" lon="13.641748317793954"><ele>500.0</ele><time>2026-04-05T10:25:24.999Z</time></trkpt><trkpt lat="42.74941745466989" lon="13.641856142530944"><ele>500.0</ele><time>2026-04-05T10:25:25.999Z</time></trkpt><trkpt lat="42.749337838239065" lon="13.641924404286945"><ele>501.25</ele><time>2026-04-05T10:25:26.999Z</time></trkpt><trkpt lat="42.74925589113356" lon="13.64199043898819"><ele>502.5</ele><time>2026-04-05T10:25:27.999Z</time></trkpt><trkpt lat="42.7491657108148" lon="13.642085963751079"><ele>503.75</ele><time>2026-04-05T10:25:28.999Z</time></trkpt><trkpt lat="42.74904987018702" lon="13.642172723704004"><ele>505.0</ele><time>2026-04-05T10:25:29.999Z</time></trkpt><trkpt lat="42.74894086160647" lon="13.642263927686518"><ele>505.00000000000006</ele><time>2026-04-05T10:25:30.999Z</time></trkpt><trkpt lat="42.74885491083508" lon="13.642335323278383"><ele>505.0</ele><time>2026-04-05T10:25:31.999Z</time></trkpt><trkpt lat="42.74878398259053" lon="13.642395249872802"><ele>505.0</ele><time>2026-04-05T10:25:32.999Z</time></trkpt><trkpt lat="42.74872206931027" lon="13.642465087331416"><ele>505.0</ele><time>2026-04-05T10:25:33.999Z</time></trkpt><trkpt lat="42.74867517969247" lon="13.642560973453879"><ele>505.00000000000006</ele><time>2026-04-05T10:25:34.999Z</time></trkpt><trkpt lat="42.748642273060376" lon="13.642683811730041"><ele>505.0</ele><time>2026-04-05T10:25:35.999Z</time></trkpt><trkpt lat="42.748616434118354" lon="13.642816641980318"><ele>504.0</ele><time>2026-04-05T10:25:36.999Z</time></trkpt><trkpt lat="42.748580896859494" lon="13.642966760561016"><ele>503.0</ele><time>2026-04-05T10:25:37.999Z</time></trkpt><trkpt lat="42.748529682226014" lon="13.643103769330322"><ele>502.0</ele><time>2026-04-05T10:25:38.999Z</time></trkpt><trkpt lat="42.748478768119355" lon="13.643220244325509"><ele>501.0</ele><time>2026-04-05T10:25:39.999Z</time></trkpt><trkpt lat="42.74844666019768" lon="13.643346483408047"><ele>500.0</ele><time>2026-04-05T10:25:40.999Z</time></trkpt><trkpt lat="42.74842783898257" lon="13.643483318047078"><ele>502.0</ele><time>2026-04-05T10:25:41.999Z</time></trkpt><trkpt lat="42.74841520249937" lon="13.643624053518996"><ele>504.0</ele><time>2026-04-05T10:25:42.999Z</time></trkpt><trkpt lat="42.74839317409009" lon="13.643762310608771"><ele>506.0</ele><time>2026-04-05T10:25:43.999Z</time></trkpt><trkpt lat="42.7483737355867" lon="13.643895340507836"><ele>508.0</ele><time>2026-04-05T10:25:44.999Z</time></trkpt><trkpt lat="42.74833832803614" lon="13.644030502685277"><ele>510.0</ele><time>2026-04-05T10:25:45.999Z</time></trkpt><trkpt lat="42.74828141635475" lon="13.644156868572278"><ele>510.0</ele><time>2026-04-05T10:25:46.999Z</time></trkpt><trkpt lat="42.74823508678416" lon="13.644312292046886"><ele>510.0</ele><time>2026-04-05T10:25:47.999Z</time></trkpt><trkpt lat="42.74817267896593" lon="13.644452494478262"><ele>510.0</ele><time>2026-04-05T10:25:48.999Z</time></trkpt><trkpt lat="42.74810424952082" lon="13.644583235771869"><ele>510.0</ele><time>2026-04-05T10:25:49.999Z</time></trkpt><trkpt lat="42.74803744615339" lon="13.644693922228269"><ele>509.8</ele><time>2026-04-05T10:25:50.999Z</time></trkpt><trkpt lat="42.74797002535521" lon="13.64480039522069"><ele>509.6</ele><time>2026-04-05T10:25:51.999Z</time></trkpt><trkpt lat="42.74789336261076" lon="13.644888690324526"><ele>509.4</ele><time>2026-04-05T10:25:52.999Z</time></trkpt><trkpt lat="42.74780929276816" lon="13.644970103769912"><ele>509.2</ele><time>2026-04-05T10:25:53.999Z</time></trkpt><trkpt lat="42.74772011562731" lon="13.645037469736485"><ele>509.0</ele><time>2026-04-05T10:25:54.999Z</time></trkpt><trkpt lat="42.747621488382165" lon="13.645094108453138"><ele>510.2</ele><time>2026-04-05T10:25:55.999Z</time></trkpt><trkpt lat="42.747519236154986" lon="13.645139795955005"><ele>511.4</ele><time>2026-04-05T10:25:56.999Z</time></trkpt><trkpt lat="42.74740652770149" lon="13.645180192439419"><ele>512.6</ele><time>2026-04-05T10:25:57.999Z</time></trkpt><trkpt lat="42.747289753353925" lon="13.645221308424905"><ele>513.8</ele><time>2026-04-05T10:25:58.999Z</time></trkpt><trkpt lat="42.74718928821844" lon="13.645257963975542"><ele>515.0</ele><time>2026-04-05T10:25:59.999Z</time></trkpt><trkpt lat="42.74708874107562" lon="13.6452937986825"><ele>514.6666666666666</ele><time>2026-04-05T10:26:00.999Z</time></trkpt><trkpt lat="42.746989339719185" lon="13.645332973242585"><ele>514.3333333333333</ele><time>2026-04-05T10:26:01.999Z</time></trkpt><trkpt lat="42.746902988802894" lon="13.645375464532775"><ele>514.0</ele><time>2026-04-05T10:26:02.999Z</time></trkpt><trkpt lat="42.74683183630647" lon="13.645427777458323"><ele>513.6666666666666</ele><time>2026-04-05T10:26:03.999Z</time></trkpt><trkpt lat="42.7467592700446" lon="13.645476169198549"><ele>513.3333333333334</ele><time>2026-04-05T10:26:04.999Z</time></trkpt><trkpt lat="42.746705285102415" lon="13.645553248152849"><ele>513.0</ele><time>2026-04-05T10:26:05.999Z</time></trkpt><trkpt lat="42.74667010643805" lon="13.64565852177339"><ele>513.0</ele><time>2026-04-05T10:26:06.999Z</time></trkpt><trkpt lat="42.746662861064564" lon="13.645795719779697"><ele>513.0</ele><time>2026-04-05T10:26:07.999Z</time></trkpt><trkpt lat="42.74669396747161" lon="13.645931902782692"><ele>513.0</ele><time>2026-04-05T10:26:08.999Z</time></trkpt><trkpt lat="42.74671522428472" lon="13.646046135390225"><ele>513.0</ele><time>2026-04-05T10:26:09.999Z</time></trkpt><trkpt lat="42.746738379520615" lon="13.646181293684474"><ele>513.0</ele><time>2026-04-05T10:26:10.999Z</time></trkpt><trkpt lat="42.746744461693375" lon="13.646293976572924"><ele>512.3333333333334</ele><time>2026-04-05T10:26:11.999Z</time></trkpt><trkpt lat="42.74673979955745" lon="13.646410056109632"><ele>511.66666666666663</ele><time>2026-04-05T10:26:12.999Z</time></trkpt><trkpt lat="42.746727708137925" lon="13.646530858877572"><ele>511.0</ele><time>2026-04-05T10:26:13.999Z</time></trkpt><trkpt lat="42.74672242586779" lon="13.64663531518372"><ele>510.3333333333333</ele><time>2026-04-05T10:26:14.999Z</time></trkpt><trkpt lat="42.74672491023076" lon="13.646743259671487"><ele>509.66666666666663</ele><time>2026-04-05T10:26:15.999Z</time></trkpt><trkpt lat="42.746736629338244" lon="13.646848326592046"><ele>509.0</ele><time>2026-04-05T10:26:16.999Z</time></trkpt><trkpt lat="42.74677482418913" lon="13.646962174449628"><ele>507.6</ele><time>2026-04-05T10:26:17.999Z</time></trkpt><trkpt lat="42.74682691231473" lon="13.647070771159772"><ele>506.2</ele><time>2026-04-05T10:26:18.999Z</time></trkpt><trkpt lat="42.746889563809" lon="13.647190219495297"><ele>504.80000000000007</ele><time>2026-04-05T10:26:19.999Z</time></trkpt><trkpt lat="42.74695450120854" lon="13.647292137179667"><ele>503.40000000000003</ele><time>2026-04-05T10:26:20.999Z</time></trkpt><trkpt lat="42.74701744113828" lon="13.647364977937919"><ele>502.0</ele><time>2026-04-05T10:26:21.999Z</time></trkpt><trkpt lat="42.74708650675417" lon="13.647405676504594"><ele>502.0</ele><time>2026-04-05T10:26:22.999Z</time></trkpt><trkpt lat="42.747163681168956" lon="13.647412616537434"><ele>502.00000000000006</ele><time>2026-04-05T10:26:23.999Z</time></trkpt><trkpt lat="42.74724547831713" lon="13.647459017873379"><ele>502.00000000000006</ele><time>2026-04-05T10:26:24.999Z</time></trkpt><trkpt lat="42.747347617239214" lon="13.647475468751052"><ele>502.0</ele><time>2026-04-05T10:26:25.999Z</time></trkpt><trkpt lat="42.74745569152335" lon="13.64749526254885"><ele>502.0</ele><time>2026-04-05T10:26:26.999Z</time></trkpt><trkpt lat="42.74756893754878" lon="13.647514752252635"><ele>502.0</ele><time>2026-04-05T10:26:27.999Z</time></trkpt><trkpt lat="42.74768302903937" lon="13.647536311243204"><ele>502.00000000000006</ele><time>2026-04-05T10:26:28.999Z</time></trkpt><trkpt lat="42.7477882313703" lon="13.647568585598012"><ele>502.00000000000006</ele><time>2026-04-05T10:26:29.999Z</time></trkpt><trkpt lat="42.7478716989494" lon="13.647613340003561"><ele>502.0</ele><time>2026-04-05T10:26:30.999Z</time></trkpt><trkpt lat="42.74794280460282" lon="13.647667977517413"><ele>502.0</ele><time>2026-04-05T10:26:31.999Z</time></trkpt><trkpt lat="42.748010506575284" lon="13.647728844437685"><ele>502.6</ele><time>2026-04-05T10:26:32.999Z</time></trkpt><trkpt lat="42.74809360461604" lon="13.647817182904156"><ele>503.20000000000005</ele><time>2026-04-05T10:26:33.999Z</time></trkpt><trkpt lat="42.748183986482196" lon="13.647927283457557"><ele>503.8</ele><time>2026-04-05T10:26:34.999Z</time></trkpt><trkpt lat="42.74826475218828" lon="13.648030117105222"><ele>504.4</ele><time>2026-04-05T10:26:35.999Z</time></trkpt><trkpt lat="42.748327580498845" lon="13.648122543281152"><ele>505.0</ele><time>2026-04-05T10:26:36.999Z</time></trkpt><trkpt lat="42.74837639526995" lon="13.648217524662606"><ele>505.0</ele><time>2026-04-05T10:26:37.999Z</time></trkpt><trkpt lat="42.74841762880576" lon="13.648329633352978"><ele>505.0</ele><time>2026-04-05T10:26:38.999Z</time></trkpt><trkpt lat="42.748451890515156" lon="13.64845728025332"><ele>505.0</ele><time>2026-04-05T10:26:39.999Z</time></trkpt><trkpt lat="42.74848589087734" lon="13.64859445356177"><ele>505.0</ele><time>2026-04-05T10:26:40.999Z</time></trkpt><trkpt lat="42.748511846529226" lon="13.648720564775378"><ele>505.0</ele><time>2026-04-05T10:26:41.999Z</time></trkpt><trkpt lat="42.74852803176967" lon="13.648808925784623"><ele>506.1666666666667</ele><time>2026-04-05T10:26:42.999Z</time></trkpt><trkpt lat="42.74854654586532" lon="13.648960820160756"><ele>507.33333333333337</ele><time>2026-04-05T10:26:44.999Z</time></trkpt><trkpt lat="42.748547847838246" lon="13.649049234945997"><ele>508.5</ele><time>2026-04-05T10:26:45.999Z</time></trkpt><trkpt lat="42.74853669736754" lon="13.649139648327532"><ele>509.66666666666663</ele><time>2026-04-05T10:26:46.999Z</time></trkpt><trkpt lat="42.748511747970895" lon="13.649233442951376"><ele>510.8333333333333</ele><time>2026-04-05T10:26:47.999Z</time></trkpt><trkpt lat="42.74846118033131" lon="13.649322179872831"><ele>512.0</ele><time>2026-04-05T10:26:48.999Z</time></trkpt><trkpt lat="42.74838886733966" lon="13.649407329473116"><ele>511.25</ele><time>2026-04-05T10:26:49.999Z</time></trkpt><trkpt lat="42.74831194307819" lon="13.64950566692647"><ele>510.5</ele><time>2026-04-05T10:26:50.999Z</time></trkpt><trkpt lat="42.7482303188433" lon="13.649609791525343"><ele>509.75</ele><time>2026-04-05T10:26:51.999Z</time></trkpt><trkpt lat="42.74814404047562" lon="13.649720095786211"><ele>509.0</ele><time>2026-04-05T10:26:52.999Z</time></trkpt><trkpt lat="42.7480583642358" lon="13.64982975769128"><ele>509.0</ele><time>2026-04-05T10:26:53.999Z</time></trkpt><trkpt lat="42.7479638896077" lon="13.649950681011736"><ele>509.0</ele><time>2026-04-05T10:26:54.999Z</time></trkpt><trkpt lat="42.74787738052893" lon="13.650091396084402"><ele>509.0</ele><time>2026-04-05T10:26:55.999Z</time></trkpt><trkpt lat="42.747776781418416" lon="13.650211467256838"><ele>509.0</ele><time>2026-04-05T10:26:56.999Z</time></trkpt><trkpt lat="42.74768698326941" lon="13.65032801991475"><ele>510.2</ele><time>2026-04-05T10:26:57.999Z</time></trkpt><trkpt lat="42.74760342578455" lon="13.650436660854641"><ele>511.4</ele><time>2026-04-05T10:26:58.999Z</time></trkpt><trkpt lat="42.74752347768476" lon="13.650547512897058"><ele>512.6</ele><time>2026-04-05T10:26:59.999Z</time></trkpt><trkpt lat="42.74744211669816" lon="13.650646352511966"><ele>513.8</ele><time>2026-04-05T10:27:00.999Z</time></trkpt><trkpt lat="42.74738132981609" lon="13.650761613645559"><ele>515.0</ele><time>2026-04-05T10:27:01.999Z</time></trkpt><trkpt lat="42.7473241103617" lon="13.650854989415866"><ele>515.0</ele><time>2026-04-05T10:27:02.999Z</time></trkpt><trkpt lat="42.7472952981778" lon="13.650960135099218"><ele>515.0</ele><time>2026-04-05T10:27:03.999Z</time></trkpt><trkpt lat="42.74728951882367" lon="13.65106182579336"><ele>515.0</ele><time>2026-04-05T10:27:04.999Z</time></trkpt><trkpt lat="42.74730021965674" lon="13.651164172370793"><ele>515.0</ele><time>2026-04-05T10:27:05.999Z</time></trkpt><trkpt lat="42.74732752066115" lon="13.651244715761951"><ele>515.0</ele><time>2026-04-05T10:27:06.999Z</time></trkpt><trkpt lat="42.74743815098622" lon="13.651364001594258"><ele>515.0</ele><time>2026-04-05T10:27:08.999Z</time></trkpt><trkpt lat="42.74751927249718" lon="13.651395131062946"><ele>515.0</ele><time>2026-04-05T10:27:09.999Z</time></trkpt><trkpt lat="42.74761087917395" lon="13.651369499772029"><ele>515.0</ele><time>2026-04-05T10:27:10.999Z</time></trkpt><trkpt lat="42.74770640722765" lon="13.651358016230184"><ele>515.0</ele><time>2026-04-05T10:27:11.999Z</time></trkpt><trkpt lat="42.74780638963316" lon="13.65136171167952"><ele>515.0</ele><time>2026-04-05T10:27:12.999Z</time></trkpt><trkpt lat="42.74790712755989" lon="13.65134610171099"><ele>515.0</ele><time>2026-04-05T10:27:13.999Z</time></trkpt><trkpt lat="42.748000588361265" lon="13.651343224687201"><ele>514.6</ele><time>2026-04-05T10:27:14.999Z</time></trkpt><trkpt lat="42.748086679388585" lon="13.651359183119727"><ele>514.2</ele><time>2026-04-05T10:27:15.999Z</time></trkpt><trkpt lat="42.748166162504404" lon="13.651403404384618"><ele>513.8</ele><time>2026-04-05T10:27:16.999Z</time></trkpt><trkpt lat="42.74822428068194" lon="13.651488288783899"><ele>513.4</ele><time>2026-04-05T10:27:17.999Z</time></trkpt><trkpt lat="42.74827987214047" lon="13.651598963390608"><ele>513.0</ele><time>2026-04-05T10:27:18.999Z</time></trkpt><trkpt lat="42.748331781490954" lon="13.651737840168552"><ele>513.0</ele><time>2026-04-05T10:27:19.999Z</time></trkpt><trkpt lat="42.7483743462532" lon="13.651875481213898"><ele>513.0</ele><time>2026-04-05T10:27:20.998Z</time></trkpt><trkpt lat="42.748403656484534" lon="13.651984906251382"><ele>513.0</ele><time>2026-04-05T10:27:21.998Z</time></trkpt><trkpt lat="42.74845527951594" lon="13.652138831712952"><ele>513.0</ele><time>2026-04-05T10:27:23.999Z</time></trkpt><trkpt lat="42.748524631306246" lon="13.652201628633703"><ele>513.0</ele><time>2026-04-05T10:27:24.999Z</time></trkpt><trkpt lat="42.748599935336955" lon="13.652239929662455"><ele>514.1999999999999</ele><time>2026-04-05T10:27:25.999Z</time></trkpt><trkpt lat="42.74868920277118" lon="13.652256523061451"><ele>515.4</ele><time>2026-04-05T10:27:26.999Z</time></trkpt><trkpt lat="42.748778732381645" lon="13.652255494764578"><ele>516.5999999999999</ele><time>2026-04-05T10:27:27.999Z</time></trkpt><trkpt lat="42.74887875562887" lon="13.65219168315947"><ele>517.8</ele><time>2026-04-05T10:27:28.999Z</time></trkpt><trkpt lat="42.7489888240079" lon="13.65217325221768"><ele>519.0</ele><time>2026-04-05T10:27:29.999Z</time></trkpt><trkpt lat="42.74911053192395" lon="13.652124830092315"><ele>519.0</ele><time>2026-04-05T10:27:30.999Z</time></trkpt><trkpt lat="42.74922253570544" lon="13.65209559565154"><ele>519.0</ele><time>2026-04-05T10:27:31.999Z</time></trkpt><trkpt lat="42.749329522686544" lon="13.652090076621322"><ele>519.0</ele><time>2026-04-05T10:27:32.999Z</time></trkpt><trkpt lat="42.7494462757455" lon="13.652100109711359"><ele>519.0</ele><time>2026-04-05T10:27:33.999Z</time></trkpt><trkpt lat="42.74955960117191" lon="13.652131200744497"><ele>519.5</ele><time>2026-04-05T10:27:34.999Z</time></trkpt><trkpt lat="42.749662406564966" lon="13.652187364344249"><ele>520.0</ele><time>2026-04-05T10:27:35.999Z</time></trkpt><trkpt lat="42.74976942314164" lon="13.652261612656"><ele>520.5</ele><time>2026-04-05T10:27:36.999Z</time></trkpt><trkpt lat="42.74988202610945" lon="13.652344807473188"><ele>521.0</ele><time>2026-04-05T10:27:37.999Z</time></trkpt><trkpt lat="42.74999267434283" lon="13.652426558032635"><ele>521.0</ele><time>2026-04-05T10:27:38.999Z</time></trkpt><trkpt lat="42.75009703519425" lon="13.652503482619485"><ele>521.0</ele><time>2026-04-05T10:27:39.999Z</time></trkpt><trkpt lat="42.750190922957024" lon="13.652572491967836"><ele>521.0</ele><time>2026-04-05T10:27:40.999Z</time></trkpt><trkpt lat="42.750285724021886" lon="13.652642172672223"><ele>521.0</ele><time>2026-04-05T10:27:41.999Z</time></trkpt><trkpt lat="42.75038370091494" lon="13.652714187658297"><ele>521.0</ele><time>2026-04-05T10:27:42.999Z</time></trkpt><trkpt lat="42.75047359902207" lon="13.65278026458718"><ele>521.25</ele><time>2026-04-05T10:27:43.999Z</time></trkpt><trkpt lat="42.75054141115594" lon="13.65283010787414"><ele>521.5</ele><time>2026-04-05T10:27:44.999Z</time></trkpt><trkpt lat="42.75064402684513" lon="13.652899986902476"><ele>521.75</ele><time>2026-04-05T10:27:46.999Z</time></trkpt><trkpt lat="42.750704250404624" lon="13.652975494624394"><ele>522.0</ele><time>2026-04-05T10:27:48.999Z</time></trkpt><trkpt lat="42.75063132910299" lon="13.653194724324084"><ele>522.0</ele><time>2026-04-05T10:27:50.999Z</time></trkpt><trkpt lat="42.750617174686084" lon="13.653321708188363"><ele>522.0</ele><time>2026-04-05T10:27:52.999Z</time></trkpt><trkpt lat="42.750625203917224" lon="13.653432854052781"><ele>522.0</ele><time>2026-04-05T10:27:54.999Z</time></trkpt><trkpt lat="42.7506685002606" lon="13.653555091975779"><ele>522.0</ele><time>2026-04-05T10:27:57.999Z</time></trkpt><trkpt lat="42.750704911773624" lon="13.653631428013421"><ele>522.0</ele><time>2026-04-05T10:27:58.999Z</time></trkpt><trkpt lat="42.75076165996016" lon="13.653701145536107"><ele>522.0</ele><time>2026-04-05T10:27:59.999Z</time></trkpt><trkpt lat="42.75081803721147" lon="13.65375866666342"><ele>522.0</ele><time>2026-04-05T10:28:00.999Z</time></trkpt><trkpt lat="42.750875830050795" lon="13.653798622133497"><ele>522.0</ele><time>2026-04-05T10:28:01.999Z</time></trkpt><trkpt lat="42.75095731825705" lon="13.653881082512775"><ele>522.0</ele><time>2026-04-05T10:28:03.999Z</time></trkpt><trkpt lat="42.750989705230914" lon="13.65395581256578"><ele>522.0</ele><time>2026-04-05T10:28:05.999Z</time></trkpt><trkpt lat="42.751017215289856" lon="13.654097417130254"><ele>522.0</ele><time>2026-04-05T10:28:07.999Z</time></trkpt><trkpt lat="42.751036943453684" lon="13.654208397825919"><ele>522.0</ele><time>2026-04-05T10:28:09.999Z</time></trkpt><trkpt lat="42.75097620892022" lon="13.654290397126589"><ele>522.0</ele><time>2026-04-05T10:28:13.999Z</time></trkpt><trkpt lat="42.750856508958115" lon="13.654327535251985"><ele>522.0</ele><time>2026-04-05T10:28:15.999Z</time></trkpt><trkpt lat="42.7507766376745" lon="13.654343498280822"><ele>522.0</ele><time>2026-04-05T10:28:16.999Z</time></trkpt><trkpt lat="42.75069437088103" lon="13.6543855228899"><ele>522.0</ele><time>2026-04-05T10:28:17.999Z</time></trkpt><trkpt lat="42.75061425004935" lon="13.654439940300989"><ele>522.0</ele><time>2026-04-05T10:28:18.999Z</time></trkpt><trkpt lat="42.7505342421339" lon="13.654504421638192"><ele>521.3333333333334</ele><time>2026-04-05T10:28:19.999Z</time></trkpt><trkpt lat="42.750461822353394" lon="13.654566584065783"><ele>520.6666666666666</ele><time>2026-04-05T10:28:20.999Z</time></trkpt><trkpt lat="42.75039397347893" lon="13.65462490547298"><ele>520.0</ele><time>2026-04-05T10:28:21.999Z</time></trkpt><trkpt lat="42.75032679767965" lon="13.654686332577336"><ele>519.3333333333333</ele><time>2026-04-05T10:28:22.999Z</time></trkpt><trkpt lat="42.750260418972324" lon="13.654749388016347"><ele>518.6666666666666</ele><time>2026-04-05T10:28:23.999Z</time></trkpt><trkpt lat="42.750202750565215" lon="13.654809454739228"><ele>518.0</ele><time>2026-04-05T10:28:24.999Z</time></trkpt><trkpt lat="42.75014991215235" lon="13.654872209307666"><ele>518.0</ele><time>2026-04-05T10:28:25.999Z</time></trkpt><trkpt lat="42.75010476438259" lon="13.65493359683262"><ele>518.0</ele><time>2026-04-05T10:28:26.999Z</time></trkpt><trkpt lat="42.750061422243135" lon="13.655008927253471"><ele>518.0</ele><time>2026-04-05T10:28:27.999Z</time></trkpt><trkpt lat="42.750027299243214" lon="13.655121948799017"><ele>518.0</ele><time>2026-04-05T10:28:28.999Z</time></trkpt><trkpt lat="42.75002015416314" lon="13.655247212812919"><ele>518.0</ele><time>2026-04-05T10:28:29.999Z</time></trkpt><trkpt lat="42.75001484938572" lon="13.655367145853166"><ele>518.0</ele><time>2026-04-05T10:28:30.999Z</time></trkpt><trkpt lat="42.750011856535565" lon="13.655505132599886"><ele>516.8</ele><time>2026-04-05T10:28:31.999Z</time></trkpt><trkpt lat="42.750009450888925" lon="13.655644812167548"><ele>515.5999999999999</ele><time>2026-04-05T10:28:32.999Z</time></trkpt><trkpt lat="42.75000719098982" lon="13.655776029212298"><ele>514.4000000000001</ele><time>2026-04-05T10:28:33.999Z</time></trkpt><trkpt lat="42.750004679631814" lon="13.655910195105507"><ele>513.2</ele><time>2026-04-05T10:28:34.999Z</time></trkpt><trkpt lat="42.7500015530247" lon="13.656028773607094"><ele>512.0</ele><time>2026-04-05T10:28:35.999Z</time></trkpt><trkpt lat="42.74999699273607" lon="13.656136597238921"><ele>510.0</ele><time>2026-04-05T10:28:36.999Z</time></trkpt><trkpt lat="42.74999540942271" lon="13.656231496731445"><ele>508.00000000000006</ele><time>2026-04-05T10:28:37.999Z</time></trkpt><trkpt lat="42.75000116683739" lon="13.656359544547898"><ele>506.00000000000006</ele><time>2026-04-05T10:28:39.999Z</time></trkpt><trkpt lat="42.74998116427349" lon="13.656442826685028"><ele>504.0</ele><time>2026-04-05T10:28:42.999Z</time></trkpt><trkpt lat="42.74984215781325" lon="13.656515925024603"><ele>502.0</ele><time>2026-04-05T10:28:44.999Z</time></trkpt><trkpt lat="42.749757050810786" lon="13.656553269868295"><ele>502.0</ele><time>2026-04-05T10:28:45.999Z</time></trkpt><trkpt lat="42.74966020652795" lon="13.65660029829612"><ele>502.0</ele><time>2026-04-05T10:28:46.999Z</time></trkpt><trkpt lat="42.749554836674406" lon="13.656656630224136"><ele>502.0</ele><time>2026-04-05T10:28:47.999Z</time></trkpt><trkpt lat="42.74944307480787" lon="13.65672386627462"><ele>502.0</ele><time>2026-04-05T10:28:48.999Z</time></trkpt><trkpt lat="42.74932932829487" lon="13.65680149325345"><ele>503.75</ele><time>2026-04-05T10:28:49.999Z</time></trkpt><trkpt lat="42.74920962001214" lon="13.656882504871275"><ele>505.5</ele><time>2026-04-05T10:28:50.999Z</time></trkpt><trkpt lat="42.74908840173538" lon="13.656964589203513"><ele>507.25</ele><time>2026-04-05T10:28:51.999Z</time></trkpt><trkpt lat="42.74899091450821" lon="13.65704828779868"><ele>509.0</ele><time>2026-04-05T10:28:52.999Z</time></trkpt><trkpt lat="42.74889883628072" lon="13.6571412044626"><ele>505.0</ele><time>2026-04-05T10:28:53.999Z</time></trkpt><trkpt lat="42.74882531216855" lon="13.657266546998873"><ele>501.0</ele><time>2026-04-05T10:28:54.999Z</time></trkpt><trkpt lat="42.748764832985" lon="13.65742025575406"><ele>497.0</ele><time>2026-04-05T10:28:55.999Z</time></trkpt><trkpt lat="42.74871829085335" lon="13.657595533828049"><ele>493.0</ele><time>2026-04-05T10:28:56.999Z</time></trkpt><trkpt lat="42.74868010514419" lon="13.65777811403899"><ele>494.0</ele><time>2026-04-05T10:28:57.999Z</time></trkpt><trkpt lat="42.7486336745463" lon="13.657936376355948"><ele>494.99999999999994</ele><time>2026-04-05T10:28:58.999Z</time></trkpt><trkpt lat="42.74857081841165" lon="13.658055498630382"><ele>495.99999999999994</ele><time>2026-04-05T10:28:59.999Z</time></trkpt><trkpt lat="42.74848449016515" lon="13.658140096691172"><ele>497.0</ele><time>2026-04-05T10:29:00.999Z</time></trkpt><trkpt lat="42.748387193739106" lon="13.658181570942762"><ele>498.0</ele><time>2026-04-05T10:29:01.999Z</time></trkpt><trkpt lat="42.74828284982043" lon="13.658169741169775"><ele>498.0</ele><time>2026-04-05T10:29:02.999Z</time></trkpt><trkpt lat="42.74819098544257" lon="13.658111582459949"><ele>497.99999999999994</ele><time>2026-04-05T10:29:03.999Z</time></trkpt><trkpt lat="42.7481273093281" lon="13.657994291738218"><ele>497.99999999999994</ele><time>2026-04-05T10:29:04.999Z</time></trkpt><trkpt lat="42.74807888129882" lon="13.65784521224743"><ele>498.0</ele><time>2026-04-05T10:29:05.999Z</time></trkpt><trkpt lat="42.748009128715196" lon="13.657732670082309"><ele>498.0</ele><time>2026-04-05T10:29:06.999Z</time></trkpt><trkpt lat="42.7479103719468" lon="13.657654634486887"><ele>500.0</ele><time>2026-04-05T10:29:07.999Z</time></trkpt><trkpt lat="42.74779388796111" lon="13.657620724508911"><ele>502.0</ele><time>2026-04-05T10:29:08.999Z</time></trkpt><trkpt lat="42.74766416615611" lon="13.657625544931141"><ele>504.0</ele><time>2026-04-05T10:29:09.999Z</time></trkpt><trkpt lat="42.74752543777023" lon="13.657653263450635"><ele>506.0</ele><time>2026-04-05T10:29:10.999Z</time></trkpt><trkpt lat="42.747377980667416" lon="13.6576662596845"><ele>506.0</ele><time>2026-04-05T10:29:11.999Z</time></trkpt><trkpt lat="42.747226353020395" lon="13.65765227963619"><ele>506.0</ele><time>2026-04-05T10:29:12.999Z</time></trkpt><trkpt lat="42.747072855696715" lon="13.65762213395742"><ele>506.0</ele><time>2026-04-05T10:29:13.999Z</time></trkpt><trkpt lat="42.746929223809424" lon="13.657589364436099"><ele>506.0</ele><time>2026-04-05T10:29:14.999Z</time></trkpt><trkpt lat="42.74679546028896" lon="13.657599492930721"><ele>506.0</ele><time>2026-04-05T10:29:15.999Z</time></trkpt><trkpt lat="42.74665729073462" lon="13.65766542618485"><ele>506.0</ele><time>2026-04-05T10:29:16.999Z</time></trkpt><trkpt lat="42.74653052822713" lon="13.657777495984357"><ele>506.0</ele><time>2026-04-05T10:29:17.999Z</time></trkpt><trkpt lat="42.746414201415995" lon="13.657891203387516"><ele>503.0</ele><time>2026-04-05T10:29:18.999Z</time></trkpt><trkpt lat="42.7462931374115" lon="13.657971250993288"><ele>500.0</ele><time>2026-04-05T10:29:19.999Z</time></trkpt><trkpt lat="42.746161874955675" lon="13.658012769021012"><ele>497.0</ele><time>2026-04-05T10:29:20.999Z</time></trkpt><trkpt lat="42.74602596811765" lon="13.65802099427011"><ele>494.0</ele><time>2026-04-05T10:29:21.999Z</time></trkpt><trkpt lat="42.74587931122473" lon="13.657993645824126"><ele>494.0</ele><time>2026-04-05T10:29:22.999Z</time></trkpt><trkpt lat="42.74572452163966" lon="13.657953206021126"><ele>494.0</ele><time>2026-04-05T10:29:23.999Z</time></trkpt><trkpt lat="42.74557002985765" lon="13.657915380022152"><ele>494.0</ele><time>2026-04-05T10:29:24.999Z</time></trkpt><trkpt lat="42.74542501104256" lon="13.657879755398334"><ele>494.0</ele><time>2026-04-05T10:29:25.999Z</time></trkpt><trkpt lat="42.745288231159805" lon="13.65783568435957"><ele>494.0</ele><time>2026-04-05T10:29:26.999Z</time></trkpt><trkpt lat="42.745158310238935" lon="13.657763284837678"><ele>494.0</ele><time>2026-04-05T10:29:27.999Z</time></trkpt><trkpt lat="42.7450466803465" lon="13.657657841708847"><ele>494.0</ele><time>2026-04-05T10:29:28.999Z</time></trkpt><trkpt lat="42.744967187430646" lon="13.657537007866166"><ele>494.0</ele><time>2026-04-05T10:29:29.999Z</time></trkpt><trkpt lat="42.74493041394352" lon="13.657408638883949"><ele>494.0</ele><time>2026-04-05T10:29:30.999Z</time></trkpt><trkpt lat="42.74492273645821" lon="13.657263077242023"><ele>494.0</ele><time>2026-04-05T10:29:31.999Z</time></trkpt><trkpt lat="42.7449435824565" lon="13.657095447484403"><ele>494.0</ele><time>2026-04-05T10:29:32.999Z</time></trkpt><trkpt lat="42.74496662230119" lon="13.656916410941443"><ele>494.0</ele><time>2026-04-05T10:29:33.999Z</time></trkpt><trkpt lat="42.744960001245076" lon="13.656726131630128"><ele>494.0</ele><time>2026-04-05T10:29:34.999Z</time></trkpt><trkpt lat="42.74491576121449" lon="13.656546412799974"><ele>494.0</ele><time>2026-04-05T10:29:35.999Z</time></trkpt><trkpt lat="42.744839521563726" lon="13.65638864947901"><ele>494.0</ele><time>2026-04-05T10:29:36.999Z</time></trkpt><trkpt lat="42.744745635275564" lon="13.656235470059071"><ele>493.5</ele><time>2026-04-05T10:29:37.999Z</time></trkpt><trkpt lat="42.74464400508245" lon="13.656097972113136"><ele>493.0</ele><time>2026-04-05T10:29:38.999Z</time></trkpt><trkpt lat="42.744530379226084" lon="13.655975213418003"><ele>492.5</ele><time>2026-04-05T10:29:39.999Z</time></trkpt><trkpt lat="42.74441316846849" lon="13.65584978531964"><ele>492.0</ele><time>2026-04-05T10:29:40.999Z</time></trkpt><trkpt lat="42.74429178827487" lon="13.655732130381583"><ele>492.0</ele><time>2026-04-05T10:29:41.999Z</time></trkpt><trkpt lat="42.74416494866006" lon="13.6556362666747"><ele>492.0</ele><time>2026-04-05T10:29:42.999Z</time></trkpt><trkpt lat="42.744030449197524" lon="13.655568912320307"><ele>492.0</ele><time>2026-04-05T10:29:43.999Z</time></trkpt><trkpt lat="42.74389317828382" lon="13.655519180930458"><ele>492.0</ele><time>2026-04-05T10:29:44.999Z</time></trkpt><trkpt lat="42.74376322200876" lon="13.655479722069185"><ele>492.0</ele><time>2026-04-05T10:29:45.999Z</time></trkpt><trkpt lat="42.7436369080858" lon="13.655450400192363"><ele>492.0</ele><time>2026-04-05T10:29:46.999Z</time></trkpt><trkpt lat="42.743514700017336" lon="13.655446769141035"><ele>492.0</ele><time>2026-04-05T10:29:47.999Z</time></trkpt><trkpt lat="42.74339685764503" lon="13.655471481328048"><ele>492.0</ele><time>2026-04-05T10:29:48.999Z</time></trkpt><trkpt lat="42.743288785210865" lon="13.655530184204782"><ele>490.75</ele><time>2026-04-05T10:29:49.999Z</time></trkpt><trkpt lat="42.743185654552946" lon="13.655605253700099"><ele>489.5</ele><time>2026-04-05T10:29:50.999Z</time></trkpt><trkpt lat="42.74308893008557" lon="13.655704082483608"><ele>488.25</ele><time>2026-04-05T10:29:51.999Z</time></trkpt><trkpt lat="42.74300203571419" lon="13.655828730968286"><ele>487.0</ele><time>2026-04-05T10:29:52.999Z</time></trkpt><trkpt lat="42.74293288040578" lon="13.655979235809586"><ele>485.75</ele><time>2026-04-05T10:29:53.999Z</time></trkpt><trkpt lat="42.74288153898724" lon="13.656145529202794"><ele>484.5</ele><time>2026-04-05T10:29:54.999Z</time></trkpt><trkpt lat="42.742829249385736" lon="13.656321483091201"><ele>483.25</ele><time>2026-04-05T10:29:55.999Z</time></trkpt><trkpt lat="42.74279627136348" lon="13.656513076547169"><ele>482.0</ele><time>2026-04-05T10:29:56.999Z</time></trkpt><trkpt lat="42.74276909542951" lon="13.656713742022792"><ele>482.0</ele><time>2026-04-05T10:29:57.999Z</time></trkpt><trkpt lat="42.74275166730236" lon="13.656928731790684"><ele>482.0</ele><time>2026-04-05T10:29:58.999Z</time></trkpt><trkpt lat="42.74275791406342" lon="13.657149772842008"><ele>482.0</ele><time>2026-04-05T10:29:59.999Z</time></trkpt><trkpt lat="42.742754682196576" lon="13.657379499409023"><ele>480.0</ele><time>2026-04-05T10:30:00.999Z</time></trkpt><trkpt lat="42.742754809420994" lon="13.657610971420043"><ele>478.0</ele><time>2026-04-05T10:30:01.999Z</time></trkpt><trkpt lat="42.74275652021711" lon="13.657836846355366"><ele>476.0</ele><time>2026-04-05T10:30:02.999Z</time></trkpt><trkpt lat="42.742757353829106" lon="13.658065268121922"><ele>474.75</ele><time>2026-04-05T10:30:03.999Z</time></trkpt><trkpt lat="42.742757780568354" lon="13.658269709855483"><ele>473.5</ele><time>2026-04-05T10:30:04.999Z</time></trkpt><trkpt lat="42.74275779248255" lon="13.658449431326568"><ele>472.25</ele><time>2026-04-05T10:30:05.999Z</time></trkpt><trkpt lat="42.74275666391671" lon="13.658596918637095"><ele>471.0</ele><time>2026-04-05T10:30:06.999Z</time></trkpt><trkpt lat="42.74274475540212" lon="13.65871233319"><ele>471.4</ele><time>2026-04-05T10:30:07.999Z</time></trkpt><trkpt lat="42.74270553909372" lon="13.658802808505293"><ele>471.8</ele><time>2026-04-05T10:30:08.999Z</time></trkpt><trkpt lat="42.742636303738166" lon="13.658858964380183"><ele>472.19999999999993</ele><time>2026-04-05T10:30:09.999Z</time></trkpt><trkpt lat="42.74255097293928" lon="13.658870920823361"><ele>472.59999999999997</ele><time>2026-04-05T10:30:10.999Z</time></trkpt><trkpt lat="42.74245225110069" lon="13.658825416952132"><ele>473.0</ele><time>2026-04-05T10:30:11.999Z</time></trkpt><trkpt lat="42.74235364999723" lon="13.65872701925423"><ele>474.75</ele><time>2026-04-05T10:30:12.999Z</time></trkpt><trkpt lat="42.74224811287234" lon="13.658610376077112"><ele>476.5</ele><time>2026-04-05T10:30:13.999Z</time></trkpt><trkpt lat="42.74213354178517" lon="13.658496561433699"><ele>478.25</ele><time>2026-04-05T10:30:14.999Z</time></trkpt><trkpt lat="42.74201890393628" lon="13.658379720210739"><ele>480.0</ele><time>2026-04-05T10:30:15.999Z</time></trkpt><trkpt lat="42.74190704831623" lon="13.658265971510595"><ele>477.5</ele><time>2026-04-05T10:30:16.999Z</time></trkpt><trkpt lat="42.741801039195" lon="13.65815995309703"><ele>475.0</ele><time>2026-04-05T10:30:17.999Z</time></trkpt><trkpt lat="42.741702877387446" lon="13.658064317698901"><ele>472.5</ele><time>2026-04-05T10:30:18.999Z</time></trkpt><trkpt lat="42.74160488499378" lon="13.657987653584602"><ele>470.0</ele><time>2026-04-05T10:30:19.999Z</time></trkpt><trkpt lat="42.74149074705854" lon="13.657950228705623"><ele>470.0</ele><time>2026-04-05T10:30:20.999Z</time></trkpt><trkpt lat="42.741361931196" lon="13.657949008043381"><ele>470.0</ele><time>2026-04-05T10:30:21.999Z</time></trkpt><trkpt lat="42.74122643692202" lon="13.657981461166976"><ele>470.0</ele><time>2026-04-05T10:30:22.999Z</time></trkpt><trkpt lat="42.74109480289451" lon="13.658023795899622"><ele>470.0</ele><time>2026-04-05T10:30:23.999Z</time></trkpt><trkpt lat="42.74097162517783" lon="13.658054829665906"><ele>469.25</ele><time>2026-04-05T10:30:24.999Z</time></trkpt><trkpt lat="42.74085175230147" lon="13.65807375673352"><ele>468.5</ele><time>2026-04-05T10:30:25.999Z</time></trkpt><trkpt lat="42.74073516199558" lon="13.658073564483866"><ele>467.75</ele><time>2026-04-05T10:30:26.999Z</time></trkpt><trkpt lat="42.74062459712468" lon="13.658055258582976"><ele>467.0</ele><time>2026-04-05T10:30:27.999Z</time></trkpt><trkpt lat="42.740509330002624" lon="13.658027211372383"><ele>467.0</ele><time>2026-04-05T10:30:28.999Z</time></trkpt><trkpt lat="42.74038593035051" lon="13.657984384402944"><ele>467.0</ele><time>2026-04-05T10:30:29.999Z</time></trkpt><trkpt lat="42.74027059695456" lon="13.65792573908834"><ele>467.0</ele><time>2026-04-05T10:30:30.999Z</time></trkpt><trkpt lat="42.74017225633317" lon="13.657831619112693"><ele>467.0</ele><time>2026-04-05T10:30:31.999Z</time></trkpt><trkpt lat="42.740092695273674" lon="13.657711806822077"><ele>466.0</ele><time>2026-04-05T10:30:32.999Z</time></trkpt><trkpt lat="42.74004089434213" lon="13.657569300852488"><ele>465.0</ele><time>2026-04-05T10:30:33.999Z</time></trkpt><trkpt lat="42.7400250749965" lon="13.657411312949332"><ele>464.0</ele><time>2026-04-05T10:30:34.999Z</time></trkpt><trkpt lat="42.74005611330103" lon="13.657276604869434"><ele>463.0</ele><time>2026-04-05T10:30:35.999Z</time></trkpt><trkpt lat="42.740122198323206" lon="13.657152887009337"><ele>466.25</ele><time>2026-04-05T10:30:36.999Z</time></trkpt><trkpt lat="42.74022374289248" lon="13.657035727362308"><ele>469.5</ele><time>2026-04-05T10:30:37.999Z</time></trkpt><trkpt lat="42.740338210921564" lon="13.65691156812583"><ele>472.75</ele><time>2026-04-05T10:30:38.999Z</time></trkpt><trkpt lat="42.740422391210394" lon="13.65679550040306"><ele>476.0</ele><time>2026-04-05T10:30:39.999Z</time></trkpt><trkpt lat="42.74049254423693" lon="13.656679449053703"><ele>476.0</ele><time>2026-04-05T10:30:40.999Z</time></trkpt><trkpt lat="42.740533555296814" lon="13.656536084970284"><ele>476.0</ele><time>2026-04-05T10:30:41.999Z</time></trkpt><trkpt lat="42.74053311936565" lon="13.656371810630743"><ele>476.0</ele><time>2026-04-05T10:30:42.999Z</time></trkpt><trkpt lat="42.74050142569188" lon="13.656221854297163"><ele>476.0</ele><time>2026-04-05T10:30:43.999Z</time></trkpt><trkpt lat="42.74044351784537" lon="13.656082487055793"><ele>474.0</ele><time>2026-04-05T10:30:44.999Z</time></trkpt><trkpt lat="42.74036883049509" lon="13.655979664208198"><ele>472.0</ele><time>2026-04-05T10:30:45.999Z</time></trkpt><trkpt lat="42.740271254991576" lon="13.655909598959184"><ele>470.0</ele><time>2026-04-05T10:30:46.999Z</time></trkpt><trkpt lat="42.74015707850497" lon="13.655875582560984"><ele>468.0</ele><time>2026-04-05T10:30:47.999Z</time></trkpt><trkpt lat="42.74003799202091" lon="13.65587198713846"><ele>466.0</ele><time>2026-04-05T10:30:48.999Z</time></trkpt><trkpt lat="42.7399198548467" lon="13.655868851908807"><ele>464.0</ele><time>2026-04-05T10:30:49.999Z</time></trkpt><trkpt lat="42.73980750414988" lon="13.655862911063332"><ele>462.0</ele><time>2026-04-05T10:30:50.999Z</time></trkpt><trkpt lat="42.73969823713159" lon="13.655861732705047"><ele>460.0</ele><time>2026-04-05T10:30:51.999Z</time></trkpt><trkpt lat="42.73958506913102" lon="13.655870723445299"><ele>460.0</ele><time>2026-04-05T10:30:52.999Z</time></trkpt><trkpt lat="42.73946651411782" lon="13.65590654478265"><ele>460.0</ele><time>2026-04-05T10:30:53.999Z</time></trkpt><trkpt lat="42.73934778740805" lon="13.655969263188767"><ele>460.0</ele><time>2026-04-05T10:30:54.999Z</time></trkpt><trkpt lat="42.739232861862924" lon="13.65605884823765"><ele>460.0</ele><time>2026-04-05T10:30:55.999Z</time></trkpt><trkpt lat="42.739122099549476" lon="13.656172005945171"><ele>461.0</ele><time>2026-04-05T10:30:56.999Z</time></trkpt><trkpt lat="42.7390132556818" lon="13.656305762677512"><ele>462.0</ele><time>2026-04-05T10:30:57.999Z</time></trkpt><trkpt lat="42.738878315527735" lon="13.65645220043313"><ele>463.0</ele><time>2026-04-05T10:30:58.999Z</time></trkpt><trkpt lat="42.73873574350166" lon="13.65661852932013"><ele>463.0</ele><time>2026-04-05T10:30:59.999Z</time></trkpt><trkpt lat="42.73858323000703" lon="13.656796456259439"><ele>463.0</ele><time>2026-04-05T10:31:00.999Z</time></trkpt><trkpt lat="42.738417758977235" lon="13.65698906703988"><ele>463.0</ele><time>2026-04-05T10:31:01.999Z</time></trkpt><trkpt lat="42.73824818245973" lon="13.657185518176497"><ele>462.0</ele><time>2026-04-05T10:31:02.999Z</time></trkpt><trkpt lat="42.738076257871526" lon="13.657384689529476"><ele>461.0</ele><time>2026-04-05T10:31:03.999Z</time></trkpt><trkpt lat="42.73791868876022" lon="13.657596905534515"><ele>460.0</ele><time>2026-04-05T10:31:04.999Z</time></trkpt><trkpt lat="42.73775528678951" lon="13.657786437795504"><ele>463.0</ele><time>2026-04-05T10:31:05.999Z</time></trkpt><trkpt lat="42.7376084322827" lon="13.65799417228875"><ele>466.0</ele><time>2026-04-05T10:31:06.999Z</time></trkpt><trkpt lat="42.737458100783485" lon="13.658202340888328"><ele>469.0</ele><time>2026-04-05T10:31:07.999Z</time></trkpt><trkpt lat="42.73733151783047" lon="13.658436535561718"><ele>464.6666666666667</ele><time>2026-04-05T10:31:08.999Z</time></trkpt><trkpt lat="42.73723294155896" lon="13.658693453511063"><ele>460.33333333333337</ele><time>2026-04-05T10:31:09.999Z</time></trkpt><trkpt lat="42.737125086980136" lon="13.658939975599791"><ele>456.0</ele><time>2026-04-05T10:31:10.999Z</time></trkpt><trkpt lat="42.73701965462771" lon="13.659186297072344"><ele>456.0</ele><time>2026-04-05T10:31:11.999Z</time></trkpt><trkpt lat="42.736917333091384" lon="13.659421943152962"><ele>456.0</ele><time>2026-04-05T10:31:12.999Z</time></trkpt><trkpt lat="42.73681704299321" lon="13.659655165234334"><ele>456.0</ele><time>2026-04-05T10:31:13.999Z</time></trkpt><trkpt lat="42.736722143722865" lon="13.6598756277658"><ele>455.66666666666663</ele><time>2026-04-05T10:31:14.999Z</time></trkpt><trkpt lat="42.736631798518324" lon="13.660087717507523"><ele>455.3333333333333</ele><time>2026-04-05T10:31:15.999Z</time></trkpt><trkpt lat="42.73654690525145" lon="13.66028246518892"><ele>455.0</ele><time>2026-04-05T10:31:16.999Z</time></trkpt><trkpt lat="42.73646372137623" lon="13.660456157422294"><ele>455.0</ele><time>2026-04-05T10:31:18Z</time></trkpt><trkpt lat="42.73637239433494" lon="13.660610532785961"><ele>455.0</ele><time>2026-04-05T10:31:19Z</time></trkpt><trkpt lat="42.73627046762662" lon="13.66074649438169"><ele>455.0</ele><time>2026-04-05T10:31:20Z</time></trkpt><trkpt lat="42.736151894790154" lon="13.660869518234284"><ele>455.0</ele><time>2026-04-05T10:31:21Z</time></trkpt><trkpt lat="42.73602551234346" lon="13.660979056295238"><ele>455.25</ele><time>2026-04-05T10:31:22Z</time></trkpt><trkpt lat="42.735894861840045" lon="13.661066974904527"><ele>455.5</ele><time>2026-04-05T10:31:23Z</time></trkpt><trkpt lat="42.73576412535809" lon="13.661133680562607"><ele>455.75</ele><time>2026-04-05T10:31:24Z</time></trkpt><trkpt lat="42.73563821233829" lon="13.661171355982066"><ele>456.0</ele><time>2026-04-05T10:31:25Z</time></trkpt><trkpt lat="42.735519466292445" lon="13.661191046979328"><ele>456.0</ele><time>2026-04-05T10:31:26Z</time></trkpt><trkpt lat="42.7354055100791" lon="13.661203506538044"><ele>456.0</ele><time>2026-04-05T10:31:27Z</time></trkpt><trkpt lat="42.73528384900832" lon="13.661216753004856"><ele>456.0</ele><time>2026-04-05T10:31:28Z</time></trkpt><trkpt lat="42.73516333332603" lon="13.661230822619519"><ele>456.0</ele><time>2026-04-05T10:31:29Z</time></trkpt><trkpt lat="42.735057949846016" lon="13.66124509384094"><ele>456.20000000000005</ele><time>2026-04-05T10:31:30Z</time></trkpt><trkpt lat="42.73497082375119" lon="13.661252282165803"><ele>456.40000000000003</ele><time>2026-04-05T10:31:31Z</time></trkpt><trkpt lat="42.734840011285954" lon="13.661277762100177"><ele>456.6</ele><time>2026-04-05T10:31:32Z</time></trkpt><trkpt lat="42.73476779053557" lon="13.66127667605582"><ele>456.8</ele><time>2026-04-05T10:31:33Z</time></trkpt><trkpt lat="42.73467370846305" lon="13.661228861956536"><ele>457.0</ele><time>2026-04-05T10:31:35Z</time></trkpt><trkpt lat="42.734605757326975" lon="13.661173507348167"><ele>457.83333333333337</ele><time>2026-04-05T10:31:37Z</time></trkpt><trkpt lat="42.73460643241722" lon="13.661079316098686"><ele>458.6666666666667</ele><time>2026-04-05T10:31:38Z</time></trkpt><trkpt lat="42.734688730604965" lon="13.660970877097565"><ele>459.5</ele><time>2026-04-05T10:31:40Z</time></trkpt><trkpt lat="42.73473347813929" lon="13.660889501734706"><ele>460.33333333333337</ele><time>2026-04-05T10:31:41Z</time></trkpt><trkpt lat="42.73480845020284" lon="13.660835434106612"><ele>461.1666666666667</ele><time>2026-04-05T10:31:42Z</time></trkpt><trkpt lat="42.73488467790771" lon="13.66077908428049"><ele>462.0</ele><time>2026-04-05T10:31:43Z</time></trkpt><trkpt lat="42.73496132353431" lon="13.660710575536184"><ele>462.0</ele><time>2026-04-05T10:31:44Z</time></trkpt><trkpt lat="42.73503781794578" lon="13.660649448087222"><ele>462.0</ele><time>2026-04-05T10:31:45Z</time></trkpt><trkpt lat="42.73511141252387" lon="13.660589155389543"><ele>462.0</ele><time>2026-04-05T10:31:46Z</time></trkpt><trkpt lat="42.73518502235882" lon="13.660529527418165"><ele>462.0</ele><time>2026-04-05T10:31:47Z</time></trkpt><trkpt lat="42.73526060978734" lon="13.660464793851853"><ele>462.0</ele><time>2026-04-05T10:31:48Z</time></trkpt><trkpt lat="42.735342714322734" lon="13.660398880690721"><ele>462.0</ele><time>2026-04-05T10:31:49Z</time></trkpt><trkpt lat="42.735431107288726" lon="13.660328127649644"><ele>464.0</ele><time>2026-04-05T10:31:50Z</time></trkpt><trkpt lat="42.735520631364956" lon="13.66024922113744"><ele>466.0</ele><time>2026-04-05T10:31:51Z</time></trkpt><trkpt lat="42.735616530409295" lon="13.660169893953924"><ele>468.0</ele><time>2026-04-05T10:31:52Z</time></trkpt><trkpt lat="42.73571285836597" lon="13.66008506888058"><ele>470.0</ele><time>2026-04-05T10:31:53Z</time></trkpt><trkpt lat="42.73581179408189" lon="13.659997161098405"><ele>470.0</ele><time>2026-04-05T10:31:54Z</time></trkpt><trkpt lat="42.73592620549422" lon="13.659903424709615"><ele>470.0</ele><time>2026-04-05T10:31:55Z</time></trkpt><trkpt lat="42.73603347795356" lon="13.659812960556831"><ele>470.0</ele><time>2026-04-05T10:31:56Z</time></trkpt><trkpt lat="42.736134052204164" lon="13.659724523369377"><ele>470.0</ele><time>2026-04-05T10:31:57Z</time></trkpt><trkpt lat="42.73621747644998" lon="13.659634571458723"><ele>469.0</ele><time>2026-04-05T10:31:58Z</time></trkpt><trkpt lat="42.73628718487226" lon="13.659529659363892"><ele>468.0</ele><time>2026-04-05T10:31:59Z</time></trkpt><trkpt lat="42.73633424613806" lon="13.659408843830414"><ele>467.0</ele><time>2026-04-05T10:32:00Z</time></trkpt><trkpt lat="42.73636157443863" lon="13.659270806565152"><ele>466.0</ele><time>2026-04-05T10:32:01Z</time></trkpt><trkpt lat="42.736379669447324" lon="13.65912487182575"><ele>465.0</ele><time>2026-04-05T10:32:02Z</time></trkpt><trkpt lat="42.73638397633627" lon="13.658963816227805"><ele>468.25</ele><time>2026-04-05T10:32:03Z</time></trkpt><trkpt lat="42.73638121321021" lon="13.658795508402239"><ele>471.5</ele><time>2026-04-05T10:32:04Z</time></trkpt><trkpt lat="42.736376822334314" lon="13.65862092770643"><ele>474.75</ele><time>2026-04-05T10:32:05Z</time></trkpt><trkpt lat="42.73637426450014" lon="13.65844374590448"><ele>478.0</ele><time>2026-04-05T10:32:06Z</time></trkpt><trkpt lat="42.7363690013702" lon="13.658261554856715"><ele>479.0</ele><time>2026-04-05T10:32:07Z</time></trkpt><trkpt lat="42.73637019152714" lon="13.658081844136998"><ele>480.0</ele><time>2026-04-05T10:32:08Z</time></trkpt><trkpt lat="42.73636860025691" lon="13.657906900265822"><ele>481.0</ele><time>2026-04-05T10:32:09Z</time></trkpt><trkpt lat="42.736366239483935" lon="13.657740763352363"><ele>482.0</ele><time>2026-04-05T10:32:10Z</time></trkpt><trkpt lat="42.73635932610827" lon="13.657582573436562"><ele>483.8</ele><time>2026-04-05T10:32:11Z</time></trkpt><trkpt lat="42.73634452906974" lon="13.65743722000416"><ele>485.6</ele><time>2026-04-05T10:32:12Z</time></trkpt><trkpt lat="42.7363155913944" lon="13.657288652074863"><ele>487.40000000000003</ele><time>2026-04-05T10:32:13Z</time></trkpt><trkpt lat="42.73625941338356" lon="13.657170978783245"><ele>489.20000000000005</ele><time>2026-04-05T10:32:14Z</time></trkpt><trkpt lat="42.73618562057031" lon="13.657061551539192"><ele>491.0</ele><time>2026-04-05T10:32:15Z</time></trkpt><trkpt lat="42.73609724439169" lon="13.656966809367425"><ele>490.6</ele><time>2026-04-05T10:32:16Z</time></trkpt><trkpt lat="42.735999921356125" lon="13.656884925623217"><ele>490.20000000000005</ele><time>2026-04-05T10:32:17Z</time></trkpt><trkpt lat="42.73590072612364" lon="13.656802632755456"><ele>489.79999999999995</ele><time>2026-04-05T10:32:18Z</time></trkpt><trkpt lat="42.735821069687695" lon="13.656696477495046"><ele>489.4</ele><time>2026-04-05T10:32:19Z</time></trkpt><trkpt lat="42.735772515743044" lon="13.656565940016861"><ele>489.0</ele><time>2026-04-05T10:32:20Z</time></trkpt><trkpt lat="42.735757270348266" lon="13.656439294493053"><ele>489.0</ele><time>2026-04-05T10:32:21Z</time></trkpt><trkpt lat="42.73578281278108" lon="13.656308157896715"><ele>489.0</ele><time>2026-04-05T10:32:22Z</time></trkpt><trkpt lat="42.7358295559629" lon="13.656191647896664"><ele>489.0</ele><time>2026-04-05T10:32:23Z</time></trkpt><trkpt lat="42.735901258855826" lon="13.656111298910687"><ele>489.0</ele><time>2026-04-05T10:32:24Z</time></trkpt><trkpt lat="42.73599497429867" lon="13.656061740359803"><ele>489.0</ele><time>2026-04-05T10:32:25Z</time></trkpt><trkpt lat="42.73609931935787" lon="13.65603626763985"><ele>492.0</ele><time>2026-04-05T10:32:26Z</time></trkpt><trkpt lat="42.73621642969121" lon="13.656063802569427"><ele>495.0</ele><time>2026-04-05T10:32:27Z</time></trkpt><trkpt lat="42.73632403509032" lon="13.656040937682784"><ele>498.0</ele><time>2026-04-05T10:32:28Z</time></trkpt><trkpt lat="42.736422769715475" lon="13.65602453230164"><ele>501.0</ele><time>2026-04-05T10:32:29Z</time></trkpt><trkpt lat="42.73651093546718" lon="13.655985749889467"><ele>504.0</ele><time>2026-04-05T10:32:30Z</time></trkpt><trkpt lat="42.73658679143789" lon="13.655914589447866"><ele>504.0</ele><time>2026-04-05T10:32:31Z</time></trkpt><trkpt lat="42.73666201373385" lon="13.655810044423069"><ele>504.0</ele><time>2026-04-05T10:32:32Z</time></trkpt><trkpt lat="42.736734319065874" lon="13.65568004371592"><ele>504.0</ele><time>2026-04-05T10:32:33Z</time></trkpt><trkpt lat="42.73680931735103" lon="13.655534856068025"><ele>504.0</ele><time>2026-04-05T10:32:34Z</time></trkpt><trkpt lat="42.73688883858515" lon="13.655393801898075"><ele>502.25</ele><time>2026-04-05T10:32:35Z</time></trkpt><trkpt lat="42.73696943661684" lon="13.655248962903077"><ele>500.5</ele><time>2026-04-05T10:32:36Z</time></trkpt><trkpt lat="42.737048508204815" lon="13.655101126122894"><ele>498.75</ele><time>2026-04-05T10:32:37Z</time></trkpt><trkpt lat="42.73711954101133" lon="13.654950521951402"><ele>497.0</ele><time>2026-04-05T10:32:38Z</time></trkpt><trkpt lat="42.73715881086395" lon="13.65479716182512"><ele>497.0</ele><time>2026-04-05T10:32:39Z</time></trkpt><trkpt lat="42.737168868559046" lon="13.654662440997376"><ele>497.00000000000006</ele><time>2026-04-05T10:32:40Z</time></trkpt><trkpt lat="42.73715247195755" lon="13.654534714402512"><ele>497.00000000000006</ele><time>2026-04-05T10:32:41Z</time></trkpt><trkpt lat="42.73710504776164" lon="13.654425258972267"><ele>497.0</ele><time>2026-04-05T10:32:42Z</time></trkpt><trkpt lat="42.737026879930575" lon="13.654346238027545"><ele>497.0</ele><time>2026-04-05T10:32:43Z</time></trkpt><trkpt lat="42.736924643647235" lon="13.654298892715435"><ele>501.0</ele><time>2026-04-05T10:32:44Z</time></trkpt><trkpt lat="42.7368081468415" lon="13.654285163321083"><ele>505.0</ele><time>2026-04-05T10:32:45Z</time></trkpt><trkpt lat="42.736680396079244" lon="13.654278743237029"><ele>509.0</ele><time>2026-04-05T10:32:46Z</time></trkpt><trkpt lat="42.736548269204334" lon="13.6542642102003"><ele>513.0</ele><time>2026-04-05T10:32:47Z</time></trkpt><trkpt lat="42.73641716842781" lon="13.654249330746513"><ele>513.0</ele><time>2026-04-05T10:32:48Z</time></trkpt><trkpt lat="42.73629259157381" lon="13.65423321264642"><ele>513.0</ele><time>2026-04-05T10:32:49Z</time></trkpt><trkpt lat="42.736184830552006" lon="13.654216235332141"><ele>513.0</ele><time>2026-04-05T10:32:50Z</time></trkpt><trkpt lat="42.736094730371384" lon="13.654188393028342"><ele>513.0</ele><time>2026-04-05T10:32:51Z</time></trkpt><trkpt lat="42.73601091578645" lon="13.65413380958209"><ele>513.0</ele><time>2026-04-05T10:32:52Z</time></trkpt><trkpt lat="42.735917565620625" lon="13.654060181488878"><ele>512.4</ele><time>2026-04-05T10:32:53Z</time></trkpt><trkpt lat="42.73582600792877" lon="13.653982965679234"><ele>511.79999999999995</ele><time>2026-04-05T10:32:54Z</time></trkpt><trkpt lat="42.73574947260402" lon="13.653912628859928"><ele>511.2</ele><time>2026-04-05T10:32:55Z</time></trkpt><trkpt lat="42.735701296609086" lon="13.653824034267906"><ele>510.6</ele><time>2026-04-05T10:32:56Z</time></trkpt><trkpt lat="42.73567555632665" lon="13.653712520469147"><ele>510.0</ele><time>2026-04-05T10:32:57Z</time></trkpt><trkpt lat="42.73567230662671" lon="13.653571930903933"><ele>511.8</ele><time>2026-04-05T10:32:58Z</time></trkpt><trkpt lat="42.73566461628704" lon="13.653417123686868"><ele>513.6</ele><time>2026-04-05T10:32:59Z</time></trkpt><trkpt lat="42.73564905689807" lon="13.653267506221452"><ele>515.4</ele><time>2026-04-05T10:33:00Z</time></trkpt><trkpt lat="42.7356335559914" lon="13.653142621552526"><ele>517.2</ele><time>2026-04-05T10:33:01Z</time></trkpt><trkpt lat="42.73561269315577" lon="13.653045038683192"><ele>519.0</ele><time>2026-04-05T10:33:02Z</time></trkpt><trkpt lat="42.73556739295681" lon="13.6529850906645"><ele>519.0</ele><time>2026-04-05T10:33:03Z</time></trkpt><trkpt lat="42.735420271736004" lon="13.652952776425694"><ele>519.0</ele><time>2026-04-05T10:33:04.999Z</time></trkpt><trkpt lat="42.73533477624926" lon="13.652963425007963"><ele>519.0</ele><time>2026-04-05T10:33:05.999Z</time></trkpt><trkpt lat="42.73523657552695" lon="13.652980251415695"><ele>519.0</ele><time>2026-04-05T10:33:06.999Z</time></trkpt><trkpt lat="42.73513723230237" lon="13.652996908622082"><ele>519.0</ele><time>2026-04-05T10:33:07.999Z</time></trkpt><trkpt lat="42.73505564132936" lon="13.653050300069735"><ele>519.1666666666666</ele><time>2026-04-05T10:33:08.999Z</time></trkpt><trkpt lat="42.73498409746361" lon="13.65313744366695"><ele>519.3333333333334</ele><time>2026-04-05T10:33:09.999Z</time></trkpt><trkpt lat="42.73492544952354" lon="13.653260524277847"><ele>519.5</ele><time>2026-04-05T10:33:10.999Z</time></trkpt><trkpt lat="42.73484989127513" lon="13.653343719499627"><ele>519.6666666666667</ele><time>2026-04-05T10:33:11.999Z</time></trkpt><trkpt lat="42.734804302101416" lon="13.653422606059669"><ele>519.8333333333334</ele><time>2026-04-05T10:33:12.999Z</time></trkpt><trkpt lat="42.734734930612404" lon="13.653432664552273"><ele>520.0</ele><time>2026-04-05T10:33:13.999Z</time></trkpt><trkpt lat="42.734659578438354" lon="13.653408394691803"><ele>520.0</ele><time>2026-04-05T10:33:14.999Z</time></trkpt><trkpt lat="42.734593781133384" lon="13.653347514278984"><ele>520.0</ele><time>2026-04-05T10:33:15.999Z</time></trkpt><trkpt lat="42.73452963219995" lon="13.65324576448879"><ele>520.0</ele><time>2026-04-05T10:33:16.999Z</time></trkpt><trkpt lat="42.73446151862627" lon="13.653133011126066"><ele>520.0</ele><time>2026-04-05T10:33:17.999Z</time></trkpt><trkpt lat="42.73438078007438" lon="13.653015427853669"><ele>520.0</ele><time>2026-04-05T10:33:18.999Z</time></trkpt><trkpt lat="42.73429951086801" lon="13.652907563026035"><ele>520.25</ele><time>2026-04-05T10:33:19.999Z</time></trkpt><trkpt lat="42.73422710173259" lon="13.652795206121088"><ele>520.5</ele><time>2026-04-05T10:33:20.999Z</time></trkpt><trkpt lat="42.734184469461866" lon="13.652660942954864"><ele>520.75</ele><time>2026-04-05T10:33:21.999Z</time></trkpt><trkpt lat="42.73416234531281" lon="13.652508053947368"><ele>521.0</ele><time>2026-04-05T10:33:22.999Z</time></trkpt><trkpt lat="42.73414517270561" lon="13.652333234989019"><ele>522.5</ele><time>2026-04-05T10:33:24Z</time></trkpt><trkpt lat="42.734109737715656" lon="13.652162866493038"><ele>524.0</ele><time>2026-04-05T10:33:25Z</time></trkpt><trkpt lat="42.734046240424675" lon="13.652003518115203"><ele>525.5</ele><time>2026-04-05T10:33:26Z</time></trkpt><trkpt lat="42.733968055973975" lon="13.651842278597645"><ele>527.0</ele><time>2026-04-05T10:33:27Z</time></trkpt><trkpt lat="42.73389130947914" lon="13.651690188680726"><ele>529.0</ele><time>2026-04-05T10:33:28Z</time></trkpt><trkpt lat="42.733843758753274" lon="13.651530493107382"><ele>531.0</ele><time>2026-04-05T10:33:29Z</time></trkpt><trkpt lat="42.73381730701967" lon="13.651362420109347"><ele>533.0</ele><time>2026-04-05T10:33:30Z</time></trkpt><trkpt lat="42.733807245695004" lon="13.6511853236042"><ele>535.0</ele><time>2026-04-05T10:33:31Z</time></trkpt><trkpt lat="42.733789370773856" lon="13.651004259252826"><ele>535.8333333333334</ele><time>2026-04-05T10:33:32Z</time></trkpt><trkpt lat="42.73376754802853" lon="13.650841922646533"><ele>536.6666666666667</ele><time>2026-04-05T10:33:33Z</time></trkpt><trkpt lat="42.73375423777734" lon="13.650717264243124"><ele>537.5</ele><time>2026-04-05T10:33:34Z</time></trkpt><trkpt lat="42.733764544329475" lon="13.650616230507577"><ele>538.3333333333334</ele><time>2026-04-05T10:33:35Z</time></trkpt><trkpt lat="42.7338041371829" lon="13.650535202753467"><ele>539.1666666666666</ele><time>2026-04-05T10:33:36Z</time></trkpt><trkpt lat="42.73388192304878" lon="13.650496129236599"><ele>540.0</ele><time>2026-04-05T10:33:37Z</time></trkpt><trkpt lat="42.73397175757365" lon="13.650513217989332"><ele>540.0</ele><time>2026-04-05T10:33:38Z</time></trkpt><trkpt lat="42.734072355551476" lon="13.650537486494983"><ele>540.0</ele><time>2026-04-05T10:33:39Z</time></trkpt><trkpt lat="42.734196312259925" lon="13.650553213226061"><ele>540.0</ele><time>2026-04-05T10:33:40Z</time></trkpt><trkpt lat="42.73432805128312" lon="13.650549575303296"><ele>540.0</ele><time>2026-04-05T10:33:41Z</time></trkpt><trkpt lat="42.73446934405298" lon="13.6505717859964"><ele>540.8</ele><time>2026-04-05T10:33:42Z</time></trkpt><trkpt lat="42.73459960044845" lon="13.650582701926528"><ele>541.6</ele><time>2026-04-05T10:33:43Z</time></trkpt><trkpt lat="42.73469895105857" lon="13.650596970082479"><ele>542.4</ele><time>2026-04-05T10:33:44Z</time></trkpt><trkpt lat="42.734779856526" lon="13.650564609485889"><ele>543.2</ele><time>2026-04-05T10:33:45Z</time></trkpt><trkpt lat="42.734847251158676" lon="13.650504812923867"><ele>544.0</ele><time>2026-04-05T10:33:46Z</time></trkpt><trkpt lat="42.73489520069408" lon="13.650411636393455"><ele>544.0</ele><time>2026-04-05T10:33:47Z</time></trkpt><trkpt lat="42.73489703134261" lon="13.650309653284763"><ele>544.0</ele><time>2026-04-05T10:33:48Z</time></trkpt><trkpt lat="42.734859682640206" lon="13.650212433243519"><ele>544.0</ele><time>2026-04-05T10:33:49Z</time></trkpt><trkpt lat="42.73480508511622" lon="13.65013533715641"><ele>544.0</ele><time>2026-04-05T10:33:50Z</time></trkpt><trkpt lat="42.73473780135086" lon="13.650059764130821"><ele>544.0</ele><time>2026-04-05T10:33:51Z</time></trkpt><trkpt lat="42.73465669829397" lon="13.649962146429047"><ele>544.0</ele><time>2026-04-05T10:33:52Z</time></trkpt><trkpt lat="42.73457267994403" lon="13.64985024947967"><ele>545.0</ele><time>2026-04-05T10:33:53Z</time></trkpt><trkpt lat="42.73447987388954" lon="13.649726623166018"><ele>546.0</ele><time>2026-04-05T10:33:54Z</time></trkpt><trkpt lat="42.734383482317455" lon="13.649605958284784"><ele>547.0</ele><time>2026-04-05T10:33:55Z</time></trkpt><trkpt lat="42.734280527482525" lon="13.649474809078901"><ele>548.0</ele><time>2026-04-05T10:33:56Z</time></trkpt><trkpt lat="42.73416930383266" lon="13.649332762666322"><ele>550.6666666666666</ele><time>2026-04-05T10:33:57Z</time></trkpt><trkpt lat="42.734046483765056" lon="13.649195295224256"><ele>553.3333333333334</ele><time>2026-04-05T10:33:58Z</time></trkpt><trkpt lat="42.73390505967101" lon="13.64907498949843"><ele>556.0</ele><time>2026-04-05T10:33:59Z</time></trkpt><trkpt lat="42.73375908112037" lon="13.648958481439248"><ele>556.0</ele><time>2026-04-05T10:34:00Z</time></trkpt><trkpt lat="42.73362406954583" lon="13.64884788915448"><ele>556.0</ele><time>2026-04-05T10:34:01Z</time></trkpt><trkpt lat="42.733513407516305" lon="13.648754400463535"><ele>556.0</ele><time>2026-04-05T10:34:02Z</time></trkpt><trkpt lat="42.73343636387396" lon="13.64868807820723"><ele>556.0</ele><time>2026-04-05T10:34:03Z</time></trkpt><trkpt lat="42.733382930291064" lon="13.64862207313103"><ele>557.4</ele><time>2026-04-05T10:34:04Z</time></trkpt><trkpt lat="42.73336992246101" lon="13.648513952016142"><ele>558.8</ele><time>2026-04-05T10:34:05Z</time></trkpt><trkpt lat="42.73336092816944" lon="13.648383363266015"><ele>560.1999999999999</ele><time>2026-04-05T10:34:06Z</time></trkpt><trkpt lat="42.733373684268464" lon="13.648232471892653"><ele>561.6</ele><time>2026-04-05T10:34:07Z</time></trkpt><trkpt lat="42.73339591610752" lon="13.648072422820976"><ele>563.0</ele><time>2026-04-05T10:34:08Z</time></trkpt><trkpt lat="42.73340441673064" lon="13.647921442643693"><ele>563.0</ele><time>2026-04-05T10:34:09Z</time></trkpt><trkpt lat="42.7333927818148" lon="13.647794795572292"><ele>563.0</ele><time>2026-04-05T10:34:10Z</time></trkpt><trkpt lat="42.733355639644316" lon="13.647686077117948"><ele>563.0</ele><time>2026-04-05T10:34:11Z</time></trkpt><trkpt lat="42.73332255469246" lon="13.64756579073841"><ele>563.0</ele><time>2026-04-05T10:34:12Z</time></trkpt><trkpt lat="42.73332790776159" lon="13.647468262920782"><ele>563.0</ele><time>2026-04-05T10:34:13Z</time></trkpt><trkpt lat="42.73340901720571" lon="13.647366941519067"><ele>565.5</ele><time>2026-04-05T10:34:15Z</time></trkpt><trkpt lat="42.733501626170664" lon="13.647485311345909"><ele>568.0</ele><time>2026-04-05T10:34:17Z</time></trkpt><trkpt lat="42.73357817071973" lon="13.647565918390843"><ele>570.5</ele><time>2026-04-05T10:34:18Z</time></trkpt><trkpt lat="42.73365273939328" lon="13.647662695209984"><ele>573.0</ele><time>2026-04-05T10:34:19Z</time></trkpt><trkpt lat="42.73375618766648" lon="13.64776191425717"><ele>572.0</ele><time>2026-04-05T10:34:20Z</time></trkpt><trkpt lat="42.73387009213924" lon="13.647856988207034"><ele>571.0</ele><time>2026-04-05T10:34:21Z</time></trkpt><trkpt lat="42.734002625624754" lon="13.64788922762074"><ele>570.0</ele><time>2026-04-05T10:34:22Z</time></trkpt><trkpt lat="42.73413528094388" lon="13.647959915116713"><ele>569.0</ele><time>2026-04-05T10:34:23Z</time></trkpt><trkpt lat="42.73428828478731" lon="13.648013583118427"><ele>570.2</ele><time>2026-04-05T10:34:24Z</time></trkpt><trkpt lat="42.734444810782946" lon="13.648058953781302"><ele>571.4</ele><time>2026-04-05T10:34:25Z</time></trkpt><trkpt lat="42.73453987490166" lon="13.648059290406698"><ele>572.6</ele><time>2026-04-05T10:34:26Z</time></trkpt><trkpt lat="42.73461703025861" lon="13.648056326591613"><ele>573.8</ele><time>2026-04-05T10:34:27Z</time></trkpt><trkpt lat="42.734681007740285" lon="13.648011063967706"><ele>575.0</ele><time>2026-04-05T10:34:28Z</time></trkpt><trkpt lat="42.73471408354727" lon="13.647923438298907"><ele>575.0</ele><time>2026-04-05T10:34:29Z</time></trkpt><trkpt lat="42.734712283930534" lon="13.647819223465659"><ele>575.0</ele><time>2026-04-05T10:34:30Z</time></trkpt><trkpt lat="42.734656761218716" lon="13.647709792131861"><ele>575.0</ele><time>2026-04-05T10:34:31Z</time></trkpt><trkpt lat="42.734577775177705" lon="13.647600886466963"><ele>575.0</ele><time>2026-04-05T10:34:32Z</time></trkpt><trkpt lat="42.734482305241926" lon="13.647486136106282"><ele>575.0</ele><time>2026-04-05T10:34:33Z</time></trkpt><trkpt lat="42.73440032040016" lon="13.64737242802479"><ele>576.0</ele><time>2026-04-05T10:34:34Z</time></trkpt><trkpt lat="42.73433356126982" lon="13.647269755180764"><ele>577.0</ele><time>2026-04-05T10:34:35Z</time></trkpt><trkpt lat="42.73433492936866" lon="13.647129205318116"><ele>578.0</ele><time>2026-04-05T10:34:37Z</time></trkpt><trkpt lat="42.73438058547831" lon="13.647059556527052"><ele>579.0</ele><time>2026-04-05T10:34:38Z</time></trkpt><trkpt lat="42.73445798783905" lon="13.647022104805131"><ele>580.0</ele><time>2026-04-05T10:34:39Z</time></trkpt><trkpt lat="42.734552705666026" lon="13.647098077960273"><ele>581.75</ele><time>2026-04-05T10:34:40Z</time></trkpt><trkpt lat="42.73466746686924" lon="13.647107025020498"><ele>583.5</ele><time>2026-04-05T10:34:41Z</time></trkpt><trkpt lat="42.73478806382731" lon="13.647072942130047"><ele>585.25</ele><time>2026-04-05T10:34:42Z</time></trkpt><trkpt lat="42.7349092958606" lon="13.647047079157684"><ele>587.0</ele><time>2026-04-05T10:34:43Z</time></trkpt><trkpt lat="42.735028776336996" lon="13.646999454617116"><ele>586.8000000000001</ele><time>2026-04-05T10:34:44Z</time></trkpt><trkpt lat="42.735133305544" lon="13.646956899028423"><ele>586.6</ele><time>2026-04-05T10:34:45Z</time></trkpt><trkpt lat="42.73521639255806" lon="13.646919522067988"><ele>586.4000000000001</ele><time>2026-04-05T10:34:46Z</time></trkpt><trkpt lat="42.7352830415811" lon="13.646837216130475"><ele>586.2</ele><time>2026-04-05T10:34:47Z</time></trkpt><trkpt lat="42.73531700380175" lon="13.646714492057972"><ele>586.0</ele><time>2026-04-05T10:34:48Z</time></trkpt><trkpt lat="42.73532677038232" lon="13.646559727185444"><ele>586.0</ele><time>2026-04-05T10:34:49Z</time></trkpt><trkpt lat="42.73529764706556" lon="13.64639166343523"><ele>586.0</ele><time>2026-04-05T10:34:50Z</time></trkpt><trkpt lat="42.73529501305869" lon="13.646258212487101"><ele>586.0</ele><time>2026-04-05T10:34:51Z</time></trkpt><trkpt lat="42.735284948471495" lon="13.646161633832524"><ele>586.0</ele><time>2026-04-05T10:34:52Z</time></trkpt><trkpt lat="42.73522076798737" lon="13.646015484872171"><ele>586.0</ele><time>2026-04-05T10:34:54Z</time></trkpt><trkpt lat="42.73512349084324" lon="13.645993127933096"><ele>590.5</ele><time>2026-04-05T10:34:55Z</time></trkpt><trkpt lat="42.735009411850825" lon="13.646013558528407"><ele>595.0</ele><time>2026-04-05T10:34:56Z</time></trkpt><trkpt lat="42.734893422775656" lon="13.646035753630246"><ele>599.5</ele><time>2026-04-05T10:34:57Z</time></trkpt><trkpt lat="42.734768293623404" lon="13.646059492058958"><ele>604.0</ele><time>2026-04-05T10:34:58Z</time></trkpt><trkpt lat="42.734662464957324" lon="13.646057412991226"><ele>604.0</ele><time>2026-04-05T10:34:59Z</time></trkpt><trkpt lat="42.73455740376767" lon="13.646045240768307"><ele>604.0</ele><time>2026-04-05T10:35:00Z</time></trkpt><trkpt lat="42.73446023032866" lon="13.646026900185014"><ele>604.0</ele><time>2026-04-05T10:35:01Z</time></trkpt><trkpt lat="42.734366867675895" lon="13.645995630837874"><ele>604.0</ele><time>2026-04-05T10:35:02Z</time></trkpt><trkpt lat="42.73426555661166" lon="13.645951046451806"><ele>604.0</ele><time>2026-04-05T10:35:03Z</time></trkpt><trkpt lat="42.7341584369502" lon="13.645902732631544"><ele>604.2</ele><time>2026-04-05T10:35:04Z</time></trkpt><trkpt lat="42.73406233732238" lon="13.645855521239275"><ele>604.4</ele><time>2026-04-05T10:35:05Z</time></trkpt><trkpt lat="42.73399562232145" lon="13.645807707206405"><ele>604.6</ele><time>2026-04-05T10:35:06Z</time></trkpt><trkpt lat="42.73394846871585" lon="13.645683796149513"><ele>604.8</ele><time>2026-04-05T10:35:08Z</time></trkpt><trkpt lat="42.73404259378666" lon="13.645544314395188"><ele>605.0</ele><time>2026-04-05T10:35:10Z</time></trkpt><trkpt lat="42.734135544714796" lon="13.645478246960852"><ele>605.0</ele><time>2026-04-05T10:35:11Z</time></trkpt><trkpt lat="42.73422975672713" lon="13.645411055689925"><ele>605.0</ele><time>2026-04-05T10:35:12Z</time></trkpt><trkpt lat="42.734308151703836" lon="13.645337909413305"><ele>605.0</ele><time>2026-04-05T10:35:13Z</time></trkpt><trkpt lat="42.73435846426422" lon="13.645270579964007"><ele>605.0</ele><time>2026-04-05T10:35:14Z</time></trkpt><trkpt lat="42.73434526165047" lon="13.645093323668036"><ele>605.0</ele><time>2026-04-05T10:35:16Z</time></trkpt><trkpt lat="42.734281137276376" lon="13.645027154428893"><ele>607.6</ele><time>2026-04-05T10:35:17Z</time></trkpt><trkpt lat="42.73419024202819" lon="13.645002888371536"><ele>610.2</ele><time>2026-04-05T10:35:18Z</time></trkpt><trkpt lat="42.73408174495121" lon="13.644990713924134"><ele>612.8</ele><time>2026-04-05T10:35:19Z</time></trkpt><trkpt lat="42.73396516986445" lon="13.644983585567202"><ele>615.4</ele><time>2026-04-05T10:35:20Z</time></trkpt><trkpt lat="42.73385005454706" lon="13.644969984223405"><ele>618.0</ele><time>2026-04-05T10:35:21Z</time></trkpt><trkpt lat="42.73375436780369" lon="13.644927289686704"><ele>618.0</ele><time>2026-04-05T10:35:22Z</time></trkpt><trkpt lat="42.733680006250694" lon="13.64491306208813"><ele>618.0</ele><time>2026-04-05T10:35:23Z</time></trkpt><trkpt lat="42.733627080445096" lon="13.644842175589826"><ele>618.0</ele><time>2026-04-05T10:35:24Z</time></trkpt><trkpt lat="42.733586027005856" lon="13.644740773171545"><ele>618.0</ele><time>2026-04-05T10:35:25Z</time></trkpt><trkpt lat="42.73355847918488" lon="13.644607238710098"><ele>618.0</ele><time>2026-04-05T10:35:26Z</time></trkpt><trkpt lat="42.73352805442321" lon="13.644459020451212"><ele>618.0</ele><time>2026-04-05T10:35:27Z</time></trkpt><trkpt lat="42.7334845409159" lon="13.644320034630761"><ele>618.4</ele><time>2026-04-05T10:35:28Z</time></trkpt><trkpt lat="42.73344959911074" lon="13.644177651441316"><ele>618.8</ele><time>2026-04-05T10:35:29Z</time></trkpt><trkpt lat="42.73341313763705" lon="13.644041880300783"><ele>619.2</ele><time>2026-04-05T10:35:30Z</time></trkpt><trkpt lat="42.733378111010346" lon="13.643930468610481"><ele>619.6</ele><time>2026-04-05T10:35:31Z</time></trkpt><trkpt lat="42.73333363702654" lon="13.643825040209368"><ele>620.0</ele><time>2026-04-05T10:35:32Z</time></trkpt><trkpt lat="42.7332794215022" lon="13.643725001116447"><ele>622.5</ele><time>2026-04-05T10:35:33Z</time></trkpt><trkpt lat="42.73320688605817" lon="13.64362982436037"><ele>625.0</ele><time>2026-04-05T10:35:34Z</time></trkpt><trkpt lat="42.73314651524369" lon="13.643551886982477"><ele>627.5</ele><time>2026-04-05T10:35:35Z</time></trkpt><trkpt lat="42.733081859692305" lon="13.643469347807988"><ele>630.0</ele><time>2026-04-05T10:35:36Z</time></trkpt><trkpt lat="42.73302075311993" lon="13.643389182754655"><ele>632.5</ele><time>2026-04-05T10:35:37Z</time></trkpt><trkpt lat="42.7329781627586" lon="13.643298277983373"><ele>635.0</ele><time>2026-04-05T10:35:38Z</time></trkpt><trkpt lat="42.733016135163695" lon="13.643176909844023"><ele>635.0</ele><time>2026-04-05T10:35:40Z</time></trkpt><trkpt lat="42.73307447894444" lon="13.643141319862474"><ele>635.0</ele><time>2026-04-05T10:35:41Z</time></trkpt><trkpt lat="42.73314602043179" lon="13.643157572477783"><ele>635.0</ele><time>2026-04-05T10:35:42Z</time></trkpt><trkpt lat="42.733202464361206" lon="13.643221874594644"><ele>635.0</ele><time>2026-04-05T10:35:43Z</time></trkpt><trkpt lat="42.73323465679348" lon="13.643344804730702"><ele>635.0</ele><time>2026-04-05T10:35:44Z</time></trkpt><trkpt lat="42.73329640787768" lon="13.643449808606796"><ele>635.0</ele><time>2026-04-05T10:35:45Z</time></trkpt><trkpt lat="42.733360610672285" lon="13.643546067949826"><ele>635.0</ele><time>2026-04-05T10:35:46Z</time></trkpt><trkpt lat="42.73345013448832" lon="13.643601705934682"><ele>635.0</ele><time>2026-04-05T10:35:47Z</time></trkpt><trkpt lat="42.733552222630834" lon="13.643638925783934"><ele>635.0</ele><time>2026-04-05T10:35:48Z</time></trkpt><trkpt lat="42.73365477934602" lon="13.643669025204073"><ele>635.0</ele><time>2026-04-05T10:35:49Z</time></trkpt><trkpt lat="42.73375729495537" lon="13.643691973878749"><ele>635.0</ele><time>2026-04-05T10:35:50Z</time></trkpt><trkpt lat="42.733853176745114" lon="13.643719352791507"><ele>636.2</ele><time>2026-04-05T10:35:51Z</time></trkpt><trkpt lat="42.73393393143044" lon="13.643736170755213"><ele>637.4</ele><time>2026-04-05T10:35:52Z</time></trkpt><trkpt lat="42.73400804448138" lon="13.643730383847492"><ele>638.5999999999999</ele><time>2026-04-05T10:35:53Z</time></trkpt><trkpt lat="42.734086252192476" lon="13.643687090939107"><ele>639.8</ele><time>2026-04-05T10:35:54Z</time></trkpt><trkpt lat="42.73417006370832" lon="13.643601829824956"><ele>641.0</ele><time>2026-04-05T10:35:55Z</time></trkpt><trkpt lat="42.73425845247262" lon="13.643506711983553"><ele>641.0</ele><time>2026-04-05T10:35:56Z</time></trkpt><trkpt lat="42.734345665265856" lon="13.6434182041453"><ele>641.0</ele><time>2026-04-05T10:35:57Z</time></trkpt><trkpt lat="42.73443194534198" lon="13.643329912039528"><ele>641.0</ele><time>2026-04-05T10:35:58Z</time></trkpt><trkpt lat="42.73451949997168" lon="13.643241728318298"><ele>641.0</ele><time>2026-04-05T10:35:59Z</time></trkpt><trkpt lat="42.7346105910625" lon="13.64315024958283"><ele>641.0</ele><time>2026-04-05T10:36:00Z</time></trkpt><trkpt lat="42.73470333078588" lon="13.643068640140353"><ele>642.1999999999999</ele><time>2026-04-05T10:36:01Z</time></trkpt><trkpt lat="42.734796141149886" lon="13.642989732607811"><ele>643.4</ele><time>2026-04-05T10:36:02Z</time></trkpt><trkpt lat="42.73488790315753" lon="13.64290932956491"><ele>644.6</ele><time>2026-04-05T10:36:03Z</time></trkpt><trkpt lat="42.734980139633066" lon="13.642825953772745"><ele>645.8</ele><time>2026-04-05T10:36:04Z</time></trkpt><trkpt lat="42.73506918980018" lon="13.642735734200993"><ele>647.0</ele><time>2026-04-05T10:36:05Z</time></trkpt><trkpt lat="42.73514686979981" lon="13.642625800073807"><ele>647.0</ele><time>2026-04-05T10:36:06Z</time></trkpt><trkpt lat="42.73520728324149" lon="13.642486325809454"><ele>647.0</ele><time>2026-04-05T10:36:07Z</time></trkpt><trkpt lat="42.735252426566866" lon="13.642332417130563"><ele>647.0</ele><time>2026-04-05T10:36:08Z</time></trkpt><trkpt lat="42.735282667357836" lon="13.642184264730007"><ele>647.0</ele><time>2026-04-05T10:36:09Z</time></trkpt><trkpt lat="42.73532183233923" lon="13.642064938258239"><ele>648.0</ele><time>2026-04-05T10:36:10Z</time></trkpt><trkpt lat="42.73538741341933" lon="13.641979786493376"><ele>649.0</ele><time>2026-04-05T10:36:11Z</time></trkpt><trkpt lat="42.73547815570844" lon="13.641937160649697"><ele>650.0</ele><time>2026-04-05T10:36:12Z</time></trkpt><trkpt lat="42.73557365057591" lon="13.641967426299797"><ele>651.0</ele><time>2026-04-05T10:36:13Z</time></trkpt><trkpt lat="42.73566534176008" lon="13.641963079558318"><ele>652.0</ele><time>2026-04-05T10:36:14Z</time></trkpt><trkpt lat="42.735745456206146" lon="13.641973405648056"><ele>652.0</ele><time>2026-04-05T10:36:15Z</time></trkpt><trkpt lat="42.735834326555214" lon="13.641887297821937"><ele>652.0</ele><time>2026-04-05T10:36:17Z</time></trkpt><trkpt lat="42.73578368205489" lon="13.641701660372378"><ele>652.0</ele><time>2026-04-05T10:36:19Z</time></trkpt><trkpt lat="42.73571409692414" lon="13.641636073943669"><ele>652.0</ele><time>2026-04-05T10:36:20Z</time></trkpt><trkpt lat="42.73561910507671" lon="13.641610216875542"><ele>652.0</ele><time>2026-04-05T10:36:21Z</time></trkpt><trkpt lat="42.735505193243746" lon="13.641608194591832"><ele>652.0</ele><time>2026-04-05T10:36:22Z</time></trkpt><trkpt lat="42.73539428387092" lon="13.641597643493903"><ele>652.0</ele><time>2026-04-05T10:36:23Z</time></trkpt><trkpt lat="42.73528573244466" lon="13.641586395011949"><ele>652.0</ele><time>2026-04-05T10:36:24Z</time></trkpt><trkpt lat="42.73517856628316" lon="13.641584147140756"><ele>652.0</ele><time>2026-04-05T10:36:25Z</time></trkpt><trkpt lat="42.73506799475386" lon="13.641589872827751"><ele>652.0</ele><time>2026-04-05T10:36:26Z</time></trkpt><trkpt lat="42.73495220032238" lon="13.641595874524521"><ele>653.75</ele><time>2026-04-05T10:36:27Z</time></trkpt><trkpt lat="42.73483273188141" lon="13.641601673775497"><ele>655.5</ele><time>2026-04-05T10:36:28Z</time></trkpt><trkpt lat="42.73471269455773" lon="13.641612249767212"><ele>657.25</ele><time>2026-04-05T10:36:29Z</time></trkpt><trkpt lat="42.73459258937002" lon="13.641624856878451"><ele>659.0</ele><time>2026-04-05T10:36:30Z</time></trkpt><trkpt lat="42.734471712628135" lon="13.641638351490053"><ele>661.0</ele><time>2026-04-05T10:36:31Z</time></trkpt><trkpt lat="42.734355789202525" lon="13.641650989701938"><ele>663.0</ele><time>2026-04-05T10:36:32Z</time></trkpt><trkpt lat="42.73424046690829" lon="13.641669843100193"><ele>665.0</ele><time>2026-04-05T10:36:33Z</time></trkpt><trkpt lat="42.734129413426984" lon="13.641677885837698"><ele>667.0</ele><time>2026-04-05T10:36:34Z</time></trkpt><trkpt lat="42.734016721198664" lon="13.641699218147265"><ele>667.0</ele><time>2026-04-05T10:36:35Z</time></trkpt><trkpt lat="42.733907551497815" lon="13.641707580839956"><ele>667.0</ele><time>2026-04-05T10:36:36Z</time></trkpt><trkpt lat="42.733806434265844" lon="13.641702022413671"><ele>667.0</ele><time>2026-04-05T10:36:37Z</time></trkpt><trkpt lat="42.73370120750462" lon="13.641679191318845"><ele>667.0</ele><time>2026-04-05T10:36:38Z</time></trkpt><trkpt lat="42.73359306720985" lon="13.641641784441905"><ele>667.0</ele><time>2026-04-05T10:36:39Z</time></trkpt><trkpt lat="42.733489225063565" lon="13.641595053476212"><ele>667.75</ele><time>2026-04-05T10:36:40Z</time></trkpt><trkpt lat="42.73338130329578" lon="13.64153483633364"><ele>668.5</ele><time>2026-04-05T10:36:41Z</time></trkpt><trkpt lat="42.733275016947594" lon="13.641452982124395"><ele>669.25</ele><time>2026-04-05T10:36:42Z</time></trkpt><trkpt lat="42.73317513096037" lon="13.641358311174116"><ele>670.0</ele><time>2026-04-05T10:36:43Z</time></trkpt><trkpt lat="42.733083291644" lon="13.64125553441717"><ele>670.0</ele><time>2026-04-05T10:36:44Z</time></trkpt><trkpt lat="42.73300483597007" lon="13.641155799050695"><ele>670.0</ele><time>2026-04-05T10:36:45Z</time></trkpt><trkpt lat="42.73294257798567" lon="13.641051756024586"><ele>670.0</ele><time>2026-04-05T10:36:46Z</time></trkpt><trkpt lat="42.73288358202311" lon="13.640931301593634"><ele>670.0</ele><time>2026-04-05T10:36:47Z</time></trkpt><trkpt lat="42.73285337875942" lon="13.640766632863789"><ele>670.0</ele><time>2026-04-05T10:36:48Z</time></trkpt><trkpt lat="42.73284163961577" lon="13.640592571173395"><ele>671.4</ele><time>2026-04-05T10:36:49Z</time></trkpt><trkpt lat="42.73283441392881" lon="13.640420828220295"><ele>672.8</ele><time>2026-04-05T10:36:50Z</time></trkpt><trkpt lat="42.73281338768215" lon="13.64029650029291"><ele>674.2</ele><time>2026-04-05T10:36:51Z</time></trkpt><trkpt lat="42.732760178963574" lon="13.640214979656275"><ele>675.6</ele><time>2026-04-05T10:36:52Z</time></trkpt><trkpt lat="42.732675295758405" lon="13.640159951404112"><ele>677.0</ele><time>2026-04-05T10:36:53Z</time></trkpt><trkpt lat="42.73256166297908" lon="13.640111518062387"><ele>679.8</ele><time>2026-04-05T10:36:54Z</time></trkpt><trkpt lat="42.73245113743294" lon="13.64006952892842"><ele>682.6</ele><time>2026-04-05T10:36:55Z</time></trkpt><trkpt lat="42.73235464543023" lon="13.640042434122352"><ele>685.4</ele><time>2026-04-05T10:36:56Z</time></trkpt><trkpt lat="42.73224904709918" lon="13.640061749994231"><ele>688.1999999999999</ele><time>2026-04-05T10:36:57Z</time></trkpt><trkpt lat="42.73214146249724" lon="13.640133231062105"><ele>691.0</ele><time>2026-04-05T10:36:58Z</time></trkpt><trkpt lat="42.73204684763738" lon="13.64023517498534"><ele>691.0</ele><time>2026-04-05T10:36:59Z</time></trkpt><trkpt lat="42.73196728991733" lon="13.640271505015779"><ele>691.0</ele><time>2026-04-05T10:37:00Z</time></trkpt><trkpt lat="42.73189485108503" lon="13.640300703717612"><ele>691.0</ele><time>2026-04-05T10:37:01Z</time></trkpt><trkpt lat="42.731796926064185" lon="13.640267199209456"><ele>691.0</ele><time>2026-04-05T10:37:02Z</time></trkpt><trkpt lat="42.73171302366246" lon="13.640203001984"><ele>691.0</ele><time>2026-04-05T10:37:03Z</time></trkpt><trkpt lat="42.73166824776282" lon="13.640124364774923"><ele>691.0</ele><time>2026-04-05T10:37:04Z</time></trkpt><trkpt lat="42.73167416736372" lon="13.64003017204261"><ele>691.0</ele><time>2026-04-05T10:37:05Z</time></trkpt><trkpt lat="42.73172083294491" lon="13.639941608667424"><ele>691.0</ele><time>2026-04-05T10:37:06Z</time></trkpt><trkpt lat="42.73180210884818" lon="13.639877497140455"><ele>691.0</ele><time>2026-04-05T10:37:07Z</time></trkpt><trkpt lat="42.73191995270012" lon="13.63986192536748"><ele>691.0</ele><time>2026-04-05T10:37:08Z</time></trkpt><trkpt lat="42.73206256173914" lon="13.639833933771591"><ele>691.0</ele><time>2026-04-05T10:37:09Z</time></trkpt><trkpt lat="42.73220635896876" lon="13.639771485617985"><ele>691.0</ele><time>2026-04-05T10:37:10Z</time></trkpt><trkpt lat="42.73235178070909" lon="13.639714403277095"><ele>691.0</ele><time>2026-04-05T10:37:11Z</time></trkpt><trkpt lat="42.732495623028164" lon="13.639650046032397"><ele>691.0</ele><time>2026-04-05T10:37:12Z</time></trkpt><trkpt lat="42.732611465013086" lon="13.639623453515586"><ele>691.0</ele><time>2026-04-05T10:37:13Z</time></trkpt><trkpt lat="42.732702115588694" lon="13.639643553990329"><ele>690.5</ele><time>2026-04-05T10:37:14Z</time></trkpt><trkpt lat="42.73281569530385" lon="13.639714536155711"><ele>690.0</ele><time>2026-04-05T10:37:15Z</time></trkpt><trkpt lat="42.732914284750755" lon="13.639808221916157"><ele>689.5</ele><time>2026-04-05T10:37:16Z</time></trkpt><trkpt lat="42.733030400235386" lon="13.639865479130474"><ele>689.0</ele><time>2026-04-05T10:37:16.999Z</time></trkpt><trkpt lat="42.73316823258896" lon="13.639877625141454"><ele>689.0</ele><time>2026-04-05T10:37:17.999Z</time></trkpt><trkpt lat="42.73331742520298" lon="13.639853566841687"><ele>689.0</ele><time>2026-04-05T10:37:18.999Z</time></trkpt><trkpt lat="42.733477494633924" lon="13.639816817984816"><ele>689.0</ele><time>2026-04-05T10:37:19.999Z</time></trkpt><trkpt lat="42.73363907937285" lon="13.639813269346064"><ele>690.3333333333333</ele><time>2026-04-05T10:37:20.999Z</time></trkpt><trkpt lat="42.733805788909166" lon="13.639836157142494"><ele>691.6666666666666</ele><time>2026-04-05T10:37:21.999Z</time></trkpt><trkpt lat="42.73397805906851" lon="13.639850373199835"><ele>693.0</ele><time>2026-04-05T10:37:22.999Z</time></trkpt><trkpt lat="42.73412785968718" lon="13.639855335053422"><ele>693.0</ele><time>2026-04-05T10:37:23.999Z</time></trkpt><trkpt lat="42.734264900500634" lon="13.63984090552017"><ele>693.0</ele><time>2026-04-05T10:37:24.999Z</time></trkpt><trkpt lat="42.734409526939054" lon="13.639787077209954"><ele>693.0</ele><time>2026-04-05T10:37:25.999Z</time></trkpt><trkpt lat="42.73455095238581" lon="13.639706167852527"><ele>693.0</ele><time>2026-04-05T10:37:26.999Z</time></trkpt><trkpt lat="42.73469578413964" lon="13.639613181721174"><ele>692.25</ele><time>2026-04-05T10:37:27.999Z</time></trkpt><trkpt lat="42.73485028839068" lon="13.639512205532844"><ele>691.5</ele><time>2026-04-05T10:37:28.999Z</time></trkpt><trkpt lat="42.7349860483498" lon="13.639411384220981"><ele>690.75</ele><time>2026-04-05T10:37:29.999Z</time></trkpt><trkpt lat="42.735086293105645" lon="13.639335092860685"><ele>690.0</ele><time>2026-04-05T10:37:30.999Z</time></trkpt><trkpt lat="42.735150820756935" lon="13.639276999765789"><ele>693.4</ele><time>2026-04-05T10:37:31.999Z</time></trkpt><trkpt lat="42.73518384150051" lon="13.639125357858994"><ele>696.8</ele><time>2026-04-05T10:37:33.999Z</time></trkpt><trkpt lat="42.73515341316272" lon="13.639032244812471"><ele>700.2</ele><time>2026-04-05T10:37:34.999Z</time></trkpt><trkpt lat="42.73507417399545" lon="13.638984604890952"><ele>703.6</ele><time>2026-04-05T10:37:36Z</time></trkpt><trkpt lat="42.734970763914255" lon="13.639006572908233"><ele>707.0</ele><time>2026-04-05T10:37:37Z</time></trkpt><trkpt lat="42.7348550804825" lon="13.63906863198778"><ele>707.0</ele><time>2026-04-05T10:37:38Z</time></trkpt><trkpt lat="42.734724840850525" lon="13.639139799833318"><ele>707.0</ele><time>2026-04-05T10:37:39Z</time></trkpt><trkpt lat="42.73467170521648" lon="13.639198050249643"><ele>707.0</ele><time>2026-04-05T10:37:40Z</time></trkpt><trkpt lat="42.73455659508245" lon="13.639243678625233"><ele>707.0</ele><time>2026-04-05T10:37:41Z</time></trkpt><trkpt lat="42.73444176564216" lon="13.639242998271374"><ele>707.0</ele><time>2026-04-05T10:37:42Z</time></trkpt><trkpt lat="42.73433744472541" lon="13.639156626719966"><ele>709.0</ele><time>2026-04-05T10:37:43Z</time></trkpt><trkpt lat="42.73423452084544" lon="13.639052708032882"><ele>711.0</ele><time>2026-04-05T10:37:44Z</time></trkpt><trkpt lat="42.73409800978211" lon="13.638967011277664"><ele>713.0</ele><time>2026-04-05T10:37:45Z</time></trkpt><trkpt lat="42.733944952663904" lon="13.638896911311102"><ele>715.0</ele><time>2026-04-05T10:37:46Z</time></trkpt><trkpt lat="42.73377389066062" lon="13.638853353211557"><ele>715.0</ele><time>2026-04-05T10:37:47Z</time></trkpt><trkpt lat="42.73360221449453" lon="13.638784743997666"><ele>715.0</ele><time>2026-04-05T10:37:48Z</time></trkpt><trkpt lat="42.73342761247272" lon="13.638696843407633"><ele>715.0</ele><time>2026-04-05T10:37:49Z</time></trkpt><trkpt lat="42.73324239043579" lon="13.638599662567906"><ele>722.3333333333334</ele><time>2026-04-05T10:37:50Z</time></trkpt><trkpt lat="42.73304880682131" lon="13.638513469227274"><ele>729.6666666666666</ele><time>2026-04-05T10:37:51Z</time></trkpt><trkpt lat="42.73286981442993" lon="13.638454108829952"><ele>737.0</ele><time>2026-04-05T10:37:52Z</time></trkpt><trkpt lat="42.732716774720714" lon="13.638416871195021"><ele>737.0</ele><time>2026-04-05T10:37:53Z</time></trkpt><trkpt lat="42.7325841996145" lon="13.638396742867641"><ele>737.0</ele><time>2026-04-05T10:37:54Z</time></trkpt><trkpt lat="42.73246236603929" lon="13.638410717058782"><ele>737.0</ele><time>2026-04-05T10:37:55Z</time></trkpt><trkpt lat="42.73234095318175" lon="13.63845429609643"><ele>737.0</ele><time>2026-04-05T10:37:56Z</time></trkpt><trkpt lat="42.73220683345813" lon="13.638516420293131"><ele>737.0</ele><time>2026-04-05T10:37:57Z</time></trkpt><trkpt lat="42.732080415204045" lon="13.638555036916259"><ele>737.0</ele><time>2026-04-05T10:37:58Z</time></trkpt><trkpt lat="42.73197891740224" lon="13.638535175699369"><ele>737.0</ele><time>2026-04-05T10:37:59Z</time></trkpt><trkpt lat="42.73189362880447" lon="13.638501238844755"><ele>737.0</ele><time>2026-04-05T10:38:00Z</time></trkpt><trkpt lat="42.73181319289431" lon="13.638423514192107"><ele>737.0</ele><time>2026-04-05T10:38:01Z</time></trkpt><trkpt lat="42.731742326567115" lon="13.638305938058375"><ele>735.75</ele><time>2026-04-05T10:38:02Z</time></trkpt><trkpt lat="42.73164774941454" lon="13.638170493681365"><ele>734.5</ele><time>2026-04-05T10:38:03Z</time></trkpt><trkpt lat="42.73152531522752" lon="13.638055125406146"><ele>733.25</ele><time>2026-04-05T10:38:04Z</time></trkpt><trkpt lat="42.73139074697506" lon="13.637967879744378"><ele>732.0</ele><time>2026-04-05T10:38:05Z</time></trkpt><trkpt lat="42.731243886723604" lon="13.637908282441828"><ele>732.0</ele><time>2026-04-05T10:38:06Z</time></trkpt><trkpt lat="42.73113298295788" lon="13.637863222039298"><ele>732.0</ele><time>2026-04-05T10:38:07Z</time></trkpt><trkpt lat="42.73107412222496" lon="13.637814099003096"><ele>732.0</ele><time>2026-04-05T10:38:08Z</time></trkpt><trkpt lat="42.73110885879185" lon="13.637670558211498"><ele>732.0</ele><time>2026-04-05T10:38:10Z</time></trkpt><trkpt lat="42.731167062544635" lon="13.637611009045536"><ele>732.0</ele><time>2026-04-05T10:38:11Z</time></trkpt><trkpt lat="42.73124868191173" lon="13.637619273687472"><ele>738.0</ele><time>2026-04-05T10:38:12Z</time></trkpt><trkpt lat="42.731354298077726" lon="13.637629636442"><ele>744.0</ele><time>2026-04-05T10:38:13Z</time></trkpt><trkpt lat="42.73147413268728" lon="13.63765637331521"><ele>750.0</ele><time>2026-04-05T10:38:14Z</time></trkpt><trkpt lat="42.731587128012904" lon="13.637660613877493"><ele>756.0</ele><time>2026-04-05T10:38:15Z</time></trkpt><trkpt lat="42.73171149827751" lon="13.637657530859574"><ele>756.0</ele><time>2026-04-05T10:38:16Z</time></trkpt><trkpt lat="42.73184120701346" lon="13.637663041994495"><ele>756.0</ele><time>2026-04-05T10:38:17Z</time></trkpt><trkpt lat="42.73198087082942" lon="13.63767127469099"><ele>756.0</ele><time>2026-04-05T10:38:18Z</time></trkpt><trkpt lat="42.73213176685565" lon="13.637678042828274"><ele>756.0</ele><time>2026-04-05T10:38:19Z</time></trkpt><trkpt lat="42.73228619097489" lon="13.637690377613293"><ele>756.0</ele><time>2026-04-05T10:38:20Z</time></trkpt><trkpt lat="42.73244662330498" lon="13.63770464344768"><ele>756.0</ele><time>2026-04-05T10:38:21Z</time></trkpt><trkpt lat="42.732609142623105" lon="13.637720611642969"><ele>756.0</ele><time>2026-04-05T10:38:22Z</time></trkpt><trkpt lat="42.73276987774936" lon="13.637729613044062"><ele>756.75</ele><time>2026-04-05T10:38:23Z</time></trkpt><trkpt lat="42.73291695430126" lon="13.637729684346274"><ele>757.5</ele><time>2026-04-05T10:38:24Z</time></trkpt><trkpt lat="42.73305949943816" lon="13.637713942746238"><ele>758.25</ele><time>2026-04-05T10:38:25Z</time></trkpt><trkpt lat="42.73320535552453" lon="13.637673404035679"><ele>759.0</ele><time>2026-04-05T10:38:26Z</time></trkpt><trkpt lat="42.7333301089986" lon="13.637628037876638"><ele>759.0</ele><time>2026-04-05T10:38:27Z</time></trkpt><trkpt lat="42.73342366499576" lon="13.637591106874728"><ele>759.0</ele><time>2026-04-05T10:38:28Z</time></trkpt><trkpt lat="42.73348856869127" lon="13.637552868588005"><ele>759.0</ele><time>2026-04-05T10:38:29Z</time></trkpt><trkpt lat="42.73353809923299" lon="13.637473350460441"><ele>759.0</ele><time>2026-04-05T10:38:30Z</time></trkpt><trkpt lat="42.73357799808942" lon="13.637359230459106"><ele>759.0</ele><time>2026-04-05T10:38:31Z</time></trkpt><trkpt lat="42.733589549514384" lon="13.63721295371714"><ele>759.0</ele><time>2026-04-05T10:38:32Z</time></trkpt><trkpt lat="42.733583327466235" lon="13.637042994303146"><ele>756.75</ele><time>2026-04-05T10:38:33Z</time></trkpt><trkpt lat="42.73356921225877" lon="13.636867007689927"><ele>754.5</ele><time>2026-04-05T10:38:34Z</time></trkpt><trkpt lat="42.73355733703213" lon="13.63666504828587"><ele>752.25</ele><time>2026-04-05T10:38:35Z</time></trkpt><trkpt lat="42.733555928778415" lon="13.636458151039951"><ele>750.0</ele><time>2026-04-05T10:38:36Z</time></trkpt><trkpt lat="42.73355583320655" lon="13.636235375827946"><ele>754.4</ele><time>2026-04-05T10:38:37Z</time></trkpt><trkpt lat="42.73355179578999" lon="13.63602434821091"><ele>758.8</ele><time>2026-04-05T10:38:38Z</time></trkpt><trkpt lat="42.73354930873314" lon="13.635866351364115"><ele>763.2</ele><time>2026-04-05T10:38:39Z</time></trkpt><trkpt lat="42.73354792827202" lon="13.635737806273886"><ele>767.6</ele><time>2026-04-05T10:38:40Z</time></trkpt><trkpt lat="42.733543682558775" lon="13.635646805977197"><ele>772.0</ele><time>2026-04-05T10:38:41Z</time></trkpt><trkpt lat="42.73345462775368" lon="13.635526059881093"><ele>772.0</ele><time>2026-04-05T10:38:43Z</time></trkpt><trkpt lat="42.733364105214896" lon="13.635535270213914"><ele>772.0</ele><time>2026-04-05T10:38:44Z</time></trkpt><trkpt lat="42.73325916175347" lon="13.635604453482006"><ele>772.0</ele><time>2026-04-05T10:38:45Z</time></trkpt><trkpt lat="42.73315026805932" lon="13.635725690457992"><ele>772.0</ele><time>2026-04-05T10:38:46Z</time></trkpt><trkpt lat="42.7330357932106" lon="13.635860023228906"><ele>772.0</ele><time>2026-04-05T10:38:47Z</time></trkpt><trkpt lat="42.732898472507905" lon="13.635972774179027"><ele>772.0</ele><time>2026-04-05T10:38:48Z</time></trkpt><trkpt lat="42.73279228067387" lon="13.636075571208849"><ele>772.0</ele><time>2026-04-05T10:38:49Z</time></trkpt><trkpt lat="42.73272150635054" lon="13.63615787196271"><ele>772.0</ele><time>2026-04-05T10:38:50Z</time></trkpt><trkpt lat="42.73264939227025" lon="13.636165729171509"><ele>772.0</ele><time>2026-04-05T10:38:51Z</time></trkpt><trkpt lat="42.73256991890131" lon="13.636041669162799"><ele>772.0</ele><time>2026-04-05T10:38:53Z</time></trkpt><trkpt lat="42.73257742670294" lon="13.63594786778989"><ele>772.0</ele><time>2026-04-05T10:38:54Z</time></trkpt><trkpt lat="42.73264040778557" lon="13.635855056595247"><ele>772.0</ele><time>2026-04-05T10:38:55Z</time></trkpt><trkpt lat="42.7327307172523" lon="13.635755596147106"><ele>772.0</ele><time>2026-04-05T10:38:56Z</time></trkpt><trkpt lat="42.732812799837205" lon="13.635640058366308"><ele>772.0</ele><time>2026-04-05T10:38:57Z</time></trkpt><trkpt lat="42.73291178584598" lon="13.635460259300583"><ele>772.0</ele><time>2026-04-05T10:38:58Z</time></trkpt><trkpt lat="42.732971671236236" lon="13.635274075857998"><ele>772.0</ele><time>2026-04-05T10:38:59Z</time></trkpt><trkpt lat="42.73303351370681" lon="13.635064305021972"><ele>775.3333333333333</ele><time>2026-04-05T10:39:00Z</time></trkpt><trkpt lat="42.733106578937615" lon="13.634860313506138"><ele>778.6666666666667</ele><time>2026-04-05T10:39:01Z</time></trkpt><trkpt lat="42.73319252612388" lon="13.63467006832615"><ele>782.0</ele><time>2026-04-05T10:39:02Z</time></trkpt><trkpt lat="42.7332880607676" lon="13.63449941002085"><ele>784.6666666666667</ele><time>2026-04-05T10:39:03Z</time></trkpt><trkpt lat="42.73338681997026" lon="13.634335660213038"><ele>787.3333333333333</ele><time>2026-04-05T10:39:04Z</time></trkpt><trkpt lat="42.733466417183564" lon="13.634162210355923"><ele>790.0</ele><time>2026-04-05T10:39:05Z</time></trkpt><trkpt lat="42.73352677273783" lon="13.633976478157376"><ele>791.75</ele><time>2026-04-05T10:39:06Z</time></trkpt><trkpt lat="42.733578572462115" lon="13.633812475694878"><ele>793.5</ele><time>2026-04-05T10:39:07Z</time></trkpt><trkpt lat="42.73364356527691" lon="13.63370909001809"><ele>795.25</ele><time>2026-04-05T10:39:08Z</time></trkpt><trkpt lat="42.733744937535725" lon="13.633598392717825"><ele>797.0</ele><time>2026-04-05T10:39:09Z</time></trkpt><trkpt lat="42.733862987846045" lon="13.633580910470549"><ele>797.0</ele><time>2026-04-05T10:39:10Z</time></trkpt><trkpt lat="42.73398512942498" lon="13.633550659052835"><ele>797.0</ele><time>2026-04-05T10:39:11Z</time></trkpt><trkpt lat="42.73409322198964" lon="13.633495314926746"><ele>797.0</ele><time>2026-04-05T10:39:12Z</time></trkpt><trkpt lat="42.73416755911833" lon="13.633370683394585"><ele>797.0</ele><time>2026-04-05T10:39:13Z</time></trkpt><trkpt lat="42.73422346391722" lon="13.633224124831827"><ele>797.0</ele><time>2026-04-05T10:39:13.999Z</time></trkpt><trkpt lat="42.73429762262442" lon="13.633111576371439"><ele>797.0</ele><time>2026-04-05T10:39:14.999Z</time></trkpt><trkpt lat="42.73439942831876" lon="13.63305730760149"><ele>797.0</ele><time>2026-04-05T10:39:15.999Z</time></trkpt><trkpt lat="42.73449806253378" lon="13.633105794884244"><ele>797.0</ele><time>2026-04-05T10:39:16.999Z</time></trkpt><trkpt lat="42.734625406747924" lon="13.63313726054822"><ele>796.5</ele><time>2026-04-05T10:39:17.999Z</time></trkpt><trkpt lat="42.73476076466695" lon="13.633166485197414"><ele>796.0</ele><time>2026-04-05T10:39:18.999Z</time></trkpt><trkpt lat="42.73490683046198" lon="13.63314572502934"><ele>795.5</ele><time>2026-04-05T10:39:19.999Z</time></trkpt><trkpt lat="42.73505260081473" lon="13.633087960622243"><ele>795.0</ele><time>2026-04-05T10:39:20.999Z</time></trkpt><trkpt lat="42.73518471229008" lon="13.632976671567645"><ele>794.0</ele><time>2026-04-05T10:39:21.999Z</time></trkpt><trkpt lat="42.735309220617424" lon="13.632837648897517"><ele>793.0</ele><time>2026-04-05T10:39:22.999Z</time></trkpt><trkpt lat="42.73543314591859" lon="13.63267171399829"><ele>792.0</ele><time>2026-04-05T10:39:23.999Z</time></trkpt><trkpt lat="42.73555340707088" lon="13.63249994997112"><ele>795.5</ele><time>2026-04-05T10:39:24.999Z</time></trkpt><trkpt lat="42.7356629924952" lon="13.632349126032581"><ele>799.0</ele><time>2026-04-05T10:39:25.999Z</time></trkpt><trkpt lat="42.73576873844132" lon="13.63222715206894"><ele>802.5</ele><time>2026-04-05T10:39:26.999Z</time></trkpt><trkpt lat="42.73589279812945" lon="13.632158882431673"><ele>806.0</ele><time>2026-04-05T10:39:27.999Z</time></trkpt><trkpt lat="42.73603126014152" lon="13.63210735673661"><ele>806.6666666666667</ele><time>2026-04-05T10:39:28.999Z</time></trkpt><trkpt lat="42.736187435383336" lon="13.632053024800856"><ele>807.3333333333333</ele><time>2026-04-05T10:39:29.999Z</time></trkpt><trkpt lat="42.736345504208174" lon="13.63202049657404"><ele>808.0</ele><time>2026-04-05T10:39:30.999Z</time></trkpt><trkpt lat="42.736493670624405" lon="13.631981208478166"><ele>813.6666666666666</ele><time>2026-04-05T10:39:31.999Z</time></trkpt><trkpt lat="42.73664074013584" lon="13.631938495362762"><ele>819.3333333333333</ele><time>2026-04-05T10:39:32.999Z</time></trkpt><trkpt lat="42.736789998893016" lon="13.631881908185935"><ele>825.0</ele><time>2026-04-05T10:39:33.999Z</time></trkpt><trkpt lat="42.73694168578969" lon="13.631799587043663"><ele>826.6666666666667</ele><time>2026-04-05T10:39:34.999Z</time></trkpt><trkpt lat="42.73708916493007" lon="13.631710696051956"><ele>828.3333333333334</ele><time>2026-04-05T10:39:35.999Z</time></trkpt><trkpt lat="42.73723409962045" lon="13.631623919023902"><ele>830.0</ele><time>2026-04-05T10:39:36.999Z</time></trkpt><trkpt lat="42.73737446356403" lon="13.63156264723844"><ele>830.0</ele><time>2026-04-05T10:39:37.999Z</time></trkpt><trkpt lat="42.737514517930165" lon="13.63156033290588"><ele>830.0</ele><time>2026-04-05T10:39:38.999Z</time></trkpt><trkpt lat="42.73765036427582" lon="13.63156875102798"><ele>830.0</ele><time>2026-04-05T10:39:39.999Z</time></trkpt><trkpt lat="42.737785864750514" lon="13.631594321556598"><ele>830.0</ele><time>2026-04-05T10:39:41Z</time></trkpt><trkpt lat="42.73792522713656" lon="13.631623865858922"><ele>829.5</ele><time>2026-04-05T10:39:42Z</time></trkpt><trkpt lat="42.738057992559675" lon="13.631624458418855"><ele>829.0</ele><time>2026-04-05T10:39:43Z</time></trkpt><trkpt lat="42.73817257162462" lon="13.631631632082122"><ele>828.5</ele><time>2026-04-05T10:39:44Z</time></trkpt><trkpt lat="42.73827440654451" lon="13.631613355080688"><ele>828.0</ele><time>2026-04-05T10:39:45Z</time></trkpt><trkpt lat="42.738372940917785" lon="13.631575836785837"><ele>828.0</ele><time>2026-04-05T10:39:46Z</time></trkpt><trkpt lat="42.7384705679099" lon="13.631532425428015"><ele>828.0</ele><time>2026-04-05T10:39:47Z</time></trkpt><trkpt lat="42.73856625014358" lon="13.63148444691912"><ele>828.0</ele><time>2026-04-05T10:39:48Z</time></trkpt><trkpt lat="42.738661762106034" lon="13.631430664637262"><ele>828.0</ele><time>2026-04-05T10:39:49Z</time></trkpt><trkpt lat="42.73876175764303" lon="13.631366351473803"><ele>828.0</ele><time>2026-04-05T10:39:50Z</time></trkpt><trkpt lat="42.73886841250753" lon="13.631293455008715"><ele>825.75</ele><time>2026-04-05T10:39:51Z</time></trkpt><trkpt lat="42.73897968078935" lon="13.631201593116703"><ele>823.5</ele><time>2026-04-05T10:39:52Z</time></trkpt><trkpt lat="42.73909075753032" lon="13.631108076832469"><ele>821.25</ele><time>2026-04-05T10:39:53Z</time></trkpt><trkpt lat="42.739202402267175" lon="13.63101028186095"><ele>819.0</ele><time>2026-04-05T10:39:54Z</time></trkpt><trkpt lat="42.73931130691503" lon="13.630908489837298"><ele>818.25</ele><time>2026-04-05T10:39:55Z</time></trkpt><trkpt lat="42.73941806863587" lon="13.63078939357457"><ele>817.5</ele><time>2026-04-05T10:39:56Z</time></trkpt><trkpt lat="42.73951047030268" lon="13.630645826308035"><ele>816.75</ele><time>2026-04-05T10:39:57Z</time></trkpt><trkpt lat="42.739590044311484" lon="13.630482463581087"><ele>816.0</ele><time>2026-04-05T10:39:58Z</time></trkpt><trkpt lat="42.739665562713064" lon="13.630320254673187"><ele>824.0</ele><time>2026-04-05T10:39:59Z</time></trkpt><trkpt lat="42.739752746667726" lon="13.63017723318452"><ele>832.0</ele><time>2026-04-05T10:40:00Z</time></trkpt><trkpt lat="42.73986796636852" lon="13.630053887436874"><ele>840.0</ele><time>2026-04-05T10:40:01Z</time></trkpt><trkpt lat="42.73999385150715" lon="13.62993401940849"><ele>848.0</ele><time>2026-04-05T10:40:02Z</time></trkpt><trkpt lat="42.74011442065075" lon="13.629810841914244"><ele>849.75</ele><time>2026-04-05T10:40:03Z</time></trkpt><trkpt lat="42.740220657627106" lon="13.629691192338042"><ele>851.5</ele><time>2026-04-05T10:40:04Z</time></trkpt><trkpt lat="42.7403193887695" lon="13.629577440467257"><ele>853.25</ele><time>2026-04-05T10:40:05Z</time></trkpt><trkpt lat="42.74042538798557" lon="13.629465153889889"><ele>855.0</ele><time>2026-04-05T10:40:06Z</time></trkpt><trkpt lat="42.74053588958695" lon="13.629358808928332"><ele>855.0</ele><time>2026-04-05T10:40:07Z</time></trkpt><trkpt lat="42.740655317788026" lon="13.629262239918102"><ele>855.0</ele><time>2026-04-05T10:40:08Z</time></trkpt><trkpt lat="42.74078868702075" lon="13.629173998764898"><ele>855.0</ele><time>2026-04-05T10:40:09Z</time></trkpt><trkpt lat="42.74093237259581" lon="13.629096212907466"><ele>855.0</ele><time>2026-04-05T10:40:10Z</time></trkpt><trkpt lat="42.74107403146606" lon="13.629019662949906"><ele>846.6666666666667</ele><time>2026-04-05T10:40:11Z</time></trkpt><trkpt lat="42.741217961786035" lon="13.628948149282921"><ele>838.3333333333334</ele><time>2026-04-05T10:40:12Z</time></trkpt><trkpt lat="42.74136100429007" lon="13.628885232836241"><ele>830.0</ele><time>2026-04-05T10:40:13Z</time></trkpt><trkpt lat="42.74150482101426" lon="13.62882022447665"><ele>830.0</ele><time>2026-04-05T10:40:14Z</time></trkpt><trkpt lat="42.741642051376864" lon="13.62875869762644"><ele>830.0</ele><time>2026-04-05T10:40:15Z</time></trkpt><trkpt lat="42.74177039215964" lon="13.62870173282628"><ele>830.0</ele><time>2026-04-05T10:40:16Z</time></trkpt><trkpt lat="42.7418958067241" lon="13.628657334546917"><ele>830.0</ele><time>2026-04-05T10:40:17Z</time></trkpt><trkpt lat="42.742020530094464" lon="13.62861348106363"><ele>833.0</ele><time>2026-04-05T10:40:18Z</time></trkpt><trkpt lat="42.74215165582064" lon="13.6285519829609"><ele>836.0</ele><time>2026-04-05T10:40:19Z</time></trkpt><trkpt lat="42.74228503137958" lon="13.628469464249042"><ele>839.0</ele><time>2026-04-05T10:40:20Z</time></trkpt><trkpt lat="42.742416874233804" lon="13.628372312660705"><ele>842.0</ele><time>2026-04-05T10:40:21Z</time></trkpt><trkpt lat="42.742545488165014" lon="13.628264534913791"><ele>842.0</ele><time>2026-04-05T10:40:22Z</time></trkpt><trkpt lat="42.74267445700752" lon="13.628153554095974"><ele>842.0</ele><time>2026-04-05T10:40:23Z</time></trkpt><trkpt lat="42.74280877618077" lon="13.62804603100852"><ele>842.0</ele><time>2026-04-05T10:40:24Z</time></trkpt><trkpt lat="42.742944914219215" lon="13.627937489035437"><ele>843.3333333333334</ele><time>2026-04-05T10:40:25Z</time></trkpt><trkpt lat="42.743082981035116" lon="13.627829072642566"><ele>844.6666666666667</ele><time>2026-04-05T10:40:26Z</time></trkpt><trkpt lat="42.743223202252985" lon="13.627717005797205"><ele>846.0</ele><time>2026-04-05T10:40:27Z</time></trkpt><trkpt lat="42.743360712696166" lon="13.627605659435428"><ele>846.0</ele><time>2026-04-05T10:40:28Z</time></trkpt><trkpt lat="42.74350274887817" lon="13.62749231472332"><ele>846.0</ele><time>2026-04-05T10:40:29Z</time></trkpt><trkpt lat="42.74364282195019" lon="13.627392888536672"><ele>846.0</ele><time>2026-04-05T10:40:30Z</time></trkpt><trkpt lat="42.7437859415496" lon="13.62729920051319"><ele>839.6666666666667</ele><time>2026-04-05T10:40:31Z</time></trkpt><trkpt lat="42.74392717475868" lon="13.627205972548726"><ele>833.3333333333334</ele><time>2026-04-05T10:40:32Z</time></trkpt><trkpt lat="42.74406631679378" lon="13.627101573619214"><ele>827.0</ele><time>2026-04-05T10:40:33Z</time></trkpt><trkpt lat="42.74420947971244" lon="13.626981736100541"><ele>828.3333333333334</ele><time>2026-04-05T10:40:34Z</time></trkpt><trkpt lat="42.74435263224843" lon="13.626855705285214"><ele>829.6666666666667</ele><time>2026-04-05T10:40:35Z</time></trkpt><trkpt lat="42.74449465980012" lon="13.626730345445367"><ele>831.0</ele><time>2026-04-05T10:40:36Z</time></trkpt><trkpt lat="42.74463302755141" lon="13.62661058522064"><ele>831.0</ele><time>2026-04-05T10:40:37Z</time></trkpt><trkpt lat="42.74476811714977" lon="13.62649222690907"><ele>831.0</ele><time>2026-04-05T10:40:38Z</time></trkpt><trkpt lat="42.744906151739116" lon="13.626372025686173"><ele>831.0</ele><time>2026-04-05T10:40:39Z</time></trkpt><trkpt lat="42.7450442752895" lon="13.62624225377132"><ele>829.6666666666667</ele><time>2026-04-05T10:40:40Z</time></trkpt><trkpt lat="42.74518373086797" lon="13.626103752700539"><ele>828.3333333333334</ele><time>2026-04-05T10:40:41Z</time></trkpt><trkpt lat="42.74532044028519" lon="13.625956582903509"><ele>827.0</ele><time>2026-04-05T10:40:42Z</time></trkpt><trkpt lat="42.745456020045594" lon="13.625812948612737"><ele>827.0</ele><time>2026-04-05T10:40:43Z</time></trkpt><trkpt lat="42.74558849595615" lon="13.625690258495704"><ele>827.0</ele><time>2026-04-05T10:40:44Z</time></trkpt><trkpt lat="42.74572183096597" lon="13.625592319513435"><ele>827.0</ele><time>2026-04-05T10:40:45Z</time></trkpt><trkpt lat="42.745874621760954" lon="13.625513271434533"><ele>831.6666666666667</ele><time>2026-04-05T10:40:46Z</time></trkpt><trkpt lat="42.74604601579712" lon="13.625439962115637"><ele>836.3333333333333</ele><time>2026-04-05T10:40:47Z</time></trkpt><trkpt lat="42.74622064030771" lon="13.62536759899022"><ele>841.0</ele><time>2026-04-05T10:40:48Z</time></trkpt><trkpt lat="42.74637489757443" lon="13.62529765582405"><ele>841.0</ele><time>2026-04-05T10:40:49Z</time></trkpt><trkpt lat="42.74651162779464" lon="13.625233772159145"><ele>841.0</ele><time>2026-04-05T10:40:50Z</time></trkpt><trkpt lat="42.74663848269808" lon="13.625150263199117"><ele>841.0</ele><time>2026-04-05T10:40:51Z</time></trkpt><trkpt lat="42.746759295282764" lon="13.625047144108748"><ele>841.0</ele><time>2026-04-05T10:40:52Z</time></trkpt><trkpt lat="42.74687936345414" lon="13.62493163974876"><ele>832.25</ele><time>2026-04-05T10:40:53Z</time></trkpt><trkpt lat="42.74699753139942" lon="13.624816488306644"><ele>823.5</ele><time>2026-04-05T10:40:54Z</time></trkpt><trkpt lat="42.74710520219404" lon="13.624734623425768"><ele>814.75</ele><time>2026-04-05T10:40:55Z</time></trkpt><trkpt lat="42.74720230502645" lon="13.624675603961009"><ele>806.0</ele><time>2026-04-05T10:40:56Z</time></trkpt><trkpt lat="42.74728903252663" lon="13.624633689695917"><ele>806.0000000000001</ele><time>2026-04-05T10:40:57Z</time></trkpt><trkpt lat="42.7473580646449" lon="13.624595172995502"><ele>806.0</ele><time>2026-04-05T10:40:58Z</time></trkpt><trkpt lat="42.74741478986305" lon="13.624555741554657"><ele>806.0</ele><time>2026-04-05T10:40:59Z</time></trkpt><trkpt lat="42.74747567403295" lon="13.624497695699048"><ele>806.0</ele><time>2026-04-05T10:41:00Z</time></trkpt><trkpt lat="42.74752154837964" lon="13.624402749435944"><ele>806.0000000000001</ele><time>2026-04-05T10:41:01Z</time></trkpt><trkpt lat="42.74754026306472" lon="13.624282334499043"><ele>806.0</ele><time>2026-04-05T10:41:02Z</time></trkpt><trkpt lat="42.74751577261633" lon="13.624148821374744"><ele>807.5999999999999</ele><time>2026-04-05T10:41:03Z</time></trkpt><trkpt lat="42.74746323187697" lon="13.624048533900035"><ele>809.2</ele><time>2026-04-05T10:41:04Z</time></trkpt><trkpt lat="42.74735787815514" lon="13.623983074549676"><ele>810.8</ele><time>2026-04-05T10:41:05.001Z</time></trkpt><trkpt lat="42.74725263585984" lon="13.623926779221947"><ele>812.4000000000001</ele><time>2026-04-05T10:41:06.001Z</time></trkpt><trkpt lat="42.747142822567675" lon="13.623860122382904"><ele>814.0</ele><time>2026-04-05T10:41:07.001Z</time></trkpt><trkpt lat="42.74703837741295" lon="13.623792851892137"><ele>814.0</ele><time>2026-04-05T10:41:08.001Z</time></trkpt><trkpt lat="42.74695023737286" lon="13.623703923391567"><ele>814.0</ele><time>2026-04-05T10:41:09.001Z</time></trkpt><trkpt lat="42.74685952678723" lon="13.623596209293613"><ele>814.0</ele><time>2026-04-05T10:41:10.001Z</time></trkpt><trkpt lat="42.746765996829076" lon="13.623478993866447"><ele>814.0</ele><time>2026-04-05T10:41:11.001Z</time></trkpt><trkpt lat="42.74667448905834" lon="13.623340097216703"><ele>812.75</ele><time>2026-04-05T10:41:12.001Z</time></trkpt><trkpt lat="42.746584295990786" lon="13.623197055409483"><ele>811.5</ele><time>2026-04-05T10:41:13.001Z</time></trkpt><trkpt lat="42.74650341934216" lon="13.623047896410966"><ele>810.25</ele><time>2026-04-05T10:41:14.001Z</time></trkpt><trkpt lat="42.746420546605385" lon="13.622889038776664"><ele>809.0</ele><time>2026-04-05T10:41:15.001Z</time></trkpt><trkpt lat="42.746334481485775" lon="13.622731649226886"><ele>809.0</ele><time>2026-04-05T10:41:16.001Z</time></trkpt><trkpt lat="42.746249427879995" lon="13.622559709994263"><ele>809.0</ele><time>2026-04-05T10:41:17.001Z</time></trkpt><trkpt lat="42.746170463765864" lon="13.62237739551857"><ele>809.0</ele><time>2026-04-05T10:41:18.001Z</time></trkpt><trkpt lat="42.74609697518611" lon="13.622190838597371"><ele>820.0</ele><time>2026-04-05T10:41:19.001Z</time></trkpt><trkpt lat="42.74602811065672" lon="13.622000255082208"><ele>831.0</ele><time>2026-04-05T10:41:20.001Z</time></trkpt><trkpt lat="42.74596164146758" lon="13.621803177903471"><ele>842.0</ele><time>2026-04-05T10:41:21.001Z</time></trkpt><trkpt lat="42.74589947754065" lon="13.621591309091416"><ele>842.0</ele><time>2026-04-05T10:41:22.001Z</time></trkpt><trkpt lat="42.745846503856846" lon="13.621364312050465"><ele>842.0</ele><time>2026-04-05T10:41:23.001Z</time></trkpt><trkpt lat="42.74579466454555" lon="13.621136070725978"><ele>842.0</ele><time>2026-04-05T10:41:24.001Z</time></trkpt><trkpt lat="42.74574010817288" lon="13.620913328738718"><ele>836.3333333333334</ele><time>2026-04-05T10:41:25.001Z</time></trkpt><trkpt lat="42.745702126876694" lon="13.62070106472393"><ele>830.6666666666667</ele><time>2026-04-05T10:41:26.001Z</time></trkpt><trkpt lat="42.74569215986086" lon="13.620490204943467"><ele>825.0</ele><time>2026-04-05T10:41:27.001Z</time></trkpt><trkpt lat="42.74567044697696" lon="13.620256052471149"><ele>821.0</ele><time>2026-04-05T10:41:28.001Z</time></trkpt><trkpt lat="42.74561150835394" lon="13.620069824384059"><ele>817.0</ele><time>2026-04-05T10:41:29.001Z</time></trkpt><trkpt lat="42.745561229527446" lon="13.619874130534383"><ele>813.0</ele><time>2026-04-05T10:41:30.001Z</time></trkpt><trkpt lat="42.745531178688644" lon="13.619674750606121"><ele>813.0</ele><time>2026-04-05T10:41:31.001Z</time></trkpt><trkpt lat="42.745531061490865" lon="13.619515164031661"><ele>813.0</ele><time>2026-04-05T10:41:32.001Z</time></trkpt><trkpt lat="42.74554674591197" lon="13.619342741042326"><ele>813.0</ele><time>2026-04-05T10:41:33.001Z</time></trkpt><trkpt lat="42.745553977086054" lon="13.6191838952123"><ele>813.0</ele><time>2026-04-05T10:41:34.001Z</time></trkpt><trkpt lat="42.74555543485254" lon="13.61904982544357"><ele>811.5</ele><time>2026-04-05T10:41:35.001Z</time></trkpt><trkpt lat="42.74554249748329" lon="13.618947690411144"><ele>810.0</ele><time>2026-04-05T10:41:36.001Z</time></trkpt><trkpt lat="42.74551386244198" lon="13.618855132856172"><ele>808.5</ele><time>2026-04-05T10:41:37.001Z</time></trkpt><trkpt lat="42.745449358955376" lon="13.618765042141947"><ele>807.0</ele><time>2026-04-05T10:41:38.001Z</time></trkpt><trkpt lat="42.74536345307949" lon="13.618687431956369"><ele>805.5</ele><time>2026-04-05T10:41:39.001Z</time></trkpt><trkpt lat="42.74528741490437" lon="13.618610382415719"><ele>804.0</ele><time>2026-04-05T10:41:40.001Z</time></trkpt><trkpt lat="42.74522378419712" lon="13.618553837654485"><ele>803.4000000000001</ele><time>2026-04-05T10:41:41.001Z</time></trkpt><trkpt lat="42.74520141299222" lon="13.618464229110687"><ele>802.8</ele><time>2026-04-05T10:41:42.001Z</time></trkpt><trkpt lat="42.74521457397903" lon="13.618359357667476"><ele>802.2</ele><time>2026-04-05T10:41:43.001Z</time></trkpt><trkpt lat="42.74525833892356" lon="13.618231043261305"><ele>801.5999999999999</ele><time>2026-04-05T10:41:44.001Z</time></trkpt><trkpt lat="42.745301766987254" lon="13.618088850669418"><ele>801.0</ele><time>2026-04-05T10:41:45.001Z</time></trkpt><trkpt lat="42.74533854636544" lon="13.617956306641888"><ele>801.0</ele><time>2026-04-05T10:41:46.001Z</time></trkpt><trkpt lat="42.74536017377062" lon="13.617839053582673"><ele>801.0</ele><time>2026-04-05T10:41:47.001Z</time></trkpt><trkpt lat="42.7453601857611" lon="13.617638194671509"><ele>801.0</ele><time>2026-04-05T10:41:48.001Z</time></trkpt><trkpt lat="42.74534599647379" lon="13.617470972904023"><ele>801.0</ele><time>2026-04-05T10:41:49.001Z</time></trkpt><trkpt lat="42.74530949300401" lon="13.617287769911437"><ele>797.75</ele><time>2026-04-05T10:41:50.001Z</time></trkpt><trkpt lat="42.74527126932895" lon="13.61709637933305"><ele>794.5</ele><time>2026-04-05T10:41:51.001Z</time></trkpt><trkpt lat="42.74525339524054" lon="13.616899093202688"><ele>791.25</ele><time>2026-04-05T10:41:52.001Z</time></trkpt><trkpt lat="42.74525173118363" lon="13.616706167017492"><ele>788.0</ele><time>2026-04-05T10:41:53.001Z</time></trkpt><trkpt lat="42.74525780457262" lon="13.616538022783576"><ele>784.5</ele><time>2026-04-05T10:41:54.001Z</time></trkpt><trkpt lat="42.745271750117" lon="13.616377541307507"><ele>781.0</ele><time>2026-04-05T10:41:55.001Z</time></trkpt><trkpt lat="42.745295009699" lon="13.616201666224878"><ele>777.5</ele><time>2026-04-05T10:41:56.001Z</time></trkpt><trkpt lat="42.74534106009502" lon="13.616072964576437"><ele>774.0</ele><time>2026-04-05T10:41:57.001Z</time></trkpt><trkpt lat="42.74533200914349" lon="13.615908996048017"><ele>773.8000000000001</ele><time>2026-04-05T10:41:58.001Z</time></trkpt><trkpt lat="42.74530263561612" lon="13.61576836064468"><ele>773.6</ele><time>2026-04-05T10:41:59.001Z</time></trkpt><trkpt lat="42.745247714089906" lon="13.615634595636672"><ele>773.4</ele><time>2026-04-05T10:42:00.001Z</time></trkpt><trkpt lat="42.74521525141786" lon="13.615521600844882"><ele>773.2</ele><time>2026-04-05T10:42:01.001Z</time></trkpt><trkpt lat="42.745233630730894" lon="13.61541405377292"><ele>773.0</ele><time>2026-04-05T10:42:02.001Z</time></trkpt><trkpt lat="42.74527700047386" lon="13.61529436390726"><ele>775.0</ele><time>2026-04-05T10:42:03.001Z</time></trkpt><trkpt lat="42.745313812121964" lon="13.615171233004663"><ele>777.0</ele><time>2026-04-05T10:42:04.001Z</time></trkpt><trkpt lat="42.745307148155035" lon="13.61504873715578"><ele>779.0</ele><time>2026-04-05T10:42:05.001Z</time></trkpt><trkpt lat="42.74525959945079" lon="13.614906526039224"><ele>781.0</ele><time>2026-04-05T10:42:06.001Z</time></trkpt><trkpt lat="42.74520978858783" lon="13.614772306507431"><ele>783.0</ele><time>2026-04-05T10:42:07.001Z</time></trkpt><trkpt lat="42.74517947169788" lon="13.61460237976579"><ele>785.5</ele><time>2026-04-05T10:42:08.001Z</time></trkpt><trkpt lat="42.745196138678786" lon="13.614482297842049"><ele>788.0</ele><time>2026-04-05T10:42:09.001Z</time></trkpt><trkpt lat="42.745220153007075" lon="13.61429574978146"><ele>790.5</ele><time>2026-04-05T10:42:10.001Z</time></trkpt><trkpt lat="42.7452809730894" lon="13.614096215417069"><ele>793.0</ele><time>2026-04-05T10:42:11.001Z</time></trkpt><trkpt lat="42.74529587402887" lon="13.613891687773206"><ele>793.0</ele><time>2026-04-05T10:42:12.001Z</time></trkpt><trkpt lat="42.74530308789196" lon="13.613688963437118"><ele>793.0</ele><time>2026-04-05T10:42:13.001Z</time></trkpt><trkpt lat="42.74531606592412" lon="13.61346422643887"><ele>793.0</ele><time>2026-04-05T10:42:14.001Z</time></trkpt><trkpt lat="42.74532070216119" lon="13.613296641540789"><ele>793.0</ele><time>2026-04-05T10:42:15.001Z</time></trkpt><trkpt lat="42.74536042211245" lon="13.61311421447323"><ele>796.5</ele><time>2026-04-05T10:42:16.001Z</time></trkpt><trkpt lat="42.745424093573604" lon="13.612927610545453"><ele>800.0</ele><time>2026-04-05T10:42:17.001Z</time></trkpt><trkpt lat="42.745483468024666" lon="13.612741369629513"><ele>803.5</ele><time>2026-04-05T10:42:18.001Z</time></trkpt><trkpt lat="42.74552373119583" lon="13.612575129667533"><ele>807.0</ele><time>2026-04-05T10:42:19.001Z</time></trkpt><trkpt lat="42.745551186737764" lon="13.612444595127437"><ele>810.8</ele><time>2026-04-05T10:42:20.001Z</time></trkpt><trkpt lat="42.745558984396155" lon="13.61232280260322"><ele>814.6</ele><time>2026-04-05T10:42:21.001Z</time></trkpt><trkpt lat="42.74553735344306" lon="13.612205345437838"><ele>818.4</ele><time>2026-04-05T10:42:22.001Z</time></trkpt><trkpt lat="42.745486946713804" lon="13.612101558633025"><ele>822.1999999999999</ele><time>2026-04-05T10:42:23.001Z</time></trkpt><trkpt lat="42.74540419342958" lon="13.612026612345252"><ele>826.0</ele><time>2026-04-05T10:42:24.001Z</time></trkpt><trkpt lat="42.74528537918779" lon="13.611995625700954"><ele>826.5</ele><time>2026-04-05T10:42:25.001Z</time></trkpt><trkpt lat="42.7451485096619" lon="13.611974008999763"><ele>827.0</ele><time>2026-04-05T10:42:26.001Z</time></trkpt><trkpt lat="42.745001167926524" lon="13.611939872933693"><ele>827.5</ele><time>2026-04-05T10:42:27.001Z</time></trkpt><trkpt lat="42.7448572666303" lon="13.611894882190409"><ele>828.0</ele><time>2026-04-05T10:42:28.001Z</time></trkpt><trkpt lat="42.74473166128653" lon="13.611846369193572"><ele>828.0</ele><time>2026-04-05T10:42:29.001Z</time></trkpt><trkpt lat="42.74462582224094" lon="13.611775787088984"><ele>828.0</ele><time>2026-04-05T10:42:30.001Z</time></trkpt><trkpt lat="42.74452506301062" lon="13.611669201998293"><ele>828.0</ele><time>2026-04-05T10:42:31.001Z</time></trkpt><trkpt lat="42.74444561214426" lon="13.611523161642817"><ele>828.0</ele><time>2026-04-05T10:42:32.001Z</time></trkpt><trkpt lat="42.744348126629035" lon="13.611397681744782"><ele>834.75</ele><time>2026-04-05T10:42:33.001Z</time></trkpt><trkpt lat="42.744267327754145" lon="13.611254953714205"><ele>841.5</ele><time>2026-04-05T10:42:34.001Z</time></trkpt><trkpt lat="42.74419280552337" lon="13.611114524430667"><ele>848.25</ele><time>2026-04-05T10:42:35.001Z</time></trkpt><trkpt lat="42.744105982888506" lon="13.610955047029535"><ele>855.0</ele><time>2026-04-05T10:42:36.001Z</time></trkpt><trkpt lat="42.74404671837042" lon="13.61077551636218"><ele>855.0</ele><time>2026-04-05T10:42:37.001Z</time></trkpt><trkpt lat="42.7439893222827" lon="13.610593150161801"><ele>855.0</ele><time>2026-04-05T10:42:38.001Z</time></trkpt><trkpt lat="42.7439437364719" lon="13.610425150787364"><ele>855.0</ele><time>2026-04-05T10:42:39.001Z</time></trkpt><trkpt lat="42.74392861620919" lon="13.610249465137947"><ele>855.0</ele><time>2026-04-05T10:42:40.001Z</time></trkpt><trkpt lat="42.74392922599469" lon="13.610068625909951"><ele>853.25</ele><time>2026-04-05T10:42:41.001Z</time></trkpt><trkpt lat="42.74394038468578" lon="13.609883452460078"><ele>851.5</ele><time>2026-04-05T10:42:42.001Z</time></trkpt><trkpt lat="42.74396348045413" lon="13.609694018207033"><ele>849.75</ele><time>2026-04-05T10:42:43.001Z</time></trkpt><trkpt lat="42.743980334004995" lon="13.60953958678855"><ele>848.0</ele><time>2026-04-05T10:42:44.001Z</time></trkpt><trkpt lat="42.743977555934286" lon="13.609413409612651"><ele>844.25</ele><time>2026-04-05T10:42:45.001Z</time></trkpt><trkpt lat="42.7439423690592" lon="13.609291996659168"><ele>840.5</ele><time>2026-04-05T10:42:46.001Z</time></trkpt><trkpt lat="42.74386988788888" lon="13.609180522727959"><ele>836.75</ele><time>2026-04-05T10:42:47.001Z</time></trkpt><trkpt lat="42.74377421757496" lon="13.60907890412652"><ele>833.0</ele><time>2026-04-05T10:42:48.001Z</time></trkpt><trkpt lat="42.7437202707271" lon="13.60892815772057"><ele>833.0</ele><time>2026-04-05T10:42:49.001Z</time></trkpt><trkpt lat="42.74367280587986" lon="13.608767054720461"><ele>833.0</ele><time>2026-04-05T10:42:50.001Z</time></trkpt><trkpt lat="42.74362242172813" lon="13.6086046416593"><ele>833.0</ele><time>2026-04-05T10:42:51.001Z</time></trkpt><trkpt lat="42.74356870042558" lon="13.608413582246113"><ele>833.0</ele><time>2026-04-05T10:42:52.001Z</time></trkpt><trkpt lat="42.74351936164332" lon="13.608221296182474"><ele>838.5</ele><time>2026-04-05T10:42:53.001Z</time></trkpt><trkpt lat="42.74344732412771" lon="13.608050602802756"><ele>844.0</ele><time>2026-04-05T10:42:54.001Z</time></trkpt><trkpt lat="42.74338094193589" lon="13.607896376072464"><ele>849.5</ele><time>2026-04-05T10:42:55.001Z</time></trkpt><trkpt lat="42.743317347361184" lon="13.607747174178922"><ele>855.0</ele><time>2026-04-05T10:42:56.001Z</time></trkpt><trkpt lat="42.74322759653354" lon="13.607610734415617"><ele>855.0</ele><time>2026-04-05T10:42:57.001Z</time></trkpt><trkpt lat="42.74311839621057" lon="13.607479324892557"><ele>855.0</ele><time>2026-04-05T10:42:58.001Z</time></trkpt><trkpt lat="42.74302635589335" lon="13.607387185914622"><ele>855.0</ele><time>2026-04-05T10:42:59.001Z</time></trkpt><trkpt lat="42.742906221313575" lon="13.607281240531938"><ele>855.0</ele><time>2026-04-05T10:43:00.001Z</time></trkpt><trkpt lat="42.7427837231671" lon="13.607193599962354"><ele>870.3333333333333</ele><time>2026-04-05T10:43:01.001Z</time></trkpt><trkpt lat="42.74264508225126" lon="13.607134255148207"><ele>885.6666666666666</ele><time>2026-04-05T10:43:02.001Z</time></trkpt><trkpt lat="42.742505441010515" lon="13.607071797396662"><ele>901.0</ele><time>2026-04-05T10:43:03.001Z</time></trkpt><trkpt lat="42.742354400923226" lon="13.607004513332098"><ele>888.6666666666666</ele><time>2026-04-05T10:43:04.001Z</time></trkpt><trkpt lat="42.74220841460307" lon="13.606925814286727"><ele>876.3333333333333</ele><time>2026-04-05T10:43:05.001Z</time></trkpt><trkpt lat="42.74207797531131" lon="13.606828503323737"><ele>864.0</ele><time>2026-04-05T10:43:06.001Z</time></trkpt><trkpt lat="42.74193578990371" lon="13.606741295454986"><ele>871.25</ele><time>2026-04-05T10:43:07.001Z</time></trkpt><trkpt lat="42.741795838966816" lon="13.606675307942302"><ele>878.5</ele><time>2026-04-05T10:43:08.001Z</time></trkpt><trkpt lat="42.741682289627505" lon="13.606597884805671"><ele>885.75</ele><time>2026-04-05T10:43:09.001Z</time></trkpt><trkpt lat="42.74158852565553" lon="13.606533109291597"><ele>893.0</ele><time>2026-04-05T10:43:10.001Z</time></trkpt><trkpt lat="42.741504115598495" lon="13.606471911869747"><ele>893.0000000000001</ele><time>2026-04-05T10:43:11.001Z</time></trkpt><trkpt lat="42.74142856780221" lon="13.606424184764803"><ele>893.0</ele><time>2026-04-05T10:43:12.001Z</time></trkpt><trkpt lat="42.741359488942805" lon="13.606365779296874"><ele>893.0</ele><time>2026-04-05T10:43:13.001Z</time></trkpt><trkpt lat="42.7412964682552" lon="13.606283839636783"><ele>893.0</ele><time>2026-04-05T10:43:14.001Z</time></trkpt><trkpt lat="42.741253488228324" lon="13.606174491487899"><ele>893.0000000000001</ele><time>2026-04-05T10:43:15.001Z</time></trkpt><trkpt lat="42.74123481280183" lon="13.606051967432442"><ele>893.0</ele><time>2026-04-05T10:43:16.001Z</time></trkpt><trkpt lat="42.741235157303535" lon="13.60592268323969"><ele>889.5</ele><time>2026-04-05T10:43:17Z</time></trkpt><trkpt lat="42.74125966034782" lon="13.605785230883045"><ele>886.0</ele><time>2026-04-05T10:43:18Z</time></trkpt><trkpt lat="42.74132346927643" lon="13.605649312733883"><ele>882.5</ele><time>2026-04-05T10:43:19Z</time></trkpt><trkpt lat="42.74138484271218" lon="13.605493355965038"><ele>879.0</ele><time>2026-04-05T10:43:20Z</time></trkpt><trkpt lat="42.74145736371624" lon="13.605337777364706"><ele>882.5</ele><time>2026-04-05T10:43:21Z</time></trkpt><trkpt lat="42.74154176600154" lon="13.605191620888782"><ele>886.0</ele><time>2026-04-05T10:43:22Z</time></trkpt><trkpt lat="42.74163108970626" lon="13.605054663452758"><ele>889.5</ele><time>2026-04-05T10:43:23Z</time></trkpt><trkpt lat="42.741727365536406" lon="13.604939552260666"><ele>893.0</ele><time>2026-04-05T10:43:24Z</time></trkpt><trkpt lat="42.74180499175452" lon="13.604838624677967"><ele>893.0</ele><time>2026-04-05T10:43:25Z</time></trkpt><trkpt lat="42.74185358121575" lon="13.60475145743723"><ele>893.0</ele><time>2026-04-05T10:43:26Z</time></trkpt><trkpt lat="42.74187220319955" lon="13.604645242843663"><ele>893.0</ele><time>2026-04-05T10:43:27Z</time></trkpt><trkpt lat="42.741841843116525" lon="13.604528452885088"><ele>893.0</ele><time>2026-04-05T10:43:28Z</time></trkpt><trkpt lat="42.74177835290807" lon="13.604408082196402"><ele>893.0</ele><time>2026-04-05T10:43:29Z</time></trkpt><trkpt lat="42.74168159251556" lon="13.604284576322325"><ele>892.0</ele><time>2026-04-05T10:43:30Z</time></trkpt><trkpt lat="42.741596707111256" lon="13.604132316855106"><ele>891.0</ele><time>2026-04-05T10:43:31Z</time></trkpt><trkpt lat="42.74150501552212" lon="13.60396741614441"><ele>890.0</ele><time>2026-04-05T10:43:32Z</time></trkpt><trkpt lat="42.7414450998867" lon="13.603773892677236"><ele>889.0</ele><time>2026-04-05T10:43:33Z</time></trkpt><trkpt lat="42.7413787202098" lon="13.60361814665485"><ele>887.75</ele><time>2026-04-05T10:43:34Z</time></trkpt><trkpt lat="42.74131332767388" lon="13.603467791185842"><ele>886.5</ele><time>2026-04-05T10:43:35Z</time></trkpt><trkpt lat="42.74129087629385" lon="13.603307356710038"><ele>885.25</ele><time>2026-04-05T10:43:36Z</time></trkpt><trkpt lat="42.74128958562596" lon="13.603146380910408"><ele>884.0</ele><time>2026-04-05T10:43:37Z</time></trkpt><trkpt lat="42.741334116385545" lon="13.60299820926555"><ele>884.0</ele><time>2026-04-05T10:43:38Z</time></trkpt><trkpt lat="42.74139012114067" lon="13.602848586650875"><ele>884.0</ele><time>2026-04-05T10:43:39Z</time></trkpt><trkpt lat="42.741440566373946" lon="13.60267154256809"><ele>884.0</ele><time>2026-04-05T10:43:40Z</time></trkpt><trkpt lat="42.74148747976658" lon="13.602478433045345"><ele>884.0</ele><time>2026-04-05T10:43:41Z</time></trkpt><trkpt lat="42.74149597756556" lon="13.60226125519429"><ele>887.25</ele><time>2026-04-05T10:43:42Z</time></trkpt><trkpt lat="42.74150186423333" lon="13.602054865298363"><ele>890.5</ele><time>2026-04-05T10:43:43Z</time></trkpt><trkpt lat="42.74154160685287" lon="13.60187578245124"><ele>893.75</ele><time>2026-04-05T10:43:44Z</time></trkpt><trkpt lat="42.741604605782776" lon="13.601691538726895"><ele>897.0</ele><time>2026-04-05T10:43:45Z</time></trkpt><trkpt lat="42.741683118817946" lon="13.601501390092963"><ele>894.0</ele><time>2026-04-05T10:43:46Z</time></trkpt><trkpt lat="42.741754687231385" lon="13.601308309358075"><ele>891.0</ele><time>2026-04-05T10:43:47Z</time></trkpt><trkpt lat="42.741827256952355" lon="13.601118020473441"><ele>888.0</ele><time>2026-04-05T10:43:48Z</time></trkpt><trkpt lat="42.74191549277797" lon="13.60092752079659"><ele>888.0</ele><time>2026-04-05T10:43:49Z</time></trkpt><trkpt lat="42.741999520126924" lon="13.600760333608802"><ele>888.0</ele><time>2026-04-05T10:43:50Z</time></trkpt><trkpt lat="42.74209331452434" lon="13.600563169352938"><ele>888.0</ele><time>2026-04-05T10:43:51Z</time></trkpt><trkpt lat="42.742164386742644" lon="13.600413051706456"><ele>892.0</ele><time>2026-04-05T10:43:52.001Z</time></trkpt><trkpt lat="42.74222511146024" lon="13.600281676364695"><ele>896.0</ele><time>2026-04-05T10:43:53.001Z</time></trkpt><trkpt lat="42.74227260240154" lon="13.60016011520651"><ele>900.0</ele><time>2026-04-05T10:43:54.001Z</time></trkpt><trkpt lat="42.74229674752588" lon="13.60003343639935"><ele>904.0</ele><time>2026-04-05T10:43:55.001Z</time></trkpt><trkpt lat="42.742284895731856" lon="13.599907368987662"><ele>908.0</ele><time>2026-04-05T10:43:56.001Z</time></trkpt><trkpt lat="42.74222661296704" lon="13.599792930793342"><ele>908.0</ele><time>2026-04-05T10:43:57.001Z</time></trkpt><trkpt lat="42.74213868376064" lon="13.599695090054007"><ele>908.0</ele><time>2026-04-05T10:43:58.001Z</time></trkpt><trkpt lat="42.74201710819704" lon="13.599628264652772"><ele>908.0</ele><time>2026-04-05T10:43:59.001Z</time></trkpt><trkpt lat="42.74187879733773" lon="13.599588734854821"><ele>908.0</ele><time>2026-04-05T10:44:00.001Z</time></trkpt><trkpt lat="42.7417358352744" lon="13.599533450311943"><ele>906.5</ele><time>2026-04-05T10:44:01.001Z</time></trkpt><trkpt lat="42.74160696070114" lon="13.59946618795681"><ele>905.0</ele><time>2026-04-05T10:44:02.001Z</time></trkpt><trkpt lat="42.74150278793977" lon="13.599389629114592"><ele>903.5</ele><time>2026-04-05T10:44:03.001Z</time></trkpt><trkpt lat="42.741424378823545" lon="13.599277058199005"><ele>902.0</ele><time>2026-04-05T10:44:04.001Z</time></trkpt><trkpt lat="42.741363690421416" lon="13.599144603472897"><ele>902.0</ele><time>2026-04-05T10:44:05.001Z</time></trkpt><trkpt lat="42.74132235071591" lon="13.598992670032962"><ele>902.0</ele><time>2026-04-05T10:44:06.001Z</time></trkpt><trkpt lat="42.741287813914845" lon="13.598902122709285"><ele>902.0</ele><time>2026-04-05T10:44:07.001Z</time></trkpt><trkpt lat="42.741217347629515" lon="13.5988405781287"><ele>902.0</ele><time>2026-04-05T10:44:08.001Z</time></trkpt><trkpt lat="42.741114351942045" lon="13.598798318185743"><ele>902.0</ele><time>2026-04-05T10:44:09.001Z</time></trkpt><trkpt lat="42.740975695097696" lon="13.5987876061991"><ele>908.6666666666667</ele><time>2026-04-05T10:44:10.001Z</time></trkpt><trkpt lat="42.7408412201421" lon="13.598782090306916"><ele>915.3333333333333</ele><time>2026-04-05T10:44:11.001Z</time></trkpt><trkpt lat="42.740658010394895" lon="13.598749418582983"><ele>922.0</ele><time>2026-04-05T10:44:12.001Z</time></trkpt><trkpt lat="42.74048791475828" lon="13.5987164325591"><ele>922.0</ele><time>2026-04-05T10:44:13.001Z</time></trkpt><trkpt lat="42.74032137606922" lon="13.598687995400098"><ele>922.0</ele><time>2026-04-05T10:44:14.001Z</time></trkpt><trkpt lat="42.740153034640635" lon="13.598631455063408"><ele>922.0</ele><time>2026-04-05T10:44:15.001Z</time></trkpt><trkpt lat="42.739994873524196" lon="13.598552148261872"><ele>913.6666666666666</ele><time>2026-04-05T10:44:16.001Z</time></trkpt><trkpt lat="42.73983783096146" lon="13.598441463887582"><ele>905.3333333333333</ele><time>2026-04-05T10:44:17.001Z</time></trkpt><trkpt lat="42.73968304921166" lon="13.598333198584264"><ele>897.0</ele><time>2026-04-05T10:44:18.001Z</time></trkpt><trkpt lat="42.73953397587694" lon="13.59824882267693"><ele>897.0</ele><time>2026-04-05T10:44:19.001Z</time></trkpt><trkpt lat="42.73939818020118" lon="13.598197697248029"><ele>897.0</ele><time>2026-04-05T10:44:20.001Z</time></trkpt><trkpt lat="42.73929688261456" lon="13.598170585900702"><ele>897.0</ele><time>2026-04-05T10:44:21.001Z</time></trkpt><trkpt lat="42.73921390605463" lon="13.598124288392107"><ele>897.0</ele><time>2026-04-05T10:44:22.001Z</time></trkpt><trkpt lat="42.739151156512506" lon="13.5980405008341"><ele>897.0</ele><time>2026-04-05T10:44:23.001Z</time></trkpt><trkpt lat="42.73912833105715" lon="13.597932603969372"><ele>896.25</ele><time>2026-04-05T10:44:24.001Z</time></trkpt><trkpt lat="42.73914759878178" lon="13.597818917620668"><ele>895.5</ele><time>2026-04-05T10:44:25.001Z</time></trkpt><trkpt lat="42.73919673406572" lon="13.59770239577947"><ele>894.75</ele><time>2026-04-05T10:44:26.001Z</time></trkpt><trkpt lat="42.73929575655677" lon="13.597615715653179"><ele>894.0</ele><time>2026-04-05T10:44:27.001Z</time></trkpt><trkpt lat="42.7394344634249" lon="13.597535151927756"><ele>894.0</ele><time>2026-04-05T10:44:28.001Z</time></trkpt><trkpt lat="42.739598558367554" lon="13.597455702980652"><ele>894.0</ele><time>2026-04-05T10:44:29.001Z</time></trkpt><trkpt lat="42.739762561588265" lon="13.597395337557408"><ele>894.0</ele><time>2026-04-05T10:44:30.001Z</time></trkpt><trkpt lat="42.73990109581458" lon="13.597320521415437"><ele>894.0</ele><time>2026-04-05T10:44:31.001Z</time></trkpt><trkpt lat="42.7400286920484" lon="13.597230482981935"><ele>894.0</ele><time>2026-04-05T10:44:32.001Z</time></trkpt><trkpt lat="42.74013439901233" lon="13.59712430115038"><ele>894.0</ele><time>2026-04-05T10:44:33.001Z</time></trkpt><trkpt lat="42.740228709164775" lon="13.596995278863893"><ele>894.0</ele><time>2026-04-05T10:44:34.001Z</time></trkpt><trkpt lat="42.740331390608226" lon="13.596829233128602"><ele>895.3333333333333</ele><time>2026-04-05T10:44:35.001Z</time></trkpt><trkpt lat="42.74043838457254" lon="13.596649615529062"><ele>896.6666666666666</ele><time>2026-04-05T10:44:36.001Z</time></trkpt><trkpt lat="42.740553968127365" lon="13.596483029935241"><ele>898.0</ele><time>2026-04-05T10:44:37.001Z</time></trkpt><trkpt lat="42.74067174035746" lon="13.596306628292334"><ele>907.6666666666666</ele><time>2026-04-05T10:44:38.001Z</time></trkpt><trkpt lat="42.74079293042172" lon="13.596138502204434"><ele>917.3333333333333</ele><time>2026-04-05T10:44:39.001Z</time></trkpt><trkpt lat="42.740914616714534" lon="13.595989659681619"><ele>927.0</ele><time>2026-04-05T10:44:40.001Z</time></trkpt><trkpt lat="42.74103163293126" lon="13.595869296994257"><ele>918.0</ele><time>2026-04-05T10:44:41.001Z</time></trkpt><trkpt lat="42.741161262938554" lon="13.595770596166563"><ele>909.0</ele><time>2026-04-05T10:44:42.001Z</time></trkpt><trkpt lat="42.741425216103984" lon="13.595655892072516"><ele>900.0</ele><time>2026-04-05T10:44:44.001Z</time></trkpt><trkpt lat="42.74153563205046" lon="13.59562715410962"><ele>900.0</ele><time>2026-04-05T10:44:45.001Z</time></trkpt><trkpt lat="42.741629100907176" lon="13.595567508241105"><ele>900.0</ele><time>2026-04-05T10:44:46.001Z</time></trkpt><trkpt lat="42.74170877921269" lon="13.59549314603502"><ele>900.0</ele><time>2026-04-05T10:44:47.001Z</time></trkpt><trkpt lat="42.74178404687525" lon="13.595404185052326"><ele>900.0</ele><time>2026-04-05T10:44:48.001Z</time></trkpt><trkpt lat="42.741870614321826" lon="13.595317221313284"><ele>900.0</ele><time>2026-04-05T10:44:49.001Z</time></trkpt><trkpt lat="42.741968690368736" lon="13.595247737743314"><ele>902.0</ele><time>2026-04-05T10:44:50.001Z</time></trkpt><trkpt lat="42.74206424659704" lon="13.595220707947623"><ele>904.0</ele><time>2026-04-05T10:44:51.001Z</time></trkpt><trkpt lat="42.74214746378369" lon="13.595225378277782"><ele>906.0</ele><time>2026-04-05T10:44:52.001Z</time></trkpt><trkpt lat="42.742217176506045" lon="13.59522683422148"><ele>908.0</ele><time>2026-04-05T10:44:53.001Z</time></trkpt><trkpt lat="42.74230698147286" lon="13.595210030977634"><ele>910.0</ele><time>2026-04-05T10:44:55.001Z</time></trkpt><trkpt lat="42.742369733097206" lon="13.59518461846128"><ele>912.0</ele><time>2026-04-05T10:45:02.001Z</time></trkpt><trkpt lat="42.742451392116344" lon="13.595091567316002"><ele>912.0</ele><time>2026-04-05T10:46:39Z</time></trkpt><trkpt lat="42.74252812501739" lon="13.594995216299875"><ele>912.0</ele><time>2026-04-05T10:46:40Z</time></trkpt><trkpt lat="42.74260750463914" lon="13.594896416970197"><ele>912.0</ele><time>2026-04-05T10:46:41Z</time></trkpt><trkpt lat="42.74269133528239" lon="13.59480054188813"><ele>912.0</ele><time>2026-04-05T10:46:42Z</time></trkpt><trkpt lat="42.74277556201089" lon="13.5947100362101"><ele>912.0</ele><time>2026-04-05T10:46:43Z</time></trkpt><trkpt lat="42.74284165086025" lon="13.594637046415281"><ele>906.8</ele><time>2026-04-05T10:46:44Z</time></trkpt><trkpt lat="42.742886223472674" lon="13.594559612620868"><ele>901.6</ele><time>2026-04-05T10:46:45Z</time></trkpt><trkpt lat="42.74290872842795" lon="13.594448334861772"><ele>896.3999999999999</ele><time>2026-04-05T10:46:46Z</time></trkpt><trkpt lat="42.742891118925264" lon="13.594293912670253"><ele>891.1999999999999</ele><time>2026-04-05T10:46:47Z</time></trkpt><trkpt lat="42.74288447345023" lon="13.59414001260062"><ele>886.0</ele><time>2026-04-05T10:46:48Z</time></trkpt><trkpt lat="42.742903226987934" lon="13.593990818960654"><ele>886.0</ele><time>2026-04-05T10:46:49Z</time></trkpt><trkpt lat="42.74295352584592" lon="13.593853099973789"><ele>885.9999999999999</ele><time>2026-04-05T10:46:50Z</time></trkpt><trkpt lat="42.74301254527088" lon="13.593727877326515"><ele>885.9999999999999</ele><time>2026-04-05T10:46:51Z</time></trkpt><trkpt lat="42.74306022395409" lon="13.593616867109418"><ele>886.0</ele><time>2026-04-05T10:46:52Z</time></trkpt><trkpt lat="42.743088784273525" lon="13.59350635290256"><ele>886.0</ele><time>2026-04-05T10:46:53Z</time></trkpt><trkpt lat="42.74307570856466" lon="13.593382327439988"><ele>884.25</ele><time>2026-04-05T10:46:54Z</time></trkpt><trkpt lat="42.74302676398555" lon="13.593252559129207"><ele>882.5</ele><time>2026-04-05T10:46:55Z</time></trkpt><trkpt lat="42.74297301071658" lon="13.593112975007774"><ele>880.75</ele><time>2026-04-05T10:46:56Z</time></trkpt><trkpt lat="42.74296035380214" lon="13.592934437906662"><ele>879.0</ele><time>2026-04-05T10:46:57Z</time></trkpt><trkpt lat="42.742966504204965" lon="13.59275954303128"><ele>878.0</ele><time>2026-04-05T10:46:58Z</time></trkpt><trkpt lat="42.74296475576826" lon="13.59261897364713"><ele>877.0000000000001</ele><time>2026-04-05T10:46:59Z</time></trkpt><trkpt lat="42.74293999608318" lon="13.59251750234559"><ele>876.0000000000001</ele><time>2026-04-05T10:47:00Z</time></trkpt><trkpt lat="42.7428851175465" lon="13.592409941062536"><ele>875.0</ele><time>2026-04-05T10:47:01Z</time></trkpt><trkpt lat="42.74280902607292" lon="13.592297635163828"><ele>874.0</ele><time>2026-04-05T10:47:02Z</time></trkpt><trkpt lat="42.74274668215927" lon="13.592170454915147"><ele>871.25</ele><time>2026-04-05T10:47:03Z</time></trkpt><trkpt lat="42.742707730011674" lon="13.592019867200996"><ele>868.5</ele><time>2026-04-05T10:47:04Z</time></trkpt><trkpt lat="42.74270002230093" lon="13.591878515680895"><ele>865.75</ele><time>2026-04-05T10:47:05Z</time></trkpt><trkpt lat="42.74271208840284" lon="13.59171002063335"><ele>863.0</ele><time>2026-04-05T10:47:06Z</time></trkpt><trkpt lat="42.74272596498394" lon="13.591533764721966"><ele>863.0</ele><time>2026-04-05T10:47:07Z</time></trkpt><trkpt lat="42.74273540583594" lon="13.59134682598777"><ele>863.0</ele><time>2026-04-05T10:47:08Z</time></trkpt><trkpt lat="42.74274449056458" lon="13.591155675309945"><ele>863.0</ele><time>2026-04-05T10:47:09Z</time></trkpt><trkpt lat="42.742755151559024" lon="13.590988663237036"><ele>863.0</ele><time>2026-04-05T10:47:10Z</time></trkpt><trkpt lat="42.74276933008867" lon="13.590844885405458"><ele>864.4</ele><time>2026-04-05T10:47:11Z</time></trkpt><trkpt lat="42.7428026740137" lon="13.590730652637573"><ele>865.8</ele><time>2026-04-05T10:47:12Z</time></trkpt><trkpt lat="42.74283625184911" lon="13.590633880036464"><ele>867.2</ele><time>2026-04-05T10:47:13Z</time></trkpt><trkpt lat="42.7428550919392" lon="13.590486726731935"><ele>868.6</ele><time>2026-04-05T10:47:14Z</time></trkpt><trkpt lat="42.742810224145224" lon="13.590397338358331"><ele>870.0</ele><time>2026-04-05T10:47:15Z</time></trkpt><trkpt lat="42.74269792249126" lon="13.590324764929376"><ele>881.0</ele><time>2026-04-05T10:47:17Z</time></trkpt><trkpt lat="42.74260973355219" lon="13.59034458554462"><ele>892.0</ele><time>2026-04-05T10:47:18Z</time></trkpt><trkpt lat="42.74250526486884" lon="13.590376307787523"><ele>903.0</ele><time>2026-04-05T10:47:19Z</time></trkpt><trkpt lat="42.742399036744764" lon="13.590435712399092"><ele>914.0</ele><time>2026-04-05T10:47:20Z</time></trkpt><trkpt lat="42.742252927885964" lon="13.590469290986448"><ele>914.0</ele><time>2026-04-05T10:47:21Z</time></trkpt><trkpt lat="42.742103263609664" lon="13.590494257968285"><ele>914.0</ele><time>2026-04-05T10:47:22Z</time></trkpt><trkpt lat="42.741989517081535" lon="13.590511394214733"><ele>914.0</ele><time>2026-04-05T10:47:23Z</time></trkpt><trkpt lat="42.74185586235786" lon="13.590527428757"><ele>914.0</ele><time>2026-04-05T10:47:24Z</time></trkpt><trkpt lat="42.741766559304416" lon="13.590541364140588"><ele>914.1666666666667</ele><time>2026-04-05T10:47:25Z</time></trkpt><trkpt lat="42.74169687777119" lon="13.59051319882971"><ele>914.3333333333334</ele><time>2026-04-05T10:47:26Z</time></trkpt><trkpt lat="42.741634749827334" lon="13.590496893007648"><ele>914.5</ele><time>2026-04-05T10:47:27Z</time></trkpt><trkpt lat="42.74156521181252" lon="13.590457337875778"><ele>914.6666666666667</ele><time>2026-04-05T10:47:28Z</time></trkpt><trkpt lat="42.74147831045281" lon="13.59041772086048"><ele>914.8333333333334</ele><time>2026-04-05T10:47:29Z</time></trkpt><trkpt lat="42.74141574316988" lon="13.590334198931801"><ele>915.0</ele><time>2026-04-05T10:47:30Z</time></trkpt><trkpt lat="42.741357193614476" lon="13.590274782835323"><ele>913.0</ele><time>2026-04-05T10:47:31Z</time></trkpt><trkpt lat="42.74129702441711" lon="13.59021109981835"><ele>911.0</ele><time>2026-04-05T10:47:32Z</time></trkpt><trkpt lat="42.741229781064426" lon="13.59014182638154"><ele>909.0</ele><time>2026-04-05T10:47:33Z</time></trkpt><trkpt lat="42.741141630198904" lon="13.590078484153283"><ele>907.0</ele><time>2026-04-05T10:47:34Z</time></trkpt><trkpt lat="42.741049649811266" lon="13.58997535174033"><ele>905.0</ele><time>2026-04-05T10:47:35Z</time></trkpt><trkpt lat="42.740954901500366" lon="13.58988157486684"><ele>905.0</ele><time>2026-04-05T10:47:36Z</time></trkpt><trkpt lat="42.740892688225465" lon="13.589785736188045"><ele>905.0</ele><time>2026-04-05T10:47:37Z</time></trkpt><trkpt lat="42.74085360354063" lon="13.589670277845258"><ele>905.0</ele><time>2026-04-05T10:47:38Z</time></trkpt><trkpt lat="42.74084329045816" lon="13.589549056137585"><ele>905.0</ele><time>2026-04-05T10:47:39Z</time></trkpt><trkpt lat="42.740860883845556" lon="13.589411328717096"><ele>905.0</ele><time>2026-04-05T10:47:40Z</time></trkpt><trkpt lat="42.740925595908536" lon="13.589240387830108"><ele>904.25</ele><time>2026-04-05T10:47:41Z</time></trkpt><trkpt lat="42.74097336376709" lon="13.589039999153723"><ele>903.5</ele><time>2026-04-05T10:47:42Z</time></trkpt><trkpt lat="42.7410283854478" lon="13.588845516786018"><ele>902.75</ele><time>2026-04-05T10:47:43Z</time></trkpt><trkpt lat="42.74107356321432" lon="13.588681941947307"><ele>902.0</ele><time>2026-04-05T10:47:44Z</time></trkpt><trkpt lat="42.74112140546115" lon="13.588536253319468"><ele>895.75</ele><time>2026-04-05T10:47:45Z</time></trkpt><trkpt lat="42.741199753007145" lon="13.588403666073496"><ele>889.5</ele><time>2026-04-05T10:47:46Z</time></trkpt><trkpt lat="42.74128848744086" lon="13.588251481689733"><ele>883.25</ele><time>2026-04-05T10:47:47Z</time></trkpt><trkpt lat="42.74137968579619" lon="13.588081559084479"><ele>877.0</ele><time>2026-04-05T10:47:48Z</time></trkpt><trkpt lat="42.74146445750119" lon="13.5879114576572"><ele>879.0</ele><time>2026-04-05T10:47:49Z</time></trkpt><trkpt lat="42.741539425323545" lon="13.587756848851411"><ele>881.0</ele><time>2026-04-05T10:47:50Z</time></trkpt><trkpt lat="42.741618750624504" lon="13.587602276716234"><ele>883.0</ele><time>2026-04-05T10:47:51Z</time></trkpt><trkpt lat="42.74169384476478" lon="13.587460390519635"><ele>885.0</ele><time>2026-04-05T10:47:52Z</time></trkpt><trkpt lat="42.74175026126178" lon="13.587328551201058"><ele>885.0</ele><time>2026-04-05T10:47:53Z</time></trkpt><trkpt lat="42.741798113054166" lon="13.58720668903632"><ele>885.0</ele><time>2026-04-05T10:47:54Z</time></trkpt><trkpt lat="42.7418328612798" lon="13.58707540539559"><ele>885.0</ele><time>2026-04-05T10:47:55Z</time></trkpt><trkpt lat="42.74183762604808" lon="13.58693854993616"><ele>885.0</ele><time>2026-04-05T10:47:56Z</time></trkpt><trkpt lat="42.741816232181094" lon="13.586802289330603"><ele>885.0</ele><time>2026-04-05T10:47:57Z</time></trkpt><trkpt lat="42.74177182009553" lon="13.586668233143616"><ele>883.75</ele><time>2026-04-05T10:47:58Z</time></trkpt><trkpt lat="42.741703526839565" lon="13.586559716184864"><ele>882.5</ele><time>2026-04-05T10:47:59Z</time></trkpt><trkpt lat="42.74161844131655" lon="13.586476765609907"><ele>881.25</ele><time>2026-04-05T10:48:00Z</time></trkpt><trkpt lat="42.741513173666874" lon="13.586407532301218"><ele>880.0</ele><time>2026-04-05T10:48:01Z</time></trkpt><trkpt lat="42.74138813486307" lon="13.5863473550709"><ele>880.0</ele><time>2026-04-05T10:48:02Z</time></trkpt><trkpt lat="42.74124827535074" lon="13.586287637263919"><ele>880.0</ele><time>2026-04-05T10:48:03Z</time></trkpt><trkpt lat="42.7411020765151" lon="13.586212887885953"><ele>880.0</ele><time>2026-04-05T10:48:04Z</time></trkpt><trkpt lat="42.740962683807986" lon="13.586137041582441"><ele>876.25</ele><time>2026-04-05T10:48:05Z</time></trkpt><trkpt lat="42.74082752485002" lon="13.586067037798614"><ele>872.5</ele><time>2026-04-05T10:48:06Z</time></trkpt><trkpt lat="42.74069316996187" lon="13.586012801436814"><ele>868.75</ele><time>2026-04-05T10:48:07Z</time></trkpt><trkpt lat="42.740572444666405" lon="13.585979136412892"><ele>865.0</ele><time>2026-04-05T10:48:08Z</time></trkpt><trkpt lat="42.740473059516326" lon="13.585962378100097"><ele>865.0</ele><time>2026-04-05T10:48:09Z</time></trkpt><trkpt lat="42.74038838392445" lon="13.585962318739208"><ele>865.0</ele><time>2026-04-05T10:48:10Z</time></trkpt><trkpt lat="42.740304476081754" lon="13.585968147767375"><ele>865.0</ele><time>2026-04-05T10:48:11Z</time></trkpt><trkpt lat="42.74022526794068" lon="13.585974688256218"><ele>865.0</ele><time>2026-04-05T10:48:12Z</time></trkpt><trkpt lat="42.7401098016651" lon="13.5859718469443"><ele>865.0</ele><time>2026-04-05T10:48:14Z</time></trkpt><trkpt lat="42.740054449329755" lon="13.585839538791106"><ele>865.0</ele><time>2026-04-05T10:48:16Z</time></trkpt><trkpt lat="42.74014129485624" lon="13.585725223919045"><ele>865.0</ele><time>2026-04-05T10:48:18Z</time></trkpt><trkpt lat="42.74021379177627" lon="13.585743290066576"><ele>865.0</ele><time>2026-04-05T10:48:19Z</time></trkpt><trkpt lat="42.74030984805493" lon="13.585750852590756"><ele>865.0</ele><time>2026-04-05T10:48:20Z</time></trkpt><trkpt lat="42.740426253705635" lon="13.58574294785923"><ele>865.0</ele><time>2026-04-05T10:48:21Z</time></trkpt><trkpt lat="42.74055400560413" lon="13.585749437662752"><ele>865.0</ele><time>2026-04-05T10:48:22Z</time></trkpt><trkpt lat="42.74069834358963" lon="13.585753746030925"><ele>865.0</ele><time>2026-04-05T10:48:23Z</time></trkpt><trkpt lat="42.74085035093318" lon="13.585760879973876"><ele>865.0</ele><time>2026-04-05T10:48:24Z</time></trkpt><trkpt lat="42.74101471726241" lon="13.585767671276246"><ele>862.6666666666666</ele><time>2026-04-05T10:48:25Z</time></trkpt><trkpt lat="42.74118608797753" lon="13.585775842661747"><ele>860.3333333333333</ele><time>2026-04-05T10:48:26Z</time></trkpt><trkpt lat="42.74134684072902" lon="13.585777216107685"><ele>858.0</ele><time>2026-04-05T10:48:27Z</time></trkpt><trkpt lat="42.74149607431361" lon="13.585774666277947"><ele>858.0</ele><time>2026-04-05T10:48:28Z</time></trkpt><trkpt lat="42.74163765486714" lon="13.585767483904094"><ele>858.0</ele><time>2026-04-05T10:48:29Z</time></trkpt><trkpt lat="42.74177086489985" lon="13.58574889665715"><ele>858.0</ele><time>2026-04-05T10:48:30Z</time></trkpt><trkpt lat="42.74189924201609" lon="13.585726043182126"><ele>858.0</ele><time>2026-04-05T10:48:31Z</time></trkpt><trkpt lat="42.74202761721907" lon="13.58571588349379"><ele>855.4</ele><time>2026-04-05T10:48:32Z</time></trkpt><trkpt lat="42.742159861004794" lon="13.585727161769753"><ele>852.8</ele><time>2026-04-05T10:48:33Z</time></trkpt><trkpt lat="42.742289931442855" lon="13.585755195766557"><ele>850.2</ele><time>2026-04-05T10:48:34Z</time></trkpt><trkpt lat="42.7423969313105" lon="13.585785627006258"><ele>847.6</ele><time>2026-04-05T10:48:35Z</time></trkpt><trkpt lat="42.74246938214553" lon="13.585804182523987"><ele>845.0</ele><time>2026-04-05T10:48:36Z</time></trkpt><trkpt lat="42.74257378520045" lon="13.585784811163524"><ele>845.0000000000001</ele><time>2026-04-05T10:48:38Z</time></trkpt><trkpt lat="42.74261179111721" lon="13.585715213552168"><ele>845.0</ele><time>2026-04-05T10:48:39Z</time></trkpt><trkpt lat="42.74261498104184" lon="13.585614634464324"><ele>845.0</ele><time>2026-04-05T10:48:40Z</time></trkpt><trkpt lat="42.7425772795024" lon="13.585520638133296"><ele>845.0</ele><time>2026-04-05T10:48:41Z</time></trkpt><trkpt lat="42.74249680323416" lon="13.585452767898559"><ele>845.0000000000001</ele><time>2026-04-05T10:48:42Z</time></trkpt><trkpt lat="42.74238609747441" lon="13.585401227121725"><ele>845.0</ele><time>2026-04-05T10:48:43Z</time></trkpt><trkpt lat="42.74226281268884" lon="13.585338753295618"><ele>842.5</ele><time>2026-04-05T10:48:44Z</time></trkpt><trkpt lat="42.74212772906455" lon="13.585267665967818"><ele>840.0</ele><time>2026-04-05T10:48:45Z</time></trkpt><trkpt lat="42.741988475384474" lon="13.585198675340205"><ele>837.5</ele><time>2026-04-05T10:48:46Z</time></trkpt><trkpt lat="42.741840918984444" lon="13.585137641206753"><ele>835.0</ele><time>2026-04-05T10:48:47Z</time></trkpt><trkpt lat="42.74168666904295" lon="13.585098960693482"><ele>835.0</ele><time>2026-04-05T10:48:48Z</time></trkpt><trkpt lat="42.74152622800947" lon="13.585087177427253"><ele>835.0</ele><time>2026-04-05T10:48:49Z</time></trkpt><trkpt lat="42.74138222804094" lon="13.585069822080602"><ele>835.0</ele><time>2026-04-05T10:48:50Z</time></trkpt><trkpt lat="42.74125532597191" lon="13.585031008687189"><ele>835.0</ele><time>2026-04-05T10:48:51Z</time></trkpt><trkpt lat="42.741141679144924" lon="13.584968052272504"><ele>836.25</ele><time>2026-04-05T10:48:52Z</time></trkpt><trkpt lat="42.74104596809108" lon="13.58484719218257"><ele>837.5</ele><time>2026-04-05T10:48:53Z</time></trkpt><trkpt lat="42.740945768991764" lon="13.584748592962153"><ele>838.75</ele><time>2026-04-05T10:48:54Z</time></trkpt><trkpt lat="42.74081986369576" lon="13.584676262143134"><ele>840.0</ele><time>2026-04-05T10:48:55Z</time></trkpt><trkpt lat="42.740667821458096" lon="13.584649428376174"><ele>840.0</ele><time>2026-04-05T10:48:56Z</time></trkpt><trkpt lat="42.74049937962067" lon="13.584640736947126"><ele>840.0</ele><time>2026-04-05T10:48:57Z</time></trkpt><trkpt lat="42.74033447513614" lon="13.584635260288279"><ele>840.0</ele><time>2026-04-05T10:48:58Z</time></trkpt><trkpt lat="42.740188714387294" lon="13.584618516700958"><ele>840.1666666666666</ele><time>2026-04-05T10:48:59Z</time></trkpt><trkpt lat="42.740069529062254" lon="13.584601716191312"><ele>840.3333333333333</ele><time>2026-04-05T10:49:00Z</time></trkpt><trkpt lat="42.7399714607025" lon="13.584590803900744"><ele>840.5</ele><time>2026-04-05T10:49:01Z</time></trkpt><trkpt lat="42.73990034521477" lon="13.584564667497073"><ele>840.6666666666666</ele><time>2026-04-05T10:49:02Z</time></trkpt><trkpt lat="42.7398526407104" lon="13.584494963086593"><ele>840.8333333333333</ele><time>2026-04-05T10:49:03Z</time></trkpt><trkpt lat="42.7398329015536" lon="13.58439201160371"><ele>841.0</ele><time>2026-04-05T10:49:04Z</time></trkpt><trkpt lat="42.73985806433258" lon="13.584263884156217"><ele>838.1999999999999</ele><time>2026-04-05T10:49:05Z</time></trkpt><trkpt lat="42.73985956517359" lon="13.584110493946557"><ele>835.4</ele><time>2026-04-05T10:49:06Z</time></trkpt><trkpt lat="42.73989168873664" lon="13.58395788319624"><ele>832.6</ele><time>2026-04-05T10:49:07Z</time></trkpt><trkpt lat="42.739931213860075" lon="13.583857079650064"><ele>829.8</ele><time>2026-04-05T10:49:08Z</time></trkpt><trkpt lat="42.74001140078389" lon="13.58379572668794"><ele>827.0</ele><time>2026-04-05T10:49:09Z</time></trkpt><trkpt lat="42.7401251549901" lon="13.583787926279108"><ele>826.25</ele><time>2026-04-05T10:49:10Z</time></trkpt><trkpt lat="42.74025155781538" lon="13.58372031285018"><ele>825.5</ele><time>2026-04-05T10:49:11Z</time></trkpt><trkpt lat="42.74039130660157" lon="13.58367420344911"><ele>824.75</ele><time>2026-04-05T10:49:12Z</time></trkpt><trkpt lat="42.74054295052535" lon="13.583628156311853"><ele>824.0</ele><time>2026-04-05T10:49:13Z</time></trkpt><trkpt lat="42.74070176257323" lon="13.583600935327919"><ele>822.5</ele><time>2026-04-05T10:49:14Z</time></trkpt><trkpt lat="42.740857043908804" lon="13.583584433705763"><ele>821.0</ele><time>2026-04-05T10:49:15Z</time></trkpt><trkpt lat="42.740999704203034" lon="13.583561672636998"><ele>819.5</ele><time>2026-04-05T10:49:16Z</time></trkpt><trkpt lat="42.74113285753649" lon="13.583518410570338"><ele>818.0</ele><time>2026-04-05T10:49:17Z</time></trkpt><trkpt lat="42.74123482206169" lon="13.583470131574558"><ele>818.0</ele><time>2026-04-05T10:49:18Z</time></trkpt><trkpt lat="42.74129772973412" lon="13.583410962729502"><ele>818.0</ele><time>2026-04-05T10:49:19Z</time></trkpt><trkpt lat="42.741337223623894" lon="13.583309139412894"><ele>818.0</ele><time>2026-04-05T10:49:20Z</time></trkpt><trkpt lat="42.74133115394856" lon="13.583184855426863"><ele>818.0</ele><time>2026-04-05T10:49:21Z</time></trkpt><trkpt lat="42.74127787660405" lon="13.583051025958637"><ele>818.0</ele><time>2026-04-05T10:49:22Z</time></trkpt><trkpt lat="42.74118460687791" lon="13.582920680553963"><ele>816.3333333333334</ele><time>2026-04-05T10:49:23Z</time></trkpt><trkpt lat="42.741074088254514" lon="13.582778539208743"><ele>814.6666666666667</ele><time>2026-04-05T10:49:24Z</time></trkpt><trkpt lat="42.74096215243144" lon="13.582609322849638"><ele>813.0</ele><time>2026-04-05T10:49:25Z</time></trkpt><trkpt lat="42.74086685025976" lon="13.582420038174615"><ele>818.5</ele><time>2026-04-05T10:49:26Z</time></trkpt><trkpt lat="42.7407919277756" lon="13.582220167845579"><ele>824.0</ele><time>2026-04-05T10:49:27Z</time></trkpt><trkpt lat="42.74073972050829" lon="13.582026692795198"><ele>829.5</ele><time>2026-04-05T10:49:28Z</time></trkpt><trkpt lat="42.74070536490356" lon="13.581869160294826"><ele>835.0</ele><time>2026-04-05T10:49:29Z</time></trkpt><trkpt lat="42.74069551866474" lon="13.581735961093731"><ele>836.5</ele><time>2026-04-05T10:49:30Z</time></trkpt><trkpt lat="42.74071795482274" lon="13.581597011404671"><ele>838.0</ele><time>2026-04-05T10:49:31Z</time></trkpt><trkpt lat="42.74078139004805" lon="13.581448247858305"><ele>839.5</ele><time>2026-04-05T10:49:32Z</time></trkpt><trkpt lat="42.74085458639772" lon="13.58129372762582"><ele>841.0</ele><time>2026-04-05T10:49:33Z</time></trkpt><trkpt lat="42.74091579749253" lon="13.581149052370963"><ele>842.25</ele><time>2026-04-05T10:49:34Z</time></trkpt><trkpt lat="42.74094402913059" lon="13.581016310783209"><ele>843.5</ele><time>2026-04-05T10:49:35Z</time></trkpt><trkpt lat="42.74094258645808" lon="13.580868981139561"><ele>844.75</ele><time>2026-04-05T10:49:36Z</time></trkpt><trkpt lat="42.740905219372195" lon="13.580709634331145"><ele>846.0</ele><time>2026-04-05T10:49:37Z</time></trkpt><trkpt lat="42.74084707283566" lon="13.580529465279511"><ele>846.0</ele><time>2026-04-05T10:49:38Z</time></trkpt><trkpt lat="42.74079296716822" lon="13.580368877530205"><ele>846.0</ele><time>2026-04-05T10:49:39Z</time></trkpt><trkpt lat="42.74074246146573" lon="13.58024530549387"><ele>846.0</ele><time>2026-04-05T10:49:40Z</time></trkpt><trkpt lat="42.740664424182256" lon="13.58014087787306"><ele>846.0</ele><time>2026-04-05T10:49:41Z</time></trkpt><trkpt lat="42.740572916748526" lon="13.580066161877987"><ele>845.8</ele><time>2026-04-05T10:49:42Z</time></trkpt><trkpt lat="42.740507611853104" lon="13.579981743398967"><ele>845.5999999999999</ele><time>2026-04-05T10:49:43Z</time></trkpt><trkpt lat="42.74049246594812" lon="13.579868631037522"><ele>845.4</ele><time>2026-04-05T10:49:44Z</time></trkpt><trkpt lat="42.74051234857858" lon="13.579734901337519"><ele>845.2</ele><time>2026-04-05T10:49:45Z</time></trkpt><trkpt lat="42.74056835873553" lon="13.579607428330673"><ele>845.0</ele><time>2026-04-05T10:49:46Z</time></trkpt><trkpt lat="42.74066098419683" lon="13.57948436913702"><ele>845.0</ele><time>2026-04-05T10:49:47Z</time></trkpt><trkpt lat="42.740719423669574" lon="13.579354895224975"><ele>845.0</ele><time>2026-04-05T10:49:48Z</time></trkpt><trkpt lat="42.74075133232627" lon="13.579226752058895"><ele>845.0</ele><time>2026-04-05T10:49:49Z</time></trkpt><trkpt lat="42.74075873152719" lon="13.579074899457344"><ele>845.0</ele><time>2026-04-05T10:49:50Z</time></trkpt><trkpt lat="42.74074174584846" lon="13.578906848854519"><ele>845.0</ele><time>2026-04-05T10:49:51Z</time></trkpt><trkpt lat="42.740754251273565" lon="13.578721524752469"><ele>846.6666666666667</ele><time>2026-04-05T10:49:52Z</time></trkpt><trkpt lat="42.74066544998237" lon="13.578518418907944"><ele>848.3333333333333</ele><time>2026-04-05T10:49:53Z</time></trkpt><trkpt lat="42.74063054100028" lon="13.578309946146119"><ele>850.0</ele><time>2026-04-05T10:49:54Z</time></trkpt><trkpt lat="42.74061089526574" lon="13.57811078414498"><ele>850.0</ele><time>2026-04-05T10:49:55Z</time></trkpt><trkpt lat="42.74061159970157" lon="13.577908283396283"><ele>850.0</ele><time>2026-04-05T10:49:56Z</time></trkpt><trkpt lat="42.74063136577261" lon="13.577696348614984"><ele>850.0</ele><time>2026-04-05T10:49:57Z</time></trkpt><trkpt lat="42.740663834227234" lon="13.577472176471996"><ele>851.6666666666666</ele><time>2026-04-05T10:49:58Z</time></trkpt><trkpt lat="42.740702380969346" lon="13.57723957215519"><ele>853.3333333333333</ele><time>2026-04-05T10:49:59Z</time></trkpt><trkpt lat="42.74074189591577" lon="13.577013401225681"><ele>855.0</ele><time>2026-04-05T10:50:00Z</time></trkpt><trkpt lat="42.74077989340843" lon="13.576799812112355"><ele>856.25</ele><time>2026-04-05T10:50:01Z</time></trkpt><trkpt lat="42.74081296716597" lon="13.576602355028319"><ele>857.5</ele><time>2026-04-05T10:50:02Z</time></trkpt><trkpt lat="42.740835233256824" lon="13.576421200110104"><ele>858.75</ele><time>2026-04-05T10:50:03Z</time></trkpt><trkpt lat="42.740851287874044" lon="13.576248422259702"><ele>860.0</ele><time>2026-04-05T10:50:04Z</time></trkpt><trkpt lat="42.74086638349494" lon="13.57608490322019"><ele>861.5</ele><time>2026-04-05T10:50:05Z</time></trkpt><trkpt lat="42.7408804280338" lon="13.575928674797343"><ele>863.0</ele><time>2026-04-05T10:50:06Z</time></trkpt><trkpt lat="42.74090028748321" lon="13.575764760076575"><ele>864.5</ele><time>2026-04-05T10:50:07Z</time></trkpt><trkpt lat="42.740948335208245" lon="13.57559258971813"><ele>866.0</ele><time>2026-04-05T10:50:08Z</time></trkpt><trkpt lat="42.741016338840744" lon="13.575431430470257"><ele>862.0</ele><time>2026-04-05T10:50:09Z</time></trkpt><trkpt lat="42.74105989865216" lon="13.57526596052519"><ele>858.0</ele><time>2026-04-05T10:50:10.001Z</time></trkpt><trkpt lat="42.74107275518879" lon="13.575078714705855"><ele>854.0</ele><time>2026-04-05T10:50:11.001Z</time></trkpt><trkpt lat="42.741075310302534" lon="13.574899278619863"><ele>850.0</ele><time>2026-04-05T10:50:12.001Z</time></trkpt><trkpt lat="42.74108387090233" lon="13.574751244923627"><ele>850.0</ele><time>2026-04-05T10:50:13.001Z</time></trkpt><trkpt lat="42.74110019641508" lon="13.574612403233498"><ele>850.0</ele><time>2026-04-05T10:50:14.001Z</time></trkpt><trkpt lat="42.74112209505259" lon="13.574461023704586"><ele>850.0</ele><time>2026-04-05T10:50:15.001Z</time></trkpt><trkpt lat="42.74115103971443" lon="13.574290553168277"><ele>850.0</ele><time>2026-04-05T10:50:16.001Z</time></trkpt><trkpt lat="42.741186115779925" lon="13.574107149535855"><ele>851.0</ele><time>2026-04-05T10:50:17.001Z</time></trkpt><trkpt lat="42.74122733351952" lon="13.573911632183323"><ele>852.0</ele><time>2026-04-05T10:50:18.001Z</time></trkpt><trkpt lat="42.74126689718002" lon="13.573732801781684"><ele>853.0</ele><time>2026-04-05T10:50:19.001Z</time></trkpt><trkpt lat="42.74130501136831" lon="13.573570217896313"><ele>854.0</ele><time>2026-04-05T10:50:20.001Z</time></trkpt><trkpt lat="42.74133616771099" lon="13.573439517849405"><ele>855.0</ele><time>2026-04-05T10:50:21.001Z</time></trkpt><trkpt lat="42.741359145452286" lon="13.573346965493169"><ele>856.0000000000001</ele><time>2026-04-05T10:50:22.001Z</time></trkpt><trkpt lat="42.74140573402704" lon="13.573216944090818"><ele>857.0000000000001</ele><time>2026-04-05T10:50:24.001Z</time></trkpt><trkpt lat="42.741504433072585" lon="13.573187423931557"><ele>858.0</ele><time>2026-04-05T10:50:26Z</time></trkpt><trkpt lat="42.741545636754665" lon="13.573351360962521"><ele>859.0</ele><time>2026-04-05T10:50:28Z</time></trkpt><trkpt lat="42.741522113300526" lon="13.573497286775867"><ele>859.0</ele><time>2026-04-05T10:50:29Z</time></trkpt><trkpt lat="42.74149932240378" lon="13.57364539246827"><ele>859.0000000000001</ele><time>2026-04-05T10:50:30Z</time></trkpt><trkpt lat="42.741489455051095" lon="13.57377504885238"><ele>859.0000000000001</ele><time>2026-04-05T10:50:31Z</time></trkpt><trkpt lat="42.74151941613833" lon="13.573902792727912"><ele>859.0</ele><time>2026-04-05T10:50:32Z</time></trkpt><trkpt lat="42.74158272009844" lon="13.574040919873108"><ele>859.0</ele><time>2026-04-05T10:50:33Z</time></trkpt><trkpt lat="42.74167573880253" lon="13.57417178426237"><ele>857.75</ele><time>2026-04-05T10:50:34Z</time></trkpt><trkpt lat="42.741775705907465" lon="13.57430505963065"><ele>856.5</ele><time>2026-04-05T10:50:35Z</time></trkpt><trkpt lat="42.74186963303304" lon="13.574445737311766"><ele>855.25</ele><time>2026-04-05T10:50:36Z</time></trkpt><trkpt lat="42.74193610683266" lon="13.574585143035653"><ele>854.0</ele><time>2026-04-05T10:50:37Z</time></trkpt><trkpt lat="42.741981298308275" lon="13.574741167114102"><ele>856.5</ele><time>2026-04-05T10:50:38Z</time></trkpt><trkpt lat="42.74200734831514" lon="13.574936428531387"><ele>859.0</ele><time>2026-04-05T10:50:39Z</time></trkpt><trkpt lat="42.742036174968575" lon="13.57514582559064"><ele>861.5</ele><time>2026-04-05T10:50:40Z</time></trkpt><trkpt lat="42.742067901204294" lon="13.575330876319908"><ele>864.0</ele><time>2026-04-05T10:50:41Z</time></trkpt><trkpt lat="42.7421106377252" lon="13.575479739669081"><ele>864.0</ele><time>2026-04-05T10:50:42Z</time></trkpt><trkpt lat="42.74218931952493" lon="13.57560984789637"><ele>864.0000000000001</ele><time>2026-04-05T10:50:43Z</time></trkpt><trkpt lat="42.74227806486132" lon="13.575715047553706"><ele>864.0000000000001</ele><time>2026-04-05T10:50:44Z</time></trkpt><trkpt lat="42.74234459493561" lon="13.575821305790706"><ele>864.0</ele><time>2026-04-05T10:50:45Z</time></trkpt><trkpt lat="42.742373445266594" lon="13.575946658465122"><ele>864.0</ele><time>2026-04-05T10:50:46Z</time></trkpt><trkpt lat="42.742374869425724" lon="13.576092685920763"><ele>865.5</ele><time>2026-04-05T10:50:47Z</time></trkpt><trkpt lat="42.74235516707039" lon="13.576247877819549"><ele>867.0</ele><time>2026-04-05T10:50:48Z</time></trkpt><trkpt lat="42.74230947191577" lon="13.57638932041748"><ele>868.5</ele><time>2026-04-05T10:50:49Z</time></trkpt><trkpt lat="42.742236202667655" lon="13.57652120230487"><ele>870.0</ele><time>2026-04-05T10:50:50Z</time></trkpt><trkpt lat="42.742158010127554" lon="13.576651236925374"><ele>870.0</ele><time>2026-04-05T10:50:51Z</time></trkpt><trkpt lat="42.742115606843896" lon="13.57678194406401"><ele>870.0</ele><time>2026-04-05T10:50:52Z</time></trkpt><trkpt lat="42.74210740969434" lon="13.576930916749843"><ele>870.0</ele><time>2026-04-05T10:50:53Z</time></trkpt><trkpt lat="42.74212117970946" lon="13.57710560426541"><ele>870.0</ele><time>2026-04-05T10:50:54Z</time></trkpt><trkpt lat="42.74215295709746" lon="13.577288716963078"><ele>870.3333333333333</ele><time>2026-04-05T10:50:55Z</time></trkpt><trkpt lat="42.74220065793294" lon="13.577473885513298"><ele>870.6666666666666</ele><time>2026-04-05T10:50:56Z</time></trkpt><trkpt lat="42.74227611460907" lon="13.577656511957638"><ele>871.0</ele><time>2026-04-05T10:50:57Z</time></trkpt><trkpt lat="42.742370815743065" lon="13.577852084881824"><ele>870.3333333333333</ele><time>2026-04-05T10:50:58Z</time></trkpt><trkpt lat="42.74246703947152" lon="13.578069168349344"><ele>869.6666666666667</ele><time>2026-04-05T10:50:59Z</time></trkpt><trkpt lat="42.742560905262884" lon="13.578290632388816"><ele>869.0</ele><time>2026-04-05T10:51:00Z</time></trkpt><trkpt lat="42.74265678054285" lon="13.578510119997873"><ele>873.0</ele><time>2026-04-05T10:51:01Z</time></trkpt><trkpt lat="42.74275163268165" lon="13.578730601951136"><ele>877.0</ele><time>2026-04-05T10:51:02Z</time></trkpt><trkpt lat="42.742840725028586" lon="13.578942706823167"><ele>881.0</ele><time>2026-04-05T10:51:03Z</time></trkpt><trkpt lat="42.742929601453845" lon="13.579138818657672"><ele>881.0000000000001</ele><time>2026-04-05T10:51:04Z</time></trkpt><trkpt lat="42.742999587542336" lon="13.579281422644481"><ele>881.0</ele><time>2026-04-05T10:51:05Z</time></trkpt><trkpt lat="42.74304843032105" lon="13.579356315182839"><ele>881.0</ele><time>2026-04-05T10:51:06Z</time></trkpt><trkpt lat="42.74311257137833" lon="13.579390528466751"><ele>881.0</ele><time>2026-04-05T10:51:07Z</time></trkpt><trkpt lat="42.743201072460906" lon="13.579377731919228"><ele>881.0000000000001</ele><time>2026-04-05T10:51:08Z</time></trkpt><trkpt lat="42.74327136143573" lon="13.579301807860526"><ele>881.0</ele><time>2026-04-05T10:51:09Z</time></trkpt><trkpt lat="42.743295138913346" lon="13.57916082002861"><ele>881.0</ele><time>2026-04-05T10:51:10Z</time></trkpt><trkpt lat="42.743289876092184" lon="13.579004285911248"><ele>881.0</ele><time>2026-04-05T10:51:11Z</time></trkpt><trkpt lat="42.743254075448625" lon="13.578841007857948"><ele>881.0</ele><time>2026-04-05T10:51:12Z</time></trkpt><trkpt lat="42.7432125752594" lon="13.578659829488775"><ele>881.0</ele><time>2026-04-05T10:51:13Z</time></trkpt><trkpt lat="42.74316104278298" lon="13.578469493791644"><ele>882.75</ele><time>2026-04-05T10:51:14Z</time></trkpt><trkpt lat="42.74310213397259" lon="13.578292071518627"><ele>884.5</ele><time>2026-04-05T10:51:15Z</time></trkpt><trkpt lat="42.74304798516126" lon="13.578130681012928"><ele>886.25</ele><time>2026-04-05T10:51:16Z</time></trkpt><trkpt lat="42.74300836352733" lon="13.577986548010427"><ele>888.0</ele><time>2026-04-05T10:51:17Z</time></trkpt><trkpt lat="42.74298993347296" lon="13.577843047885812"><ele>890.0</ele><time>2026-04-05T10:51:18Z</time></trkpt><trkpt lat="42.742998429518046" lon="13.577691220903404"><ele>892.0</ele><time>2026-04-05T10:51:19Z</time></trkpt><trkpt lat="42.74302645676063" lon="13.57754405192465"><ele>894.0</ele><time>2026-04-05T10:51:20Z</time></trkpt><trkpt lat="42.74315527290469" lon="13.577233228647984"><ele>894.0</ele><time>2026-04-05T10:51:22Z</time></trkpt><trkpt lat="42.743229362768545" lon="13.577056638714522"><ele>894.0</ele><time>2026-04-05T10:51:23Z</time></trkpt><trkpt lat="42.74330885065684" lon="13.57686062756758"><ele>894.0</ele><time>2026-04-05T10:51:24Z</time></trkpt><trkpt lat="42.74339096718555" lon="13.576661909643493"><ele>894.0</ele><time>2026-04-05T10:51:25Z</time></trkpt><trkpt lat="42.74347517073575" lon="13.57645491919739"><ele>894.0</ele><time>2026-04-05T10:51:26Z</time></trkpt><trkpt lat="42.74355242946106" lon="13.5762573024937"><ele>894.0</ele><time>2026-04-05T10:51:27Z</time></trkpt><trkpt lat="42.743622931139626" lon="13.576065777139716"><ele>897.5</ele><time>2026-04-05T10:51:28Z</time></trkpt><trkpt lat="42.74368942751567" lon="13.575890751308458"><ele>901.0</ele><time>2026-04-05T10:51:29Z</time></trkpt><trkpt lat="42.74376173671882" lon="13.575728032648374"><ele>904.5</ele><time>2026-04-05T10:51:30Z</time></trkpt><trkpt lat="42.743821527620916" lon="13.57558418062074"><ele>908.0</ele><time>2026-04-05T10:51:31Z</time></trkpt><trkpt lat="42.74393289596109" lon="13.575532040859182"><ele>908.0</ele><time>2026-04-05T10:51:32Z</time></trkpt><trkpt lat="42.74399436272438" lon="13.575414919511212"><ele>908.0</ele><time>2026-04-05T10:51:33Z</time></trkpt><trkpt lat="42.74401393411058" lon="13.575285661425003"><ele>908.0</ele><time>2026-04-05T10:51:34Z</time></trkpt><trkpt lat="42.744004557578066" lon="13.575164038390678"><ele>908.0</ele><time>2026-04-05T10:51:35Z</time></trkpt><trkpt lat="42.74396424157071" lon="13.575032158104193"><ele>908.0</ele><time>2026-04-05T10:51:36Z</time></trkpt><trkpt lat="42.743912269117764" lon="13.574873684481963"><ele>908.8</ele><time>2026-04-05T10:51:37Z</time></trkpt><trkpt lat="42.74385698495693" lon="13.57470163312944"><ele>909.5999999999999</ele><time>2026-04-05T10:51:38Z</time></trkpt><trkpt lat="42.74381019246474" lon="13.574533351619886"><ele>910.4000000000001</ele><time>2026-04-05T10:51:39Z</time></trkpt><trkpt lat="42.743787903874065" lon="13.574402977932454"><ele>911.2</ele><time>2026-04-05T10:51:40Z</time></trkpt><trkpt lat="42.74378763988416" lon="13.574307066267037"><ele>912.0</ele><time>2026-04-05T10:51:41Z</time></trkpt><trkpt lat="42.74380727333048" lon="13.57422070404427"><ele>914.6</ele><time>2026-04-05T10:51:42Z</time></trkpt><trkpt lat="42.74386021544217" lon="13.574048585182073"><ele>917.2</ele><time>2026-04-05T10:51:44Z</time></trkpt><trkpt lat="42.74388362408786" lon="13.573964962090368"><ele>919.8</ele><time>2026-04-05T10:51:45Z</time></trkpt><trkpt lat="42.743928155083886" lon="13.573873622015336"><ele>922.4</ele><time>2026-04-05T10:51:47Z</time></trkpt><trkpt lat="42.74399778505373" lon="13.573939672484713"><ele>925.0</ele><time>2026-04-05T10:51:50Z</time></trkpt><trkpt lat="42.74400263627131" lon="13.574116895659497"><ele>924.9999999999999</ele><time>2026-04-05T10:51:52Z</time></trkpt><trkpt lat="42.7440111744695" lon="13.574211394765214"><ele>925.0</ele><time>2026-04-05T10:51:53Z</time></trkpt><trkpt lat="42.74404320995877" lon="13.574308405860757"><ele>925.0</ele><time>2026-04-05T10:51:54Z</time></trkpt><trkpt lat="42.74408880698678" lon="13.57438978848221"><ele>925.0</ele><time>2026-04-05T10:51:55Z</time></trkpt><trkpt lat="42.744148187510156" lon="13.574468834120749"><ele>924.9999999999999</ele><time>2026-04-05T10:51:56Z</time></trkpt><trkpt lat="42.74421849231031" lon="13.574533999274436"><ele>925.0</ele><time>2026-04-05T10:51:57Z</time></trkpt><trkpt lat="42.74428291985354" lon="13.574586249386593"><ele>925.4</ele><time>2026-04-05T10:51:58Z</time></trkpt><trkpt lat="42.74437119686431" lon="13.57463035281657"><ele>925.8</ele><time>2026-04-05T10:52:00Z</time></trkpt><trkpt lat="42.744497441453596" lon="13.57466213652054"><ele>926.2</ele><time>2026-04-05T10:52:02Z</time></trkpt><trkpt lat="42.74458242559844" lon="13.574675201697637"><ele>926.6</ele><time>2026-04-05T10:52:03Z</time></trkpt><trkpt lat="42.74466542176383" lon="13.57470704010084"><ele>927.0</ele><time>2026-04-05T10:52:04Z</time></trkpt><trkpt lat="42.74474413767953" lon="13.574763407802628"><ele>927.0</ele><time>2026-04-05T10:52:05Z</time></trkpt><trkpt lat="42.74479523865186" lon="13.574817988851274"><ele>927.0</ele><time>2026-04-05T10:52:06Z</time></trkpt><trkpt lat="42.7448496312456" lon="13.574901844156406"><ele>927.0</ele><time>2026-04-05T10:52:09Z</time></trkpt><trkpt lat="42.74479906742532" lon="13.574823991906873"><ele>927.0</ele><time>2026-04-05T10:54:29Z</time></trkpt><trkpt lat="42.744733428501256" lon="13.57474981625372"><ele>927.0</ele><time>2026-04-05T10:54:31Z</time></trkpt><trkpt lat="42.74461926037713" lon="13.574689106987556"><ele>927.0</ele><time>2026-04-05T10:54:33Z</time></trkpt><trkpt lat="42.74453411899408" lon="13.574669410654925"><ele>927.0</ele><time>2026-04-05T10:54:34Z</time></trkpt><trkpt lat="42.744457564869506" lon="13.574650678369649"><ele>927.0</ele><time>2026-04-05T10:54:35Z</time></trkpt><trkpt lat="42.74436820616169" lon="13.574612137498939"><ele>927.0</ele><time>2026-04-05T10:54:37Z</time></trkpt><trkpt lat="42.74430658183694" lon="13.574569512900586"><ele>927.0</ele><time>2026-04-05T10:54:39Z</time></trkpt><trkpt lat="42.74424621535549" lon="13.574513908881785"><ele>927.0</ele><time>2026-04-05T10:54:41Z</time></trkpt><trkpt lat="42.74418273942692" lon="13.574456109673775"><ele>927.0</ele><time>2026-04-05T10:54:43Z</time></trkpt><trkpt lat="42.74412569840308" lon="13.574401099125259"><ele>926.6666666666666</ele><time>2026-04-05T10:54:45Z</time></trkpt><trkpt lat="42.74407716553795" lon="13.574339957560063"><ele>926.3333333333333</ele><time>2026-04-05T10:54:47Z</time></trkpt><trkpt lat="42.74403715365755" lon="13.574245069229262"><ele>926.0</ele><time>2026-04-05T10:54:49Z</time></trkpt><trkpt lat="42.74401734709196" lon="13.574140079363952"><ele>925.6666666666666</ele><time>2026-04-05T10:54:51Z</time></trkpt><trkpt lat="42.74400172803536" lon="13.574046240932283"><ele>925.3333333333333</ele><time>2026-04-05T10:54:53Z</time></trkpt><trkpt lat="42.743997690595144" lon="13.57393189080577"><ele>925.0</ele><time>2026-04-05T10:54:56Z</time></trkpt><trkpt lat="42.7439863019736" lon="13.573830620312279"><ele>925.0</ele><time>2026-04-05T10:54:59Z</time></trkpt><trkpt lat="42.743948814451024" lon="13.573750213910861"><ele>925.0</ele><time>2026-04-05T10:55:03Z</time></trkpt><trkpt lat="42.74394029597061" lon="13.573853189002122"><ele>925.0</ele><time>2026-04-05T10:55:08Z</time></trkpt><trkpt lat="42.7439764354172" lon="13.573960995656158"><ele>925.0</ele><time>2026-04-05T10:55:10Z</time></trkpt><trkpt lat="42.74399491033454" lon="13.574111707915131"><ele>925.0</ele><time>2026-04-05T10:55:12Z</time></trkpt><trkpt lat="42.74403324207699" lon="13.574263076798974"><ele>925.0</ele><time>2026-04-05T10:55:14Z</time></trkpt><trkpt lat="42.74407711528891" lon="13.574346649493549"><ele>925.0</ele><time>2026-04-05T10:55:15Z</time></trkpt><trkpt lat="42.744120577780485" lon="13.574411254702474"><ele>925.0</ele><time>2026-04-05T10:55:16Z</time></trkpt><trkpt lat="42.744173905518714" lon="13.574468347332743"><ele>925.0</ele><time>2026-04-05T10:55:17Z</time></trkpt><trkpt lat="42.74423269130016" lon="13.574518592671863"><ele>925.0</ele><time>2026-04-05T10:55:18Z</time></trkpt><trkpt lat="42.744294735047994" lon="13.574561183292253"><ele>925.0</ele><time>2026-04-05T10:55:19Z</time></trkpt><trkpt lat="42.744356524352455" lon="13.574598026080947"><ele>925.0</ele><time>2026-04-05T10:55:20Z</time></trkpt><trkpt lat="42.7444185017482" lon="13.574624360385872"><ele>925.4</ele><time>2026-04-05T10:55:21Z</time></trkpt><trkpt lat="42.74453500420287" lon="13.57466741223905"><ele>925.8</ele><time>2026-04-05T10:55:22Z</time></trkpt><trkpt lat="42.74461358917252" lon="13.57468324412887"><ele>926.2</ele><time>2026-04-05T10:55:23Z</time></trkpt><trkpt lat="42.74468588515711" lon="13.57471417711133"><ele>926.6</ele><time>2026-04-05T10:55:24Z</time></trkpt><trkpt lat="42.74474576811131" lon="13.574760039384037"><ele>927.0</ele><time>2026-04-05T10:55:25Z</time></trkpt><trkpt lat="42.74482710257196" lon="13.574890551605073"><ele>927.0</ele><time>2026-04-05T10:55:27Z</time></trkpt><trkpt lat="42.744866578173934" lon="13.574966262925704"><ele>927.0</ele><time>2026-04-05T10:55:28Z</time></trkpt><trkpt lat="42.74491180596728" lon="13.575078587889283"><ele>927.0</ele><time>2026-04-05T10:55:30Z</time></trkpt><trkpt lat="42.744954965050944" lon="13.575184567114364"><ele>927.0</ele><time>2026-04-05T10:55:32Z</time></trkpt><trkpt lat="42.74501971727728" lon="13.575314168025072"><ele>927.0</ele><time>2026-04-05T10:55:34Z</time></trkpt><trkpt lat="42.74506939829848" lon="13.575414001129676"><ele>926.5714285714284</ele><time>2026-04-05T10:55:36Z</time></trkpt><trkpt lat="42.745118511156086" lon="13.575496827043615"><ele>926.1428571428571</ele><time>2026-04-05T10:55:38Z</time></trkpt><trkpt lat="42.745123301272734" lon="13.575586887880638"><ele>925.7142857142857</ele><time>2026-04-05T10:55:50Z</time></trkpt><trkpt lat="42.74515240510937" lon="13.575673952587417"><ele>925.2857142857142</ele><time>2026-04-05T10:55:56Z</time></trkpt><trkpt lat="42.74516137293732" lon="13.575764764342397"><ele>924.8571428571429</ele><time>2026-04-05T10:55:59Z</time></trkpt><trkpt lat="42.74515414915245" lon="13.575672455985456"><ele>924.4285714285714</ele><time>2026-04-05T10:57:29Z</time></trkpt><trkpt lat="42.745128829174114" lon="13.575592580215531"><ele>924.0</ele><time>2026-04-05T10:57:35Z</time></trkpt><trkpt lat="42.7451065743358" lon="13.575491986116827"><ele>924.0</ele><time>2026-04-05T10:57:41Z</time></trkpt><trkpt lat="42.745060680305926" lon="13.575400604876029"><ele>924.0</ele><time>2026-04-05T10:57:45Z</time></trkpt><trkpt lat="42.74500985763802" lon="13.575301359708506"><ele>924.0</ele><time>2026-04-05T10:57:48Z</time></trkpt><trkpt lat="42.74496585829442" lon="13.575200654908867"><ele>924.0</ele><time>2026-04-05T10:57:51Z</time></trkpt><trkpt lat="42.74492493994719" lon="13.575106732888196"><ele>924.0</ele><time>2026-04-05T10:57:54Z</time></trkpt><trkpt lat="42.7448952648037" lon="13.575030261822654"><ele>924.0</ele><time>2026-04-05T10:57:56Z</time></trkpt><trkpt lat="42.744857567131916" lon="13.574940800982755"><ele>924.5</ele><time>2026-04-05T10:57:58Z</time></trkpt><trkpt lat="42.744788024977396" lon="13.574829527327166"><ele>925.0</ele><time>2026-04-05T10:58:00Z</time></trkpt><trkpt lat="42.74470976082642" lon="13.574732735128949"><ele>925.5</ele><time>2026-04-05T10:58:02Z</time></trkpt><trkpt lat="42.744647194903024" lon="13.574683509196367"><ele>926.0</ele><time>2026-04-05T10:58:03Z</time></trkpt><trkpt lat="42.74457336490286" lon="13.574653937113842"><ele>926.5</ele><time>2026-04-05T10:58:04Z</time></trkpt><trkpt lat="42.744491602518345" lon="13.574646594927346"><ele>927.0</ele><time>2026-04-05T10:58:05Z</time></trkpt><trkpt lat="42.744416162424635" lon="13.574638750075795"><ele>926.6666666666666</ele><time>2026-04-05T10:58:06Z</time></trkpt><trkpt lat="42.74430427515963" lon="13.574578669889167"><ele>926.3333333333333</ele><time>2026-04-05T10:58:08Z</time></trkpt><trkpt lat="42.74424721810287" lon="13.574530223011353"><ele>926.0</ele><time>2026-04-05T10:58:09Z</time></trkpt><trkpt lat="42.744179291617385" lon="13.574463653669657"><ele>925.6666666666666</ele><time>2026-04-05T10:58:10Z</time></trkpt><trkpt lat="42.74412086436958" lon="13.574408643034076"><ele>925.3333333333333</ele><time>2026-04-05T10:58:11Z</time></trkpt><trkpt lat="42.744078048193096" lon="13.574340510037564"><ele>925.0</ele><time>2026-04-05T10:58:12Z</time></trkpt><trkpt lat="42.74404404344281" lon="13.574259037645215"><ele>924.9999999999999</ele><time>2026-04-05T10:58:13Z</time></trkpt><trkpt lat="42.744022171678296" lon="13.574160175927036"><ele>925.0</ele><time>2026-04-05T10:58:14Z</time></trkpt><trkpt lat="42.74400781471874" lon="13.574063412190132"><ele>925.0</ele><time>2026-04-05T10:58:15Z</time></trkpt><trkpt lat="42.74399370305164" lon="13.573969729111315"><ele>925.0</ele><time>2026-04-05T10:58:16Z</time></trkpt><trkpt lat="42.74398227868959" lon="13.573883727470358"><ele>924.9999999999999</ele><time>2026-04-05T10:58:16.999Z</time></trkpt><trkpt lat="42.74395467838576" lon="13.57374187660165"><ele>925.0</ele><time>2026-04-05T10:58:18.999Z</time></trkpt><trkpt lat="42.7439303091719" lon="13.573659400460615"><ele>925.8333333333333</ele><time>2026-04-05T10:58:19.999Z</time></trkpt><trkpt lat="42.74390642968246" lon="13.57356161500912"><ele>926.6666666666666</ele><time>2026-04-05T10:58:20.999Z</time></trkpt><trkpt lat="42.74388868872916" lon="13.573447709379646"><ele>927.5</ele><time>2026-04-05T10:58:21.999Z</time></trkpt><trkpt lat="42.74387676419021" lon="13.573333122151658"><ele>928.3333333333333</ele><time>2026-04-05T10:58:22.999Z</time></trkpt><trkpt lat="42.74386739382521" lon="13.573212983185812"><ele>929.1666666666666</ele><time>2026-04-05T10:58:23.999Z</time></trkpt><trkpt lat="42.74387319925734" lon="13.573100791793882"><ele>930.0</ele><time>2026-04-05T10:58:24.999Z</time></trkpt><trkpt lat="42.743893848617645" lon="13.572987281697754"><ele>930.0</ele><time>2026-04-05T10:58:25.999Z</time></trkpt><trkpt lat="42.74392196456901" lon="13.57286335495547"><ele>930.0</ele><time>2026-04-05T10:58:26.999Z</time></trkpt><trkpt lat="42.74395323026677" lon="13.572721389637678"><ele>930.0</ele><time>2026-04-05T10:58:27.999Z</time></trkpt><trkpt lat="42.74397960846216" lon="13.572554447012829"><ele>930.0</ele><time>2026-04-05T10:58:28.999Z</time></trkpt><trkpt lat="42.74400320486548" lon="13.572371787009603"><ele>933.25</ele><time>2026-04-05T10:58:29.999Z</time></trkpt><trkpt lat="42.743956937364594" lon="13.572145916282667"><ele>936.5</ele><time>2026-04-05T10:58:31.999Z</time></trkpt><trkpt lat="42.743924311033425" lon="13.571993106973745"><ele>939.75</ele><time>2026-04-05T10:58:32.999Z</time></trkpt><trkpt lat="42.7438969755844" lon="13.571847896247531"><ele>943.0</ele><time>2026-04-05T10:58:34Z</time></trkpt><trkpt lat="42.74388455103346" lon="13.57171336012983"><ele>943.2</ele><time>2026-04-05T10:58:35Z</time></trkpt><trkpt lat="42.743893711898686" lon="13.571568973511981"><ele>943.4</ele><time>2026-04-05T10:58:36Z</time></trkpt><trkpt lat="42.74391772247286" lon="13.571422230731441"><ele>943.6000000000001</ele><time>2026-04-05T10:58:37Z</time></trkpt><trkpt lat="42.743955066862924" lon="13.571273682865101"><ele>943.8000000000001</ele><time>2026-04-05T10:58:38Z</time></trkpt><trkpt lat="42.743990737587644" lon="13.57113625572628"><ele>944.0</ele><time>2026-04-05T10:58:39Z</time></trkpt><trkpt lat="42.744019862304" lon="13.571008001983785"><ele>944.0</ele><time>2026-04-05T10:58:40Z</time></trkpt><trkpt lat="42.74402597327194" lon="13.570883395376315"><ele>944.0000000000001</ele><time>2026-04-05T10:58:41Z</time></trkpt><trkpt lat="42.74400143372977" lon="13.570758930226885"><ele>944.0000000000001</ele><time>2026-04-05T10:58:42Z</time></trkpt><trkpt lat="42.74395525178606" lon="13.57065142382799"><ele>944.0</ele><time>2026-04-05T10:58:43Z</time></trkpt><trkpt lat="42.74388480660298" lon="13.570584231347361"><ele>944.0</ele><time>2026-04-05T10:58:44Z</time></trkpt><trkpt lat="42.74380078496851" lon="13.57054410574994"><ele>944.0</ele><time>2026-04-05T10:58:45Z</time></trkpt><trkpt lat="42.7437001608322" lon="13.570525970961565"><ele>944.0000000000001</ele><time>2026-04-05T10:58:46Z</time></trkpt><trkpt lat="42.743588928108956" lon="13.570504545170529"><ele>944.0000000000001</ele><time>2026-04-05T10:58:47Z</time></trkpt><trkpt lat="42.74347298205015" lon="13.570483202589662"><ele>944.0</ele><time>2026-04-05T10:58:48Z</time></trkpt><trkpt lat="42.7433660274934" lon="13.570459979252252"><ele>944.0</ele><time>2026-04-05T10:58:49Z</time></trkpt><trkpt lat="42.74327979702277" lon="13.570428544978299"><ele>945.2</ele><time>2026-04-05T10:58:50Z</time></trkpt><trkpt lat="42.74320653127302" lon="13.570370736354088"><ele>946.4000000000001</ele><time>2026-04-05T10:58:51Z</time></trkpt><trkpt lat="42.743159682662274" lon="13.570290682528947"><ele>947.6</ele><time>2026-04-05T10:58:52Z</time></trkpt><trkpt lat="42.74313207332528" lon="13.570167471744966"><ele>948.8</ele><time>2026-04-05T10:58:53Z</time></trkpt><trkpt lat="42.74308831223206" lon="13.570044501466795"><ele>950.0</ele><time>2026-04-05T10:58:54Z</time></trkpt><trkpt lat="42.74303133804813" lon="13.569915713466205"><ele>950.0</ele><time>2026-04-05T10:58:55Z</time></trkpt><trkpt lat="42.74296983218496" lon="13.569785981402347"><ele>950.0</ele><time>2026-04-05T10:58:56Z</time></trkpt><trkpt lat="42.74291684776699" lon="13.569672760887663"><ele>950.0</ele><time>2026-04-05T10:58:57Z</time></trkpt><trkpt lat="42.742876741523425" lon="13.569569981974027"><ele>950.0</ele><time>2026-04-05T10:58:58Z</time></trkpt><trkpt lat="42.74285863488705" lon="13.569467598304996"><ele>950.0</ele><time>2026-04-05T10:58:59Z</time></trkpt><trkpt lat="42.742822916078545" lon="13.569354259342346"><ele>947.2</ele><time>2026-04-05T10:59:00Z</time></trkpt><trkpt lat="42.7427820655436" lon="13.569230942794029"><ele>944.4</ele><time>2026-04-05T10:59:01Z</time></trkpt><trkpt lat="42.74274248834294" lon="13.569107084400896"><ele>941.5999999999999</ele><time>2026-04-05T10:59:02Z</time></trkpt><trkpt lat="42.742705751720216" lon="13.568987812756163"><ele>938.8</ele><time>2026-04-05T10:59:03Z</time></trkpt><trkpt lat="42.74267307532078" lon="13.568871534782886"><ele>936.0</ele><time>2026-04-05T10:59:04Z</time></trkpt><trkpt lat="42.742643620408806" lon="13.568755368562712"><ele>938.5999999999999</ele><time>2026-04-05T10:59:05Z</time></trkpt><trkpt lat="42.74262013522217" lon="13.568629839022952"><ele>941.1999999999999</ele><time>2026-04-05T10:59:06Z</time></trkpt><trkpt lat="42.742614293564706" lon="13.568488965456446"><ele>943.8000000000001</ele><time>2026-04-05T10:59:07Z</time></trkpt><trkpt lat="42.742618234846965" lon="13.568341123473168"><ele>946.4000000000001</ele><time>2026-04-05T10:59:08Z</time></trkpt><trkpt lat="42.7426208465233" lon="13.568188239700534"><ele>949.0</ele><time>2026-04-05T10:59:09Z</time></trkpt><trkpt lat="42.74262107855458" lon="13.56802870306519"><ele>949.0</ele><time>2026-04-05T10:59:10Z</time></trkpt><trkpt lat="42.74262157070161" lon="13.567869046247724"><ele>949.0</ele><time>2026-04-05T10:59:11Z</time></trkpt><trkpt lat="42.742612823967505" lon="13.567708124032135"><ele>949.0</ele><time>2026-04-05T10:59:12Z</time></trkpt><trkpt lat="42.74259961874398" lon="13.567544141575523"><ele>949.0</ele><time>2026-04-05T10:59:13Z</time></trkpt><trkpt lat="42.742594239512236" lon="13.56740123956221"><ele>949.4000000000001</ele><time>2026-04-05T10:59:14Z</time></trkpt><trkpt lat="42.742602005783205" lon="13.567259368518046"><ele>949.8000000000001</ele><time>2026-04-05T10:59:15Z</time></trkpt><trkpt lat="42.74263653007189" lon="13.567111752964667"><ele>950.1999999999999</ele><time>2026-04-05T10:59:16Z</time></trkpt><trkpt lat="42.742689882906944" lon="13.566976812313511"><ele>950.5999999999999</ele><time>2026-04-05T10:59:17Z</time></trkpt><trkpt lat="42.742757833588755" lon="13.566851729599872"><ele>951.0</ele><time>2026-04-05T10:59:18Z</time></trkpt><trkpt lat="42.74284109796207" lon="13.566733038236658"><ele>959.25</ele><time>2026-04-05T10:59:19Z</time></trkpt><trkpt lat="42.742927600426434" lon="13.566623668351262"><ele>967.5</ele><time>2026-04-05T10:59:20Z</time></trkpt><trkpt lat="42.74302163254857" lon="13.566531485937631"><ele>975.75</ele><time>2026-04-05T10:59:21Z</time></trkpt><trkpt lat="42.74312625962541" lon="13.566455199362949"><ele>984.0</ele><time>2026-04-05T10:59:22Z</time></trkpt><trkpt lat="42.74322447616228" lon="13.566368976391233"><ele>984.0</ele><time>2026-04-05T10:59:23Z</time></trkpt><trkpt lat="42.74331853568358" lon="13.566264887533249"><ele>984.0000000000001</ele><time>2026-04-05T10:59:24Z</time></trkpt><trkpt lat="42.743391431426176" lon="13.566150840263255"><ele>984.0000000000001</ele><time>2026-04-05T10:59:25Z</time></trkpt><trkpt lat="42.743465709564624" lon="13.566062729479789"><ele>984.0</ele><time>2026-04-05T10:59:26Z</time></trkpt><trkpt lat="42.74354810907914" lon="13.566008612806835"><ele>984.0</ele><time>2026-04-05T10:59:27Z</time></trkpt><trkpt lat="42.74364945225666" lon="13.56597381912664"><ele>986.2</ele><time>2026-04-05T10:59:28Z</time></trkpt><trkpt lat="42.74376436087894" lon="13.565940453353514"><ele>988.4000000000001</ele><time>2026-04-05T10:59:29Z</time></trkpt><trkpt lat="42.7438773149367" lon="13.56589956078303"><ele>990.6</ele><time>2026-04-05T10:59:30Z</time></trkpt><trkpt lat="42.743977727405166" lon="13.565861277521051"><ele>992.8</ele><time>2026-04-05T10:59:31Z</time></trkpt><trkpt lat="42.74405568989715" lon="13.565823802554199"><ele>995.0</ele><time>2026-04-05T10:59:32Z</time></trkpt><trkpt lat="42.74411125111538" lon="13.565777032354795"><ele>995.0000000000001</ele><time>2026-04-05T10:59:33Z</time></trkpt><trkpt lat="42.744153319445765" lon="13.565710224055223"><ele>995.0</ele><time>2026-04-05T10:59:34Z</time></trkpt><trkpt lat="42.74416991251343" lon="13.565612767296788"><ele>995.0</ele><time>2026-04-05T10:59:35Z</time></trkpt><trkpt lat="42.74417195068855" lon="13.565498946288335"><ele>995.0</ele><time>2026-04-05T10:59:36Z</time></trkpt><trkpt lat="42.74415853134591" lon="13.565374460987394"><ele>995.0000000000001</ele><time>2026-04-05T10:59:37Z</time></trkpt><trkpt lat="42.744143711502396" lon="13.56523514054627"><ele>995.0</ele><time>2026-04-05T10:59:38Z</time></trkpt><trkpt lat="42.74413141647433" lon="13.565093312485704"><ele>996.0</ele><time>2026-04-05T10:59:39Z</time></trkpt><trkpt lat="42.74411345320019" lon="13.564957094225711"><ele>997.0</ele><time>2026-04-05T10:59:40Z</time></trkpt><trkpt lat="42.74407628685585" lon="13.564832804692315"><ele>998.0</ele><time>2026-04-05T10:59:41Z</time></trkpt><trkpt lat="42.74400965850965" lon="13.564726294254754"><ele>999.0</ele><time>2026-04-05T10:59:42Z</time></trkpt><trkpt lat="42.74394766298242" lon="13.56465344022229"><ele>1000.0</ele><time>2026-04-05T10:59:43Z</time></trkpt><trkpt lat="42.74385969337857" lon="13.564589751380296"><ele>1001.0</ele><time>2026-04-05T10:59:45Z</time></trkpt><trkpt lat="42.74376756910733" lon="13.564505848562181"><ele>1002.0</ele><time>2026-04-05T10:59:47Z</time></trkpt><trkpt lat="42.74366382591236" lon="13.564401209644764"><ele>1003.0</ele><time>2026-04-05T10:59:49Z</time></trkpt><trkpt lat="42.74360359830735" lon="13.564348499796926"><ele>1004.0</ele><time>2026-04-05T10:59:50Z</time></trkpt><trkpt lat="42.74353803706724" lon="13.564292825829929"><ele>1005.0</ele><time>2026-04-05T10:59:51Z</time></trkpt><trkpt lat="42.74346224097416" lon="13.564225305987426"><ele>1005.0</ele><time>2026-04-05T10:59:52Z</time></trkpt><trkpt lat="42.74337673030768" lon="13.564148714974127"><ele>1005.0</ele><time>2026-04-05T10:59:53Z</time></trkpt><trkpt lat="42.74327868276084" lon="13.564072707481543"><ele>1005.0</ele><time>2026-04-05T10:59:54Z</time></trkpt><trkpt lat="42.743170417142586" lon="13.56399282850684"><ele>1005.0</ele><time>2026-04-05T10:59:55Z</time></trkpt><trkpt lat="42.743057271705176" lon="13.563916746900006"><ele>1005.0</ele><time>2026-04-05T10:59:56Z</time></trkpt><trkpt lat="42.74293662607456" lon="13.56383821276797"><ele>1005.0</ele><time>2026-04-05T10:59:57Z</time></trkpt><trkpt lat="42.74280838093087" lon="13.563763371951921"><ele>1005.0</ele><time>2026-04-05T10:59:58Z</time></trkpt><trkpt lat="42.74269534557452" lon="13.563693417105501"><ele>1005.0</ele><time>2026-04-05T10:59:59Z</time></trkpt><trkpt lat="42.74259735817337" lon="13.563646175601646"><ele>1004.25</ele><time>2026-04-05T11:00:00Z</time></trkpt><trkpt lat="42.74249328823859" lon="13.563640928672234"><ele>1003.5</ele><time>2026-04-05T11:00:01Z</time></trkpt><trkpt lat="42.74237190755838" lon="13.563664860450713"><ele>1002.75</ele><time>2026-04-05T11:00:02Z</time></trkpt><trkpt lat="42.742240724015744" lon="13.56371051145833"><ele>1002.0</ele><time>2026-04-05T11:00:03Z</time></trkpt><trkpt lat="42.74209247011347" lon="13.563763201427076"><ele>1002.0</ele><time>2026-04-05T11:00:04Z</time></trkpt><trkpt lat="42.7419342308731" lon="13.563813533487458"><ele>1002.0</ele><time>2026-04-05T11:00:05Z</time></trkpt><trkpt lat="42.741781342665284" lon="13.56387637643649"><ele>1002.0</ele><time>2026-04-05T11:00:06Z</time></trkpt><trkpt lat="42.74165407451292" lon="13.563940948015059"><ele>1004.75</ele><time>2026-04-05T11:00:07Z</time></trkpt><trkpt lat="42.74155124468818" lon="13.564009281792861"><ele>1007.5</ele><time>2026-04-05T11:00:08Z</time></trkpt><trkpt lat="42.74145417194547" lon="13.564109385768111"><ele>1010.25</ele><time>2026-04-05T11:00:09Z</time></trkpt><trkpt lat="42.741365471980835" lon="13.56424560266435"><ele>1013.0</ele><time>2026-04-05T11:00:10Z</time></trkpt><trkpt lat="42.74128691016807" lon="13.564364210608561"><ele>1013.0000000000001</ele><time>2026-04-05T11:00:11Z</time></trkpt><trkpt lat="42.74121100607067" lon="13.564441490997105"><ele>1013.0</ele><time>2026-04-05T11:00:12Z</time></trkpt><trkpt lat="42.7411250923023" lon="13.564475979664646"><ele>1013.0</ele><time>2026-04-05T11:00:13Z</time></trkpt><trkpt lat="42.74105011128497" lon="13.564460714141932"><ele>1013.0</ele><time>2026-04-05T11:00:14Z</time></trkpt><trkpt lat="42.74100178081291" lon="13.564404068150937"><ele>1013.0000000000001</ele><time>2026-04-05T11:00:15Z</time></trkpt><trkpt lat="42.740994596320924" lon="13.564235958173605"><ele>1013.0</ele><time>2026-04-05T11:00:17Z</time></trkpt><trkpt lat="42.74102793130531" lon="13.564144541477273"><ele>1013.0</ele><time>2026-04-05T11:00:18Z</time></trkpt><trkpt lat="42.741086603556525" lon="13.564040232411136"><ele>1013.0</ele><time>2026-04-05T11:00:19Z</time></trkpt><trkpt lat="42.74114425933006" lon="13.563922637706238"><ele>1013.0</ele><time>2026-04-05T11:00:20Z</time></trkpt><trkpt lat="42.741188379666674" lon="13.563808245337427"><ele>1013.0</ele><time>2026-04-05T11:00:21Z</time></trkpt><trkpt lat="42.74120017502258" lon="13.563687617117957"><ele>1013.0</ele><time>2026-04-05T11:00:22Z</time></trkpt><trkpt lat="42.74118980692699" lon="13.56356439715559"><ele>1017.0</ele><time>2026-04-05T11:00:23Z</time></trkpt><trkpt lat="42.7411540844413" lon="13.563460209613186"><ele>1021.0</ele><time>2026-04-05T11:00:24Z</time></trkpt><trkpt lat="42.74109147941394" lon="13.56337978059995"><ele>1025.0</ele><time>2026-04-05T11:00:25Z</time></trkpt><trkpt lat="42.74101252338482" lon="13.563318348970226"><ele>1029.0</ele><time>2026-04-05T11:00:26Z</time></trkpt><trkpt lat="42.74092540191505" lon="13.56326923308052"><ele>1033.0</ele><time>2026-04-05T11:00:27Z</time></trkpt><trkpt lat="42.7408371043311" lon="13.563221035858048"><ele>1033.0</ele><time>2026-04-05T11:00:28Z</time></trkpt><trkpt lat="42.740755026309806" lon="13.563169351973764"><ele>1033.0</ele><time>2026-04-05T11:00:29Z</time></trkpt><trkpt lat="42.740679162896036" lon="13.56310919986146"><ele>1033.0</ele><time>2026-04-05T11:00:30Z</time></trkpt><trkpt lat="42.74060932264382" lon="13.563047382320239"><ele>1033.0</ele><time>2026-04-05T11:00:31Z</time></trkpt><trkpt lat="42.74054224468135" lon="13.56297797752834"><ele>1033.0</ele><time>2026-04-05T11:00:32Z</time></trkpt><trkpt lat="42.74048821654455" lon="13.56290244142608"><ele>1033.0</ele><time>2026-04-05T11:00:33Z</time></trkpt><trkpt lat="42.74045627910973" lon="13.562822854553955"><ele>1036.5</ele><time>2026-04-05T11:00:34Z</time></trkpt><trkpt lat="42.74044565868311" lon="13.562727863925303"><ele>1040.0</ele><time>2026-04-05T11:00:35Z</time></trkpt><trkpt lat="42.74046943445453" lon="13.562631065178412"><ele>1043.5</ele><time>2026-04-05T11:00:35.999Z</time></trkpt><trkpt lat="42.74051253702062" lon="13.562539062307847"><ele>1047.0</ele><time>2026-04-05T11:00:36.999Z</time></trkpt><trkpt lat="42.740567723537254" lon="13.562438273125872"><ele>1050.5</ele><time>2026-04-05T11:00:37.999Z</time></trkpt><trkpt lat="42.74060476354602" lon="13.562331123024448"><ele>1054.0</ele><time>2026-04-05T11:00:38.999Z</time></trkpt><trkpt lat="42.74062020967844" lon="13.562240935406521"><ele>1054.0</ele><time>2026-04-05T11:00:39.999Z</time></trkpt><trkpt lat="42.74056274987394" lon="13.562280286999597"><ele>1054.0</ele><time>2026-04-05T11:03:45Z</time></trkpt><trkpt lat="42.74051967894087" lon="13.562450218567392"><ele>1054.0</ele><time>2026-04-05T11:03:47Z</time></trkpt><trkpt lat="42.74048432933145" lon="13.562544316244402"><ele>1054.0</ele><time>2026-04-05T11:03:48Z</time></trkpt><trkpt lat="42.740451517992675" lon="13.562634129067765"><ele>1054.0</ele><time>2026-04-05T11:03:49Z</time></trkpt><trkpt lat="42.74043454238918" lon="13.562717468135041"><ele>1054.0</ele><time>2026-04-05T11:03:50Z</time></trkpt><trkpt lat="42.74044014055672" lon="13.562810852055529"><ele>1049.8</ele><time>2026-04-05T11:03:51Z</time></trkpt><trkpt lat="42.74046637242616" lon="13.562897146692434"><ele>1045.6000000000001</ele><time>2026-04-05T11:03:52Z</time></trkpt><trkpt lat="42.74052592808972" lon="13.562998573452614"><ele>1041.4</ele><time>2026-04-05T11:03:54Z</time></trkpt><trkpt lat="42.74059184333629" lon="13.563065601552132"><ele>1037.2</ele><time>2026-04-05T11:03:57Z</time></trkpt><trkpt lat="42.74070982678386" lon="13.563156371417673"><ele>1033.0</ele><time>2026-04-05T11:03:59Z</time></trkpt><trkpt lat="42.74078995603058" lon="13.5632165102261"><ele>1033.0</ele><time>2026-04-05T11:04:00Z</time></trkpt><trkpt lat="42.7408692526894" lon="13.563268204058286"><ele>1033.0</ele><time>2026-04-05T11:04:01Z</time></trkpt><trkpt lat="42.740953535242475" lon="13.563323255138794"><ele>1033.0</ele><time>2026-04-05T11:04:02Z</time></trkpt><trkpt lat="42.74102867216836" lon="13.563375718124865"><ele>1033.0</ele><time>2026-04-05T11:04:03Z</time></trkpt><trkpt lat="42.741090242179496" lon="13.563433680733224"><ele>1033.0</ele><time>2026-04-05T11:04:04Z</time></trkpt><trkpt lat="42.74115485394335" lon="13.563581618981443"><ele>1035.8333333333333</ele><time>2026-04-05T11:04:06Z</time></trkpt><trkpt lat="42.7411637960403" lon="13.563678736234644"><ele>1038.6666666666665</ele><time>2026-04-05T11:04:07Z</time></trkpt><trkpt lat="42.74115952627528" lon="13.563786058860126"><ele>1041.5</ele><time>2026-04-05T11:04:08Z</time></trkpt><trkpt lat="42.74113109143651" lon="13.563890529326272"><ele>1044.3333333333333</ele><time>2026-04-05T11:04:09Z</time></trkpt><trkpt lat="42.74108341387463" lon="13.56399824846333"><ele>1047.1666666666667</ele><time>2026-04-05T11:04:10Z</time></trkpt><trkpt lat="42.74103429210116" lon="13.564105900795125"><ele>1050.0</ele><time>2026-04-05T11:04:11Z</time></trkpt><trkpt lat="42.74099862241704" lon="13.564194645486198"><ele>1043.8333333333333</ele><time>2026-04-05T11:04:12Z</time></trkpt><trkpt lat="42.740977595228955" lon="13.564339903011174"><ele>1037.6666666666667</ele><time>2026-04-05T11:04:14Z</time></trkpt><trkpt lat="42.741021080996745" lon="13.56444432179831"><ele>1031.5</ele><time>2026-04-05T11:04:16Z</time></trkpt><trkpt lat="42.74108789362449" lon="13.564490298426522"><ele>1025.3333333333335</ele><time>2026-04-05T11:04:18Z</time></trkpt><trkpt lat="42.741186281489895" lon="13.564475840845033"><ele>1019.1666666666667</ele><time>2026-04-05T11:04:24Z</time></trkpt><trkpt lat="42.74124485860789" lon="13.564436765577128"><ele>1013.0</ele><time>2026-04-05T11:04:25Z</time></trkpt><trkpt lat="42.741313059162565" lon="13.564358646784397"><ele>1013.0</ele><time>2026-04-05T11:04:26Z</time></trkpt><trkpt lat="42.74138030240945" lon="13.564268737794384"><ele>1013.0</ele><time>2026-04-05T11:04:27Z</time></trkpt><trkpt lat="42.74144948690343" lon="13.564176320306656"><ele>1013.0</ele><time>2026-04-05T11:04:28Z</time></trkpt><trkpt lat="42.74152181815522" lon="13.564087202040772"><ele>1013.0</ele><time>2026-04-05T11:04:29Z</time></trkpt><trkpt lat="42.74160646456856" lon="13.56401108403506"><ele>1013.0</ele><time>2026-04-05T11:04:30Z</time></trkpt><trkpt lat="42.74169899105227" lon="13.563944746966838"><ele>1013.0</ele><time>2026-04-05T11:04:31Z</time></trkpt><trkpt lat="42.74179895077802" lon="13.563888970850348"><ele>1013.0</ele><time>2026-04-05T11:04:32Z</time></trkpt><trkpt lat="42.74190446258581" lon="13.56386839547898"><ele>1013.0</ele><time>2026-04-05T11:04:33Z</time></trkpt><trkpt lat="42.741996227890105" lon="13.56383423633176"><ele>1013.0</ele><time>2026-04-05T11:04:34Z</time></trkpt><trkpt lat="42.74208624993065" lon="13.56380299080718"><ele>1013.0</ele><time>2026-04-05T11:04:35Z</time></trkpt><trkpt lat="42.74216517700023" lon="13.563754752931965"><ele>1010.8</ele><time>2026-04-05T11:04:36Z</time></trkpt><trkpt lat="42.742249649244314" lon="13.563732364211866"><ele>1008.5999999999999</ele><time>2026-04-05T11:04:37Z</time></trkpt><trkpt lat="42.742345504757324" lon="13.563704566873872"><ele>1006.4000000000001</ele><time>2026-04-05T11:04:38Z</time></trkpt><trkpt lat="42.74245031109925" lon="13.563699790916223"><ele>1004.2</ele><time>2026-04-05T11:04:39Z</time></trkpt><trkpt lat="42.74254985480525" lon="13.563696889569043"><ele>1002.0</ele><time>2026-04-05T11:04:40Z</time></trkpt><trkpt lat="42.74264993768841" lon="13.5637305249462"><ele>1002.75</ele><time>2026-04-05T11:04:41Z</time></trkpt><trkpt lat="42.74275484245766" lon="13.563788041240102"><ele>1003.5</ele><time>2026-04-05T11:04:42Z</time></trkpt><trkpt lat="42.74287023394022" lon="13.563856447759314"><ele>1004.25</ele><time>2026-04-05T11:04:43Z</time></trkpt><trkpt lat="42.742995497583074" lon="13.563915544320864"><ele>1005.0</ele><time>2026-04-05T11:04:44Z</time></trkpt><trkpt lat="42.74312454648573" lon="13.564008620378711"><ele>1005.0</ele><time>2026-04-05T11:04:45Z</time></trkpt><trkpt lat="42.74325419813661" lon="13.564093068598606"><ele>1005.0</ele><time>2026-04-05T11:04:46Z</time></trkpt><trkpt lat="42.743367454016465" lon="13.564204451949838"><ele>1005.0</ele><time>2026-04-05T11:04:47Z</time></trkpt><trkpt lat="42.74347902066112" lon="13.56429569458088"><ele>1005.0</ele><time>2026-04-05T11:04:48Z</time></trkpt><trkpt lat="42.743589790445206" lon="13.564376419351209"><ele>1004.0</ele><time>2026-04-05T11:04:49Z</time></trkpt><trkpt lat="42.74368738140086" lon="13.564470808301323"><ele>1003.0</ele><time>2026-04-05T11:04:50Z</time></trkpt><trkpt lat="42.74378079033946" lon="13.564560911547332"><ele>1002.0</ele><time>2026-04-05T11:04:51Z</time></trkpt><trkpt lat="42.743869706230065" lon="13.564650737714134"><ele>1001.0</ele><time>2026-04-05T11:04:51.999Z</time></trkpt><trkpt lat="42.74395262810198" lon="13.564736366573598"><ele>1000.0</ele><time>2026-04-05T11:04:52.999Z</time></trkpt><trkpt lat="42.74402238903757" lon="13.564832120298492"><ele>1000.0</ele><time>2026-04-05T11:04:53.999Z</time></trkpt><trkpt lat="42.74407055160789" lon="13.56494009360002"><ele>1000.0</ele><time>2026-04-05T11:04:54.999Z</time></trkpt><trkpt lat="42.74408682850112" lon="13.565065018104145"><ele>1000.0</ele><time>2026-04-05T11:04:55.999Z</time></trkpt><trkpt lat="42.74410355941875" lon="13.56518221850456"><ele>1000.0</ele><time>2026-04-05T11:04:56.999Z</time></trkpt><trkpt lat="42.74411624191917" lon="13.5653246689698"><ele>1000.0</ele><time>2026-04-05T11:04:57.999Z</time></trkpt><trkpt lat="42.74412236327645" lon="13.565421195703141"><ele>999.0</ele><time>2026-04-05T11:04:58.999Z</time></trkpt><trkpt lat="42.74414664870472" lon="13.565581085379149"><ele>998.0</ele><time>2026-04-05T11:05:00.999Z</time></trkpt><trkpt lat="42.74413083146748" lon="13.565700712193205"><ele>997.0</ele><time>2026-04-05T11:05:02.999Z</time></trkpt><trkpt lat="42.74405329515213" lon="13.565814598545666"><ele>996.0</ele><time>2026-04-05T11:05:04.999Z</time></trkpt><trkpt lat="42.74398251343794" lon="13.565841339403214"><ele>995.0</ele><time>2026-04-05T11:05:05.999Z</time></trkpt><trkpt lat="42.74390814874614" lon="13.565857353662608"><ele>995.0</ele><time>2026-04-05T11:05:06.999Z</time></trkpt><trkpt lat="42.743819291983804" lon="13.56591401777165"><ele>995.0</ele><time>2026-04-05T11:05:07.999Z</time></trkpt><trkpt lat="42.74370956638556" lon="13.565942368995689"><ele>995.0</ele><time>2026-04-05T11:05:08.999Z</time></trkpt><trkpt lat="42.743605241756505" lon="13.565974600809444"><ele>995.0</ele><time>2026-04-05T11:05:09.999Z</time></trkpt><trkpt lat="42.743519886216525" lon="13.56600209089937"><ele>995.0</ele><time>2026-04-05T11:05:10.999Z</time></trkpt><trkpt lat="42.743444201572494" lon="13.566036505621838"><ele>992.8</ele><time>2026-04-05T11:05:11.999Z</time></trkpt><trkpt lat="42.74337347553805" lon="13.566087379140603"><ele>990.6</ele><time>2026-04-05T11:05:12.999Z</time></trkpt><trkpt lat="42.743302018408436" lon="13.566178434708394"><ele>988.4000000000001</ele><time>2026-04-05T11:05:13.999Z</time></trkpt><trkpt lat="42.7432240674602" lon="13.566291828241212"><ele>986.2</ele><time>2026-04-05T11:05:14.999Z</time></trkpt><trkpt lat="42.74313183756962" lon="13.566395311283868"><ele>984.0</ele><time>2026-04-05T11:05:15.999Z</time></trkpt><trkpt lat="42.7430229937694" lon="13.566484929793333"><ele>984.0</ele><time>2026-04-05T11:05:16.999Z</time></trkpt><trkpt lat="42.74292922456976" lon="13.566578361230981"><ele>984.0</ele><time>2026-04-05T11:05:17.999Z</time></trkpt><trkpt lat="42.74284685144195" lon="13.566671172127132"><ele>984.0</ele><time>2026-04-05T11:05:18.999Z</time></trkpt><trkpt lat="42.742766548233355" lon="13.566781959774676"><ele>984.0</ele><time>2026-04-05T11:05:19.999Z</time></trkpt><trkpt lat="42.742693357714074" lon="13.566900602195131"><ele>977.6</ele><time>2026-04-05T11:05:20.999Z</time></trkpt><trkpt lat="42.74263199407562" lon="13.567023673336474"><ele>971.2</ele><time>2026-04-05T11:05:21.999Z</time></trkpt><trkpt lat="42.74258877023999" lon="13.567155667290065"><ele>964.8000000000001</ele><time>2026-04-05T11:05:22.999Z</time></trkpt><trkpt lat="42.74256297873986" lon="13.56730083344844"><ele>958.4000000000001</ele><time>2026-04-05T11:05:23.999Z</time></trkpt><trkpt lat="42.7425566718354" lon="13.567458843910291"><ele>952.0</ele><time>2026-04-05T11:05:24.999Z</time></trkpt><trkpt lat="42.742569953195655" lon="13.567638498778761"><ele>952.0</ele><time>2026-04-05T11:05:25.999Z</time></trkpt><trkpt lat="42.74258465971454" lon="13.567848462639056"><ele>952.0</ele><time>2026-04-05T11:05:26.999Z</time></trkpt><trkpt lat="42.7425883861773" lon="13.568071186380791"><ele>952.0</ele><time>2026-04-05T11:05:27.999Z</time></trkpt><trkpt lat="42.74257170274968" lon="13.568273440327987"><ele>951.25</ele><time>2026-04-05T11:05:28.999Z</time></trkpt><trkpt lat="42.7425841623657" lon="13.56845897621271"><ele>950.5</ele><time>2026-04-05T11:05:29.999Z</time></trkpt><trkpt lat="42.74258563889043" lon="13.568631071386095"><ele>949.75</ele><time>2026-04-05T11:05:30.999Z</time></trkpt><trkpt lat="42.74261410036805" lon="13.568802266026827"><ele>949.0</ele><time>2026-04-05T11:05:31.999Z</time></trkpt><trkpt lat="42.74266772505514" lon="13.56899117537266"><ele>949.25</ele><time>2026-04-05T11:05:32.999Z</time></trkpt><trkpt lat="42.74272739730081" lon="13.569170248780487"><ele>949.5</ele><time>2026-04-05T11:05:33.999Z</time></trkpt><trkpt lat="42.74278321333535" lon="13.569342472798608"><ele>949.75</ele><time>2026-04-05T11:05:34.999Z</time></trkpt><trkpt lat="42.74283225314566" lon="13.569523076139987"><ele>950.0</ele><time>2026-04-05T11:05:35.999Z</time></trkpt><trkpt lat="42.74289707726348" lon="13.569686602394114"><ele>950.0</ele><time>2026-04-05T11:05:36.999Z</time></trkpt><trkpt lat="42.742938928295125" lon="13.569848868979406"><ele>950.0</ele><time>2026-04-05T11:05:37.999Z</time></trkpt><trkpt lat="42.74300270609498" lon="13.569994233542712"><ele>950.0</ele><time>2026-04-05T11:05:38.999Z</time></trkpt><trkpt lat="42.74307030739833" lon="13.5701397460715"><ele>950.0</ele><time>2026-04-05T11:05:39.999Z</time></trkpt><trkpt lat="42.74313582728403" lon="13.57027570697341"><ele>948.8</ele><time>2026-04-05T11:05:40.999Z</time></trkpt><trkpt lat="42.743184185619924" lon="13.570382795524907"><ele>947.6</ele><time>2026-04-05T11:05:41.999Z</time></trkpt><trkpt lat="42.743229513859376" lon="13.57046506173352"><ele>946.4000000000001</ele><time>2026-04-05T11:05:42.999Z</time></trkpt><trkpt lat="42.743329553485054" lon="13.57048552796145"><ele>945.2</ele><time>2026-04-05T11:05:43.999Z</time></trkpt><trkpt lat="42.74343338202639" lon="13.570515504570645"><ele>944.0</ele><time>2026-04-05T11:05:44.999Z</time></trkpt><trkpt lat="42.74355948917644" lon="13.570564507818236"><ele>944.0</ele><time>2026-04-05T11:05:45.999Z</time></trkpt><trkpt lat="42.74369026624668" lon="13.570579809693193"><ele>944.0000000000001</ele><time>2026-04-05T11:05:46.999Z</time></trkpt><trkpt lat="42.74379613679884" lon="13.570641147624434"><ele>944.0000000000001</ele><time>2026-04-05T11:05:47.999Z</time></trkpt><trkpt lat="42.74387288073823" lon="13.570693577218698"><ele>944.0</ele><time>2026-04-05T11:05:48.999Z</time></trkpt><trkpt lat="42.743925289739266" lon="13.570759755552567"><ele>944.0</ele><time>2026-04-05T11:05:49.999Z</time></trkpt><trkpt lat="42.743958698977224" lon="13.570847601061306"><ele>944.0</ele><time>2026-04-05T11:05:50.999Z</time></trkpt><trkpt lat="42.74397702440983" lon="13.57096484259275"><ele>944.0000000000001</ele><time>2026-04-05T11:05:51.999Z</time></trkpt><trkpt lat="42.74397001507749" lon="13.57110709747145"><ele>944.0000000000001</ele><time>2026-04-05T11:05:52.999Z</time></trkpt><trkpt lat="42.74393595703095" lon="13.571245753900634"><ele>944.0</ele><time>2026-04-05T11:05:53.999Z</time></trkpt><trkpt lat="42.74390004427783" lon="13.571415635474864"><ele>944.0</ele><time>2026-04-05T11:05:54.999Z</time></trkpt><trkpt lat="42.7438650620509" lon="13.571584034696865"><ele>943.75</ele><time>2026-04-05T11:05:55.999Z</time></trkpt><trkpt lat="42.74386328906573" lon="13.571736193970656"><ele>943.5</ele><time>2026-04-05T11:05:56.999Z</time></trkpt><trkpt lat="42.74386187041523" lon="13.571882122767683"><ele>943.25</ele><time>2026-04-05T11:05:57.999Z</time></trkpt><trkpt lat="42.74388738958579" lon="13.572042846973037"><ele>943.0</ele><time>2026-04-05T11:05:58.999Z</time></trkpt><trkpt lat="42.74390946159049" lon="13.572215972208925"><ele>943.0</ele><time>2026-04-05T11:05:59.999Z</time></trkpt><trkpt lat="42.74392457603791" lon="13.572390254093557"><ele>943.0</ele><time>2026-04-05T11:06:00.999Z</time></trkpt><trkpt lat="42.74393996364048" lon="13.572557751428194"><ele>943.0</ele><time>2026-04-05T11:06:01.999Z</time></trkpt><trkpt lat="42.743902680912356" lon="13.572722265998296"><ele>943.0</ele><time>2026-04-05T11:06:02.999Z</time></trkpt><trkpt lat="42.74387154674724" lon="13.572898518248937"><ele>939.75</ele><time>2026-04-05T11:06:03.999Z</time></trkpt><trkpt lat="42.743854090507035" lon="13.573082922880449"><ele>936.5</ele><time>2026-04-05T11:06:04.999Z</time></trkpt><trkpt lat="42.743838441474004" lon="13.57322844234082"><ele>933.25</ele><time>2026-04-05T11:06:05.999Z</time></trkpt><trkpt lat="42.74384987260169" lon="13.573377538758368"><ele>930.0</ele><time>2026-04-05T11:06:06.999Z</time></trkpt><trkpt lat="42.74383364887776" lon="13.573527728169234"><ele>930.0</ele><time>2026-04-05T11:06:07.999Z</time></trkpt><trkpt lat="42.743833648877036" lon="13.573659343417882"><ele>930.0</ele><time>2026-04-05T11:06:08.999Z</time></trkpt><trkpt lat="42.74390318575605" lon="13.573774611986725"><ele>930.0</ele><time>2026-04-05T11:06:09.999Z</time></trkpt><trkpt lat="42.743891423780696" lon="13.57389547887557"><ele>930.0</ele><time>2026-04-05T11:06:10.999Z</time></trkpt><trkpt lat="42.743851281602275" lon="13.5740249268582"><ele>930.0</ele><time>2026-04-05T11:06:11.999Z</time></trkpt><trkpt lat="42.743795069040644" lon="13.574159925391635"><ele>929.0</ele><time>2026-04-05T11:06:12.999Z</time></trkpt><trkpt lat="42.74375962777708" lon="13.574266187416669"><ele>928.0</ele><time>2026-04-05T11:06:13.999Z</time></trkpt><trkpt lat="42.7437451514539" lon="13.574369153742492"><ele>927.0</ele><time>2026-04-05T11:06:14.999Z</time></trkpt><trkpt lat="42.743762693819406" lon="13.574491853995236"><ele>926.0</ele><time>2026-04-05T11:06:15.999Z</time></trkpt><trkpt lat="42.743807328289826" lon="13.574627021453626"><ele>925.0</ele><time>2026-04-05T11:06:16.999Z</time></trkpt><trkpt lat="42.74386213827159" lon="13.574775682627985"><ele>922.4</ele><time>2026-04-05T11:06:17.999Z</time></trkpt><trkpt lat="42.74390292799488" lon="13.574912275735361"><ele>919.8</ele><time>2026-04-05T11:06:18.999Z</time></trkpt><trkpt lat="42.7439362649226" lon="13.575033168840921"><ele>917.2</ele><time>2026-04-05T11:06:19.999Z</time></trkpt><trkpt lat="42.74396423865367" lon="13.57513461952754"><ele>914.6</ele><time>2026-04-05T11:06:20.999Z</time></trkpt><trkpt lat="42.74398213289261" lon="13.575259158168924"><ele>912.0</ele><time>2026-04-05T11:06:22.999Z</time></trkpt><trkpt lat="42.743948619160804" lon="13.575365606934295"><ele>911.2</ele><time>2026-04-05T11:06:24.999Z</time></trkpt><trkpt lat="42.74392595370063" lon="13.575461233613053"><ele>910.4000000000001</ele><time>2026-04-05T11:06:25.999Z</time></trkpt><trkpt lat="42.74388660935101" lon="13.575567391472067"><ele>909.5999999999999</ele><time>2026-04-05T11:06:26.999Z</time></trkpt><trkpt lat="42.74382914655653" lon="13.575658043633325"><ele>908.8</ele><time>2026-04-05T11:06:27.999Z</time></trkpt><trkpt lat="42.74376196822376" lon="13.575757128456631"><ele>908.0</ele><time>2026-04-05T11:06:28.999Z</time></trkpt><trkpt lat="42.74368559908477" lon="13.575881894485445"><ele>908.0</ele><time>2026-04-05T11:06:29.999Z</time></trkpt><trkpt lat="42.7436132211455" lon="13.576036682168525"><ele>908.0</ele><time>2026-04-05T11:06:30.999Z</time></trkpt><trkpt lat="42.743537628760954" lon="13.576224831053095"><ele>908.0</ele><time>2026-04-05T11:06:31.999Z</time></trkpt><trkpt lat="42.74345485630595" lon="13.57642620777345"><ele>903.3333333333334</ele><time>2026-04-05T11:06:32.999Z</time></trkpt><trkpt lat="42.7433664752499" lon="13.576636404980269"><ele>898.6666666666667</ele><time>2026-04-05T11:06:33.999Z</time></trkpt><trkpt lat="42.743281728345764" lon="13.576838952346593"><ele>894.0</ele><time>2026-04-05T11:06:34.999Z</time></trkpt><trkpt lat="42.74320014666736" lon="13.577029639233682"><ele>894.0</ele><time>2026-04-05T11:06:35.999Z</time></trkpt><trkpt lat="42.743125662529124" lon="13.577207968356019"><ele>894.0</ele><time>2026-04-05T11:06:36.999Z</time></trkpt><trkpt lat="42.74305905059194" lon="13.577368520200006"><ele>894.0</ele><time>2026-04-05T11:06:37.999Z</time></trkpt><trkpt lat="42.743010000523405" lon="13.577500139000213"><ele>894.0</ele><time>2026-04-05T11:06:38.999Z</time></trkpt><trkpt lat="42.742976214132675" lon="13.577624708193445"><ele>894.0</ele><time>2026-04-05T11:06:39.999Z</time></trkpt><trkpt lat="42.74296320333086" lon="13.577761247025649"><ele>894.0</ele><time>2026-04-05T11:06:40.999Z</time></trkpt><trkpt lat="42.74297673112556" lon="13.577921573878792"><ele>894.0</ele><time>2026-04-05T11:06:41.999Z</time></trkpt><trkpt lat="42.743018819881065" lon="13.578099719356063"><ele>894.0</ele><time>2026-04-05T11:06:42.999Z</time></trkpt><trkpt lat="42.7430843234332" lon="13.578294528119121"><ele>892.5</ele><time>2026-04-05T11:06:43.999Z</time></trkpt><trkpt lat="42.74315623502005" lon="13.578489029193408"><ele>891.0</ele><time>2026-04-05T11:06:44.999Z</time></trkpt><trkpt lat="42.743202078693166" lon="13.578665754147769"><ele>889.5</ele><time>2026-04-05T11:06:45.999Z</time></trkpt><trkpt lat="42.74322956757273" lon="13.57882142155546"><ele>888.0</ele><time>2026-04-05T11:06:46.999Z</time></trkpt><trkpt lat="42.74324688587911" lon="13.578956897251157"><ele>886.8333333333334</ele><time>2026-04-05T11:06:47.999Z</time></trkpt><trkpt lat="42.74325394131099" lon="13.579074406389694"><ele>885.6666666666667</ele><time>2026-04-05T11:06:48.999Z</time></trkpt><trkpt lat="42.74325285515593" lon="13.57916872440681"><ele>884.5</ele><time>2026-04-05T11:06:49.999Z</time></trkpt><trkpt lat="42.743215927789606" lon="13.579303562407603"><ele>883.3333333333334</ele><time>2026-04-05T11:06:51.999Z</time></trkpt><trkpt lat="42.743152274001" lon="13.579337402282386"><ele>882.1666666666667</ele><time>2026-04-05T11:06:52.999Z</time></trkpt><trkpt lat="42.743071898394156" lon="13.579321530505297"><ele>881.0</ele><time>2026-04-05T11:06:53.999Z</time></trkpt><trkpt lat="42.74299736855675" lon="13.579249156681994"><ele>881.0</ele><time>2026-04-05T11:06:54.999Z</time></trkpt><trkpt lat="42.74293600549114" lon="13.579127691086965"><ele>881.0</ele><time>2026-04-05T11:06:55.999Z</time></trkpt><trkpt lat="42.74287736602851" lon="13.5789772062842"><ele>881.0</ele><time>2026-04-05T11:06:56.999Z</time></trkpt><trkpt lat="42.74281382827235" lon="13.578806904980915"><ele>881.0</ele><time>2026-04-05T11:06:57.998Z</time></trkpt><trkpt lat="42.74273805889527" lon="13.578620333961863"><ele>877.0</ele><time>2026-04-05T11:06:58.998Z</time></trkpt><trkpt lat="42.74265198904885" lon="13.578425522968978"><ele>873.0</ele><time>2026-04-05T11:06:59.998Z</time></trkpt><trkpt lat="42.742565121841004" lon="13.578235171406519"><ele>869.0</ele><time>2026-04-05T11:07:00.998Z</time></trkpt><trkpt lat="42.742482191100336" lon="13.578064286024883"><ele>869.0</ele><time>2026-04-05T11:07:01.998Z</time></trkpt><trkpt lat="42.74240432900614" lon="13.577893349730898"><ele>869.0</ele><time>2026-04-05T11:07:02.998Z</time></trkpt><trkpt lat="42.74232511083346" lon="13.577703816829274"><ele>869.0</ele><time>2026-04-05T11:07:03.998Z</time></trkpt><trkpt lat="42.74224219981236" lon="13.577500410116706"><ele>869.25</ele><time>2026-04-05T11:07:04.999Z</time></trkpt><trkpt lat="42.742185141920395" lon="13.577321710940982"><ele>869.5</ele><time>2026-04-05T11:07:05.999Z</time></trkpt><trkpt lat="42.74214800489592" lon="13.577130256966635"><ele>869.75</ele><time>2026-04-05T11:07:06.999Z</time></trkpt><trkpt lat="42.742134167608164" lon="13.576966330132377"><ele>870.0</ele><time>2026-04-05T11:07:07.999Z</time></trkpt><trkpt lat="42.74213212058993" lon="13.576841919400987"><ele>870.0</ele><time>2026-04-05T11:07:08.999Z</time></trkpt><trkpt lat="42.74214677437693" lon="13.576718825202931"><ele>870.0</ele><time>2026-04-05T11:07:09.999Z</time></trkpt><trkpt lat="42.74221516184852" lon="13.576601283134336"><ele>870.0</ele><time>2026-04-05T11:07:10.999Z</time></trkpt><trkpt lat="42.742289015178905" lon="13.576451010184899"><ele>870.0</ele><time>2026-04-05T11:07:11.999Z</time></trkpt><trkpt lat="42.742368054197094" lon="13.57631797490807"><ele>868.8</ele><time>2026-04-05T11:07:12.999Z</time></trkpt><trkpt lat="42.742404615320964" lon="13.576184249918054"><ele>867.6</ele><time>2026-04-05T11:07:13.999Z</time></trkpt><trkpt lat="42.74241080664762" lon="13.576044037353203"><ele>866.4000000000001</ele><time>2026-04-05T11:07:14.999Z</time></trkpt><trkpt lat="42.74239864164509" lon="13.575906606610545"><ele>865.2</ele><time>2026-04-05T11:07:15.999Z</time></trkpt><trkpt lat="42.74236420660559" lon="13.575775328378173"><ele>864.0</ele><time>2026-04-05T11:07:16.999Z</time></trkpt><trkpt lat="42.742296548545255" lon="13.575666522971224"><ele>864.0</ele><time>2026-04-05T11:07:17.999Z</time></trkpt><trkpt lat="42.742200426822095" lon="13.575563563254459"><ele>864.0</ele><time>2026-04-05T11:07:18.999Z</time></trkpt><trkpt lat="42.742118240387796" lon="13.575446942965868"><ele>864.0</ele><time>2026-04-05T11:07:19.999Z</time></trkpt><trkpt lat="42.74207418672727" lon="13.575294613426118"><ele>864.0</ele><time>2026-04-05T11:07:20.999Z</time></trkpt><trkpt lat="42.74205480805766" lon="13.575095836898633"><ele>865.75</ele><time>2026-04-05T11:07:21.999Z</time></trkpt><trkpt lat="42.742026926889096" lon="13.574884576653957"><ele>867.5</ele><time>2026-04-05T11:07:22.999Z</time></trkpt><trkpt lat="42.74199225890732" lon="13.574696524575801"><ele>869.25</ele><time>2026-04-05T11:07:23.999Z</time></trkpt><trkpt lat="42.741940398346316" lon="13.57453504442215"><ele>871.0</ele><time>2026-04-05T11:07:24.999Z</time></trkpt><trkpt lat="42.74185571736603" lon="13.574373038181038"><ele>865.3333333333333</ele><time>2026-04-05T11:07:25.999Z</time></trkpt><trkpt lat="42.74173764833239" lon="13.574208924844097"><ele>859.6666666666667</ele><time>2026-04-05T11:07:26.999Z</time></trkpt><trkpt lat="42.74162756690708" lon="13.574045463597244"><ele>854.0</ele><time>2026-04-05T11:07:28Z</time></trkpt><trkpt lat="42.74154574160074" lon="13.573913528947898"><ele>854.0</ele><time>2026-04-05T11:07:29Z</time></trkpt><trkpt lat="42.741507333605824" lon="13.573794327738728"><ele>854.0000000000001</ele><time>2026-04-05T11:07:30Z</time></trkpt><trkpt lat="42.74151146606694" lon="13.573655828866558"><ele>854.0000000000001</ele><time>2026-04-05T11:07:31Z</time></trkpt><trkpt lat="42.7415403687301" lon="13.573508741644408"><ele>854.0</ele><time>2026-04-05T11:07:32Z</time></trkpt><trkpt lat="42.74155934754879" lon="13.573369792680216"><ele>854.0</ele><time>2026-04-05T11:07:33Z</time></trkpt><trkpt lat="42.741545263616885" lon="13.573278119233397"><ele>855.0</ele><time>2026-04-05T11:07:34Z</time></trkpt><trkpt lat="42.74150422057582" lon="13.573134376702823"><ele>856.0000000000001</ele><time>2026-04-05T11:07:36Z</time></trkpt><trkpt lat="42.7414100483849" lon="13.573140422325704"><ele>857.0000000000001</ele><time>2026-04-05T11:07:37Z</time></trkpt><trkpt lat="42.74135857995087" lon="13.573214075255565"><ele>858.0</ele><time>2026-04-05T11:07:38Z</time></trkpt><trkpt lat="42.74133482388038" lon="13.573327808481467"><ele>859.0</ele><time>2026-04-05T11:07:39Z</time></trkpt><trkpt lat="42.7412962160249" lon="13.573455376808077"><ele>859.0</ele><time>2026-04-05T11:07:40Z</time></trkpt><trkpt lat="42.74126146101502" lon="13.573595197579433"><ele>859.0</ele><time>2026-04-05T11:07:41Z</time></trkpt><trkpt lat="42.7412272649821" lon="13.57373900850654"><ele>859.0</ele><time>2026-04-05T11:07:42Z</time></trkpt><trkpt lat="42.74117678745836" lon="13.573965016485792"><ele>859.0</ele><time>2026-04-05T11:07:43Z</time></trkpt><trkpt lat="42.74114506767909" lon="13.574196539453908"><ele>857.75</ele><time>2026-04-05T11:07:44Z</time></trkpt><trkpt lat="42.74109672393372" lon="13.574405742662734"><ele>856.5</ele><time>2026-04-05T11:07:45Z</time></trkpt><trkpt lat="42.74105827775354" lon="13.574573271914769"><ele>855.25</ele><time>2026-04-05T11:07:46Z</time></trkpt><trkpt lat="42.741028821460944" lon="13.574714803798868"><ele>854.0</ele><time>2026-04-05T11:07:47Z</time></trkpt><trkpt lat="42.7410252883778" lon="13.574869531679788"><ele>857.0</ele><time>2026-04-05T11:07:48Z</time></trkpt><trkpt lat="42.741029039217935" lon="13.575042129310837"><ele>860.0</ele><time>2026-04-05T11:07:49Z</time></trkpt><trkpt lat="42.74102947639857" lon="13.575223590756808"><ele>863.0</ele><time>2026-04-05T11:07:50Z</time></trkpt><trkpt lat="42.74101510331115" lon="13.57539345794981"><ele>866.0</ele><time>2026-04-05T11:07:51Z</time></trkpt><trkpt lat="42.74093050376442" lon="13.575539261349878"><ele>866.0</ele><time>2026-04-05T11:07:52Z</time></trkpt><trkpt lat="42.74087885615034" lon="13.575705539801247"><ele>866.0</ele><time>2026-04-05T11:07:53Z</time></trkpt><trkpt lat="42.74085180913734" lon="13.575897012666378"><ele>866.0</ele><time>2026-04-05T11:07:54Z</time></trkpt><trkpt lat="42.74084003896338" lon="13.57610781777016"><ele>866.0</ele><time>2026-04-05T11:07:55Z</time></trkpt><trkpt lat="42.74082963568836" lon="13.576347695661347"><ele>864.0</ele><time>2026-04-05T11:07:56Z</time></trkpt><trkpt lat="42.740780060283484" lon="13.57658970421151"><ele>862.0</ele><time>2026-04-05T11:07:57Z</time></trkpt><trkpt lat="42.740734933152346" lon="13.576862572005782"><ele>860.0</ele><time>2026-04-05T11:07:58Z</time></trkpt><trkpt lat="42.740681300767704" lon="13.577150928394085"><ele>858.3333333333334</ele><time>2026-04-05T11:07:59Z</time></trkpt><trkpt lat="42.740634441760925" lon="13.577415010692153"><ele>856.6666666666667</ele><time>2026-04-05T11:08:00Z</time></trkpt><trkpt lat="42.740616225792486" lon="13.577634541792445"><ele>855.0</ele><time>2026-04-05T11:08:01Z</time></trkpt><trkpt lat="42.740586483689626" lon="13.577820356780379"><ele>853.75</ele><time>2026-04-05T11:08:02Z</time></trkpt><trkpt lat="42.740576922746634" lon="13.577995008859663"><ele>852.5</ele><time>2026-04-05T11:08:03Z</time></trkpt><trkpt lat="42.74057986314513" lon="13.578180235818333"><ele>851.25</ele><time>2026-04-05T11:08:04Z</time></trkpt><trkpt lat="42.740604953161835" lon="13.578397261822406"><ele>850.0</ele><time>2026-04-05T11:08:05Z</time></trkpt><trkpt lat="42.74064716752987" lon="13.578642705954215"><ele>848.75</ele><time>2026-04-05T11:08:06Z</time></trkpt><trkpt lat="42.740699340359235" lon="13.578872249188262"><ele>847.5</ele><time>2026-04-05T11:08:07Z</time></trkpt><trkpt lat="42.74072001560979" lon="13.579063408173923"><ele>846.25</ele><time>2026-04-05T11:08:08Z</time></trkpt><trkpt lat="42.74072094871902" lon="13.579197632394454"><ele>845.0</ele><time>2026-04-05T11:08:09Z</time></trkpt><trkpt lat="42.74069678565458" lon="13.579331320922138"><ele>845.0</ele><time>2026-04-05T11:08:10Z</time></trkpt><trkpt lat="42.74063006046727" lon="13.57945456304652"><ele>845.0</ele><time>2026-04-05T11:08:11Z</time></trkpt><trkpt lat="42.74054900491098" lon="13.579587337457095"><ele>845.0</ele><time>2026-04-05T11:08:12Z</time></trkpt><trkpt lat="42.74050828795046" lon="13.579713422768432"><ele>845.0</ele><time>2026-04-05T11:08:13Z</time></trkpt><trkpt lat="42.74046633151845" lon="13.579831616949226"><ele>845.0</ele><time>2026-04-05T11:08:14Z</time></trkpt><trkpt lat="42.74046779957117" lon="13.57996339236502"><ele>845.25</ele><time>2026-04-05T11:08:15Z</time></trkpt><trkpt lat="42.740507898990735" lon="13.580086863862611"><ele>845.5</ele><time>2026-04-05T11:08:16Z</time></trkpt><trkpt lat="42.74058396307427" lon="13.580192011729311"><ele>845.75</ele><time>2026-04-05T11:08:17Z</time></trkpt><trkpt lat="42.74069211517481" lon="13.58028635274345"><ele>846.0</ele><time>2026-04-05T11:08:18Z</time></trkpt><trkpt lat="42.740765418045854" lon="13.580426515604268"><ele>846.0</ele><time>2026-04-05T11:08:19Z</time></trkpt><trkpt lat="42.7408202022327" lon="13.580616169625685"><ele>846.0</ele><time>2026-04-05T11:08:20Z</time></trkpt><trkpt lat="42.740871446152944" lon="13.580813430354844"><ele>846.0</ele><time>2026-04-05T11:08:21Z</time></trkpt><trkpt lat="42.74089831849615" lon="13.580960713790379"><ele>846.0</ele><time>2026-04-05T11:08:22Z</time></trkpt><trkpt lat="42.74089166154575" lon="13.58108189993025"><ele>844.75</ele><time>2026-04-05T11:08:23Z</time></trkpt><trkpt lat="42.74084699079653" lon="13.581217703286868"><ele>843.5</ele><time>2026-04-05T11:08:24Z</time></trkpt><trkpt lat="42.74078019281261" lon="13.581376349645863"><ele>842.25</ele><time>2026-04-05T11:08:25Z</time></trkpt><trkpt lat="42.740710117172405" lon="13.581546972900814"><ele>841.0</ele><time>2026-04-05T11:08:26Z</time></trkpt><trkpt lat="42.740681559190335" lon="13.581683168447153"><ele>841.0</ele><time>2026-04-05T11:08:27Z</time></trkpt><trkpt lat="42.74066072196462" lon="13.58181002271747"><ele>841.0</ele><time>2026-04-05T11:08:28Z</time></trkpt><trkpt lat="42.74068154660575" lon="13.581965446829457"><ele>841.0</ele><time>2026-04-05T11:08:29Z</time></trkpt><trkpt lat="42.74072863832228" lon="13.582145720836923"><ele>841.0</ele><time>2026-04-05T11:08:30Z</time></trkpt><trkpt lat="42.74079682430688" lon="13.582349409945111"><ele>839.0</ele><time>2026-04-05T11:08:31Z</time></trkpt><trkpt lat="42.74089545022153" lon="13.58253705309228"><ele>837.0</ele><time>2026-04-05T11:08:32Z</time></trkpt><trkpt lat="42.741007502200276" lon="13.582724628381424"><ele>835.0</ele><time>2026-04-05T11:08:33Z</time></trkpt><trkpt lat="42.74110863602774" lon="13.5828962163355"><ele>831.6</ele><time>2026-04-05T11:08:34Z</time></trkpt><trkpt lat="42.741197602329734" lon="13.583033417096178"><ele>828.2</ele><time>2026-04-05T11:08:35Z</time></trkpt><trkpt lat="42.741262344265934" lon="13.583140279888713"><ele>824.8</ele><time>2026-04-05T11:08:36Z</time></trkpt><trkpt lat="42.74131084842425" lon="13.5832192367683"><ele>821.4</ele><time>2026-04-05T11:08:37Z</time></trkpt><trkpt lat="42.74129950789248" lon="13.58331904961209"><ele>818.0</ele><time>2026-04-05T11:08:38Z</time></trkpt><trkpt lat="42.74124704652982" lon="13.583425165964938"><ele>818.0</ele><time>2026-04-05T11:08:39Z</time></trkpt><trkpt lat="42.741149175831644" lon="13.583506855667613"><ele>818.0</ele><time>2026-04-05T11:08:40Z</time></trkpt><trkpt lat="42.74102511402746" lon="13.583538544058447"><ele>818.0</ele><time>2026-04-05T11:08:41Z</time></trkpt><trkpt lat="42.74086684397188" lon="13.583547515973434"><ele>818.0</ele><time>2026-04-05T11:08:42Z</time></trkpt><trkpt lat="42.74068843748252" lon="13.583566489243044"><ele>821.0</ele><time>2026-04-05T11:08:43Z</time></trkpt><trkpt lat="42.740502115440634" lon="13.583601427059705"><ele>824.0</ele><time>2026-04-05T11:08:44Z</time></trkpt><trkpt lat="42.74032516143022" lon="13.583654679274321"><ele>827.0</ele><time>2026-04-05T11:08:45Z</time></trkpt><trkpt lat="42.74017756752777" lon="13.583708768415379"><ele>827.0</ele><time>2026-04-05T11:08:46Z</time></trkpt><trkpt lat="42.740057525446616" lon="13.583750665496748"><ele>827.0</ele><time>2026-04-05T11:08:47Z</time></trkpt><trkpt lat="42.739968437207004" lon="13.583784538038072"><ele>827.0</ele><time>2026-04-05T11:08:48Z</time></trkpt><trkpt lat="42.73990467383682" lon="13.58383702362463"><ele>827.0</ele><time>2026-04-05T11:08:49Z</time></trkpt><trkpt lat="42.739846132741256" lon="13.583918479021582"><ele>827.0</ele><time>2026-04-05T11:08:50Z</time></trkpt><trkpt lat="42.73984047138042" lon="13.584084960530374"><ele>827.0</ele><time>2026-04-05T11:08:51Z</time></trkpt><trkpt lat="42.739829989065" lon="13.58425167400545"><ele>827.0</ele><time>2026-04-05T11:08:52Z</time></trkpt><trkpt lat="42.7398240963629" lon="13.584384968138885"><ele>827.0</ele><time>2026-04-05T11:08:53Z</time></trkpt><trkpt lat="42.73981564769607" lon="13.584489713903798"><ele>827.0</ele><time>2026-04-05T11:08:54Z</time></trkpt><trkpt lat="42.739866923282534" lon="13.58460522006573"><ele>827.0</ele><time>2026-04-05T11:08:55Z</time></trkpt><trkpt lat="42.73997768012218" lon="13.58466842465382"><ele>830.25</ele><time>2026-04-05T11:08:56Z</time></trkpt><trkpt lat="42.74010752952513" lon="13.584650567197368"><ele>833.5</ele><time>2026-04-05T11:08:57Z</time></trkpt><trkpt lat="42.740246060131284" lon="13.58466177329193"><ele>836.75</ele><time>2026-04-05T11:08:58Z</time></trkpt><trkpt lat="42.74039794226848" lon="13.584672418797012"><ele>840.0</ele><time>2026-04-05T11:08:59Z</time></trkpt><trkpt lat="42.74056021694032" lon="13.584685982044222"><ele>840.0</ele><time>2026-04-05T11:09:00Z</time></trkpt><trkpt lat="42.74070822438912" lon="13.584697126669885"><ele>840.0</ele><time>2026-04-05T11:09:01Z</time></trkpt><trkpt lat="42.7408288021416" lon="13.584717099150376"><ele>840.0</ele><time>2026-04-05T11:09:02Z</time></trkpt><trkpt lat="42.7409324961262" lon="13.584801215820775"><ele>840.0</ele><time>2026-04-05T11:09:03Z</time></trkpt><trkpt lat="42.741046156433335" lon="13.58490364918847"><ele>838.3333333333333</ele><time>2026-04-05T11:09:04Z</time></trkpt><trkpt lat="42.74117493829436" lon="13.585000455721989"><ele>836.6666666666666</ele><time>2026-04-05T11:09:05Z</time></trkpt><trkpt lat="42.74130573744257" lon="13.58508498444564"><ele>835.0</ele><time>2026-04-05T11:09:06Z</time></trkpt><trkpt lat="42.74146695666206" lon="13.585118892327973"><ele>835.0</ele><time>2026-04-05T11:09:07Z</time></trkpt><trkpt lat="42.74164660826985" lon="13.585135582771096"><ele>835.0</ele><time>2026-04-05T11:09:08Z</time></trkpt><trkpt lat="42.74181986249746" lon="13.585158939268196"><ele>835.0</ele><time>2026-04-05T11:09:09Z</time></trkpt><trkpt lat="42.74197675195545" lon="13.585238074870892"><ele>832.0</ele><time>2026-04-05T11:09:10Z</time></trkpt><trkpt lat="42.74213774838356" lon="13.585324999114546"><ele>829.0</ele><time>2026-04-05T11:09:11Z</time></trkpt><trkpt lat="42.74228893823749" lon="13.585404381165613"><ele>826.0</ele><time>2026-04-05T11:09:12Z</time></trkpt><trkpt lat="42.74242425863549" lon="13.585454435166863"><ele>829.1666666666666</ele><time>2026-04-05T11:09:13Z</time></trkpt><trkpt lat="42.74249652360583" lon="13.585521137006358"><ele>832.3333333333333</ele><time>2026-04-05T11:09:14Z</time></trkpt><trkpt lat="42.74255215346476" lon="13.585563045842607"><ele>835.5</ele><time>2026-04-05T11:09:15Z</time></trkpt><trkpt lat="42.74258126158365" lon="13.585695870307845"><ele>838.6666666666667</ele><time>2026-04-05T11:09:17Z</time></trkpt><trkpt lat="42.74253679764171" lon="13.585765198518054"><ele>841.8333333333334</ele><time>2026-04-05T11:09:18Z</time></trkpt><trkpt lat="42.74245483705156" lon="13.5857836801973"><ele>845.0</ele><time>2026-04-05T11:09:19Z</time></trkpt><trkpt lat="42.74235703294454" lon="13.585752895800727"><ele>845.0</ele><time>2026-04-05T11:09:20Z</time></trkpt><trkpt lat="42.742235475109844" lon="13.585703273321778"><ele>845.0</ele><time>2026-04-05T11:09:21Z</time></trkpt><trkpt lat="42.7420960927944" lon="13.585677381112667"><ele>845.0</ele><time>2026-04-05T11:09:22Z</time></trkpt><trkpt lat="42.74194445825929" lon="13.585683495892015"><ele>845.0</ele><time>2026-04-05T11:09:23Z</time></trkpt><trkpt lat="42.74177379102433" lon="13.585699257678383"><ele>849.3333333333334</ele><time>2026-04-05T11:09:24Z</time></trkpt><trkpt lat="42.74158351805111" lon="13.585729048005966"><ele>853.6666666666667</ele><time>2026-04-05T11:09:25Z</time></trkpt><trkpt lat="42.74138736425364" lon="13.585742081925558"><ele>858.0</ele><time>2026-04-05T11:09:26Z</time></trkpt><trkpt lat="42.7411788663066" lon="13.585728036297722"><ele>860.3333333333333</ele><time>2026-04-05T11:09:27Z</time></trkpt><trkpt lat="42.74096076554941" lon="13.585718854674349"><ele>862.6666666666666</ele><time>2026-04-05T11:09:28Z</time></trkpt><trkpt lat="42.74074479801021" lon="13.58571900250251"><ele>865.0</ele><time>2026-04-05T11:09:29Z</time></trkpt><trkpt lat="42.74054932577339" lon="13.585715439418689"><ele>865.0</ele><time>2026-04-05T11:09:30Z</time></trkpt><trkpt lat="42.740384406896" lon="13.585703323977887"><ele>865.0</ele><time>2026-04-05T11:09:31Z</time></trkpt><trkpt lat="42.74024744104106" lon="13.585689443749592"><ele>865.0</ele><time>2026-04-05T11:09:32Z</time></trkpt><trkpt lat="42.740156251775616" lon="13.585679681838156"><ele>865.0</ele><time>2026-04-05T11:09:33Z</time></trkpt><trkpt lat="42.74005141770201" lon="13.5857236353316"><ele>865.0</ele><time>2026-04-05T11:09:35Z</time></trkpt><trkpt lat="42.740021571838064" lon="13.585813019305174"><ele>865.0</ele><time>2026-04-05T11:09:36Z</time></trkpt><trkpt lat="42.740017223538445" lon="13.585912539927033"><ele>865.0</ele><time>2026-04-05T11:09:37Z</time></trkpt><trkpt lat="42.740071049842314" lon="13.58601958848174"><ele>865.0</ele><time>2026-04-05T11:09:38Z</time></trkpt><trkpt lat="42.740187431305465" lon="13.58605274147705"><ele>865.0</ele><time>2026-04-05T11:09:39Z</time></trkpt><trkpt lat="42.74030531535652" lon="13.586010490205588"><ele>865.0</ele><time>2026-04-05T11:09:40Z</time></trkpt><trkpt lat="42.74043045995467" lon="13.585985331808715"><ele>865.0</ele><time>2026-04-05T11:09:41Z</time></trkpt><trkpt lat="42.74056078461053" lon="13.586010306073083"><ele>865.0</ele><time>2026-04-05T11:09:42Z</time></trkpt><trkpt lat="42.74068587057505" lon="13.586057436733501"><ele>865.0</ele><time>2026-04-05T11:09:43Z</time></trkpt><trkpt lat="42.740815991016945" lon="13.586119428942514"><ele>870.0</ele><time>2026-04-05T11:09:44Z</time></trkpt><trkpt lat="42.740955902220115" lon="13.586188020815598"><ele>875.0</ele><time>2026-04-05T11:09:45Z</time></trkpt><trkpt lat="42.74110960551181" lon="13.586264034512642"><ele>880.0</ele><time>2026-04-05T11:09:46Z</time></trkpt><trkpt lat="42.741262557584086" lon="13.58633923858852"><ele>880.0</ele><time>2026-04-05T11:09:47Z</time></trkpt><trkpt lat="42.7414169689952" lon="13.586413354568666"><ele>880.0</ele><time>2026-04-05T11:09:48Z</time></trkpt><trkpt lat="42.7415433188338" lon="13.58648503130402"><ele>880.0</ele><time>2026-04-05T11:09:49Z</time></trkpt><trkpt lat="42.741633773939846" lon="13.586557639359134"><ele>880.0</ele><time>2026-04-05T11:09:50Z</time></trkpt><trkpt lat="42.74170411682316" lon="13.586655432299773"><ele>880.0</ele><time>2026-04-05T11:09:51Z</time></trkpt><trkpt lat="42.74175809632466" lon="13.586785695448262"><ele>880.0</ele><time>2026-04-05T11:09:52Z</time></trkpt><trkpt lat="42.74179056339894" lon="13.58692106833277"><ele>880.0</ele><time>2026-04-05T11:09:53Z</time></trkpt><trkpt lat="42.74180527060418" lon="13.587052944801798"><ele>880.0</ele><time>2026-04-05T11:09:54Z</time></trkpt><trkpt lat="42.741772998708505" lon="13.587194615975678"><ele>880.0</ele><time>2026-04-05T11:09:55Z</time></trkpt><trkpt lat="42.741716398255484" lon="13.58734890435729"><ele>879.0</ele><time>2026-04-05T11:09:56Z</time></trkpt><trkpt lat="42.741631800707516" lon="13.587514703163993"><ele>878.0</ele><time>2026-04-05T11:09:57Z</time></trkpt><trkpt lat="42.74154400411593" lon="13.587695613107064"><ele>877.0</ele><time>2026-04-05T11:09:58Z</time></trkpt><trkpt lat="42.741450306091195" lon="13.58788822707218"><ele>877.0</ele><time>2026-04-05T11:09:59Z</time></trkpt><trkpt lat="42.74134439350708" lon="13.58809412640775"><ele>877.0</ele><time>2026-04-05T11:10:00Z</time></trkpt><trkpt lat="42.74123227738418" lon="13.588302861164747"><ele>877.0</ele><time>2026-04-05T11:10:01Z</time></trkpt><trkpt lat="42.7411340373724" lon="13.588476868867017"><ele>877.0</ele><time>2026-04-05T11:10:02Z</time></trkpt><trkpt lat="42.74105539323054" lon="13.588621127319199"><ele>877.0</ele><time>2026-04-05T11:10:03Z</time></trkpt><trkpt lat="42.741002663857735" lon="13.58875824403595"><ele>877.0</ele><time>2026-04-05T11:10:04Z</time></trkpt><trkpt lat="42.740966716186854" lon="13.588908079707027"><ele>877.0</ele><time>2026-04-05T11:10:05Z</time></trkpt><trkpt lat="42.740932925787135" lon="13.589081917048834"><ele>883.25</ele><time>2026-04-05T11:10:06Z</time></trkpt><trkpt lat="42.74088453795258" lon="13.589271373014167"><ele>889.5</ele><time>2026-04-05T11:10:07Z</time></trkpt><trkpt lat="42.74084216298586" lon="13.589429182221338"><ele>895.75</ele><time>2026-04-05T11:10:08Z</time></trkpt><trkpt lat="42.740819973269346" lon="13.589554047658353"><ele>902.0</ele><time>2026-04-05T11:10:09Z</time></trkpt><trkpt lat="42.74082442245081" lon="13.58967584281954"><ele>902.6</ele><time>2026-04-05T11:10:10Z</time></trkpt><trkpt lat="42.74087059915145" lon="13.589793470591415"><ele>903.2</ele><time>2026-04-05T11:10:11Z</time></trkpt><trkpt lat="42.740932895015256" lon="13.58989456201161"><ele>903.8</ele><time>2026-04-05T11:10:12Z</time></trkpt><trkpt lat="42.74101866071039" lon="13.589971969389886"><ele>904.4</ele><time>2026-04-05T11:10:13Z</time></trkpt><trkpt lat="42.74110731943507" lon="13.590049569305961"><ele>905.0</ele><time>2026-04-05T11:10:14Z</time></trkpt><trkpt lat="42.741193379592445" lon="13.59014510295686"><ele>907.0</ele><time>2026-04-05T11:10:15Z</time></trkpt><trkpt lat="42.74128235470469" lon="13.59022917866701"><ele>909.0</ele><time>2026-04-05T11:10:16Z</time></trkpt><trkpt lat="42.741367540693986" lon="13.590323052697297"><ele>911.0</ele><time>2026-04-05T11:10:17Z</time></trkpt><trkpt lat="42.74146485909644" lon="13.59040521287684"><ele>913.0</ele><time>2026-04-05T11:10:18Z</time></trkpt><trkpt lat="42.741564414947966" lon="13.59048491367934"><ele>915.0</ele><time>2026-04-05T11:10:19Z</time></trkpt><trkpt lat="42.74165960277341" lon="13.590541122250661"><ele>915.0</ele><time>2026-04-05T11:10:20Z</time></trkpt><trkpt lat="42.741762289532865" lon="13.590563333488276"><ele>915.0</ele><time>2026-04-05T11:10:21Z</time></trkpt><trkpt lat="42.74188806568188" lon="13.590555994733286"><ele>915.0</ele><time>2026-04-05T11:10:22Z</time></trkpt><trkpt lat="42.74203258716593" lon="13.590536601674915"><ele>915.0</ele><time>2026-04-05T11:10:23Z</time></trkpt><trkpt lat="42.74219791131657" lon="13.590510582912005"><ele>914.6666666666667</ele><time>2026-04-05T11:10:24Z</time></trkpt><trkpt lat="42.74236672701067" lon="13.590480095410197"><ele>914.3333333333334</ele><time>2026-04-05T11:10:25Z</time></trkpt><trkpt lat="42.742507176374154" lon="13.590441297341155"><ele>914.0</ele><time>2026-04-05T11:10:26Z</time></trkpt><trkpt lat="42.74264410886797" lon="13.590409908023535"><ele>906.6666666666667</ele><time>2026-04-05T11:10:27Z</time></trkpt><trkpt lat="42.74271701851376" lon="13.590397298964454"><ele>899.3333333333334</ele><time>2026-04-05T11:10:28Z</time></trkpt><trkpt lat="42.74282059876055" lon="13.59044657504397"><ele>892.0</ele><time>2026-04-05T11:10:30Z</time></trkpt><trkpt lat="42.74283729793783" lon="13.590537137750987"><ele>884.6666666666667</ele><time>2026-04-05T11:10:31Z</time></trkpt><trkpt lat="42.74282870516994" lon="13.590632116357586"><ele>877.3333333333334</ele><time>2026-04-05T11:10:32Z</time></trkpt><trkpt lat="42.74275817478431" lon="13.590739236923065"><ele>870.0</ele><time>2026-04-05T11:10:33Z</time></trkpt><trkpt lat="42.742727310012185" lon="13.590896228863953"><ele>870.0</ele><time>2026-04-05T11:10:34Z</time></trkpt><trkpt lat="42.74273177911233" lon="13.591082760772169"><ele>870.0</ele><time>2026-04-05T11:10:35Z</time></trkpt><trkpt lat="42.74270589826062" lon="13.591270507848831"><ele>870.0</ele><time>2026-04-05T11:10:36Z</time></trkpt><trkpt lat="42.74269278844655" lon="13.59146417838827"><ele>870.0</ele><time>2026-04-05T11:10:37Z</time></trkpt><trkpt lat="42.74268030659666" lon="13.591659446197479"><ele>871.0</ele><time>2026-04-05T11:10:38Z</time></trkpt><trkpt lat="42.74268569511483" lon="13.591818007681685"><ele>872.0</ele><time>2026-04-05T11:10:39Z</time></trkpt><trkpt lat="42.742682872501206" lon="13.59196760413835"><ele>873.0</ele><time>2026-04-05T11:10:40Z</time></trkpt><trkpt lat="42.742695402893226" lon="13.592126210902702"><ele>874.0</ele><time>2026-04-05T11:10:41Z</time></trkpt><trkpt lat="42.742757058362066" lon="13.592285676127615"><ele>874.0</ele><time>2026-04-05T11:10:42Z</time></trkpt><trkpt lat="42.74284562966882" lon="13.592406825682431"><ele>874.0000000000001</ele><time>2026-04-05T11:10:43Z</time></trkpt><trkpt lat="42.74290757708771" lon="13.592516811639529"><ele>874.0000000000001</ele><time>2026-04-05T11:10:44Z</time></trkpt><trkpt lat="42.742947824004084" lon="13.592636613960634"><ele>874.0</ele><time>2026-04-05T11:10:45Z</time></trkpt><trkpt lat="42.742929448850745" lon="13.59279945254411"><ele>874.0</ele><time>2026-04-05T11:10:46Z</time></trkpt><trkpt lat="42.74293359566563" lon="13.592984913645955"><ele>875.0</ele><time>2026-04-05T11:10:47Z</time></trkpt><trkpt lat="42.74296347537774" lon="13.59317895102053"><ele>876.0000000000001</ele><time>2026-04-05T11:10:48Z</time></trkpt><trkpt lat="42.743021776370426" lon="13.59332771954613"><ele>877.0000000000001</ele><time>2026-04-05T11:10:49Z</time></trkpt><trkpt lat="42.74305243830947" lon="13.59345135368911"><ele>878.0</ele><time>2026-04-05T11:10:50Z</time></trkpt><trkpt lat="42.74305844975222" lon="13.593555256245821"><ele>879.0</ele><time>2026-04-05T11:10:51Z</time></trkpt><trkpt lat="42.74300098113501" lon="13.593657047715544"><ele>880.75</ele><time>2026-04-05T11:10:52Z</time></trkpt><trkpt lat="42.74295365054324" lon="13.593793884945038"><ele>882.5</ele><time>2026-04-05T11:10:53Z</time></trkpt><trkpt lat="42.74288774663471" lon="13.593915036296472"><ele>884.25</ele><time>2026-04-05T11:10:54Z</time></trkpt><trkpt lat="42.742853031078035" lon="13.594104492131319"><ele>886.0</ele><time>2026-04-05T11:10:55Z</time></trkpt><trkpt lat="42.74286898635607" lon="13.594304731861955"><ele>886.0</ele><time>2026-04-05T11:10:56Z</time></trkpt><trkpt lat="42.742865561921384" lon="13.594464456274588"><ele>885.9999999999999</ele><time>2026-04-05T11:10:57Z</time></trkpt><trkpt lat="42.74284118416358" lon="13.594577303559184"><ele>885.9999999999999</ele><time>2026-04-05T11:10:58Z</time></trkpt><trkpt lat="42.742778840056545" lon="13.594658736865728"><ele>886.0</ele><time>2026-04-05T11:10:59Z</time></trkpt><trkpt lat="42.742669511960194" lon="13.594765622813595"><ele>886.0</ele><time>2026-04-05T11:11:00Z</time></trkpt><trkpt lat="42.74255031108259" lon="13.594904462009653"><ele>892.5</ele><time>2026-04-05T11:11:01Z</time></trkpt><trkpt lat="42.74243495635964" lon="13.595041378379547"><ele>899.0</ele><time>2026-04-05T11:11:02Z</time></trkpt><trkpt lat="42.74233461423847" lon="13.595143736545793"><ele>905.5</ele><time>2026-04-05T11:11:03Z</time></trkpt><trkpt lat="42.742236500820255" lon="13.59517404990378"><ele>912.0</ele><time>2026-04-05T11:11:04Z</time></trkpt><trkpt lat="42.74210507828405" lon="13.595180059728065"><ele>912.0</ele><time>2026-04-05T11:11:05Z</time></trkpt><trkpt lat="42.741963956418026" lon="13.595229071978286"><ele>912.0</ele><time>2026-04-05T11:11:06Z</time></trkpt><trkpt lat="42.741845328935824" lon="13.595272364769839"><ele>912.0</ele><time>2026-04-05T11:11:07Z</time></trkpt><trkpt lat="42.74172732519678" lon="13.59539210252162"><ele>912.0</ele><time>2026-04-05T11:11:08Z</time></trkpt><trkpt lat="42.74161375902172" lon="13.59553704156382"><ele>908.0</ele><time>2026-04-05T11:11:09Z</time></trkpt><trkpt lat="42.74146882258828" lon="13.59561252042451"><ele>904.0</ele><time>2026-04-05T11:11:10.001Z</time></trkpt><trkpt lat="42.741325032186104" lon="13.595643571238963"><ele>900.0</ele><time>2026-04-05T11:11:11.001Z</time></trkpt><trkpt lat="42.74117222824383" lon="13.595699146248863"><ele>900.0</ele><time>2026-04-05T11:11:12.001Z</time></trkpt><trkpt lat="42.741057128732855" lon="13.59576334820964"><ele>900.0</ele><time>2026-04-05T11:11:13.001Z</time></trkpt><trkpt lat="42.74094082852582" lon="13.595884531794855"><ele>900.0</ele><time>2026-04-05T11:11:14.001Z</time></trkpt><trkpt lat="42.74083568822565" lon="13.5960410182934"><ele>900.0</ele><time>2026-04-05T11:11:15.001Z</time></trkpt><trkpt lat="42.74069118124311" lon="13.596224448173437"><ele>899.3333333333333</ele><time>2026-04-05T11:11:16.001Z</time></trkpt><trkpt lat="42.74055888472309" lon="13.596398801587124"><ele>898.6666666666666</ele><time>2026-04-05T11:11:17.001Z</time></trkpt><trkpt lat="42.74044935188202" lon="13.596567694990476"><ele>898.0</ele><time>2026-04-05T11:11:18.001Z</time></trkpt><trkpt lat="42.74033676573251" lon="13.596746244675655"><ele>896.6666666666666</ele><time>2026-04-05T11:11:19.001Z</time></trkpt><trkpt lat="42.74020498107138" lon="13.59696230283128"><ele>895.3333333333333</ele><time>2026-04-05T11:11:20.001Z</time></trkpt><trkpt lat="42.74008694313476" lon="13.597121392932236"><ele>894.0</ele><time>2026-04-05T11:11:21.001Z</time></trkpt><trkpt lat="42.73995828763024" lon="13.597237222337945"><ele>894.0</ele><time>2026-04-05T11:11:22.001Z</time></trkpt><trkpt lat="42.73980110146376" lon="13.597331413952741"><ele>894.0</ele><time>2026-04-05T11:11:23.001Z</time></trkpt><trkpt lat="42.7396309969556" lon="13.597413390440739"><ele>894.0</ele><time>2026-04-05T11:11:24.001Z</time></trkpt><trkpt lat="42.73945703549582" lon="13.59752194523232"><ele>898.4000000000001</ele><time>2026-04-05T11:11:25.001Z</time></trkpt><trkpt lat="42.73930688336064" lon="13.597592905825604"><ele>902.8000000000001</ele><time>2026-04-05T11:11:26.001Z</time></trkpt><trkpt lat="42.73919666260109" lon="13.597651387394885"><ele>907.1999999999999</ele><time>2026-04-05T11:11:27.001Z</time></trkpt><trkpt lat="42.7391247486261" lon="13.597704825983532"><ele>911.5999999999999</ele><time>2026-04-05T11:11:28.001Z</time></trkpt><trkpt lat="42.73907786146221" lon="13.597782309689071"><ele>916.0</ele><time>2026-04-05T11:11:29.001Z</time></trkpt><trkpt lat="42.73905570201689" lon="13.59789508926255"><ele>916.4</ele><time>2026-04-05T11:11:30.001Z</time></trkpt><trkpt lat="42.73907882247861" lon="13.59800460912472"><ele>916.8</ele><time>2026-04-05T11:11:31.001Z</time></trkpt><trkpt lat="42.73913996716673" lon="13.598116733683634"><ele>917.1999999999999</ele><time>2026-04-05T11:11:32.001Z</time></trkpt><trkpt lat="42.739235529349244" lon="13.598196777440375"><ele>917.5999999999999</ele><time>2026-04-05T11:11:33.001Z</time></trkpt><trkpt lat="42.73935598740197" lon="13.598242685574911"><ele>918.0</ele><time>2026-04-05T11:11:34.001Z</time></trkpt><trkpt lat="42.73950828567221" lon="13.598276796722985"><ele>911.0</ele><time>2026-04-05T11:11:35.001Z</time></trkpt><trkpt lat="42.73968105419897" lon="13.598347970317496"><ele>904.0</ele><time>2026-04-05T11:11:36.001Z</time></trkpt><trkpt lat="42.73985603225349" lon="13.598459494832174"><ele>897.0</ele><time>2026-04-05T11:11:37.001Z</time></trkpt><trkpt lat="42.74003573988298" lon="13.598582291925714"><ele>905.3333333333333</ele><time>2026-04-05T11:11:38.001Z</time></trkpt><trkpt lat="42.74021724025143" lon="13.59868022949535"><ele>913.6666666666666</ele><time>2026-04-05T11:11:39.001Z</time></trkpt><trkpt lat="42.74041647380199" lon="13.598733704063784"><ele>922.0</ele><time>2026-04-05T11:11:40.001Z</time></trkpt><trkpt lat="42.74063196434558" lon="13.59875156332791"><ele>922.0</ele><time>2026-04-05T11:11:41.001Z</time></trkpt><trkpt lat="42.74084388830044" lon="13.598795273686337"><ele>922.0</ele><time>2026-04-05T11:11:42.001Z</time></trkpt><trkpt lat="42.74101535433784" lon="13.598823698054508"><ele>922.0</ele><time>2026-04-05T11:11:43.001Z</time></trkpt><trkpt lat="42.74115063048494" lon="13.598850776871597"><ele>918.0</ele><time>2026-04-05T11:11:44.001Z</time></trkpt><trkpt lat="42.741255663605635" lon="13.598891244755205"><ele>914.0</ele><time>2026-04-05T11:11:45.001Z</time></trkpt><trkpt lat="42.741320901352594" lon="13.598969653196004"><ele>910.0</ele><time>2026-04-05T11:11:46.001Z</time></trkpt><trkpt lat="42.74133555813528" lon="13.599083614380996"><ele>906.0</ele><time>2026-04-05T11:11:47.001Z</time></trkpt><trkpt lat="42.74138040799733" lon="13.59919953792962"><ele>902.0</ele><time>2026-04-05T11:11:48.001Z</time></trkpt><trkpt lat="42.74144666165586" lon="13.599337566784001"><ele>902.0</ele><time>2026-04-05T11:11:49.001Z</time></trkpt><trkpt lat="42.741553519469356" lon="13.599444839374863"><ele>902.0</ele><time>2026-04-05T11:11:50.001Z</time></trkpt><trkpt lat="42.74167521332817" lon="13.599528865915099"><ele>902.0</ele><time>2026-04-05T11:11:51.001Z</time></trkpt><trkpt lat="42.74182706000455" lon="13.599587119954494"><ele>902.0</ele><time>2026-04-05T11:11:52.001Z</time></trkpt><trkpt lat="42.74199069789459" lon="13.599653251936145"><ele>903.2</ele><time>2026-04-05T11:11:53.001Z</time></trkpt><trkpt lat="42.74213109302406" lon="13.599726331599014"><ele>904.4000000000001</ele><time>2026-04-05T11:11:54.001Z</time></trkpt><trkpt lat="42.74222075628001" lon="13.599796174682023"><ele>905.5999999999999</ele><time>2026-04-05T11:11:55.001Z</time></trkpt><trkpt lat="42.742259734400896" lon="13.59990428416477"><ele>906.8</ele><time>2026-04-05T11:11:56.001Z</time></trkpt><trkpt lat="42.74227777683423" lon="13.600038004602824"><ele>908.0</ele><time>2026-04-05T11:11:57.001Z</time></trkpt><trkpt lat="42.74224448361904" lon="13.600172044365982"><ele>908.0</ele><time>2026-04-05T11:11:58.001Z</time></trkpt><trkpt lat="42.74218346230444" lon="13.600278365811985"><ele>908.0</ele><time>2026-04-05T11:11:59.001Z</time></trkpt><trkpt lat="42.74211125426258" lon="13.600437500758156"><ele>908.0</ele><time>2026-04-05T11:12:00.001Z</time></trkpt><trkpt lat="42.742027327311014" lon="13.600620028274264"><ele>908.0</ele><time>2026-04-05T11:12:01.001Z</time></trkpt><trkpt lat="42.74193419269709" lon="13.600822360965427"><ele>909.0</ele><time>2026-04-05T11:12:02.001Z</time></trkpt><trkpt lat="42.74183982574689" lon="13.60102383839277"><ele>910.0</ele><time>2026-04-05T11:12:03.001Z</time></trkpt><trkpt lat="42.741760319117226" lon="13.601254105988879"><ele>911.0</ele><time>2026-04-05T11:12:04.001Z</time></trkpt><trkpt lat="42.741674249129325" lon="13.601458697131461"><ele>911.0</ele><time>2026-04-05T11:12:05.001Z</time></trkpt><trkpt lat="42.741598548915775" lon="13.601660678590207"><ele>911.0</ele><time>2026-04-05T11:12:06.001Z</time></trkpt><trkpt lat="42.741535115372194" lon="13.601860130557121"><ele>911.0</ele><time>2026-04-05T11:12:07.001Z</time></trkpt><trkpt lat="42.741491623904025" lon="13.6020425398368"><ele>907.5</ele><time>2026-04-05T11:12:08.001Z</time></trkpt><trkpt lat="42.74145546618827" lon="13.602223949864241"><ele>904.0</ele><time>2026-04-05T11:12:09.001Z</time></trkpt><trkpt lat="42.74145477719426" lon="13.602402886953811"><ele>900.5</ele><time>2026-04-05T11:12:10.001Z</time></trkpt><trkpt lat="42.74144156442833" lon="13.602577122055195"><ele>897.0</ele><time>2026-04-05T11:12:11.001Z</time></trkpt><trkpt lat="42.74139642253228" lon="13.602744121041235"><ele>893.75</ele><time>2026-04-05T11:12:12.001Z</time></trkpt><trkpt lat="42.74132964175944" lon="13.602915749087574"><ele>890.5</ele><time>2026-04-05T11:12:13.001Z</time></trkpt><trkpt lat="42.741277049535434" lon="13.603084767580226"><ele>887.25</ele><time>2026-04-05T11:12:14.001Z</time></trkpt><trkpt lat="42.74126646587628" lon="13.60324431299069"><ele>884.0</ele><time>2026-04-05T11:12:15.001Z</time></trkpt><trkpt lat="42.74126998727333" lon="13.603404375028358"><ele>884.0</ele><time>2026-04-05T11:12:16.001Z</time></trkpt><trkpt lat="42.74130585189331" lon="13.603579962640088"><ele>884.0</ele><time>2026-04-05T11:12:17.001Z</time></trkpt><trkpt lat="42.74137585759405" lon="13.603770441805876"><ele>884.0</ele><time>2026-04-05T11:12:18.001Z</time></trkpt><trkpt lat="42.74146713885609" lon="13.603962300291531"><ele>885.25</ele><time>2026-04-05T11:12:19.001Z</time></trkpt><trkpt lat="42.741557611742664" lon="13.604149202374508"><ele>886.5</ele><time>2026-04-05T11:12:20.001Z</time></trkpt><trkpt lat="42.74163625775431" lon="13.604308944239666"><ele>887.75</ele><time>2026-04-05T11:12:21.001Z</time></trkpt><trkpt lat="42.741717381878686" lon="13.604441088062874"><ele>889.0</ele><time>2026-04-05T11:12:22.001Z</time></trkpt><trkpt lat="42.74180038014604" lon="13.604534544836001"><ele>889.8000000000001</ele><time>2026-04-05T11:12:23.001Z</time></trkpt><trkpt lat="42.741829246429745" lon="13.604635465653427"><ele>890.6000000000001</ele><time>2026-04-05T11:12:24.001Z</time></trkpt><trkpt lat="42.741836709999475" lon="13.604753935681572"><ele>891.4</ele><time>2026-04-05T11:12:25.001Z</time></trkpt><trkpt lat="42.74176010066746" lon="13.604850887385947"><ele>892.2</ele><time>2026-04-05T11:12:26.001Z</time></trkpt><trkpt lat="42.74168188121111" lon="13.6049506101342"><ele>893.0</ele><time>2026-04-05T11:12:27.001Z</time></trkpt><trkpt lat="42.74157762657468" lon="13.605080317427099"><ele>893.0</ele><time>2026-04-05T11:12:28.001Z</time></trkpt><trkpt lat="42.74147924076979" lon="13.605256631654903"><ele>893.0</ele><time>2026-04-05T11:12:29.001Z</time></trkpt><trkpt lat="42.741377742617765" lon="13.605437603673694"><ele>893.0</ele><time>2026-04-05T11:12:30.001Z</time></trkpt><trkpt lat="42.7413000612378" lon="13.605620277798371"><ele>893.0</ele><time>2026-04-05T11:12:31.001Z</time></trkpt><trkpt lat="42.741256214191914" lon="13.605769002146797"><ele>893.0</ele><time>2026-04-05T11:12:32.001Z</time></trkpt><trkpt lat="42.74121777568396" lon="13.605888279301046"><ele>893.0</ele><time>2026-04-05T11:12:33.001Z</time></trkpt><trkpt lat="42.74119872305011" lon="13.606016561926035"><ele>893.0</ele><time>2026-04-05T11:12:34.001Z</time></trkpt><trkpt lat="42.74121967894494" lon="13.606164506490243"><ele>893.0</ele><time>2026-04-05T11:12:35.001Z</time></trkpt><trkpt lat="42.741270615542774" lon="13.606297182735316"><ele>893.0</ele><time>2026-04-05T11:12:36.001Z</time></trkpt><trkpt lat="42.74134106754328" lon="13.606408506127902"><ele>893.0</ele><time>2026-04-05T11:12:37.001Z</time></trkpt><trkpt lat="42.74144318679005" lon="13.606490222033583"><ele>893.0</ele><time>2026-04-05T11:12:38.001Z</time></trkpt><trkpt lat="42.7415629814882" lon="13.606558503029945"><ele>893.0</ele><time>2026-04-05T11:12:39.001Z</time></trkpt><trkpt lat="42.741702251666936" lon="13.606624609127637"><ele>893.0</ele><time>2026-04-05T11:12:40.001Z</time></trkpt><trkpt lat="42.74185625413207" lon="13.606733194135066"><ele>893.0</ele><time>2026-04-05T11:12:41.001Z</time></trkpt><trkpt lat="42.74202957602749" lon="13.606831570219555"><ele>893.0</ele><time>2026-04-05T11:12:42.001Z</time></trkpt><trkpt lat="42.742209246065066" lon="13.606954987806022"><ele>895.6666666666667</ele><time>2026-04-05T11:12:43.001Z</time></trkpt><trkpt lat="42.74239470960079" lon="13.607055513222583"><ele>898.3333333333333</ele><time>2026-04-05T11:12:44.001Z</time></trkpt><trkpt lat="42.74257647305838" lon="13.607141652850178"><ele>901.0</ele><time>2026-04-05T11:12:45.001Z</time></trkpt><trkpt lat="42.74274533880453" lon="13.607219354074562"><ele>885.6666666666666</ele><time>2026-04-05T11:12:46.001Z</time></trkpt><trkpt lat="42.7428874864107" lon="13.607318713286169"><ele>870.3333333333333</ele><time>2026-04-05T11:12:47.001Z</time></trkpt><trkpt lat="42.74301650068763" lon="13.607432266268152"><ele>855.0</ele><time>2026-04-05T11:12:48.001Z</time></trkpt><trkpt lat="42.74313712240636" lon="13.607556241948593"><ele>855.0</ele><time>2026-04-05T11:12:49.001Z</time></trkpt><trkpt lat="42.74323771488427" lon="13.607689334983943"><ele>855.0</ele><time>2026-04-05T11:12:50.001Z</time></trkpt><trkpt lat="42.74332509701932" lon="13.607845751578113"><ele>855.0</ele><time>2026-04-05T11:12:51.001Z</time></trkpt><trkpt lat="42.74340422952839" lon="13.608028550419807"><ele>855.0</ele><time>2026-04-05T11:12:52.001Z</time></trkpt><trkpt lat="42.7434860469629" lon="13.608232496807595"><ele>847.6666666666667</ele><time>2026-04-05T11:12:53.001Z</time></trkpt><trkpt lat="42.743559569251225" lon="13.608466201721331"><ele>840.3333333333334</ele><time>2026-04-05T11:12:54.001Z</time></trkpt><trkpt lat="42.74361975801304" lon="13.608697679709765"><ele>833.0</ele><time>2026-04-05T11:12:55.001Z</time></trkpt><trkpt lat="42.743678212722955" lon="13.60891058256173"><ele>833.0</ele><time>2026-04-05T11:12:56.001Z</time></trkpt><trkpt lat="42.743730963294745" lon="13.609087548586578"><ele>833.0</ele><time>2026-04-05T11:12:57.001Z</time></trkpt><trkpt lat="42.74382045330757" lon="13.609222049915587"><ele>833.0</ele><time>2026-04-05T11:12:58.001Z</time></trkpt><trkpt lat="42.74391519418728" lon="13.609340380525348"><ele>833.0</ele><time>2026-04-05T11:12:59.001Z</time></trkpt><trkpt lat="42.74396587714646" lon="13.609466445292156"><ele>836.75</ele><time>2026-04-05T11:13:00.001Z</time></trkpt><trkpt lat="42.743942822970624" lon="13.60961821560217"><ele>840.5</ele><time>2026-04-05T11:13:01.001Z</time></trkpt><trkpt lat="42.74392685838327" lon="13.609809066799247"><ele>844.25</ele><time>2026-04-05T11:13:02.001Z</time></trkpt><trkpt lat="42.74392556225381" lon="13.610029834459892"><ele>848.0</ele><time>2026-04-05T11:13:03.001Z</time></trkpt><trkpt lat="42.74391198235109" lon="13.610222537560107"><ele>849.75</ele><time>2026-04-05T11:13:04.001Z</time></trkpt><trkpt lat="42.743914300227225" lon="13.610386195435357"><ele>851.5</ele><time>2026-04-05T11:13:05.001Z</time></trkpt><trkpt lat="42.743947719064224" lon="13.610550176817746"><ele>853.25</ele><time>2026-04-05T11:13:06.001Z</time></trkpt><trkpt lat="42.744006777622495" lon="13.610734096291814"><ele>855.0</ele><time>2026-04-05T11:13:07.001Z</time></trkpt><trkpt lat="42.74407354358016" lon="13.610929045545387"><ele>855.0</ele><time>2026-04-05T11:13:08.001Z</time></trkpt><trkpt lat="42.74413320461507" lon="13.611101024132529"><ele>855.0</ele><time>2026-04-05T11:13:09.001Z</time></trkpt><trkpt lat="42.74420310993399" lon="13.611241383343414"><ele>855.0</ele><time>2026-04-05T11:13:10.001Z</time></trkpt><trkpt lat="42.74430479595939" lon="13.61138738517865"><ele>855.0</ele><time>2026-04-05T11:13:11.001Z</time></trkpt><trkpt lat="42.74441752183605" lon="13.611551452557503"><ele>848.25</ele><time>2026-04-05T11:13:12.001Z</time></trkpt><trkpt lat="42.74452410181822" lon="13.61171671694684"><ele>841.5</ele><time>2026-04-05T11:13:13.001Z</time></trkpt><trkpt lat="42.744621624552366" lon="13.611816114543716"><ele>834.75</ele><time>2026-04-05T11:13:14.001Z</time></trkpt><trkpt lat="42.74469550612395" lon="13.611889117065877"><ele>828.0</ele><time>2026-04-05T11:13:15.001Z</time></trkpt><trkpt lat="42.74482858925113" lon="13.611944992637092"><ele>827.3333333333333</ele><time>2026-04-05T11:13:16.001Z</time></trkpt><trkpt lat="42.74498317626623" lon="13.611991443374805"><ele>826.6666666666666</ele><time>2026-04-05T11:13:17.001Z</time></trkpt><trkpt lat="42.74514913815313" lon="13.612030083609442"><ele>826.0</ele><time>2026-04-05T11:13:18.001Z</time></trkpt><trkpt lat="42.74528544558705" lon="13.612062041911908"><ele>826.0</ele><time>2026-04-05T11:13:19.001Z</time></trkpt><trkpt lat="42.74538065296468" lon="13.612088658150723"><ele>826.0</ele><time>2026-04-05T11:13:20.001Z</time></trkpt><trkpt lat="42.74545298422661" lon="13.612132373721812"><ele>826.0</ele><time>2026-04-05T11:13:21.001Z</time></trkpt><trkpt lat="42.74551291774208" lon="13.612218690764701"><ele>826.0</ele><time>2026-04-05T11:13:22.001Z</time></trkpt><trkpt lat="42.74553825599503" lon="13.612340743511874"><ele>826.0</ele><time>2026-04-05T11:13:23.001Z</time></trkpt><trkpt lat="42.74550071025439" lon="13.612482512066736"><ele>826.0</ele><time>2026-04-05T11:13:24.001Z</time></trkpt><trkpt lat="42.74545433399683" lon="13.612651853794786"><ele>826.0</ele><time>2026-04-05T11:13:25.001Z</time></trkpt><trkpt lat="42.7454010083785" lon="13.61284403148857"><ele>826.0</ele><time>2026-04-05T11:13:26.001Z</time></trkpt><trkpt lat="42.74534006851049" lon="13.613061594554006"><ele>819.6666666666666</ele><time>2026-04-05T11:13:27.001Z</time></trkpt><trkpt lat="42.745285573730584" lon="13.613270871285684"><ele>813.3333333333333</ele><time>2026-04-05T11:13:28.001Z</time></trkpt><trkpt lat="42.74527381521342" lon="13.61348234423798"><ele>807.0</ele><time>2026-04-05T11:13:29.001Z</time></trkpt><trkpt lat="42.74527266091775" lon="13.61370835144225"><ele>802.3333333333333</ele><time>2026-04-05T11:13:30.001Z</time></trkpt><trkpt lat="42.745248526085824" lon="13.613940227801239"><ele>797.6666666666666</ele><time>2026-04-05T11:13:31.001Z</time></trkpt><trkpt lat="42.74522616467145" lon="13.614152887791397"><ele>793.0</ele><time>2026-04-05T11:13:32.001Z</time></trkpt><trkpt lat="42.74519112845834" lon="13.61435640011912"><ele>790.5</ele><time>2026-04-05T11:13:33.001Z</time></trkpt><trkpt lat="42.74515490103722" lon="13.614530384151672"><ele>788.0</ele><time>2026-04-05T11:13:34.001Z</time></trkpt><trkpt lat="42.74514282540197" lon="13.614673218647887"><ele>785.5</ele><time>2026-04-05T11:13:35.001Z</time></trkpt><trkpt lat="42.74517790130458" lon="13.614810628358157"><ele>783.0</ele><time>2026-04-05T11:13:36.001Z</time></trkpt><trkpt lat="42.74523518253643" lon="13.614956109562135"><ele>783.0</ele><time>2026-04-05T11:13:37.001Z</time></trkpt><trkpt lat="42.74526770071116" lon="13.615106885678026"><ele>783.0</ele><time>2026-04-05T11:13:38.001Z</time></trkpt><trkpt lat="42.74527879284287" lon="13.615230388132554"><ele>783.0</ele><time>2026-04-05T11:13:39.001Z</time></trkpt><trkpt lat="42.745246873030226" lon="13.615330023754083"><ele>783.0</ele><time>2026-04-05T11:13:40.001Z</time></trkpt><trkpt lat="42.74520616129927" lon="13.615463031894992"><ele>783.0</ele><time>2026-04-05T11:13:41.001Z</time></trkpt><trkpt lat="42.745189817394696" lon="13.615592586122041"><ele>781.2</ele><time>2026-04-05T11:13:42.001Z</time></trkpt><trkpt lat="42.74521937710413" lon="13.615739775903892"><ele>779.4</ele><time>2026-04-05T11:13:43.001Z</time></trkpt><trkpt lat="42.745283127756686" lon="13.615876697176926"><ele>777.6</ele><time>2026-04-05T11:13:44.001Z</time></trkpt><trkpt lat="42.74529642074724" lon="13.616003943383479"><ele>775.8000000000001</ele><time>2026-04-05T11:13:45.001Z</time></trkpt><trkpt lat="42.74529087186362" lon="13.616136687073661"><ele>774.0</ele><time>2026-04-05T11:13:46.001Z</time></trkpt><trkpt lat="42.74526608491005" lon="13.616290400325886"><ele>774.0</ele><time>2026-04-05T11:13:47.001Z</time></trkpt><trkpt lat="42.745233034963526" lon="13.61646933365427"><ele>774.0</ele><time>2026-04-05T11:13:48.001Z</time></trkpt><trkpt lat="42.7452378974941" lon="13.616659725797764"><ele>774.0</ele><time>2026-04-05T11:13:49.001Z</time></trkpt><trkpt lat="42.74521488064707" lon="13.616818918941606"><ele>774.0</ele><time>2026-04-05T11:13:50.001Z</time></trkpt><trkpt lat="42.74523249546238" lon="13.617023490846373"><ele>777.5</ele><time>2026-04-05T11:13:51.001Z</time></trkpt><trkpt lat="42.74525780456594" lon="13.617192104655429"><ele>781.0</ele><time>2026-04-05T11:13:52.001Z</time></trkpt><trkpt lat="42.74527327995543" lon="13.61735839666712"><ele>784.5</ele><time>2026-04-05T11:13:53.001Z</time></trkpt><trkpt lat="42.74529959351948" lon="13.617512349312817"><ele>788.0</ele><time>2026-04-05T11:13:54.001Z</time></trkpt><trkpt lat="42.74531784457093" lon="13.61764749064692"><ele>788.0</ele><time>2026-04-05T11:13:55.001Z</time></trkpt><trkpt lat="42.745318415897174" lon="13.61778997394904"><ele>788.0</ele><time>2026-04-05T11:13:56.001Z</time></trkpt><trkpt lat="42.74529252239664" lon="13.617952085118496"><ele>788.0</ele><time>2026-04-05T11:13:57.001Z</time></trkpt><trkpt lat="42.74525265277627" lon="13.618109291544291"><ele>788.0</ele><time>2026-04-05T11:13:58.001Z</time></trkpt><trkpt lat="42.74521598518813" lon="13.618240964971092"><ele>791.2</ele><time>2026-04-05T11:13:59.001Z</time></trkpt><trkpt lat="42.745185363519674" lon="13.618350495735271"><ele>794.4</ele><time>2026-04-05T11:14:00.001Z</time></trkpt><trkpt lat="42.74517246233852" lon="13.618452049222013"><ele>797.6</ele><time>2026-04-05T11:14:01.001Z</time></trkpt><trkpt lat="42.74519063702037" lon="13.618564999786285"><ele>800.8000000000001</ele><time>2026-04-05T11:14:02.001Z</time></trkpt><trkpt lat="42.74526583879665" lon="13.618668787716105"><ele>804.0</ele><time>2026-04-05T11:14:03.001Z</time></trkpt><trkpt lat="42.74537599726007" lon="13.618717401831555"><ele>804.0</ele><time>2026-04-05T11:14:04.001Z</time></trkpt><trkpt lat="42.74544538767151" lon="13.61879675760397"><ele>804.0</ele><time>2026-04-05T11:14:05.001Z</time></trkpt><trkpt lat="42.74549467987401" lon="13.618882567008576"><ele>804.0</ele><time>2026-04-05T11:14:06.001Z</time></trkpt><trkpt lat="42.74552699651856" lon="13.618988066440622"><ele>804.0</ele><time>2026-04-05T11:14:07.001Z</time></trkpt><trkpt lat="42.74552378367753" lon="13.619105186538244"><ele>804.0</ele><time>2026-04-05T11:14:08.001Z</time></trkpt><trkpt lat="42.7455139866053" lon="13.619244395002575"><ele>804.0</ele><time>2026-04-05T11:14:09.001Z</time></trkpt><trkpt lat="42.745505682594775" lon="13.619395813597658"><ele>806.25</ele><time>2026-04-05T11:14:10.001Z</time></trkpt><trkpt lat="42.745499093306904" lon="13.619549272139134"><ele>808.5</ele><time>2026-04-05T11:14:11.001Z</time></trkpt><trkpt lat="42.74550575465834" lon="13.619707709077378"><ele>810.75</ele><time>2026-04-05T11:14:12.001Z</time></trkpt><trkpt lat="42.74553216830208" lon="13.61987735659019"><ele>813.0</ele><time>2026-04-05T11:14:13.001Z</time></trkpt><trkpt lat="42.74557698070932" lon="13.620040154030887"><ele>813.0</ele><time>2026-04-05T11:14:14.001Z</time></trkpt><trkpt lat="42.745617690572125" lon="13.62020820676676"><ele>813.0</ele><time>2026-04-05T11:14:15.001Z</time></trkpt><trkpt lat="42.745644714486346" lon="13.620340535897196"><ele>813.0</ele><time>2026-04-05T11:14:16.001Z</time></trkpt><trkpt lat="42.74566083085206" lon="13.620494625288392"><ele>813.0</ele><time>2026-04-05T11:14:17.001Z</time></trkpt><trkpt lat="42.74566840966994" lon="13.620664194723338"><ele>816.0</ele><time>2026-04-05T11:14:18.001Z</time></trkpt><trkpt lat="42.74569058462524" lon="13.620842097171181"><ele>819.0</ele><time>2026-04-05T11:14:19.001Z</time></trkpt><trkpt lat="42.745732990711375" lon="13.621019942989971"><ele>822.0</ele><time>2026-04-05T11:14:20.001Z</time></trkpt><trkpt lat="42.74577774343223" lon="13.621194506441867"><ele>825.0</ele><time>2026-04-05T11:14:21.001Z</time></trkpt><trkpt lat="42.74581913424709" lon="13.621369229719418"><ele>829.25</ele><time>2026-04-05T11:14:22.001Z</time></trkpt><trkpt lat="42.745865075748114" lon="13.621546926856011"><ele>833.5</ele><time>2026-04-05T11:14:23.001Z</time></trkpt><trkpt lat="42.74591619878634" lon="13.621729261990088"><ele>837.75</ele><time>2026-04-05T11:14:24.001Z</time></trkpt><trkpt lat="42.745989773133005" lon="13.621900576465121"><ele>842.0</ele><time>2026-04-05T11:14:25.001Z</time></trkpt><trkpt lat="42.746036507671654" lon="13.622083655497526"><ele>833.75</ele><time>2026-04-05T11:14:26.001Z</time></trkpt><trkpt lat="42.74609787323007" lon="13.622249749032985"><ele>825.5</ele><time>2026-04-05T11:14:27Z</time></trkpt><trkpt lat="42.74616505315286" lon="13.622416438792692"><ele>817.25</ele><time>2026-04-05T11:14:28Z</time></trkpt><trkpt lat="42.74623862270347" lon="13.622578973604638"><ele>809.0</ele><time>2026-04-05T11:14:29Z</time></trkpt><trkpt lat="42.74632742551965" lon="13.622727129305888"><ele>814.75</ele><time>2026-04-05T11:14:30Z</time></trkpt><trkpt lat="42.74640502322405" lon="13.622876634732963"><ele>820.5</ele><time>2026-04-05T11:14:31Z</time></trkpt><trkpt lat="42.74647758136057" lon="13.623050970735479"><ele>826.25</ele><time>2026-04-05T11:14:32Z</time></trkpt><trkpt lat="42.74656528306381" lon="13.623208731133596"><ele>832.0</ele><time>2026-04-05T11:14:33Z</time></trkpt><trkpt lat="42.746647305794916" lon="13.623350385680437"><ele>832.0</ele><time>2026-04-05T11:14:34Z</time></trkpt><trkpt lat="42.7467312578612" lon="13.62348251080489"><ele>832.0</ele><time>2026-04-05T11:14:35Z</time></trkpt><trkpt lat="42.7468200957931" lon="13.623598477909434"><ele>832.0</ele><time>2026-04-05T11:14:36Z</time></trkpt><trkpt lat="42.74690725957079" lon="13.62371115774671"><ele>832.0</ele><time>2026-04-05T11:14:37Z</time></trkpt><trkpt lat="42.74700236197085" lon="13.623817267848487"><ele>828.4000000000001</ele><time>2026-04-05T11:14:38Z</time></trkpt><trkpt lat="42.74711210220041" lon="13.623871079881484"><ele>824.8000000000001</ele><time>2026-04-05T11:14:39Z</time></trkpt><trkpt lat="42.74721528906516" lon="13.62391956774511"><ele>821.2</ele><time>2026-04-05T11:14:40Z</time></trkpt><trkpt lat="42.74730637290405" lon="13.623994063523343"><ele>817.6</ele><time>2026-04-05T11:14:41Z</time></trkpt><trkpt lat="42.747385284619114" lon="13.6240450655614"><ele>814.0</ele><time>2026-04-05T11:14:42Z</time></trkpt><trkpt lat="42.747444800950895" lon="13.624103936095427"><ele>813.9999999999999</ele><time>2026-04-05T11:14:43Z</time></trkpt><trkpt lat="42.74747943364506" lon="13.624176871950416"><ele>814.0</ele><time>2026-04-05T11:14:44Z</time></trkpt><trkpt lat="42.74749845109443" lon="13.6242961329916"><ele>814.0</ele><time>2026-04-05T11:14:45Z</time></trkpt><trkpt lat="42.74747655804869" lon="13.624400513034121"><ele>814.0</ele><time>2026-04-05T11:14:46Z</time></trkpt><trkpt lat="42.74742508274227" lon="13.624482010398486"><ele>813.9999999999999</ele><time>2026-04-05T11:14:47Z</time></trkpt><trkpt lat="42.747351485825305" lon="13.62454543974157"><ele>814.0</ele><time>2026-04-05T11:14:48Z</time></trkpt><trkpt lat="42.74726882126031" lon="13.624594256908605"><ele>812.4000000000001</ele><time>2026-04-05T11:14:49Z</time></trkpt><trkpt lat="42.747178976895114" lon="13.62463936085855"><ele>810.8</ele><time>2026-04-05T11:14:50Z</time></trkpt><trkpt lat="42.7470788873797" lon="13.624709624708814"><ele>809.2</ele><time>2026-04-05T11:14:51Z</time></trkpt><trkpt lat="42.746985195137086" lon="13.62478905362427"><ele>807.5999999999999</ele><time>2026-04-05T11:14:52Z</time></trkpt><trkpt lat="42.746891252654216" lon="13.624881601044969"><ele>806.0</ele><time>2026-04-05T11:14:53Z</time></trkpt><trkpt lat="42.746789818716" lon="13.624981791011704"><ele>814.75</ele><time>2026-04-05T11:14:54Z</time></trkpt><trkpt lat="42.74668353531027" lon="13.625077068951224"><ele>823.5</ele><time>2026-04-05T11:14:55Z</time></trkpt><trkpt lat="42.746561599847624" lon="13.625161082569369"><ele>832.25</ele><time>2026-04-05T11:14:56Z</time></trkpt><trkpt lat="42.74643181053455" lon="13.62522438995668"><ele>841.0</ele><time>2026-04-05T11:14:57Z</time></trkpt><trkpt lat="42.74629827509335" lon="13.625282059592074"><ele>837.5</ele><time>2026-04-05T11:14:58Z</time></trkpt><trkpt lat="42.746163606555456" lon="13.625339324746708"><ele>834.0</ele><time>2026-04-05T11:14:59Z</time></trkpt><trkpt lat="42.74603378532531" lon="13.625396653056802"><ele>830.5</ele><time>2026-04-05T11:15:00Z</time></trkpt><trkpt lat="42.74590571203322" lon="13.625456495356113"><ele>827.0</ele><time>2026-04-05T11:15:01Z</time></trkpt><trkpt lat="42.74577513909575" lon="13.625517663811646"><ele>827.0</ele><time>2026-04-05T11:15:02Z</time></trkpt><trkpt lat="42.74564591106755" lon="13.62559530079852"><ele>827.0</ele><time>2026-04-05T11:15:03Z</time></trkpt><trkpt lat="42.74552260162571" lon="13.62569894075971"><ele>827.0</ele><time>2026-04-05T11:15:04Z</time></trkpt><trkpt lat="42.74540661841786" lon="13.625823275185954"><ele>827.0</ele><time>2026-04-05T11:15:05Z</time></trkpt><trkpt lat="42.745290876835824" lon="13.625951992890244"><ele>828.3333333333334</ele><time>2026-04-05T11:15:06Z</time></trkpt><trkpt lat="42.74517413049834" lon="13.626075054843168"><ele>829.6666666666667</ele><time>2026-04-05T11:15:07Z</time></trkpt><trkpt lat="42.745053117107645" lon="13.62619601195484"><ele>831.0</ele><time>2026-04-05T11:15:08Z</time></trkpt><trkpt lat="42.7449257995389" lon="13.626328232259032"><ele>831.0</ele><time>2026-04-05T11:15:09Z</time></trkpt><trkpt lat="42.744757843752495" lon="13.62645447617959"><ele>831.0</ele><time>2026-04-05T11:15:10Z</time></trkpt><trkpt lat="42.74458610430846" lon="13.626605260170898"><ele>831.0</ele><time>2026-04-05T11:15:11Z</time></trkpt><trkpt lat="42.74440995340449" lon="13.626764868823466"><ele>829.6666666666667</ele><time>2026-04-05T11:15:12Z</time></trkpt><trkpt lat="42.744240669203556" lon="13.626935950916794"><ele>828.3333333333334</ele><time>2026-04-05T11:15:13Z</time></trkpt><trkpt lat="42.744058298399786" lon="13.62708778241753"><ele>827.0</ele><time>2026-04-05T11:15:14Z</time></trkpt><trkpt lat="42.743870724109556" lon="13.62722413731776"><ele>827.0</ele><time>2026-04-05T11:15:15Z</time></trkpt><trkpt lat="42.7436730357627" lon="13.627345458794354"><ele>827.0</ele><time>2026-04-05T11:15:16Z</time></trkpt><trkpt lat="42.74347205395302" lon="13.627480794246601"><ele>827.0</ele><time>2026-04-05T11:15:17Z</time></trkpt><trkpt lat="42.74327302279683" lon="13.627639117413564"><ele>819.0</ele><time>2026-04-05T11:15:18Z</time></trkpt><trkpt lat="42.743072927727205" lon="13.627808316058665"><ele>811.0</ele><time>2026-04-05T11:15:19Z</time></trkpt><trkpt lat="42.7428702468176" lon="13.627969207770215"><ele>826.5</ele><time>2026-04-05T11:15:20Z</time></trkpt><trkpt lat="42.74266529113303" lon="13.628129683529353"><ele>842.0</ele><time>2026-04-05T11:15:21.001Z</time></trkpt><trkpt lat="42.74247116465957" lon="13.628280406015485"><ele>842.0</ele><time>2026-04-05T11:15:22.001Z</time></trkpt><trkpt lat="42.742300034017426" lon="13.628409255394693"><ele>842.0</ele><time>2026-04-05T11:15:23.001Z</time></trkpt><trkpt lat="42.74214848556601" lon="13.62851977156431"><ele>842.0</ele><time>2026-04-05T11:15:24.001Z</time></trkpt><trkpt lat="42.74200604830856" lon="13.628598167046908"><ele>838.0</ele><time>2026-04-05T11:15:25.001Z</time></trkpt><trkpt lat="42.74184262375693" lon="13.62865976007377"><ele>834.0</ele><time>2026-04-05T11:15:26.001Z</time></trkpt><trkpt lat="42.74167483745106" lon="13.628721062758098"><ele>830.0</ele><time>2026-04-05T11:15:27.001Z</time></trkpt><trkpt lat="42.74150511188639" lon="13.62879614060828"><ele>830.0</ele><time>2026-04-05T11:15:28.001Z</time></trkpt><trkpt lat="42.741330448206256" lon="13.628873925670014"><ele>830.0</ele><time>2026-04-05T11:15:29.001Z</time></trkpt><trkpt lat="42.74115486522894" lon="13.628946235177791"><ele>830.0</ele><time>2026-04-05T11:15:30.001Z</time></trkpt><trkpt lat="42.74097535724177" lon="13.629030998953766"><ele>838.3333333333334</ele><time>2026-04-05T11:15:31.001Z</time></trkpt><trkpt lat="42.74080850733862" lon="13.629121157452417"><ele>846.6666666666667</ele><time>2026-04-05T11:15:32.001Z</time></trkpt><trkpt lat="42.74065496595564" lon="13.629230001681906"><ele>855.0</ele><time>2026-04-05T11:15:33.001Z</time></trkpt><trkpt lat="42.74050057717892" lon="13.62935081675005"><ele>852.6666666666667</ele><time>2026-04-05T11:15:34.001Z</time></trkpt><trkpt lat="42.74035224897724" lon="13.62950118855928"><ele>850.3333333333334</ele><time>2026-04-05T11:15:35.001Z</time></trkpt><trkpt lat="42.74020568518583" lon="13.629665772757146"><ele>848.0</ele><time>2026-04-05T11:15:36.001Z</time></trkpt><trkpt lat="42.74006026958087" lon="13.629830612763739"><ele>848.0</ele><time>2026-04-05T11:15:37.001Z</time></trkpt><trkpt lat="42.73992470996133" lon="13.629975212976529"><ele>848.0</ele><time>2026-04-05T11:15:38.001Z</time></trkpt><trkpt lat="42.73980210810849" lon="13.630098709763505"><ele>848.0</ele><time>2026-04-05T11:15:39.001Z</time></trkpt><trkpt lat="42.73968138292349" lon="13.630214038859407"><ele>837.3333333333334</ele><time>2026-04-05T11:15:40.001Z</time></trkpt><trkpt lat="42.73959809271759" lon="13.630407101105073"><ele>826.6666666666667</ele><time>2026-04-05T11:15:41.001Z</time></trkpt><trkpt lat="42.739497285592726" lon="13.630579882265275"><ele>816.0</ele><time>2026-04-05T11:15:42.001Z</time></trkpt><trkpt lat="42.73940375798394" lon="13.630739108689763"><ele>816.75</ele><time>2026-04-05T11:15:43.001Z</time></trkpt><trkpt lat="42.739295681263656" lon="13.630868622096228"><ele>817.5</ele><time>2026-04-05T11:15:44.001Z</time></trkpt><trkpt lat="42.739178063447895" lon="13.630978505499673"><ele>818.25</ele><time>2026-04-05T11:15:45.001Z</time></trkpt><trkpt lat="42.73907166884431" lon="13.631090248235948"><ele>819.0</ele><time>2026-04-05T11:15:46.001Z</time></trkpt><trkpt lat="42.73895392990762" lon="13.631185913139811"><ele>819.0</ele><time>2026-04-05T11:15:47.001Z</time></trkpt><trkpt lat="42.73883920266916" lon="13.631272727880226"><ele>819.0</ele><time>2026-04-05T11:15:48.001Z</time></trkpt><trkpt lat="42.73871132117979" lon="13.631361805431204"><ele>819.0</ele><time>2026-04-05T11:15:49.001Z</time></trkpt><trkpt lat="42.738570112800545" lon="13.631448095522401"><ele>819.0</ele><time>2026-04-05T11:15:50.001Z</time></trkpt><trkpt lat="42.738420738204155" lon="13.631525050797087"><ele>821.25</ele><time>2026-04-05T11:15:51.001Z</time></trkpt><trkpt lat="42.738276830739075" lon="13.631580207102582"><ele>823.5</ele><time>2026-04-05T11:15:52.001Z</time></trkpt><trkpt lat="42.73814088876545" lon="13.631606301654639"><ele>825.75</ele><time>2026-04-05T11:15:53.001Z</time></trkpt><trkpt lat="42.738008170683315" lon="13.631597046833472"><ele>828.0</ele><time>2026-04-05T11:15:54.001Z</time></trkpt><trkpt lat="42.73785361231532" lon="13.631547335081729"><ele>828.6666666666667</ele><time>2026-04-05T11:15:55.001Z</time></trkpt><trkpt lat="42.73769701617736" lon="13.631521423947614"><ele>829.3333333333334</ele><time>2026-04-05T11:15:56.001Z</time></trkpt><trkpt lat="42.737547482340894" lon="13.631512663608854"><ele>830.0</ele><time>2026-04-05T11:15:57.001Z</time></trkpt><trkpt lat="42.7373985101798" lon="13.631534327317352"><ele>830.0</ele><time>2026-04-05T11:15:58.001Z</time></trkpt><trkpt lat="42.73724108197623" lon="13.631598230170948"><ele>830.0</ele><time>2026-04-05T11:15:59.001Z</time></trkpt><trkpt lat="42.737077768226996" lon="13.6316896066324"><ele>830.0</ele><time>2026-04-05T11:16:00.001Z</time></trkpt><trkpt lat="42.73691516626851" lon="13.631785038016925"><ele>828.3333333333334</ele><time>2026-04-05T11:16:01.001Z</time></trkpt><trkpt lat="42.7367557833949" lon="13.631861006013482"><ele>826.6666666666667</ele><time>2026-04-05T11:16:02.001Z</time></trkpt><trkpt lat="42.73658324290481" lon="13.631918941276176"><ele>825.0</ele><time>2026-04-05T11:16:03.001Z</time></trkpt><trkpt lat="42.73639346811589" lon="13.631968066139018"><ele>819.3333333333333</ele><time>2026-04-05T11:16:04.001Z</time></trkpt><trkpt lat="42.736205148667146" lon="13.632009641512239"><ele>813.6666666666666</ele><time>2026-04-05T11:16:05.001Z</time></trkpt><trkpt lat="42.736038196257084" lon="13.632056535771925"><ele>808.0</ele><time>2026-04-05T11:16:06.001Z</time></trkpt><trkpt lat="42.73589640460712" lon="13.63211689712487"><ele>807.3333333333333</ele><time>2026-04-05T11:16:07.001Z</time></trkpt><trkpt lat="42.73576131968749" lon="13.632216776796447"><ele>806.6666666666667</ele><time>2026-04-05T11:16:08.001Z</time></trkpt><trkpt lat="42.735630334153896" lon="13.632363002801558"><ele>806.0</ele><time>2026-04-05T11:16:09.001Z</time></trkpt><trkpt lat="42.73550191840008" lon="13.632541383032093"><ele>806.0</ele><time>2026-04-05T11:16:10.001Z</time></trkpt><trkpt lat="42.73535717703987" lon="13.632704097016653"><ele>806.0</ele><time>2026-04-05T11:16:11.001Z</time></trkpt><trkpt lat="42.735233591992206" lon="13.632876660268135"><ele>806.0</ele><time>2026-04-05T11:16:12.001Z</time></trkpt><trkpt lat="42.73510186362034" lon="13.632993844605375"><ele>803.25</ele><time>2026-04-05T11:16:13.001Z</time></trkpt><trkpt lat="42.734973794242926" lon="13.633070330978493"><ele>800.5</ele><time>2026-04-05T11:16:14.001Z</time></trkpt><trkpt lat="42.73484290630568" lon="13.633104835305112"><ele>797.75</ele><time>2026-04-05T11:16:15.001Z</time></trkpt><trkpt lat="42.734709404206875" lon="13.633101048059576"><ele>795.0</ele><time>2026-04-05T11:16:16.001Z</time></trkpt><trkpt lat="42.734569747783496" lon="13.633063449009146"><ele>795.0</ele><time>2026-04-05T11:16:17.001Z</time></trkpt><trkpt lat="42.734445683336034" lon="13.633034380196586"><ele>795.0</ele><time>2026-04-05T11:16:18.001Z</time></trkpt><trkpt lat="42.7343457760359" lon="13.633046150201896"><ele>795.0</ele><time>2026-04-05T11:16:19.001Z</time></trkpt><trkpt lat="42.7342413959921" lon="13.633100079533826"><ele>795.0</ele><time>2026-04-05T11:16:20.001Z</time></trkpt><trkpt lat="42.73416557753629" lon="13.633258377992751"><ele>795.5</ele><time>2026-04-05T11:16:21.001Z</time></trkpt><trkpt lat="42.73408995090038" lon="13.6334044268223"><ele>796.0</ele><time>2026-04-05T11:16:22.001Z</time></trkpt><trkpt lat="42.73399276568653" lon="13.633500660334125"><ele>796.5</ele><time>2026-04-05T11:16:23.001Z</time></trkpt><trkpt lat="42.733870973049235" lon="13.633538740878777"><ele>797.0</ele><time>2026-04-05T11:16:24.001Z</time></trkpt><trkpt lat="42.733753907048055" lon="13.633561918124514"><ele>797.0</ele><time>2026-04-05T11:16:25.001Z</time></trkpt><trkpt lat="42.733653432367944" lon="13.63363251145467"><ele>797.0</ele><time>2026-04-05T11:16:26.001Z</time></trkpt><trkpt lat="42.733574807279666" lon="13.633772363714217"><ele>797.0</ele><time>2026-04-05T11:16:27Z</time></trkpt><trkpt lat="42.7335093366452" lon="13.633945946500644"><ele>797.0</ele><time>2026-04-05T11:16:28Z</time></trkpt><trkpt lat="42.73344071630389" lon="13.634155940409721"><ele>794.6666666666667</ele><time>2026-04-05T11:16:29Z</time></trkpt><trkpt lat="42.73335075692922" lon="13.63434884669545"><ele>792.3333333333333</ele><time>2026-04-05T11:16:30Z</time></trkpt><trkpt lat="42.73321916386256" lon="13.634549966381007"><ele>790.0</ele><time>2026-04-05T11:16:31Z</time></trkpt><trkpt lat="42.7331084904343" lon="13.63478774065966"><ele>787.3333333333333</ele><time>2026-04-05T11:16:32Z</time></trkpt><trkpt lat="42.73300991723989" lon="13.635037907890505"><ele>784.6666666666667</ele><time>2026-04-05T11:16:33Z</time></trkpt><trkpt lat="42.73293597902877" lon="13.635300751648995"><ele>782.0</ele><time>2026-04-05T11:16:34Z</time></trkpt><trkpt lat="42.73284049433549" lon="13.635506078603688"><ele>783.75</ele><time>2026-04-05T11:16:35Z</time></trkpt><trkpt lat="42.732746709178734" lon="13.635659301721695"><ele>785.5</ele><time>2026-04-05T11:16:36Z</time></trkpt><trkpt lat="42.732655953598886" lon="13.635790854989217"><ele>787.25</ele><time>2026-04-05T11:16:37Z</time></trkpt><trkpt lat="42.73258870918383" lon="13.635897562673323"><ele>789.0</ele><time>2026-04-05T11:16:38Z</time></trkpt><trkpt lat="42.73253527087244" lon="13.63596597834158"><ele>789.0</ele><time>2026-04-05T11:16:39Z</time></trkpt><trkpt lat="42.73250683775356" lon="13.63605277479309"><ele>789.0</ele><time>2026-04-05T11:16:40Z</time></trkpt><trkpt lat="42.732575625041484" lon="13.636208580487132"><ele>789.0</ele><time>2026-04-05T11:16:42Z</time></trkpt><trkpt lat="42.73266691772802" lon="13.63623439638466"><ele>789.0</ele><time>2026-04-05T11:16:43Z</time></trkpt><trkpt lat="42.73276355736979" lon="13.636198952905332"><ele>789.0</ele><time>2026-04-05T11:16:44Z</time></trkpt><trkpt lat="42.73282930417753" lon="13.636084447110589"><ele>783.3333333333333</ele><time>2026-04-05T11:16:45Z</time></trkpt><trkpt lat="42.73294271279353" lon="13.635985130929699"><ele>777.6666666666666</ele><time>2026-04-05T11:16:46Z</time></trkpt><trkpt lat="42.733084770500234" lon="13.635825206577973"><ele>772.0</ele><time>2026-04-05T11:16:47Z</time></trkpt><trkpt lat="42.73321509072613" lon="13.6357023220903"><ele>771.9999999999999</ele><time>2026-04-05T11:16:48Z</time></trkpt><trkpt lat="42.73330798624775" lon="13.635608678819834"><ele>772.0</ele><time>2026-04-05T11:16:49Z</time></trkpt><trkpt lat="42.73337885573984" lon="13.635578784786476"><ele>772.0</ele><time>2026-04-05T11:16:50Z</time></trkpt><trkpt lat="42.733440050390136" lon="13.635550652598315"><ele>772.0</ele><time>2026-04-05T11:16:51Z</time></trkpt><trkpt lat="42.73350349494653" lon="13.635587198926094"><ele>771.9999999999999</ele><time>2026-04-05T11:16:52Z</time></trkpt><trkpt lat="42.73352758236355" lon="13.635679438296272"><ele>772.0</ele><time>2026-04-05T11:16:53Z</time></trkpt><trkpt lat="42.733528828587794" lon="13.635804031149659"><ele>772.0</ele><time>2026-04-05T11:16:54Z</time></trkpt><trkpt lat="42.73351113797012" lon="13.635986458175337"><ele>772.0</ele><time>2026-04-05T11:16:55Z</time></trkpt><trkpt lat="42.733518095816" lon="13.636210288527323"><ele>772.0</ele><time>2026-04-05T11:16:56Z</time></trkpt><trkpt lat="42.733522756340086" lon="13.636440570943286"><ele>770.3333333333333</ele><time>2026-04-05T11:16:57Z</time></trkpt><trkpt lat="42.73352605541937" lon="13.63668379544752"><ele>768.6666666666666</ele><time>2026-04-05T11:16:58Z</time></trkpt><trkpt lat="42.73353250963572" lon="13.636925100635827"><ele>767.0</ele><time>2026-04-05T11:16:59Z</time></trkpt><trkpt lat="42.733537369767845" lon="13.637132768400683"><ele>765.4000000000001</ele><time>2026-04-05T11:17:00Z</time></trkpt><trkpt lat="42.733535315707044" lon="13.637287716368327"><ele>763.8000000000001</ele><time>2026-04-05T11:17:01Z</time></trkpt><trkpt lat="42.73351711865479" lon="13.637403402195181"><ele>762.2</ele><time>2026-04-05T11:17:02Z</time></trkpt><trkpt lat="42.73347428690104" lon="13.637500778488011"><ele>760.6</ele><time>2026-04-05T11:17:03Z</time></trkpt><trkpt lat="42.733385175812764" lon="13.637575930086985"><ele>759.0</ele><time>2026-04-05T11:17:04Z</time></trkpt><trkpt lat="42.7332578420364" lon="13.637605574243775"><ele>759.0</ele><time>2026-04-05T11:17:05Z</time></trkpt><trkpt lat="42.73309024899213" lon="13.637678015917494"><ele>759.0</ele><time>2026-04-05T11:17:06Z</time></trkpt><trkpt lat="42.7329093153138" lon="13.637684503822033"><ele>759.0</ele><time>2026-04-05T11:17:07Z</time></trkpt><trkpt lat="42.73270651913318" lon="13.63768102400755"><ele>758.0</ele><time>2026-04-05T11:17:08Z</time></trkpt><trkpt lat="42.73248952582057" lon="13.637668035040516"><ele>757.0</ele><time>2026-04-05T11:17:09Z</time></trkpt><trkpt lat="42.732274814868134" lon="13.637625521162972"><ele>756.0</ele><time>2026-04-05T11:17:10Z</time></trkpt><trkpt lat="42.73203702681305" lon="13.63762524112474"><ele>756.0</ele><time>2026-04-05T11:17:11Z</time></trkpt><trkpt lat="42.731799995557424" lon="13.637609374620416"><ele>756.0</ele><time>2026-04-05T11:17:12Z</time></trkpt><trkpt lat="42.731583869827745" lon="13.637584986242945"><ele>756.0</ele><time>2026-04-05T11:17:13Z</time></trkpt><trkpt lat="42.73140196212315" lon="13.637574902911007"><ele>756.0</ele><time>2026-04-05T11:17:14Z</time></trkpt><trkpt lat="42.73128556178381" lon="13.637557192125806"><ele>756.0</ele><time>2026-04-05T11:17:15Z</time></trkpt><trkpt lat="42.73119667693231" lon="13.637554523898265"><ele>756.0</ele><time>2026-04-05T11:17:16Z</time></trkpt><trkpt lat="42.731131451049784" lon="13.6375641894569"><ele>756.0</ele><time>2026-04-05T11:17:17Z</time></trkpt><trkpt lat="42.731061704195525" lon="13.637699127317306"><ele>756.0</ele><time>2026-04-05T11:17:19Z</time></trkpt><trkpt lat="42.73105564841194" lon="13.637815744632741"><ele>756.0</ele><time>2026-04-05T11:17:20Z</time></trkpt><trkpt lat="42.73112700563825" lon="13.637942400153149"><ele>756.0</ele><time>2026-04-05T11:17:21Z</time></trkpt><trkpt lat="42.731276538399726" lon="13.637977204263084"><ele>750.0</ele><time>2026-04-05T11:17:22Z</time></trkpt><trkpt lat="42.73140096905955" lon="13.638033681718857"><ele>744.0</ele><time>2026-04-05T11:17:23Z</time></trkpt><trkpt lat="42.731528169475105" lon="13.638100062496141"><ele>738.0</ele><time>2026-04-05T11:17:24Z</time></trkpt><trkpt lat="42.73163471980165" lon="13.638202487331382"><ele>732.0</ele><time>2026-04-05T11:17:25Z</time></trkpt><trkpt lat="42.73170989821722" lon="13.63832470996277"><ele>732.0</ele><time>2026-04-05T11:17:26Z</time></trkpt><trkpt lat="42.73179570571624" lon="13.63844736387179"><ele>732.0</ele><time>2026-04-05T11:17:27.001Z</time></trkpt><trkpt lat="42.73187798654596" lon="13.638537563299561"><ele>732.0</ele><time>2026-04-05T11:17:28.001Z</time></trkpt><trkpt lat="42.73198018244427" lon="13.638590792486465"><ele>732.0</ele><time>2026-04-05T11:17:29.001Z</time></trkpt><trkpt lat="42.73211341663425" lon="13.63857152159064"><ele>733.6666666666666</ele><time>2026-04-05T11:17:30.001Z</time></trkpt><trkpt lat="42.73226622133879" lon="13.63853290344537"><ele>735.3333333333333</ele><time>2026-04-05T11:17:31.001Z</time></trkpt><trkpt lat="42.7324302934022" lon="13.638468901444838"><ele>737.0</ele><time>2026-04-05T11:17:32.001Z</time></trkpt><trkpt lat="42.73258991343887" lon="13.638452904962726"><ele>737.0</ele><time>2026-04-05T11:17:33.001Z</time></trkpt><trkpt lat="42.7327391231816" lon="13.638473319614613"><ele>737.0</ele><time>2026-04-05T11:17:34.001Z</time></trkpt><trkpt lat="42.73290311781457" lon="13.63851730037735"><ele>737.0</ele><time>2026-04-05T11:17:35.001Z</time></trkpt><trkpt lat="42.733082373036154" lon="13.63857229053297"><ele>729.6666666666666</ele><time>2026-04-05T11:17:36.001Z</time></trkpt><trkpt lat="42.73325755427773" lon="13.638645570356374"><ele>722.3333333333334</ele><time>2026-04-05T11:17:37.001Z</time></trkpt><trkpt lat="42.73344682927296" lon="13.638741055214163"><ele>715.0</ele><time>2026-04-05T11:17:38.001Z</time></trkpt><trkpt lat="42.73365203983345" lon="13.638841149540896"><ele>715.0</ele><time>2026-04-05T11:17:39.001Z</time></trkpt><trkpt lat="42.73386780512534" lon="13.638929829341025"><ele>715.0</ele><time>2026-04-05T11:17:40.001Z</time></trkpt><trkpt lat="42.73406728614311" lon="13.638995217615006"><ele>715.0</ele><time>2026-04-05T11:17:41.001Z</time></trkpt><trkpt lat="42.734211455005415" lon="13.639077797003225"><ele>715.0</ele><time>2026-04-05T11:17:42.001Z</time></trkpt><trkpt lat="42.734303044777164" lon="13.639169277629732"><ele>715.0</ele><time>2026-04-05T11:17:43.001Z</time></trkpt><trkpt lat="42.73439769983829" lon="13.639247115508056"><ele>715.0</ele><time>2026-04-05T11:17:44.001Z</time></trkpt><trkpt lat="42.73451393716582" lon="13.639274397087418"><ele>715.0</ele><time>2026-04-05T11:17:45.001Z</time></trkpt><trkpt lat="42.734639794243805" lon="13.639262452220086"><ele>713.0</ele><time>2026-04-05T11:17:46.001Z</time></trkpt><trkpt lat="42.73477556934502" lon="13.639184296294616"><ele>711.0</ele><time>2026-04-05T11:17:47.001Z</time></trkpt><trkpt lat="42.734898356055936" lon="13.639085630106361"><ele>709.0</ele><time>2026-04-05T11:17:48.001Z</time></trkpt><trkpt lat="42.73499709148258" lon="13.639043313834962"><ele>707.0</ele><time>2026-04-05T11:17:49.001Z</time></trkpt><trkpt lat="42.73506976591169" lon="13.639025283424868"><ele>707.0</ele><time>2026-04-05T11:17:50.001Z</time></trkpt><trkpt lat="42.73517373140423" lon="13.639101977844716"><ele>707.0</ele><time>2026-04-05T11:17:52.001Z</time></trkpt><trkpt lat="42.735165637546594" lon="13.639214134974294"><ele>707.0</ele><time>2026-04-05T11:17:53.001Z</time></trkpt><trkpt lat="42.73508952497408" lon="13.63931996599772"><ele>707.0</ele><time>2026-04-05T11:17:54.001Z</time></trkpt><trkpt lat="42.73496485425269" lon="13.639388012601229"><ele>707.0</ele><time>2026-04-05T11:17:55.001Z</time></trkpt><trkpt lat="42.73482139828989" lon="13.639497344393687"><ele>702.3333333333333</ele><time>2026-04-05T11:17:56.001Z</time></trkpt><trkpt lat="42.73465873390841" lon="13.639595643384096"><ele>697.6666666666666</ele><time>2026-04-05T11:17:57.001Z</time></trkpt><trkpt lat="42.73450199344326" lon="13.639691974237186"><ele>693.0</ele><time>2026-04-05T11:17:58.001Z</time></trkpt><trkpt lat="42.734349352736324" lon="13.639765651542971"><ele>693.0</ele><time>2026-04-05T11:17:59.001Z</time></trkpt><trkpt lat="42.73419720265402" lon="13.639803380528909"><ele>693.0</ele><time>2026-04-05T11:18:00.001Z</time></trkpt><trkpt lat="42.73403104782553" lon="13.639803220088849"><ele>693.0</ele><time>2026-04-05T11:18:01.001Z</time></trkpt><trkpt lat="42.73384932722092" lon="13.639780132125841"><ele>693.0</ele><time>2026-04-05T11:18:02.001Z</time></trkpt><trkpt lat="42.733669729695" lon="13.639764262120556"><ele>693.0</ele><time>2026-04-05T11:18:03.001Z</time></trkpt><trkpt lat="42.73351508516433" lon="13.639763809586377"><ele>693.0</ele><time>2026-04-05T11:18:04.001Z</time></trkpt><trkpt lat="42.73337231143724" lon="13.63977903717313"><ele>692.0</ele><time>2026-04-05T11:18:05.001Z</time></trkpt><trkpt lat="42.73323835657575" lon="13.639812095964931"><ele>691.0</ele><time>2026-04-05T11:18:06.001Z</time></trkpt><trkpt lat="42.733103502887026" lon="13.639826943230018"><ele>690.0</ele><time>2026-04-05T11:18:07.001Z</time></trkpt><trkpt lat="42.732969664708804" lon="13.639782115057164"><ele>689.0</ele><time>2026-04-05T11:18:08.001Z</time></trkpt><trkpt lat="42.732830338192066" lon="13.639681078892057"><ele>689.0</ele><time>2026-04-05T11:18:09.001Z</time></trkpt><trkpt lat="42.732723465556845" lon="13.639590430605766"><ele>689.0</ele><time>2026-04-05T11:18:10.001Z</time></trkpt><trkpt lat="42.7326162036069" lon="13.639549227860888"><ele>689.0</ele><time>2026-04-05T11:18:11.001Z</time></trkpt><trkpt lat="42.732486526293656" lon="13.639592229826551"><ele>689.0</ele><time>2026-04-05T11:18:12.001Z</time></trkpt><trkpt lat="42.73232428819514" lon="13.639665350971915"><ele>689.6666666666666</ele><time>2026-04-05T11:18:13.001Z</time></trkpt><trkpt lat="42.73214929057314" lon="13.63974721953853"><ele>690.3333333333334</ele><time>2026-04-05T11:18:14.001Z</time></trkpt><trkpt lat="42.731985041423876" lon="13.639802727420877"><ele>691.0</ele><time>2026-04-05T11:18:15.001Z</time></trkpt><trkpt lat="42.73185458851686" lon="13.639843602753386"><ele>690.5999999999999</ele><time>2026-04-05T11:18:16.001Z</time></trkpt><trkpt lat="42.731757898380636" lon="13.639875895163632"><ele>690.2</ele><time>2026-04-05T11:18:17.001Z</time></trkpt><trkpt lat="42.73169043514957" lon="13.639932270418342"><ele>689.8</ele><time>2026-04-05T11:18:18Z</time></trkpt><trkpt lat="42.73165793990501" lon="13.64013989236995"><ele>689.4000000000001</ele><time>2026-04-05T11:18:20Z</time></trkpt><trkpt lat="42.7317163176901" lon="13.640273078904427"><ele>689.0</ele><time>2026-04-05T11:18:21Z</time></trkpt><trkpt lat="42.731830475164855" lon="13.64033798587489"><ele>689.5</ele><time>2026-04-05T11:18:22Z</time></trkpt><trkpt lat="42.731941114266746" lon="13.640328167188557"><ele>690.0</ele><time>2026-04-05T11:18:23Z</time></trkpt><trkpt lat="42.73205135091733" lon="13.640293687529633"><ele>690.5</ele><time>2026-04-05T11:18:24Z</time></trkpt><trkpt lat="42.732164956772166" lon="13.640196133278462"><ele>691.0</ele><time>2026-04-05T11:18:25Z</time></trkpt><trkpt lat="42.732262543513194" lon="13.640088982333873"><ele>691.0</ele><time>2026-04-05T11:18:26Z</time></trkpt><trkpt lat="42.73235873759809" lon="13.640075154732193"><ele>691.0</ele><time>2026-04-05T11:18:27Z</time></trkpt><trkpt lat="42.732482636613575" lon="13.64012169180659"><ele>691.0</ele><time>2026-04-05T11:18:28Z</time></trkpt><trkpt lat="42.732604627150884" lon="13.640185418537339"><ele>691.0</ele><time>2026-04-05T11:18:29Z</time></trkpt><trkpt lat="42.73270645223415" lon="13.640251642196132"><ele>687.5</ele><time>2026-04-05T11:18:30Z</time></trkpt><trkpt lat="42.73277465630545" lon="13.64032446267323"><ele>684.0</ele><time>2026-04-05T11:18:31Z</time></trkpt><trkpt lat="42.73280986465818" lon="13.640432331332233"><ele>680.5</ele><time>2026-04-05T11:18:32Z</time></trkpt><trkpt lat="42.73282182964039" lon="13.640619153452908"><ele>677.0</ele><time>2026-04-05T11:18:33Z</time></trkpt><trkpt lat="42.73285229010535" lon="13.640805795914249"><ele>677.0</ele><time>2026-04-05T11:18:34Z</time></trkpt><trkpt lat="42.73287681238427" lon="13.64096890847173"><ele>677.0</ele><time>2026-04-05T11:18:35Z</time></trkpt><trkpt lat="42.7329478364129" lon="13.641108844022497"><ele>677.0</ele><time>2026-04-05T11:18:36Z</time></trkpt><trkpt lat="42.73304912805356" lon="13.641234203866382"><ele>677.0</ele><time>2026-04-05T11:18:37Z</time></trkpt><trkpt lat="42.73314528313409" lon="13.64136561860423"><ele>675.25</ele><time>2026-04-05T11:18:38Z</time></trkpt><trkpt lat="42.73324478145532" lon="13.641469698191152"><ele>673.5</ele><time>2026-04-05T11:18:39Z</time></trkpt><trkpt lat="42.733341970688706" lon="13.641553982193825"><ele>671.75</ele><time>2026-04-05T11:18:40Z</time></trkpt><trkpt lat="42.73344071851914" lon="13.641617619083915"><ele>670.0</ele><time>2026-04-05T11:18:41Z</time></trkpt><trkpt lat="42.73354399945417" lon="13.6416600414589"><ele>669.25</ele><time>2026-04-05T11:18:42Z</time></trkpt><trkpt lat="42.733652974544306" lon="13.641699732676452"><ele>668.5</ele><time>2026-04-05T11:18:43Z</time></trkpt><trkpt lat="42.733768190566295" lon="13.641735801756454"><ele>667.75</ele><time>2026-04-05T11:18:44Z</time></trkpt><trkpt lat="42.73388344314375" lon="13.641717985655962"><ele>667.0</ele><time>2026-04-05T11:18:45Z</time></trkpt><trkpt lat="42.7339960981494" lon="13.64171043958069"><ele>667.0</ele><time>2026-04-05T11:18:46Z</time></trkpt><trkpt lat="42.73410889063727" lon="13.641716445420847"><ele>667.0</ele><time>2026-04-05T11:18:47Z</time></trkpt><trkpt lat="42.73422748696742" lon="13.641702658613232"><ele>667.0</ele><time>2026-04-05T11:18:48Z</time></trkpt><trkpt lat="42.73434790530868" lon="13.641687916570037"><ele>667.0</ele><time>2026-04-05T11:18:49Z</time></trkpt><trkpt lat="42.734470855151486" lon="13.641673502423867"><ele>665.0</ele><time>2026-04-05T11:18:50Z</time></trkpt><trkpt lat="42.73459524613999" lon="13.641661752325165"><ele>663.0</ele><time>2026-04-05T11:18:51Z</time></trkpt><trkpt lat="42.734724502232886" lon="13.641650796795956"><ele>661.0</ele><time>2026-04-05T11:18:52Z</time></trkpt><trkpt lat="42.734855622512136" lon="13.641640443370614"><ele>659.0</ele><time>2026-04-05T11:18:53Z</time></trkpt><trkpt lat="42.73498821917994" lon="13.641632957431097"><ele>659.0</ele><time>2026-04-05T11:18:54Z</time></trkpt><trkpt lat="42.735124715270956" lon="13.641627291436226"><ele>659.0</ele><time>2026-04-05T11:18:55Z</time></trkpt><trkpt lat="42.73526258192383" lon="13.641624368950847"><ele>659.0</ele><time>2026-04-05T11:18:56Z</time></trkpt><trkpt lat="42.735394861175195" lon="13.641636048675055"><ele>659.0</ele><time>2026-04-05T11:18:57Z</time></trkpt><trkpt lat="42.73550840972439" lon="13.641651662273993"><ele>657.8333333333333</ele><time>2026-04-05T11:18:58Z</time></trkpt><trkpt lat="42.73561001913353" lon="13.641671159537307"><ele>656.6666666666666</ele><time>2026-04-05T11:18:59Z</time></trkpt><trkpt lat="42.735692686185644" lon="13.641694120348259"><ele>655.5</ele><time>2026-04-05T11:19:00Z</time></trkpt><trkpt lat="42.73575519765413" lon="13.641726094189993"><ele>654.3333333333334</ele><time>2026-04-05T11:19:01Z</time></trkpt><trkpt lat="42.7357983332863" lon="13.64186646616055"><ele>653.1666666666667</ele><time>2026-04-05T11:19:03Z</time></trkpt><trkpt lat="42.735741879747486" lon="13.641939315882285"><ele>652.0</ele><time>2026-04-05T11:19:04Z</time></trkpt><trkpt lat="42.735644269782696" lon="13.641965134735225"><ele>652.0</ele><time>2026-04-05T11:19:05Z</time></trkpt><trkpt lat="42.73553845555112" lon="13.64193599445551"><ele>652.0</ele><time>2026-04-05T11:19:06Z</time></trkpt><trkpt lat="42.735433230639906" lon="13.641910166885161"><ele>652.0</ele><time>2026-04-05T11:19:07Z</time></trkpt><trkpt lat="42.73534970945795" lon="13.641959218528974"><ele>652.0</ele><time>2026-04-05T11:19:08Z</time></trkpt><trkpt lat="42.73527915511801" lon="13.642086178979868"><ele>652.0</ele><time>2026-04-05T11:19:09Z</time></trkpt><trkpt lat="42.735232651403116" lon="13.642264707665735"><ele>650.75</ele><time>2026-04-05T11:19:10Z</time></trkpt><trkpt lat="42.73519133073651" lon="13.642437237528705"><ele>649.5</ele><time>2026-04-05T11:19:11Z</time></trkpt><trkpt lat="42.735147389100256" lon="13.642573886937475"><ele>648.25</ele><time>2026-04-05T11:19:12Z</time></trkpt><trkpt lat="42.735055067023886" lon="13.642695901685894"><ele>647.0</ele><time>2026-04-05T11:19:13Z</time></trkpt><trkpt lat="42.734945198899" lon="13.642811758808781"><ele>643.25</ele><time>2026-04-05T11:19:14Z</time></trkpt><trkpt lat="42.73483566691675" lon="13.642914232204106"><ele>639.5</ele><time>2026-04-05T11:19:15Z</time></trkpt><trkpt lat="42.73471369999895" lon="13.643039690565287"><ele>635.75</ele><time>2026-04-05T11:19:16Z</time></trkpt><trkpt lat="42.73460091911013" lon="13.64313903756002"><ele>632.0</ele><time>2026-04-05T11:19:17Z</time></trkpt><trkpt lat="42.73450199605576" lon="13.643233291221216"><ele>632.0</ele><time>2026-04-05T11:19:18Z</time></trkpt><trkpt lat="42.734402432165176" lon="13.643326959416616"><ele>632.0</ele><time>2026-04-05T11:19:19Z</time></trkpt><trkpt lat="42.734302029761835" lon="13.643418729179725"><ele>632.0</ele><time>2026-04-05T11:19:20Z</time></trkpt><trkpt lat="42.73420717677565" lon="13.643510774531329"><ele>632.0</ele><time>2026-04-05T11:19:21Z</time></trkpt><trkpt lat="42.734121394899375" lon="13.643593796347703"><ele>631.0</ele><time>2026-04-05T11:19:22Z</time></trkpt><trkpt lat="42.73404248394288" lon="13.643658375484613"><ele>630.0</ele><time>2026-04-05T11:19:23Z</time></trkpt><trkpt lat="42.733966103818126" lon="13.643692008133845"><ele>629.0</ele><time>2026-04-05T11:19:24Z</time></trkpt><trkpt lat="42.73387338960775" lon="13.643687354106518"><ele>628.0</ele><time>2026-04-05T11:19:25Z</time></trkpt><trkpt lat="42.73376311473952" lon="13.643651230112631"><ele>627.0</ele><time>2026-04-05T11:19:26Z</time></trkpt><trkpt lat="42.7336307422638" lon="13.643606719250071"><ele>629.0</ele><time>2026-04-05T11:19:27Z</time></trkpt><trkpt lat="42.73350813673975" lon="13.643567275438679"><ele>631.0</ele><time>2026-04-05T11:19:28Z</time></trkpt><trkpt lat="42.73340024204552" lon="13.643514116574499"><ele>633.0</ele><time>2026-04-05T11:19:29Z</time></trkpt><trkpt lat="42.7333148925022" lon="13.64342044781697"><ele>635.0</ele><time>2026-04-05T11:19:30Z</time></trkpt><trkpt lat="42.73325036709104" lon="13.643297206712768"><ele>635.0</ele><time>2026-04-05T11:19:31Z</time></trkpt><trkpt lat="42.73321468927594" lon="13.643183509801792"><ele>635.0</ele><time>2026-04-05T11:19:32.001Z</time></trkpt><trkpt lat="42.733160219517735" lon="13.643128780663458"><ele>635.0</ele><time>2026-04-05T11:19:33.001Z</time></trkpt><trkpt lat="42.73308680431957" lon="13.643113649515735"><ele>635.0</ele><time>2026-04-05T11:19:34.001Z</time></trkpt><trkpt lat="42.73302295748347" lon="13.643154497262724"><ele>635.0</ele><time>2026-04-05T11:19:35.001Z</time></trkpt><trkpt lat="42.732964105582006" lon="13.643217461324813"><ele>635.0</ele><time>2026-04-05T11:19:36.001Z</time></trkpt><trkpt lat="42.7329465607121" lon="13.643323808306299"><ele>635.0</ele><time>2026-04-05T11:19:37.001Z</time></trkpt><trkpt lat="42.733009421430125" lon="13.643453518446496"><ele>635.0</ele><time>2026-04-05T11:19:38.001Z</time></trkpt><trkpt lat="42.73309651172578" lon="13.64355637718484"><ele>635.0</ele><time>2026-04-05T11:19:39.001Z</time></trkpt><trkpt lat="42.733178670686335" lon="13.643661182587719"><ele>635.0</ele><time>2026-04-05T11:19:40.001Z</time></trkpt><trkpt lat="42.7332456708262" lon="13.643763644001517"><ele>635.0</ele><time>2026-04-05T11:19:41.001Z</time></trkpt><trkpt lat="42.733305705672144" lon="13.64387377151778"><ele>632.0</ele><time>2026-04-05T11:19:42.001Z</time></trkpt><trkpt lat="42.73335247146269" lon="13.6439864226441"><ele>629.0</ele><time>2026-04-05T11:19:43.001Z</time></trkpt><trkpt lat="42.73340486855587" lon="13.644092432543534"><ele>626.0</ele><time>2026-04-05T11:19:44.001Z</time></trkpt><trkpt lat="42.733438736071264" lon="13.644216301723402"><ele>623.0</ele><time>2026-04-05T11:19:45.001Z</time></trkpt><trkpt lat="42.73346647746458" lon="13.644370270698312"><ele>620.0</ele><time>2026-04-05T11:19:46.001Z</time></trkpt><trkpt lat="42.73350666500176" lon="13.64452417827957"><ele>619.6</ele><time>2026-04-05T11:19:47.001Z</time></trkpt><trkpt lat="42.733545478369116" lon="13.64466886679818"><ele>619.2</ele><time>2026-04-05T11:19:48.001Z</time></trkpt><trkpt lat="42.73360011396857" lon="13.644787302667561"><ele>618.8</ele><time>2026-04-05T11:19:49.001Z</time></trkpt><trkpt lat="42.73364251254996" lon="13.644887489887216"><ele>618.4</ele><time>2026-04-05T11:19:50.001Z</time></trkpt><trkpt lat="42.7336957514617" lon="13.644971099802946"><ele>618.0</ele><time>2026-04-05T11:19:51Z</time></trkpt><trkpt lat="42.73380574527308" lon="13.644979106957628"><ele>618.0</ele><time>2026-04-05T11:19:52Z</time></trkpt><trkpt lat="42.73392460041482" lon="13.644993860012265"><ele>618.0</ele><time>2026-04-05T11:19:53Z</time></trkpt><trkpt lat="42.734051390393226" lon="13.645017699813794"><ele>618.0</ele><time>2026-04-05T11:19:54Z</time></trkpt><trkpt lat="42.734163243779086" lon="13.645041767018181"><ele>618.0</ele><time>2026-04-05T11:19:55Z</time></trkpt><trkpt lat="42.73424575692192" lon="13.645066973271298"><ele>618.0</ele><time>2026-04-05T11:19:56Z</time></trkpt><trkpt lat="42.73430643980235" lon="13.64511289001348"><ele>618.0</ele><time>2026-04-05T11:19:57Z</time></trkpt><trkpt lat="42.73431955795435" lon="13.645209481582922"><ele>618.0</ele><time>2026-04-05T11:19:58Z</time></trkpt><trkpt lat="42.73425608928665" lon="13.645323869727855"><ele>618.0</ele><time>2026-04-05T11:20:00Z</time></trkpt><trkpt lat="42.73418369998617" lon="13.645395989733585"><ele>618.0</ele><time>2026-04-05T11:20:01Z</time></trkpt><trkpt lat="42.73409486552921" lon="13.645470867185166"><ele>618.0</ele><time>2026-04-05T11:20:02Z</time></trkpt><trkpt lat="42.73401212080583" lon="13.645533401570086"><ele>615.8333333333334</ele><time>2026-04-05T11:20:03Z</time></trkpt><trkpt lat="42.733951946554285" lon="13.645592954687018"><ele>613.6666666666666</ele><time>2026-04-05T11:20:04Z</time></trkpt><trkpt lat="42.733915837146995" lon="13.645666356269642"><ele>611.5</ele><time>2026-04-05T11:20:05Z</time></trkpt><trkpt lat="42.73391869622552" lon="13.645775368293128"><ele>609.3333333333333</ele><time>2026-04-05T11:20:06Z</time></trkpt><trkpt lat="42.73397791193884" lon="13.645867618118205"><ele>607.1666666666666</ele><time>2026-04-05T11:20:07Z</time></trkpt><trkpt lat="42.7340772031204" lon="13.645909944518577"><ele>605.0</ele><time>2026-04-05T11:20:08Z</time></trkpt><trkpt lat="42.73416931523367" lon="13.645957426293432"><ele>605.0</ele><time>2026-04-05T11:20:09Z</time></trkpt><trkpt lat="42.73426721111754" lon="13.646002755607313"><ele>605.0</ele><time>2026-04-05T11:20:10Z</time></trkpt><trkpt lat="42.73437478264759" lon="13.646047119006687"><ele>605.0</ele><time>2026-04-05T11:20:11Z</time></trkpt><trkpt lat="42.734487762274306" lon="13.646086205161684"><ele>605.0</ele><time>2026-04-05T11:20:12Z</time></trkpt><trkpt lat="42.73460581385297" lon="13.646107160120975"><ele>604.75</ele><time>2026-04-05T11:20:13Z</time></trkpt><trkpt lat="42.734735755167435" lon="13.646104092117003"><ele>604.5</ele><time>2026-04-05T11:20:14Z</time></trkpt><trkpt lat="42.73486772534447" lon="13.646096105837419"><ele>604.25</ele><time>2026-04-05T11:20:15Z</time></trkpt><trkpt lat="42.7349896379563" lon="13.6460912658705"><ele>604.0</ele><time>2026-04-05T11:20:16Z</time></trkpt><trkpt lat="42.73508665068614" lon="13.64608828913894"><ele>604.0</ele><time>2026-04-05T11:20:17Z</time></trkpt><trkpt lat="42.73516980540608" lon="13.646070701903513"><ele>604.0</ele><time>2026-04-05T11:20:18Z</time></trkpt><trkpt lat="42.73524048160383" lon="13.646126643807204"><ele>604.0</ele><time>2026-04-05T11:20:19Z</time></trkpt><trkpt lat="42.73526425561599" lon="13.646254084457071"><ele>604.0</ele><time>2026-04-05T11:20:20Z</time></trkpt><trkpt lat="42.735247510158715" lon="13.646387381614911"><ele>604.0</ele><time>2026-04-05T11:20:21Z</time></trkpt><trkpt lat="42.73524333439113" lon="13.646544562386602"><ele>603.0</ele><time>2026-04-05T11:20:22Z</time></trkpt><trkpt lat="42.73523225956134" lon="13.646698003172775"><ele>602.0</ele><time>2026-04-05T11:20:23Z</time></trkpt><trkpt lat="42.735210337600634" lon="13.646824904501758"><ele>601.0</ele><time>2026-04-05T11:20:24Z</time></trkpt><trkpt lat="42.73514492029581" lon="13.646905440885995"><ele>600.0</ele><time>2026-04-05T11:20:25Z</time></trkpt><trkpt lat="42.735045292612455" lon="13.646963778958472"><ele>599.0</ele><time>2026-04-05T11:20:26Z</time></trkpt><trkpt lat="42.73491733749546" lon="13.647007275530948"><ele>596.0</ele><time>2026-04-05T11:20:27Z</time></trkpt><trkpt lat="42.73478097163417" lon="13.64704593729632"><ele>593.0</ele><time>2026-04-05T11:20:28Z</time></trkpt><trkpt lat="42.73464722375457" lon="13.647051805215145"><ele>590.0</ele><time>2026-04-05T11:20:29Z</time></trkpt><trkpt lat="42.73453937845215" lon="13.647038501654286"><ele>587.0</ele><time>2026-04-05T11:20:30Z</time></trkpt><trkpt lat="42.734460048397615" lon="13.64701316851981"><ele>587.0</ele><time>2026-04-05T11:20:31Z</time></trkpt><trkpt lat="42.734391134496065" lon="13.647021798087772"><ele>587.0</ele><time>2026-04-05T11:20:32Z</time></trkpt><trkpt lat="42.73433043890634" lon="13.647092988264362"><ele>587.0</ele><time>2026-04-05T11:20:33Z</time></trkpt><trkpt lat="42.734313363347056" lon="13.647209336571818"><ele>587.0</ele><time>2026-04-05T11:20:34Z</time></trkpt><trkpt lat="42.73432003673984" lon="13.647338056840992"><ele>587.0</ele><time>2026-04-05T11:20:35Z</time></trkpt><trkpt lat="42.734400896515204" lon="13.647461505798388"><ele>587.0</ele><time>2026-04-05T11:20:36Z</time></trkpt><trkpt lat="42.734491392468236" lon="13.64758824693909"><ele>587.0</ele><time>2026-04-05T11:20:37Z</time></trkpt><trkpt lat="42.73457057708346" lon="13.647690334083695"><ele>587.0</ele><time>2026-04-05T11:20:38Z</time></trkpt><trkpt lat="42.73462581415619" lon="13.647765031207996"><ele>587.0</ele><time>2026-04-05T11:20:39Z</time></trkpt><trkpt lat="42.73465547869346" lon="13.647841813656006"><ele>587.0</ele><time>2026-04-05T11:20:40Z</time></trkpt><trkpt lat="42.73466603075154" lon="13.64792836695239"><ele>587.0</ele><time>2026-04-05T11:20:41Z</time></trkpt><trkpt lat="42.73461130613809" lon="13.64800321695667"><ele>584.6</ele><time>2026-04-05T11:20:42Z</time></trkpt><trkpt lat="42.734529706107736" lon="13.648032101633117"><ele>582.2</ele><time>2026-04-05T11:20:43Z</time></trkpt><trkpt lat="42.7344311219878" lon="13.648010934170332"><ele>579.8</ele><time>2026-04-05T11:20:44Z</time></trkpt><trkpt lat="42.73431364592698" lon="13.647967688614688"><ele>577.4</ele><time>2026-04-05T11:20:45Z</time></trkpt><trkpt lat="42.73418364295644" lon="13.647925583228162"><ele>575.0</ele><time>2026-04-05T11:20:46Z</time></trkpt><trkpt lat="42.73404944845559" lon="13.647879737517384"><ele>576.25</ele><time>2026-04-05T11:20:47Z</time></trkpt><trkpt lat="42.733930311439714" lon="13.647823603838674"><ele>577.5</ele><time>2026-04-05T11:20:48Z</time></trkpt><trkpt lat="42.73381882552392" lon="13.647759801958992"><ele>578.75</ele><time>2026-04-05T11:20:49Z</time></trkpt><trkpt lat="42.73371816807032" lon="13.64767302619445"><ele>580.0</ele><time>2026-04-05T11:20:50Z</time></trkpt><trkpt lat="42.73362331811003" lon="13.647558463735448"><ele>578.8333333333334</ele><time>2026-04-05T11:20:51Z</time></trkpt><trkpt lat="42.7335396409528" lon="13.647439395045438"><ele>577.6666666666667</ele><time>2026-04-05T11:20:52Z</time></trkpt><trkpt lat="42.733476731922764" lon="13.647359148460891"><ele>576.5</ele><time>2026-04-05T11:20:53Z</time></trkpt><trkpt lat="42.73341042100366" lon="13.647321406681955"><ele>575.3333333333334</ele><time>2026-04-05T11:20:54Z</time></trkpt><trkpt lat="42.73334864690069" lon="13.647339329766698"><ele>574.1666666666666</ele><time>2026-04-05T11:20:55Z</time></trkpt><trkpt lat="42.73329810988767" lon="13.647418224429128"><ele>573.0</ele><time>2026-04-05T11:20:56Z</time></trkpt><trkpt lat="42.73328680562415" lon="13.647539937846078"><ele>573.0</ele><time>2026-04-05T11:20:57Z</time></trkpt><trkpt lat="42.73330804254366" lon="13.647696961649231"><ele>573.0</ele><time>2026-04-05T11:20:58Z</time></trkpt><trkpt lat="42.73335014119544" lon="13.647860518889283"><ele>573.0</ele><time>2026-04-05T11:20:59Z</time></trkpt><trkpt lat="42.73335414795456" lon="13.648041295054037"><ele>573.0</ele><time>2026-04-05T11:21:00Z</time></trkpt><trkpt lat="42.73333792366733" lon="13.648202394895714"><ele>570.5</ele><time>2026-04-05T11:21:01Z</time></trkpt><trkpt lat="42.73331060487572" lon="13.648373976954778"><ele>568.0</ele><time>2026-04-05T11:21:02Z</time></trkpt><trkpt lat="42.73331750249603" lon="13.648525785992158"><ele>565.5</ele><time>2026-04-05T11:21:03Z</time></trkpt><trkpt lat="42.73334525490319" lon="13.64866796170884"><ele>563.0</ele><time>2026-04-05T11:21:04Z</time></trkpt><trkpt lat="42.73342124623129" lon="13.64877683747666"><ele>560.6666666666666</ele><time>2026-04-05T11:21:05Z</time></trkpt><trkpt lat="42.73354031571973" lon="13.648854452002714"><ele>558.3333333333334</ele><time>2026-04-05T11:21:06Z</time></trkpt><trkpt lat="42.733687202834204" lon="13.648936837619061"><ele>556.0</ele><time>2026-04-05T11:21:07Z</time></trkpt><trkpt lat="42.73382794089959" lon="13.649081596441855"><ele>556.0</ele><time>2026-04-05T11:21:08Z</time></trkpt><trkpt lat="42.73397798092845" lon="13.64921664972812"><ele>556.0</ele><time>2026-04-05T11:21:09Z</time></trkpt><trkpt lat="42.73412288994633" lon="13.649362771401716"><ele>556.0</ele><time>2026-04-05T11:21:10Z</time></trkpt><trkpt lat="42.73425374490968" lon="13.649523965601848"><ele>554.6666666666667</ele><time>2026-04-05T11:21:11Z</time></trkpt><trkpt lat="42.73439135837052" lon="13.649696450355405"><ele>553.3333333333334</ele><time>2026-04-05T11:21:12Z</time></trkpt><trkpt lat="42.73452457387988" lon="13.64986691245405"><ele>552.0</ele><time>2026-04-05T11:21:13Z</time></trkpt><trkpt lat="42.734651825236995" lon="13.650029770824784"><ele>552.0</ele><time>2026-04-05T11:21:14Z</time></trkpt><trkpt lat="42.7347587787462" lon="13.650171697304083"><ele>552.0</ele><time>2026-04-05T11:21:15Z</time></trkpt><trkpt lat="42.73482292386308" lon="13.650275173703665"><ele>552.0</ele><time>2026-04-05T11:21:16Z</time></trkpt><trkpt lat="42.73486029597719" lon="13.650413287582495"><ele>552.0</ele><time>2026-04-05T11:21:18Z</time></trkpt><trkpt lat="42.73482440353179" lon="13.650487933686376"><ele>552.0</ele><time>2026-04-05T11:21:19Z</time></trkpt><trkpt lat="42.734754982926844" lon="13.65055681743185"><ele>550.0</ele><time>2026-04-05T11:21:20Z</time></trkpt><trkpt lat="42.73464736575175" lon="13.65054890054694"><ele>548.0</ele><time>2026-04-05T11:21:21Z</time></trkpt><trkpt lat="42.73453593262088" lon="13.650563810661236"><ele>546.0</ele><time>2026-04-05T11:21:22Z</time></trkpt><trkpt lat="42.734403275033706" lon="13.650531859294759"><ele>544.0</ele><time>2026-04-05T11:21:23Z</time></trkpt><trkpt lat="42.73425389860535" lon="13.650503301469382"><ele>543.0</ele><time>2026-04-05T11:21:24Z</time></trkpt><trkpt lat="42.73409475864483" lon="13.650480203462592"><ele>542.0</ele><time>2026-04-05T11:21:25Z</time></trkpt><trkpt lat="42.73395734196562" lon="13.650457406758173"><ele>541.0</ele><time>2026-04-05T11:21:26Z</time></trkpt><trkpt lat="42.733851905126265" lon="13.6504423763032"><ele>540.0</ele><time>2026-04-05T11:21:27Z</time></trkpt><trkpt lat="42.733774274779186" lon="13.650467760171416"><ele>540.0</ele><time>2026-04-05T11:21:28Z</time></trkpt><trkpt lat="42.73372178336779" lon="13.650553665940095"><ele>540.0</ele><time>2026-04-05T11:21:29Z</time></trkpt><trkpt lat="42.73371296247288" lon="13.650707095557426"><ele>540.0</ele><time>2026-04-05T11:21:30Z</time></trkpt><trkpt lat="42.733731021363184" lon="13.650902643374483"><ele>540.0</ele><time>2026-04-05T11:21:31Z</time></trkpt><trkpt lat="42.733746001891966" lon="13.651124469736203"><ele>538.75</ele><time>2026-04-05T11:21:32Z</time></trkpt><trkpt lat="42.733768777278996" lon="13.651353212256701"><ele>537.5</ele><time>2026-04-05T11:21:33Z</time></trkpt><trkpt lat="42.733794341694924" lon="13.651534493334157"><ele>536.25</ele><time>2026-04-05T11:21:34Z</time></trkpt><trkpt lat="42.73384554744727" lon="13.65169226074665"><ele>535.0</ele><time>2026-04-05T11:21:35Z</time></trkpt><trkpt lat="42.733908869093064" lon="13.65183713635416"><ele>533.0</ele><time>2026-04-05T11:21:36Z</time></trkpt><trkpt lat="42.73397974454806" lon="13.65200048217107"><ele>531.0</ele><time>2026-04-05T11:21:37Z</time></trkpt><trkpt lat="42.73404491710301" lon="13.652148264509579"><ele>529.0</ele><time>2026-04-05T11:21:38Z</time></trkpt><trkpt lat="42.73408870664527" lon="13.652293554730011"><ele>527.0</ele><time>2026-04-05T11:21:39Z</time></trkpt><trkpt lat="42.73411270145743" lon="13.652444401881102"><ele>527.0</ele><time>2026-04-05T11:21:40Z</time></trkpt><trkpt lat="42.73413774624022" lon="13.652605378564912"><ele>527.0</ele><time>2026-04-05T11:21:41Z</time></trkpt><trkpt lat="42.73417344744337" lon="13.65275166971346"><ele>527.0</ele><time>2026-04-05T11:21:42Z</time></trkpt><trkpt lat="42.73422551564261" lon="13.652870425157701"><ele>527.0</ele><time>2026-04-05T11:21:43Z</time></trkpt><trkpt lat="42.73429544300865" lon="13.65298456179495"><ele>527.0</ele><time>2026-04-05T11:21:44Z</time></trkpt><trkpt lat="42.73437726335909" lon="13.653104509322791"><ele>525.6</ele><time>2026-04-05T11:21:45Z</time></trkpt><trkpt lat="42.7344593716117" lon="13.65322112932353"><ele>524.2</ele><time>2026-04-05T11:21:46Z</time></trkpt><trkpt lat="42.73453889044803" lon="13.653325516080342"><ele>522.8</ele><time>2026-04-05T11:21:47Z</time></trkpt><trkpt lat="42.734626079880044" lon="13.653396844374365"><ele>521.4</ele><time>2026-04-05T11:21:48Z</time></trkpt><trkpt lat="42.734704103815474" lon="13.653456017201224"><ele>520.0</ele><time>2026-04-05T11:21:49Z</time></trkpt><trkpt lat="42.734786261829925" lon="13.653486615675586"><ele>520.0</ele><time>2026-04-05T11:21:50Z</time></trkpt><trkpt lat="42.73487632271564" lon="13.653401186964766"><ele>520.0</ele><time>2026-04-05T11:21:51Z</time></trkpt><trkpt lat="42.73494852534378" lon="13.653292472706609"><ele>520.0</ele><time>2026-04-05T11:21:52Z</time></trkpt><trkpt lat="42.735016643688596" lon="13.653145275737135"><ele>520.0</ele><time>2026-04-05T11:21:53Z</time></trkpt><trkpt lat="42.735096249710764" lon="13.653040945737992"><ele>520.0</ele><time>2026-04-05T11:21:54Z</time></trkpt><trkpt lat="42.73520075796118" lon="13.65303168647697"><ele>520.0</ele><time>2026-04-05T11:21:55Z</time></trkpt><trkpt lat="42.73530860650152" lon="13.653019778242868"><ele>520.0</ele><time>2026-04-05T11:21:56Z</time></trkpt><trkpt lat="42.73542819839591" lon="13.653011672069482"><ele>520.0</ele><time>2026-04-05T11:21:57Z</time></trkpt><trkpt lat="42.73552508322354" lon="13.653036944840892"><ele>520.0</ele><time>2026-04-05T11:21:58Z</time></trkpt><trkpt lat="42.7355897883019" lon="13.653119651330421"><ele>519.75</ele><time>2026-04-05T11:22:00Z</time></trkpt><trkpt lat="42.735596104335784" lon="13.653232209263303"><ele>519.5</ele><time>2026-04-05T11:22:01Z</time></trkpt><trkpt lat="42.735612932764376" lon="13.653391946915386"><ele>519.25</ele><time>2026-04-05T11:22:02Z</time></trkpt><trkpt lat="42.73563038129461" lon="13.653586672486375"><ele>519.0</ele><time>2026-04-05T11:22:03Z</time></trkpt><trkpt lat="42.73565394173416" lon="13.653763583914639"><ele>516.75</ele><time>2026-04-05T11:22:04Z</time></trkpt><trkpt lat="42.73569321743951" lon="13.653898201776105"><ele>514.5</ele><time>2026-04-05T11:22:05Z</time></trkpt><trkpt lat="42.73578471896567" lon="13.653992830408068"><ele>512.25</ele><time>2026-04-05T11:22:06Z</time></trkpt><trkpt lat="42.73588560298391" lon="13.65409827460576"><ele>510.0</ele><time>2026-04-05T11:22:07Z</time></trkpt><trkpt lat="42.735997506262294" lon="13.65418773027607"><ele>510.75</ele><time>2026-04-05T11:22:08Z</time></trkpt><trkpt lat="42.73610676024166" lon="13.65424822976987"><ele>511.5</ele><time>2026-04-05T11:22:09Z</time></trkpt><trkpt lat="42.73622865117032" lon="13.654252130055939"><ele>512.25</ele><time>2026-04-05T11:22:10Z</time></trkpt><trkpt lat="42.73635485980817" lon="13.654289317528686"><ele>513.0</ele><time>2026-04-05T11:22:11Z</time></trkpt><trkpt lat="42.736490591269416" lon="13.654311435808157"><ele>513.0</ele><time>2026-04-05T11:22:12Z</time></trkpt><trkpt lat="42.73662896647258" lon="13.654330963891367"><ele>513.0</ele><time>2026-04-05T11:22:13Z</time></trkpt><trkpt lat="42.73676045922976" lon="13.654348268129395"><ele>513.0</ele><time>2026-04-05T11:22:14Z</time></trkpt><trkpt lat="42.73687663408676" lon="13.65436203677226"><ele>513.0</ele><time>2026-04-05T11:22:15Z</time></trkpt><trkpt lat="42.73697783722045" lon="13.654395167839699"><ele>511.2</ele><time>2026-04-05T11:22:16Z</time></trkpt><trkpt lat="42.737056865998774" lon="13.654453886165458"><ele>509.4</ele><time>2026-04-05T11:22:17Z</time></trkpt><trkpt lat="42.73710548268977" lon="13.654548407169084"><ele>507.59999999999997</ele><time>2026-04-05T11:22:18Z</time></trkpt><trkpt lat="42.73713145026108" lon="13.654679381988272"><ele>505.79999999999995</ele><time>2026-04-05T11:22:19Z</time></trkpt><trkpt lat="42.73710354065767" lon="13.654835086918288"><ele>504.0</ele><time>2026-04-05T11:22:20Z</time></trkpt><trkpt lat="42.73705214417443" lon="13.65499901595027"><ele>504.0</ele><time>2026-04-05T11:22:21Z</time></trkpt><trkpt lat="42.73697280050414" lon="13.655144616515614"><ele>504.0</ele><time>2026-04-05T11:22:22Z</time></trkpt><trkpt lat="42.73689934589852" lon="13.655309399764025"><ele>504.0</ele><time>2026-04-05T11:22:23Z</time></trkpt><trkpt lat="42.73680981986271" lon="13.655454610837973"><ele>504.0</ele><time>2026-04-05T11:22:24Z</time></trkpt><trkpt lat="42.736729409720006" lon="13.655596823725231"><ele>504.0</ele><time>2026-04-05T11:22:25Z</time></trkpt><trkpt lat="42.73665642851368" lon="13.655732130258286"><ele>504.0</ele><time>2026-04-05T11:22:26Z</time></trkpt><trkpt lat="42.73659134098036" lon="13.655841751755476"><ele>504.0</ele><time>2026-04-05T11:22:27Z</time></trkpt><trkpt lat="42.73651318266203" lon="13.655935502182269"><ele>504.0</ele><time>2026-04-05T11:22:28Z</time></trkpt><trkpt lat="42.736406119939815" lon="13.655991013199042"><ele>504.0</ele><time>2026-04-05T11:22:29Z</time></trkpt><trkpt lat="42.73628288944" lon="13.656022844318123"><ele>504.0</ele><time>2026-04-05T11:22:30Z</time></trkpt><trkpt lat="42.73614173725775" lon="13.656020732401316"><ele>504.0</ele><time>2026-04-05T11:22:31Z</time></trkpt><trkpt lat="42.73601954318795" lon="13.65601495953589"><ele>504.0</ele><time>2026-04-05T11:22:32Z</time></trkpt><trkpt lat="42.73591985642598" lon="13.656037403710414"><ele>504.0</ele><time>2026-04-05T11:22:33Z</time></trkpt><trkpt lat="42.73583557357107" lon="13.656108562337856"><ele>500.25</ele><time>2026-04-05T11:22:34Z</time></trkpt><trkpt lat="42.73576836439413" lon="13.656225372729695"><ele>496.5</ele><time>2026-04-05T11:22:35Z</time></trkpt><trkpt lat="42.73571183173876" lon="13.656345832458417"><ele>492.75</ele><time>2026-04-05T11:22:36Z</time></trkpt><trkpt lat="42.735726599381046" lon="13.656511015740858"><ele>489.0</ele><time>2026-04-05T11:22:37Z</time></trkpt><trkpt lat="42.73576447023253" lon="13.656668257465027"><ele>489.0</ele><time>2026-04-05T11:22:38Z</time></trkpt><trkpt lat="42.735845056428715" lon="13.656810694145697"><ele>489.0</ele><time>2026-04-05T11:22:39Z</time></trkpt><trkpt lat="42.73595340311355" lon="13.656924428051703"><ele>489.0</ele><time>2026-04-05T11:22:40Z</time></trkpt><trkpt lat="42.736076019223695" lon="13.657007213313257"><ele>489.0</ele><time>2026-04-05T11:22:41Z</time></trkpt><trkpt lat="42.73617134790673" lon="13.657117357736412"><ele>489.5</ele><time>2026-04-05T11:22:42Z</time></trkpt><trkpt lat="42.73624978077139" lon="13.65724080886077"><ele>490.0</ele><time>2026-04-05T11:22:43Z</time></trkpt><trkpt lat="42.73629309830512" lon="13.65738960280626"><ele>490.5</ele><time>2026-04-05T11:22:44Z</time></trkpt><trkpt lat="42.73632081905033" lon="13.657545043182148"><ele>491.0</ele><time>2026-04-05T11:22:45Z</time></trkpt><trkpt lat="42.736321951868966" lon="13.65772010289202"><ele>488.0</ele><time>2026-04-05T11:22:46Z</time></trkpt><trkpt lat="42.73632461183545" lon="13.657923770199751"><ele>485.0</ele><time>2026-04-05T11:22:47Z</time></trkpt><trkpt lat="42.73632529666223" lon="13.658141294343116"><ele>482.0</ele><time>2026-04-05T11:22:48Z</time></trkpt><trkpt lat="42.73632601136063" lon="13.658368305964318"><ele>482.0</ele><time>2026-04-05T11:22:49Z</time></trkpt><trkpt lat="42.73632881401798" lon="13.65858396489818"><ele>482.0</ele><time>2026-04-05T11:22:50Z</time></trkpt><trkpt lat="42.736333566025905" lon="13.658793050905649"><ele>482.0</ele><time>2026-04-05T11:22:51Z</time></trkpt><trkpt lat="42.73635318175959" lon="13.658982028540557"><ele>481.0</ele><time>2026-04-05T11:22:52Z</time></trkpt><trkpt lat="42.73633325349833" lon="13.659152950146648"><ele>480.0</ele><time>2026-04-05T11:22:53Z</time></trkpt><trkpt lat="42.73631570019778" lon="13.65930334045241"><ele>479.0</ele><time>2026-04-05T11:22:54Z</time></trkpt><trkpt lat="42.736288473458025" lon="13.659468597664294"><ele>478.0</ele><time>2026-04-05T11:22:55Z</time></trkpt><trkpt lat="42.73621207381046" lon="13.659609574961541"><ele>475.33333333333337</ele><time>2026-04-05T11:22:56Z</time></trkpt><trkpt lat="42.73611134296633" lon="13.659727587326845"><ele>472.66666666666663</ele><time>2026-04-05T11:22:57Z</time></trkpt><trkpt lat="42.735971676597586" lon="13.659830735479309"><ele>470.0</ele><time>2026-04-05T11:22:57.999Z</time></trkpt><trkpt lat="42.735822335517476" lon="13.65994018496306"><ele>470.0</ele><time>2026-04-05T11:22:58.999Z</time></trkpt><trkpt lat="42.7356754813245" lon="13.660061958145107"><ele>470.0</ele><time>2026-04-05T11:22:59.999Z</time></trkpt><trkpt lat="42.73553151901833" lon="13.660182766706994"><ele>470.0</ele><time>2026-04-05T11:23:00.999Z</time></trkpt><trkpt lat="42.73539639164869" lon="13.660301352187656"><ele>468.0</ele><time>2026-04-05T11:23:01.999Z</time></trkpt><trkpt lat="42.73525706271317" lon="13.660421049226999"><ele>466.0</ele><time>2026-04-05T11:23:02.999Z</time></trkpt><trkpt lat="42.73510815475511" lon="13.660545942088563"><ele>464.0</ele><time>2026-04-05T11:23:03.999Z</time></trkpt><trkpt lat="42.73496933594823" lon="13.660665346492559"><ele>463.5</ele><time>2026-04-05T11:23:04.999Z</time></trkpt><trkpt lat="42.734844031927906" lon="13.660769468117225"><ele>463.0</ele><time>2026-04-05T11:23:05.999Z</time></trkpt><trkpt lat="42.734735589115495" lon="13.660849419300503"><ele>462.5</ele><time>2026-04-05T11:23:06.999Z</time></trkpt><trkpt lat="42.734635655378604" lon="13.660914104575792"><ele>462.0</ele><time>2026-04-05T11:23:07.999Z</time></trkpt><trkpt lat="42.73455746527488" lon="13.660981448891606"><ele>462.0</ele><time>2026-04-05T11:23:08.999Z</time></trkpt><trkpt lat="42.7344896433601" lon="13.661039431416595"><ele>462.00000000000006</ele><time>2026-04-05T11:23:09.999Z</time></trkpt><trkpt lat="42.734434593363694" lon="13.661100229685083"><ele>462.00000000000006</ele><time>2026-04-05T11:23:10.999Z</time></trkpt><trkpt lat="42.734406577287636" lon="13.66122853323639"><ele>462.0</ele><time>2026-04-05T11:23:12.999Z</time></trkpt><trkpt lat="42.734546486848856" lon="13.661341797557606"><ele>462.0</ele><time>2026-04-05T11:23:14.999Z</time></trkpt><trkpt lat="42.734631332173954" lon="13.661334475655135"><ele>460.75</ele><time>2026-04-05T11:23:15.999Z</time></trkpt><trkpt lat="42.734742451837676" lon="13.661325764387628"><ele>459.5</ele><time>2026-04-05T11:23:16.999Z</time></trkpt><trkpt lat="42.734873917571086" lon="13.661325041818062"><ele>458.25</ele><time>2026-04-05T11:23:17.999Z</time></trkpt><trkpt lat="42.73502623739219" lon="13.661314167485804"><ele>457.0</ele><time>2026-04-05T11:23:18.999Z</time></trkpt><trkpt lat="42.73519701227346" lon="13.66129424098792"><ele>456.6666666666667</ele><time>2026-04-05T11:23:19.999Z</time></trkpt><trkpt lat="42.73537639656713" lon="13.661269024359397"><ele>456.33333333333337</ele><time>2026-04-05T11:23:20.999Z</time></trkpt><trkpt lat="42.73555703202537" lon="13.661240147064841"><ele>456.0</ele><time>2026-04-05T11:23:21.999Z</time></trkpt><trkpt lat="42.73573505251776" lon="13.661195164393655"><ele>456.0</ele><time>2026-04-05T11:23:22.999Z</time></trkpt><trkpt lat="42.73590842695818" lon="13.661118111457665"><ele>456.0</ele><time>2026-04-05T11:23:23.999Z</time></trkpt><trkpt lat="42.73607415030458" lon="13.661003921317425"><ele>456.0</ele><time>2026-04-05T11:23:24.999Z</time></trkpt><trkpt lat="42.73622782907895" lon="13.66085873539534"><ele>455.66666666666663</ele><time>2026-04-05T11:23:25.999Z</time></trkpt><trkpt lat="42.73636916665486" lon="13.660683822446746"><ele>455.3333333333333</ele><time>2026-04-05T11:23:26.999Z</time></trkpt><trkpt lat="42.73649688540526" lon="13.660477730452481"><ele>455.0</ele><time>2026-04-05T11:23:27.999Z</time></trkpt><trkpt lat="42.73661231276319" lon="13.660243989203927"><ele>452.3333333333333</ele><time>2026-04-05T11:23:28.999Z</time></trkpt><trkpt lat="42.7367147984068" lon="13.659998315048634"><ele>449.66666666666663</ele><time>2026-04-05T11:23:29.999Z</time></trkpt><trkpt lat="42.73682002325669" lon="13.659734992852497"><ele>447.0</ele><time>2026-04-05T11:23:30.999Z</time></trkpt><trkpt lat="42.736936056739225" lon="13.659462335021352"><ele>451.5</ele><time>2026-04-05T11:23:31.999Z</time></trkpt><trkpt lat="42.73705252402403" lon="13.659182161486854"><ele>456.0</ele><time>2026-04-05T11:23:32.999Z</time></trkpt><trkpt lat="42.73716822852086" lon="13.658897190085211"><ele>462.5</ele><time>2026-04-05T11:23:33.999Z</time></trkpt><trkpt lat="42.7372916893538" lon="13.658615146898702"><ele>469.0</ele><time>2026-04-05T11:23:34.999Z</time></trkpt><trkpt lat="42.737425156230486" lon="13.65834167962333"><ele>469.0</ele><time>2026-04-05T11:23:35.999Z</time></trkpt><trkpt lat="42.73756672562146" lon="13.658084067557779"><ele>469.0</ele><time>2026-04-05T11:23:36.999Z</time></trkpt><trkpt lat="42.737721294154305" lon="13.657849023754808"><ele>464.5</ele><time>2026-04-05T11:23:37.999Z</time></trkpt><trkpt lat="42.73789930223578" lon="13.657632335151437"><ele>460.0</ele><time>2026-04-05T11:23:38.999Z</time></trkpt><trkpt lat="42.738089476436805" lon="13.657417938367708"><ele>460.0</ele><time>2026-04-05T11:23:39.999Z</time></trkpt><trkpt lat="42.73827988526226" lon="13.657202864948042"><ele>460.0</ele><time>2026-04-05T11:23:40.999Z</time></trkpt><trkpt lat="42.73847482138556" lon="13.656975613906143"><ele>461.5</ele><time>2026-04-05T11:23:41.999Z</time></trkpt><trkpt lat="42.738669420001344" lon="13.656740927827123"><ele>463.0</ele><time>2026-04-05T11:23:42.999Z</time></trkpt><trkpt lat="42.738863860920304" lon="13.656507765753716"><ele>463.0</ele><time>2026-04-05T11:23:44Z</time></trkpt><trkpt lat="42.73904186200702" lon="13.656300703319719"><ele>463.0</ele><time>2026-04-05T11:23:45Z</time></trkpt><trkpt lat="42.73919354410866" lon="13.656128634602215"><ele>463.0</ele><time>2026-04-05T11:23:46Z</time></trkpt><trkpt lat="42.73933905507415" lon="13.655997047394184"><ele>462.0</ele><time>2026-04-05T11:23:47Z</time></trkpt><trkpt lat="42.73950155200958" lon="13.65594184552717"><ele>461.0</ele><time>2026-04-05T11:23:48Z</time></trkpt><trkpt lat="42.73967309524596" lon="13.655894149350495"><ele>460.0</ele><time>2026-04-05T11:23:49Z</time></trkpt><trkpt lat="42.73986465817892" lon="13.655927261398773"><ele>460.0</ele><time>2026-04-05T11:23:50Z</time></trkpt><trkpt lat="42.74003767207523" lon="13.655933341108362"><ele>460.0</ele><time>2026-04-05T11:23:51Z</time></trkpt><trkpt lat="42.7401756654663" lon="13.655943090946334"><ele>460.0</ele><time>2026-04-05T11:23:52Z</time></trkpt><trkpt lat="42.740287639254305" lon="13.655955591955351"><ele>460.0</ele><time>2026-04-05T11:23:53Z</time></trkpt><trkpt lat="42.740382963446905" lon="13.656051144634056"><ele>464.0</ele><time>2026-04-05T11:23:54Z</time></trkpt><trkpt lat="42.74043811896328" lon="13.656204665619573"><ele>468.0</ele><time>2026-04-05T11:23:55Z</time></trkpt><trkpt lat="42.74047329739511" lon="13.656373582630124"><ele>472.0</ele><time>2026-04-05T11:23:56Z</time></trkpt><trkpt lat="42.740487394337215" lon="13.65654329210508"><ele>476.0</ele><time>2026-04-05T11:23:57Z</time></trkpt><trkpt lat="42.74044462570633" lon="13.65670466866695"><ele>476.0</ele><time>2026-04-05T11:23:58Z</time></trkpt><trkpt lat="42.74033847504057" lon="13.656835111756122"><ele>476.0</ele><time>2026-04-05T11:23:59Z</time></trkpt><trkpt lat="42.740208201948136" lon="13.65695972910535"><ele>476.0</ele><time>2026-04-05T11:24:00Z</time></trkpt><trkpt lat="42.74010065746184" lon="13.657094637926877"><ele>476.0</ele><time>2026-04-05T11:24:01Z</time></trkpt><trkpt lat="42.74002970739307" lon="13.65724100069127"><ele>472.75</ele><time>2026-04-05T11:24:02Z</time></trkpt><trkpt lat="42.73998998791985" lon="13.657386330677333"><ele>469.5</ele><time>2026-04-05T11:24:03Z</time></trkpt><trkpt lat="42.73997769787472" lon="13.657540617064987"><ele>466.25</ele><time>2026-04-05T11:24:04Z</time></trkpt><trkpt lat="42.74002717300954" lon="13.657715095595764"><ele>463.0</ele><time>2026-04-05T11:24:05Z</time></trkpt><trkpt lat="42.74014287250641" lon="13.657856026555956"><ele>464.33333333333337</ele><time>2026-04-05T11:24:06Z</time></trkpt><trkpt lat="42.74026413166875" lon="13.657995099942173"><ele>465.66666666666663</ele><time>2026-04-05T11:24:07Z</time></trkpt><trkpt lat="42.74042519161685" lon="13.658041384918274"><ele>467.0</ele><time>2026-04-05T11:24:08Z</time></trkpt><trkpt lat="42.74059240526043" lon="13.658083501057261"><ele>467.0</ele><time>2026-04-05T11:24:09Z</time></trkpt><trkpt lat="42.74075774663715" lon="13.658128607283176"><ele>467.0</ele><time>2026-04-05T11:24:10Z</time></trkpt><trkpt lat="42.740927041689" lon="13.65811594084113"><ele>467.0</ele><time>2026-04-05T11:24:11Z</time></trkpt><trkpt lat="42.741090584332305" lon="13.658070243189206"><ele>467.75</ele><time>2026-04-05T11:24:12Z</time></trkpt><trkpt lat="42.74124238900235" lon="13.658021448887741"><ele>468.5</ele><time>2026-04-05T11:24:13Z</time></trkpt><trkpt lat="42.74138081918889" lon="13.657993567060062"><ele>469.25</ele><time>2026-04-05T11:24:14Z</time></trkpt><trkpt lat="42.74150793016975" lon="13.65800837240065"><ele>470.0</ele><time>2026-04-05T11:24:15Z</time></trkpt><trkpt lat="42.74162226148941" lon="13.65807808743859"><ele>470.0</ele><time>2026-04-05T11:24:16Z</time></trkpt><trkpt lat="42.7417350064627" lon="13.658179697335292"><ele>470.0</ele><time>2026-04-05T11:24:17Z</time></trkpt><trkpt lat="42.74184241906564" lon="13.658285952532133"><ele>470.0</ele><time>2026-04-05T11:24:18Z</time></trkpt><trkpt lat="42.74193865814305" lon="13.658384319726613"><ele>470.0</ele><time>2026-04-05T11:24:19Z</time></trkpt><trkpt lat="42.742037681550705" lon="13.658486392316584"><ele>470.75</ele><time>2026-04-05T11:24:20Z</time></trkpt><trkpt lat="42.742144622114374" lon="13.658596625157045"><ele>471.5</ele><time>2026-04-05T11:24:21Z</time></trkpt><trkpt lat="42.742243031722545" lon="13.658698064767389"><ele>472.25</ele><time>2026-04-05T11:24:22Z</time></trkpt><trkpt lat="42.7423284076879" lon="13.65877998509338"><ele>473.0</ele><time>2026-04-05T11:24:23Z</time></trkpt><trkpt lat="42.74240266316843" lon="13.65884698247181"><ele>472.99999999999994</ele><time>2026-04-05T11:24:24Z</time></trkpt><trkpt lat="42.742477364698665" lon="13.658903883494721"><ele>473.0</ele><time>2026-04-05T11:24:25Z</time></trkpt><trkpt lat="42.74255572797149" lon="13.658934594493784"><ele>473.0</ele><time>2026-04-05T11:24:26Z</time></trkpt><trkpt lat="42.742644373821975" lon="13.658921097153044"><ele>473.0</ele><time>2026-04-05T11:24:27Z</time></trkpt><trkpt lat="42.7427212812717" lon="13.658850826660622"><ele>472.99999999999994</ele><time>2026-04-05T11:24:28Z</time></trkpt><trkpt lat="42.7427704200064" lon="13.658749343320304"><ele>473.0</ele><time>2026-04-05T11:24:29Z</time></trkpt><trkpt lat="42.74278799280739" lon="13.658611250256511"><ele>472.3333333333333</ele><time>2026-04-05T11:24:30Z</time></trkpt><trkpt lat="42.74277834560734" lon="13.658422261771307"><ele>471.66666666666663</ele><time>2026-04-05T11:24:31Z</time></trkpt><trkpt lat="42.742770592799516" lon="13.65819138290097"><ele>471.0</ele><time>2026-04-05T11:24:32Z</time></trkpt><trkpt lat="42.74277453882795" lon="13.65794977663946"><ele>472.66666666666663</ele><time>2026-04-05T11:24:32.999Z</time></trkpt><trkpt lat="42.742781919856256" lon="13.657718080949229"><ele>474.3333333333333</ele><time>2026-04-05T11:24:33.999Z</time></trkpt><trkpt lat="42.74278585014283" lon="13.657447769578665"><ele>476.0</ele><time>2026-04-05T11:24:34.999Z</time></trkpt><trkpt lat="42.742784071725886" lon="13.657160043403318"><ele>478.0</ele><time>2026-04-05T11:24:35.999Z</time></trkpt><trkpt lat="42.74279095261498" lon="13.656872419965222"><ele>480.0</ele><time>2026-04-05T11:24:36.999Z</time></trkpt><trkpt lat="42.74281678825401" lon="13.656589262247493"><ele>482.0</ele><time>2026-04-05T11:24:37.999Z</time></trkpt><trkpt lat="42.742855977126766" lon="13.656324181000365"><ele>483.66666666666663</ele><time>2026-04-05T11:24:38.999Z</time></trkpt><trkpt lat="42.74290802459116" lon="13.656078813246678"><ele>485.33333333333337</ele><time>2026-04-05T11:24:39.999Z</time></trkpt><trkpt lat="42.74300458548199" lon="13.65589588114906"><ele>487.0</ele><time>2026-04-05T11:24:40.999Z</time></trkpt><trkpt lat="42.7430952163125" lon="13.655748253094432"><ele>487.0</ele><time>2026-04-05T11:24:41.999Z</time></trkpt><trkpt lat="42.74320770355308" lon="13.65563847645382"><ele>487.0</ele><time>2026-04-05T11:24:42.999Z</time></trkpt><trkpt lat="42.743337167616076" lon="13.655553244510681"><ele>487.0</ele><time>2026-04-05T11:24:43.999Z</time></trkpt><trkpt lat="42.74347702563188" lon="13.655512799515709"><ele>487.0</ele><time>2026-04-05T11:24:44.999Z</time></trkpt><trkpt lat="42.74362934675641" lon="13.655510281110992"><ele>488.6666666666667</ele><time>2026-04-05T11:24:45.999Z</time></trkpt><trkpt lat="42.74379962427564" lon="13.65554976731714"><ele>490.33333333333337</ele><time>2026-04-05T11:24:46.999Z</time></trkpt><trkpt lat="42.743987220097694" lon="13.655615967478887"><ele>492.0</ele><time>2026-04-05T11:24:47.999Z</time></trkpt><trkpt lat="42.744169416123036" lon="13.655717387495743"><ele>492.0</ele><time>2026-04-05T11:24:48.999Z</time></trkpt><trkpt lat="42.74433825042659" lon="13.655850209494439"><ele>492.0</ele><time>2026-04-05T11:24:49.999Z</time></trkpt><trkpt lat="42.74449668331865" lon="13.656018877206538"><ele>492.0</ele><time>2026-04-05T11:24:50.999Z</time></trkpt><trkpt lat="42.74466143462493" lon="13.656212987781934"><ele>492.66666666666663</ele><time>2026-04-05T11:24:51.999Z</time></trkpt><trkpt lat="42.744788883407935" lon="13.656397469599295"><ele>493.3333333333333</ele><time>2026-04-05T11:24:52.999Z</time></trkpt><trkpt lat="42.744867637167005" lon="13.656563339488523"><ele>494.0</ele><time>2026-04-05T11:24:53.999Z</time></trkpt><trkpt lat="42.744915092984" lon="13.656730443640475"><ele>494.0</ele><time>2026-04-05T11:24:54.999Z</time></trkpt><trkpt lat="42.74492136003749" lon="13.656918398437192"><ele>494.0</ele><time>2026-04-05T11:24:55.999Z</time></trkpt><trkpt lat="42.74489648571034" lon="13.65710970464368"><ele>494.0</ele><time>2026-04-05T11:24:56.999Z</time></trkpt><trkpt lat="42.74487341116987" lon="13.657327462258932"><ele>494.0</ele><time>2026-04-05T11:24:57.999Z</time></trkpt><trkpt lat="42.74488576681295" lon="13.657491617387919"><ele>494.0</ele><time>2026-04-05T11:24:58.999Z</time></trkpt><trkpt lat="42.74493503137511" lon="13.657620618756045"><ele>494.0</ele><time>2026-04-05T11:24:59.999Z</time></trkpt><trkpt lat="42.7450309933326" lon="13.657764973506819"><ele>494.0</ele><time>2026-04-05T11:25:00.999Z</time></trkpt><trkpt lat="42.74517847530086" lon="13.657871185717973"><ele>494.0</ele><time>2026-04-05T11:25:01.999Z</time></trkpt><trkpt lat="42.74535417412216" lon="13.657940763924591"><ele>494.0</ele><time>2026-04-05T11:25:02.999Z</time></trkpt><trkpt lat="42.74558672893246" lon="13.657979914821091"><ele>494.0</ele><time>2026-04-05T11:25:03.999Z</time></trkpt><trkpt lat="42.74579446871599" lon="13.658031966664447"><ele>494.0</ele><time>2026-04-05T11:25:04.999Z</time></trkpt><trkpt lat="42.74598185292051" lon="13.658070719872923"><ele>492.66666666666663</ele><time>2026-04-05T11:25:05.999Z</time></trkpt><trkpt lat="42.746141824291946" lon="13.658061498801613"><ele>491.33333333333337</ele><time>2026-04-05T11:25:06.999Z</time></trkpt><trkpt lat="42.74628142384773" lon="13.658036931546214"><ele>490.0</ele><time>2026-04-05T11:25:07.999Z</time></trkpt><trkpt lat="42.74642658029986" lon="13.65794517960273"><ele>490.0</ele><time>2026-04-05T11:25:08.999Z</time></trkpt><trkpt lat="42.746569372529336" lon="13.657793743238466"><ele>490.0</ele><time>2026-04-05T11:25:09.999Z</time></trkpt><trkpt lat="42.74671172132733" lon="13.657693143332672"><ele>490.0</ele><time>2026-04-05T11:25:10.999Z</time></trkpt><trkpt lat="42.7468446236629" lon="13.657653720785998"><ele>495.33333333333337</ele><time>2026-04-05T11:25:11.999Z</time></trkpt><trkpt lat="42.74699143447363" lon="13.657683841303841"><ele>500.66666666666663</ele><time>2026-04-05T11:25:12.999Z</time></trkpt><trkpt lat="42.747170440018735" lon="13.657725270795034"><ele>506.0</ele><time>2026-04-05T11:25:13.999Z</time></trkpt><trkpt lat="42.74736452785942" lon="13.657746999384553"><ele>506.0</ele><time>2026-04-05T11:25:14.999Z</time></trkpt><trkpt lat="42.74755432818714" lon="13.657699511815775"><ele>506.0</ele><time>2026-04-05T11:25:15.999Z</time></trkpt><trkpt lat="42.74771331573645" lon="13.657697318370019"><ele>506.0</ele><time>2026-04-05T11:25:16.999Z</time></trkpt><trkpt lat="42.74783091980895" lon="13.657698731769713"><ele>506.25</ele><time>2026-04-05T11:25:17.999Z</time></trkpt><trkpt lat="42.74793923849281" lon="13.657752755021287"><ele>506.5</ele><time>2026-04-05T11:25:18.999Z</time></trkpt><trkpt lat="42.748027398001874" lon="13.657876464234583"><ele>506.75</ele><time>2026-04-05T11:25:19.999Z</time></trkpt><trkpt lat="42.74809250333803" lon="13.658053672006519"><ele>507.0</ele><time>2026-04-05T11:25:20.999Z</time></trkpt><trkpt lat="42.748184042552104" lon="13.658180924794234"><ele>504.75</ele><time>2026-04-05T11:25:21.999Z</time></trkpt><trkpt lat="42.748275257644636" lon="13.658260314252521"><ele>502.5</ele><time>2026-04-05T11:25:22.999Z</time></trkpt><trkpt lat="42.74839754307982" lon="13.658263279099085"><ele>500.25</ele><time>2026-04-05T11:25:23.999Z</time></trkpt><trkpt lat="42.74852452254363" lon="13.65819726380579"><ele>498.0</ele><time>2026-04-05T11:25:24.999Z</time></trkpt><trkpt lat="42.74863446304795" lon="13.65806803739109"><ele>496.33333333333337</ele><time>2026-04-05T11:25:25.999Z</time></trkpt><trkpt lat="42.748708854219856" lon="13.657882720357486"><ele>494.6666666666667</ele><time>2026-04-05T11:25:26.999Z</time></trkpt><trkpt lat="42.74875731047828" lon="13.657649985911217"><ele>493.0</ele><time>2026-04-05T11:25:27.999Z</time></trkpt><trkpt lat="42.748798098293435" lon="13.657409976198812"><ele>493.0</ele><time>2026-04-05T11:25:28.999Z</time></trkpt><trkpt lat="42.74885900447093" lon="13.657221686805034"><ele>493.0</ele><time>2026-04-05T11:25:29.999Z</time></trkpt><trkpt lat="42.74895483022552" lon="13.657082059059043"><ele>493.0</ele><time>2026-04-05T11:25:30.999Z</time></trkpt><trkpt lat="42.74909567316812" lon="13.657027211425078"><ele>493.0</ele><time>2026-04-05T11:25:31.999Z</time></trkpt><trkpt lat="42.74923085892876" lon="13.656913883523943"><ele>496.0</ele><time>2026-04-05T11:25:32.999Z</time></trkpt><trkpt lat="42.74937743316002" lon="13.656817781787723"><ele>499.0</ele><time>2026-04-05T11:25:33.999Z</time></trkpt><trkpt lat="42.74951988967073" lon="13.656719880059635"><ele>502.0</ele><time>2026-04-05T11:25:34.999Z</time></trkpt><trkpt lat="42.749660872814665" lon="13.65663650291266"><ele>502.0</ele><time>2026-04-05T11:25:35.999Z</time></trkpt><trkpt lat="42.749788322929696" lon="13.656589453759235"><ele>502.0</ele><time>2026-04-05T11:25:36.999Z</time></trkpt><trkpt lat="42.74990485600325" lon="13.656526201042304"><ele>502.0</ele><time>2026-04-05T11:25:37.999Z</time></trkpt><trkpt lat="42.75000314881976" lon="13.656487514012623"><ele>502.0</ele><time>2026-04-05T11:25:38.999Z</time></trkpt><trkpt lat="42.75009092181583" lon="13.656460143289644"><ele>502.00000000000006</ele><time>2026-04-05T11:25:39.999Z</time></trkpt><trkpt lat="42.7501666792297" lon="13.656444571238955"><ele>502.0</ele><time>2026-04-05T11:25:40.999Z</time></trkpt><trkpt lat="42.750244276830074" lon="13.656442175546267"><ele>502.0</ele><time>2026-04-05T11:25:41.999Z</time></trkpt><trkpt lat="42.75031004809609" lon="13.65645020064626"><ele>502.0</ele><time>2026-04-05T11:25:42.999Z</time></trkpt><trkpt lat="42.750368316713406" lon="13.656507775566405"><ele>502.00000000000006</ele><time>2026-04-05T11:25:44.999Z</time></trkpt><trkpt lat="42.75040438440851" lon="13.65635087544803"><ele>502.0</ele><time>2026-04-05T11:26:17.999Z</time></trkpt><trkpt lat="42.75037140552831" lon="13.65643863026337"><ele>502.6</ele><time>2026-04-05T11:26:27.999Z</time></trkpt><trkpt lat="42.75039880135387" lon="13.656517074957955"><ele>503.20000000000005</ele><time>2026-04-05T11:26:28.999Z</time></trkpt><trkpt lat="42.750467944307374" lon="13.656602735184327"><ele>503.8</ele><time>2026-04-05T11:26:29.999Z</time></trkpt><trkpt lat="42.75051199225295" lon="13.65671593015228"><ele>504.4</ele><time>2026-04-05T11:26:30.999Z</time></trkpt><trkpt lat="42.75055297666787" lon="13.656842484867031"><ele>505.0</ele><time>2026-04-05T11:26:31.999Z</time></trkpt><trkpt lat="42.750566815472865" lon="13.65700189528453"><ele>505.5</ele><time>2026-04-05T11:26:32.999Z</time></trkpt><trkpt lat="42.750556319388664" lon="13.657179619487557"><ele>506.0</ele><time>2026-04-05T11:26:33.999Z</time></trkpt><trkpt lat="42.7505244900166" lon="13.657375335845062"><ele>506.5</ele><time>2026-04-05T11:26:34.999Z</time></trkpt><trkpt lat="42.75048410800419" lon="13.657583112950785"><ele>507.0</ele><time>2026-04-05T11:26:35.999Z</time></trkpt><trkpt lat="42.75044201672733" lon="13.657780613321421"><ele>508.33333333333337</ele><time>2026-04-05T11:26:36.999Z</time></trkpt><trkpt lat="42.75039955104332" lon="13.657982902651497"><ele>509.6666666666667</ele><time>2026-04-05T11:26:37.999Z</time></trkpt><trkpt lat="42.75035939775081" lon="13.65819337134963"><ele>511.0</ele><time>2026-04-05T11:26:38.999Z</time></trkpt><trkpt lat="42.75033350993756" lon="13.658424963885171"><ele>511.33333333333337</ele><time>2026-04-05T11:26:39.999Z</time></trkpt><trkpt lat="42.750323723855466" lon="13.658673559658563"><ele>511.66666666666663</ele><time>2026-04-05T11:26:40.999Z</time></trkpt><trkpt lat="42.75033570680348" lon="13.658935055967032"><ele>512.0</ele><time>2026-04-05T11:26:41.999Z</time></trkpt><trkpt lat="42.75033744703822" lon="13.659184628995783"><ele>512.0</ele><time>2026-04-05T11:26:42.999Z</time></trkpt><trkpt lat="42.75033492320354" lon="13.659411193171938"><ele>512.0</ele><time>2026-04-05T11:26:43.999Z</time></trkpt><trkpt lat="42.75038332186039" lon="13.659608400539781"><ele>512.0</ele><time>2026-04-05T11:26:44.999Z</time></trkpt><trkpt lat="42.750435120734224" lon="13.6597928487614"><ele>509.3333333333333</ele><time>2026-04-05T11:26:45.999Z</time></trkpt><trkpt lat="42.75050481688943" lon="13.65995795137558"><ele>506.66666666666663</ele><time>2026-04-05T11:26:46.999Z</time></trkpt><trkpt lat="42.750608128283865" lon="13.660103925866222"><ele>504.0</ele><time>2026-04-05T11:26:47.999Z</time></trkpt><trkpt lat="42.75073707671253" lon="13.66023672238232"><ele>503.66666666666663</ele><time>2026-04-05T11:26:48.999Z</time></trkpt><trkpt lat="42.7508851676115" lon="13.660343737101481"><ele>503.3333333333333</ele><time>2026-04-05T11:26:49.999Z</time></trkpt><trkpt lat="42.75105301957646" lon="13.660427755840916"><ele>503.0</ele><time>2026-04-05T11:26:50.999Z</time></trkpt><trkpt lat="42.75122810948764" lon="13.660544143838422"><ele>503.0</ele><time>2026-04-05T11:26:51.999Z</time></trkpt><trkpt lat="42.75142245537293" lon="13.660651479068257"><ele>503.0</ele><time>2026-04-05T11:26:52.999Z</time></trkpt><trkpt lat="42.751612471867844" lon="13.660765531811021"><ele>503.0</ele><time>2026-04-05T11:26:53.999Z</time></trkpt><trkpt lat="42.75178837985214" lon="13.660875789051683"><ele>501.66666666666663</ele><time>2026-04-05T11:26:54.999Z</time></trkpt><trkpt lat="42.75194945332913" lon="13.660986863811912"><ele>500.33333333333337</ele><time>2026-04-05T11:26:55.999Z</time></trkpt><trkpt lat="42.75209680973264" lon="13.661107127342802"><ele>499.0</ele><time>2026-04-05T11:26:56.999Z</time></trkpt><trkpt lat="42.752232954942414" lon="13.66123808974677"><ele>499.0</ele><time>2026-04-05T11:26:57.999Z</time></trkpt><trkpt lat="42.752360866310774" lon="13.66139158136985"><ele>499.0</ele><time>2026-04-05T11:26:58.999Z</time></trkpt><trkpt lat="42.75246363019277" lon="13.66158107945685"><ele>499.0</ele><time>2026-04-05T11:26:59.999Z</time></trkpt><trkpt lat="42.752544044624436" lon="13.66178948986505"><ele>498.0</ele><time>2026-04-05T11:27:00.999Z</time></trkpt><trkpt lat="42.75259940960487" lon="13.662010486963265"><ele>497.0</ele><time>2026-04-05T11:27:01.999Z</time></trkpt><trkpt lat="42.75263807694117" lon="13.662232298044277"><ele>496.0</ele><time>2026-04-05T11:27:02.999Z</time></trkpt><trkpt lat="42.75265994326489" lon="13.662422403441077"><ele>496.0</ele><time>2026-04-05T11:27:03.999Z</time></trkpt><trkpt lat="42.752672747220956" lon="13.66260120640643"><ele>496.0</ele><time>2026-04-05T11:27:04.999Z</time></trkpt><trkpt lat="42.752680720758526" lon="13.662775567118201"><ele>496.0</ele><time>2026-04-05T11:27:05.999Z</time></trkpt><trkpt lat="42.75268808686423" lon="13.662956616523902"><ele>496.0</ele><time>2026-04-05T11:27:06.999Z</time></trkpt><trkpt lat="42.75269597754962" lon="13.663145212647652"><ele>497.0</ele><time>2026-04-05T11:27:07.999Z</time></trkpt><trkpt lat="42.75270768800662" lon="13.663337589145733"><ele>498.0</ele><time>2026-04-05T11:27:08.999Z</time></trkpt><trkpt lat="42.75272447424113" lon="13.663536475289733"><ele>499.0</ele><time>2026-04-05T11:27:09.999Z</time></trkpt><trkpt lat="42.75274694556763" lon="13.663737835893734"><ele>500.0</ele><time>2026-04-05T11:27:10.999Z</time></trkpt><trkpt lat="42.75277985214867" lon="13.663942428840064"><ele>500.0</ele><time>2026-04-05T11:27:11.999Z</time></trkpt><trkpt lat="42.75284244860427" lon="13.664145267206429"><ele>500.0</ele><time>2026-04-05T11:27:12.999Z</time></trkpt><trkpt lat="42.75288500185876" lon="13.664376731223472"><ele>500.0</ele><time>2026-04-05T11:27:13.999Z</time></trkpt><trkpt lat="42.75294334233371" lon="13.664590726576751"><ele>498.3333333333333</ele><time>2026-04-05T11:27:14.999Z</time></trkpt><trkpt lat="42.753001428601365" lon="13.6647847862259"><ele>496.66666666666663</ele><time>2026-04-05T11:27:15.999Z</time></trkpt><trkpt lat="42.753064866114244" lon="13.664967043638319"><ele>495.0</ele><time>2026-04-05T11:27:16.999Z</time></trkpt><trkpt lat="42.753159709206585" lon="13.665146728876797"><ele>495.0</ele><time>2026-04-05T11:27:17.999Z</time></trkpt><trkpt lat="42.75328773108452" lon="13.66530371530848"><ele>495.0</ele><time>2026-04-05T11:27:18.999Z</time></trkpt><trkpt lat="42.753431404758224" lon="13.665450540816746"><ele>495.0</ele><time>2026-04-05T11:27:19.999Z</time></trkpt><trkpt lat="42.7535786315688" lon="13.665611982183322"><ele>495.0</ele><time>2026-04-05T11:27:20.999Z</time></trkpt><trkpt lat="42.75372000657763" lon="13.665787155762793"><ele>495.0</ele><time>2026-04-05T11:27:21.999Z</time></trkpt><trkpt lat="42.75383132477289" lon="13.665989655800534"><ele>495.0</ele><time>2026-04-05T11:27:22.999Z</time></trkpt><trkpt lat="42.75392955890082" lon="13.666220078128541"><ele>494.33333333333337</ele><time>2026-04-05T11:27:23.999Z</time></trkpt><trkpt lat="42.75401404974475" lon="13.666464370103133"><ele>493.6666666666667</ele><time>2026-04-05T11:27:24.999Z</time></trkpt><trkpt lat="42.754103729525845" lon="13.66670478784629"><ele>493.0</ele><time>2026-04-05T11:27:25.999Z</time></trkpt><trkpt lat="42.754191336316154" lon="13.666933744794989"><ele>493.33333333333337</ele><time>2026-04-05T11:27:26.999Z</time></trkpt><trkpt lat="42.75428549462338" lon="13.667151086536956"><ele>493.66666666666663</ele><time>2026-04-05T11:27:27.999Z</time></trkpt><trkpt lat="42.754391568489716" lon="13.667352958754597"><ele>494.0</ele><time>2026-04-05T11:27:28.999Z</time></trkpt><trkpt lat="42.75450688678386" lon="13.667553682597827"><ele>494.0</ele><time>2026-04-05T11:27:29.999Z</time></trkpt><trkpt lat="42.75462463601983" lon="13.667757022120611"><ele>494.0</ele><time>2026-04-05T11:27:30.999Z</time></trkpt><trkpt lat="42.75474325955194" lon="13.667961871440095"><ele>494.0</ele><time>2026-04-05T11:27:31.999Z</time></trkpt><trkpt lat="42.75485367613426" lon="13.668154909386187"><ele>492.75</ele><time>2026-04-05T11:27:32.999Z</time></trkpt><trkpt lat="42.75495397334383" lon="13.668329274552248"><ele>491.5</ele><time>2026-04-05T11:27:33.999Z</time></trkpt><trkpt lat="42.7550589612871" lon="13.66846320936261"><ele>490.25</ele><time>2026-04-05T11:27:34.999Z</time></trkpt><trkpt lat="42.755144774393884" lon="13.668581916683284"><ele>489.0</ele><time>2026-04-05T11:27:35.999Z</time></trkpt><trkpt lat="42.755231685412745" lon="13.668690755654767"><ele>487.0</ele><time>2026-04-05T11:27:36.999Z</time></trkpt><trkpt lat="42.75535320652168" lon="13.668735139989467"><ele>485.0</ele><time>2026-04-05T11:27:37.999Z</time></trkpt><trkpt lat="42.75549235866212" lon="13.668772890581643"><ele>483.0</ele><time>2026-04-05T11:27:38.999Z</time></trkpt><trkpt lat="42.755623453989244" lon="13.668762008103739"><ele>481.0</ele><time>2026-04-05T11:27:39.999Z</time></trkpt><trkpt lat="42.7557477820356" lon="13.668753376836088"><ele>481.0</ele><time>2026-04-05T11:27:40.999Z</time></trkpt><trkpt lat="42.75587611751465" lon="13.668693750568897"><ele>481.0</ele><time>2026-04-05T11:27:41.999Z</time></trkpt><trkpt lat="42.75600169252068" lon="13.668584213962381"><ele>481.0</ele><time>2026-04-05T11:27:42.999Z</time></trkpt><trkpt lat="42.75612415963161" lon="13.668431545265172"><ele>479.33333333333337</ele><time>2026-04-05T11:27:43.999Z</time></trkpt><trkpt lat="42.75624281739688" lon="13.66825488713952"><ele>477.66666666666663</ele><time>2026-04-05T11:27:44.999Z</time></trkpt><trkpt lat="42.756348881610734" lon="13.668043223412171"><ele>476.0</ele><time>2026-04-05T11:27:45.999Z</time></trkpt><trkpt lat="42.75644154436783" lon="13.66782267347902"><ele>477.75</ele><time>2026-04-05T11:27:46.999Z</time></trkpt><trkpt lat="42.75651662470841" lon="13.667640561571586"><ele>479.5</ele><time>2026-04-05T11:27:47.999Z</time></trkpt><trkpt lat="42.75659424385846" lon="13.667497137520675"><ele>481.25</ele><time>2026-04-05T11:27:48.999Z</time></trkpt><trkpt lat="42.7566963695952" lon="13.667378854040583"><ele>483.0</ele><time>2026-04-05T11:27:49.999Z</time></trkpt><trkpt lat="42.75684158409576" lon="13.66730250163718"><ele>481.0</ele><time>2026-04-05T11:27:50.999Z</time></trkpt><trkpt lat="42.757019976598485" lon="13.667246755349318"><ele>479.0</ele><time>2026-04-05T11:27:51.999Z</time></trkpt><trkpt lat="42.75721577175042" lon="13.667187367441151"><ele>477.0</ele><time>2026-04-05T11:27:52.999Z</time></trkpt><trkpt lat="42.75742623005753" lon="13.667120628918772"><ele>477.0</ele><time>2026-04-05T11:27:53.999Z</time></trkpt><trkpt lat="42.75764083225018" lon="13.667053933861633"><ele>477.0</ele><time>2026-04-05T11:27:54.999Z</time></trkpt><trkpt lat="42.75785904341135" lon="13.666987787053202"><ele>477.0</ele><time>2026-04-05T11:27:55.999Z</time></trkpt><trkpt lat="42.758087510741625" lon="13.66692832389815"><ele>477.0</ele><time>2026-04-05T11:27:56.999Z</time></trkpt><trkpt lat="42.758323177054145" lon="13.66687424883134"><ele>477.0</ele><time>2026-04-05T11:27:57.999Z</time></trkpt><trkpt lat="42.75856506057458" lon="13.666818399382649"><ele>477.0</ele><time>2026-04-05T11:27:58.999Z</time></trkpt><trkpt lat="42.75881074290134" lon="13.666761908563194"><ele>477.0</ele><time>2026-04-05T11:27:59.999Z</time></trkpt><trkpt lat="42.75905780887481" lon="13.666706453294788"><ele>477.0</ele><time>2026-04-05T11:28:00.999Z</time></trkpt><trkpt lat="42.75930265515956" lon="13.666649179625743"><ele>477.0</ele><time>2026-04-05T11:28:01.999Z</time></trkpt><trkpt lat="42.75953025841882" lon="13.666599137161638"><ele>473.33333333333337</ele><time>2026-04-05T11:28:02.999Z</time></trkpt><trkpt lat="42.75974981353614" lon="13.666548815126315"><ele>469.6666666666667</ele><time>2026-04-05T11:28:03.999Z</time></trkpt><trkpt lat="42.75997079764695" lon="13.66648728708391"><ele>466.0</ele><time>2026-04-05T11:28:04.999Z</time></trkpt><trkpt lat="42.76019836041224" lon="13.66640518355535"><ele>461.5</ele><time>2026-04-05T11:28:05.999Z</time></trkpt><trkpt lat="42.76042982674782" lon="13.666304376887862"><ele>457.0</ele><time>2026-04-05T11:28:06.999Z</time></trkpt><trkpt lat="42.7606516976484" lon="13.666196622733313"><ele>458.0</ele><time>2026-04-05T11:28:07.999Z</time></trkpt><trkpt lat="42.76084458492286" lon="13.66609669844028"><ele>459.0</ele><time>2026-04-05T11:28:08.999Z</time></trkpt><trkpt lat="42.76101300770999" lon="13.666007676923815"><ele>460.0</ele><time>2026-04-05T11:28:09.999Z</time></trkpt><trkpt lat="42.761164956048646" lon="13.665909504565269"><ele>460.0</ele><time>2026-04-05T11:28:10.999Z</time></trkpt><trkpt lat="42.76130772828518" lon="13.66577568477627"><ele>460.0</ele><time>2026-04-05T11:28:11.999Z</time></trkpt><trkpt lat="42.761443859771255" lon="13.665590135840075"><ele>460.0</ele><time>2026-04-05T11:28:12.999Z</time></trkpt><trkpt lat="42.761578369151856" lon="13.665374991505445"><ele>464.33333333333337</ele><time>2026-04-05T11:28:13.999Z</time></trkpt><trkpt lat="42.76171654991115" lon="13.665145863096074"><ele>468.66666666666663</ele><time>2026-04-05T11:28:14.999Z</time></trkpt><trkpt lat="42.761870144525666" lon="13.664918461636903"><ele>473.0</ele><time>2026-04-05T11:28:15.999Z</time></trkpt><trkpt lat="42.76202905577438" lon="13.66471597137477"><ele>467.0</ele><time>2026-04-05T11:28:16.999Z</time></trkpt><trkpt lat="42.76218017803504" lon="13.664545138693622"><ele>461.0</ele><time>2026-04-05T11:28:17.999Z</time></trkpt><trkpt lat="42.762318845298196" lon="13.664408717279057"><ele>455.0</ele><time>2026-04-05T11:28:18.999Z</time></trkpt><trkpt lat="42.76243976492715" lon="13.664285451009299"><ele>455.0</ele><time>2026-04-05T11:28:19.999Z</time></trkpt><trkpt lat="42.76253801145078" lon="13.664170809974802"><ele>455.0</ele><time>2026-04-05T11:28:20.999Z</time></trkpt><trkpt lat="42.76262895886972" lon="13.664029986714693"><ele>455.0</ele><time>2026-04-05T11:28:21.999Z</time></trkpt><trkpt lat="42.76270238207509" lon="13.663840949810929"><ele>455.0</ele><time>2026-04-05T11:28:22.999Z</time></trkpt><trkpt lat="42.76275919837361" lon="13.663609957270852"><ele>450.66666666666663</ele><time>2026-04-05T11:28:23.999Z</time></trkpt><trkpt lat="42.76282256572146" lon="13.663355216885998"><ele>446.33333333333337</ele><time>2026-04-05T11:28:24.999Z</time></trkpt><trkpt lat="42.762900607904044" lon="13.66309520832634"><ele>442.0</ele><time>2026-04-05T11:28:25.999Z</time></trkpt><trkpt lat="42.76299596558874" lon="13.662831446531726"><ele>443.6666666666667</ele><time>2026-04-05T11:28:26.999Z</time></trkpt><trkpt lat="42.76310055228183" lon="13.662575313102051"><ele>445.33333333333337</ele><time>2026-04-05T11:28:27.999Z</time></trkpt><trkpt lat="42.7631978787872" lon="13.662341579342938"><ele>447.0</ele><time>2026-04-05T11:28:28.999Z</time></trkpt><trkpt lat="42.763283048587006" lon="13.66213969881979"><ele>447.0</ele><time>2026-04-05T11:28:29.999Z</time></trkpt><trkpt lat="42.763359059745554" lon="13.661966370223181"><ele>447.0</ele><time>2026-04-05T11:28:30.999Z</time></trkpt><trkpt lat="42.76344637577821" lon="13.661807433059712"><ele>447.0</ele><time>2026-04-05T11:28:31.999Z</time></trkpt><trkpt lat="42.76356386344129" lon="13.661694885136274"><ele>447.0</ele><time>2026-04-05T11:28:32.999Z</time></trkpt><trkpt lat="42.763699907728636" lon="13.6616391553273"><ele>445.33333333333337</ele><time>2026-04-05T11:28:33.999Z</time></trkpt><trkpt lat="42.763853814368524" lon="13.661665671756989"><ele>443.6666666666667</ele><time>2026-04-05T11:28:34.999Z</time></trkpt><trkpt lat="42.7640368103415" lon="13.661690421404208"><ele>442.0</ele><time>2026-04-05T11:28:35.999Z</time></trkpt><trkpt lat="42.764225131783164" lon="13.661771306967122"><ele>439.33333333333337</ele><time>2026-04-05T11:28:36.999Z</time></trkpt><trkpt lat="42.764404229523386" lon="13.661862550015037"><ele>436.66666666666663</ele><time>2026-04-05T11:28:37.999Z</time></trkpt><trkpt lat="42.76455555735299" lon="13.661934274476248"><ele>434.0</ele><time>2026-04-05T11:28:38.999Z</time></trkpt><trkpt lat="42.76470509652168" lon="13.661983885846498"><ele>434.0</ele><time>2026-04-05T11:28:39.999Z</time></trkpt><trkpt lat="42.76487316261708" lon="13.661986339172493"><ele>434.0</ele><time>2026-04-05T11:28:40.999Z</time></trkpt><trkpt lat="42.7650537232171" lon="13.661931131221861"><ele>434.0</ele><time>2026-04-05T11:28:41.999Z</time></trkpt><trkpt lat="42.76523806276193" lon="13.661839446245237"><ele>430.0</ele><time>2026-04-05T11:28:42.999Z</time></trkpt><trkpt lat="42.765409586342265" lon="13.661735617304252"><ele>426.0</ele><time>2026-04-05T11:28:43.999Z</time></trkpt><trkpt lat="42.765545330893644" lon="13.661643823565006"><ele>422.0</ele><time>2026-04-05T11:28:44.999Z</time></trkpt><trkpt lat="42.76565134402938" lon="13.661519771503636"><ele>422.0</ele><time>2026-04-05T11:28:45.999Z</time></trkpt><trkpt lat="42.76574335840506" lon="13.661339162115118"><ele>422.0</ele><time>2026-04-05T11:28:46.999Z</time></trkpt><trkpt lat="42.76581734619832" lon="13.661135670831989"><ele>422.0</ele><time>2026-04-05T11:28:47.999Z</time></trkpt><trkpt lat="42.76591625382275" lon="13.660972135950159"><ele>420.3333333333333</ele><time>2026-04-05T11:28:48.999Z</time></trkpt><trkpt lat="42.76605252815397" lon="13.660857516685905"><ele>418.66666666666663</ele><time>2026-04-05T11:28:49.999Z</time></trkpt><trkpt lat="42.766237462226414" lon="13.660790960592255"><ele>417.0</ele><time>2026-04-05T11:28:50.999Z</time></trkpt><trkpt lat="42.76643331094121" lon="13.660701819883247"><ele>417.0</ele><time>2026-04-05T11:28:51.999Z</time></trkpt><trkpt lat="42.76662075250385" lon="13.660629791250834"><ele>417.0</ele><time>2026-04-05T11:28:52.999Z</time></trkpt><trkpt lat="42.76678460773609" lon="13.66058390941535"><ele>417.0</ele><time>2026-04-05T11:28:53.999Z</time></trkpt><trkpt lat="42.76694969743318" lon="13.66058342571688"><ele>413.66666666666663</ele><time>2026-04-05T11:28:54.999Z</time></trkpt><trkpt lat="42.76713515789747" lon="13.66063056622046"><ele>410.3333333333333</ele><time>2026-04-05T11:28:55.999Z</time></trkpt><trkpt lat="42.76733877540208" lon="13.660682519351697"><ele>407.0</ele><time>2026-04-05T11:28:56.999Z</time></trkpt><trkpt lat="42.76754517128604" lon="13.66073429332415"><ele>407.0</ele><time>2026-04-05T11:28:57.999Z</time></trkpt><trkpt lat="42.76773068291738" lon="13.660759112628478"><ele>407.0</ele><time>2026-04-05T11:28:58.999Z</time></trkpt><trkpt lat="42.76787593316451" lon="13.66079786848124"><ele>407.0</ele><time>2026-04-05T11:28:59.999Z</time></trkpt><trkpt lat="42.76798616612532" lon="13.660850528984179"><ele>407.0</ele><time>2026-04-05T11:29:00.999Z</time></trkpt><trkpt lat="42.76810137132389" lon="13.660853062140143"><ele>407.0</ele><time>2026-04-05T11:29:01.999Z</time></trkpt><trkpt lat="42.768180709985025" lon="13.66083260763368"><ele>407.0</ele><time>2026-04-05T11:29:02.999Z</time></trkpt><trkpt lat="42.76823588439989" lon="13.660759322798867"><ele>407.0</ele><time>2026-04-05T11:29:03.999Z</time></trkpt><trkpt lat="42.7682669804011" lon="13.660642108075573"><ele>407.0</ele><time>2026-04-05T11:29:04.999Z</time></trkpt><trkpt lat="42.76824332622974" lon="13.660506776108797"><ele>407.0</ele><time>2026-04-05T11:29:05.999Z</time></trkpt><trkpt lat="42.76818005375873" lon="13.660399293380546"><ele>407.0</ele><time>2026-04-05T11:29:06.999Z</time></trkpt><trkpt lat="42.76799255307127" lon="13.66033644445339"><ele>407.0</ele><time>2026-04-05T11:29:08.999Z</time></trkpt><trkpt lat="42.767824035530154" lon="13.660365677808487"><ele>407.0</ele><time>2026-04-05T11:29:09.999Z</time></trkpt><trkpt lat="42.76764182579819" lon="13.660402375883153"><ele>407.0</ele><time>2026-04-05T11:29:10.999Z</time></trkpt><trkpt lat="42.76746193637137" lon="13.660420512395593"><ele>407.0</ele><time>2026-04-05T11:29:11.999Z</time></trkpt><trkpt lat="42.76728365127701" lon="13.660433535998848"><ele>407.0</ele><time>2026-04-05T11:29:12.999Z</time></trkpt><trkpt lat="42.76712771260159" lon="13.660404419210504"><ele>407.0</ele><time>2026-04-05T11:29:13.999Z</time></trkpt><trkpt lat="42.766983231245554" lon="13.660345532038892"><ele>407.0</ele><time>2026-04-05T11:29:14.999Z</time></trkpt><trkpt lat="42.76686165902337" lon="13.66025126197282"><ele>407.0</ele><time>2026-04-05T11:29:15.999Z</time></trkpt><trkpt lat="42.76677415257756" lon="13.66007126648959"><ele>410.3333333333333</ele><time>2026-04-05T11:29:16.999Z</time></trkpt><trkpt lat="42.766670048521796" lon="13.659872900352081"><ele>413.66666666666663</ele><time>2026-04-05T11:29:17.999Z</time></trkpt><trkpt lat="42.766556321663366" lon="13.659662375383789"><ele>417.0</ele><time>2026-04-05T11:29:18.999Z</time></trkpt><trkpt lat="42.766453007802774" lon="13.65944218142164"><ele>410.0</ele><time>2026-04-05T11:29:19.999Z</time></trkpt><trkpt lat="42.76634750603743" lon="13.659229637039482"><ele>403.0</ele><time>2026-04-05T11:29:20.999Z</time></trkpt><trkpt lat="42.76624768442578" lon="13.659029783110684"><ele>396.0</ele><time>2026-04-05T11:29:21.999Z</time></trkpt><trkpt lat="42.76616085997946" lon="13.658861044575549"><ele>396.0</ele><time>2026-04-05T11:29:22.999Z</time></trkpt><trkpt lat="42.766085743730194" lon="13.658718330299449"><ele>396.0</ele><time>2026-04-05T11:29:23.999Z</time></trkpt><trkpt lat="42.76602647008264" lon="13.658575627591274"><ele>396.0</ele><time>2026-04-05T11:29:24.999Z</time></trkpt><trkpt lat="42.76600183462574" lon="13.658428706803509"><ele>396.0</ele><time>2026-04-05T11:29:25.999Z</time></trkpt><trkpt lat="42.76605448084304" lon="13.658304926715076"><ele>395.0</ele><time>2026-04-05T11:29:26.999Z</time></trkpt><trkpt lat="42.76612014088953" lon="13.65822168892545"><ele>394.0</ele><time>2026-04-05T11:29:27.999Z</time></trkpt><trkpt lat="42.76620106040429" lon="13.658159220721998"><ele>393.0</ele><time>2026-04-05T11:29:28.999Z</time></trkpt><trkpt lat="42.76631031538435" lon="13.658118470128166"><ele>392.0</ele><time>2026-04-05T11:29:29.999Z</time></trkpt><trkpt lat="42.766433612177295" lon="13.658048763373326"><ele>391.0</ele><time>2026-04-05T11:29:30.999Z</time></trkpt><trkpt lat="42.766552942495736" lon="13.657982021323473"><ele>391.0</ele><time>2026-04-05T11:29:31.999Z</time></trkpt><trkpt lat="42.76667514129958" lon="13.65791316551422"><ele>391.0</ele><time>2026-04-05T11:29:32.999Z</time></trkpt><trkpt lat="42.766794495260385" lon="13.657826896827016"><ele>391.0</ele><time>2026-04-05T11:29:33.999Z</time></trkpt><trkpt lat="42.76692407069733" lon="13.657756552737334"><ele>391.0</ele><time>2026-04-05T11:29:34.999Z</time></trkpt><trkpt lat="42.7670503949555" lon="13.657719541732032"><ele>393.0</ele><time>2026-04-05T11:29:35.999Z</time></trkpt><trkpt lat="42.76716662029734" lon="13.65769657713807"><ele>395.0</ele><time>2026-04-05T11:29:36.999Z</time></trkpt><trkpt lat="42.767292613440794" lon="13.65774938116654"><ele>397.0</ele><time>2026-04-05T11:29:37.999Z</time></trkpt><trkpt lat="42.76744136322705" lon="13.65780390833035"><ele>399.0</ele><time>2026-04-05T11:29:38.999Z</time></trkpt><trkpt lat="42.76760425137299" lon="13.657846023110146"><ele>400.0</ele><time>2026-04-05T11:29:39.999Z</time></trkpt><trkpt lat="42.76773316436609" lon="13.657892362767278"><ele>401.0</ele><time>2026-04-05T11:29:40.999Z</time></trkpt><trkpt lat="42.76785452480277" lon="13.657938413376954"><ele>402.0</ele><time>2026-04-05T11:29:41.999Z</time></trkpt><trkpt lat="42.76797932656133" lon="13.657991666658434"><ele>403.0</ele><time>2026-04-05T11:29:42.999Z</time></trkpt><trkpt lat="42.768097730199464" lon="13.658043327076763"><ele>403.0</ele><time>2026-04-05T11:29:43.999Z</time></trkpt><trkpt lat="42.76821283573926" lon="13.658092384902222"><ele>403.0</ele><time>2026-04-05T11:29:44.999Z</time></trkpt><trkpt lat="42.76832639471837" lon="13.658114350504253"><ele>403.0</ele><time>2026-04-05T11:29:45.999Z</time></trkpt><trkpt lat="42.76844594709381" lon="13.658098603404452"><ele>403.0</ele><time>2026-04-05T11:29:46.999Z</time></trkpt><trkpt lat="42.768577705871344" lon="13.658023041327391"><ele>404.25</ele><time>2026-04-05T11:29:47.999Z</time></trkpt><trkpt lat="42.768716962200436" lon="13.657936490641035"><ele>405.5</ele><time>2026-04-05T11:29:48.999Z</time></trkpt><trkpt lat="42.76885360689215" lon="13.657859116524701"><ele>406.75</ele><time>2026-04-05T11:29:49.999Z</time></trkpt><trkpt lat="42.76897402030168" lon="13.65779873189652"><ele>408.0</ele><time>2026-04-05T11:29:50.999Z</time></trkpt><trkpt lat="42.769074740501644" lon="13.657743301988948"><ele>408.0</ele><time>2026-04-05T11:29:51.999Z</time></trkpt><trkpt lat="42.76914754577557" lon="13.657680090289368"><ele>408.0</ele><time>2026-04-05T11:29:52.999Z</time></trkpt><trkpt lat="42.76919030276766" lon="13.657580698109832"><ele>408.0</ele><time>2026-04-05T11:29:53.999Z</time></trkpt><trkpt lat="42.76920945337482" lon="13.657451345532715"><ele>408.0</ele><time>2026-04-05T11:29:54.999Z</time></trkpt><trkpt lat="42.769192398705016" lon="13.657308970591515"><ele>408.0</ele><time>2026-04-05T11:29:55.999Z</time></trkpt><trkpt lat="42.76913848150593" lon="13.657177578730522"><ele>408.0</ele><time>2026-04-05T11:29:56.999Z</time></trkpt><trkpt lat="42.76903522689659" lon="13.657025886360254"><ele>408.0</ele><time>2026-04-05T11:29:57.999Z</time></trkpt><trkpt lat="42.76892557219935" lon="13.656836868065033"><ele>408.0</ele><time>2026-04-05T11:29:58.999Z</time></trkpt><trkpt lat="42.76881196749468" lon="13.656600353313264"><ele>410.66666666666663</ele><time>2026-04-05T11:29:59.999Z</time></trkpt><trkpt lat="42.76870285103746" lon="13.656353900346437"><ele>413.3333333333333</ele><time>2026-04-05T11:30:00.999Z</time></trkpt><trkpt lat="42.76859513760949" lon="13.656124753522885"><ele>416.0</ele><time>2026-04-05T11:30:01.999Z</time></trkpt><trkpt lat="42.76848020896072" lon="13.655941295581218"><ele>418.66666666666663</ele><time>2026-04-05T11:30:02.999Z</time></trkpt><trkpt lat="42.768343225554716" lon="13.655787118164074"><ele>421.33333333333337</ele><time>2026-04-05T11:30:03.999Z</time></trkpt><trkpt lat="42.768180734163124" lon="13.655657909585921"><ele>424.0</ele><time>2026-04-05T11:30:04.999Z</time></trkpt><trkpt lat="42.7680258550111" lon="13.65551952030344"><ele>424.0</ele><time>2026-04-05T11:30:05.999Z</time></trkpt><trkpt lat="42.767900860406584" lon="13.655335372526665"><ele>424.0</ele><time>2026-04-05T11:30:06.999Z</time></trkpt><trkpt lat="42.76780380721541" lon="13.655121096701068"><ele>424.0</ele><time>2026-04-05T11:30:07.999Z</time></trkpt><trkpt lat="42.767718613506815" lon="13.654950599084353"><ele>426.6666666666667</ele><time>2026-04-05T11:30:08.999Z</time></trkpt><trkpt lat="42.767609510017245" lon="13.654823032299682"><ele>429.33333333333337</ele><time>2026-04-05T11:30:09.999Z</time></trkpt><trkpt lat="42.76745879222215" lon="13.654740310089919"><ele>432.0</ele><time>2026-04-05T11:30:10.999Z</time></trkpt><trkpt lat="42.76727866133696" lon="13.654709894249388"><ele>432.0</ele><time>2026-04-05T11:30:11.999Z</time></trkpt><trkpt lat="42.76709590199098" lon="13.654704548589095"><ele>432.0</ele><time>2026-04-05T11:30:12.999Z</time></trkpt><trkpt lat="42.76694496308248" lon="13.654670212166344"><ele>432.0</ele><time>2026-04-05T11:30:13.999Z</time></trkpt><trkpt lat="42.76680446195817" lon="13.654587078653488"><ele>433.33333333333337</ele><time>2026-04-05T11:30:14.999Z</time></trkpt><trkpt lat="42.76666544490352" lon="13.654468437507514"><ele>434.6666666666667</ele><time>2026-04-05T11:30:15.999Z</time></trkpt><trkpt lat="42.766542254359344" lon="13.65433068163392"><ele>436.0</ele><time>2026-04-05T11:30:16.999Z</time></trkpt><trkpt lat="42.76644257975046" lon="13.654210511150294"><ele>436.8</ele><time>2026-04-05T11:30:17.999Z</time></trkpt><trkpt lat="42.76637370324601" lon="13.654094256643369"><ele>437.6</ele><time>2026-04-05T11:30:18.999Z</time></trkpt><trkpt lat="42.76633256176454" lon="13.653961240157841"><ele>438.4</ele><time>2026-04-05T11:30:19.999Z</time></trkpt><trkpt lat="42.76634543748578" lon="13.653809563632246"><ele>439.2</ele><time>2026-04-05T11:30:20.999Z</time></trkpt><trkpt lat="42.766397392530095" lon="13.653680636581692"><ele>440.0</ele><time>2026-04-05T11:30:21.999Z</time></trkpt><trkpt lat="42.766480304632594" lon="13.653578187415889"><ele>440.25</ele><time>2026-04-05T11:30:22.999Z</time></trkpt><trkpt lat="42.7666021033892" lon="13.653493936496266"><ele>440.5</ele><time>2026-04-05T11:30:23.999Z</time></trkpt><trkpt lat="42.76674075101655" lon="13.653432352865511"><ele>440.75</ele><time>2026-04-05T11:30:24.999Z</time></trkpt><trkpt lat="42.766903278385826" lon="13.653416206001216"><ele>441.0</ele><time>2026-04-05T11:30:25.999Z</time></trkpt><trkpt lat="42.767074615530554" lon="13.65339593083658"><ele>441.0</ele><time>2026-04-05T11:30:26.999Z</time></trkpt><trkpt lat="42.767255776220544" lon="13.653376980310634"><ele>441.0</ele><time>2026-04-05T11:30:27.999Z</time></trkpt><trkpt lat="42.7674405617618" lon="13.653354240520946"><ele>441.0</ele><time>2026-04-05T11:30:28.999Z</time></trkpt><trkpt lat="42.767635667175576" lon="13.653325058820432"><ele>439.66666666666663</ele><time>2026-04-05T11:30:29.999Z</time></trkpt><trkpt lat="42.76783425208809" lon="13.653271829690336"><ele>438.3333333333333</ele><time>2026-04-05T11:30:30.999Z</time></trkpt><trkpt lat="42.76803884653631" lon="13.653225777308895"><ele>437.0</ele><time>2026-04-05T11:30:31.999Z</time></trkpt><trkpt lat="42.768249673645336" lon="13.653152820156144"><ele>437.0</ele><time>2026-04-05T11:30:32.999Z</time></trkpt><trkpt lat="42.76846651037444" lon="13.653065011529518"><ele>437.0</ele><time>2026-04-05T11:30:33.999Z</time></trkpt><trkpt lat="42.76869280256917" lon="13.652977699137772"><ele>436.66666666666663</ele><time>2026-04-05T11:30:34.999Z</time></trkpt><trkpt lat="42.76891728644342" lon="13.652898117243028"><ele>436.33333333333337</ele><time>2026-04-05T11:30:35.999Z</time></trkpt><trkpt lat="42.76912090298635" lon="13.652827260614036"><ele>436.0</ele><time>2026-04-05T11:30:36.999Z</time></trkpt><trkpt lat="42.76930187914515" lon="13.65276192512131"><ele>436.33333333333337</ele><time>2026-04-05T11:30:37.999Z</time></trkpt><trkpt lat="42.769474221556116" lon="13.652676098620539"><ele>436.66666666666663</ele><time>2026-04-05T11:30:38.999Z</time></trkpt><trkpt lat="42.76965848752582" lon="13.652555902481248"><ele>437.0</ele><time>2026-04-05T11:30:39.999Z</time></trkpt><trkpt lat="42.769849571793024" lon="13.65239979843611"><ele>437.0</ele><time>2026-04-05T11:30:40.999Z</time></trkpt><trkpt lat="42.770046853285294" lon="13.65224062923151"><ele>437.0</ele><time>2026-04-05T11:30:41.999Z</time></trkpt><trkpt lat="42.770247404701266" lon="13.652085079607257"><ele>434.5</ele><time>2026-04-05T11:30:42.999Z</time></trkpt><trkpt lat="42.77044826023454" lon="13.651926119582807"><ele>432.0</ele><time>2026-04-05T11:30:43.999Z</time></trkpt><trkpt lat="42.770635898920595" lon="13.651772121421223"><ele>432.0</ele><time>2026-04-05T11:30:44.999Z</time></trkpt><trkpt lat="42.77079184989269" lon="13.651644561411448"><ele>432.0</ele><time>2026-04-05T11:30:45.999Z</time></trkpt><trkpt lat="42.77091808540842" lon="13.651543204618056"><ele>432.0</ele><time>2026-04-05T11:30:46.999Z</time></trkpt><trkpt lat="42.771026912174236" lon="13.651486846388222"><ele>432.0</ele><time>2026-04-05T11:30:47.999Z</time></trkpt><trkpt lat="42.77115083643478" lon="13.651517799275009"><ele>432.0</ele><time>2026-04-05T11:30:48.999Z</time></trkpt><trkpt lat="42.77129191069862" lon="13.651566133040767"><ele>432.0</ele><time>2026-04-05T11:30:49.999Z</time></trkpt><trkpt lat="42.77146988773074" lon="13.651576020093275"><ele>432.0</ele><time>2026-04-05T11:30:50.999Z</time></trkpt><trkpt lat="42.77166428647993" lon="13.651586765944225"><ele>433.66666666666663</ele><time>2026-04-05T11:30:51.999Z</time></trkpt><trkpt lat="42.77186871967336" lon="13.651554790182894"><ele>435.3333333333333</ele><time>2026-04-05T11:30:52.999Z</time></trkpt><trkpt lat="42.77204398973413" lon="13.651593033667876"><ele>437.0</ele><time>2026-04-05T11:30:53.999Z</time></trkpt><trkpt lat="42.772187636976234" lon="13.651630930700133"><ele>437.0</ele><time>2026-04-05T11:30:54.999Z</time></trkpt><trkpt lat="42.772321874251574" lon="13.65172342309968"><ele>437.0</ele><time>2026-04-05T11:30:55.999Z</time></trkpt><trkpt lat="42.77245276138522" lon="13.651868332927325"><ele>437.0</ele><time>2026-04-05T11:30:56.999Z</time></trkpt><trkpt lat="42.77258900332279" lon="13.6520011834099"><ele>435.0</ele><time>2026-04-05T11:30:57.999Z</time></trkpt><trkpt lat="42.7727203589543" lon="13.652092511150162"><ele>433.0</ele><time>2026-04-05T11:30:58.999Z</time></trkpt><trkpt lat="42.772860318908506" lon="13.652156671747083"><ele>431.0</ele><time>2026-04-05T11:30:59.999Z</time></trkpt><trkpt lat="42.77302698093867" lon="13.65219287492576"><ele>431.0</ele><time>2026-04-05T11:31:00.999Z</time></trkpt><trkpt lat="42.773216023056044" lon="13.652191598805677"><ele>431.0</ele><time>2026-04-05T11:31:01.999Z</time></trkpt><trkpt lat="42.77341432769938" lon="13.652175007763457"><ele>431.0</ele><time>2026-04-05T11:31:02.999Z</time></trkpt><trkpt lat="42.77361850087828" lon="13.65215525906306"><ele>431.0</ele><time>2026-04-05T11:31:03.999Z</time></trkpt><trkpt lat="42.77381316859433" lon="13.652153657537614"><ele>431.0</ele><time>2026-04-05T11:31:04.999Z</time></trkpt><trkpt lat="42.77398760984421" lon="13.65214848855882"><ele>431.0</ele><time>2026-04-05T11:31:05.999Z</time></trkpt><trkpt lat="42.774163712026855" lon="13.652101293778076"><ele>431.0</ele><time>2026-04-05T11:31:06.999Z</time></trkpt><trkpt lat="42.77434868401057" lon="13.65199978601684"><ele>431.0</ele><time>2026-04-05T11:31:07.999Z</time></trkpt><trkpt lat="42.774535758836" lon="13.651863780577958"><ele>431.0</ele><time>2026-04-05T11:31:08.999Z</time></trkpt><trkpt lat="42.77473132357982" lon="13.651729246334675"><ele>432.66666666666663</ele><time>2026-04-05T11:31:09.999Z</time></trkpt><trkpt lat="42.77494024038864" lon="13.651620484023613"><ele>434.33333333333337</ele><time>2026-04-05T11:31:10.999Z</time></trkpt><trkpt lat="42.775156339603804" lon="13.65154518573764"><ele>436.0</ele><time>2026-04-05T11:31:11.999Z</time></trkpt><trkpt lat="42.77538026201793" lon="13.651492722597734"><ele>423.5</ele><time>2026-04-05T11:31:12.999Z</time></trkpt><trkpt lat="42.77561034860017" lon="13.651453908532273"><ele>411.0</ele><time>2026-04-05T11:31:13.999Z</time></trkpt><trkpt lat="42.775838120227206" lon="13.651414558045738"><ele>414.0</ele><time>2026-04-05T11:31:14.999Z</time></trkpt><trkpt lat="42.77605658445013" lon="13.651372396840085"><ele>417.0</ele><time>2026-04-05T11:31:15.999Z</time></trkpt><trkpt lat="42.77625440082394" lon="13.651327237769733"><ele>420.0</ele><time>2026-04-05T11:31:16.999Z</time></trkpt><trkpt lat="42.77643828720438" lon="13.65128640981023"><ele>420.0</ele><time>2026-04-05T11:31:17.999Z</time></trkpt><trkpt lat="42.776624153197645" lon="13.65123272080214"><ele>420.0</ele><time>2026-04-05T11:31:18.999Z</time></trkpt><trkpt lat="42.77681757485207" lon="13.65116570984356"><ele>420.0</ele><time>2026-04-05T11:31:19.999Z</time></trkpt><trkpt lat="42.7770187443139" lon="13.651082155864957"><ele>423.66666666666663</ele><time>2026-04-05T11:31:20.999Z</time></trkpt><trkpt lat="42.77722170177569" lon="13.65098541960673"><ele>427.3333333333333</ele><time>2026-04-05T11:31:21.999Z</time></trkpt><trkpt lat="42.77741990662747" lon="13.650877518088912"><ele>431.0</ele><time>2026-04-05T11:31:22.999Z</time></trkpt><trkpt lat="42.77762077682222" lon="13.650755304681956"><ele>427.0</ele><time>2026-04-05T11:31:23.999Z</time></trkpt><trkpt lat="42.77782614092403" lon="13.650626286850349"><ele>423.0</ele><time>2026-04-05T11:31:24.999Z</time></trkpt><trkpt lat="42.778037298538784" lon="13.650497277890079"><ele>423.0</ele><time>2026-04-05T11:31:25.999Z</time></trkpt><trkpt lat="42.77825165439729" lon="13.650369056635531"><ele>423.0</ele><time>2026-04-05T11:31:26.999Z</time></trkpt><trkpt lat="42.77846720420648" lon="13.650241543208098"><ele>421.0</ele><time>2026-04-05T11:31:27.999Z</time></trkpt><trkpt lat="42.77868444933096" lon="13.650111354634458"><ele>419.0</ele><time>2026-04-05T11:31:28.999Z</time></trkpt><trkpt lat="42.77890342434315" lon="13.649978287624863"><ele>419.0</ele><time>2026-04-05T11:31:29.999Z</time></trkpt><trkpt lat="42.77912287640575" lon="13.6498431868853"><ele>419.0</ele><time>2026-04-05T11:31:30.999Z</time></trkpt><trkpt lat="42.77934793928864" lon="13.649701568414807"><ele>417.5</ele><time>2026-04-05T11:31:31.999Z</time></trkpt><trkpt lat="42.779576266664186" lon="13.649565501558337"><ele>416.0</ele><time>2026-04-05T11:31:32.999Z</time></trkpt><trkpt lat="42.77980284265967" lon="13.64944352030107"><ele>416.0</ele><time>2026-04-05T11:31:33.999Z</time></trkpt><trkpt lat="42.780022883047515" lon="13.64935072419656"><ele>416.0</ele><time>2026-04-05T11:31:34.999Z</time></trkpt><trkpt lat="42.7802408861654" lon="13.649292287585737"><ele>416.0</ele><time>2026-04-05T11:31:35.999Z</time></trkpt><trkpt lat="42.78045732775939" lon="13.649258204478723"><ele>416.0</ele><time>2026-04-05T11:31:36.999Z</time></trkpt><trkpt lat="42.780684412029224" lon="13.649247884131865"><ele>416.0</ele><time>2026-04-05T11:31:37.999Z</time></trkpt><trkpt lat="42.780922822581005" lon="13.64928793400299"><ele>412.0</ele><time>2026-04-05T11:31:38.999Z</time></trkpt><trkpt lat="42.7811665352547" lon="13.64929688450463"><ele>408.0</ele><time>2026-04-05T11:31:39.999Z</time></trkpt><trkpt lat="42.78141227739021" lon="13.649332088850658"><ele>408.0</ele><time>2026-04-05T11:31:40.999Z</time></trkpt><trkpt lat="42.781655567613065" lon="13.64936534125659"><ele>408.0</ele><time>2026-04-05T11:31:41.999Z</time></trkpt><trkpt lat="42.78190282509102" lon="13.649394272474824"><ele>406.5</ele><time>2026-04-05T11:31:42.999Z</time></trkpt><trkpt lat="42.782160133470995" lon="13.64940396312391"><ele>405.0</ele><time>2026-04-05T11:31:43.999Z</time></trkpt><trkpt lat="42.782425610292634" lon="13.649389954558316"><ele>401.0</ele><time>2026-04-05T11:31:44.999Z</time></trkpt><trkpt lat="42.78269536740551" lon="13.649361668426895"><ele>397.0</ele><time>2026-04-05T11:31:45.999Z</time></trkpt><trkpt lat="42.782962449007194" lon="13.649323035955517"><ele>397.0</ele><time>2026-04-05T11:31:46.999Z</time></trkpt><trkpt lat="42.78322879838013" lon="13.649282305262712"><ele>397.0</ele><time>2026-04-05T11:31:47.999Z</time></trkpt><trkpt lat="42.7834855479248" lon="13.64924447479491"><ele>399.0</ele><time>2026-04-05T11:31:48.999Z</time></trkpt><trkpt lat="42.783720353067814" lon="13.649207821214567"><ele>401.0</ele><time>2026-04-05T11:31:49.999Z</time></trkpt><trkpt lat="42.783954616073345" lon="13.649168950173467"><ele>401.0</ele><time>2026-04-05T11:31:50.999Z</time></trkpt><trkpt lat="42.784182107735404" lon="13.649123644680069"><ele>401.0</ele><time>2026-04-05T11:31:51.999Z</time></trkpt><trkpt lat="42.78440210571458" lon="13.64906574890482"><ele>406.0</ele><time>2026-04-05T11:31:52.999Z</time></trkpt><trkpt lat="42.784620481508355" lon="13.648997880434417"><ele>411.0</ele><time>2026-04-05T11:31:53.999Z</time></trkpt><trkpt lat="42.7848336178515" lon="13.648922065704664"><ele>416.0</ele><time>2026-04-05T11:31:54.999Z</time></trkpt><trkpt lat="42.78503985558376" lon="13.648836720417977"><ele>415.3333333333333</ele><time>2026-04-05T11:31:55.999Z</time></trkpt><trkpt lat="42.78524016003997" lon="13.648742462401989"><ele>414.66666666666663</ele><time>2026-04-05T11:31:56.999Z</time></trkpt><trkpt lat="42.78543705188253" lon="13.648629478173364"><ele>414.0</ele><time>2026-04-05T11:31:57.999Z</time></trkpt><trkpt lat="42.78562747733521" lon="13.648511389681639"><ele>414.0</ele><time>2026-04-05T11:31:58.999Z</time></trkpt><trkpt lat="42.78579825537495" lon="13.648410039186706"><ele>414.0</ele><time>2026-04-05T11:31:59.999Z</time></trkpt><trkpt lat="42.78595905395243" lon="13.648326444923818"><ele>414.0</ele><time>2026-04-05T11:32:00.999Z</time></trkpt><trkpt lat="42.786133593893695" lon="13.64825802869275"><ele>415.33333333333337</ele><time>2026-04-05T11:32:01.999Z</time></trkpt><trkpt lat="42.78632472576523" lon="13.648212086369476"><ele>416.6666666666667</ele><time>2026-04-05T11:32:02.999Z</time></trkpt><trkpt lat="42.78652527959587" lon="13.64817809542384"><ele>418.0</ele><time>2026-04-05T11:32:03.999Z</time></trkpt><trkpt lat="42.78673330005563" lon="13.64813632669351"><ele>418.33333333333337</ele><time>2026-04-05T11:32:04.999Z</time></trkpt><trkpt lat="42.78693976950643" lon="13.648086913944857"><ele>418.66666666666663</ele><time>2026-04-05T11:32:05.999Z</time></trkpt><trkpt lat="42.787145839738294" lon="13.648043823943718"><ele>419.0</ele><time>2026-04-05T11:32:06.999Z</time></trkpt><trkpt lat="42.78735115145413" lon="13.647992702567722"><ele>419.0</ele><time>2026-04-05T11:32:07.999Z</time></trkpt><trkpt lat="42.78756668826276" lon="13.647924353685852"><ele>419.0</ele><time>2026-04-05T11:32:08.999Z</time></trkpt><trkpt lat="42.78779359249894" lon="13.647827308364146"><ele>419.0</ele><time>2026-04-05T11:32:09.999Z</time></trkpt><trkpt lat="42.788026882911524" lon="13.64770014694582"><ele>419.0</ele><time>2026-04-05T11:32:10.999Z</time></trkpt><trkpt lat="42.78824356633288" lon="13.647586398501067"><ele>419.0</ele><time>2026-04-05T11:32:11.999Z</time></trkpt><trkpt lat="42.788454541935145" lon="13.647477511946951"><ele>419.0</ele><time>2026-04-05T11:32:12.999Z</time></trkpt><trkpt lat="42.78866233737797" lon="13.6473702969962"><ele>419.0</ele><time>2026-04-05T11:32:13.999Z</time></trkpt><trkpt lat="42.78886524220885" lon="13.647262917135963"><ele>418.0</ele><time>2026-04-05T11:32:14.999Z</time></trkpt><trkpt lat="42.78906590499681" lon="13.647156397568693"><ele>417.0</ele><time>2026-04-05T11:32:15.999Z</time></trkpt><trkpt lat="42.78925444100855" lon="13.647055675940399"><ele>416.0</ele><time>2026-04-05T11:32:16.999Z</time></trkpt><trkpt lat="42.78944070094393" lon="13.646961294903608"><ele>417.3333333333333</ele><time>2026-04-05T11:32:17.999Z</time></trkpt><trkpt lat="42.78962835211711" lon="13.646868207521404"><ele>418.66666666666663</ele><time>2026-04-05T11:32:18.999Z</time></trkpt><trkpt lat="42.78981963906117" lon="13.646773558254376"><ele>420.0</ele><time>2026-04-05T11:32:19.999Z</time></trkpt><trkpt lat="42.79000391545224" lon="13.646680510857147"><ele>420.0</ele><time>2026-04-05T11:32:20.999Z</time></trkpt><trkpt lat="42.79017747897577" lon="13.646594181120046"><ele>420.0</ele><time>2026-04-05T11:32:21.999Z</time></trkpt><trkpt lat="42.790339280747794" lon="13.646508129259864"><ele>420.0</ele><time>2026-04-05T11:32:22.999Z</time></trkpt><trkpt lat="42.790492504783806" lon="13.646425715355896"><ele>420.0</ele><time>2026-04-05T11:32:23.999Z</time></trkpt><trkpt lat="42.7906387018471" lon="13.646350313222172"><ele>420.0</ele><time>2026-04-05T11:32:24.999Z</time></trkpt><trkpt lat="42.79077619977516" lon="13.646275363666634"><ele>420.0</ele><time>2026-04-05T11:32:25.999Z</time></trkpt><trkpt lat="42.79090952496793" lon="13.646197700708237"><ele>420.0</ele><time>2026-04-05T11:32:26.999Z</time></trkpt><trkpt lat="42.79104116559198" lon="13.646115539305598"><ele>420.25</ele><time>2026-04-05T11:32:27.999Z</time></trkpt><trkpt lat="42.791170950918826" lon="13.64603008902678"><ele>420.5</ele><time>2026-04-05T11:32:28.999Z</time></trkpt><trkpt lat="42.79129376948788" lon="13.64594608166674"><ele>420.75</ele><time>2026-04-05T11:32:29.999Z</time></trkpt><trkpt lat="42.79143507822989" lon="13.645841287048615"><ele>421.0</ele><time>2026-04-05T11:32:30.999Z</time></trkpt><trkpt lat="42.79156949817427" lon="13.64575578875273"><ele>421.0</ele><time>2026-04-05T11:32:31.999Z</time></trkpt><trkpt lat="42.79170543668563" lon="13.64566830077731"><ele>421.0</ele><time>2026-04-05T11:32:32.999Z</time></trkpt><trkpt lat="42.791845755239905" lon="13.645584501726724"><ele>421.0</ele><time>2026-04-05T11:32:33.999Z</time></trkpt><trkpt lat="42.79199361799432" lon="13.645508910347951"><ele>420.6666666666667</ele><time>2026-04-05T11:32:34.999Z</time></trkpt><trkpt lat="42.79214520794707" lon="13.645431465528066"><ele>420.33333333333337</ele><time>2026-04-05T11:32:35.999Z</time></trkpt><trkpt lat="42.792303522240616" lon="13.64535350198312"><ele>420.0</ele><time>2026-04-05T11:32:36.999Z</time></trkpt><trkpt lat="42.792466594426905" lon="13.645276074622062"><ele>420.33333333333337</ele><time>2026-04-05T11:32:37.999Z</time></trkpt><trkpt lat="42.79263019990453" lon="13.645202237468158"><ele>420.6666666666667</ele><time>2026-04-05T11:32:38.999Z</time></trkpt><trkpt lat="42.7927957973037" lon="13.645127911503074"><ele>421.0</ele><time>2026-04-05T11:32:39.999Z</time></trkpt><trkpt lat="42.79296186476989" lon="13.645052213813283"><ele>421.0</ele><time>2026-04-05T11:32:40.999Z</time></trkpt><trkpt lat="42.79312762303075" lon="13.644976991386432"><ele>421.0</ele><time>2026-04-05T11:32:41.999Z</time></trkpt><trkpt lat="42.793288403704" lon="13.644904200495496"><ele>421.0</ele><time>2026-04-05T11:32:42.999Z</time></trkpt><trkpt lat="42.79344207536055" lon="13.64483187864407"><ele>420.0</ele><time>2026-04-05T11:32:43.999Z</time></trkpt><trkpt lat="42.7935891864645" lon="13.6447654125196"><ele>419.0</ele><time>2026-04-05T11:32:44.999Z</time></trkpt><trkpt lat="42.793728621893045" lon="13.644700314491889"><ele>418.0</ele><time>2026-04-05T11:32:45.999Z</time></trkpt><trkpt lat="42.79385958905795" lon="13.644637726184339"><ele>417.0</ele><time>2026-04-05T11:32:46.999Z</time></trkpt><trkpt lat="42.79397512758048" lon="13.64458094685878"><ele>417.0</ele><time>2026-04-05T11:32:47.999Z</time></trkpt><trkpt lat="42.794074918466144" lon="13.6445278821549"><ele>417.0</ele><time>2026-04-05T11:32:48.999Z</time></trkpt><trkpt lat="42.7941667828549" lon="13.644463949828866"><ele>417.0</ele><time>2026-04-05T11:32:49.999Z</time></trkpt><trkpt lat="42.79424163845699" lon="13.644379725782462"><ele>417.0</ele><time>2026-04-05T11:32:50.999Z</time></trkpt><trkpt lat="42.79432078632054" lon="13.644275081438504"><ele>417.0</ele><time>2026-04-05T11:32:51.999Z</time></trkpt><trkpt lat="42.794409338571654" lon="13.644151971335857"><ele>416.75</ele><time>2026-04-05T11:32:52.999Z</time></trkpt><trkpt lat="42.79450719156651" lon="13.644018180724157"><ele>416.5</ele><time>2026-04-05T11:32:53.999Z</time></trkpt><trkpt lat="42.79461156121065" lon="13.643874404142377"><ele>416.25</ele><time>2026-04-05T11:32:54.999Z</time></trkpt><trkpt lat="42.79470804139164" lon="13.643742061776855"><ele>416.0</ele><time>2026-04-05T11:32:55.999Z</time></trkpt><trkpt lat="42.7947885359424" lon="13.643630694263626"><ele>416.3333333333333</ele><time>2026-04-05T11:32:56.999Z</time></trkpt><trkpt lat="42.79485924901773" lon="13.643535548610565"><ele>416.66666666666663</ele><time>2026-04-05T11:32:57.999Z</time></trkpt><trkpt lat="42.79491844289748" lon="13.643455500398625"><ele>417.0</ele><time>2026-04-05T11:32:58.999Z</time></trkpt><trkpt lat="42.79496598680988" lon="13.643391959929312"><ele>417.33333333333337</ele><time>2026-04-05T11:32:59.999Z</time></trkpt><trkpt lat="42.795037639734964" lon="13.643356640332476"><ele>417.6666666666667</ele><time>2026-04-05T11:33:01.999Z</time></trkpt><trkpt lat="42.79506177529144" lon="13.643468408819027"><ele>418.0</ele><time>2026-04-05T11:33:03.999Z</time></trkpt><trkpt lat="42.79509275764521" lon="13.643562545050655"><ele>417.6666666666667</ele><time>2026-04-05T11:33:04.999Z</time></trkpt><trkpt lat="42.795122703108106" lon="13.643667035594904"><ele>417.33333333333337</ele><time>2026-04-05T11:33:05.999Z</time></trkpt><trkpt lat="42.79515554497126" lon="13.643764720418906"><ele>417.0</ele><time>2026-04-05T11:33:06.999Z</time></trkpt><trkpt lat="42.795211853125345" lon="13.643860673204866"><ele>416.66666666666663</ele><time>2026-04-05T11:33:07.999Z</time></trkpt><trkpt lat="42.795293521265414" lon="13.643938650578885"><ele>416.3333333333333</ele><time>2026-04-05T11:33:08.999Z</time></trkpt><trkpt lat="42.79536298486968" lon="13.644008725521514"><ele>416.0</ele><time>2026-04-05T11:33:09.999Z</time></trkpt><trkpt lat="42.795439811046215" lon="13.644249621790943"><ele>414.6</ele><time>2026-04-05T11:33:11.999Z</time></trkpt><trkpt lat="42.79547431851756" lon="13.644385225378807"><ele>413.20000000000005</ele><time>2026-04-05T11:33:12.999Z</time></trkpt><trkpt lat="42.79550917083595" lon="13.644510309684602"><ele>411.79999999999995</ele><time>2026-04-05T11:33:13.999Z</time></trkpt><trkpt lat="42.79553958008181" lon="13.644630178150992"><ele>410.4</ele><time>2026-04-05T11:33:14.999Z</time></trkpt><trkpt lat="42.79555607715882" lon="13.644748801033213"><ele>409.0</ele><time>2026-04-05T11:33:15.999Z</time></trkpt><trkpt lat="42.795552193250394" lon="13.644877707764438"><ele>408.75</ele><time>2026-04-05T11:33:16.999Z</time></trkpt><trkpt lat="42.795508443608924" lon="13.645010311141988"><ele>408.5</ele><time>2026-04-05T11:33:17.999Z</time></trkpt><trkpt lat="42.795459640306355" lon="13.645188093167071"><ele>408.25</ele><time>2026-04-05T11:33:18.999Z</time></trkpt><trkpt lat="42.795401632713265" lon="13.645399372852903"><ele>408.0</ele><time>2026-04-05T11:33:19.999Z</time></trkpt><trkpt lat="42.795339556364354" lon="13.645623302954203"><ele>407.0</ele><time>2026-04-05T11:33:20.999Z</time></trkpt><trkpt lat="42.79527845295843" lon="13.645842948854048"><ele>406.0</ele><time>2026-04-05T11:33:21.999Z</time></trkpt><trkpt lat="42.795216794151294" lon="13.646064591239826"><ele>405.0</ele><time>2026-04-05T11:33:22.999Z</time></trkpt><trkpt lat="42.795163890124826" lon="13.646256421524818"><ele>405.0</ele><time>2026-04-05T11:33:23.999Z</time></trkpt><trkpt lat="42.79512634882748" lon="13.646396530824406"><ele>405.0</ele><time>2026-04-05T11:33:24.999Z</time></trkpt><trkpt lat="42.79508990242813" lon="13.646532449217805"><ele>405.0</ele><time>2026-04-05T11:33:25.999Z</time></trkpt><trkpt lat="42.79505142710981" lon="13.646675933994091"><ele>405.0</ele><time>2026-04-05T11:33:26.999Z</time></trkpt><trkpt lat="42.794999759703764" lon="13.6468686154018"><ele>404.0</ele><time>2026-04-05T11:33:27.999Z</time></trkpt><trkpt lat="42.794946804408994" lon="13.647079398569224"><ele>403.0</ele><time>2026-04-05T11:33:28.999Z</time></trkpt><trkpt lat="42.79490659618892" lon="13.647305664524591"><ele>402.0</ele><time>2026-04-05T11:33:29.999Z</time></trkpt><trkpt lat="42.7948554016299" lon="13.64753783651584"><ele>402.0</ele><time>2026-04-05T11:33:30.999Z</time></trkpt><trkpt lat="42.794823818449565" lon="13.647788289201445"><ele>402.0</ele><time>2026-04-05T11:33:31.999Z</time></trkpt><trkpt lat="42.79479593084641" lon="13.64805233799486"><ele>402.0</ele><time>2026-04-05T11:33:32.999Z</time></trkpt><trkpt lat="42.79477810571409" lon="13.648313968402787"><ele>402.33333333333337</ele><time>2026-04-05T11:33:33.999Z</time></trkpt><trkpt lat="42.79475230214941" lon="13.648551346817527"><ele>402.6666666666667</ele><time>2026-04-05T11:33:34.999Z</time></trkpt><trkpt lat="42.794738615378876" lon="13.648770323528376"><ele>403.0</ele><time>2026-04-05T11:33:35.999Z</time></trkpt><trkpt lat="42.79472113189581" lon="13.648972639285654"><ele>402.0</ele><time>2026-04-05T11:33:36.999Z</time></trkpt><trkpt lat="42.79469730783713" lon="13.64916465094234"><ele>401.0</ele><time>2026-04-05T11:33:37.999Z</time></trkpt><trkpt lat="42.79466168702388" lon="13.649369718069114"><ele>400.0</ele><time>2026-04-05T11:33:38.999Z</time></trkpt><trkpt lat="42.79461326249728" lon="13.649604541110984"><ele>399.5</ele><time>2026-04-05T11:33:39.999Z</time></trkpt><trkpt lat="42.79456324676218" lon="13.649826250100816"><ele>399.0</ele><time>2026-04-05T11:33:40.999Z</time></trkpt><trkpt lat="42.79451682125942" lon="13.650012986314673"><ele>398.5</ele><time>2026-04-05T11:33:41.999Z</time></trkpt><trkpt lat="42.794478861256806" lon="13.650165095220302"><ele>398.0</ele><time>2026-04-05T11:33:42.999Z</time></trkpt><trkpt lat="42.79444592125193" lon="13.650289094134557"><ele>397.4</ele><time>2026-04-05T11:33:43.999Z</time></trkpt><trkpt lat="42.794426593414066" lon="13.650398988870965"><ele>396.79999999999995</ele><time>2026-04-05T11:33:44.999Z</time></trkpt><trkpt lat="42.794390200002326" lon="13.650527525119424"><ele>396.2</ele><time>2026-04-05T11:33:46.999Z</time></trkpt><trkpt lat="42.794354465563856" lon="13.65063164288418"><ele>395.6</ele><time>2026-04-05T11:33:50.999Z</time></trkpt><trkpt lat="42.79450873477371" lon="13.650731449017504"><ele>395.0</ele><time>2026-04-05T11:33:51.999Z</time></trkpt><trkpt lat="42.79459430719887" lon="13.650821202681431"><ele>395.0</ele><time>2026-04-05T11:33:52.999Z</time></trkpt><trkpt lat="42.79470700263247" lon="13.650911786183297"><ele>395.0</ele><time>2026-04-05T11:33:53.999Z</time></trkpt><trkpt lat="42.79483102387293" lon="13.651013407821601"><ele>395.0</ele><time>2026-04-05T11:33:54.999Z</time></trkpt><trkpt lat="42.79496344673236" lon="13.651138112626088"><ele>395.0</ele><time>2026-04-05T11:33:55.999Z</time></trkpt><trkpt lat="42.79510097695525" lon="13.651289756032865"><ele>393.0</ele><time>2026-04-05T11:33:56.999Z</time></trkpt><trkpt lat="42.79522711043152" lon="13.65144970239584"><ele>391.0</ele><time>2026-04-05T11:33:57.999Z</time></trkpt><trkpt lat="42.7953348504338" lon="13.651590651807592"><ele>389.0</ele><time>2026-04-05T11:33:58.999Z</time></trkpt><trkpt lat="42.79542762251723" lon="13.651714021638574"><ele>389.0</ele><time>2026-04-05T11:33:59.999Z</time></trkpt><trkpt lat="42.7955074563592" lon="13.651822604550762"><ele>389.0</ele><time>2026-04-05T11:34:00.999Z</time></trkpt><trkpt lat="42.795581917351754" lon="13.651923879800894"><ele>389.0</ele><time>2026-04-05T11:34:01.999Z</time></trkpt><trkpt lat="42.79567542116298" lon="13.652051055398728"><ele>389.0</ele><time>2026-04-05T11:34:02.999Z</time></trkpt><trkpt lat="42.795785572994895" lon="13.652200874166448"><ele>388.66666666666663</ele><time>2026-04-05T11:34:03.999Z</time></trkpt><trkpt lat="42.795909462330016" lon="13.652369426189951"><ele>388.33333333333337</ele><time>2026-04-05T11:34:04.999Z</time></trkpt><trkpt lat="42.79603537465817" lon="13.652541028600538"><ele>388.0</ele><time>2026-04-05T11:34:05.999Z</time></trkpt><trkpt lat="42.79617722641905" lon="13.652714383819571"><ele>386.0</ele><time>2026-04-05T11:34:06.999Z</time></trkpt><trkpt lat="42.79631503520238" lon="13.652896649488524"><ele>384.0</ele><time>2026-04-05T11:34:07.999Z</time></trkpt><trkpt lat="42.79645385201898" lon="13.653084946481027"><ele>382.0</ele><time>2026-04-05T11:34:08.999Z</time></trkpt><trkpt lat="42.79659409340801" lon="13.65327346671704"><ele>382.0</ele><time>2026-04-05T11:34:09.999Z</time></trkpt><trkpt lat="42.796740285676414" lon="13.653468288601363"><ele>382.0</ele><time>2026-04-05T11:34:10.999Z</time></trkpt><trkpt lat="42.796886510520096" lon="13.653666803791213"><ele>382.0</ele><time>2026-04-05T11:34:11.999Z</time></trkpt><trkpt lat="42.79703318766719" lon="13.653871369869147"><ele>381.0</ele><time>2026-04-05T11:34:12.999Z</time></trkpt><trkpt lat="42.79718337863967" lon="13.654073694797944"><ele>380.0</ele><time>2026-04-05T11:34:13.999Z</time></trkpt><trkpt lat="42.79733152358813" lon="13.654272786019263"><ele>379.0</ele><time>2026-04-05T11:34:14.999Z</time></trkpt><trkpt lat="42.79747878436475" lon="13.654466751207012"><ele>379.0</ele><time>2026-04-05T11:34:15.999Z</time></trkpt><trkpt lat="42.79760767942082" lon="13.654673234810161"><ele>379.0</ele><time>2026-04-05T11:34:16.999Z</time></trkpt><trkpt lat="42.79773593381453" lon="13.654866190648342"><ele>379.0</ele><time>2026-04-05T11:34:17.999Z</time></trkpt><trkpt lat="42.797867217086754" lon="13.65505866217171"><ele>377.3333333333333</ele><time>2026-04-05T11:34:18.999Z</time></trkpt><trkpt lat="42.79797839136539" lon="13.655286193860213"><ele>375.6666666666667</ele><time>2026-04-05T11:34:19.999Z</time></trkpt><trkpt lat="42.798084908532196" lon="13.655528316286167"><ele>374.0</ele><time>2026-04-05T11:34:20.999Z</time></trkpt><trkpt lat="42.79819315861899" lon="13.655773351039032"><ele>373.33333333333337</ele><time>2026-04-05T11:34:21.999Z</time></trkpt><trkpt lat="42.798306655579225" lon="13.656032852773114"><ele>372.6666666666667</ele><time>2026-04-05T11:34:22.999Z</time></trkpt><trkpt lat="42.798420338986055" lon="13.656294310230194"><ele>372.0</ele><time>2026-04-05T11:34:23.999Z</time></trkpt><trkpt lat="42.798532088725736" lon="13.656551256511916"><ele>370.6666666666667</ele><time>2026-04-05T11:34:24.999Z</time></trkpt><trkpt lat="42.798639147700484" lon="13.656800911553471"><ele>369.33333333333337</ele><time>2026-04-05T11:34:25.999Z</time></trkpt><trkpt lat="42.7987426336571" lon="13.657045639764384"><ele>368.0</ele><time>2026-04-05T11:34:26.999Z</time></trkpt><trkpt lat="42.79884789284473" lon="13.657295353519563"><ele>367.6666666666667</ele><time>2026-04-05T11:34:27.999Z</time></trkpt><trkpt lat="42.79895880109727" lon="13.657548380732807"><ele>367.3333333333333</ele><time>2026-04-05T11:34:28.999Z</time></trkpt><trkpt lat="42.799071565068324" lon="13.657801121361572"><ele>367.0</ele><time>2026-04-05T11:34:29.999Z</time></trkpt><trkpt lat="42.79917653665992" lon="13.658080508385552"><ele>364.5</ele><time>2026-04-05T11:34:30.999Z</time></trkpt><trkpt lat="42.79928885285153" lon="13.658338166010148"><ele>362.0</ele><time>2026-04-05T11:34:31.999Z</time></trkpt><trkpt lat="42.7994079210082" lon="13.658611361123533"><ele>362.0</ele><time>2026-04-05T11:34:32.999Z</time></trkpt><trkpt lat="42.799542567137316" lon="13.658875815970791"><ele>362.0</ele><time>2026-04-05T11:34:33.999Z</time></trkpt><trkpt lat="42.79964908762868" lon="13.659163956887578"><ele>362.0</ele><time>2026-04-05T11:34:34.999Z</time></trkpt><trkpt lat="42.79977179067894" lon="13.659445089406017"><ele>362.0</ele><time>2026-04-05T11:34:36Z</time></trkpt><trkpt lat="42.79989463761638" lon="13.659726551654899"><ele>360.0</ele><time>2026-04-05T11:34:37Z</time></trkpt><trkpt lat="42.80002009907553" lon="13.66001324281378"><ele>358.0</ele><time>2026-04-05T11:34:38Z</time></trkpt><trkpt lat="42.80014552553083" lon="13.660299739149966"><ele>355.0</ele><time>2026-04-05T11:34:39Z</time></trkpt><trkpt lat="42.800271971416564" lon="13.660588273392905"><ele>352.0</ele><time>2026-04-05T11:34:40Z</time></trkpt><trkpt lat="42.8003966862914" lon="13.6608728576742"><ele>352.5</ele><time>2026-04-05T11:34:41Z</time></trkpt><trkpt lat="42.800522735215104" lon="13.661160486099732"><ele>353.0</ele><time>2026-04-05T11:34:42Z</time></trkpt><trkpt lat="42.80064517016469" lon="13.661439867864773"><ele>353.0</ele><time>2026-04-05T11:34:43Z</time></trkpt><trkpt lat="42.80076637505445" lon="13.66171625433399"><ele>353.0</ele><time>2026-04-05T11:34:44Z</time></trkpt><trkpt lat="42.80089950092563" lon="13.661980469829942"><ele>348.5</ele><time>2026-04-05T11:34:45Z</time></trkpt><trkpt lat="42.801023220202325" lon="13.662256416020274"><ele>344.0</ele><time>2026-04-05T11:34:46Z</time></trkpt><trkpt lat="42.80113111219247" lon="13.662540015459925"><ele>345.5</ele><time>2026-04-05T11:34:47Z</time></trkpt><trkpt lat="42.80126177511445" lon="13.66280256923098"><ele>347.0</ele><time>2026-04-05T11:34:48Z</time></trkpt><trkpt lat="42.80137122593146" lon="13.663071996509768"><ele>347.0</ele><time>2026-04-05T11:34:49Z</time></trkpt><trkpt lat="42.801466439716755" lon="13.663331410571965"><ele>347.0</ele><time>2026-04-05T11:34:50Z</time></trkpt><trkpt lat="42.801531883000735" lon="13.663587634938427"><ele>347.0</ele><time>2026-04-05T11:34:51Z</time></trkpt><trkpt lat="42.8015806200194" lon="13.663861082754112"><ele>344.5</ele><time>2026-04-05T11:34:52Z</time></trkpt><trkpt lat="42.801670698514485" lon="13.664118049057487"><ele>342.0</ele><time>2026-04-05T11:34:53Z</time></trkpt><trkpt lat="42.80163302060406" lon="13.664460939340742"><ele>342.0</ele><time>2026-04-05T11:34:54Z</time></trkpt><trkpt lat="42.80165855767564" lon="13.664758833143907"><ele>342.0</ele><time>2026-04-05T11:34:55Z</time></trkpt><trkpt lat="42.801685444688296" lon="13.665056739442534"><ele>342.0</ele><time>2026-04-05T11:34:56Z</time></trkpt><trkpt lat="42.801710380290764" lon="13.665350972132085"><ele>342.0</ele><time>2026-04-05T11:34:57Z</time></trkpt><trkpt lat="42.801735972146915" lon="13.66564483152028"><ele>342.0</ele><time>2026-04-05T11:34:58Z</time></trkpt><trkpt lat="42.801761385337734" lon="13.665933519152317"><ele>342.0</ele><time>2026-04-05T11:34:59Z</time></trkpt><trkpt lat="42.801785531379274" lon="13.666224610212948"><ele>341.6666666666667</ele><time>2026-04-05T11:35:00Z</time></trkpt><trkpt lat="42.801810308506" lon="13.666511020901572"><ele>341.33333333333337</ele><time>2026-04-05T11:35:01Z</time></trkpt><trkpt lat="42.80183448070508" lon="13.666806412952164"><ele>341.0</ele><time>2026-04-05T11:35:02Z</time></trkpt><trkpt lat="42.801860179753106" lon="13.66710449912877"><ele>339.33333333333337</ele><time>2026-04-05T11:35:03Z</time></trkpt><trkpt lat="42.80188705201409" lon="13.667407058916382"><ele>337.6666666666667</ele><time>2026-04-05T11:35:04Z</time></trkpt><trkpt lat="42.801911861924" lon="13.66771209780571"><ele>336.0</ele><time>2026-04-05T11:35:05Z</time></trkpt><trkpt lat="42.80193579987569" lon="13.668017225596424"><ele>336.0</ele><time>2026-04-05T11:35:06Z</time></trkpt><trkpt lat="42.80195901375006" lon="13.66831865227238"><ele>336.0</ele><time>2026-04-05T11:35:07Z</time></trkpt><trkpt lat="42.801985044574174" lon="13.66861730847707"><ele>336.0</ele><time>2026-04-05T11:35:08Z</time></trkpt><trkpt lat="42.80200994464944" lon="13.668915877616175"><ele>336.3333333333333</ele><time>2026-04-05T11:35:09Z</time></trkpt><trkpt lat="42.802035439065364" lon="13.669219565017436"><ele>336.66666666666663</ele><time>2026-04-05T11:35:10Z</time></trkpt><trkpt lat="42.80205733009963" lon="13.669518027881018"><ele>337.0</ele><time>2026-04-05T11:35:11Z</time></trkpt><trkpt lat="42.80208048305801" lon="13.669793744474614"><ele>337.3333333333333</ele><time>2026-04-05T11:35:12Z</time></trkpt><trkpt lat="42.802102554864014" lon="13.67004867466908"><ele>337.6666666666667</ele><time>2026-04-05T11:35:13Z</time></trkpt><trkpt lat="42.80212587094858" lon="13.670277787012756"><ele>338.0</ele><time>2026-04-05T11:35:14Z</time></trkpt><trkpt lat="42.80215315138874" lon="13.670502023054775"><ele>338.0</ele><time>2026-04-05T11:35:15Z</time></trkpt><trkpt lat="42.802194453350545" lon="13.670736293075903"><ele>338.0</ele><time>2026-04-05T11:35:16Z</time></trkpt><trkpt lat="42.802255327139214" lon="13.670984288592543"><ele>338.0</ele><time>2026-04-05T11:35:17Z</time></trkpt><trkpt lat="42.80233643594711" lon="13.67123723209163"><ele>337.6666666666667</ele><time>2026-04-05T11:35:18Z</time></trkpt><trkpt lat="42.80242818322407" lon="13.671492611843247"><ele>337.3333333333333</ele><time>2026-04-05T11:35:19Z</time></trkpt><trkpt lat="42.80251771199589" lon="13.671757327139256"><ele>337.0</ele><time>2026-04-05T11:35:20Z</time></trkpt><trkpt lat="42.802610609865745" lon="13.672020882480403"><ele>335.0</ele><time>2026-04-05T11:35:21Z</time></trkpt><trkpt lat="42.80270575349662" lon="13.672287374827825"><ele>333.0</ele><time>2026-04-05T11:35:22Z</time></trkpt><trkpt lat="42.80279944154243" lon="13.672542519937963"><ele>331.0</ele><time>2026-04-05T11:35:23Z</time></trkpt><trkpt lat="42.80288272926397" lon="13.672771522253216"><ele>331.0</ele><time>2026-04-05T11:35:24Z</time></trkpt><trkpt lat="42.80295932193809" lon="13.672983265203428"><ele>331.0</ele><time>2026-04-05T11:35:25Z</time></trkpt><trkpt lat="42.80303074875104" lon="13.673189917333321"><ele>331.0</ele><time>2026-04-05T11:35:26Z</time></trkpt><trkpt lat="42.80310013065865" lon="13.67338570421763"><ele>331.0</ele><time>2026-04-05T11:35:27Z</time></trkpt><trkpt lat="42.80316676196442" lon="13.673574598592158"><ele>331.0</ele><time>2026-04-05T11:35:28Z</time></trkpt><trkpt lat="42.80323074125642" lon="13.673758037536693"><ele>331.0</ele><time>2026-04-05T11:35:29Z</time></trkpt><trkpt lat="42.803293918965785" lon="13.673932010481643"><ele>331.0</ele><time>2026-04-05T11:35:30Z</time></trkpt><trkpt lat="42.80335077658821" lon="13.67408929239866"><ele>331.20000000000005</ele><time>2026-04-05T11:35:31Z</time></trkpt><trkpt lat="42.803401003313695" lon="13.674228242563736"><ele>331.40000000000003</ele><time>2026-04-05T11:35:31.999Z</time></trkpt><trkpt lat="42.803440937289" lon="13.674345958804398"><ele>331.6</ele><time>2026-04-05T11:35:32.999Z</time></trkpt><trkpt lat="42.80347761614258" lon="13.67445269944907"><ele>331.8</ele><time>2026-04-05T11:35:33.999Z</time></trkpt><trkpt lat="42.80351430625886" lon="13.674563699178586"><ele>332.0</ele><time>2026-04-05T11:35:34.999Z</time></trkpt><trkpt lat="42.80356340243684" lon="13.674688356148229"><ele>330.75</ele><time>2026-04-05T11:35:35.999Z</time></trkpt><trkpt lat="42.803616504716366" lon="13.67483208533463"><ele>329.5</ele><time>2026-04-05T11:35:36.999Z</time></trkpt><trkpt lat="42.80367298279665" lon="13.674978934190335"><ele>328.25</ele><time>2026-04-05T11:35:37.999Z</time></trkpt><trkpt lat="42.803726400080365" lon="13.675135504677588"><ele>327.0</ele><time>2026-04-05T11:35:38.999Z</time></trkpt><trkpt lat="42.80377928419015" lon="13.675298607233149"><ele>327.0</ele><time>2026-04-05T11:35:39.999Z</time></trkpt><trkpt lat="42.80383515536741" lon="13.675464359663108"><ele>327.0</ele><time>2026-04-05T11:35:40.999Z</time></trkpt><trkpt lat="42.803894188682726" lon="13.67563093120036"><ele>327.0</ele><time>2026-04-05T11:35:41.999Z</time></trkpt><trkpt lat="42.803955886383335" lon="13.675800557247602"><ele>327.0</ele><time>2026-04-05T11:35:42.999Z</time></trkpt><trkpt lat="42.80401630290812" lon="13.675971787686086"><ele>327.0</ele><time>2026-04-05T11:35:43.999Z</time></trkpt><trkpt lat="42.80407729199649" lon="13.67614894934137"><ele>327.0</ele><time>2026-04-05T11:35:44.999Z</time></trkpt><trkpt lat="42.80414301667016" lon="13.67633811352327"><ele>327.0</ele><time>2026-04-05T11:35:45.999Z</time></trkpt><trkpt lat="42.80421432814653" lon="13.676538244597538"><ele>327.0</ele><time>2026-04-05T11:35:46.999Z</time></trkpt><trkpt lat="42.804287399354955" lon="13.676745996396786"><ele>327.0</ele><time>2026-04-05T11:35:47.999Z</time></trkpt><trkpt lat="42.80436247328323" lon="13.676958695193697"><ele>327.0</ele><time>2026-04-05T11:35:48.999Z</time></trkpt><trkpt lat="42.80444591125799" lon="13.677173761663823"><ele>325.6666666666667</ele><time>2026-04-05T11:35:49.999Z</time></trkpt><trkpt lat="42.80454780836154" lon="13.677376506282082"><ele>324.33333333333337</ele><time>2026-04-05T11:35:50.999Z</time></trkpt><trkpt lat="42.80467481701014" lon="13.677578488836952"><ele>323.0</ele><time>2026-04-05T11:35:51.999Z</time></trkpt><trkpt lat="42.80482320521607" lon="13.677765938436377"><ele>322.0</ele><time>2026-04-05T11:35:52.999Z</time></trkpt><trkpt lat="42.80499177671993" lon="13.677958506304586"><ele>321.0</ele><time>2026-04-05T11:35:53.999Z</time></trkpt><trkpt lat="42.805169425942715" lon="13.678153039040716"><ele>320.0</ele><time>2026-04-05T11:35:54.999Z</time></trkpt><trkpt lat="42.8053563149979" lon="13.678350474028289"><ele>318.5</ele><time>2026-04-05T11:35:55.999Z</time></trkpt><trkpt lat="42.80554374473927" lon="13.678545907062908"><ele>317.0</ele><time>2026-04-05T11:35:56.999Z</time></trkpt><trkpt lat="42.80573405622018" lon="13.67874174168258"><ele>314.0</ele><time>2026-04-05T11:35:57.999Z</time></trkpt><trkpt lat="42.80592352256391" lon="13.678934262931588"><ele>311.0</ele><time>2026-04-05T11:35:58.999Z</time></trkpt><trkpt lat="42.80610932689617" lon="13.679125241226211"><ele>311.0</ele><time>2026-04-05T11:35:59.999Z</time></trkpt><trkpt lat="42.80628895122242" lon="13.679309402415036"><ele>311.0</ele><time>2026-04-05T11:36:00.999Z</time></trkpt><trkpt lat="42.8064718785255" lon="13.679495092547917"><ele>311.0</ele><time>2026-04-05T11:36:01.999Z</time></trkpt><trkpt lat="42.80665012519709" lon="13.679678295015092"><ele>311.0</ele><time>2026-04-05T11:36:02.999Z</time></trkpt><trkpt lat="42.80683157504544" lon="13.679863435824279"><ele>310.0</ele><time>2026-04-05T11:36:03.999Z</time></trkpt><trkpt lat="42.80701115784824" lon="13.680047032946268"><ele>309.0</ele><time>2026-04-05T11:36:04.999Z</time></trkpt><trkpt lat="42.807191027746605" lon="13.680232874879035"><ele>310.0</ele><time>2026-04-05T11:36:05.999Z</time></trkpt><trkpt lat="42.807368623070936" lon="13.68041809062711"><ele>311.0</ele><time>2026-04-05T11:36:06.999Z</time></trkpt><trkpt lat="42.80755018721638" lon="13.680602938261604"><ele>311.0</ele><time>2026-04-05T11:36:07.999Z</time></trkpt><trkpt lat="42.80772504891235" lon="13.680784001228114"><ele>311.0</ele><time>2026-04-05T11:36:08.999Z</time></trkpt><trkpt lat="42.80789653831886" lon="13.680962936953472"><ele>311.0</ele><time>2026-04-05T11:36:09.999Z</time></trkpt><trkpt lat="42.80807116536635" lon="13.681141032666158"><ele>311.0</ele><time>2026-04-05T11:36:10.999Z</time></trkpt><trkpt lat="42.80824589187076" lon="13.681320090226706"><ele>311.0</ele><time>2026-04-05T11:36:11.999Z</time></trkpt><trkpt lat="42.80841647029724" lon="13.681499562624278"><ele>311.0</ele><time>2026-04-05T11:36:12.999Z</time></trkpt><trkpt lat="42.80859297094272" lon="13.68167945679788"><ele>309.6666666666667</ele><time>2026-04-05T11:36:13.999Z</time></trkpt><trkpt lat="42.80877417516669" lon="13.68186551979162"><ele>308.3333333333333</ele><time>2026-04-05T11:36:14.999Z</time></trkpt><trkpt lat="42.80895000032366" lon="13.682048027110518"><ele>307.0</ele><time>2026-04-05T11:36:15.999Z</time></trkpt><trkpt lat="42.8091257672229" lon="13.682228588906325"><ele>307.0</ele><time>2026-04-05T11:36:16.999Z</time></trkpt><trkpt lat="42.809299696868585" lon="13.682408121339652"><ele>307.0</ele><time>2026-04-05T11:36:18Z</time></trkpt><trkpt lat="42.8094731120216" lon="13.682589404366976"><ele>307.0</ele><time>2026-04-05T11:36:19Z</time></trkpt><trkpt lat="42.80965171089642" lon="13.68277213733735"><ele>305.5</ele><time>2026-04-05T11:36:20Z</time></trkpt><trkpt lat="42.80983088790737" lon="13.682957626926896"><ele>304.0</ele><time>2026-04-05T11:36:21Z</time></trkpt><trkpt lat="42.81001249373079" lon="13.683145499363281"><ele>304.0</ele><time>2026-04-05T11:36:22Z</time></trkpt><trkpt lat="42.810191968412305" lon="13.683333716015493"><ele>304.0</ele><time>2026-04-05T11:36:23Z</time></trkpt><trkpt lat="42.810376593811924" lon="13.683524833070178"><ele>302.5</ele><time>2026-04-05T11:36:24Z</time></trkpt><trkpt lat="42.8105596761657" lon="13.683717567369307"><ele>301.0</ele><time>2026-04-05T11:36:25Z</time></trkpt><trkpt lat="42.81074452909771" lon="13.683911042942986"><ele>301.0</ele><time>2026-04-05T11:36:26Z</time></trkpt><trkpt lat="42.81092672610919" lon="13.684099995403026"><ele>301.0</ele><time>2026-04-05T11:36:27Z</time></trkpt><trkpt lat="42.81111017095363" lon="13.684289821795167"><ele>300.66666666666663</ele><time>2026-04-05T11:36:28Z</time></trkpt><trkpt lat="42.81128803665552" lon="13.6844725186974"><ele>300.3333333333333</ele><time>2026-04-05T11:36:29Z</time></trkpt><trkpt lat="42.81145799244805" lon="13.684645131099838"><ele>300.0</ele><time>2026-04-05T11:36:30Z</time></trkpt><trkpt lat="42.81163081297664" lon="13.684829615767637"><ele>300.0</ele><time>2026-04-05T11:36:31Z</time></trkpt><trkpt lat="42.81180313588699" lon="13.685002153561813"><ele>300.0</ele><time>2026-04-05T11:36:32Z</time></trkpt><trkpt lat="42.81196796813157" lon="13.68517181949922"><ele>300.0</ele><time>2026-04-05T11:36:33Z</time></trkpt><trkpt lat="42.81213650004002" lon="13.685339149869503"><ele>300.3333333333333</ele><time>2026-04-05T11:36:34Z</time></trkpt><trkpt lat="42.812300625438404" lon="13.685505633659957"><ele>300.66666666666663</ele><time>2026-04-05T11:36:35Z</time></trkpt><trkpt lat="42.812462226474395" lon="13.685674030072924"><ele>301.0</ele><time>2026-04-05T11:36:36Z</time></trkpt><trkpt lat="42.81262517064763" lon="13.685842834382015"><ele>299.3333333333333</ele><time>2026-04-05T11:36:37Z</time></trkpt><trkpt lat="42.812785319646316" lon="13.686010210032379"><ele>297.6666666666667</ele><time>2026-04-05T11:36:38Z</time></trkpt><trkpt lat="42.81294734177809" lon="13.686174490917127"><ele>296.0</ele><time>2026-04-05T11:36:39Z</time></trkpt><trkpt lat="42.813109770569184" lon="13.686338760516662"><ele>296.0</ele><time>2026-04-05T11:36:40Z</time></trkpt><trkpt lat="42.813267139806854" lon="13.686504239300614"><ele>296.0</ele><time>2026-04-05T11:36:41Z</time></trkpt><trkpt lat="42.8134263317766" lon="13.686667753183608"><ele>296.0</ele><time>2026-04-05T11:36:42Z</time></trkpt><trkpt lat="42.81358476307997" lon="13.686835811909324"><ele>294.33333333333337</ele><time>2026-04-05T11:36:43Z</time></trkpt><trkpt lat="42.813751965775886" lon="13.687011264460981"><ele>292.6666666666667</ele><time>2026-04-05T11:36:44Z</time></trkpt><trkpt lat="42.813928078072216" lon="13.687197189947502"><ele>291.0</ele><time>2026-04-05T11:36:45Z</time></trkpt><trkpt lat="42.81409605067843" lon="13.687387914727495"><ele>291.0</ele><time>2026-04-05T11:36:46Z</time></trkpt><trkpt lat="42.81425427176404" lon="13.687586692849713"><ele>291.0</ele><time>2026-04-05T11:36:47Z</time></trkpt><trkpt lat="42.8144016401593" lon="13.687804293671775"><ele>291.0</ele><time>2026-04-05T11:36:48Z</time></trkpt><trkpt lat="42.814542774385714" lon="13.688032583728408"><ele>291.0</ele><time>2026-04-05T11:36:49Z</time></trkpt><trkpt lat="42.8146831224334" lon="13.6882641254003"><ele>291.0</ele><time>2026-04-05T11:36:50Z</time></trkpt><trkpt lat="42.814816732927085" lon="13.68850452575983"><ele>291.0</ele><time>2026-04-05T11:36:51Z</time></trkpt><trkpt lat="42.81495195991232" lon="13.68874035936779"><ele>290.3333333333333</ele><time>2026-04-05T11:36:52Z</time></trkpt><trkpt lat="42.81508498100464" lon="13.688972223372682"><ele>289.66666666666663</ele><time>2026-04-05T11:36:53Z</time></trkpt><trkpt lat="42.81521265881796" lon="13.689197771209196"><ele>289.0</ele><time>2026-04-05T11:36:54Z</time></trkpt><trkpt lat="42.81533465712185" lon="13.689409491569817"><ele>288.0</ele><time>2026-04-05T11:36:55Z</time></trkpt><trkpt lat="42.81544595967262" lon="13.689603065530175"><ele>287.0</ele><time>2026-04-05T11:36:56Z</time></trkpt><trkpt lat="42.81554897972817" lon="13.689782633896789"><ele>286.0</ele><time>2026-04-05T11:36:57Z</time></trkpt><trkpt lat="42.815644609967165" lon="13.689953903053372"><ele>286.0</ele><time>2026-04-05T11:36:58Z</time></trkpt><trkpt lat="42.81573706788141" lon="13.690119080995766"><ele>286.0</ele><time>2026-04-05T11:36:59Z</time></trkpt><trkpt lat="42.815822554397535" lon="13.6902716128621"><ele>286.0</ele><time>2026-04-05T11:37:00Z</time></trkpt><trkpt lat="42.81590484697451" lon="13.690411650261966"><ele>286.0</ele><time>2026-04-05T11:37:01Z</time></trkpt><trkpt lat="42.815982759202505" lon="13.690544490538946"><ele>286.0</ele><time>2026-04-05T11:37:02Z</time></trkpt><trkpt lat="42.816053231390754" lon="13.6906734729942"><ele>286.0</ele><time>2026-04-05T11:37:03Z</time></trkpt><trkpt lat="42.81612006545411" lon="13.690791137698092"><ele>286.0</ele><time>2026-04-05T11:37:04Z</time></trkpt><trkpt lat="42.81618356513695" lon="13.690896564682367"><ele>286.0</ele><time>2026-04-05T11:37:05Z</time></trkpt><trkpt lat="42.81624168181347" lon="13.690991847945059"><ele>286.0</ele><time>2026-04-05T11:37:06Z</time></trkpt><trkpt lat="42.81628849386087" lon="13.6910754667821"><ele>285.6</ele><time>2026-04-05T11:37:07Z</time></trkpt><trkpt lat="42.816350350015426" lon="13.691186441270473"><ele>285.20000000000005</ele><time>2026-04-05T11:37:09Z</time></trkpt><trkpt lat="42.81639773645031" lon="13.691280458896568"><ele>284.79999999999995</ele><time>2026-04-05T11:37:27Z</time></trkpt><trkpt lat="42.81646895072927" lon="13.69140331483879"><ele>284.4</ele><time>2026-04-05T11:37:29Z</time></trkpt><trkpt lat="42.81652464813917" lon="13.69150323106836"><ele>284.0</ele><time>2026-04-05T11:37:31Z</time></trkpt><trkpt lat="42.81657491380471" lon="13.691588145769986"><ele>284.0</ele><time>2026-04-05T11:37:34Z</time></trkpt><trkpt lat="42.816700444398656" lon="13.691463015932765"><ele>284.0</ele><time>2026-04-05T11:37:35Z</time></trkpt><trkpt lat="42.816763316358525" lon="13.691371356588107"><ele>284.0</ele><time>2026-04-05T11:37:36Z</time></trkpt><trkpt lat="42.81682302348859" lon="13.691249074117398"><ele>284.0</ele><time>2026-04-05T11:37:37Z</time></trkpt><trkpt lat="42.81689327039622" lon="13.691099487188376"><ele>284.0</ele><time>2026-04-05T11:37:38Z</time></trkpt><trkpt lat="42.81696069589907" lon="13.690944918185977"><ele>284.0</ele><time>2026-04-05T11:37:39Z</time></trkpt><trkpt lat="42.81702411965119" lon="13.690791793017569"><ele>284.0</ele><time>2026-04-05T11:37:40Z</time></trkpt><trkpt lat="42.817087018948435" lon="13.690638944232035"><ele>284.0</ele><time>2026-04-05T11:37:41Z</time></trkpt><trkpt lat="42.81715541705136" lon="13.690477643731302"><ele>284.0</ele><time>2026-04-05T11:37:42Z</time></trkpt><trkpt lat="42.817232607764595" lon="13.690306364393155"><ele>284.0</ele><time>2026-04-05T11:37:43Z</time></trkpt><trkpt lat="42.81729833262171" lon="13.690138870879986"><ele>284.0</ele><time>2026-04-05T11:37:44Z</time></trkpt><trkpt lat="42.817350400300704" lon="13.689995829918573"><ele>284.0</ele><time>2026-04-05T11:37:45Z</time></trkpt><trkpt lat="42.81739794215085" lon="13.689847952282129"><ele>284.25</ele><time>2026-04-05T11:37:46Z</time></trkpt><trkpt lat="42.81743664847463" lon="13.68968164245697"><ele>284.5</ele><time>2026-04-05T11:37:47Z</time></trkpt><trkpt lat="42.8174669572131" lon="13.689502544185652"><ele>284.75</ele><time>2026-04-05T11:37:48Z</time></trkpt><trkpt lat="42.81748576311981" lon="13.689317421067443"><ele>285.0</ele><time>2026-04-05T11:37:49Z</time></trkpt><trkpt lat="42.81751388903168" lon="13.689151564475516"><ele>285.5</ele><time>2026-04-05T11:37:50Z</time></trkpt><trkpt lat="42.81750821079365" lon="13.688987598666458"><ele>286.0</ele><time>2026-04-05T11:37:51Z</time></trkpt><trkpt lat="42.81753455519016" lon="13.688837787982814"><ele>286.5</ele><time>2026-04-05T11:37:52Z</time></trkpt><trkpt lat="42.817598881194606" lon="13.688699340155244"><ele>287.0</ele><time>2026-04-05T11:37:53Z</time></trkpt><trkpt lat="42.81764583082203" lon="13.688530090079908"><ele>286.0</ele><time>2026-04-05T11:37:54Z</time></trkpt><trkpt lat="42.8177204297719" lon="13.688362831207279"><ele>285.0</ele><time>2026-04-05T11:37:55Z</time></trkpt><trkpt lat="42.81779247539755" lon="13.688190393450878"><ele>284.0</ele><time>2026-04-05T11:37:56Z</time></trkpt><trkpt lat="42.81786227247441" lon="13.688028616543143"><ele>283.0</ele><time>2026-04-05T11:37:57Z</time></trkpt><trkpt lat="42.81793517963203" lon="13.687861373835231"><ele>283.5</ele><time>2026-04-05T11:37:58Z</time></trkpt><trkpt lat="42.818009904658126" lon="13.687686188480997"><ele>284.0</ele><time>2026-04-05T11:37:59Z</time></trkpt><trkpt lat="42.81808107928757" lon="13.687520702133941"><ele>284.5</ele><time>2026-04-05T11:38:00Z</time></trkpt><trkpt lat="42.81814389650221" lon="13.68736875672156"><ele>285.0</ele><time>2026-04-05T11:38:01Z</time></trkpt><trkpt lat="42.818204701081484" lon="13.687219843147291"><ele>285.0</ele><time>2026-04-05T11:38:02Z</time></trkpt><trkpt lat="42.8182738438995" lon="13.687052794999119"><ele>285.0</ele><time>2026-04-05T11:38:03Z</time></trkpt><trkpt lat="42.81828953315646" lon="13.686835564103234"><ele>285.0</ele><time>2026-04-05T11:38:04Z</time></trkpt><trkpt lat="42.81832589790789" lon="13.686617446704698"><ele>284.6666666666667</ele><time>2026-04-05T11:38:05Z</time></trkpt><trkpt lat="42.81836993626204" lon="13.686394486893308"><ele>284.33333333333337</ele><time>2026-04-05T11:38:06Z</time></trkpt><trkpt lat="42.818422793208114" lon="13.686180270721247"><ele>284.0</ele><time>2026-04-05T11:38:07Z</time></trkpt><trkpt lat="42.81849080022826" lon="13.685981592190934"><ele>283.6666666666667</ele><time>2026-04-05T11:38:08Z</time></trkpt><trkpt lat="42.81857617754829" lon="13.685805838248163"><ele>283.3333333333333</ele><time>2026-04-05T11:38:09Z</time></trkpt><trkpt lat="42.81868716160939" lon="13.685639682242769"><ele>283.0</ele><time>2026-04-05T11:38:10Z</time></trkpt><trkpt lat="42.818813941507635" lon="13.685470685146866"><ele>283.0</ele><time>2026-04-05T11:38:11Z</time></trkpt><trkpt lat="42.81894191130658" lon="13.685299218560807"><ele>283.0</ele><time>2026-04-05T11:38:12Z</time></trkpt><trkpt lat="42.81907274870335" lon="13.685119862871698"><ele>283.0</ele><time>2026-04-05T11:38:13Z</time></trkpt><trkpt lat="42.81921508675752" lon="13.684937171769313"><ele>282.3333333333333</ele><time>2026-04-05T11:38:14Z</time></trkpt><trkpt lat="42.81936555057681" lon="13.68475309082978"><ele>281.6666666666667</ele><time>2026-04-05T11:38:15Z</time></trkpt><trkpt lat="42.81950841843086" lon="13.684554287727048"><ele>281.0</ele><time>2026-04-05T11:38:16Z</time></trkpt><trkpt lat="42.819639866811016" lon="13.684332107368444"><ele>281.0</ele><time>2026-04-05T11:38:17Z</time></trkpt><trkpt lat="42.8197619212822" lon="13.684082066793842"><ele>281.0</ele><time>2026-04-05T11:38:18Z</time></trkpt><trkpt lat="42.819879954133256" lon="13.68380868844712"><ele>281.0</ele><time>2026-04-05T11:38:19Z</time></trkpt><trkpt lat="42.81999659590439" lon="13.683529514269035"><ele>281.0</ele><time>2026-04-05T11:38:20Z</time></trkpt><trkpt lat="42.82011272252852" lon="13.683276137765107"><ele>280.33333333333337</ele><time>2026-04-05T11:38:21Z</time></trkpt><trkpt lat="42.820233689496945" lon="13.683046322711665"><ele>279.6666666666667</ele><time>2026-04-05T11:38:22Z</time></trkpt><trkpt lat="42.82036080235226" lon="13.682844231665673"><ele>279.0</ele><time>2026-04-05T11:38:23Z</time></trkpt><trkpt lat="42.820495053717714" lon="13.682657209705487"><ele>278.0</ele><time>2026-04-05T11:38:24Z</time></trkpt><trkpt lat="42.82062305375873" lon="13.682467100355069"><ele>277.0</ele><time>2026-04-05T11:38:25Z</time></trkpt><trkpt lat="42.82073971324743" lon="13.682245030779264"><ele>276.0</ele><time>2026-04-05T11:38:26Z</time></trkpt><trkpt lat="42.820847487365924" lon="13.681993944918258"><ele>276.6666666666667</ele><time>2026-04-05T11:38:27Z</time></trkpt><trkpt lat="42.820944400276964" lon="13.681721054894078"><ele>277.33333333333337</ele><time>2026-04-05T11:38:28Z</time></trkpt><trkpt lat="42.82103253426202" lon="13.68143808390281"><ele>278.0</ele><time>2026-04-05T11:38:29Z</time></trkpt><trkpt lat="42.821115410616045" lon="13.68114218810436"><ele>275.5</ele><time>2026-04-05T11:38:30Z</time></trkpt><trkpt lat="42.821199488183275" lon="13.680842602004393"><ele>273.0</ele><time>2026-04-05T11:38:31Z</time></trkpt><trkpt lat="42.82128423567049" lon="13.680541125316457"><ele>273.5</ele><time>2026-04-05T11:38:32Z</time></trkpt><trkpt lat="42.82136918507242" lon="13.680236836050087"><ele>274.0</ele><time>2026-04-05T11:38:33Z</time></trkpt><trkpt lat="42.82145731780933" lon="13.67992970402301"><ele>274.0</ele><time>2026-04-05T11:38:34Z</time></trkpt><trkpt lat="42.821544119709245" lon="13.679617966095579"><ele>274.0</ele><time>2026-04-05T11:38:35Z</time></trkpt><trkpt lat="42.82162402628043" lon="13.67932221332018"><ele>275.0</ele><time>2026-04-05T11:38:36Z</time></trkpt><trkpt lat="42.82170965082028" lon="13.678990373690306"><ele>276.0</ele><time>2026-04-05T11:38:37Z</time></trkpt><trkpt lat="42.821788910603615" lon="13.678680826268122"><ele>274.5</ele><time>2026-04-05T11:38:38Z</time></trkpt><trkpt lat="42.821868011118625" lon="13.678378783883092"><ele>273.0</ele><time>2026-04-05T11:38:39Z</time></trkpt><trkpt lat="42.82194745208988" lon="13.678082794374406"><ele>273.0</ele><time>2026-04-05T11:38:40Z</time></trkpt><trkpt lat="42.82202996763227" lon="13.677805584216221"><ele>273.0</ele><time>2026-04-05T11:38:41Z</time></trkpt><trkpt lat="42.82210451072842" lon="13.677557579869974"><ele>273.0</ele><time>2026-04-05T11:38:42Z</time></trkpt><trkpt lat="42.82219734598111" lon="13.677305177020136"><ele>273.5</ele><time>2026-04-05T11:38:43Z</time></trkpt><trkpt lat="42.82231263155584" lon="13.677046574226784"><ele>274.0</ele><time>2026-04-05T11:38:44Z</time></trkpt><trkpt lat="42.82243742955966" lon="13.67678139371366"><ele>274.0</ele><time>2026-04-05T11:38:45Z</time></trkpt><trkpt lat="42.8225656955613" lon="13.676520799417878"><ele>274.0</ele><time>2026-04-05T11:38:46Z</time></trkpt><trkpt lat="42.82270165828706" lon="13.676261737719614"><ele>273.5</ele><time>2026-04-05T11:38:47Z</time></trkpt><trkpt lat="42.82283169602398" lon="13.675998172802833"><ele>273.0</ele><time>2026-04-05T11:38:48Z</time></trkpt><trkpt lat="42.822953882132396" lon="13.675733155780312"><ele>273.0</ele><time>2026-04-05T11:38:49Z</time></trkpt><trkpt lat="42.82306793840711" lon="13.675461139834852"><ele>273.0</ele><time>2026-04-05T11:38:50Z</time></trkpt><trkpt lat="42.82317612322634" lon="13.675176052042818"><ele>273.0</ele><time>2026-04-05T11:38:51Z</time></trkpt><trkpt lat="42.82327965614122" lon="13.674874769855846"><ele>273.0</ele><time>2026-04-05T11:38:52Z</time></trkpt><trkpt lat="42.82337743392514" lon="13.67457323641406"><ele>273.0</ele><time>2026-04-05T11:38:53Z</time></trkpt><trkpt lat="42.82346753082809" lon="13.67426958165789"><ele>273.0</ele><time>2026-04-05T11:38:54Z</time></trkpt><trkpt lat="42.82355035312344" lon="13.67396379827989"><ele>273.0</ele><time>2026-04-05T11:38:55Z</time></trkpt><trkpt lat="42.82362160242292" lon="13.673657497386918"><ele>273.0</ele><time>2026-04-05T11:38:56Z</time></trkpt><trkpt lat="42.82368308708568" lon="13.673347175204533"><ele>272.5</ele><time>2026-04-05T11:38:57Z</time></trkpt><trkpt lat="42.823735029658216" lon="13.673031873366241"><ele>272.0</ele><time>2026-04-05T11:38:58Z</time></trkpt><trkpt lat="42.823763455360776" lon="13.672699178883347"><ele>273.0</ele><time>2026-04-05T11:38:59Z</time></trkpt><trkpt lat="42.82377087832566" lon="13.67237175004255"><ele>274.0</ele><time>2026-04-05T11:39:00Z</time></trkpt><trkpt lat="42.82375961505004" lon="13.672027692390028"><ele>274.0</ele><time>2026-04-05T11:39:01Z</time></trkpt><trkpt lat="42.82375265128848" lon="13.671673649571146"><ele>274.0</ele><time>2026-04-05T11:39:02Z</time></trkpt><trkpt lat="42.82374657087399" lon="13.67132813492349"><ele>275.0</ele><time>2026-04-05T11:39:03Z</time></trkpt><trkpt lat="42.823743225877195" lon="13.670983629512408"><ele>276.0</ele><time>2026-04-05T11:39:04Z</time></trkpt><trkpt lat="42.82373956550018" lon="13.670640289662495"><ele>276.0</ele><time>2026-04-05T11:39:05Z</time></trkpt><trkpt lat="42.82375261364112" lon="13.67028992563722"><ele>276.0</ele><time>2026-04-05T11:39:06Z</time></trkpt><trkpt lat="42.82380051329876" lon="13.66996203849685"><ele>276.3333333333333</ele><time>2026-04-05T11:39:07Z</time></trkpt><trkpt lat="42.82384583855983" lon="13.66966197833396"><ele>276.66666666666663</ele><time>2026-04-05T11:39:08Z</time></trkpt><trkpt lat="42.82388024230385" lon="13.669365861016828"><ele>277.0</ele><time>2026-04-05T11:39:09Z</time></trkpt><trkpt lat="42.82394697099292" lon="13.669071610376278"><ele>277.0</ele><time>2026-04-05T11:39:10Z</time></trkpt><trkpt lat="42.82401607276568" lon="13.668773430427356"><ele>277.0</ele><time>2026-04-05T11:39:11Z</time></trkpt><trkpt lat="42.82408113419755" lon="13.668470404506019"><ele>278.0</ele><time>2026-04-05T11:39:12Z</time></trkpt><trkpt lat="42.824148003920406" lon="13.668169195176674"><ele>279.0</ele><time>2026-04-05T11:39:13Z</time></trkpt><trkpt lat="42.8242162022702" lon="13.667869481185331"><ele>279.0</ele><time>2026-04-05T11:39:14Z</time></trkpt><trkpt lat="42.82428588750331" lon="13.667569765764789"><ele>279.0</ele><time>2026-04-05T11:39:15Z</time></trkpt><trkpt lat="42.82435480112811" lon="13.667265099893942"><ele>278.5</ele><time>2026-04-05T11:39:16Z</time></trkpt><trkpt lat="42.82441920298824" lon="13.666960413660329"><ele>278.0</ele><time>2026-04-05T11:39:17Z</time></trkpt><trkpt lat="42.824481937366535" lon="13.666672733103534"><ele>278.0</ele><time>2026-04-05T11:39:18Z</time></trkpt><trkpt lat="42.82454884908385" lon="13.666386880601598"><ele>278.0</ele><time>2026-04-05T11:39:19Z</time></trkpt><trkpt lat="42.824620276161674" lon="13.666087779552047"><ele>277.0</ele><time>2026-04-05T11:39:20Z</time></trkpt><trkpt lat="42.824680021215705" lon="13.665770751882912"><ele>276.0</ele><time>2026-04-05T11:39:21Z</time></trkpt><trkpt lat="42.82472975113443" lon="13.665428156095969"><ele>276.0</ele><time>2026-04-05T11:39:22Z</time></trkpt><trkpt lat="42.82476732698953" lon="13.665066818781932"><ele>276.0</ele><time>2026-04-05T11:39:23Z</time></trkpt><trkpt lat="42.82479376675191" lon="13.664693061004815"><ele>276.5</ele><time>2026-04-05T11:39:24Z</time></trkpt><trkpt lat="42.82480538649852" lon="13.664309128310762"><ele>277.0</ele><time>2026-04-05T11:39:25Z</time></trkpt><trkpt lat="42.82479765397524" lon="13.663921789226922"><ele>278.0</ele><time>2026-04-05T11:39:26Z</time></trkpt><trkpt lat="42.82477782792727" lon="13.663537398508533"><ele>279.0</ele><time>2026-04-05T11:39:27Z</time></trkpt><trkpt lat="42.824750761420276" lon="13.663160054973314"><ele>279.0</ele><time>2026-04-05T11:39:28Z</time></trkpt><trkpt lat="42.8247246245317" lon="13.662802166491957"><ele>279.0</ele><time>2026-04-05T11:39:29Z</time></trkpt><trkpt lat="42.824704247365666" lon="13.662458141195833"><ele>280.0</ele><time>2026-04-05T11:39:30Z</time></trkpt><trkpt lat="42.82468668649569" lon="13.662120756397739"><ele>281.0</ele><time>2026-04-05T11:39:31Z</time></trkpt><trkpt lat="42.8246680137853" lon="13.661793835960692"><ele>281.0</ele><time>2026-04-05T11:39:32Z</time></trkpt><trkpt lat="42.82464939510677" lon="13.661479869279471"><ele>281.0</ele><time>2026-04-05T11:39:33Z</time></trkpt><trkpt lat="42.824630986772455" lon="13.661188473417043"><ele>281.0</ele><time>2026-04-05T11:39:34Z</time></trkpt><trkpt lat="42.824615886374964" lon="13.66091374693955"><ele>281.0</ele><time>2026-04-05T11:39:35Z</time></trkpt><trkpt lat="42.82461355681969" lon="13.6606433016872"><ele>281.0</ele><time>2026-04-05T11:39:36Z</time></trkpt><trkpt lat="42.82461942606494" lon="13.660372111837134"><ele>281.0</ele><time>2026-04-05T11:39:37Z</time></trkpt><trkpt lat="42.824630705341924" lon="13.660100069145523"><ele>281.33333333333337</ele><time>2026-04-05T11:39:38Z</time></trkpt><trkpt lat="42.824648276313454" lon="13.659827660781025"><ele>281.6666666666667</ele><time>2026-04-05T11:39:39Z</time></trkpt><trkpt lat="42.824675261394034" lon="13.65955980966721"><ele>282.0</ele><time>2026-04-05T11:39:40Z</time></trkpt><trkpt lat="42.82470911756057" lon="13.659312873069494"><ele>282.6666666666667</ele><time>2026-04-05T11:39:41Z</time></trkpt><trkpt lat="42.82474558410204" lon="13.659083950530704"><ele>283.33333333333337</ele><time>2026-04-05T11:39:42Z</time></trkpt><trkpt lat="42.824784047073656" lon="13.658869391254596"><ele>284.0</ele><time>2026-04-05T11:39:43Z</time></trkpt><trkpt lat="42.8248203942165" lon="13.658662659365481"><ele>284.25</ele><time>2026-04-05T11:39:44Z</time></trkpt><trkpt lat="42.82485297569403" lon="13.658465260553466"><ele>284.5</ele><time>2026-04-05T11:39:45Z</time></trkpt><trkpt lat="42.82488042418847" lon="13.658284930348064"><ele>284.75</ele><time>2026-04-05T11:39:46Z</time></trkpt><trkpt lat="42.82490553565745" lon="13.658128247439937"><ele>285.0</ele><time>2026-04-05T11:39:47Z</time></trkpt><trkpt lat="42.82494327919978" lon="13.65801047848716"><ele>285.0</ele><time>2026-04-05T11:39:48Z</time></trkpt><trkpt lat="42.82500676215765" lon="13.657925606523287"><ele>285.0</ele><time>2026-04-05T11:39:49Z</time></trkpt><trkpt lat="42.825088838201914" lon="13.65786050896992"><ele>285.0</ele><time>2026-04-05T11:39:50Z</time></trkpt><trkpt lat="42.82519670769637" lon="13.65780870907925"><ele>285.0</ele><time>2026-04-05T11:39:51Z</time></trkpt><trkpt lat="42.82533357350097" lon="13.657769859366496"><ele>285.0</ele><time>2026-04-05T11:39:52Z</time></trkpt><trkpt lat="42.82548879056195" lon="13.657741020302886"><ele>285.3333333333333</ele><time>2026-04-05T11:39:53Z</time></trkpt><trkpt lat="42.82566313282574" lon="13.657707400644627"><ele>285.66666666666663</ele><time>2026-04-05T11:39:54Z</time></trkpt><trkpt lat="42.825847610147505" lon="13.657669233395474"><ele>286.0</ele><time>2026-04-05T11:39:55Z</time></trkpt><trkpt lat="42.82603612073791" lon="13.657657263521093"><ele>286.66666666666663</ele><time>2026-04-05T11:39:56Z</time></trkpt><trkpt lat="42.82622623837104" lon="13.65768848028903"><ele>287.3333333333333</ele><time>2026-04-05T11:39:57Z</time></trkpt><trkpt lat="42.826422436289505" lon="13.657750155882567"><ele>288.0</ele><time>2026-04-05T11:39:58Z</time></trkpt><trkpt lat="42.82661714559284" lon="13.657814974607495"><ele>288.0</ele><time>2026-04-05T11:39:59Z</time></trkpt><trkpt lat="42.82678553250664" lon="13.657867687451517"><ele>288.0</ele><time>2026-04-05T11:40:00Z</time></trkpt><trkpt lat="42.826923938624326" lon="13.6578983341811"><ele>288.0</ele><time>2026-04-05T11:40:01Z</time></trkpt><trkpt lat="42.82705062867193" lon="13.657902690040467"><ele>288.0</ele><time>2026-04-05T11:40:02Z</time></trkpt><trkpt lat="42.82716789707264" lon="13.65786624724414"><ele>288.75</ele><time>2026-04-05T11:40:03Z</time></trkpt><trkpt lat="42.82725405374444" lon="13.657787448774679"><ele>289.5</ele><time>2026-04-05T11:40:04Z</time></trkpt><trkpt lat="42.827372552546116" lon="13.65767159314078"><ele>290.25</ele><time>2026-04-05T11:40:05Z</time></trkpt><trkpt lat="42.827458882935474" lon="13.657562899364557"><ele>291.0</ele><time>2026-04-05T11:40:06Z</time></trkpt><trkpt lat="42.82753980265947" lon="13.657488907039415"><ele>291.0</ele><time>2026-04-05T11:40:07Z</time></trkpt><trkpt lat="42.827606974284826" lon="13.657454413949026"><ele>291.0</ele><time>2026-04-05T11:40:08Z</time></trkpt><trkpt lat="42.82767915099444" lon="13.657449087043315"><ele>291.0</ele><time>2026-04-05T11:40:09Z</time></trkpt><trkpt lat="42.827752545516425" lon="13.657477460594215"><ele>291.0</ele><time>2026-04-05T11:40:10Z</time></trkpt><trkpt lat="42.82783623804178" lon="13.657536461585503"><ele>291.0</ele><time>2026-04-05T11:40:11Z</time></trkpt><trkpt lat="42.82793847084315" lon="13.657621060126555"><ele>291.0</ele><time>2026-04-05T11:40:12Z</time></trkpt><trkpt lat="42.828059479627065" lon="13.657727902907586"><ele>293.6666666666667</ele><time>2026-04-05T11:40:13Z</time></trkpt><trkpt lat="42.82820297885456" lon="13.657814932775945"><ele>296.33333333333337</ele><time>2026-04-05T11:40:14Z</time></trkpt><trkpt lat="42.828366592840524" lon="13.657869936123369"><ele>299.0</ele><time>2026-04-05T11:40:15Z</time></trkpt><trkpt lat="42.82852383931079" lon="13.657897695891059"><ele>299.59999999999997</ele><time>2026-04-05T11:40:16Z</time></trkpt><trkpt lat="42.828659510628036" lon="13.65789153583659"><ele>300.2</ele><time>2026-04-05T11:40:17Z</time></trkpt><trkpt lat="42.82877075683546" lon="13.65785072903729"><ele>300.79999999999995</ele><time>2026-04-05T11:40:18Z</time></trkpt><trkpt lat="42.82886104863549" lon="13.657802207149611"><ele>301.4</ele><time>2026-04-05T11:40:19Z</time></trkpt><trkpt lat="42.82892853771453" lon="13.657796887282185"><ele>302.0</ele><time>2026-04-05T11:40:20Z</time></trkpt><trkpt lat="42.82896772374418" lon="13.657967339193176"><ele>302.0</ele><time>2026-04-05T11:40:22Z</time></trkpt><trkpt lat="42.82892679156307" lon="13.658082864388769"><ele>302.0</ele><time>2026-04-05T11:40:23Z</time></trkpt><trkpt lat="42.82886586751208" lon="13.658210826877495"><ele>302.0</ele><time>2026-04-05T11:40:24Z</time></trkpt><trkpt lat="42.82879405438302" lon="13.658366809552122"><ele>302.0</ele><time>2026-04-05T11:40:25Z</time></trkpt><trkpt lat="42.8287237815551" lon="13.658554575932593"><ele>303.6666666666667</ele><time>2026-04-05T11:40:26Z</time></trkpt><trkpt lat="42.828652533465736" lon="13.658752968412655"><ele>305.3333333333333</ele><time>2026-04-05T11:40:27Z</time></trkpt><trkpt lat="42.828569882996106" lon="13.658970639384108"><ele>307.0</ele><time>2026-04-05T11:40:28Z</time></trkpt><trkpt lat="42.82849557906937" lon="13.659160623758115"><ele>308.0</ele><time>2026-04-05T11:40:29Z</time></trkpt><trkpt lat="42.82844950778969" lon="13.6593231351237"><ele>309.0</ele><time>2026-04-05T11:40:29.999Z</time></trkpt><trkpt lat="42.828447430071606" lon="13.659499249265435"><ele>310.0</ele><time>2026-04-05T11:40:30.999Z</time></trkpt><trkpt lat="42.828487262013994" lon="13.659709177463803"><ele>311.0</ele><time>2026-04-05T11:40:31.999Z</time></trkpt><trkpt lat="42.82856591094633" lon="13.659947218528313"><ele>311.0</ele><time>2026-04-05T11:40:32.999Z</time></trkpt><trkpt lat="42.82866675884829" lon="13.660197618102048"><ele>311.0</ele><time>2026-04-05T11:40:33.999Z</time></trkpt><trkpt lat="42.82879520127596" lon="13.660452156255698"><ele>311.0</ele><time>2026-04-05T11:40:34.999Z</time></trkpt><trkpt lat="42.82893614332483" lon="13.660704355771992"><ele>311.5</ele><time>2026-04-05T11:40:35.999Z</time></trkpt><trkpt lat="42.82904861483188" lon="13.660969190866645"><ele>312.0</ele><time>2026-04-05T11:40:36.999Z</time></trkpt><trkpt lat="42.82915338577377" lon="13.661245128403671"><ele>309.5</ele><time>2026-04-05T11:40:37.999Z</time></trkpt><trkpt lat="42.82927071284138" lon="13.66152925823986"><ele>307.0</ele><time>2026-04-05T11:40:38.999Z</time></trkpt><trkpt lat="42.82938918128061" lon="13.661852359606149"><ele>310.0</ele><time>2026-04-05T11:40:39.999Z</time></trkpt><trkpt lat="42.82950897038131" lon="13.662174150724296"><ele>313.0</ele><time>2026-04-05T11:40:40.999Z</time></trkpt><trkpt lat="42.82963316936588" lon="13.66251105154203"><ele>310.5</ele><time>2026-04-05T11:40:41.999Z</time></trkpt><trkpt lat="42.82976096176091" lon="13.662853203500438"><ele>308.0</ele><time>2026-04-05T11:40:42.999Z</time></trkpt><trkpt lat="42.82988734370227" lon="13.663195582245006"><ele>308.0</ele><time>2026-04-05T11:40:43.999Z</time></trkpt><trkpt lat="42.83000988127629" lon="13.663531462424517"><ele>308.0</ele><time>2026-04-05T11:40:44.999Z</time></trkpt><trkpt lat="42.83013059762525" lon="13.663855387017241"><ele>311.0</ele><time>2026-04-05T11:40:45.999Z</time></trkpt><trkpt lat="42.83024092262016" lon="13.664165805312193"><ele>314.0</ele><time>2026-04-05T11:40:46.999Z</time></trkpt><trkpt lat="42.83033344180732" lon="13.664445025768472"><ele>313.6666666666667</ele><time>2026-04-05T11:40:47.999Z</time></trkpt><trkpt lat="42.83039578837582" lon="13.664675973805307"><ele>313.3333333333333</ele><time>2026-04-05T11:40:48.999Z</time></trkpt><trkpt lat="42.830436174387515" lon="13.664881423074135"><ele>313.0</ele><time>2026-04-05T11:40:49.999Z</time></trkpt><trkpt lat="42.83042017464115" lon="13.665090838209052"><ele>312.3333333333333</ele><time>2026-04-05T11:40:50.999Z</time></trkpt><trkpt lat="42.83039322635299" lon="13.665319397298543"><ele>311.6666666666667</ele><time>2026-04-05T11:40:51.999Z</time></trkpt><trkpt lat="42.83036962147498" lon="13.665590015255358"><ele>311.0</ele><time>2026-04-05T11:40:52.999Z</time></trkpt><trkpt lat="42.83032604482916" lon="13.66587818433722"><ele>310.0</ele><time>2026-04-05T11:40:53.999Z</time></trkpt><trkpt lat="42.83029620343914" lon="13.666176331997246"><ele>309.0</ele><time>2026-04-05T11:40:54.999Z</time></trkpt><trkpt lat="42.8302664261956" lon="13.666489997289661"><ele>309.0</ele><time>2026-04-05T11:40:55.999Z</time></trkpt><trkpt lat="42.83022749638283" lon="13.666813992533301"><ele>309.0</ele><time>2026-04-05T11:40:56.999Z</time></trkpt><trkpt lat="42.830180040676815" lon="13.667146351396518"><ele>305.0</ele><time>2026-04-05T11:40:57.999Z</time></trkpt><trkpt lat="42.83011937221999" lon="13.667488243442829"><ele>301.0</ele><time>2026-04-05T11:40:58.999Z</time></trkpt><trkpt lat="42.830048465518594" lon="13.667833461947277"><ele>301.0</ele><time>2026-04-05T11:40:59.999Z</time></trkpt><trkpt lat="42.829980231018645" lon="13.66818044478758"><ele>301.0</ele><time>2026-04-05T11:41:00.999Z</time></trkpt><trkpt lat="42.82991500554512" lon="13.6685201457655"><ele>301.0</ele><time>2026-04-05T11:41:01.999Z</time></trkpt><trkpt lat="42.82985576720062" lon="13.668836177971322"><ele>301.0</ele><time>2026-04-05T11:41:02.999Z</time></trkpt><trkpt lat="42.82980721971505" lon="13.669115677952455"><ele>301.0</ele><time>2026-04-05T11:41:03.999Z</time></trkpt><trkpt lat="42.82976855200955" lon="13.669380743110525"><ele>301.0</ele><time>2026-04-05T11:41:04.999Z</time></trkpt><trkpt lat="42.829752564147725" lon="13.669643732413762"><ele>301.0</ele><time>2026-04-05T11:41:05.999Z</time></trkpt><trkpt lat="42.829766674682936" lon="13.669920603779337"><ele>301.3333333333333</ele><time>2026-04-05T11:41:06.999Z</time></trkpt><trkpt lat="42.829793976074555" lon="13.670185650304953"><ele>301.6666666666667</ele><time>2026-04-05T11:41:07.999Z</time></trkpt><trkpt lat="42.82982975647662" lon="13.670417413794645"><ele>302.0</ele><time>2026-04-05T11:41:08.999Z</time></trkpt><trkpt lat="42.82986509428341" lon="13.670651083202431"><ele>301.0</ele><time>2026-04-05T11:41:09.999Z</time></trkpt><trkpt lat="42.829901189064444" lon="13.67090595433639"><ele>300.0</ele><time>2026-04-05T11:41:10.999Z</time></trkpt><trkpt lat="42.8299502265753" lon="13.671165064210463"><ele>299.0</ele><time>2026-04-05T11:41:11.999Z</time></trkpt><trkpt lat="42.8300062648911" lon="13.671432490690409"><ele>298.0</ele><time>2026-04-05T11:41:12.999Z</time></trkpt><trkpt lat="42.830063248705244" lon="13.671705600266773"><ele>297.0</ele><time>2026-04-05T11:41:13.999Z</time></trkpt><trkpt lat="42.83012434456531" lon="13.671979604982537"><ele>296.0</ele><time>2026-04-05T11:41:14.999Z</time></trkpt><trkpt lat="42.83018514359231" lon="13.672250813061032"><ele>296.0</ele><time>2026-04-05T11:41:15.999Z</time></trkpt><trkpt lat="42.830247086880185" lon="13.672521601654083"><ele>296.0</ele><time>2026-04-05T11:41:16.999Z</time></trkpt><trkpt lat="42.8303035684059" lon="13.672785108298967"><ele>296.0</ele><time>2026-04-05T11:41:17.999Z</time></trkpt><trkpt lat="42.83035412934731" lon="13.673034841385284"><ele>295.0</ele><time>2026-04-05T11:41:18.999Z</time></trkpt><trkpt lat="42.830388853311185" lon="13.673265891415575"><ele>294.0</ele><time>2026-04-05T11:41:19.999Z</time></trkpt><trkpt lat="42.83040232057369" lon="13.673492682762683"><ele>293.0</ele><time>2026-04-05T11:41:20.999Z</time></trkpt><trkpt lat="42.83038684993601" lon="13.673725243252404"><ele>291.0</ele><time>2026-04-05T11:41:21.999Z</time></trkpt><trkpt lat="42.83035596815245" lon="13.673957762354345"><ele>289.0</ele><time>2026-04-05T11:41:22.999Z</time></trkpt><trkpt lat="42.83034214746657" lon="13.674195561303499"><ele>287.0</ele><time>2026-04-05T11:41:23.999Z</time></trkpt><trkpt lat="42.830348967888696" lon="13.674434043407189"><ele>287.33333333333337</ele><time>2026-04-05T11:41:24.999Z</time></trkpt><trkpt lat="42.83037172047306" lon="13.674666253200614"><ele>287.6666666666667</ele><time>2026-04-05T11:41:25.999Z</time></trkpt><trkpt lat="42.83039629257984" lon="13.674903001740338"><ele>288.0</ele><time>2026-04-05T11:41:26.999Z</time></trkpt><trkpt lat="42.83041942070625" lon="13.675145634001703"><ele>289.6666666666667</ele><time>2026-04-05T11:41:27.999Z</time></trkpt><trkpt lat="42.830438849090214" lon="13.675390130223445"><ele>291.33333333333337</ele><time>2026-04-05T11:41:28.999Z</time></trkpt><trkpt lat="42.83046206888086" lon="13.675636501034548"><ele>293.0</ele><time>2026-04-05T11:41:29.999Z</time></trkpt><trkpt lat="42.83048460246257" lon="13.675884032947028"><ele>294.0</ele><time>2026-04-05T11:41:30.999Z</time></trkpt><trkpt lat="42.830504555606105" lon="13.676120467243184"><ele>295.0</ele><time>2026-04-05T11:41:31.999Z</time></trkpt><trkpt lat="42.83052308535386" lon="13.676326101544454"><ele>296.0</ele><time>2026-04-05T11:41:32.999Z</time></trkpt><trkpt lat="42.83054383127834" lon="13.676487507687787"><ele>297.0</ele><time>2026-04-05T11:41:33.999Z</time></trkpt><trkpt lat="42.83058395206857" lon="13.676624813703121"><ele>297.0</ele><time>2026-04-05T11:41:34.999Z</time></trkpt><trkpt lat="42.830653211609814" lon="13.676764406160254"><ele>297.0</ele><time>2026-04-05T11:41:35.999Z</time></trkpt><trkpt lat="42.83073088612934" lon="13.676893362175594"><ele>297.0</ele><time>2026-04-05T11:41:36.999Z</time></trkpt><trkpt lat="42.83082227378302" lon="13.677039195899884"><ele>297.0</ele><time>2026-04-05T11:41:37.999Z</time></trkpt><trkpt lat="42.830916938247036" lon="13.677197531577317"><ele>294.3333333333333</ele><time>2026-04-05T11:41:38.999Z</time></trkpt><trkpt lat="42.83101404398103" lon="13.67736331508246"><ele>291.66666666666663</ele><time>2026-04-05T11:41:39.999Z</time></trkpt><trkpt lat="42.831104867065676" lon="13.677530095876953"><ele>289.0</ele><time>2026-04-05T11:41:40.999Z</time></trkpt><trkpt lat="42.83119454836166" lon="13.677688597400385"><ele>290.75</ele><time>2026-04-05T11:41:41.999Z</time></trkpt><trkpt lat="42.831279103896506" lon="13.67784234027055"><ele>292.5</ele><time>2026-04-05T11:41:42.999Z</time></trkpt><trkpt lat="42.83135533162289" lon="13.677999063336287"><ele>294.25</ele><time>2026-04-05T11:41:43.999Z</time></trkpt><trkpt lat="42.831423536342655" lon="13.678177743952473"><ele>296.0</ele><time>2026-04-05T11:41:44.999Z</time></trkpt><trkpt lat="42.83147385109555" lon="13.678381294709903"><ele>296.6666666666667</ele><time>2026-04-05T11:41:45.999Z</time></trkpt><trkpt lat="42.83150564649775" lon="13.678602933233874"><ele>297.3333333333333</ele><time>2026-04-05T11:41:46.999Z</time></trkpt><trkpt lat="42.83153526295272" lon="13.678835770799227"><ele>298.0</ele><time>2026-04-05T11:41:47.999Z</time></trkpt><trkpt lat="42.83156560142537" lon="13.679062458176432"><ele>298.0</ele><time>2026-04-05T11:41:48.999Z</time></trkpt><trkpt lat="42.831600071888445" lon="13.679271981995393"><ele>298.0</ele><time>2026-04-05T11:41:49.999Z</time></trkpt><trkpt lat="42.83165264267698" lon="13.679477909834233"><ele>298.0</ele><time>2026-04-05T11:41:50.999Z</time></trkpt><trkpt lat="42.831721015597964" lon="13.679687491532313"><ele>298.0</ele><time>2026-04-05T11:41:51.999Z</time></trkpt><trkpt lat="42.83180220340643" lon="13.679903033885488"><ele>298.0</ele><time>2026-04-05T11:41:52.999Z</time></trkpt><trkpt lat="42.83188192564321" lon="13.680103157190963"><ele>298.0</ele><time>2026-04-05T11:41:53.999Z</time></trkpt><trkpt lat="42.831949693697446" lon="13.680294062736962"><ele>297.0</ele><time>2026-04-05T11:41:54.999Z</time></trkpt><trkpt lat="42.832004839286334" lon="13.68049035470777"><ele>296.0</ele><time>2026-04-05T11:41:55.999Z</time></trkpt><trkpt lat="42.832040986975" lon="13.680700507621339"><ele>295.0</ele><time>2026-04-05T11:41:56.999Z</time></trkpt><trkpt lat="42.83205231619725" lon="13.680914282431672"><ele>297.0</ele><time>2026-04-05T11:41:57.999Z</time></trkpt><trkpt lat="42.83203999495671" lon="13.68113185739748"><ele>299.0</ele><time>2026-04-05T11:41:58.999Z</time></trkpt><trkpt lat="42.83201154390689" lon="13.681345794992469"><ele>301.0</ele><time>2026-04-05T11:41:59.999Z</time></trkpt><trkpt lat="42.8319756688917" lon="13.681558026787485"><ele>301.0</ele><time>2026-04-05T11:42:00.999Z</time></trkpt><trkpt lat="42.831934512639535" lon="13.681767114817951"><ele>301.0</ele><time>2026-04-05T11:42:01.999Z</time></trkpt><trkpt lat="42.831894432062796" lon="13.681973170829366"><ele>301.0</ele><time>2026-04-05T11:42:02.999Z</time></trkpt><trkpt lat="42.83185260016915" lon="13.682179308028807"><ele>300.66666666666663</ele><time>2026-04-05T11:42:03.999Z</time></trkpt><trkpt lat="42.831810796428975" lon="13.682384735677672"><ele>300.3333333333333</ele><time>2026-04-05T11:42:04.999Z</time></trkpt><trkpt lat="42.83177235592209" lon="13.682589309006138"><ele>300.0</ele><time>2026-04-05T11:42:05.999Z</time></trkpt><trkpt lat="42.83173861415172" lon="13.682789627263436"><ele>299.25</ele><time>2026-04-05T11:42:06.999Z</time></trkpt><trkpt lat="42.83170948112012" lon="13.682977011738155"><ele>298.5</ele><time>2026-04-05T11:42:07.999Z</time></trkpt><trkpt lat="42.83168471991729" lon="13.683154938902081"><ele>297.75</ele><time>2026-04-05T11:42:08.999Z</time></trkpt><trkpt lat="42.83166335437601" lon="13.68334035598276"><ele>297.0</ele><time>2026-04-05T11:42:09.999Z</time></trkpt><trkpt lat="42.83164866547019" lon="13.683536919649772"><ele>296.6</ele><time>2026-04-05T11:42:10.999Z</time></trkpt><trkpt lat="42.83164373109427" lon="13.68371617086282"><ele>296.2</ele><time>2026-04-05T11:42:11.999Z</time></trkpt><trkpt lat="42.831645083227386" lon="13.683876256542199"><ele>295.8</ele><time>2026-04-05T11:42:12.999Z</time></trkpt><trkpt lat="42.83165387550189" lon="13.684010110971236"><ele>295.4</ele><time>2026-04-05T11:42:13.999Z</time></trkpt><trkpt lat="42.83166719578897" lon="13.684119840048583"><ele>295.0</ele><time>2026-04-05T11:42:14.999Z</time></trkpt><trkpt lat="42.831698700863456" lon="13.68425815588733"><ele>295.0</ele><time>2026-04-05T11:42:16.999Z</time></trkpt><trkpt lat="42.83178777738549" lon="13.684308740107351"><ele>295.0</ele><time>2026-04-05T11:42:18.999Z</time></trkpt><trkpt lat="42.83191165230591" lon="13.684202215627145"><ele>295.0</ele><time>2026-04-05T11:42:20.999Z</time></trkpt><trkpt lat="42.83198762500717" lon="13.684094395379407"><ele>295.0</ele><time>2026-04-05T11:42:21.999Z</time></trkpt><trkpt lat="42.832076481710395" lon="13.683971078237626"><ele>294.66666666666663</ele><time>2026-04-05T11:42:22.999Z</time></trkpt><trkpt lat="42.832181149560235" lon="13.683839324128794"><ele>294.3333333333333</ele><time>2026-04-05T11:42:23.999Z</time></trkpt><trkpt lat="42.832305571373986" lon="13.683685628087563"><ele>294.0</ele><time>2026-04-05T11:42:24.999Z</time></trkpt><trkpt lat="42.832437703883194" lon="13.68351634830488"><ele>294.0</ele><time>2026-04-05T11:42:25.999Z</time></trkpt><trkpt lat="42.83257062532021" lon="13.683335078029295"><ele>294.0</ele><time>2026-04-05T11:42:26.999Z</time></trkpt><trkpt lat="42.832691273635895" lon="13.683173725384385"><ele>294.0</ele><time>2026-04-05T11:42:27.999Z</time></trkpt><trkpt lat="42.8328040507016" lon="13.683028279256725"><ele>291.25</ele><time>2026-04-05T11:42:28.999Z</time></trkpt><trkpt lat="42.83291387398367" lon="13.682893234814708"><ele>288.5</ele><time>2026-04-05T11:42:29.999Z</time></trkpt><trkpt lat="42.83301749505236" lon="13.682763324054967"><ele>285.75</ele><time>2026-04-05T11:42:30.999Z</time></trkpt><trkpt lat="42.83310190433424" lon="13.682636699861638"><ele>283.0</ele><time>2026-04-05T11:42:31.999Z</time></trkpt><trkpt lat="42.833167015010844" lon="13.682470256666392"><ele>283.0</ele><time>2026-04-05T11:42:32.999Z</time></trkpt><trkpt lat="42.83322526662366" lon="13.682261325804909"><ele>283.0</ele><time>2026-04-05T11:42:33.999Z</time></trkpt><trkpt lat="42.833288715435664" lon="13.682031834292093"><ele>283.0</ele><time>2026-04-05T11:42:34.999Z</time></trkpt><trkpt lat="42.83336445562881" lon="13.681802573878226"><ele>283.75</ele><time>2026-04-05T11:42:35.999Z</time></trkpt><trkpt lat="42.83342978446288" lon="13.681602529906987"><ele>284.5</ele><time>2026-04-05T11:42:36.999Z</time></trkpt><trkpt lat="42.833481628771224" lon="13.681441127129363"><ele>285.25</ele><time>2026-04-05T11:42:37.999Z</time></trkpt><trkpt lat="42.8335255293423" lon="13.681305377292635"><ele>286.0</ele><time>2026-04-05T11:42:38.999Z</time></trkpt><trkpt lat="42.83356627080246" lon="13.68119446103995"><ele>281.2</ele><time>2026-04-05T11:42:39.999Z</time></trkpt><trkpt lat="42.83362640918027" lon="13.681101948906438"><ele>276.40000000000003</ele><time>2026-04-05T11:42:40.999Z</time></trkpt><trkpt lat="42.83373056414821" lon="13.681056695238691"><ele>271.6</ele><time>2026-04-05T11:42:41.999Z</time></trkpt><trkpt lat="42.83383656940735" lon="13.681071200723078"><ele>266.8</ele><time>2026-04-05T11:42:42.999Z</time></trkpt><trkpt lat="42.83393688939134" lon="13.681146531675061"><ele>262.0</ele><time>2026-04-05T11:42:43.999Z</time></trkpt><trkpt lat="42.834002491008214" lon="13.681272303950145"><ele>262.0</ele><time>2026-04-05T11:42:44.999Z</time></trkpt><trkpt lat="42.83401950222976" lon="13.68140187540155"><ele>262.0</ele><time>2026-04-05T11:42:45.999Z</time></trkpt><trkpt lat="42.83402908896437" lon="13.68155789402532"><ele>262.0</ele><time>2026-04-05T11:42:46.999Z</time></trkpt><trkpt lat="42.834039054181" lon="13.68165926601028"><ele>262.0</ele><time>2026-04-05T11:42:47.999Z</time></trkpt><trkpt lat="42.83408731148272" lon="13.681833084265735"><ele>262.0</ele><time>2026-04-05T11:42:48.999Z</time></trkpt><trkpt lat="42.83417392039943" lon="13.68198292328457"><ele>260.66666666666663</ele><time>2026-04-05T11:42:49.999Z</time></trkpt><trkpt lat="42.83429866909146" lon="13.682102946736933"><ele>259.3333333333333</ele><time>2026-04-05T11:42:50.999Z</time></trkpt><trkpt lat="42.83445111366109" lon="13.682209385196566"><ele>258.0</ele><time>2026-04-05T11:42:51.999Z</time></trkpt><trkpt lat="42.83461113806533" lon="13.682327632241485"><ele>255.33333333333331</ele><time>2026-04-05T11:42:52.999Z</time></trkpt><trkpt lat="42.834765680992795" lon="13.682457824493689"><ele>252.66666666666666</ele><time>2026-04-05T11:42:53.999Z</time></trkpt><trkpt lat="42.834895307400004" lon="13.682623005977097"><ele>250.0</ele><time>2026-04-05T11:42:54.999Z</time></trkpt><trkpt lat="42.8350125080719" lon="13.682792346261573"><ele>250.0</ele><time>2026-04-05T11:42:55.999Z</time></trkpt><trkpt lat="42.83512463089183" lon="13.682977810052702"><ele>250.0</ele><time>2026-04-05T11:42:56.999Z</time></trkpt><trkpt lat="42.83521140515365" lon="13.683151980077033"><ele>250.0</ele><time>2026-04-05T11:42:57.999Z</time></trkpt><trkpt lat="42.83528687603676" lon="13.683320621007597"><ele>249.5</ele><time>2026-04-05T11:42:58.999Z</time></trkpt><trkpt lat="42.83536373278529" lon="13.683478669615768"><ele>249.0</ele><time>2026-04-05T11:42:59.999Z</time></trkpt><trkpt lat="42.8354218985693" lon="13.683651362833974"><ele>248.5</ele><time>2026-04-05T11:43:00.999Z</time></trkpt><trkpt lat="42.835479664104284" lon="13.683788018266405"><ele>248.0</ele><time>2026-04-05T11:43:01.999Z</time></trkpt><trkpt lat="42.83553222551437" lon="13.683880776482551"><ele>246.0</ele><time>2026-04-05T11:43:02.999Z</time></trkpt><trkpt lat="42.83559769792088" lon="13.6839325656048"><ele>244.0</ele><time>2026-04-05T11:43:03.999Z</time></trkpt><trkpt lat="42.83568881108625" lon="13.68395069655197"><ele>242.0</ele><time>2026-04-05T11:43:04.999Z</time></trkpt><trkpt lat="42.83579762675179" lon="13.683906408336014"><ele>240.0</ele><time>2026-04-05T11:43:05.999Z</time></trkpt><trkpt lat="42.83590332553828" lon="13.68381271916056"><ele>238.0</ele><time>2026-04-05T11:43:06.999Z</time></trkpt><trkpt lat="42.83601113269531" lon="13.683669744542161"><ele>234.0</ele><time>2026-04-05T11:43:07.999Z</time></trkpt><trkpt lat="42.8361091947342" lon="13.683499911071886"><ele>230.0</ele><time>2026-04-05T11:43:08.999Z</time></trkpt><trkpt lat="42.83621175680082" lon="13.683300871469799"><ele>226.0</ele><time>2026-04-05T11:43:09.999Z</time></trkpt><trkpt lat="42.83633562413402" lon="13.683129179727862"><ele>226.0</ele><time>2026-04-05T11:43:10.999Z</time></trkpt><trkpt lat="42.83644845314312" lon="13.682982347418632"><ele>226.0</ele><time>2026-04-05T11:43:11.999Z</time></trkpt><trkpt lat="42.83655418705588" lon="13.682868694783924"><ele>226.0</ele><time>2026-04-05T11:43:12.999Z</time></trkpt><trkpt lat="42.836636765478445" lon="13.682754906417504"><ele>226.0</ele><time>2026-04-05T11:43:13.999Z</time></trkpt><trkpt lat="42.8367075184054" lon="13.682679737486877"><ele>227.20000000000002</ele><time>2026-04-05T11:43:14.999Z</time></trkpt><trkpt lat="42.83672965356578" lon="13.682596263054556"><ele>228.40000000000003</ele><time>2026-04-05T11:43:15.999Z</time></trkpt><trkpt lat="42.8367102934134" lon="13.682486103449113"><ele>229.6</ele><time>2026-04-05T11:43:16.999Z</time></trkpt><trkpt lat="42.83665239392615" lon="13.682375020004281"><ele>230.8</ele><time>2026-04-05T11:43:17.999Z</time></trkpt><trkpt lat="42.836558836566965" lon="13.682312867865848"><ele>232.0</ele><time>2026-04-05T11:43:18.999Z</time></trkpt><trkpt lat="42.8364484617947" lon="13.682316175510206"><ele>232.0</ele><time>2026-04-05T11:43:19.999Z</time></trkpt><trkpt lat="42.836328227500395" lon="13.68237271345317"><ele>232.0</ele><time>2026-04-05T11:43:20.999Z</time></trkpt><trkpt lat="42.8362121514884" lon="13.682435064778783"><ele>232.0</ele><time>2026-04-05T11:43:21.999Z</time></trkpt><trkpt lat="42.83609338399227" lon="13.682398566903933"><ele>232.0</ele><time>2026-04-05T11:43:22.999Z</time></trkpt><trkpt lat="42.83599400352884" lon="13.682304596518923"><ele>234.0</ele><time>2026-04-05T11:43:23.999Z</time></trkpt><trkpt lat="42.83588148894789" lon="13.68217363053143"><ele>236.0</ele><time>2026-04-05T11:43:24.999Z</time></trkpt><trkpt lat="42.83577665684603" lon="13.682000180289954"><ele>238.0</ele><time>2026-04-05T11:43:25.999Z</time></trkpt><trkpt lat="42.835685096774625" lon="13.681817085722438"><ele>234.0</ele><time>2026-04-05T11:43:26.999Z</time></trkpt><trkpt lat="42.835623343855765" lon="13.681610966960923"><ele>230.0</ele><time>2026-04-05T11:43:27.999Z</time></trkpt><trkpt lat="42.83558536668345" lon="13.681404674378092"><ele>226.0</ele><time>2026-04-05T11:43:28.999Z</time></trkpt><trkpt lat="42.83556765895376" lon="13.681213093943962"><ele>223.33333333333331</ele><time>2026-04-05T11:43:29.999Z</time></trkpt><trkpt lat="42.83556033644975" lon="13.681011096140095"><ele>220.66666666666669</ele><time>2026-04-05T11:43:30.999Z</time></trkpt><trkpt lat="42.83555455214534" lon="13.680783638529109"><ele>218.0</ele><time>2026-04-05T11:43:31.999Z</time></trkpt><trkpt lat="42.83555822388899" lon="13.680563680566358"><ele>218.0</ele><time>2026-04-05T11:43:32.999Z</time></trkpt><trkpt lat="42.835565247867756" lon="13.680372681048782"><ele>218.0</ele><time>2026-04-05T11:43:33.999Z</time></trkpt><trkpt lat="42.835584425092144" lon="13.68022672849722"><ele>218.0</ele><time>2026-04-05T11:43:34.999Z</time></trkpt><trkpt lat="42.83563061013681" lon="13.680081321949512"><ele>218.0</ele><time>2026-04-05T11:43:35.999Z</time></trkpt><trkpt lat="42.835693585321486" lon="13.679927342597793"><ele>218.0</ele><time>2026-04-05T11:43:36.999Z</time></trkpt><trkpt lat="42.835762068033816" lon="13.679757783197765"><ele>218.0</ele><time>2026-04-05T11:43:37.999Z</time></trkpt><trkpt lat="42.835838781491205" lon="13.679604500060817"><ele>218.0</ele><time>2026-04-05T11:43:38.999Z</time></trkpt><trkpt lat="42.835903727919955" lon="13.679468693839931"><ele>218.0</ele><time>2026-04-05T11:43:39.999Z</time></trkpt><trkpt lat="42.83599907749766" lon="13.679377225855205"><ele>214.4</ele><time>2026-04-05T11:43:40.999Z</time></trkpt><trkpt lat="42.83609431787786" lon="13.679288923030098"><ele>210.8</ele><time>2026-04-05T11:43:41.999Z</time></trkpt><trkpt lat="42.83618226261706" lon="13.6792040420537"><ele>207.2</ele><time>2026-04-05T11:43:42.999Z</time></trkpt><trkpt lat="42.836239053279925" lon="13.679139463767907"><ele>203.6</ele><time>2026-04-05T11:43:43.999Z</time></trkpt><trkpt lat="42.83624896440772" lon="13.679040109748344"><ele>200.0</ele><time>2026-04-05T11:43:44.999Z</time></trkpt><trkpt lat="42.836215874787186" lon="13.678913116274016"><ele>200.0</ele><time>2026-04-05T11:43:45.999Z</time></trkpt><trkpt lat="42.8361570845004" lon="13.678788192114261"><ele>200.0</ele><time>2026-04-05T11:43:46.999Z</time></trkpt><trkpt lat="42.83607595448548" lon="13.678667734775477"><ele>200.0</ele><time>2026-04-05T11:43:47.999Z</time></trkpt><trkpt lat="42.835989086147144" lon="13.67854377100755"><ele>200.0</ele><time>2026-04-05T11:43:48.999Z</time></trkpt><trkpt lat="42.835904533799045" lon="13.678422313644084"><ele>202.0</ele><time>2026-04-05T11:43:49.999Z</time></trkpt><trkpt lat="42.83580979790555" lon="13.678318601015297"><ele>204.0</ele><time>2026-04-05T11:43:50.999Z</time></trkpt><trkpt lat="42.83572536239981" lon="13.67821362067313"><ele>206.0</ele><time>2026-04-05T11:43:51.999Z</time></trkpt><trkpt lat="42.83565423697466" lon="13.678066871350802"><ele>208.0</ele><time>2026-04-05T11:43:52.999Z</time></trkpt><trkpt lat="42.83560014201737" lon="13.677879155699868"><ele>205.0</ele><time>2026-04-05T11:43:53.999Z</time></trkpt><trkpt lat="42.83557044147572" lon="13.677661764777362"><ele>202.0</ele><time>2026-04-05T11:43:54.999Z</time></trkpt><trkpt lat="42.83552796775354" lon="13.677442852111634"><ele>199.0</ele><time>2026-04-05T11:43:55.999Z</time></trkpt><trkpt lat="42.835476445850176" lon="13.677250391879891"><ele>199.0</ele><time>2026-04-05T11:43:56.999Z</time></trkpt><trkpt lat="42.83547480456074" lon="13.677081630884107"><ele>199.0</ele><time>2026-04-05T11:43:57.999Z</time></trkpt><trkpt lat="42.83549410707618" lon="13.676672707002805"><ele>199.0</ele><time>2026-04-05T11:43:59.999Z</time></trkpt><trkpt lat="42.83551187730833" lon="13.676437482885202"><ele>198.25</ele><time>2026-04-05T11:44:00.999Z</time></trkpt><trkpt lat="42.835513866036216" lon="13.676223031620333"><ele>197.5</ele><time>2026-04-05T11:44:01.999Z</time></trkpt><trkpt lat="42.8355432493598" lon="13.676035479517694"><ele>196.75</ele><time>2026-04-05T11:44:02.999Z</time></trkpt><trkpt lat="42.83556596766136" lon="13.67586178193222"><ele>196.0</ele><time>2026-04-05T11:44:03.999Z</time></trkpt><trkpt lat="42.83556291340345" lon="13.675694552731779"><ele>195.0</ele><time>2026-04-05T11:44:04.999Z</time></trkpt><trkpt lat="42.83553340727423" lon="13.675537339216666"><ele>194.0</ele><time>2026-04-05T11:44:05.999Z</time></trkpt><trkpt lat="42.83552576766313" lon="13.67540372848793"><ele>193.0</ele><time>2026-04-05T11:44:06.999Z</time></trkpt><trkpt lat="42.83553092051309" lon="13.675311788208525"><ele>192.0</ele><time>2026-04-05T11:44:07.999Z</time></trkpt><trkpt lat="42.83561489258476" lon="13.675205431688665"><ele>191.0</ele><time>2026-04-05T11:44:09.999Z</time></trkpt><trkpt lat="42.83568926941943" lon="13.675225485487063"><ele>191.0</ele><time>2026-04-05T11:44:10.999Z</time></trkpt><trkpt lat="42.83576300184946" lon="13.675293534353418"><ele>191.0</ele><time>2026-04-05T11:44:11.999Z</time></trkpt><trkpt lat="42.83584336396288" lon="13.675402544825648"><ele>191.0</ele><time>2026-04-05T11:44:12.999Z</time></trkpt><trkpt lat="42.835935680161015" lon="13.675523437198509"><ele>191.0</ele><time>2026-04-05T11:44:13.999Z</time></trkpt><trkpt lat="42.83603069271045" lon="13.675653558233755"><ele>189.75</ele><time>2026-04-05T11:44:14.999Z</time></trkpt><trkpt lat="42.83610357559816" lon="13.675774479363538"><ele>188.5</ele><time>2026-04-05T11:44:15.999Z</time></trkpt><trkpt lat="42.83615255866053" lon="13.67590373593252"><ele>187.25</ele><time>2026-04-05T11:44:16.999Z</time></trkpt><trkpt lat="42.83618965978611" lon="13.67605429799945"><ele>186.0</ele><time>2026-04-05T11:44:17.999Z</time></trkpt><trkpt lat="42.83622693095835" lon="13.676213671624488"><ele>186.0</ele><time>2026-04-05T11:44:18.999Z</time></trkpt><trkpt lat="42.83626087291713" lon="13.676365671844373"><ele>186.0</ele><time>2026-04-05T11:44:19.999Z</time></trkpt><trkpt lat="42.83629651603111" lon="13.676480181962074"><ele>186.0</ele><time>2026-04-05T11:44:20.999Z</time></trkpt><trkpt lat="42.8363472759001" lon="13.676558986981748"><ele>186.0</ele><time>2026-04-05T11:44:21.999Z</time></trkpt><trkpt lat="42.83642653710595" lon="13.676600914830333"><ele>186.0</ele><time>2026-04-05T11:44:22.999Z</time></trkpt><trkpt lat="42.83651573538728" lon="13.676613288236757"><ele>186.0</ele><time>2026-04-05T11:44:23.999Z</time></trkpt><trkpt lat="42.83661098053338" lon="13.676568958864422"><ele>186.0</ele><time>2026-04-05T11:44:24.999Z</time></trkpt><trkpt lat="42.83668970883358" lon="13.67646957355661"><ele>186.0</ele><time>2026-04-05T11:44:25.999Z</time></trkpt><trkpt lat="42.836726925865044" lon="13.676337753152627"><ele>186.0</ele><time>2026-04-05T11:44:26.999Z</time></trkpt><trkpt lat="42.836725305844794" lon="13.676183347075453"><ele>186.0</ele><time>2026-04-05T11:44:27.999Z</time></trkpt><trkpt lat="42.83670668715895" lon="13.676019218632426"><ele>184.25</ele><time>2026-04-05T11:44:28.999Z</time></trkpt><trkpt lat="42.83667924434373" lon="13.67585081298821"><ele>182.5</ele><time>2026-04-05T11:44:29.999Z</time></trkpt><trkpt lat="42.836680144269494" lon="13.67568559363221"><ele>180.75</ele><time>2026-04-05T11:44:30.999Z</time></trkpt><trkpt lat="42.83666459513977" lon="13.675533170264684"><ele>179.0</ele><time>2026-04-05T11:44:31.999Z</time></trkpt><trkpt lat="42.83664776178471" lon="13.67537819876023"><ele>178.0</ele><time>2026-04-05T11:44:32.999Z</time></trkpt><trkpt lat="42.83662195802553" lon="13.675228128771694"><ele>177.0</ele><time>2026-04-05T11:44:33.999Z</time></trkpt><trkpt lat="42.8366056329527" lon="13.67508454419734"><ele>176.0</ele><time>2026-04-05T11:44:34.999Z</time></trkpt><trkpt lat="42.83656660312198" lon="13.674970674744902"><ele>175.0</ele><time>2026-04-05T11:44:35.999Z</time></trkpt><trkpt lat="42.83651800786898" lon="13.67487905254122"><ele>174.0</ele><time>2026-04-05T11:44:36.999Z</time></trkpt><trkpt lat="42.83645709030592" lon="13.674788567370557"><ele>174.0</ele><time>2026-04-05T11:44:37.999Z</time></trkpt><trkpt lat="42.83641099626966" lon="13.674691091160526"><ele>174.0</ele><time>2026-04-05T11:44:38.999Z</time></trkpt><trkpt lat="42.83638029290135" lon="13.674561537693837"><ele>174.0</ele><time>2026-04-05T11:44:40.999Z</time></trkpt><trkpt lat="42.836391817628524" lon="13.6744554118574"><ele>174.0</ele><time>2026-04-05T11:44:41.998Z</time></trkpt><trkpt lat="42.83651046563166" lon="13.674274335921783"><ele>174.0</ele><time>2026-04-05T11:44:43.998Z</time></trkpt><trkpt lat="42.83657614010575" lon="13.674228251090497"><ele>173.75</ele><time>2026-04-05T11:44:44.998Z</time></trkpt><trkpt lat="42.83668569736812" lon="13.67417073555707"><ele>173.5</ele><time>2026-04-05T11:44:45.998Z</time></trkpt><trkpt lat="42.8367840813786" lon="13.67412299404891"><ele>173.25</ele><time>2026-04-05T11:44:46.998Z</time></trkpt><trkpt lat="42.836885698897575" lon="13.67406320014254"><ele>173.0</ele><time>2026-04-05T11:44:47.998Z</time></trkpt><trkpt lat="42.836986484694044" lon="13.673977184765873"><ele>171.5</ele><time>2026-04-05T11:44:48.998Z</time></trkpt><trkpt lat="42.83708412795679" lon="13.673877690368808"><ele>170.0</ele><time>2026-04-05T11:44:49.998Z</time></trkpt><trkpt lat="42.83718495372287" lon="13.673760751755456"><ele>168.5</ele><time>2026-04-05T11:44:50.998Z</time></trkpt><trkpt lat="42.8372804677641" lon="13.673637844455856"><ele>167.0</ele><time>2026-04-05T11:44:51.998Z</time></trkpt><trkpt lat="42.837375701265444" lon="13.67353470325319"><ele>167.0</ele><time>2026-04-05T11:44:52.998Z</time></trkpt><trkpt lat="42.83750212659061" lon="13.67348147659853"><ele>167.0</ele><time>2026-04-05T11:44:53.998Z</time></trkpt><trkpt lat="42.83764543411411" lon="13.673463996706621"><ele>167.0</ele><time>2026-04-05T11:44:54.998Z</time></trkpt><trkpt lat="42.83776874338403" lon="13.673430748389535"><ele>167.0</ele><time>2026-04-05T11:44:55.998Z</time></trkpt><trkpt lat="42.83785374776682" lon="13.673413567159544"><ele>162.25</ele><time>2026-04-05T11:44:56.998Z</time></trkpt><trkpt lat="42.837920110189806" lon="13.673333417804116"><ele>157.5</ele><time>2026-04-05T11:44:57.998Z</time></trkpt><trkpt lat="42.83798464140202" lon="13.673195455896886"><ele>152.75</ele><time>2026-04-05T11:44:58.998Z</time></trkpt><trkpt lat="42.8380390854236" lon="13.673020431873947"><ele>148.0</ele><time>2026-04-05T11:44:59.998Z</time></trkpt><trkpt lat="42.838078612756" lon="13.672850478851581"><ele>148.0</ele><time>2026-04-05T11:45:00.998Z</time></trkpt><trkpt lat="42.83813491332826" lon="13.672749486606113"><ele>148.0</ele><time>2026-04-05T11:45:01.998Z</time></trkpt><trkpt lat="42.83822334290641" lon="13.672651167153267"><ele>148.0</ele><time>2026-04-05T11:45:03.998Z</time></trkpt><trkpt lat="42.838282012876626" lon="13.67268515813137"><ele>148.0</ele><time>2026-04-05T11:45:04.998Z</time></trkpt><trkpt lat="42.83832067891937" lon="13.672759272952446"><ele>148.0</ele><time>2026-04-05T11:45:05.999Z</time></trkpt><trkpt lat="42.838327895045595" lon="13.672868647117363"><ele>148.0</ele><time>2026-04-05T11:45:06.999Z</time></trkpt><trkpt lat="42.83830758243142" lon="13.673007839039025"><ele>148.0</ele><time>2026-04-05T11:45:07.999Z</time></trkpt><trkpt lat="42.83826913679544" lon="13.67317684937224"><ele>148.0</ele><time>2026-04-05T11:45:08.999Z</time></trkpt><trkpt lat="42.83823188117277" lon="13.67338707604131"><ele>148.0</ele><time>2026-04-05T11:45:09.999Z</time></trkpt><trkpt lat="42.83820864490877" lon="13.673603767229817"><ele>148.0</ele><time>2026-04-05T11:45:10.999Z</time></trkpt><trkpt lat="42.838178152681714" lon="13.673789960550192"><ele>146.20000000000002</ele><time>2026-04-05T11:45:11.999Z</time></trkpt><trkpt lat="42.83815657088853" lon="13.67394330876187"><ele>144.4</ele><time>2026-04-05T11:45:12.999Z</time></trkpt><trkpt lat="42.8381402484229" lon="13.674060326700069"><ele>142.60000000000002</ele><time>2026-04-05T11:45:13.999Z</time></trkpt><trkpt lat="42.838188999826414" lon="13.674201946594128"><ele>140.8</ele><time>2026-04-05T11:45:15.999Z</time></trkpt><trkpt lat="42.838256313402454" lon="13.674229698101003"><ele>139.0</ele><time>2026-04-05T11:45:16.999Z</time></trkpt><trkpt lat="42.83832295715646" lon="13.674198952005945"><ele>139.0</ele><time>2026-04-05T11:45:17.999Z</time></trkpt><trkpt lat="42.838382922381264" lon="13.674100848705267"><ele>139.0</ele><time>2026-04-05T11:45:18.999Z</time></trkpt><trkpt lat="42.838424213824496" lon="13.67395467354923"><ele>139.0</ele><time>2026-04-05T11:45:19.999Z</time></trkpt><trkpt lat="42.83846013373099" lon="13.673769807239598"><ele>139.0</ele><time>2026-04-05T11:45:20.999Z</time></trkpt><trkpt lat="42.8385445381116" lon="13.673584691419816"><ele>135.33333333333334</ele><time>2026-04-05T11:45:21.999Z</time></trkpt><trkpt lat="42.838618852246086" lon="13.67335860154085"><ele>131.66666666666666</ele><time>2026-04-05T11:45:22.999Z</time></trkpt><trkpt lat="42.83870307192763" lon="13.673162364291906"><ele>128.0</ele><time>2026-04-05T11:45:23.999Z</time></trkpt><trkpt lat="42.83879227987888" lon="13.67301858704792"><ele>128.0</ele><time>2026-04-05T11:45:24.999Z</time></trkpt><trkpt lat="42.83887688468815" lon="13.67290179365939"><ele>128.0</ele><time>2026-04-05T11:45:25.999Z</time></trkpt><trkpt lat="42.83896529683681" lon="13.672798213553035"><ele>128.0</ele><time>2026-04-05T11:45:26.999Z</time></trkpt><trkpt lat="42.839098938271285" lon="13.672790417960009"><ele>128.0</ele><time>2026-04-05T11:45:27.999Z</time></trkpt><trkpt lat="42.839243052197446" lon="13.67276745967324"><ele>127.25</ele><time>2026-04-05T11:45:28.999Z</time></trkpt><trkpt lat="42.83938544192431" lon="13.672715940318074"><ele>126.5</ele><time>2026-04-05T11:45:29.999Z</time></trkpt><trkpt lat="42.83950401459061" lon="13.67265764694458"><ele>125.75</ele><time>2026-04-05T11:45:30.999Z</time></trkpt><trkpt lat="42.83960377526117" lon="13.672569558197946"><ele>125.0</ele><time>2026-04-05T11:45:31.999Z</time></trkpt><trkpt lat="42.83969248646634" lon="13.672440112511367"><ele>125.0</ele><time>2026-04-05T11:45:32.999Z</time></trkpt><trkpt lat="42.839784064357026" lon="13.67229060123903"><ele>125.0</ele><time>2026-04-05T11:45:33.999Z</time></trkpt><trkpt lat="42.83987244638593" lon="13.672153107337293"><ele>125.0</ele><time>2026-04-05T11:45:34.999Z</time></trkpt><trkpt lat="42.83995687342957" lon="13.67203088063545"><ele>125.0</ele><time>2026-04-05T11:45:35.999Z</time></trkpt><trkpt lat="42.84003670433166" lon="13.67191558196281"><ele>124.6</ele><time>2026-04-05T11:45:36.999Z</time></trkpt><trkpt lat="42.840118155520265" lon="13.671808903735"><ele>124.2</ele><time>2026-04-05T11:45:37.999Z</time></trkpt><trkpt lat="42.8401948529595" lon="13.671708950006485"><ele>123.80000000000001</ele><time>2026-04-05T11:45:38.999Z</time></trkpt><trkpt lat="42.84026750138818" lon="13.671606529611143"><ele>123.4</ele><time>2026-04-05T11:45:39.999Z</time></trkpt><trkpt lat="42.84034037808851" lon="13.671499881692904"><ele>123.0</ele><time>2026-04-05T11:45:40.999Z</time></trkpt><trkpt lat="42.84041696841086" lon="13.671392012465837"><ele>122.5</ele><time>2026-04-05T11:45:41.999Z</time></trkpt><trkpt lat="42.84049578655751" lon="13.671283838796414"><ele>122.0</ele><time>2026-04-05T11:45:42.999Z</time></trkpt><trkpt lat="42.840575812607035" lon="13.671175509975972"><ele>121.5</ele><time>2026-04-05T11:45:43.999Z</time></trkpt><trkpt lat="42.840661540062044" lon="13.671054306460476"><ele>121.0</ele><time>2026-04-05T11:45:44.999Z</time></trkpt><trkpt lat="42.84075552519798" lon="13.670921613279939"><ele>120.5</ele><time>2026-04-05T11:45:45.999Z</time></trkpt><trkpt lat="42.84085748651929" lon="13.67077722277562"><ele>120.0</ele><time>2026-04-05T11:45:46.999Z</time></trkpt><trkpt lat="42.840951806721975" lon="13.670640217421905"><ele>119.5</ele><time>2026-04-05T11:45:47.999Z</time></trkpt><trkpt lat="42.84104434761571" lon="13.670512560958853"><ele>119.0</ele><time>2026-04-05T11:45:48.999Z</time></trkpt><trkpt lat="42.84113569880308" lon="13.670387198796972"><ele>117.25</ele><time>2026-04-05T11:45:49.999Z</time></trkpt><trkpt lat="42.84123009317172" lon="13.67025681565902"><ele>115.5</ele><time>2026-04-05T11:45:50.999Z</time></trkpt><trkpt lat="42.84132055965124" lon="13.670124932393795"><ele>113.75</ele><time>2026-04-05T11:45:51.999Z</time></trkpt><trkpt lat="42.841404440541076" lon="13.670013930685252"><ele>112.0</ele><time>2026-04-05T11:45:52.999Z</time></trkpt><trkpt lat="42.84147277140079" lon="13.669918622957788"><ele>112.00000000000001</ele><time>2026-04-05T11:45:53.999Z</time></trkpt><trkpt lat="42.84153197785784" lon="13.669837477931416"><ele>112.0</ele><time>2026-04-05T11:45:54.999Z</time></trkpt><trkpt lat="42.84158449066004" lon="13.669765134081327"><ele>112.0</ele><time>2026-04-05T11:45:55.999Z</time></trkpt><trkpt lat="42.841627850178334" lon="13.669701233179076"><ele>112.0</ele><time>2026-04-05T11:45:56.999Z</time></trkpt><trkpt lat="42.84170118031921" lon="13.66960382697604"><ele>112.00000000000001</ele><time>2026-04-05T11:45:58.999Z</time></trkpt><trkpt lat="42.84175427288496" lon="13.669527705186463"><ele>112.0</ele><time>2026-04-05T11:46:00.999Z</time></trkpt><trkpt lat="42.841805575406056" lon="13.669446042596709"><ele>110.5</ele><time>2026-04-05T11:46:16.999Z</time></trkpt><trkpt lat="42.84186424323137" lon="13.669353221730987"><ele>109.0</ele><time>2026-04-05T11:46:17.999Z</time></trkpt><trkpt lat="42.84193815172248" lon="13.669246287413625"><ele>107.5</ele><time>2026-04-05T11:46:18.999Z</time></trkpt><trkpt lat="42.84202922287086" lon="13.669117644229393"><ele>106.0</ele><time>2026-04-05T11:46:19.999Z</time></trkpt><trkpt lat="42.842130370116244" lon="13.668974325441521"><ele>106.0</ele><time>2026-04-05T11:46:20.999Z</time></trkpt><trkpt lat="42.84223159392941" lon="13.668830332440969"><ele>106.0</ele><time>2026-04-05T11:46:21.999Z</time></trkpt><trkpt lat="42.842325179136665" lon="13.66869231419991"><ele>106.0</ele><time>2026-04-05T11:46:22.999Z</time></trkpt><trkpt lat="42.842411493852545" lon="13.668559054346554"><ele>106.0</ele><time>2026-04-05T11:46:23.999Z</time></trkpt><trkpt lat="42.84249288236439" lon="13.66843888815576"><ele>104.8</ele><time>2026-04-05T11:46:24.999Z</time></trkpt><trkpt lat="42.84256116125869" lon="13.668332750026677"><ele>103.6</ele><time>2026-04-05T11:46:25.999Z</time></trkpt><trkpt lat="42.84262786675497" lon="13.66825081935211"><ele>102.4</ele><time>2026-04-05T11:46:26.999Z</time></trkpt><trkpt lat="42.842700142963" lon="13.668192177074939"><ele>101.2</ele><time>2026-04-05T11:46:27.999Z</time></trkpt><trkpt lat="42.84286470677718" lon="13.66819661192341"><ele>100.0</ele><time>2026-04-05T11:46:29.999Z</time></trkpt><trkpt lat="42.84293846577915" lon="13.668268614013195"><ele>100.0</ele><time>2026-04-05T11:46:30.999Z</time></trkpt><trkpt lat="42.84301406871808" lon="13.668338095674335"><ele>100.0</ele><time>2026-04-05T11:46:31.999Z</time></trkpt><trkpt lat="42.8430245844257" lon="13.668489395867779"><ele>100.0</ele><time>2026-04-05T11:46:32.999Z</time></trkpt><trkpt lat="42.843037898011815" lon="13.668626886083267"><ele>100.0</ele><time>2026-04-05T11:46:33.999Z</time></trkpt><trkpt lat="42.843053338653256" lon="13.668773505665675"><ele>100.0</ele><time>2026-04-05T11:46:34.999Z</time></trkpt><trkpt lat="42.84307723383858" lon="13.668907161065"><ele>100.4</ele><time>2026-04-05T11:46:35.999Z</time></trkpt><trkpt lat="42.84312557746571" lon="13.66902777343986"><ele>100.8</ele><time>2026-04-05T11:46:36.999Z</time></trkpt><trkpt lat="42.843197460849964" lon="13.669128064848213"><ele>101.19999999999999</ele><time>2026-04-05T11:46:37.999Z</time></trkpt><trkpt lat="42.84328934267208" lon="13.66918688369206"><ele>101.6</ele><time>2026-04-05T11:46:38.999Z</time></trkpt><trkpt lat="42.84339290693281" lon="13.669229481668674"><ele>102.0</ele><time>2026-04-05T11:46:39.999Z</time></trkpt><trkpt lat="42.84350880739114" lon="13.669217505281413"><ele>101.8</ele><time>2026-04-05T11:46:40.999Z</time></trkpt><trkpt lat="42.84361227367372" lon="13.66920905637453"><ele>101.6</ele><time>2026-04-05T11:46:41.999Z</time></trkpt><trkpt lat="42.8436832268074" lon="13.669272635687728"><ele>101.39999999999999</ele><time>2026-04-05T11:46:42.999Z</time></trkpt><trkpt lat="42.84374128226506" lon="13.66937051361411"><ele>101.19999999999999</ele><time>2026-04-05T11:46:43.999Z</time></trkpt><trkpt lat="42.84378457979776" lon="13.66949167398261"><ele>101.0</ele><time>2026-04-05T11:46:44.999Z</time></trkpt><trkpt lat="42.84382100981456" lon="13.669628331297966"><ele>101.0</ele><time>2026-04-05T11:46:45.999Z</time></trkpt><trkpt lat="42.843821147337394" lon="13.669809930384062"><ele>101.0</ele><time>2026-04-05T11:46:46.999Z</time></trkpt><trkpt lat="42.84383353140822" lon="13.67000195118522"><ele>101.0</ele><time>2026-04-05T11:46:47.998Z</time></trkpt><trkpt lat="42.84385131792445" lon="13.670209082090338"><ele>101.0</ele><time>2026-04-05T11:46:48.998Z</time></trkpt><trkpt lat="42.84386766186395" lon="13.670439583826797"><ele>100.66666666666666</ele><time>2026-04-05T11:46:49.998Z</time></trkpt><trkpt lat="42.84388831552563" lon="13.670700720004836"><ele>100.33333333333334</ele><time>2026-04-05T11:46:50.998Z</time></trkpt><trkpt lat="42.84390656904382" lon="13.670993159719655"><ele>100.0</ele><time>2026-04-05T11:46:51.998Z</time></trkpt><trkpt lat="42.84392445356583" lon="13.671298959671482"><ele>99.0</ele><time>2026-04-05T11:46:52.998Z</time></trkpt><trkpt lat="42.843939060687916" lon="13.671618935054175"><ele>98.0</ele><time>2026-04-05T11:46:53.998Z</time></trkpt><trkpt lat="42.84390329223287" lon="13.671747774540393"><ele>97.0</ele><time>2026-04-05T11:46:54.998Z</time></trkpt><trkpt lat="42.84389174925529" lon="13.67205204559309"><ele>95.0</ele><time>2026-04-05T11:46:55.998Z</time></trkpt><trkpt lat="42.84387459859402" lon="13.672349095956392"><ele>93.0</ele><time>2026-04-05T11:46:56.998Z</time></trkpt><trkpt lat="42.84384775522326" lon="13.672658060203544"><ele>91.0</ele><time>2026-04-05T11:46:57.998Z</time></trkpt><trkpt lat="42.843814533644185" lon="13.672977226981807"><ele>87.5</ele><time>2026-04-05T11:46:58.999Z</time></trkpt><trkpt lat="42.843784270712995" lon="13.673317420008098"><ele>84.0</ele><time>2026-04-05T11:46:59.999Z</time></trkpt><trkpt lat="42.8437523808972" lon="13.673674439296693"><ele>80.5</ele><time>2026-04-05T11:47:00.999Z</time></trkpt><trkpt lat="42.84372012030476" lon="13.674043838845561"><ele>77.0</ele><time>2026-04-05T11:47:01.999Z</time></trkpt><trkpt lat="42.84367191524276" lon="13.6744313384658"><ele>79.5</ele><time>2026-04-05T11:47:02.999Z</time></trkpt><trkpt lat="42.84362731468059" lon="13.674833408618111"><ele>82.0</ele><time>2026-04-05T11:47:03.999Z</time></trkpt><trkpt lat="42.8435864886297" lon="13.675247477211512"><ele>81.5</ele><time>2026-04-05T11:47:04.999Z</time></trkpt><trkpt lat="42.843546127188496" lon="13.675669589387105"><ele>81.0</ele><time>2026-04-05T11:47:05.999Z</time></trkpt><trkpt lat="42.84350563316778" lon="13.676097966080688"><ele>78.5</ele><time>2026-04-05T11:47:06.999Z</time></trkpt><trkpt lat="42.84347061162694" lon="13.67652299662021"><ele>76.0</ele><time>2026-04-05T11:47:07.999Z</time></trkpt><trkpt lat="42.84344154613944" lon="13.676957015494484"><ele>85.5</ele><time>2026-04-05T11:47:08.999Z</time></trkpt><trkpt lat="42.84341545438634" lon="13.67738831522535"><ele>95.0</ele><time>2026-04-05T11:47:09.999Z</time></trkpt><trkpt lat="42.84339054112584" lon="13.677818299133273"><ele>95.0</ele><time>2026-04-05T11:47:10.999Z</time></trkpt><trkpt lat="42.8433713119742" lon="13.678252194806953"><ele>95.0</ele><time>2026-04-05T11:47:11.999Z</time></trkpt><trkpt lat="42.84335724754613" lon="13.67869229139258"><ele>94.5</ele><time>2026-04-05T11:47:12.999Z</time></trkpt><trkpt lat="42.84335087806022" lon="13.679134532190853"><ele>94.0</ele><time>2026-04-05T11:47:13.999Z</time></trkpt><trkpt lat="42.84334914572919" lon="13.679566682309694"><ele>93.0</ele><time>2026-04-05T11:47:14.999Z</time></trkpt><trkpt lat="42.843353620423166" lon="13.680000688445162"><ele>92.0</ele><time>2026-04-05T11:47:15.999Z</time></trkpt><trkpt lat="42.84336566551933" lon="13.680431491575774"><ele>90.0</ele><time>2026-04-05T11:47:16.999Z</time></trkpt><trkpt lat="42.84337552800492" lon="13.68085984576026"><ele>88.0</ele><time>2026-04-05T11:47:17.999Z</time></trkpt><trkpt lat="42.84339095186849" lon="13.681281415571457"><ele>87.0</ele><time>2026-04-05T11:47:18.999Z</time></trkpt><trkpt lat="42.84341513918318" lon="13.681699937858758"><ele>86.0</ele><time>2026-04-05T11:47:19.999Z</time></trkpt><trkpt lat="42.84343684524098" lon="13.682115966608798"><ele>80.0</ele><time>2026-04-05T11:47:20.999Z</time></trkpt><trkpt lat="42.84346814061683" lon="13.682528150584155"><ele>74.0</ele><time>2026-04-05T11:47:21.999Z</time></trkpt><trkpt lat="42.84350289997584" lon="13.682943024242437"><ele>74.0</ele><time>2026-04-05T11:47:22.999Z</time></trkpt><trkpt lat="42.843540931789256" lon="13.683359095704292"><ele>74.0</ele><time>2026-04-05T11:47:23.999Z</time></trkpt><trkpt lat="42.84357952506678" lon="13.683778287883785"><ele>79.0</ele><time>2026-04-05T11:47:24.999Z</time></trkpt><trkpt lat="42.84362763199789" lon="13.684193007595384"><ele>84.0</ele><time>2026-04-05T11:47:25.999Z</time></trkpt><trkpt lat="42.84368297699072" lon="13.68460932273697"><ele>88.5</ele><time>2026-04-05T11:47:26.999Z</time></trkpt><trkpt lat="42.84374070154644" lon="13.685034531815656"><ele>93.0</ele><time>2026-04-05T11:47:27.999Z</time></trkpt><trkpt lat="42.8438065035998" lon="13.685457331856098"><ele>93.0</ele><time>2026-04-05T11:47:28.999Z</time></trkpt><trkpt lat="42.84387989716753" lon="13.685879539748333"><ele>93.0</ele><time>2026-04-05T11:47:29.999Z</time></trkpt><trkpt lat="42.84395061614924" lon="13.686299365870322"><ele>93.0</ele><time>2026-04-05T11:47:30.999Z</time></trkpt><trkpt lat="42.84402220686686" lon="13.686717528607586"><ele>93.0</ele><time>2026-04-05T11:47:31.999Z</time></trkpt><trkpt lat="42.84409655289675" lon="13.687134101088148"><ele>93.0</ele><time>2026-04-05T11:47:32.999Z</time></trkpt><trkpt lat="42.844176514606254" lon="13.687543837801387"><ele>93.0</ele><time>2026-04-05T11:47:33.999Z</time></trkpt><trkpt lat="42.8442649278988" lon="13.68795461211541"><ele>92.5</ele><time>2026-04-05T11:47:34.999Z</time></trkpt><trkpt lat="42.84434914795024" lon="13.688363104988639"><ele>92.0</ele><time>2026-04-05T11:47:35.999Z</time></trkpt><trkpt lat="42.84442469029573" lon="13.688772869794478"><ele>92.0</ele><time>2026-04-05T11:47:36.999Z</time></trkpt><trkpt lat="42.84449938908611" lon="13.689183476678254"><ele>92.0</ele><time>2026-04-05T11:47:37.999Z</time></trkpt><trkpt lat="42.84457773664874" lon="13.689597059898546"><ele>91.0</ele><time>2026-04-05T11:47:38.999Z</time></trkpt><trkpt lat="42.84465690481904" lon="13.690004280339934"><ele>90.0</ele><time>2026-04-05T11:47:39.999Z</time></trkpt><trkpt lat="42.84473728194367" lon="13.690417142128682"><ele>89.0</ele><time>2026-04-05T11:47:40.999Z</time></trkpt><trkpt lat="42.84481966416503" lon="13.69084179764238"><ele>88.0</ele><time>2026-04-05T11:47:41.999Z</time></trkpt><trkpt lat="42.844903354296264" lon="13.691265651972811"><ele>88.0</ele><time>2026-04-05T11:47:42.999Z</time></trkpt><trkpt lat="42.84498673742861" lon="13.691690794485588"><ele>88.0</ele><time>2026-04-05T11:47:43.999Z</time></trkpt><trkpt lat="42.845070295171396" lon="13.692117966981572"><ele>84.5</ele><time>2026-04-05T11:47:44.999Z</time></trkpt><trkpt lat="42.84515202024036" lon="13.692545799385924"><ele>81.0</ele><time>2026-04-05T11:47:45.999Z</time></trkpt><trkpt lat="42.84523148563864" lon="13.692976343494145"><ele>81.5</ele><time>2026-04-05T11:47:46.999Z</time></trkpt><trkpt lat="42.845311541538486" lon="13.69339838411465"><ele>82.0</ele><time>2026-04-05T11:47:47.999Z</time></trkpt><trkpt lat="42.84539126904198" lon="13.69382430213241"><ele>82.0</ele><time>2026-04-05T11:47:48.999Z</time></trkpt><trkpt lat="42.84547159032706" lon="13.694247060814295"><ele>82.0</ele><time>2026-04-05T11:47:49.999Z</time></trkpt><trkpt lat="42.84554606251463" lon="13.694664867535392"><ele>83.5</ele><time>2026-04-05T11:47:50.999Z</time></trkpt><trkpt lat="42.845612786457096" lon="13.695088913373127"><ele>85.0</ele><time>2026-04-05T11:47:51.999Z</time></trkpt><trkpt lat="42.84566427862577" lon="13.695514257090121"><ele>85.0</ele><time>2026-04-05T11:47:52.999Z</time></trkpt><trkpt lat="42.845700297187015" lon="13.69595032609686"><ele>85.0</ele><time>2026-04-05T11:47:53.999Z</time></trkpt><trkpt lat="42.845726325869514" lon="13.69638671276909"><ele>85.5</ele><time>2026-04-05T11:47:54.999Z</time></trkpt><trkpt lat="42.84574415579677" lon="13.696821132935305"><ele>86.0</ele><time>2026-04-05T11:47:55.999Z</time></trkpt><trkpt lat="42.845754501785" lon="13.69725356803447"><ele>86.0</ele><time>2026-04-05T11:47:56.999Z</time></trkpt><trkpt lat="42.84576023209896" lon="13.697691936902078"><ele>86.0</ele><time>2026-04-05T11:47:57.999Z</time></trkpt><trkpt lat="42.84576371057421" lon="13.698128490061675"><ele>86.0</ele><time>2026-04-05T11:47:58.999Z</time></trkpt><trkpt lat="42.84577100147396" lon="13.698567059816186"><ele>86.0</ele><time>2026-04-05T11:47:59.999Z</time></trkpt><trkpt lat="42.84577526136947" lon="13.699003644841941"><ele>86.0</ele><time>2026-04-05T11:48:00.999Z</time></trkpt><trkpt lat="42.845782808209854" lon="13.699444434256083"><ele>86.0</ele><time>2026-04-05T11:48:01.999Z</time></trkpt><trkpt lat="42.845788101465224" lon="13.699885361638165"><ele>86.5</ele><time>2026-04-05T11:48:02.999Z</time></trkpt><trkpt lat="42.845790891774385" lon="13.700329555281588"><ele>87.0</ele><time>2026-04-05T11:48:03.999Z</time></trkpt><trkpt lat="42.845794459697075" lon="13.70077877430588"><ele>86.5</ele><time>2026-04-05T11:48:04.999Z</time></trkpt><trkpt lat="42.84579825328534" lon="13.701236623320272"><ele>86.0</ele><time>2026-04-05T11:48:05.999Z</time></trkpt><trkpt lat="42.84580364783325" lon="13.701701613986392"><ele>85.0</ele><time>2026-04-05T11:48:06.999Z</time></trkpt><trkpt lat="42.8458093544865" lon="13.702174396868063"><ele>84.0</ele><time>2026-04-05T11:48:07.999Z</time></trkpt><trkpt lat="42.845813747550295" lon="13.702647740175424"><ele>84.0</ele><time>2026-04-05T11:48:08.999Z</time></trkpt><trkpt lat="42.845817381136584" lon="13.703125630110513"><ele>84.0</ele><time>2026-04-05T11:48:09.999Z</time></trkpt><trkpt lat="42.84582235459503" lon="13.70360805347992"><ele>83.5</ele><time>2026-04-05T11:48:10.999Z</time></trkpt><trkpt lat="42.84582843622809" lon="13.704083960613454"><ele>83.0</ele><time>2026-04-05T11:48:11.999Z</time></trkpt><trkpt lat="42.84583510397198" lon="13.704559960641825"><ele>81.0</ele><time>2026-04-05T11:48:12.999Z</time></trkpt><trkpt lat="42.84584160579664" lon="13.705036127957792"><ele>79.0</ele><time>2026-04-05T11:48:13.999Z</time></trkpt><trkpt lat="42.845845656491946" lon="13.705515053816661"><ele>77.5</ele><time>2026-04-05T11:48:14.999Z</time></trkpt><trkpt lat="42.84584857606946" lon="13.705991525411816"><ele>76.0</ele><time>2026-04-05T11:48:15.999Z</time></trkpt><trkpt lat="42.84585482892722" lon="13.706468064118903"><ele>79.5</ele><time>2026-04-05T11:48:16.999Z</time></trkpt><trkpt lat="42.84586353970627" lon="13.706941687367724"><ele>83.0</ele><time>2026-04-05T11:48:17.999Z</time></trkpt><trkpt lat="42.84586995014669" lon="13.707415318690671"><ele>83.5</ele><time>2026-04-05T11:48:19Z</time></trkpt><trkpt lat="42.84587478798279" lon="13.707887402545973"><ele>84.0</ele><time>2026-04-05T11:48:20Z</time></trkpt><trkpt lat="42.84588345336137" lon="13.708358471932872"><ele>84.5</ele><time>2026-04-05T11:48:21Z</time></trkpt><trkpt lat="42.845895332084616" lon="13.708829417584713"><ele>85.0</ele><time>2026-04-05T11:48:22Z</time></trkpt><trkpt lat="42.84591719633334" lon="13.709298332940058"><ele>86.0</ele><time>2026-04-05T11:48:23Z</time></trkpt><trkpt lat="42.8459577344497" lon="13.709768653697605"><ele>87.0</ele><time>2026-04-05T11:48:24Z</time></trkpt><trkpt lat="42.84600870737883" lon="13.710241534087942"><ele>85.0</ele><time>2026-04-05T11:48:25Z</time></trkpt><trkpt lat="42.846070215384024" lon="13.71071330802938"><ele>83.0</ele><time>2026-04-05T11:48:26Z</time></trkpt><trkpt lat="42.84614888050827" lon="13.711183193428814"><ele>83.0</ele><time>2026-04-05T11:48:27Z</time></trkpt><trkpt lat="42.846241162865105" lon="13.711650549377449"><ele>83.0</ele><time>2026-04-05T11:48:28Z</time></trkpt><trkpt lat="42.846347085879586" lon="13.712111763609066"><ele>82.0</ele><time>2026-04-05T11:48:29Z</time></trkpt><trkpt lat="42.84646203932638" lon="13.712574966933689"><ele>81.0</ele><time>2026-04-05T11:48:30Z</time></trkpt><trkpt lat="42.84657385375427" lon="13.713040240013727"><ele>80.0</ele><time>2026-04-05T11:48:31Z</time></trkpt><trkpt lat="42.846682801993715" lon="13.713509180785994"><ele>79.0</ele><time>2026-04-05T11:48:32Z</time></trkpt><trkpt lat="42.846791286388225" lon="13.713977085841085"><ele>78.5</ele><time>2026-04-05T11:48:33Z</time></trkpt><trkpt lat="42.846905881142966" lon="13.71444593727948"><ele>78.0</ele><time>2026-04-05T11:48:34Z</time></trkpt><trkpt lat="42.8470207548271" lon="13.714915345619076"><ele>76.0</ele><time>2026-04-05T11:48:35Z</time></trkpt><trkpt lat="42.847131941249565" lon="13.715389963358199"><ele>74.0</ele><time>2026-04-05T11:48:36Z</time></trkpt><trkpt lat="42.847244971434336" lon="13.715860620951778"><ele>73.5</ele><time>2026-04-05T11:48:37Z</time></trkpt><trkpt lat="42.84735779407208" lon="13.716329980511238"><ele>73.0</ele><time>2026-04-05T11:48:38Z</time></trkpt><trkpt lat="42.84746950866128" lon="13.71679764225935"><ele>71.0</ele><time>2026-04-05T11:48:39Z</time></trkpt><trkpt lat="42.84758227826295" lon="13.71726204813037"><ele>69.0</ele><time>2026-04-05T11:48:40Z</time></trkpt><trkpt lat="42.84769258473491" lon="13.7177240831244"><ele>63.0</ele><time>2026-04-05T11:48:41Z</time></trkpt><trkpt lat="42.84780387849023" lon="13.718187857130632"><ele>57.0</ele><time>2026-04-05T11:48:42Z</time></trkpt><trkpt lat="42.84791388734574" lon="13.718653459288262"><ele>56.5</ele><time>2026-04-05T11:48:43Z</time></trkpt><trkpt lat="42.84802861687556" lon="13.719120602698148"><ele>56.0</ele><time>2026-04-05T11:48:44Z</time></trkpt><trkpt lat="42.848141214590676" lon="13.719592053414075"><ele>55.5</ele><time>2026-04-05T11:48:45Z</time></trkpt><trkpt lat="42.84825395037433" lon="13.720066559339088"><ele>55.0</ele><time>2026-04-05T11:48:46Z</time></trkpt><trkpt lat="42.848365220247345" lon="13.720540794044041"><ele>54.0</ele><time>2026-04-05T11:48:47Z</time></trkpt><trkpt lat="42.84847951629403" lon="13.721015936558684"><ele>53.0</ele><time>2026-04-05T11:48:48Z</time></trkpt><trkpt lat="42.848594739321726" lon="13.721491811534742"><ele>52.5</ele><time>2026-04-05T11:48:49Z</time></trkpt><trkpt lat="42.84870984461775" lon="13.721970536761988"><ele>52.0</ele><time>2026-04-05T11:48:50Z</time></trkpt><trkpt lat="42.84882458337565" lon="13.722443927477327"><ele>52.0</ele><time>2026-04-05T11:48:51Z</time></trkpt><trkpt lat="42.84894106967965" lon="13.722920911696109"><ele>52.0</ele><time>2026-04-05T11:48:52Z</time></trkpt><trkpt lat="42.849055742831084" lon="13.723397530661957"><ele>52.0</ele><time>2026-04-05T11:48:53Z</time></trkpt><trkpt lat="42.84917074476079" lon="13.723872104524464"><ele>52.0</ele><time>2026-04-05T11:48:53.999Z</time></trkpt><trkpt lat="42.84928840676992" lon="13.724347222697137"><ele>52.0</ele><time>2026-04-05T11:48:54.999Z</time></trkpt><trkpt lat="42.849403207433305" lon="13.724824614808616"><ele>52.0</ele><time>2026-04-05T11:48:55.999Z</time></trkpt><trkpt lat="42.849516845245255" lon="13.725299971422181"><ele>51.5</ele><time>2026-04-05T11:48:56.999Z</time></trkpt><trkpt lat="42.84962986105997" lon="13.72577117883566"><ele>51.0</ele><time>2026-04-05T11:48:57.999Z</time></trkpt><trkpt lat="42.84974676460377" lon="13.726242208842107"><ele>50.5</ele><time>2026-04-05T11:48:58.999Z</time></trkpt><trkpt lat="42.84985794353813" lon="13.726710955910088"><ele>50.0</ele><time>2026-04-05T11:48:59.999Z</time></trkpt><trkpt lat="42.849969775024164" lon="13.727179855877433"><ele>49.5</ele><time>2026-04-05T11:49:00.999Z</time></trkpt><trkpt lat="42.850080179420615" lon="13.727643725605208"><ele>49.0</ele><time>2026-04-05T11:49:01.999Z</time></trkpt><trkpt lat="42.850197101820775" lon="13.728111163172072"><ele>48.5</ele><time>2026-04-05T11:49:02.999Z</time></trkpt><trkpt lat="42.850307503968025" lon="13.728573714903236"><ele>48.0</ele><time>2026-04-05T11:49:03.999Z</time></trkpt><trkpt lat="42.850413007828045" lon="13.72903338335747"><ele>48.0</ele><time>2026-04-05T11:49:04.999Z</time></trkpt><trkpt lat="42.85063332887352" lon="13.729950002448783"><ele>48.5</ele><time>2026-04-05T11:49:06.999Z</time></trkpt><trkpt lat="42.850746514740486" lon="13.730402284106438"><ele>49.0</ele><time>2026-04-05T11:49:07.999Z</time></trkpt><trkpt lat="42.85085974788812" lon="13.730853017060845"><ele>49.0</ele><time>2026-04-05T11:49:08.999Z</time></trkpt><trkpt lat="42.85097652663585" lon="13.731302719314591"><ele>49.0</ele><time>2026-04-05T11:49:09.999Z</time></trkpt><trkpt lat="42.85109146757555" lon="13.731749276518292"><ele>49.5</ele><time>2026-04-05T11:49:10.999Z</time></trkpt><trkpt lat="42.851202773636906" lon="13.732193047629275"><ele>50.0</ele><time>2026-04-05T11:49:11.999Z</time></trkpt><trkpt lat="42.85131545373451" lon="13.7326319232132"><ele>50.0</ele><time>2026-04-05T11:49:12.999Z</time></trkpt><trkpt lat="42.85143622248477" lon="13.733065024304944"><ele>50.0</ele><time>2026-04-05T11:49:13.999Z</time></trkpt><trkpt lat="42.85171609822718" lon="13.733905134358263"><ele>49.0</ele><time>2026-04-05T11:49:15.999Z</time></trkpt><trkpt lat="42.85186909673308" lon="13.734309346593438"><ele>48.0</ele><time>2026-04-05T11:49:16.999Z</time></trkpt><trkpt lat="42.852028151870876" lon="13.734698597919955"><ele>48.0</ele><time>2026-04-05T11:49:17.999Z</time></trkpt><trkpt lat="42.85219503251243" lon="13.735058875281673"><ele>48.0</ele><time>2026-04-05T11:49:18.999Z</time></trkpt><trkpt lat="42.852364775166244" lon="13.735410222955169"><ele>47.0</ele><time>2026-04-05T11:49:19.999Z</time></trkpt><trkpt lat="42.8525379383892" lon="13.735746455977859"><ele>46.0</ele><time>2026-04-05T11:49:20.999Z</time></trkpt><trkpt lat="42.852719151995196" lon="13.736073801255408"><ele>45.5</ele><time>2026-04-05T11:49:21.999Z</time></trkpt><trkpt lat="42.85291294189811" lon="13.736390751335778"><ele>45.0</ele><time>2026-04-05T11:49:22.999Z</time></trkpt><trkpt lat="42.85311667288252" lon="13.736705161811539"><ele>45.0</ele><time>2026-04-05T11:49:23.999Z</time></trkpt><trkpt lat="42.85332462861851" lon="13.737009361329385"><ele>45.0</ele><time>2026-04-05T11:49:24.999Z</time></trkpt><trkpt lat="42.85354572350917" lon="13.737305569748427"><ele>45.0</ele><time>2026-04-05T11:49:25.999Z</time></trkpt><trkpt lat="42.853773366257165" lon="13.737586561791966"><ele>45.0</ele><time>2026-04-05T11:49:26.999Z</time></trkpt><trkpt lat="42.85400261141166" lon="13.73787177132867"><ele>44.5</ele><time>2026-04-05T11:49:27.999Z</time></trkpt><trkpt lat="42.85423036708151" lon="13.738155954478023"><ele>44.0</ele><time>2026-04-05T11:49:28.999Z</time></trkpt><trkpt lat="42.854460204677416" lon="13.738436425467924"><ele>44.0</ele><time>2026-04-05T11:49:29.999Z</time></trkpt><trkpt lat="42.85468915172529" lon="13.738716428988186"><ele>44.0</ele><time>2026-04-05T11:49:30.999Z</time></trkpt><trkpt lat="42.85491979130932" lon="13.738997968183105"><ele>42.5</ele><time>2026-04-05T11:49:31.999Z</time></trkpt><trkpt lat="42.855146916449655" lon="13.73927680886893"><ele>41.0</ele><time>2026-04-05T11:49:32.999Z</time></trkpt><trkpt lat="42.855368967226234" lon="13.739550522822574"><ele>41.0</ele><time>2026-04-05T11:49:33.999Z</time></trkpt><trkpt lat="42.85558314389798" lon="13.739814306426302"><ele>41.0</ele><time>2026-04-05T11:49:34.999Z</time></trkpt><trkpt lat="42.85578761762267" lon="13.740063980678881"><ele>41.0</ele><time>2026-04-05T11:49:35.999Z</time></trkpt><trkpt lat="42.855988082688185" lon="13.740310540553223"><ele>41.0</ele><time>2026-04-05T11:49:36.999Z</time></trkpt><trkpt lat="42.85618545130416" lon="13.740552770750122"><ele>41.0</ele><time>2026-04-05T11:49:37.999Z</time></trkpt><trkpt lat="42.85638386448989" lon="13.740797376199609"><ele>41.0</ele><time>2026-04-05T11:49:38.999Z</time></trkpt><trkpt lat="42.856582895087286" lon="13.741043275353093"><ele>40.5</ele><time>2026-04-05T11:49:39.999Z</time></trkpt><trkpt lat="42.8567799794874" lon="13.741296170052433"><ele>40.0</ele><time>2026-04-05T11:49:40.999Z</time></trkpt><trkpt lat="42.85697752648316" lon="13.741559406088964"><ele>40.0</ele><time>2026-04-05T11:49:41.999Z</time></trkpt><trkpt lat="42.85716326301616" lon="13.741819800025878"><ele>40.0</ele><time>2026-04-05T11:49:42.999Z</time></trkpt><trkpt lat="42.857354090307275" lon="13.74210127562283"><ele>41.0</ele><time>2026-04-05T11:49:43.999Z</time></trkpt><trkpt lat="42.857529105180404" lon="13.742383936131054"><ele>42.0</ele><time>2026-04-05T11:49:44.999Z</time></trkpt><trkpt lat="42.8576939260052" lon="13.742667088967497"><ele>42.5</ele><time>2026-04-05T11:49:45.999Z</time></trkpt><trkpt lat="42.8578486034457" lon="13.742945418964435"><ele>43.0</ele><time>2026-04-05T11:49:46.999Z</time></trkpt><trkpt lat="42.85798987461281" lon="13.743221285433988"><ele>43.0</ele><time>2026-04-05T11:49:47.999Z</time></trkpt><trkpt lat="42.85812248901192" lon="13.743503338513168"><ele>43.0</ele><time>2026-04-05T11:49:48.999Z</time></trkpt><trkpt lat="42.8582494259115" lon="13.743790694499108"><ele>43.0</ele><time>2026-04-05T11:49:49.999Z</time></trkpt><trkpt lat="42.85836977070148" lon="13.7440833081587"><ele>43.0</ele><time>2026-04-05T11:49:50.999Z</time></trkpt><trkpt lat="42.85849184237935" lon="13.744382145199161"><ele>41.5</ele><time>2026-04-05T11:49:51.999Z</time></trkpt><trkpt lat="42.85860878874637" lon="13.744691963327558"><ele>40.0</ele><time>2026-04-05T11:49:52.999Z</time></trkpt><trkpt lat="42.85871976362924" lon="13.745010123853412"><ele>40.0</ele><time>2026-04-05T11:49:53.999Z</time></trkpt><trkpt lat="42.858818087586805" lon="13.74534278100969"><ele>40.0</ele><time>2026-04-05T11:49:54.999Z</time></trkpt><trkpt lat="42.85891470236213" lon="13.745678178586731"><ele>40.0</ele><time>2026-04-05T11:49:55.999Z</time></trkpt><trkpt lat="42.85900804623408" lon="13.746020705446044"><ele>40.0</ele><time>2026-04-05T11:49:56.999Z</time></trkpt><trkpt lat="42.85909454909966" lon="13.746369567424189"><ele>40.0</ele><time>2026-04-05T11:49:57.999Z</time></trkpt><trkpt lat="42.85917646444054" lon="13.746725888151826"><ele>40.0</ele><time>2026-04-05T11:49:58.999Z</time></trkpt><trkpt lat="42.85924874170095" lon="13.747088722361212"><ele>39.5</ele><time>2026-04-05T11:49:59.999Z</time></trkpt><trkpt lat="42.85931976442669" lon="13.747453722594761"><ele>39.0</ele><time>2026-04-05T11:50:00.999Z</time></trkpt><trkpt lat="42.85938537871776" lon="13.747829941156464"><ele>39.0</ele><time>2026-04-05T11:50:01.999Z</time></trkpt><trkpt lat="42.85945289658058" lon="13.74820543421577"><ele>39.0</ele><time>2026-04-05T11:50:02.999Z</time></trkpt><trkpt lat="42.85952460399596" lon="13.748585885698395"><ele>39.5</ele><time>2026-04-05T11:50:03.999Z</time></trkpt><trkpt lat="42.85959834294243" lon="13.748967854534158"><ele>40.0</ele><time>2026-04-05T11:50:04.999Z</time></trkpt><trkpt lat="42.859670760048786" lon="13.749353542127917"><ele>40.0</ele><time>2026-04-05T11:50:05.999Z</time></trkpt><trkpt lat="42.859741746809306" lon="13.749741641149173"><ele>40.0</ele><time>2026-04-05T11:50:06.999Z</time></trkpt><trkpt lat="42.85981307886598" lon="13.750130918610992"><ele>39.5</ele><time>2026-04-05T11:50:07.999Z</time></trkpt><trkpt lat="42.85988405542469" lon="13.75052071884893"><ele>39.0</ele><time>2026-04-05T11:50:08.999Z</time></trkpt><trkpt lat="42.85995548451923" lon="13.750910940604252"><ele>38.5</ele><time>2026-04-05T11:50:09.999Z</time></trkpt><trkpt lat="42.86002599974342" lon="13.751303262687086"><ele>38.0</ele><time>2026-04-05T11:50:10.999Z</time></trkpt><trkpt lat="42.86009964203054" lon="13.751699962644176"><ele>38.0</ele><time>2026-04-05T11:50:11.999Z</time></trkpt><trkpt lat="42.86017426244187" lon="13.752097000749481"><ele>38.0</ele><time>2026-04-05T11:50:12.999Z</time></trkpt><trkpt lat="42.860249834552164" lon="13.752500946573688"><ele>39.0</ele><time>2026-04-05T11:50:13.999Z</time></trkpt><trkpt lat="42.86032516795812" lon="13.752912120360541"><ele>40.0</ele><time>2026-04-05T11:50:14.999Z</time></trkpt><trkpt lat="42.86040012475037" lon="13.753324438833332"><ele>39.5</ele><time>2026-04-05T11:50:15.999Z</time></trkpt><trkpt lat="42.86047540092139" lon="13.753738881427825"><ele>39.0</ele><time>2026-04-05T11:50:16.999Z</time></trkpt><trkpt lat="42.86054920221328" lon="13.754158321086532"><ele>38.0</ele><time>2026-04-05T11:50:17.999Z</time></trkpt><trkpt lat="42.860619021405114" lon="13.7545807345213"><ele>37.0</ele><time>2026-04-05T11:50:18.999Z</time></trkpt><trkpt lat="42.860680728219265" lon="13.755013685413232"><ele>36.5</ele><time>2026-04-05T11:50:19.999Z</time></trkpt><trkpt lat="42.86073108694918" lon="13.755453264275037"><ele>36.0</ele><time>2026-04-05T11:50:20.999Z</time></trkpt><trkpt lat="42.86077121573487" lon="13.75589496058633"><ele>36.0</ele><time>2026-04-05T11:50:21.999Z</time></trkpt><trkpt lat="42.8607977636894" lon="13.756329065837326"><ele>36.0</ele><time>2026-04-05T11:50:22.999Z</time></trkpt><trkpt lat="42.86080972733752" lon="13.756700311329787"><ele>35.5</ele><time>2026-04-05T11:50:23.999Z</time></trkpt><trkpt lat="42.860819990688256" lon="13.757058649153779"><ele>35.0</ele><time>2026-04-05T11:50:24.999Z</time></trkpt><trkpt lat="42.86081334996784" lon="13.757724874540804"><ele>35.0</ele><time>2026-04-05T11:50:25.999Z</time></trkpt><trkpt lat="42.860793076775124" lon="13.758192817866524"><ele>35.0</ele><time>2026-04-05T11:50:26.999Z</time></trkpt><trkpt lat="42.860767607046505" lon="13.75867820289486"><ele>35.0</ele><time>2026-04-05T11:50:27.999Z</time></trkpt><trkpt lat="42.86073023328895" lon="13.759166844580056"><ele>35.0</ele><time>2026-04-05T11:50:28.999Z</time></trkpt><trkpt lat="42.86068851424202" lon="13.759659042829522"><ele>35.0</ele><time>2026-04-05T11:50:29.999Z</time></trkpt><trkpt lat="42.86064589606715" lon="13.760149309347169"><ele>35.0</ele><time>2026-04-05T11:50:30.999Z</time></trkpt><trkpt lat="42.8606075301846" lon="13.7606449929653"><ele>35.0</ele><time>2026-04-05T11:50:31.999Z</time></trkpt><trkpt lat="42.86057083405966" lon="13.761137887612206"><ele>35.0</ele><time>2026-04-05T11:50:32.999Z</time></trkpt><trkpt lat="42.86053514283183" lon="13.761630145802407"><ele>35.5</ele><time>2026-04-05T11:50:33.999Z</time></trkpt><trkpt lat="42.86049695373078" lon="13.76212546619317"><ele>36.0</ele><time>2026-04-05T11:50:34.999Z</time></trkpt><trkpt lat="42.86045462207447" lon="13.7626210664816"><ele>35.5</ele><time>2026-04-05T11:50:35.999Z</time></trkpt><trkpt lat="42.86040901883459" lon="13.763116588962946"><ele>35.0</ele><time>2026-04-05T11:50:36.999Z</time></trkpt><trkpt lat="42.86036516793288" lon="13.763616171554489"><ele>35.0</ele><time>2026-04-05T11:50:37.999Z</time></trkpt><trkpt lat="42.86032685738406" lon="13.76411629754952"><ele>35.0</ele><time>2026-04-05T11:50:38.999Z</time></trkpt><trkpt lat="42.86029060228372" lon="13.764622213250084"><ele>35.0</ele><time>2026-04-05T11:50:39.999Z</time></trkpt><trkpt lat="42.860265159036146" lon="13.76513540488198"><ele>35.0</ele><time>2026-04-05T11:50:40.999Z</time></trkpt><trkpt lat="42.86025465435577" lon="13.765649684253365"><ele>34.5</ele><time>2026-04-05T11:50:41.999Z</time></trkpt><trkpt lat="42.86026494798783" lon="13.766165772754485"><ele>34.0</ele><time>2026-04-05T11:50:42.999Z</time></trkpt><trkpt lat="42.86029280380228" lon="13.766679986120723"><ele>33.5</ele><time>2026-04-05T11:50:43.999Z</time></trkpt><trkpt lat="42.86032738582311" lon="13.767188445825571"><ele>33.0</ele><time>2026-04-05T11:50:44.999Z</time></trkpt><trkpt lat="42.86038101151536" lon="13.767697346232007"><ele>33.0</ele><time>2026-04-05T11:50:45.999Z</time></trkpt><trkpt lat="42.860447602411476" lon="13.768199776645453"><ele>33.0</ele><time>2026-04-05T11:50:46.999Z</time></trkpt><trkpt lat="42.860541207209195" lon="13.76870024676049"><ele>33.0</ele><time>2026-04-05T11:50:47.999Z</time></trkpt><trkpt lat="42.8606430933233" lon="13.76919060829024"><ele>33.0</ele><time>2026-04-05T11:50:48.999Z</time></trkpt><trkpt lat="42.86075770660239" lon="13.769671047113343"><ele>33.0</ele><time>2026-04-05T11:50:50Z</time></trkpt><trkpt lat="42.86088612128457" lon="13.770149818538377"><ele>33.0</ele><time>2026-04-05T11:50:51Z</time></trkpt><trkpt lat="42.86101441266593" lon="13.770624773913955"><ele>33.5</ele><time>2026-04-05T11:50:52Z</time></trkpt><trkpt lat="42.86114162276125" lon="13.771100906011906"><ele>34.0</ele><time>2026-04-05T11:50:53Z</time></trkpt><trkpt lat="42.861265400157556" lon="13.771577107729431"><ele>34.0</ele><time>2026-04-05T11:50:54Z</time></trkpt><trkpt lat="42.86139161666796" lon="13.772053005068978"><ele>34.0</ele><time>2026-04-05T11:50:55Z</time></trkpt><trkpt lat="42.86151730304588" lon="13.772525624102709"><ele>33.0</ele><time>2026-04-05T11:50:56Z</time></trkpt><trkpt lat="42.86164315840663" lon="13.772995860479357"><ele>32.0</ele><time>2026-04-05T11:50:57Z</time></trkpt><trkpt lat="42.86176592589115" lon="13.773465634229524"><ele>32.0</ele><time>2026-04-05T11:50:58Z</time></trkpt><trkpt lat="42.861891553662005" lon="13.773939545986737"><ele>32.0</ele><time>2026-04-05T11:50:59Z</time></trkpt><trkpt lat="42.86202404796075" lon="13.774412999418283"><ele>31.0</ele><time>2026-04-05T11:51:00Z</time></trkpt><trkpt lat="42.86215613288511" lon="13.774892361729213"><ele>30.0</ele><time>2026-04-05T11:51:01Z</time></trkpt><trkpt lat="42.86228634541703" lon="13.775377523714068"><ele>30.0</ele><time>2026-04-05T11:51:02Z</time></trkpt><trkpt lat="42.86241772629908" lon="13.775860713232198"><ele>30.0</ele><time>2026-04-05T11:51:03Z</time></trkpt><trkpt lat="42.86254817774278" lon="13.776347361932457"><ele>29.5</ele><time>2026-04-05T11:51:04Z</time></trkpt><trkpt lat="42.86267380350849" lon="13.776836988146865"><ele>29.0</ele><time>2026-04-05T11:51:05Z</time></trkpt><trkpt lat="42.86279989366766" lon="13.777324574005794"><ele>29.0</ele><time>2026-04-05T11:51:06Z</time></trkpt><trkpt lat="42.86292669422007" lon="13.7778134111619"><ele>29.0</ele><time>2026-04-05T11:51:07Z</time></trkpt><trkpt lat="42.863058280416226" lon="13.778297608038022"><ele>29.5</ele><time>2026-04-05T11:51:08Z</time></trkpt><trkpt lat="42.863188008256444" lon="13.778782458485257"><ele>30.0</ele><time>2026-04-05T11:51:09Z</time></trkpt><trkpt lat="42.86331654183055" lon="13.779265564607087"><ele>30.0</ele><time>2026-04-05T11:51:10Z</time></trkpt><trkpt lat="42.86344347026167" lon="13.779747105171856"><ele>30.0</ele><time>2026-04-05T11:51:11Z</time></trkpt><trkpt lat="42.86356956050684" lon="13.780231353090041"><ele>28.5</ele><time>2026-04-05T11:51:12Z</time></trkpt><trkpt lat="42.86369544304761" lon="13.780712663394178"><ele>27.0</ele><time>2026-04-05T11:51:13Z</time></trkpt><trkpt lat="42.86382417472978" lon="13.781198094323338"><ele>27.0</ele><time>2026-04-05T11:51:14Z</time></trkpt><trkpt lat="42.86395355789103" lon="13.781685002487915"><ele>27.0</ele><time>2026-04-05T11:51:15Z</time></trkpt><trkpt lat="42.86408448663515" lon="13.782168767812056"><ele>27.0</ele><time>2026-04-05T11:51:16Z</time></trkpt><trkpt lat="42.86421156590291" lon="13.782652596480451"><ele>27.0</ele><time>2026-04-05T11:51:17Z</time></trkpt><trkpt lat="42.864335449138714" lon="13.783139552698843"><ele>27.0</ele><time>2026-04-05T11:51:18Z</time></trkpt><trkpt lat="42.864452420953945" lon="13.783627177671159"><ele>27.0</ele><time>2026-04-05T11:51:19Z</time></trkpt><trkpt lat="42.86457482652363" lon="13.784110964625578"><ele>26.0</ele><time>2026-04-05T11:51:20Z</time></trkpt><trkpt lat="42.86470237040518" lon="13.784595661261001"><ele>25.0</ele><time>2026-04-05T11:51:21Z</time></trkpt><trkpt lat="42.86483116257118" lon="13.785075722064537"><ele>24.5</ele><time>2026-04-05T11:51:22Z</time></trkpt><trkpt lat="42.86495973686296" lon="13.785557306074857"><ele>24.0</ele><time>2026-04-05T11:51:23Z</time></trkpt><trkpt lat="42.8650902546671" lon="13.786041285021636"><ele>23.0</ele><time>2026-04-05T11:51:24Z</time></trkpt><trkpt lat="42.86521821497769" lon="13.786522870330927"><ele>22.0</ele><time>2026-04-05T11:51:25Z</time></trkpt><trkpt lat="42.865345492403925" lon="13.787006447407627"><ele>22.0</ele><time>2026-04-05T11:51:26Z</time></trkpt><trkpt lat="42.86547323369594" lon="13.787490936117734"><ele>22.0</ele><time>2026-04-05T11:51:27Z</time></trkpt><trkpt lat="42.86560228348204" lon="13.787974334650752"><ele>23.0</ele><time>2026-04-05T11:51:28Z</time></trkpt><trkpt lat="42.865730559630784" lon="13.78845782022628"><ele>24.0</ele><time>2026-04-05T11:51:29Z</time></trkpt><trkpt lat="42.865860812990775" lon="13.788941119355616"><ele>23.5</ele><time>2026-04-05T11:51:30Z</time></trkpt><trkpt lat="42.865989900398226" lon="13.789423985048328"><ele>23.0</ele><time>2026-04-05T11:51:31Z</time></trkpt><trkpt lat="42.86611893869031" lon="13.789907155751878"><ele>23.5</ele><time>2026-04-05T11:51:32Z</time></trkpt><trkpt lat="42.866247295834945" lon="13.79039138389109"><ele>24.0</ele><time>2026-04-05T11:51:33Z</time></trkpt><trkpt lat="42.86637650654663" lon="13.790876643478269"><ele>23.5</ele><time>2026-04-05T11:51:34Z</time></trkpt><trkpt lat="42.86650462279248" lon="13.791367328019769"><ele>23.0</ele><time>2026-04-05T11:51:35Z</time></trkpt><trkpt lat="42.86663299998597" lon="13.791860009504788"><ele>22.0</ele><time>2026-04-05T11:51:36Z</time></trkpt><trkpt lat="42.86676534634048" lon="13.792352135747015"><ele>21.0</ele><time>2026-04-05T11:51:37Z</time></trkpt><trkpt lat="42.86690627225707" lon="13.792841205686162"><ele>21.0</ele><time>2026-04-05T11:51:38Z</time></trkpt><trkpt lat="42.867055941223114" lon="13.793326953572349"><ele>21.0</ele><time>2026-04-05T11:51:39Z</time></trkpt><trkpt lat="42.86721366285526" lon="13.79381478518554"><ele>21.5</ele><time>2026-04-05T11:51:40Z</time></trkpt><trkpt lat="42.86737196097141" lon="13.794301277009938"><ele>22.0</ele><time>2026-04-05T11:51:41Z</time></trkpt><trkpt lat="42.86752906495909" lon="13.794794080053203"><ele>21.5</ele><time>2026-04-05T11:51:42Z</time></trkpt><trkpt lat="42.867682006339" lon="13.795284752236496"><ele>21.0</ele><time>2026-04-05T11:51:43Z</time></trkpt><trkpt lat="42.86783648218061" lon="13.795773016027818"><ele>21.0</ele><time>2026-04-05T11:51:44Z</time></trkpt><trkpt lat="42.86798814600954" lon="13.79626584327734"><ele>21.0</ele><time>2026-04-05T11:51:45Z</time></trkpt><trkpt lat="42.86814256584186" lon="13.796755454152674"><ele>21.0</ele><time>2026-04-05T11:51:46Z</time></trkpt><trkpt lat="42.86829594043171" lon="13.797242127453696"><ele>21.0</ele><time>2026-04-05T11:51:47Z</time></trkpt><trkpt lat="42.868450653372186" lon="13.797727522096798"><ele>21.0</ele><time>2026-04-05T11:51:48Z</time></trkpt><trkpt lat="42.86860400552036" lon="13.798210483527294"><ele>21.0</ele><time>2026-04-05T11:51:49Z</time></trkpt><trkpt lat="42.86876031797515" lon="13.798694530382921"><ele>21.0</ele><time>2026-04-05T11:51:50Z</time></trkpt><trkpt lat="42.86891507901616" lon="13.799175984937985"><ele>21.0</ele><time>2026-04-05T11:51:51Z</time></trkpt><trkpt lat="42.869068727422984" lon="13.79965928667497"><ele>21.0</ele><time>2026-04-05T11:51:52Z</time></trkpt><trkpt lat="42.86922146688664" lon="13.800139814160254"><ele>21.0</ele><time>2026-04-05T11:51:53Z</time></trkpt><trkpt lat="42.869377095202545" lon="13.800619633093245"><ele>21.5</ele><time>2026-04-05T11:51:54Z</time></trkpt><trkpt lat="42.86954164314562" lon="13.801091252621921"><ele>22.0</ele><time>2026-04-05T11:51:55Z</time></trkpt><trkpt lat="42.86972239493612" lon="13.801552014656405"><ele>22.0</ele><time>2026-04-05T11:51:56Z</time></trkpt><trkpt lat="42.86991941757186" lon="13.80200509322188"><ele>22.0</ele><time>2026-04-05T11:51:57Z</time></trkpt><trkpt lat="42.87013212964234" lon="13.802447001163463"><ele>21.5</ele><time>2026-04-05T11:51:58Z</time></trkpt><trkpt lat="42.87035911219629" lon="13.802880040061765"><ele>21.0</ele><time>2026-04-05T11:51:59Z</time></trkpt><trkpt lat="42.870598812172474" lon="13.803296563147642"><ele>21.0</ele><time>2026-04-05T11:52:00Z</time></trkpt><trkpt lat="42.870848879101544" lon="13.803690826260723"><ele>21.0</ele><time>2026-04-05T11:52:01Z</time></trkpt><trkpt lat="42.87109290129955" lon="13.804060476790193"><ele>21.5</ele><time>2026-04-05T11:52:02Z</time></trkpt><trkpt lat="42.87133773415414" lon="13.804406760010853"><ele>22.0</ele><time>2026-04-05T11:52:03Z</time></trkpt><trkpt lat="42.871587724175185" lon="13.804723669065813"><ele>21.5</ele><time>2026-04-05T11:52:04Z</time></trkpt><trkpt lat="42.871848699435795" lon="13.805024883939176"><ele>21.0</ele><time>2026-04-05T11:52:05Z</time></trkpt><trkpt lat="42.87212431247346" lon="13.805312787844466"><ele>21.0</ele><time>2026-04-05T11:52:06Z</time></trkpt><trkpt lat="42.872407457387126" lon="13.805595912334955"><ele>21.0</ele><time>2026-04-05T11:52:07Z</time></trkpt><trkpt lat="42.87269688570125" lon="13.805874500624581"><ele>20.0</ele><time>2026-04-05T11:52:08Z</time></trkpt><trkpt lat="42.87299091766838" lon="13.806146860215469"><ele>19.0</ele><time>2026-04-05T11:52:09Z</time></trkpt><trkpt lat="42.87329427603457" lon="13.806414599047688"><ele>19.5</ele><time>2026-04-05T11:52:10Z</time></trkpt><trkpt lat="42.87359530496907" lon="13.8066837913834"><ele>20.0</ele><time>2026-04-05T11:52:11Z</time></trkpt><trkpt lat="42.87389734417334" lon="13.806961282246952"><ele>20.0</ele><time>2026-04-05T11:52:12Z</time></trkpt><trkpt lat="42.87419753655638" lon="13.80724075777701"><ele>20.0</ele><time>2026-04-05T11:52:13Z</time></trkpt><trkpt lat="42.87449656080859" lon="13.807519641410845"><ele>19.5</ele><time>2026-04-05T11:52:14Z</time></trkpt><trkpt lat="42.87479339460438" lon="13.807788555406425"><ele>19.0</ele><time>2026-04-05T11:52:15Z</time></trkpt><trkpt lat="42.87509243416858" lon="13.80805485517585"><ele>19.0</ele><time>2026-04-05T11:52:16Z</time></trkpt><trkpt lat="42.8753852744267" lon="13.80831875551987"><ele>19.0</ele><time>2026-04-05T11:52:17Z</time></trkpt><trkpt lat="42.87567876062915" lon="13.808585528422999"><ele>19.5</ele><time>2026-04-05T11:52:18Z</time></trkpt><trkpt lat="42.87596972762395" lon="13.808858835704356"><ele>20.0</ele><time>2026-04-05T11:52:19Z</time></trkpt><trkpt lat="42.87625377741012" lon="13.809138040504227"><ele>19.5</ele><time>2026-04-05T11:52:20Z</time></trkpt><trkpt lat="42.8765339989147" lon="13.809427112746514"><ele>19.0</ele><time>2026-04-05T11:52:21Z</time></trkpt><trkpt lat="42.87681073478915" lon="13.809724120752051"><ele>19.0</ele><time>2026-04-05T11:52:22Z</time></trkpt><trkpt lat="42.87707844244753" lon="13.81003145471109"><ele>19.0</ele><time>2026-04-05T11:52:23Z</time></trkpt><trkpt lat="42.877333108958574" lon="13.810359922048383"><ele>19.0</ele><time>2026-04-05T11:52:24Z</time></trkpt><trkpt lat="42.877576600756896" lon="13.810706962137283"><ele>19.0</ele><time>2026-04-05T11:52:25Z</time></trkpt><trkpt lat="42.87780790608333" lon="13.811074150234976"><ele>19.0</ele><time>2026-04-05T11:52:26Z</time></trkpt><trkpt lat="42.8780283490899" lon="13.811464416209864"><ele>19.0</ele><time>2026-04-05T11:52:27Z</time></trkpt><trkpt lat="42.87823295605023" lon="13.811873985134655"><ele>18.5</ele><time>2026-04-05T11:52:28Z</time></trkpt><trkpt lat="42.878427492510255" lon="13.812287678952673"><ele>18.0</ele><time>2026-04-05T11:52:29Z</time></trkpt><trkpt lat="42.87861611143118" lon="13.81271274472511"><ele>18.5</ele><time>2026-04-05T11:52:30Z</time></trkpt><trkpt lat="42.87879677504405" lon="13.813142210390918"><ele>19.0</ele><time>2026-04-05T11:52:31Z</time></trkpt><trkpt lat="42.87896385615767" lon="13.813580157045173"><ele>19.0</ele><time>2026-04-05T11:52:32Z</time></trkpt><trkpt lat="42.87911679183628" lon="13.814026109383358"><ele>19.0</ele><time>2026-04-05T11:52:33Z</time></trkpt><trkpt lat="42.879256077540994" lon="13.814479429940194"><ele>21.0</ele><time>2026-04-05T11:52:34Z</time></trkpt><trkpt lat="42.879381000415606" lon="13.814937098792845"><ele>23.0</ele><time>2026-04-05T11:52:35Z</time></trkpt><trkpt lat="42.87949605680766" lon="13.815399267419718"><ele>23.5</ele><time>2026-04-05T11:52:36Z</time></trkpt><trkpt lat="42.87960506074201" lon="13.81586485044607"><ele>24.0</ele><time>2026-04-05T11:52:37Z</time></trkpt><trkpt lat="42.8797120848883" lon="13.816332061643353"><ele>24.0</ele><time>2026-04-05T11:52:38Z</time></trkpt><trkpt lat="42.879821206260914" lon="13.816791230081305"><ele>24.0</ele><time>2026-04-05T11:52:39Z</time></trkpt><trkpt lat="42.8799332677613" lon="13.817248896636851"><ele>23.5</ele><time>2026-04-05T11:52:40Z</time></trkpt><trkpt lat="42.88004212968687" lon="13.817707420733475"><ele>23.0</ele><time>2026-04-05T11:52:41Z</time></trkpt><trkpt lat="42.88015021658736" lon="13.818171458425367"><ele>22.0</ele><time>2026-04-05T11:52:42Z</time></trkpt><trkpt lat="42.880258301707244" lon="13.818633101403218"><ele>21.0</ele><time>2026-04-05T11:52:43Z</time></trkpt><trkpt lat="42.880366986843676" lon="13.819093975494358"><ele>22.5</ele><time>2026-04-05T11:52:44Z</time></trkpt><trkpt lat="42.88047638151683" lon="13.819552199822516"><ele>24.0</ele><time>2026-04-05T11:52:45Z</time></trkpt><trkpt lat="42.88058710746954" lon="13.820015221156268"><ele>23.0</ele><time>2026-04-05T11:52:46Z</time></trkpt><trkpt lat="42.88069727531781" lon="13.820473333475128"><ele>22.0</ele><time>2026-04-05T11:52:47Z</time></trkpt><trkpt lat="42.880804577132835" lon="13.82092965210182"><ele>22.0</ele><time>2026-04-05T11:52:48Z</time></trkpt><trkpt lat="42.88091011289745" lon="13.821389769329494"><ele>22.0</ele><time>2026-04-05T11:52:49Z</time></trkpt><trkpt lat="42.88101933295721" lon="13.821848335600908"><ele>20.5</ele><time>2026-04-05T11:52:50Z</time></trkpt><trkpt lat="42.88112454134684" lon="13.822307869124671"><ele>19.0</ele><time>2026-04-05T11:52:51Z</time></trkpt><trkpt lat="42.88123073203001" lon="13.822767563360584"><ele>19.0</ele><time>2026-04-05T11:52:52.001Z</time></trkpt><trkpt lat="42.881340676259875" lon="13.823229235356596"><ele>19.0</ele><time>2026-04-05T11:52:53.001Z</time></trkpt><trkpt lat="42.881450094569715" lon="13.823689602603292"><ele>19.0</ele><time>2026-04-05T11:52:54.001Z</time></trkpt><trkpt lat="42.88156044790697" lon="13.824149158270634"><ele>19.0</ele><time>2026-04-05T11:52:55.001Z</time></trkpt><trkpt lat="42.88166911747693" lon="13.824607950772743"><ele>18.5</ele><time>2026-04-05T11:52:56.001Z</time></trkpt><trkpt lat="42.881776168750186" lon="13.82506530306726"><ele>18.0</ele><time>2026-04-05T11:52:57.001Z</time></trkpt><trkpt lat="42.881881635649705" lon="13.825518805796742"><ele>18.0</ele><time>2026-04-05T11:52:58.001Z</time></trkpt><trkpt lat="42.88198978970637" lon="13.82597130631472"><ele>18.0</ele><time>2026-04-05T11:52:59.001Z</time></trkpt><trkpt lat="42.88209753763777" lon="13.826426837427867"><ele>17.0</ele><time>2026-04-05T11:53:00.001Z</time></trkpt><trkpt lat="42.882207909012344" lon="13.826880735874381"><ele>16.0</ele><time>2026-04-05T11:53:01.001Z</time></trkpt><trkpt lat="42.882319781628276" lon="13.827336938719869"><ele>16.0</ele><time>2026-04-05T11:53:02.001Z</time></trkpt><trkpt lat="42.88243009555257" lon="13.827794200477658"><ele>16.0</ele><time>2026-04-05T11:53:03.001Z</time></trkpt><trkpt lat="42.88253592875478" lon="13.828252782050853"><ele>16.0</ele><time>2026-04-05T11:53:04.001Z</time></trkpt><trkpt lat="42.882638087196604" lon="13.828715404953934"><ele>16.0</ele><time>2026-04-05T11:53:05.001Z</time></trkpt><trkpt lat="42.88273979716317" lon="13.829178853209898"><ele>17.0</ele><time>2026-04-05T11:53:06.001Z</time></trkpt><trkpt lat="42.88284163097393" lon="13.829644417531016"><ele>18.0</ele><time>2026-04-05T11:53:07.001Z</time></trkpt><trkpt lat="42.882941909974065" lon="13.830105608651452"><ele>17.5</ele><time>2026-04-05T11:53:08.001Z</time></trkpt><trkpt lat="42.88303937477281" lon="13.830568190502254"><ele>17.0</ele><time>2026-04-05T11:53:09.001Z</time></trkpt><trkpt lat="42.88313841608038" lon="13.831031306594058"><ele>16.0</ele><time>2026-04-05T11:53:10.001Z</time></trkpt><trkpt lat="42.88323803177301" lon="13.831491580152795"><ele>15.0</ele><time>2026-04-05T11:53:11.001Z</time></trkpt><trkpt lat="42.88334040449097" lon="13.831952342989998"><ele>16.0</ele><time>2026-04-05T11:53:12.001Z</time></trkpt><trkpt lat="42.88344031719699" lon="13.832413919402873"><ele>17.0</ele><time>2026-04-05T11:53:13.001Z</time></trkpt><trkpt lat="42.88353767299994" lon="13.832874203888469"><ele>17.0</ele><time>2026-04-05T11:53:14.001Z</time></trkpt><trkpt lat="42.883636043112205" lon="13.833334946357853"><ele>17.0</ele><time>2026-04-05T11:53:15.001Z</time></trkpt><trkpt lat="42.883737805465756" lon="13.833793280811356"><ele>16.0</ele><time>2026-04-05T11:53:16.001Z</time></trkpt><trkpt lat="42.8838351643148" lon="13.834248334034731"><ele>15.0</ele><time>2026-04-05T11:53:17.001Z</time></trkpt><trkpt lat="42.88393136962559" lon="13.834706504683176"><ele>15.0</ele><time>2026-04-05T11:53:18.001Z</time></trkpt><trkpt lat="42.88402350308057" lon="13.835160714273618"><ele>15.0</ele><time>2026-04-05T11:53:19.001Z</time></trkpt><trkpt lat="42.88411480626093" lon="13.835618633460383"><ele>14.5</ele><time>2026-04-05T11:53:20.001Z</time></trkpt><trkpt lat="42.884208125814645" lon="13.83608243380366"><ele>14.0</ele><time>2026-04-05T11:53:21.001Z</time></trkpt><trkpt lat="42.88430473399553" lon="13.836548401918089"><ele>15.0</ele><time>2026-04-05T11:53:22.001Z</time></trkpt><trkpt lat="42.884405924426815" lon="13.83701627377106"><ele>16.0</ele><time>2026-04-05T11:53:23.001Z</time></trkpt><trkpt lat="42.88450738276222" lon="13.837485571726793"><ele>14.0</ele><time>2026-04-05T11:53:24.001Z</time></trkpt><trkpt lat="42.88460656951994" lon="13.837952976536323"><ele>12.0</ele><time>2026-04-05T11:53:25Z</time></trkpt><trkpt lat="42.884701558758806" lon="13.838418417007638"><ele>12.5</ele><time>2026-04-05T11:53:26Z</time></trkpt><trkpt lat="42.88479113944308" lon="13.838886408386845"><ele>13.0</ele><time>2026-04-05T11:53:27Z</time></trkpt><trkpt lat="42.88486757655557" lon="13.839353972612734"><ele>13.0</ele><time>2026-04-05T11:53:28Z</time></trkpt><trkpt lat="42.88493359702278" lon="13.839822080671723"><ele>13.0</ele><time>2026-04-05T11:53:29Z</time></trkpt><trkpt lat="42.884984395926814" lon="13.840291809732408"><ele>13.5</ele><time>2026-04-05T11:53:30Z</time></trkpt><trkpt lat="42.885025493382585" lon="13.84076182106825"><ele>14.0</ele><time>2026-04-05T11:53:31Z</time></trkpt><trkpt lat="42.88505657765519" lon="13.841233149451723"><ele>14.0</ele><time>2026-04-05T11:53:32Z</time></trkpt><trkpt lat="42.88507514636846" lon="13.84170889616863"><ele>14.0</ele><time>2026-04-05T11:53:33Z</time></trkpt><trkpt lat="42.88508237474458" lon="13.842182089138287"><ele>13.5</ele><time>2026-04-05T11:53:34Z</time></trkpt><trkpt lat="42.88507919734243" lon="13.842661239484588"><ele>13.0</ele><time>2026-04-05T11:53:35Z</time></trkpt><trkpt lat="42.88506667676655" lon="13.843148618444673"><ele>13.0</ele><time>2026-04-05T11:53:36Z</time></trkpt><trkpt lat="42.88505106436679" lon="13.843637660581315"><ele>13.0</ele><time>2026-04-05T11:53:37Z</time></trkpt><trkpt lat="42.885036061772034" lon="13.844131638744154"><ele>13.5</ele><time>2026-04-05T11:53:38Z</time></trkpt><trkpt lat="42.885020845438675" lon="13.84462953775725"><ele>14.0</ele><time>2026-04-05T11:53:39Z</time></trkpt><trkpt lat="42.8850091066348" lon="13.845126633402057"><ele>13.5</ele><time>2026-04-05T11:53:40Z</time></trkpt><trkpt lat="42.88499776694921" lon="13.845625051200932"><ele>13.0</ele><time>2026-04-05T11:53:41Z</time></trkpt><trkpt lat="42.884985550624336" lon="13.84612197231359"><ele>12.5</ele><time>2026-04-05T11:53:42Z</time></trkpt><trkpt lat="42.88497295793813" lon="13.846620665708379"><ele>12.0</ele><time>2026-04-05T11:53:43Z</time></trkpt><trkpt lat="42.88496142061578" lon="13.84711769139716"><ele>12.5</ele><time>2026-04-05T11:53:44Z</time></trkpt><trkpt lat="42.88495047053765" lon="13.84761471098153"><ele>13.0</ele><time>2026-04-05T11:53:45Z</time></trkpt><trkpt lat="42.88495195322187" lon="13.848109092486109"><ele>12.5</ele><time>2026-04-05T11:53:46Z</time></trkpt><trkpt lat="42.884974237883526" lon="13.848599126265848"><ele>12.0</ele><time>2026-04-05T11:53:47Z</time></trkpt><trkpt lat="42.885015314981516" lon="13.849090817505363"><ele>12.0</ele><time>2026-04-05T11:53:48Z</time></trkpt><trkpt lat="42.885074280722634" lon="13.849586462629839"><ele>12.0</ele><time>2026-04-05T11:53:49Z</time></trkpt><trkpt lat="42.88514341162675" lon="13.850087366359386"><ele>11.5</ele><time>2026-04-05T11:53:50Z</time></trkpt><trkpt lat="42.885224788364546" lon="13.850581558022757"><ele>11.0</ele><time>2026-04-05T11:53:51Z</time></trkpt><trkpt lat="42.885318254862604" lon="13.851072978310496"><ele>11.0</ele><time>2026-04-05T11:53:52Z</time></trkpt><trkpt lat="42.885419938186736" lon="13.85155932063346"><ele>11.0</ele><time>2026-04-05T11:53:53Z</time></trkpt><trkpt lat="42.88553036096827" lon="13.85203813507918"><ele>10.0</ele><time>2026-04-05T11:53:54Z</time></trkpt><trkpt lat="42.885652604356565" lon="13.852509021181154"><ele>9.0</ele><time>2026-04-05T11:53:55Z</time></trkpt><trkpt lat="42.88578997396956" lon="13.852972180761698"><ele>9.0</ele><time>2026-04-05T11:53:56Z</time></trkpt><trkpt lat="42.885941299498" lon="13.853425559913422"><ele>9.0</ele><time>2026-04-05T11:53:57Z</time></trkpt><trkpt lat="42.88610540678595" lon="13.853871423529645"><ele>9.0</ele><time>2026-04-05T11:53:58Z</time></trkpt><trkpt lat="42.88627809225648" lon="13.854312902195208"><ele>9.0</ele><time>2026-04-05T11:53:59Z</time></trkpt><trkpt lat="42.88645411145439" lon="13.854755236280432"><ele>9.5</ele><time>2026-04-05T11:54:00Z</time></trkpt><trkpt lat="42.886625649241815" lon="13.855195266946305"><ele>10.0</ele><time>2026-04-05T11:54:01Z</time></trkpt><trkpt lat="42.88679283819563" lon="13.8556338713391"><ele>10.0</ele><time>2026-04-05T11:54:02Z</time></trkpt><trkpt lat="42.886957555373016" lon="13.856069901019346"><ele>10.0</ele><time>2026-04-05T11:54:03Z</time></trkpt><trkpt lat="42.88712038187186" lon="13.856505761510773"><ele>8.5</ele><time>2026-04-05T11:54:04Z</time></trkpt><trkpt lat="42.88728469150086" lon="13.856936431706359"><ele>7.0</ele><time>2026-04-05T11:54:05Z</time></trkpt><trkpt lat="42.88744920678852" lon="13.857364019730815"><ele>8.0</ele><time>2026-04-05T11:54:06Z</time></trkpt><trkpt lat="42.88761401506308" lon="13.8577910693439"><ele>9.0</ele><time>2026-04-05T11:54:07Z</time></trkpt><trkpt lat="42.88777804015529" lon="13.85821781445824"><ele>8.0</ele><time>2026-04-05T11:54:08Z</time></trkpt><trkpt lat="42.88794350798248" lon="13.858642601025837"><ele>7.0</ele><time>2026-04-05T11:54:09Z</time></trkpt><trkpt lat="42.888108190197414" lon="13.859068029463762"><ele>7.0</ele><time>2026-04-05T11:54:10Z</time></trkpt><trkpt lat="42.888272481041035" lon="13.859495040434785"><ele>7.0</ele><time>2026-04-05T11:54:11Z</time></trkpt><trkpt lat="42.88843526094964" lon="13.85992371125689"><ele>6.5</ele><time>2026-04-05T11:54:12Z</time></trkpt><trkpt lat="42.88859968598205" lon="13.86034895333904"><ele>6.0</ele><time>2026-04-05T11:54:13Z</time></trkpt><trkpt lat="42.88876603497988" lon="13.86077447527547"><ele>6.0</ele><time>2026-04-05T11:54:14Z</time></trkpt><trkpt lat="42.888933004724656" lon="13.86120220199939"><ele>6.0</ele><time>2026-04-05T11:54:15Z</time></trkpt><trkpt lat="42.88909889570657" lon="13.861632491787798"><ele>6.5</ele><time>2026-04-05T11:54:16Z</time></trkpt><trkpt lat="42.88926456302039" lon="13.862061857533915"><ele>7.0</ele><time>2026-04-05T11:54:17Z</time></trkpt><trkpt lat="42.88943094116579" lon="13.862497178301766"><ele>7.0</ele><time>2026-04-05T11:54:18Z</time></trkpt><trkpt lat="42.88959826239634" lon="13.86292773248712"><ele>7.0</ele><time>2026-04-05T11:54:19Z</time></trkpt><trkpt lat="42.88976637753241" lon="13.86335862936408"><ele>6.5</ele><time>2026-04-05T11:54:20Z</time></trkpt><trkpt lat="42.8899352889033" lon="13.86379201383725"><ele>6.0</ele><time>2026-04-05T11:54:21Z</time></trkpt><trkpt lat="42.890106586796314" lon="13.86423112574384"><ele>6.5</ele><time>2026-04-05T11:54:22Z</time></trkpt><trkpt lat="42.89027780327506" lon="13.864666957340964"><ele>7.0</ele><time>2026-04-05T11:54:23Z</time></trkpt><trkpt lat="42.89045485252937" lon="13.865100463833922"><ele>7.0</ele><time>2026-04-05T11:54:24Z</time></trkpt><trkpt lat="42.89063425850068" lon="13.865534454552568"><ele>7.0</ele><time>2026-04-05T11:54:25Z</time></trkpt><trkpt lat="42.89081168527243" lon="13.865969931491072"><ele>7.0</ele><time>2026-04-05T11:54:26Z</time></trkpt><trkpt lat="42.89098309793544" lon="13.866410286603244"><ele>7.0</ele><time>2026-04-05T11:54:27Z</time></trkpt><trkpt lat="42.89115407584376" lon="13.866854989018176"><ele>7.5</ele><time>2026-04-05T11:54:28Z</time></trkpt><trkpt lat="42.891324968212324" lon="13.86729766782268"><ele>8.0</ele><time>2026-04-05T11:54:29Z</time></trkpt><trkpt lat="42.89149665677213" lon="13.867744855829892"><ele>7.5</ele><time>2026-04-05T11:54:30Z</time></trkpt><trkpt lat="42.89166785734795" lon="13.86818797570651"><ele>7.0</ele><time>2026-04-05T11:54:31Z</time></trkpt><trkpt lat="42.891839558203344" lon="13.868630068361853"><ele>7.0</ele><time>2026-04-05T11:54:32Z</time></trkpt><trkpt lat="42.89200776590756" lon="13.869067498849624"><ele>7.0</ele><time>2026-04-05T11:54:33Z</time></trkpt><trkpt lat="42.89217398535137" lon="13.869499936166047"><ele>7.0</ele><time>2026-04-05T11:54:34Z</time></trkpt><trkpt lat="42.8923393023978" lon="13.869929929167702"><ele>7.0</ele><time>2026-04-05T11:54:35Z</time></trkpt><trkpt lat="42.89250749708029" lon="13.870361060668591"><ele>7.0</ele><time>2026-04-05T11:54:36Z</time></trkpt><trkpt lat="42.89267188238881" lon="13.8707883334129"><ele>7.0</ele><time>2026-04-05T11:54:37Z</time></trkpt><trkpt lat="42.8928371535907" lon="13.871221523123722"><ele>7.0</ele><time>2026-04-05T11:54:38Z</time></trkpt><trkpt lat="42.892998395578154" lon="13.871653305678088"><ele>7.0</ele><time>2026-04-05T11:54:39Z</time></trkpt><trkpt lat="42.89316220405055" lon="13.872084548227509"><ele>7.0</ele><time>2026-04-05T11:54:40Z</time></trkpt><trkpt lat="42.89332536791375" lon="13.872511896547103"><ele>7.0</ele><time>2026-04-05T11:54:41Z</time></trkpt><trkpt lat="42.893488288475446" lon="13.872937599026997"><ele>6.5</ele><time>2026-04-05T11:54:42Z</time></trkpt><trkpt lat="42.893651895629986" lon="13.873364797134554"><ele>6.0</ele><time>2026-04-05T11:54:43Z</time></trkpt><trkpt lat="42.893814724622416" lon="13.873788689572628"><ele>5.5</ele><time>2026-04-05T11:54:44Z</time></trkpt><trkpt lat="42.89397292768224" lon="13.874214982154994"><ele>5.0</ele><time>2026-04-05T11:54:45Z</time></trkpt><trkpt lat="42.89411874394948" lon="13.874650438378554"><ele>5.0</ele><time>2026-04-05T11:54:46Z</time></trkpt><trkpt lat="42.894248235817834" lon="13.875089194958745"><ele>5.0</ele><time>2026-04-05T11:54:47Z</time></trkpt><trkpt lat="42.894364667165654" lon="13.875538890903394"><ele>5.0</ele><time>2026-04-05T11:54:48Z</time></trkpt><trkpt lat="42.894465289788606" lon="13.875991712578054"><ele>5.0</ele><time>2026-04-05T11:54:49Z</time></trkpt><trkpt lat="42.89455004745269" lon="13.876448498472799"><ele>4.5</ele><time>2026-04-05T11:54:50Z</time></trkpt><trkpt lat="42.8946301735036" lon="13.876907910587454"><ele>4.0</ele><time>2026-04-05T11:54:51Z</time></trkpt><trkpt lat="42.89469953864204" lon="13.877368696954496"><ele>4.0</ele><time>2026-04-05T11:54:52Z</time></trkpt><trkpt lat="42.894762818819714" lon="13.877825585000098"><ele>4.0</ele><time>2026-04-05T11:54:53Z</time></trkpt><trkpt lat="42.89482290387001" lon="13.87828940722187"><ele>4.0</ele><time>2026-04-05T11:54:54Z</time></trkpt><trkpt lat="42.89488012201793" lon="13.878750461789975"><ele>4.0</ele><time>2026-04-05T11:54:55Z</time></trkpt><trkpt lat="42.89494392608042" lon="13.879212575760569"><ele>4.0</ele><time>2026-04-05T11:54:56Z</time></trkpt><trkpt lat="42.895007643039484" lon="13.879676148820078"><ele>4.0</ele><time>2026-04-05T11:54:57Z</time></trkpt><trkpt lat="42.89506893602071" lon="13.880141774570358"><ele>4.0</ele><time>2026-04-05T11:54:58Z</time></trkpt><trkpt lat="42.89512803091026" lon="13.880604626800785"><ele>4.0</ele><time>2026-04-05T11:54:59Z</time></trkpt><trkpt lat="42.895186452527554" lon="13.881070199701014"><ele>4.0</ele><time>2026-04-05T11:55:00Z</time></trkpt><trkpt lat="42.89524684775276" lon="13.88153598239495"><ele>4.0</ele><time>2026-04-05T11:55:01Z</time></trkpt><trkpt lat="42.8953072868654" lon="13.882003403635458"><ele>4.0</ele><time>2026-04-05T11:55:02Z</time></trkpt><trkpt lat="42.895367633712866" lon="13.882464730987994"><ele>4.0</ele><time>2026-04-05T11:55:03Z</time></trkpt><trkpt lat="42.89542556419495" lon="13.882921919720511"><ele>4.5</ele><time>2026-04-05T11:55:04Z</time></trkpt><trkpt lat="42.8954840652514" lon="13.883379422618916"><ele>5.0</ele><time>2026-04-05T11:55:05Z</time></trkpt><trkpt lat="42.89554128844077" lon="13.883838391864797"><ele>6.0</ele><time>2026-04-05T11:55:06Z</time></trkpt><trkpt lat="42.895598570101555" lon="13.884300991968537"><ele>7.0</ele><time>2026-04-05T11:55:07Z</time></trkpt><trkpt lat="42.89565713646675" lon="13.884762542901319"><ele>5.5</ele><time>2026-04-05T11:55:08Z</time></trkpt><trkpt lat="42.895717206260464" lon="13.885224575650517"><ele>4.0</ele><time>2026-04-05T11:55:09Z</time></trkpt><trkpt lat="42.89578587986255" lon="13.885686015122978"><ele>3.5</ele><time>2026-04-05T11:55:10Z</time></trkpt><trkpt lat="42.895836529128076" lon="13.886145508760908"><ele>3.0</ele><time>2026-04-05T11:55:11Z</time></trkpt><trkpt lat="42.89589027454127" lon="13.886609866103427"><ele>3.0</ele><time>2026-04-05T11:55:12.001Z</time></trkpt><trkpt lat="42.895934513059395" lon="13.887079448302874"><ele>3.0</ele><time>2026-04-05T11:55:13.001Z</time></trkpt><trkpt lat="42.895959209722875" lon="13.887558084930639"><ele>3.0</ele><time>2026-04-05T11:55:14.001Z</time></trkpt><trkpt lat="42.89597229306901" lon="13.888038682791503"><ele>3.0</ele><time>2026-04-05T11:55:15.001Z</time></trkpt><trkpt lat="42.89597405381259" lon="13.88851996617301"><ele>3.0</ele><time>2026-04-05T11:55:16.001Z</time></trkpt><trkpt lat="42.8959697765752" lon="13.889000542543775"><ele>3.0</ele><time>2026-04-05T11:55:17.001Z</time></trkpt><trkpt lat="42.89595674104672" lon="13.889471800690089"><ele>2.5</ele><time>2026-04-05T11:55:18.001Z</time></trkpt><trkpt lat="42.895942040378394" lon="13.889938466672687"><ele>2.0</ele><time>2026-04-05T11:55:19.001Z</time></trkpt><trkpt lat="42.89592864980026" lon="13.890396675236245"><ele>2.0</ele><time>2026-04-05T11:55:20.001Z</time></trkpt><trkpt lat="42.89591562318237" lon="13.890852040685413"><ele>2.0</ele><time>2026-04-05T11:55:21.001Z</time></trkpt><trkpt lat="42.89590237489248" lon="13.891293242172738"><ele>2.0</ele><time>2026-04-05T11:55:22.001Z</time></trkpt><trkpt lat="42.895889889017894" lon="13.891717142256072"><ele>2.0</ele><time>2026-04-05T11:55:23.001Z</time></trkpt><trkpt lat="42.895872696057154" lon="13.892105343025172"><ele>2.0</ele><time>2026-04-05T11:55:24.001Z</time></trkpt><trkpt lat="42.895857452742256" lon="13.8924671564931"><ele>2.0</ele><time>2026-04-05T11:55:25.001Z</time></trkpt><trkpt lat="42.895845201846214" lon="13.892804697234098"><ele>1.5</ele><time>2026-04-05T11:55:26.001Z</time></trkpt><trkpt lat="42.8958384770406" lon="13.893131378326824"><ele>1.0</ele><time>2026-04-05T11:55:27Z</time></trkpt><trkpt lat="42.895826606964356" lon="13.89344877871907"><ele>1.0</ele><time>2026-04-05T11:55:28Z</time></trkpt><trkpt lat="42.89581541687419" lon="13.8937458111759"><ele>1.0</ele><time>2026-04-05T11:55:29Z</time></trkpt><trkpt lat="42.89580628657364" lon="13.894018543843695"><ele>1.0</ele><time>2026-04-05T11:55:30Z</time></trkpt><trkpt lat="42.89580107925811" lon="13.894264681103952"><ele>1.0</ele><time>2026-04-05T11:55:31Z</time></trkpt><trkpt lat="42.89579650671795" lon="13.894495733836148"><ele>1.0</ele><time>2026-04-05T11:55:32Z</time></trkpt><trkpt lat="42.895786649780064" lon="13.894721357965462"><ele>1.0</ele><time>2026-04-05T11:55:33Z</time></trkpt><trkpt lat="42.89578061901304" lon="13.894948353191097"><ele>2.0</ele><time>2026-04-05T11:55:34Z</time></trkpt><trkpt lat="42.89577355002868" lon="13.895182402558591"><ele>3.0</ele><time>2026-04-05T11:55:35Z</time></trkpt><trkpt lat="42.895762202378464" lon="13.895415202429954"><ele>4.0</ele><time>2026-04-05T11:55:36Z</time></trkpt><trkpt lat="42.89574468994721" lon="13.895645432918004"><ele>4.0</ele><time>2026-04-05T11:55:37Z</time></trkpt><trkpt lat="42.89572314360438" lon="13.895869743810495"><ele>4.0</ele><time>2026-04-05T11:55:38Z</time></trkpt><trkpt lat="42.89569418447877" lon="13.896084134357972"><ele>4.0</ele><time>2026-04-05T11:55:39Z</time></trkpt><trkpt lat="42.89566260964628" lon="13.89628265654623"><ele>4.25</ele><time>2026-04-05T11:55:40Z</time></trkpt><trkpt lat="42.89562494228556" lon="13.896472333528239"><ele>4.5</ele><time>2026-04-05T11:55:41Z</time></trkpt><trkpt lat="42.89558017088179" lon="13.89665033166145"><ele>4.75</ele><time>2026-04-05T11:55:42Z</time></trkpt><trkpt lat="42.895528406024" lon="13.896809571879912"><ele>5.0</ele><time>2026-04-05T11:55:43Z</time></trkpt><trkpt lat="42.89545850459654" lon="13.89693283913498"><ele>5.25</ele><time>2026-04-05T11:55:44Z</time></trkpt><trkpt lat="42.89537210975456" lon="13.897040347153228"><ele>5.5</ele><time>2026-04-05T11:55:45Z</time></trkpt><trkpt lat="42.8952663520149" lon="13.89712729882121"><ele>5.75</ele><time>2026-04-05T11:55:46Z</time></trkpt><trkpt lat="42.89515670210904" lon="13.8971859043757"><ele>6.0</ele><time>2026-04-05T11:55:47Z</time></trkpt><trkpt lat="42.89504704725787" lon="13.897217151837594"><ele>6.199999999999999</ele><time>2026-04-05T11:55:48Z</time></trkpt><trkpt lat="42.89493639688473" lon="13.897220671743007"><ele>6.3999999999999995</ele><time>2026-04-05T11:55:49Z</time></trkpt><trkpt lat="42.894834272025335" lon="13.897195731187349"><ele>6.6</ele><time>2026-04-05T11:55:50Z</time></trkpt><trkpt lat="42.894750728609495" lon="13.897131814072653"><ele>6.8</ele><time>2026-04-05T11:55:51Z</time></trkpt><trkpt lat="42.894695802514086" lon="13.89704573546119"><ele>7.0</ele><time>2026-04-05T11:55:52Z</time></trkpt><trkpt lat="42.89466230338538" lon="13.896937587776657"><ele>7.0</ele><time>2026-04-05T11:55:53Z</time></trkpt><trkpt lat="42.89465340762929" lon="13.896806398675126"><ele>6.999999999999999</ele><time>2026-04-05T11:55:54Z</time></trkpt><trkpt lat="42.89467760088261" lon="13.896675128038384"><ele>6.999999999999999</ele><time>2026-04-05T11:55:55Z</time></trkpt><trkpt lat="42.89473293923786" lon="13.896569958074572"><ele>7.0</ele><time>2026-04-05T11:55:56Z</time></trkpt><trkpt lat="42.89480120446844" lon="13.896497732545656"><ele>7.0</ele><time>2026-04-05T11:55:57Z</time></trkpt><trkpt lat="42.89485997248555" lon="13.896425082846669"><ele>7.0</ele><time>2026-04-05T11:55:58Z</time></trkpt><trkpt lat="42.894955281828274" lon="13.896412820853788"><ele>6.999999999999999</ele><time>2026-04-05T11:55:59Z</time></trkpt><trkpt lat="42.895057944715155" lon="13.89643086349281"><ele>6.999999999999999</ele><time>2026-04-05T11:56:00Z</time></trkpt><trkpt lat="42.89516319937168" lon="13.896472134899952"><ele>7.0</ele><time>2026-04-05T11:56:01Z</time></trkpt><trkpt lat="42.89527746985984" lon="13.896508773235562"><ele>7.0</ele><time>2026-04-05T11:56:02Z</time></trkpt><trkpt lat="42.89540445666953" lon="13.896536128381095"><ele>6.333333333333334</ele><time>2026-04-05T11:56:03Z</time></trkpt><trkpt lat="42.8955512678967" lon="13.896568407430774"><ele>5.666666666666667</ele><time>2026-04-05T11:56:04Z</time></trkpt><trkpt lat="42.895712695040245" lon="13.896602466172503"><ele>5.0</ele><time>2026-04-05T11:56:05Z</time></trkpt><trkpt lat="42.895894168230186" lon="13.896645777096381"><ele>5.0</ele><time>2026-04-05T11:56:06Z</time></trkpt><trkpt lat="42.89607731921975" lon="13.896702488602534"><ele>5.0</ele><time>2026-04-05T11:56:07Z</time></trkpt><trkpt lat="42.89626840304736" lon="13.896761616999827"><ele>5.0</ele><time>2026-04-05T11:56:08Z</time></trkpt><trkpt lat="42.89645928426938" lon="13.896813391598556"><ele>5.0</ele><time>2026-04-05T11:56:09Z</time></trkpt><trkpt lat="42.89665776963547" lon="13.896870749005584"><ele>5.0</ele><time>2026-04-05T11:56:10Z</time></trkpt><trkpt lat="42.8968556857576" lon="13.896925636503275"><ele>5.0</ele><time>2026-04-05T11:56:11Z</time></trkpt><trkpt lat="42.89703290995887" lon="13.896980320701024"><ele>5.0</ele><time>2026-04-05T11:56:12Z</time></trkpt><trkpt lat="42.8971862787685" lon="13.897042937155241"><ele>5.0</ele><time>2026-04-05T11:56:13Z</time></trkpt><trkpt lat="42.89732736243338" lon="13.897125290651184"><ele>5.0</ele><time>2026-04-05T11:56:14Z</time></trkpt><trkpt lat="42.89745386217626" lon="13.897232670266586"><ele>5.0</ele><time>2026-04-05T11:56:15Z</time></trkpt><trkpt lat="42.89757919557668" lon="13.89734368221378"><ele>5.0</ele><time>2026-04-05T11:56:16Z</time></trkpt><trkpt lat="42.89769166108156" lon="13.897463324260556"><ele>5.0</ele><time>2026-04-05T11:56:17Z</time></trkpt><trkpt lat="42.89780513582149" lon="13.89759341925898"><ele>5.0</ele><time>2026-04-05T11:56:18Z</time></trkpt><trkpt lat="42.89792226065938" lon="13.89773697808689"><ele>5.333333333333334</ele><time>2026-04-05T11:56:19Z</time></trkpt><trkpt lat="42.89803720264895" lon="13.897893591183946"><ele>5.666666666666667</ele><time>2026-04-05T11:56:20Z</time></trkpt><trkpt lat="42.898150257142184" lon="13.898073056238166"><ele>6.0</ele><time>2026-04-05T11:56:21Z</time></trkpt><trkpt lat="42.8982778449911" lon="13.898244997678265"><ele>6.0</ele><time>2026-04-05T11:56:22Z</time></trkpt><trkpt lat="42.89841173817466" lon="13.898415840170426"><ele>6.0</ele><time>2026-04-05T11:56:23Z</time></trkpt><trkpt lat="42.89854536656171" lon="13.898592783015339"><ele>6.0</ele><time>2026-04-05T11:56:24Z</time></trkpt><trkpt lat="42.898711526088206" lon="13.898739571374739"><ele>5.333333333333333</ele><time>2026-04-05T11:56:25Z</time></trkpt><trkpt lat="42.8988853669463" lon="13.898878272732508"><ele>4.666666666666666</ele><time>2026-04-05T11:56:26Z</time></trkpt><trkpt lat="42.89905863024126" lon="13.898997548880393"><ele>4.0</ele><time>2026-04-05T11:56:27Z</time></trkpt><trkpt lat="42.899223628412166" lon="13.899093680244233"><ele>4.0</ele><time>2026-04-05T11:56:28Z</time></trkpt><trkpt lat="42.89939693814616" lon="13.899169602652725"><ele>4.0</ele><time>2026-04-05T11:56:29Z</time></trkpt><trkpt lat="42.89957718768873" lon="13.899232210644096"><ele>4.0</ele><time>2026-04-05T11:56:30Z</time></trkpt><trkpt lat="42.89976212392882" lon="13.899298087338519"><ele>3.0</ele><time>2026-04-05T11:56:31Z</time></trkpt><trkpt lat="42.89995775348243" lon="13.899329011421308"><ele>2.0</ele><time>2026-04-05T11:56:32Z</time></trkpt><trkpt lat="42.900158841161115" lon="13.899339950270898"><ele>1.0</ele><time>2026-04-05T11:56:33Z</time></trkpt><trkpt lat="42.90035589139718" lon="13.89932811894039"><ele>1.0</ele><time>2026-04-05T11:56:34Z</time></trkpt><trkpt lat="42.90055279962775" lon="13.899300968084068"><ele>1.0</ele><time>2026-04-05T11:56:35Z</time></trkpt><trkpt lat="42.90075942913852" lon="13.89924680041235"><ele>1.0</ele><time>2026-04-05T11:56:36Z</time></trkpt><trkpt lat="42.900975187111534" lon="13.89916543638181"><ele>1.0</ele><time>2026-04-05T11:56:37Z</time></trkpt><trkpt lat="42.90118231969739" lon="13.899046616102787"><ele>1.0</ele><time>2026-04-05T11:56:38Z</time></trkpt><trkpt lat="42.90139600339359" lon="13.898942810719822"><ele>1.0</ele><time>2026-04-05T11:56:39Z</time></trkpt><trkpt lat="42.90161571787841" lon="13.89882862903483"><ele>1.0</ele><time>2026-04-05T11:56:40Z</time></trkpt><trkpt lat="42.901842859893506" lon="13.898713242720415"><ele>0.5</ele><time>2026-04-05T11:56:41Z</time></trkpt><trkpt lat="42.90207259612402" lon="13.898599801259502"><ele>0.0</ele><time>2026-04-05T11:56:42Z</time></trkpt><trkpt lat="42.90230444525694" lon="13.898483696318335"><ele>1.0</ele><time>2026-04-05T11:56:43Z</time></trkpt><trkpt lat="42.90254134756029" lon="13.898366713365238"><ele>2.0</ele><time>2026-04-05T11:56:44Z</time></trkpt><trkpt lat="42.90278047033392" lon="13.898253145967404"><ele>2.5</ele><time>2026-04-05T11:56:45Z</time></trkpt><trkpt lat="42.90301880860234" lon="13.898143566365752"><ele>3.0</ele><time>2026-04-05T11:56:46Z</time></trkpt><trkpt lat="42.90326059632209" lon="13.898050090994433"><ele>2.5</ele><time>2026-04-05T11:56:47Z</time></trkpt><trkpt lat="42.90350963874679" lon="13.897984099072572"><ele>2.0</ele><time>2026-04-05T11:56:48Z</time></trkpt><trkpt lat="42.903763297564694" lon="13.897941917074352"><ele>2.0</ele><time>2026-04-05T11:56:49Z</time></trkpt><trkpt lat="42.90401936665374" lon="13.897922692915103"><ele>2.0</ele><time>2026-04-05T11:56:50Z</time></trkpt><trkpt lat="42.90427205254599" lon="13.89790527603955"><ele>1.0</ele><time>2026-04-05T11:56:51Z</time></trkpt><trkpt lat="42.90452241052205" lon="13.89788037200332"><ele>0.0</ele><time>2026-04-05T11:56:52Z</time></trkpt><trkpt lat="42.90477937754079" lon="13.897860101634286"><ele>0.0</ele><time>2026-04-05T11:56:53Z</time></trkpt><trkpt lat="42.905037687327464" lon="13.897836423121054"><ele>0.0</ele><time>2026-04-05T11:56:54Z</time></trkpt><trkpt lat="42.90529124414119" lon="13.897814074802756"><ele>1.0</ele><time>2026-04-05T11:56:55Z</time></trkpt><trkpt lat="42.90554621850942" lon="13.897794472628432"><ele>2.0</ele><time>2026-04-05T11:56:56Z</time></trkpt><trkpt lat="42.90580296455351" lon="13.897776530544531"><ele>0.5</ele><time>2026-04-05T11:56:57Z</time></trkpt><trkpt lat="42.906058237137465" lon="13.897753630018258"><ele>-1.0</ele><time>2026-04-05T11:56:58Z</time></trkpt><trkpt lat="42.9063130891433" lon="13.897730949349953"><ele>-1.0</ele><time>2026-04-05T11:56:59Z</time></trkpt><trkpt lat="42.90656834319164" lon="13.89771156356434"><ele>-1.0</ele><time>2026-04-05T11:57:00Z</time></trkpt><trkpt lat="42.90681914980114" lon="13.897694472642325"><ele>-0.5</ele><time>2026-04-05T11:57:01Z</time></trkpt><trkpt lat="42.90707086835432" lon="13.897675810760726"><ele>0.0</ele><time>2026-04-05T11:57:02Z</time></trkpt><trkpt lat="42.907318745961575" lon="13.897655265112551"><ele>0.0</ele><time>2026-04-05T11:57:03Z</time></trkpt><trkpt lat="42.907564993018504" lon="13.89763344095967"><ele>0.0</ele><time>2026-04-05T11:57:04Z</time></trkpt><trkpt lat="42.90780823290682" lon="13.897614640922447"><ele>1.0</ele><time>2026-04-05T11:57:05Z</time></trkpt><trkpt lat="42.90804761354743" lon="13.897595600888744"><ele>2.0</ele><time>2026-04-05T11:57:06Z</time></trkpt><trkpt lat="42.908280202106255" lon="13.897574520339042"><ele>2.333333333333333</ele><time>2026-04-05T11:57:07Z</time></trkpt><trkpt lat="42.90850727524469" lon="13.897555370624534"><ele>2.6666666666666665</ele><time>2026-04-05T11:57:08Z</time></trkpt><trkpt lat="42.908728464044515" lon="13.897538629270281"><ele>3.0</ele><time>2026-04-05T11:57:09Z</time></trkpt><trkpt lat="42.908942833459726" lon="13.897522041189825"><ele>3.0</ele><time>2026-04-05T11:57:10Z</time></trkpt><trkpt lat="42.90914942598241" lon="13.897507523531349"><ele>3.0</ele><time>2026-04-05T11:57:11Z</time></trkpt><trkpt lat="42.909355980735576" lon="13.897492383917855"><ele>3.0</ele><time>2026-04-05T11:57:12Z</time></trkpt><trkpt lat="42.909554002144475" lon="13.89747643297215"><ele>3.0</ele><time>2026-04-05T11:57:13Z</time></trkpt><trkpt lat="42.90973673124834" lon="13.8974641812125"><ele>3.0</ele><time>2026-04-05T11:57:14Z</time></trkpt><trkpt lat="42.909913513522085" lon="13.897449879457636"><ele>3.0</ele><time>2026-04-05T11:57:15Z</time></trkpt><trkpt lat="42.91008719741052" lon="13.897434957126228"><ele>2.6666666666666665</ele><time>2026-04-05T11:57:16Z</time></trkpt><trkpt lat="42.91026205975526" lon="13.897421431741495"><ele>2.333333333333333</ele><time>2026-04-05T11:57:17.001Z</time></trkpt><trkpt lat="42.91043976569413" lon="13.897422085632243"><ele>2.0</ele><time>2026-04-05T11:57:18.001Z</time></trkpt><trkpt lat="42.910614605066385" lon="13.897410638074335"><ele>2.0</ele><time>2026-04-05T11:57:19.001Z</time></trkpt><trkpt lat="42.91079384752913" lon="13.897410391070354"><ele>2.0</ele><time>2026-04-05T11:57:20.001Z</time></trkpt><trkpt lat="42.91097709093555" lon="13.897419054123832"><ele>2.0</ele><time>2026-04-05T11:57:21.001Z</time></trkpt><trkpt lat="42.911162825753884" lon="13.897423864374964"><ele>2.0</ele><time>2026-04-05T11:57:22.001Z</time></trkpt><trkpt lat="42.91135744759534" lon="13.897424243321575"><ele>2.0</ele><time>2026-04-05T11:57:23.001Z</time></trkpt><trkpt lat="42.91155565321826" lon="13.897426300970691"><ele>2.0</ele><time>2026-04-05T11:57:24Z</time></trkpt><trkpt lat="42.91176906125893" lon="13.897435153804464"><ele>2.0</ele><time>2026-04-05T11:57:25Z</time></trkpt><trkpt lat="42.91198891004767" lon="13.897451343357572"><ele>2.0</ele><time>2026-04-05T11:57:26Z</time></trkpt><trkpt lat="42.91221336999983" lon="13.89746366411992"><ele>2.0</ele><time>2026-04-05T11:57:27Z</time></trkpt><trkpt lat="42.91244713464138" lon="13.897472495756379"><ele>2.0</ele><time>2026-04-05T11:57:28Z</time></trkpt><trkpt lat="42.91268425981799" lon="13.89748158743097"><ele>2.0</ele><time>2026-04-05T11:57:29Z</time></trkpt><trkpt lat="42.91292765956347" lon="13.89749697781002"><ele>2.0</ele><time>2026-04-05T11:57:30Z</time></trkpt><trkpt lat="42.9131744323527" lon="13.897508179253537"><ele>2.0</ele><time>2026-04-05T11:57:31Z</time></trkpt><trkpt lat="42.91342470427457" lon="13.897521092542831"><ele>2.5</ele><time>2026-04-05T11:57:32Z</time></trkpt><trkpt lat="42.91367797951882" lon="13.897530101071913"><ele>3.0</ele><time>2026-04-05T11:57:33Z</time></trkpt><trkpt lat="42.91393725794155" lon="13.897541306329606"><ele>3.0</ele><time>2026-04-05T11:57:34.001Z</time></trkpt><trkpt lat="42.91419244575471" lon="13.897545070300465"><ele>3.0</ele><time>2026-04-05T11:57:35.001Z</time></trkpt><trkpt lat="42.91444488986541" lon="13.897542681756992"><ele>3.5</ele><time>2026-04-05T11:57:36.001Z</time></trkpt><trkpt lat="42.914704936996856" lon="13.897524748399332"><ele>4.0</ele><time>2026-04-05T11:57:37.001Z</time></trkpt><trkpt lat="42.91497254493477" lon="13.897493844563636"><ele>4.0</ele><time>2026-04-05T11:57:38.001Z</time></trkpt><trkpt lat="42.91524767821399" lon="13.897451534481506"><ele>4.0</ele><time>2026-04-05T11:57:39.001Z</time></trkpt><trkpt lat="42.91552390484421" lon="13.897399510015655"><ele>4.0</ele><time>2026-04-05T11:57:40.001Z</time></trkpt><trkpt lat="42.91579900898151" lon="13.897340915160854"><ele>4.0</ele><time>2026-04-05T11:57:41.001Z</time></trkpt><trkpt lat="42.916077881693866" lon="13.897272392701277"><ele>3.0</ele><time>2026-04-05T11:57:42.001Z</time></trkpt><trkpt lat="42.91635649251857" lon="13.89720208678326"><ele>2.0</ele><time>2026-04-05T11:57:43.001Z</time></trkpt><trkpt lat="42.91663370977146" lon="13.897116276829587"><ele>1.5</ele><time>2026-04-05T11:57:44.001Z</time></trkpt><trkpt lat="42.916912800886124" lon="13.897010112295193"><ele>1.0</ele><time>2026-04-05T11:57:45.001Z</time></trkpt><trkpt lat="42.91719623828925" lon="13.8969018352178"><ele>1.0</ele><time>2026-04-05T11:57:46.001Z</time></trkpt><trkpt lat="42.91748440792684" lon="13.896804610422823"><ele>1.0</ele><time>2026-04-05T11:57:47.001Z</time></trkpt><trkpt lat="42.91777983216298" lon="13.896719454775583"><ele>2.0</ele><time>2026-04-05T11:57:48.001Z</time></trkpt><trkpt lat="42.91807686711131" lon="13.896639561191797"><ele>3.0</ele><time>2026-04-05T11:57:49.001Z</time></trkpt><trkpt lat="42.9183801611788" lon="13.896564818545672"><ele>2.5</ele><time>2026-04-05T11:57:50.001Z</time></trkpt><trkpt lat="42.918682972291975" lon="13.896498114078167"><ele>2.0</ele><time>2026-04-05T11:57:51.001Z</time></trkpt><trkpt lat="42.91899051262527" lon="13.896443045547997"><ele>3.0</ele><time>2026-04-05T11:57:52.001Z</time></trkpt><trkpt lat="42.919294996780344" lon="13.896398513340586"><ele>4.0</ele><time>2026-04-05T11:57:53.001Z</time></trkpt><trkpt lat="42.91959707707738" lon="13.896354612796957"><ele>4.0</ele><time>2026-04-05T11:57:54.001Z</time></trkpt><trkpt lat="42.91989896789879" lon="13.896315012819324"><ele>4.0</ele><time>2026-04-05T11:57:55.001Z</time></trkpt><trkpt lat="42.92019740304786" lon="13.896282918561438"><ele>4.0</ele><time>2026-04-05T11:57:56.001Z</time></trkpt><trkpt lat="42.92048254280976" lon="13.896252414565502"><ele>4.0</ele><time>2026-04-05T11:57:57.001Z</time></trkpt><trkpt lat="42.92075293147125" lon="13.896218384916395"><ele>3.0</ele><time>2026-04-05T11:57:58.001Z</time></trkpt><trkpt lat="42.921006303908904" lon="13.896184839851568"><ele>2.0</ele><time>2026-04-05T11:57:59.001Z</time></trkpt><trkpt lat="42.921240587323034" lon="13.896146083968064"><ele>2.0</ele><time>2026-04-05T11:58:00.001Z</time></trkpt><trkpt lat="42.921465211274516" lon="13.896104417297092"><ele>2.0</ele><time>2026-04-05T11:58:01.001Z</time></trkpt><trkpt lat="42.9216922957342" lon="13.89604539442499"><ele>4.0</ele><time>2026-04-05T11:58:02.001Z</time></trkpt><trkpt lat="42.92191612497855" lon="13.895956057050979"><ele>6.0</ele><time>2026-04-05T11:58:03.001Z</time></trkpt><trkpt lat="42.9221316883842" lon="13.895835825398793"><ele>6.5</ele><time>2026-04-05T11:58:04.001Z</time></trkpt><trkpt lat="42.92233798686445" lon="13.895692163092061"><ele>7.0</ele><time>2026-04-05T11:58:05.001Z</time></trkpt><trkpt lat="42.922530624814655" lon="13.895523253218132"><ele>6.333333333333334</ele><time>2026-04-05T11:58:06.001Z</time></trkpt><trkpt lat="42.922711651311126" lon="13.8953398819531"><ele>5.666666666666667</ele><time>2026-04-05T11:58:07.001Z</time></trkpt><trkpt lat="42.9228861421128" lon="13.895176094836447"><ele>5.0</ele><time>2026-04-05T11:58:08.001Z</time></trkpt><trkpt lat="42.923047136068945" lon="13.895002795108129"><ele>4.666666666666667</ele><time>2026-04-05T11:58:09.001Z</time></trkpt><trkpt lat="42.92324435240327" lon="13.894882073995507"><ele>4.333333333333333</ele><time>2026-04-05T11:58:10.001Z</time></trkpt><trkpt lat="42.92343381087345" lon="13.894744076126957"><ele>4.0</ele><time>2026-04-05T11:58:11.001Z</time></trkpt><trkpt lat="42.92363986479231" lon="13.894665506500912"><ele>4.0</ele><time>2026-04-05T11:58:12.001Z</time></trkpt><trkpt lat="42.92383216928832" lon="13.89456301012137"><ele>4.0</ele><time>2026-04-05T11:58:13.001Z</time></trkpt><trkpt lat="42.924022709151856" lon="13.894482419274846"><ele>4.0</ele><time>2026-04-05T11:58:14.001Z</time></trkpt><trkpt lat="42.92420585828406" lon="13.894410511654534"><ele>4.0</ele><time>2026-04-05T11:58:15.001Z</time></trkpt><trkpt lat="42.92439017940797" lon="13.894355868196442"><ele>4.0</ele><time>2026-04-05T11:58:16.001Z</time></trkpt><trkpt lat="42.924575601135764" lon="13.89427716756501"><ele>4.0</ele><time>2026-04-05T11:58:17.001Z</time></trkpt><trkpt lat="42.92474974391377" lon="13.894163007857754"><ele>4.0</ele><time>2026-04-05T11:58:18.001Z</time></trkpt><trkpt lat="42.92492777636482" lon="13.894062275541312"><ele>4.0</ele><time>2026-04-05T11:58:19.001Z</time></trkpt><trkpt lat="42.925097216263964" lon="13.893942157232068"><ele>4.0</ele><time>2026-04-05T11:58:20.001Z</time></trkpt><trkpt lat="42.925264511311084" lon="13.893804481643544"><ele>4.666666666666666</ele><time>2026-04-05T11:58:21.001Z</time></trkpt><trkpt lat="42.92541987303878" lon="13.893652347215127"><ele>5.333333333333333</ele><time>2026-04-05T11:58:22.001Z</time></trkpt><trkpt lat="42.92557115402338" lon="13.893480472681185"><ele>6.0</ele><time>2026-04-05T11:58:23.001Z</time></trkpt><trkpt lat="42.92571098354925" lon="13.893289347498406"><ele>6.333333333333334</ele><time>2026-04-05T11:58:24.001Z</time></trkpt><trkpt lat="42.92584087743925" lon="13.893080163811904"><ele>6.666666666666667</ele><time>2026-04-05T11:58:25.001Z</time></trkpt><trkpt lat="42.92596301001213" lon="13.892855322096686"><ele>7.0</ele><time>2026-04-05T11:58:26.001Z</time></trkpt><trkpt lat="42.92607443649071" lon="13.892612001473726"><ele>5.666666666666667</ele><time>2026-04-05T11:58:27.001Z</time></trkpt><trkpt lat="42.926170269304855" lon="13.89235092491973"><ele>4.333333333333334</ele><time>2026-04-05T11:58:28.001Z</time></trkpt><trkpt lat="42.92625678896945" lon="13.89209201747281"><ele>3.0</ele><time>2026-04-05T11:58:29.001Z</time></trkpt><trkpt lat="42.92632372200591" lon="13.891837253513904"><ele>2.0</ele><time>2026-04-05T11:58:30.001Z</time></trkpt><trkpt lat="42.92637775043565" lon="13.89155035732964"><ele>1.0</ele><time>2026-04-05T11:58:31.001Z</time></trkpt><trkpt lat="42.92641801375718" lon="13.891222348434926"><ele>1.5</ele><time>2026-04-05T11:58:32.001Z</time></trkpt><trkpt lat="42.92644835586193" lon="13.890874942724277"><ele>2.0</ele><time>2026-04-05T11:58:33.001Z</time></trkpt><trkpt lat="42.92647967490818" lon="13.890510506210292"><ele>2.0</ele><time>2026-04-05T11:58:34.001Z</time></trkpt><trkpt lat="42.92651763368193" lon="13.89014954416424"><ele>2.0</ele><time>2026-04-05T11:58:35.001Z</time></trkpt><trkpt lat="42.926571689544964" lon="13.889785226681346"><ele>2.5</ele><time>2026-04-05T11:58:36.001Z</time></trkpt><trkpt lat="42.92663291261714" lon="13.889414176681539"><ele>3.0</ele><time>2026-04-05T11:58:37.001Z</time></trkpt><trkpt lat="42.92668519543354" lon="13.889040658843895"><ele>2.5</ele><time>2026-04-05T11:58:38.001Z</time></trkpt><trkpt lat="42.926726197277" lon="13.888658012591597"><ele>2.0</ele><time>2026-04-05T11:58:39.001Z</time></trkpt><trkpt lat="42.92676458021014" lon="13.888283052022496"><ele>2.0</ele><time>2026-04-05T11:58:40.001Z</time></trkpt><trkpt lat="42.926804692023474" lon="13.887910270450837"><ele>2.0</ele><time>2026-04-05T11:58:41.001Z</time></trkpt><trkpt lat="42.926844909080934" lon="13.88754758239237"><ele>3.0</ele><time>2026-04-05T11:58:42.001Z</time></trkpt><trkpt lat="42.92688262240977" lon="13.887204265333159"><ele>4.0</ele><time>2026-04-05T11:58:43.001Z</time></trkpt><trkpt lat="42.92691737723186" lon="13.886885251129197"><ele>4.0</ele><time>2026-04-05T11:58:44.001Z</time></trkpt><trkpt lat="42.92694850856914" lon="13.886588367499002"><ele>4.0</ele><time>2026-04-05T11:58:45.001Z</time></trkpt><trkpt lat="42.92697555823501" lon="13.886322996241297"><ele>4.0</ele><time>2026-04-05T11:58:46.001Z</time></trkpt><trkpt lat="42.92699880449169" lon="13.886092370076879"><ele>4.2</ele><time>2026-04-05T11:58:47.001Z</time></trkpt><trkpt lat="42.927014984916404" lon="13.885895121156498"><ele>4.4</ele><time>2026-04-05T11:58:48.001Z</time></trkpt><trkpt lat="42.92701817111045" lon="13.885740362917275"><ele>4.6</ele><time>2026-04-05T11:58:49.001Z</time></trkpt><trkpt lat="42.927024232630444" lon="13.885631087046823"><ele>4.8</ele><time>2026-04-05T11:58:50.001Z</time></trkpt><trkpt lat="42.92706545198252" lon="13.885556148736372"><ele>5.0</ele><time>2026-04-05T11:58:53.001Z</time></trkpt><trkpt lat="42.927122771311836" lon="13.88540588009257"><ele>5.0</ele><time>2026-04-05T11:58:55.001Z</time></trkpt><trkpt lat="42.92717024143135" lon="13.885316403175517"><ele>5.0</ele><time>2026-04-05T11:58:56.001Z</time></trkpt><trkpt lat="42.927243680393076" lon="13.885241289617177"><ele>5.0</ele><time>2026-04-05T11:58:57.001Z</time></trkpt><trkpt lat="42.92733918372778" lon="13.885178854021314"><ele>5.0</ele><time>2026-04-05T11:58:58.001Z</time></trkpt><trkpt lat="42.92746303227165" lon="13.885137712690058"><ele>5.0</ele><time>2026-04-05T11:58:59.001Z</time></trkpt><trkpt lat="42.927597097405645" lon="13.88509970573614"><ele>5.666666666666667</ele><time>2026-04-05T11:59:00.001Z</time></trkpt><trkpt lat="42.9277422944739" lon="13.885054045777146"><ele>6.333333333333334</ele><time>2026-04-05T11:59:01.001Z</time></trkpt><trkpt lat="42.927918026130286" lon="13.885007870558185"><ele>7.0</ele><time>2026-04-05T11:59:02.001Z</time></trkpt><trkpt lat="42.92812653065804" lon="13.884963298347333"><ele>7.0</ele><time>2026-04-05T11:59:03.001Z</time></trkpt><trkpt lat="42.92833015011443" lon="13.884910862728217"><ele>7.0</ele><time>2026-04-05T11:59:04.001Z</time></trkpt><trkpt lat="42.92854727843357" lon="13.884847044027522"><ele>7.0</ele><time>2026-04-05T11:59:05.001Z</time></trkpt><trkpt lat="42.9287722434911" lon="13.884779968576828"><ele>6.0</ele><time>2026-04-05T11:59:06.001Z</time></trkpt><trkpt lat="42.9290034691837" lon="13.884707127888475"><ele>5.0</ele><time>2026-04-05T11:59:07.001Z</time></trkpt><trkpt lat="42.92923129042008" lon="13.884633354176744"><ele>4.5</ele><time>2026-04-05T11:59:08.001Z</time></trkpt><trkpt lat="42.929471126714965" lon="13.884552986390368"><ele>4.0</ele><time>2026-04-05T11:59:09.001Z</time></trkpt><trkpt lat="42.92970201541427" lon="13.88447532681555"><ele>4.0</ele><time>2026-04-05T11:59:10.001Z</time></trkpt><trkpt lat="42.92998427210694" lon="13.884384029254013"><ele>4.0</ele><time>2026-04-05T11:59:11.001Z</time></trkpt><trkpt lat="42.930247541018005" lon="13.884301633904695"><ele>5.5</ele><time>2026-04-05T11:59:12.001Z</time></trkpt><trkpt lat="42.93049990194028" lon="13.884218991423255"><ele>7.0</ele><time>2026-04-05T11:59:13.001Z</time></trkpt><trkpt lat="42.93075180857416" lon="13.884140596870557"><ele>7.0</ele><time>2026-04-05T11:59:14.001Z</time></trkpt><trkpt lat="42.931000932439396" lon="13.884062003951518"><ele>7.0</ele><time>2026-04-05T11:59:15.001Z</time></trkpt><trkpt lat="42.93124832930319" lon="13.883983415983916"><ele>7.0</ele><time>2026-04-05T11:59:16.001Z</time></trkpt><trkpt lat="42.93149101375033" lon="13.883903267743802"><ele>7.0</ele><time>2026-04-05T11:59:17.001Z</time></trkpt><trkpt lat="42.931730885123365" lon="13.883820516850108"><ele>5.0</ele><time>2026-04-05T11:59:18.001Z</time></trkpt><trkpt lat="42.931959810767964" lon="13.883727989810193"><ele>3.0</ele><time>2026-04-05T11:59:19.001Z</time></trkpt><trkpt lat="42.93217821196812" lon="13.88362110005368"><ele>3.0</ele><time>2026-04-05T11:59:20.001Z</time></trkpt><trkpt lat="42.93238629083572" lon="13.88349851767938"><ele>3.0</ele><time>2026-04-05T11:59:21.001Z</time></trkpt><trkpt lat="42.932582147618476" lon="13.883384268473918"><ele>3.0</ele><time>2026-04-05T11:59:22.001Z</time></trkpt><trkpt lat="42.932767044033504" lon="13.883282596261887"><ele>5.0</ele><time>2026-04-05T11:59:23.001Z</time></trkpt><trkpt lat="42.932924104456994" lon="13.883195234572757"><ele>7.0</ele><time>2026-04-05T11:59:24.001Z</time></trkpt><trkpt lat="42.933062250672194" lon="13.88311580916903"><ele>9.0</ele><time>2026-04-05T11:59:25.001Z</time></trkpt><trkpt lat="42.933187819366395" lon="13.883042385754324"><ele>9.0</ele><time>2026-04-05T11:59:26.001Z</time></trkpt><trkpt lat="42.93330167820073" lon="13.882971502641375"><ele>9.0</ele><time>2026-04-05T11:59:27.001Z</time></trkpt><trkpt lat="42.933401043445905" lon="13.882909831412851"><ele>9.0</ele><time>2026-04-05T11:59:28.001Z</time></trkpt><trkpt lat="42.933501405053455" lon="13.88284231368618"><ele>9.0</ele><time>2026-04-05T11:59:29.001Z</time></trkpt><trkpt lat="42.933603867206436" lon="13.882767514881495"><ele>9.25</ele><time>2026-04-05T11:59:30.001Z</time></trkpt><trkpt lat="42.93370594786352" lon="13.88269444792952"><ele>9.5</ele><time>2026-04-05T11:59:31.001Z</time></trkpt><trkpt lat="42.93380212934623" lon="13.88263333271221"><ele>9.75</ele><time>2026-04-05T11:59:32.001Z</time></trkpt><trkpt lat="42.933919608323755" lon="13.882584887029601"><ele>10.0</ele><time>2026-04-05T11:59:33.001Z</time></trkpt><trkpt lat="42.93404870985161" lon="13.882550409557314"><ele>10.5</ele><time>2026-04-05T11:59:34.001Z</time></trkpt><trkpt lat="42.93418355147346" lon="13.882519068189902"><ele>11.0</ele><time>2026-04-05T11:59:35.001Z</time></trkpt><trkpt lat="42.934331999540895" lon="13.882487796220797"><ele>11.5</ele><time>2026-04-05T11:59:36.001Z</time></trkpt><trkpt lat="42.934491728542746" lon="13.882460798969255"><ele>12.0</ele><time>2026-04-05T11:59:37.001Z</time></trkpt><trkpt lat="42.934671046741855" lon="13.88245064747408"><ele>12.0</ele><time>2026-04-05T11:59:38.001Z</time></trkpt><trkpt lat="42.93487034151885" lon="13.882417154409888"><ele>12.0</ele><time>2026-04-05T11:59:39.001Z</time></trkpt><trkpt lat="42.93507299178638" lon="13.882384535486429"><ele>12.0</ele><time>2026-04-05T11:59:40.001Z</time></trkpt><trkpt lat="42.93527179097205" lon="13.882352438999758"><ele>10.666666666666666</ele><time>2026-04-05T11:59:41.001Z</time></trkpt><trkpt lat="42.93546192485312" lon="13.882318516590647"><ele>9.333333333333332</ele><time>2026-04-05T11:59:42.001Z</time></trkpt><trkpt lat="42.935661798682915" lon="13.882283475503405"><ele>8.0</ele><time>2026-04-05T11:59:43.001Z</time></trkpt><trkpt lat="42.93588827791827" lon="13.882240277135264"><ele>8.0</ele><time>2026-04-05T11:59:44.001Z</time></trkpt><trkpt lat="42.93611371731896" lon="13.882195627535724"><ele>8.0</ele><time>2026-04-05T11:59:45.001Z</time></trkpt><trkpt lat="42.93633358872961" lon="13.88212343846222"><ele>8.0</ele><time>2026-04-05T11:59:46.001Z</time></trkpt><trkpt lat="42.9365572436033" lon="13.882063277309157"><ele>8.0</ele><time>2026-04-05T11:59:47.001Z</time></trkpt><trkpt lat="42.93677956782502" lon="13.88198543796004"><ele>7.0</ele><time>2026-04-05T11:59:48.001Z</time></trkpt><trkpt lat="42.93700129799758" lon="13.88190383905887"><ele>6.0</ele><time>2026-04-05T11:59:49.001Z</time></trkpt><trkpt lat="42.937219911522064" lon="13.881816564434743"><ele>7.0</ele><time>2026-04-05T11:59:50.001Z</time></trkpt><trkpt lat="42.937437206703756" lon="13.881724696961122"><ele>8.0</ele><time>2026-04-05T11:59:51.001Z</time></trkpt><trkpt lat="42.93765470400213" lon="13.881627860808763"><ele>8.0</ele><time>2026-04-05T11:59:52.001Z</time></trkpt><trkpt lat="42.93787295075653" lon="13.881537496101114"><ele>8.0</ele><time>2026-04-05T11:59:53.001Z</time></trkpt><trkpt lat="42.93808732467853" lon="13.881453271366794"><ele>8.0</ele><time>2026-04-05T11:59:54.001Z</time></trkpt><trkpt lat="42.93830052483372" lon="13.881398638878382"><ele>8.0</ele><time>2026-04-05T11:59:55.001Z</time></trkpt><trkpt lat="42.93851040035898" lon="13.881323808817573"><ele>8.0</ele><time>2026-04-05T11:59:56.001Z</time></trkpt><trkpt lat="42.93871713218706" lon="13.881254751641693"><ele>7.333333333333333</ele><time>2026-04-05T11:59:57.001Z</time></trkpt><trkpt lat="42.93892632372225" lon="13.881184230877718"><ele>6.666666666666666</ele><time>2026-04-05T11:59:58.001Z</time></trkpt><trkpt lat="42.93913167671227" lon="13.881090282181475"><ele>6.0</ele><time>2026-04-05T11:59:59.001Z</time></trkpt><trkpt lat="42.93934181790153" lon="13.88101476731822"><ele>6.0</ele><time>2026-04-05T12:00:00.001Z</time></trkpt><trkpt lat="42.93955566768473" lon="13.880941156041184"><ele>6.0</ele><time>2026-04-05T12:00:01.001Z</time></trkpt><trkpt lat="42.93976227505258" lon="13.88087038164951"><ele>6.0</ele><time>2026-04-05T12:00:02.001Z</time></trkpt><trkpt lat="42.93996809924826" lon="13.880828459312456"><ele>6.666666666666666</ele><time>2026-04-05T12:00:03.001Z</time></trkpt><trkpt lat="42.940156151432724" lon="13.880773338448307"><ele>7.333333333333333</ele><time>2026-04-05T12:00:04.001Z</time></trkpt><trkpt lat="42.94033016794275" lon="13.8807223316737"><ele>8.0</ele><time>2026-04-05T12:00:05.001Z</time></trkpt><trkpt lat="42.94049144363454" lon="13.88067671029723"><ele>8.0</ele><time>2026-04-05T12:00:06.001Z</time></trkpt><trkpt lat="42.940642816353225" lon="13.880633948348393"><ele>8.0</ele><time>2026-04-05T12:00:07.001Z</time></trkpt><trkpt lat="42.94079693998079" lon="13.88059348523206"><ele>8.0</ele><time>2026-04-05T12:00:08.001Z</time></trkpt><trkpt lat="42.94095690359742" lon="13.880539273473712"><ele>8.666666666666666</ele><time>2026-04-05T12:00:09.001Z</time></trkpt><trkpt lat="42.9411257936395" lon="13.880504870162833"><ele>9.333333333333334</ele><time>2026-04-05T12:00:10.001Z</time></trkpt><trkpt lat="42.94129074927938" lon="13.88047024805814"><ele>10.0</ele><time>2026-04-05T12:00:11.001Z</time></trkpt><trkpt lat="42.94145642214626" lon="13.880421232829157"><ele>10.0</ele><time>2026-04-05T12:00:12.001Z</time></trkpt><trkpt lat="42.9416170311392" lon="13.880370335596652"><ele>10.0</ele><time>2026-04-05T12:00:13.001Z</time></trkpt><trkpt lat="42.941775909997105" lon="13.880316737022643"><ele>10.0</ele><time>2026-04-05T12:00:14.001Z</time></trkpt><trkpt lat="42.94193365202017" lon="13.880266836260942"><ele>9.8</ele><time>2026-04-05T12:00:15.001Z</time></trkpt><trkpt lat="42.9420813270544" lon="13.88023741618774"><ele>9.6</ele><time>2026-04-05T12:00:16.001Z</time></trkpt><trkpt lat="42.94220085319719" lon="13.880202139248599"><ele>9.4</ele><time>2026-04-05T12:00:17.001Z</time></trkpt><trkpt lat="42.94229005575539" lon="13.8801752548931"><ele>9.2</ele><time>2026-04-05T12:00:18.001Z</time></trkpt><trkpt lat="42.94235389975482" lon="13.880156013255053"><ele>9.0</ele><time>2026-04-05T12:00:19.001Z</time></trkpt><trkpt lat="42.94242794628036" lon="13.8801336965352"><ele>11.0</ele><time>2026-04-05T12:00:21.001Z</time></trkpt><trkpt lat="42.94240570861156" lon="13.879787463969073"><ele>13.0</ele><time>2026-04-05T12:00:23.001Z</time></trkpt><trkpt lat="42.94239142080182" lon="13.879635697654539"><ele>15.0</ele><time>2026-04-05T12:00:24.001Z</time></trkpt><trkpt lat="42.942399064394024" lon="13.87946475902072"><ele>15.0</ele><time>2026-04-05T12:00:25.001Z</time></trkpt><trkpt lat="42.942408529047356" lon="13.879274225168253"><ele>15.0</ele><time>2026-04-05T12:00:26.001Z</time></trkpt><trkpt lat="42.942402437186445" lon="13.879081421108642"><ele>15.0</ele><time>2026-04-05T12:00:27.001Z</time></trkpt><trkpt lat="42.942384101456135" lon="13.878897842847445"><ele>15.0</ele><time>2026-04-05T12:00:28.001Z</time></trkpt><trkpt lat="42.94235328857033" lon="13.87873638007186"><ele>15.6</ele><time>2026-04-05T12:00:29.001Z</time></trkpt><trkpt lat="42.942305013626914" lon="13.878598753737805"><ele>16.2</ele><time>2026-04-05T12:00:30.001Z</time></trkpt><trkpt lat="42.94222976297621" lon="13.878499655065307"><ele>16.8</ele><time>2026-04-05T12:00:31.001Z</time></trkpt><trkpt lat="42.94214594329906" lon="13.878430766061744"><ele>17.4</ele><time>2026-04-05T12:00:32.001Z</time></trkpt><trkpt lat="42.94208339989413" lon="13.878355861041307"><ele>18.0</ele><time>2026-04-05T12:00:33.001Z</time></trkpt><trkpt lat="42.942098973858215" lon="13.878253957139176"><ele>18.8</ele><time>2026-04-05T12:00:34.001Z</time></trkpt><trkpt lat="42.94207874159178" lon="13.878135127089088"><ele>19.6</ele><time>2026-04-05T12:00:35.001Z</time></trkpt><trkpt lat="42.94206337110187" lon="13.877993361204275"><ele>20.400000000000002</ele><time>2026-04-05T12:00:36.001Z</time></trkpt><trkpt lat="42.94204248336086" lon="13.877826161794195"><ele>21.200000000000003</ele><time>2026-04-05T12:00:37.001Z</time></trkpt><trkpt lat="42.942027876460166" lon="13.877679455622122"><ele>22.0</ele><time>2026-04-05T12:00:38.001Z</time></trkpt><trkpt lat="42.94201938820672" lon="13.877569675627049"><ele>22.6</ele><time>2026-04-05T12:00:39.001Z</time></trkpt><trkpt lat="42.94203452027708" lon="13.877477532935664"><ele>23.200000000000003</ele><time>2026-04-05T12:00:41.001Z</time></trkpt><trkpt lat="42.94209097891942" lon="13.877534166360247"><ele>23.8</ele><time>2026-04-05T12:02:54.001Z</time></trkpt><trkpt lat="42.94208337638337" lon="13.877448013977574"><ele>24.4</ele><time>2026-04-05T12:03:01.001Z</time></trkpt><trkpt lat="42.942154106052975" lon="13.877250010963124"><ele>25.0</ele><time>2026-04-05T12:03:55.001Z</time></trkpt><trkpt lat="42.942026979063186" lon="13.877347777467996"><ele>25.000000000000004</ele><time>2026-04-05T12:04:46.752Z</time></trkpt><trkpt lat="42.941968431422104" lon="13.877390463379676"><ele>25.0</ele><time>2026-04-05T12:05:00.214Z</time></trkpt><trkpt lat="42.94210574073222" lon="13.877441568899078"><ele>25.0</ele><time>2026-04-05T12:10:35.603Z</time></trkpt><trkpt lat="42.9420425540016" lon="13.87746249371297"><ele>25.0</ele><time>2026-04-05T12:12:23.013Z</time></trkpt><trkpt lat="42.9419895949445" lon="13.877404759026463"><ele>25.000000000000004</ele><time>2026-04-05T12:14:06.014Z</time></trkpt><trkpt lat="42.94205631734707" lon="13.877401859151131"><ele>25.0</ele><time>2026-04-05T12:19:00.014Z</time></trkpt><trkpt lat="42.94210471810315" lon="13.877328178658383"><ele>25.0</ele><time>2026-04-05T12:20:41.015Z</time></trkpt><trkpt lat="42.942026330520356" lon="13.87748643924208"><ele>25.0</ele><time>2026-04-05T12:24:09Z</time></trkpt><trkpt lat="42.94199916467181" lon="13.877403489834133"><ele>25.0</ele><time>2026-04-05T12:24:19Z</time></trkpt><trkpt lat="42.941932182150744" lon="13.877375316075794"><ele>25.0</ele><time>2026-04-05T12:24:29Z</time></trkpt><trkpt lat="42.94204044757876" lon="13.877411553116024"><ele>25.0</ele><time>2026-04-05T12:25:04Z</time></trkpt></trkseg></trk></gpx>